<?xml version="1.0" encoding="UTF-8" standalone="no" ?>
<gpx xmlns="http://www.topografix.com/GPX/1/1" xmlns:xsi="http://www.w3.org/2001/XMLSchema-instance" xsi:schemaLocation="http://www.topografix.com/GPX/1/1 http://www.topografix.com/GPX/1/1/gpx.xsd" version="1.1" creator="VisuGPX - https://www.visugpx.com">
  <metadata>
    <name>Enregistrement du 25/09/2024</name>
  </metadata>
  <trk>
    <name><![CDATA[Enregistrement du 25/09/2024_1]]></name>
    <trkseg>
      <trkpt lat="45.83522" lon="1.22568">
        <ele>270.9</ele>
        <time>2024-09-25T12:03:45Z</time>
      </trkpt>
      <trkpt lat="45.83521" lon="1.22568">
        <ele>270.9</ele>
        <time>2024-09-25T12:03:46Z</time>
      </trkpt>
      <trkpt lat="45.83518" lon="1.22565">
        <ele>270.9</ele>
        <time>2024-09-25T12:03:48Z</time>
      </trkpt>
      <trkpt lat="45.83519" lon="1.22559">
        <ele>270.8</ele>
        <time>2024-09-25T12:04:00Z</time>
      </trkpt>
      <trkpt lat="45.8352" lon="1.22554">
        <ele>270.8</ele>
        <time>2024-09-25T12:04:01Z</time>
      </trkpt>
      <trkpt lat="45.83521" lon="1.2255">
        <ele>270.8</ele>
        <time>2024-09-25T12:04:02Z</time>
      </trkpt>
      <trkpt lat="45.83521" lon="1.2255">
        <ele>270.8</ele>
        <time>2024-09-25T12:04:11Z</time>
      </trkpt>
      <trkpt lat="45.83517" lon="1.2255">
        <ele>270.7</ele>
        <time>2024-09-25T12:04:13Z</time>
      </trkpt>
      <trkpt lat="45.83513" lon="1.22549">
        <ele>270.7</ele>
        <time>2024-09-25T12:04:15Z</time>
      </trkpt>
      <trkpt lat="45.8351" lon="1.22549">
        <ele>270.7</ele>
        <time>2024-09-25T12:04:16Z</time>
      </trkpt>
      <trkpt lat="45.83505" lon="1.2255">
        <ele>270.6</ele>
        <time>2024-09-25T12:04:18Z</time>
      </trkpt>
      <trkpt lat="45.835" lon="1.2255">
        <ele>270.6</ele>
        <time>2024-09-25T12:04:19Z</time>
      </trkpt>
      <trkpt lat="45.83496" lon="1.22551">
        <ele>270.6</ele>
        <time>2024-09-25T12:04:20Z</time>
      </trkpt>
      <trkpt lat="45.83492" lon="1.22552">
        <ele>270.5</ele>
        <time>2024-09-25T12:04:21Z</time>
      </trkpt>
      <trkpt lat="45.83489" lon="1.22553">
        <ele>270.5</ele>
        <time>2024-09-25T12:04:22Z</time>
      </trkpt>
      <trkpt lat="45.83486" lon="1.22555">
        <ele>270.5</ele>
        <time>2024-09-25T12:04:23Z</time>
      </trkpt>
      <trkpt lat="45.83483" lon="1.22557">
        <ele>270.5</ele>
        <time>2024-09-25T12:04:24Z</time>
      </trkpt>
      <trkpt lat="45.8348" lon="1.22562">
        <ele>270.4</ele>
        <time>2024-09-25T12:04:26Z</time>
      </trkpt>
      <trkpt lat="45.83477" lon="1.22567">
        <ele>270.4</ele>
        <time>2024-09-25T12:04:28Z</time>
      </trkpt>
      <trkpt lat="45.83473" lon="1.22572">
        <ele>270.5</ele>
        <time>2024-09-25T12:04:30Z</time>
      </trkpt>
      <trkpt lat="45.83469" lon="1.22574">
        <ele>270.8</ele>
        <time>2024-09-25T12:04:31Z</time>
      </trkpt>
      <trkpt lat="45.83465" lon="1.22576">
        <ele>271.1</ele>
        <time>2024-09-25T12:04:32Z</time>
      </trkpt>
      <trkpt lat="45.83461" lon="1.22576">
        <ele>271.2</ele>
        <time>2024-09-25T12:04:33Z</time>
      </trkpt>
      <trkpt lat="45.83458" lon="1.22576">
        <ele>271.2</ele>
        <time>2024-09-25T12:04:34Z</time>
      </trkpt>
      <trkpt lat="45.83454" lon="1.22576">
        <ele>271.2</ele>
        <time>2024-09-25T12:04:35Z</time>
      </trkpt>
      <trkpt lat="45.8345" lon="1.22575">
        <ele>271.2</ele>
        <time>2024-09-25T12:04:36Z</time>
      </trkpt>
      <trkpt lat="45.83447" lon="1.22573">
        <ele>271.2</ele>
        <time>2024-09-25T12:04:37Z</time>
      </trkpt>
      <trkpt lat="45.83445" lon="1.2257">
        <ele>271.2</ele>
        <time>2024-09-25T12:04:38Z</time>
      </trkpt>
      <trkpt lat="45.83442" lon="1.22567">
        <ele>271.3</ele>
        <time>2024-09-25T12:04:39Z</time>
      </trkpt>
      <trkpt lat="45.8344" lon="1.22563">
        <ele>271.4</ele>
        <time>2024-09-25T12:04:40Z</time>
      </trkpt>
      <trkpt lat="45.83437" lon="1.22559">
        <ele>271.5</ele>
        <time>2024-09-25T12:04:41Z</time>
      </trkpt>
      <trkpt lat="45.83434" lon="1.22556">
        <ele>271.6</ele>
        <time>2024-09-25T12:04:42Z</time>
      </trkpt>
      <trkpt lat="45.83431" lon="1.22553">
        <ele>271.7</ele>
        <time>2024-09-25T12:04:43Z</time>
      </trkpt>
      <trkpt lat="45.83428" lon="1.22551">
        <ele>271.8</ele>
        <time>2024-09-25T12:04:44Z</time>
      </trkpt>
      <trkpt lat="45.83425" lon="1.22548">
        <ele>271.9</ele>
        <time>2024-09-25T12:04:45Z</time>
      </trkpt>
      <trkpt lat="45.83423" lon="1.22546">
        <ele>271.9</ele>
        <time>2024-09-25T12:04:46Z</time>
      </trkpt>
      <trkpt lat="45.8342" lon="1.22544">
        <ele>272</ele>
        <time>2024-09-25T12:04:47Z</time>
      </trkpt>
      <trkpt lat="45.83417" lon="1.22541">
        <ele>272.2</ele>
        <time>2024-09-25T12:04:48Z</time>
      </trkpt>
      <trkpt lat="45.83415" lon="1.22538">
        <ele>272.2</ele>
        <time>2024-09-25T12:04:49Z</time>
      </trkpt>
      <trkpt lat="45.83412" lon="1.22535">
        <ele>272.3</ele>
        <time>2024-09-25T12:04:50Z</time>
      </trkpt>
      <trkpt lat="45.83409" lon="1.22532">
        <ele>272.4</ele>
        <time>2024-09-25T12:04:51Z</time>
      </trkpt>
      <trkpt lat="45.83405" lon="1.22529">
        <ele>272.6</ele>
        <time>2024-09-25T12:04:52Z</time>
      </trkpt>
      <trkpt lat="45.83401" lon="1.22527">
        <ele>272.7</ele>
        <time>2024-09-25T12:04:53Z</time>
      </trkpt>
      <trkpt lat="45.83398" lon="1.22524">
        <ele>272.8</ele>
        <time>2024-09-25T12:04:54Z</time>
      </trkpt>
      <trkpt lat="45.83394" lon="1.22522">
        <ele>273</ele>
        <time>2024-09-25T12:04:55Z</time>
      </trkpt>
      <trkpt lat="45.83391" lon="1.2252">
        <ele>273</ele>
        <time>2024-09-25T12:04:56Z</time>
      </trkpt>
      <trkpt lat="45.83388" lon="1.22518">
        <ele>273.1</ele>
        <time>2024-09-25T12:04:57Z</time>
      </trkpt>
      <trkpt lat="45.83385" lon="1.22516">
        <ele>273.2</ele>
        <time>2024-09-25T12:04:58Z</time>
      </trkpt>
      <trkpt lat="45.83382" lon="1.22514">
        <ele>273.3</ele>
        <time>2024-09-25T12:04:59Z</time>
      </trkpt>
      <trkpt lat="45.83377" lon="1.22512">
        <ele>273.6</ele>
        <time>2024-09-25T12:05:01Z</time>
      </trkpt>
      <trkpt lat="45.83374" lon="1.2251">
        <ele>273.8</ele>
        <time>2024-09-25T12:05:02Z</time>
      </trkpt>
      <trkpt lat="45.83371" lon="1.22508">
        <ele>274</ele>
        <time>2024-09-25T12:05:03Z</time>
      </trkpt>
      <trkpt lat="45.83368" lon="1.22506">
        <ele>274.2</ele>
        <time>2024-09-25T12:05:04Z</time>
      </trkpt>
      <trkpt lat="45.83363" lon="1.22504">
        <ele>274.5</ele>
        <time>2024-09-25T12:05:06Z</time>
      </trkpt>
      <trkpt lat="45.8336" lon="1.22502">
        <ele>274.7</ele>
        <time>2024-09-25T12:05:07Z</time>
      </trkpt>
      <trkpt lat="45.83357" lon="1.225">
        <ele>274.9</ele>
        <time>2024-09-25T12:05:08Z</time>
      </trkpt>
      <trkpt lat="45.83354" lon="1.22499">
        <ele>275.1</ele>
        <time>2024-09-25T12:05:09Z</time>
      </trkpt>
      <trkpt lat="45.83351" lon="1.22498">
        <ele>275.3</ele>
        <time>2024-09-25T12:05:10Z</time>
      </trkpt>
      <trkpt lat="45.83347" lon="1.22497">
        <ele>275.6</ele>
        <time>2024-09-25T12:05:11Z</time>
      </trkpt>
      <trkpt lat="45.83344" lon="1.22496">
        <ele>275.8</ele>
        <time>2024-09-25T12:05:12Z</time>
      </trkpt>
      <trkpt lat="45.8334" lon="1.22494">
        <ele>276</ele>
        <time>2024-09-25T12:05:14Z</time>
      </trkpt>
      <trkpt lat="45.83336" lon="1.22492">
        <ele>276.3</ele>
        <time>2024-09-25T12:05:15Z</time>
      </trkpt>
      <trkpt lat="45.83332" lon="1.2249">
        <ele>276.6</ele>
        <time>2024-09-25T12:05:17Z</time>
      </trkpt>
      <trkpt lat="45.83328" lon="1.22488">
        <ele>276.9</ele>
        <time>2024-09-25T12:05:19Z</time>
      </trkpt>
      <trkpt lat="45.83325" lon="1.22486">
        <ele>277.1</ele>
        <time>2024-09-25T12:05:20Z</time>
      </trkpt>
      <trkpt lat="45.83321" lon="1.22484">
        <ele>277.4</ele>
        <time>2024-09-25T12:05:21Z</time>
      </trkpt>
      <trkpt lat="45.83318" lon="1.22483">
        <ele>277.6</ele>
        <time>2024-09-25T12:05:22Z</time>
      </trkpt>
      <trkpt lat="45.83315" lon="1.22482">
        <ele>277.8</ele>
        <time>2024-09-25T12:05:23Z</time>
      </trkpt>
      <trkpt lat="45.83311" lon="1.22481">
        <ele>278</ele>
        <time>2024-09-25T12:05:24Z</time>
      </trkpt>
      <trkpt lat="45.83307" lon="1.22481">
        <ele>278.3</ele>
        <time>2024-09-25T12:05:25Z</time>
      </trkpt>
      <trkpt lat="45.83303" lon="1.2248">
        <ele>278.5</ele>
        <time>2024-09-25T12:05:26Z</time>
      </trkpt>
      <trkpt lat="45.833" lon="1.22479">
        <ele>278.7</ele>
        <time>2024-09-25T12:05:27Z</time>
      </trkpt>
      <trkpt lat="45.83297" lon="1.22478">
        <ele>278.9</ele>
        <time>2024-09-25T12:05:28Z</time>
      </trkpt>
      <trkpt lat="45.83293" lon="1.22477">
        <ele>279.2</ele>
        <time>2024-09-25T12:05:29Z</time>
      </trkpt>
      <trkpt lat="45.8329" lon="1.22476">
        <ele>279.4</ele>
        <time>2024-09-25T12:05:30Z</time>
      </trkpt>
      <trkpt lat="45.83287" lon="1.22475">
        <ele>279.6</ele>
        <time>2024-09-25T12:05:31Z</time>
      </trkpt>
      <trkpt lat="45.83285" lon="1.22474">
        <ele>279.7</ele>
        <time>2024-09-25T12:05:32Z</time>
      </trkpt>
      <trkpt lat="45.8328" lon="1.22473">
        <ele>280</ele>
        <time>2024-09-25T12:05:34Z</time>
      </trkpt>
      <trkpt lat="45.83277" lon="1.22472">
        <ele>280.2</ele>
        <time>2024-09-25T12:05:35Z</time>
      </trkpt>
      <trkpt lat="45.83274" lon="1.22472">
        <ele>280.4</ele>
        <time>2024-09-25T12:05:36Z</time>
      </trkpt>
      <trkpt lat="45.83271" lon="1.22472">
        <ele>280.6</ele>
        <time>2024-09-25T12:05:37Z</time>
      </trkpt>
      <trkpt lat="45.83266" lon="1.22471">
        <ele>281</ele>
        <time>2024-09-25T12:05:39Z</time>
      </trkpt>
      <trkpt lat="45.83263" lon="1.22472">
        <ele>281.2</ele>
        <time>2024-09-25T12:05:40Z</time>
      </trkpt>
      <trkpt lat="45.83259" lon="1.22472">
        <ele>281.4</ele>
        <time>2024-09-25T12:05:41Z</time>
      </trkpt>
      <trkpt lat="45.83255" lon="1.22473">
        <ele>281.7</ele>
        <time>2024-09-25T12:05:43Z</time>
      </trkpt>
      <trkpt lat="45.83251" lon="1.22473">
        <ele>282</ele>
        <time>2024-09-25T12:05:45Z</time>
      </trkpt>
      <trkpt lat="45.83246" lon="1.22474">
        <ele>282.3</ele>
        <time>2024-09-25T12:05:47Z</time>
      </trkpt>
      <trkpt lat="45.83242" lon="1.22474">
        <ele>282.6</ele>
        <time>2024-09-25T12:05:48Z</time>
      </trkpt>
      <trkpt lat="45.83238" lon="1.22474">
        <ele>282.9</ele>
        <time>2024-09-25T12:05:49Z</time>
      </trkpt>
      <trkpt lat="45.83235" lon="1.22474">
        <ele>283.1</ele>
        <time>2024-09-25T12:05:50Z</time>
      </trkpt>
      <trkpt lat="45.83232" lon="1.22474">
        <ele>283.3</ele>
        <time>2024-09-25T12:05:51Z</time>
      </trkpt>
      <trkpt lat="45.83229" lon="1.22473">
        <ele>283.5</ele>
        <time>2024-09-25T12:05:53Z</time>
      </trkpt>
      <trkpt lat="45.83225" lon="1.22473">
        <ele>283.7</ele>
        <time>2024-09-25T12:05:54Z</time>
      </trkpt>
      <trkpt lat="45.83223" lon="1.22472">
        <ele>283.9</ele>
        <time>2024-09-25T12:05:55Z</time>
      </trkpt>
      <trkpt lat="45.8322" lon="1.22472">
        <ele>284</ele>
        <time>2024-09-25T12:05:56Z</time>
      </trkpt>
      <trkpt lat="45.83217" lon="1.22472">
        <ele>284.2</ele>
        <time>2024-09-25T12:05:57Z</time>
      </trkpt>
      <trkpt lat="45.83214" lon="1.22473">
        <ele>284.4</ele>
        <time>2024-09-25T12:05:58Z</time>
      </trkpt>
      <trkpt lat="45.8321" lon="1.22473">
        <ele>284.6</ele>
        <time>2024-09-25T12:05:59Z</time>
      </trkpt>
      <trkpt lat="45.83206" lon="1.22474">
        <ele>284.8</ele>
        <time>2024-09-25T12:06:00Z</time>
      </trkpt>
      <trkpt lat="45.83203" lon="1.22475">
        <ele>285</ele>
        <time>2024-09-25T12:06:01Z</time>
      </trkpt>
      <trkpt lat="45.83199" lon="1.22476">
        <ele>285.2</ele>
        <time>2024-09-25T12:06:02Z</time>
      </trkpt>
      <trkpt lat="45.83196" lon="1.22476">
        <ele>285.4</ele>
        <time>2024-09-25T12:06:03Z</time>
      </trkpt>
      <trkpt lat="45.83193" lon="1.22477">
        <ele>285.5</ele>
        <time>2024-09-25T12:06:04Z</time>
      </trkpt>
      <trkpt lat="45.8319" lon="1.22478">
        <ele>285.7</ele>
        <time>2024-09-25T12:06:05Z</time>
      </trkpt>
      <trkpt lat="45.83187" lon="1.22479">
        <ele>285.9</ele>
        <time>2024-09-25T12:06:06Z</time>
      </trkpt>
      <trkpt lat="45.83183" lon="1.2248">
        <ele>286.1</ele>
        <time>2024-09-25T12:06:07Z</time>
      </trkpt>
      <trkpt lat="45.83179" lon="1.2248">
        <ele>286.3</ele>
        <time>2024-09-25T12:06:08Z</time>
      </trkpt>
      <trkpt lat="45.83176" lon="1.22481">
        <ele>286.4</ele>
        <time>2024-09-25T12:06:09Z</time>
      </trkpt>
      <trkpt lat="45.83172" lon="1.22483">
        <ele>286.6</ele>
        <time>2024-09-25T12:06:10Z</time>
      </trkpt>
      <trkpt lat="45.83168" lon="1.22484">
        <ele>286.7</ele>
        <time>2024-09-25T12:06:11Z</time>
      </trkpt>
      <trkpt lat="45.83165" lon="1.22485">
        <ele>286.8</ele>
        <time>2024-09-25T12:06:12Z</time>
      </trkpt>
      <trkpt lat="45.83162" lon="1.22486">
        <ele>286.9</ele>
        <time>2024-09-25T12:06:13Z</time>
      </trkpt>
      <trkpt lat="45.83159" lon="1.22487">
        <ele>287.1</ele>
        <time>2024-09-25T12:06:14Z</time>
      </trkpt>
      <trkpt lat="45.83156" lon="1.22489">
        <ele>287.2</ele>
        <time>2024-09-25T12:06:15Z</time>
      </trkpt>
      <trkpt lat="45.83152" lon="1.2249">
        <ele>287.3</ele>
        <time>2024-09-25T12:06:16Z</time>
      </trkpt>
      <trkpt lat="45.83149" lon="1.22492">
        <ele>287.4</ele>
        <time>2024-09-25T12:06:17Z</time>
      </trkpt>
      <trkpt lat="45.83146" lon="1.22494">
        <ele>287.5</ele>
        <time>2024-09-25T12:06:18Z</time>
      </trkpt>
      <trkpt lat="45.83143" lon="1.22495">
        <ele>287.5</ele>
        <time>2024-09-25T12:06:19Z</time>
      </trkpt>
      <trkpt lat="45.83139" lon="1.22497">
        <ele>287.6</ele>
        <time>2024-09-25T12:06:20Z</time>
      </trkpt>
      <trkpt lat="45.83136" lon="1.22499">
        <ele>287.7</ele>
        <time>2024-09-25T12:06:21Z</time>
      </trkpt>
      <trkpt lat="45.83133" lon="1.22501">
        <ele>287.8</ele>
        <time>2024-09-25T12:06:22Z</time>
      </trkpt>
      <trkpt lat="45.83129" lon="1.22503">
        <ele>287.8</ele>
        <time>2024-09-25T12:06:23Z</time>
      </trkpt>
      <trkpt lat="45.83126" lon="1.22505">
        <ele>287.9</ele>
        <time>2024-09-25T12:06:24Z</time>
      </trkpt>
      <trkpt lat="45.83123" lon="1.22507">
        <ele>287.9</ele>
        <time>2024-09-25T12:06:25Z</time>
      </trkpt>
      <trkpt lat="45.83119" lon="1.22509">
        <ele>288</ele>
        <time>2024-09-25T12:06:26Z</time>
      </trkpt>
      <trkpt lat="45.83115" lon="1.22511">
        <ele>288.1</ele>
        <time>2024-09-25T12:06:27Z</time>
      </trkpt>
      <trkpt lat="45.83111" lon="1.22513">
        <ele>288.1</ele>
        <time>2024-09-25T12:06:28Z</time>
      </trkpt>
      <trkpt lat="45.83107" lon="1.22515">
        <ele>288.2</ele>
        <time>2024-09-25T12:06:29Z</time>
      </trkpt>
      <trkpt lat="45.83103" lon="1.22517">
        <ele>288.2</ele>
        <time>2024-09-25T12:06:30Z</time>
      </trkpt>
      <trkpt lat="45.83099" lon="1.22519">
        <ele>288.3</ele>
        <time>2024-09-25T12:06:31Z</time>
      </trkpt>
      <trkpt lat="45.83095" lon="1.22521">
        <ele>288.3</ele>
        <time>2024-09-25T12:06:32Z</time>
      </trkpt>
      <trkpt lat="45.83092" lon="1.22523">
        <ele>288.4</ele>
        <time>2024-09-25T12:06:33Z</time>
      </trkpt>
      <trkpt lat="45.83088" lon="1.22525">
        <ele>288.4</ele>
        <time>2024-09-25T12:06:34Z</time>
      </trkpt>
      <trkpt lat="45.83084" lon="1.22527">
        <ele>288.5</ele>
        <time>2024-09-25T12:06:35Z</time>
      </trkpt>
      <trkpt lat="45.8308" lon="1.22529">
        <ele>288.5</ele>
        <time>2024-09-25T12:06:36Z</time>
      </trkpt>
      <trkpt lat="45.83076" lon="1.22531">
        <ele>288.6</ele>
        <time>2024-09-25T12:06:37Z</time>
      </trkpt>
      <trkpt lat="45.83072" lon="1.22533">
        <ele>288.6</ele>
        <time>2024-09-25T12:06:38Z</time>
      </trkpt>
      <trkpt lat="45.83068" lon="1.22534">
        <ele>288.7</ele>
        <time>2024-09-25T12:06:39Z</time>
      </trkpt>
      <trkpt lat="45.83064" lon="1.22537">
        <ele>288.7</ele>
        <time>2024-09-25T12:06:40Z</time>
      </trkpt>
      <trkpt lat="45.83061" lon="1.22539">
        <ele>288.8</ele>
        <time>2024-09-25T12:06:41Z</time>
      </trkpt>
      <trkpt lat="45.83058" lon="1.22541">
        <ele>288.9</ele>
        <time>2024-09-25T12:06:42Z</time>
      </trkpt>
      <trkpt lat="45.83054" lon="1.22544">
        <ele>288.9</ele>
        <time>2024-09-25T12:06:43Z</time>
      </trkpt>
      <trkpt lat="45.8305" lon="1.22546">
        <ele>289</ele>
        <time>2024-09-25T12:06:44Z</time>
      </trkpt>
      <trkpt lat="45.83046" lon="1.22548">
        <ele>289.1</ele>
        <time>2024-09-25T12:06:45Z</time>
      </trkpt>
      <trkpt lat="45.83043" lon="1.2255">
        <ele>289.1</ele>
        <time>2024-09-25T12:06:46Z</time>
      </trkpt>
      <trkpt lat="45.83039" lon="1.22551">
        <ele>289.2</ele>
        <time>2024-09-25T12:06:47Z</time>
      </trkpt>
      <trkpt lat="45.83035" lon="1.22553">
        <ele>289.2</ele>
        <time>2024-09-25T12:06:48Z</time>
      </trkpt>
      <trkpt lat="45.8303" lon="1.22555">
        <ele>289.3</ele>
        <time>2024-09-25T12:06:49Z</time>
      </trkpt>
      <trkpt lat="45.83027" lon="1.22557">
        <ele>289.4</ele>
        <time>2024-09-25T12:06:50Z</time>
      </trkpt>
      <trkpt lat="45.83023" lon="1.2256">
        <ele>289.4</ele>
        <time>2024-09-25T12:06:51Z</time>
      </trkpt>
      <trkpt lat="45.83019" lon="1.22563">
        <ele>289.5</ele>
        <time>2024-09-25T12:06:52Z</time>
      </trkpt>
      <trkpt lat="45.83016" lon="1.22565">
        <ele>289.6</ele>
        <time>2024-09-25T12:06:53Z</time>
      </trkpt>
      <trkpt lat="45.83012" lon="1.22567">
        <ele>289.7</ele>
        <time>2024-09-25T12:06:54Z</time>
      </trkpt>
      <trkpt lat="45.83008" lon="1.2257">
        <ele>289.8</ele>
        <time>2024-09-25T12:06:55Z</time>
      </trkpt>
      <trkpt lat="45.83005" lon="1.22572">
        <ele>289.8</ele>
        <time>2024-09-25T12:06:56Z</time>
      </trkpt>
      <trkpt lat="45.83001" lon="1.22574">
        <ele>289.9</ele>
        <time>2024-09-25T12:06:57Z</time>
      </trkpt>
      <trkpt lat="45.82997" lon="1.22576">
        <ele>290</ele>
        <time>2024-09-25T12:06:58Z</time>
      </trkpt>
      <trkpt lat="45.82993" lon="1.22579">
        <ele>290.1</ele>
        <time>2024-09-25T12:06:59Z</time>
      </trkpt>
      <trkpt lat="45.82988" lon="1.22582">
        <ele>290.2</ele>
        <time>2024-09-25T12:07:00Z</time>
      </trkpt>
      <trkpt lat="45.82983" lon="1.22585">
        <ele>290.3</ele>
        <time>2024-09-25T12:07:01Z</time>
      </trkpt>
      <trkpt lat="45.82979" lon="1.22588">
        <ele>290.4</ele>
        <time>2024-09-25T12:07:02Z</time>
      </trkpt>
      <trkpt lat="45.82975" lon="1.22591">
        <ele>290.5</ele>
        <time>2024-09-25T12:07:03Z</time>
      </trkpt>
      <trkpt lat="45.82971" lon="1.22594">
        <ele>290.6</ele>
        <time>2024-09-25T12:07:04Z</time>
      </trkpt>
      <trkpt lat="45.82968" lon="1.22596">
        <ele>290.7</ele>
        <time>2024-09-25T12:07:05Z</time>
      </trkpt>
      <trkpt lat="45.82963" lon="1.22597">
        <ele>290.8</ele>
        <time>2024-09-25T12:07:06Z</time>
      </trkpt>
      <trkpt lat="45.82959" lon="1.22599">
        <ele>290.9</ele>
        <time>2024-09-25T12:07:07Z</time>
      </trkpt>
      <trkpt lat="45.82955" lon="1.22601">
        <ele>290.9</ele>
        <time>2024-09-25T12:07:08Z</time>
      </trkpt>
      <trkpt lat="45.82951" lon="1.22603">
        <ele>291</ele>
        <time>2024-09-25T12:07:09Z</time>
      </trkpt>
      <trkpt lat="45.82947" lon="1.22605">
        <ele>291.1</ele>
        <time>2024-09-25T12:07:10Z</time>
      </trkpt>
      <trkpt lat="45.82942" lon="1.22607">
        <ele>291.2</ele>
        <time>2024-09-25T12:07:11Z</time>
      </trkpt>
      <trkpt lat="45.82938" lon="1.22609">
        <ele>291.3</ele>
        <time>2024-09-25T12:07:12Z</time>
      </trkpt>
      <trkpt lat="45.82934" lon="1.22612">
        <ele>291.3</ele>
        <time>2024-09-25T12:07:13Z</time>
      </trkpt>
      <trkpt lat="45.8293" lon="1.22613">
        <ele>291.4</ele>
        <time>2024-09-25T12:07:14Z</time>
      </trkpt>
      <trkpt lat="45.82926" lon="1.22615">
        <ele>291.5</ele>
        <time>2024-09-25T12:07:15Z</time>
      </trkpt>
      <trkpt lat="45.82922" lon="1.22617">
        <ele>291.6</ele>
        <time>2024-09-25T12:07:16Z</time>
      </trkpt>
      <trkpt lat="45.82918" lon="1.22618">
        <ele>291.6</ele>
        <time>2024-09-25T12:07:17Z</time>
      </trkpt>
      <trkpt lat="45.82915" lon="1.2262">
        <ele>291.7</ele>
        <time>2024-09-25T12:07:18Z</time>
      </trkpt>
      <trkpt lat="45.82911" lon="1.22622">
        <ele>291.8</ele>
        <time>2024-09-25T12:07:19Z</time>
      </trkpt>
      <trkpt lat="45.82908" lon="1.22624">
        <ele>291.9</ele>
        <time>2024-09-25T12:07:20Z</time>
      </trkpt>
      <trkpt lat="45.82903" lon="1.22627">
        <ele>292</ele>
        <time>2024-09-25T12:07:22Z</time>
      </trkpt>
      <trkpt lat="45.82898" lon="1.22629">
        <ele>292.1</ele>
        <time>2024-09-25T12:07:23Z</time>
      </trkpt>
      <trkpt lat="45.82894" lon="1.22631">
        <ele>292.2</ele>
        <time>2024-09-25T12:07:24Z</time>
      </trkpt>
      <trkpt lat="45.82889" lon="1.22633">
        <ele>292.3</ele>
        <time>2024-09-25T12:07:25Z</time>
      </trkpt>
      <trkpt lat="45.82884" lon="1.22634">
        <ele>292.4</ele>
        <time>2024-09-25T12:07:26Z</time>
      </trkpt>
      <trkpt lat="45.8288" lon="1.22636">
        <ele>292.4</ele>
        <time>2024-09-25T12:07:27Z</time>
      </trkpt>
      <trkpt lat="45.82875" lon="1.22638">
        <ele>292.5</ele>
        <time>2024-09-25T12:07:28Z</time>
      </trkpt>
      <trkpt lat="45.82871" lon="1.22639">
        <ele>292.6</ele>
        <time>2024-09-25T12:07:29Z</time>
      </trkpt>
      <trkpt lat="45.82867" lon="1.2264">
        <ele>292.7</ele>
        <time>2024-09-25T12:07:30Z</time>
      </trkpt>
      <trkpt lat="45.82862" lon="1.22642">
        <ele>292.8</ele>
        <time>2024-09-25T12:07:31Z</time>
      </trkpt>
      <trkpt lat="45.82857" lon="1.22643">
        <ele>292.9</ele>
        <time>2024-09-25T12:07:32Z</time>
      </trkpt>
      <trkpt lat="45.82852" lon="1.22645">
        <ele>293</ele>
        <time>2024-09-25T12:07:33Z</time>
      </trkpt>
      <trkpt lat="45.82847" lon="1.22646">
        <ele>293.1</ele>
        <time>2024-09-25T12:07:34Z</time>
      </trkpt>
      <trkpt lat="45.82843" lon="1.22647">
        <ele>293.1</ele>
        <time>2024-09-25T12:07:35Z</time>
      </trkpt>
      <trkpt lat="45.82838" lon="1.22648">
        <ele>293.2</ele>
        <time>2024-09-25T12:07:36Z</time>
      </trkpt>
      <trkpt lat="45.82834" lon="1.22648">
        <ele>293.3</ele>
        <time>2024-09-25T12:07:37Z</time>
      </trkpt>
      <trkpt lat="45.8283" lon="1.22648">
        <ele>293.4</ele>
        <time>2024-09-25T12:07:38Z</time>
      </trkpt>
      <trkpt lat="45.82826" lon="1.22648">
        <ele>293.5</ele>
        <time>2024-09-25T12:07:39Z</time>
      </trkpt>
      <trkpt lat="45.82822" lon="1.22648">
        <ele>293.6</ele>
        <time>2024-09-25T12:07:40Z</time>
      </trkpt>
      <trkpt lat="45.82817" lon="1.22648">
        <ele>293.7</ele>
        <time>2024-09-25T12:07:41Z</time>
      </trkpt>
      <trkpt lat="45.82813" lon="1.22648">
        <ele>293.8</ele>
        <time>2024-09-25T12:07:42Z</time>
      </trkpt>
      <trkpt lat="45.82809" lon="1.22648">
        <ele>294</ele>
        <time>2024-09-25T12:07:43Z</time>
      </trkpt>
      <trkpt lat="45.82804" lon="1.22648">
        <ele>294.1</ele>
        <time>2024-09-25T12:07:44Z</time>
      </trkpt>
      <trkpt lat="45.828" lon="1.22647">
        <ele>294.2</ele>
        <time>2024-09-25T12:07:45Z</time>
      </trkpt>
      <trkpt lat="45.82796" lon="1.22646">
        <ele>294.4</ele>
        <time>2024-09-25T12:07:46Z</time>
      </trkpt>
      <trkpt lat="45.82792" lon="1.22644">
        <ele>294.5</ele>
        <time>2024-09-25T12:07:47Z</time>
      </trkpt>
      <trkpt lat="45.82788" lon="1.22643">
        <ele>294.6</ele>
        <time>2024-09-25T12:07:48Z</time>
      </trkpt>
      <trkpt lat="45.82785" lon="1.22641">
        <ele>294.8</ele>
        <time>2024-09-25T12:07:49Z</time>
      </trkpt>
      <trkpt lat="45.82781" lon="1.22639">
        <ele>294.9</ele>
        <time>2024-09-25T12:07:50Z</time>
      </trkpt>
      <trkpt lat="45.82777" lon="1.22637">
        <ele>295</ele>
        <time>2024-09-25T12:07:51Z</time>
      </trkpt>
      <trkpt lat="45.82774" lon="1.22636">
        <ele>295.1</ele>
        <time>2024-09-25T12:07:52Z</time>
      </trkpt>
      <trkpt lat="45.8277" lon="1.22634">
        <ele>295.3</ele>
        <time>2024-09-25T12:07:53Z</time>
      </trkpt>
      <trkpt lat="45.82766" lon="1.22633">
        <ele>295.3</ele>
        <time>2024-09-25T12:07:54Z</time>
      </trkpt>
      <trkpt lat="45.82763" lon="1.22631">
        <ele>295.4</ele>
        <time>2024-09-25T12:07:55Z</time>
      </trkpt>
      <trkpt lat="45.82759" lon="1.22629">
        <ele>295.5</ele>
        <time>2024-09-25T12:07:56Z</time>
      </trkpt>
      <trkpt lat="45.82756" lon="1.22627">
        <ele>295.6</ele>
        <time>2024-09-25T12:07:57Z</time>
      </trkpt>
      <trkpt lat="45.82753" lon="1.22626">
        <ele>295.7</ele>
        <time>2024-09-25T12:07:58Z</time>
      </trkpt>
      <trkpt lat="45.8275" lon="1.22625">
        <ele>295.8</ele>
        <time>2024-09-25T12:07:59Z</time>
      </trkpt>
      <trkpt lat="45.82746" lon="1.22623">
        <ele>296</ele>
        <time>2024-09-25T12:08:00Z</time>
      </trkpt>
      <trkpt lat="45.82743" lon="1.22622">
        <ele>296.2</ele>
        <time>2024-09-25T12:08:01Z</time>
      </trkpt>
      <trkpt lat="45.8274" lon="1.22621">
        <ele>296.4</ele>
        <time>2024-09-25T12:08:02Z</time>
      </trkpt>
      <trkpt lat="45.82736" lon="1.2262">
        <ele>296.7</ele>
        <time>2024-09-25T12:08:04Z</time>
      </trkpt>
      <trkpt lat="45.82733" lon="1.22619">
        <ele>296.9</ele>
        <time>2024-09-25T12:08:05Z</time>
      </trkpt>
      <trkpt lat="45.82729" lon="1.22618">
        <ele>297.2</ele>
        <time>2024-09-25T12:08:06Z</time>
      </trkpt>
      <trkpt lat="45.82725" lon="1.22616">
        <ele>297.6</ele>
        <time>2024-09-25T12:08:08Z</time>
      </trkpt>
      <trkpt lat="45.82722" lon="1.22614">
        <ele>297.8</ele>
        <time>2024-09-25T12:08:09Z</time>
      </trkpt>
      <trkpt lat="45.82718" lon="1.22612">
        <ele>298.1</ele>
        <time>2024-09-25T12:08:10Z</time>
      </trkpt>
      <trkpt lat="45.82715" lon="1.2261">
        <ele>298.3</ele>
        <time>2024-09-25T12:08:11Z</time>
      </trkpt>
      <trkpt lat="45.82712" lon="1.22609">
        <ele>298.5</ele>
        <time>2024-09-25T12:08:12Z</time>
      </trkpt>
      <trkpt lat="45.82709" lon="1.22607">
        <ele>298.8</ele>
        <time>2024-09-25T12:08:13Z</time>
      </trkpt>
      <trkpt lat="45.82706" lon="1.22605">
        <ele>299</ele>
        <time>2024-09-25T12:08:14Z</time>
      </trkpt>
      <trkpt lat="45.82703" lon="1.22604">
        <ele>299.2</ele>
        <time>2024-09-25T12:08:15Z</time>
      </trkpt>
      <trkpt lat="45.82701" lon="1.22602">
        <ele>299.4</ele>
        <time>2024-09-25T12:08:16Z</time>
      </trkpt>
      <trkpt lat="45.82697" lon="1.226">
        <ele>299.7</ele>
        <time>2024-09-25T12:08:18Z</time>
      </trkpt>
      <trkpt lat="45.82692" lon="1.22597">
        <ele>300.1</ele>
        <time>2024-09-25T12:08:20Z</time>
      </trkpt>
      <trkpt lat="45.82689" lon="1.22595">
        <ele>300.3</ele>
        <time>2024-09-25T12:08:21Z</time>
      </trkpt>
      <trkpt lat="45.82685" lon="1.22594">
        <ele>300.6</ele>
        <time>2024-09-25T12:08:22Z</time>
      </trkpt>
      <trkpt lat="45.82682" lon="1.22592">
        <ele>300.8</ele>
        <time>2024-09-25T12:08:23Z</time>
      </trkpt>
      <trkpt lat="45.8268" lon="1.22591">
        <ele>300.9</ele>
        <time>2024-09-25T12:08:24Z</time>
      </trkpt>
      <trkpt lat="45.82677" lon="1.22589">
        <ele>301.2</ele>
        <time>2024-09-25T12:08:25Z</time>
      </trkpt>
      <trkpt lat="45.82674" lon="1.22587">
        <ele>301.4</ele>
        <time>2024-09-25T12:08:26Z</time>
      </trkpt>
      <trkpt lat="45.82671" lon="1.22586">
        <ele>301.6</ele>
        <time>2024-09-25T12:08:27Z</time>
      </trkpt>
      <trkpt lat="45.82669" lon="1.22584">
        <ele>301.8</ele>
        <time>2024-09-25T12:08:28Z</time>
      </trkpt>
      <trkpt lat="45.82665" lon="1.22582">
        <ele>302.2</ele>
        <time>2024-09-25T12:08:30Z</time>
      </trkpt>
      <trkpt lat="45.82661" lon="1.2258">
        <ele>302.5</ele>
        <time>2024-09-25T12:08:31Z</time>
      </trkpt>
      <trkpt lat="45.82659" lon="1.22579">
        <ele>302.6</ele>
        <time>2024-09-25T12:08:32Z</time>
      </trkpt>
      <trkpt lat="45.82654" lon="1.22576">
        <ele>303.1</ele>
        <time>2024-09-25T12:08:34Z</time>
      </trkpt>
      <trkpt lat="45.8265" lon="1.22574">
        <ele>303.4</ele>
        <time>2024-09-25T12:08:35Z</time>
      </trkpt>
      <trkpt lat="45.82647" lon="1.22572">
        <ele>303.7</ele>
        <time>2024-09-25T12:08:36Z</time>
      </trkpt>
      <trkpt lat="45.82643" lon="1.22571">
        <ele>304</ele>
        <time>2024-09-25T12:08:37Z</time>
      </trkpt>
      <trkpt lat="45.8264" lon="1.22569">
        <ele>304.2</ele>
        <time>2024-09-25T12:08:38Z</time>
      </trkpt>
      <trkpt lat="45.82638" lon="1.22568">
        <ele>304.4</ele>
        <time>2024-09-25T12:08:39Z</time>
      </trkpt>
      <trkpt lat="45.82635" lon="1.22566">
        <ele>304.7</ele>
        <time>2024-09-25T12:08:40Z</time>
      </trkpt>
      <trkpt lat="45.82632" lon="1.22565">
        <ele>304.9</ele>
        <time>2024-09-25T12:08:41Z</time>
      </trkpt>
      <trkpt lat="45.82629" lon="1.22564">
        <ele>305.1</ele>
        <time>2024-09-25T12:08:42Z</time>
      </trkpt>
      <trkpt lat="45.82626" lon="1.22563">
        <ele>305.3</ele>
        <time>2024-09-25T12:08:43Z</time>
      </trkpt>
      <trkpt lat="45.82622" lon="1.22561">
        <ele>305.5</ele>
        <time>2024-09-25T12:08:44Z</time>
      </trkpt>
      <trkpt lat="45.82619" lon="1.2256">
        <ele>305.7</ele>
        <time>2024-09-25T12:08:45Z</time>
      </trkpt>
      <trkpt lat="45.82615" lon="1.22559">
        <ele>306</ele>
        <time>2024-09-25T12:08:46Z</time>
      </trkpt>
      <trkpt lat="45.82611" lon="1.22558">
        <ele>306.2</ele>
        <time>2024-09-25T12:08:47Z</time>
      </trkpt>
      <trkpt lat="45.82607" lon="1.22557">
        <ele>306.5</ele>
        <time>2024-09-25T12:08:48Z</time>
      </trkpt>
      <trkpt lat="45.82604" lon="1.22557">
        <ele>306.6</ele>
        <time>2024-09-25T12:08:49Z</time>
      </trkpt>
      <trkpt lat="45.82601" lon="1.22555">
        <ele>306.8</ele>
        <time>2024-09-25T12:08:50Z</time>
      </trkpt>
      <trkpt lat="45.82597" lon="1.22555">
        <ele>307.1</ele>
        <time>2024-09-25T12:08:51Z</time>
      </trkpt>
      <trkpt lat="45.82594" lon="1.22554">
        <ele>307.2</ele>
        <time>2024-09-25T12:08:52Z</time>
      </trkpt>
      <trkpt lat="45.82591" lon="1.22553">
        <ele>307.4</ele>
        <time>2024-09-25T12:08:53Z</time>
      </trkpt>
      <trkpt lat="45.82588" lon="1.22553">
        <ele>307.5</ele>
        <time>2024-09-25T12:08:54Z</time>
      </trkpt>
      <trkpt lat="45.82584" lon="1.22552">
        <ele>307.7</ele>
        <time>2024-09-25T12:08:55Z</time>
      </trkpt>
      <trkpt lat="45.82581" lon="1.22551">
        <ele>307.9</ele>
        <time>2024-09-25T12:08:56Z</time>
      </trkpt>
      <trkpt lat="45.82578" lon="1.22551">
        <ele>308.1</ele>
        <time>2024-09-25T12:08:57Z</time>
      </trkpt>
      <trkpt lat="45.82574" lon="1.2255">
        <ele>308.3</ele>
        <time>2024-09-25T12:08:58Z</time>
      </trkpt>
      <trkpt lat="45.82571" lon="1.2255">
        <ele>308.4</ele>
        <time>2024-09-25T12:08:59Z</time>
      </trkpt>
      <trkpt lat="45.82568" lon="1.22549">
        <ele>308.6</ele>
        <time>2024-09-25T12:09:00Z</time>
      </trkpt>
      <trkpt lat="45.82564" lon="1.22549">
        <ele>308.8</ele>
        <time>2024-09-25T12:09:01Z</time>
      </trkpt>
      <trkpt lat="45.82561" lon="1.22549">
        <ele>309</ele>
        <time>2024-09-25T12:09:02Z</time>
      </trkpt>
      <trkpt lat="45.82558" lon="1.22549">
        <ele>309.1</ele>
        <time>2024-09-25T12:09:03Z</time>
      </trkpt>
      <trkpt lat="45.82554" lon="1.22549">
        <ele>309.3</ele>
        <time>2024-09-25T12:09:04Z</time>
      </trkpt>
      <trkpt lat="45.8255" lon="1.22549">
        <ele>309.4</ele>
        <time>2024-09-25T12:09:05Z</time>
      </trkpt>
      <trkpt lat="45.82546" lon="1.22549">
        <ele>309.5</ele>
        <time>2024-09-25T12:09:06Z</time>
      </trkpt>
      <trkpt lat="45.82543" lon="1.2255">
        <ele>309.6</ele>
        <time>2024-09-25T12:09:07Z</time>
      </trkpt>
      <trkpt lat="45.82539" lon="1.2255">
        <ele>309.7</ele>
        <time>2024-09-25T12:09:08Z</time>
      </trkpt>
      <trkpt lat="45.82536" lon="1.2255">
        <ele>309.8</ele>
        <time>2024-09-25T12:09:09Z</time>
      </trkpt>
      <trkpt lat="45.82533" lon="1.2255">
        <ele>309.9</ele>
        <time>2024-09-25T12:09:10Z</time>
      </trkpt>
      <trkpt lat="45.82529" lon="1.2255">
        <ele>310</ele>
        <time>2024-09-25T12:09:11Z</time>
      </trkpt>
      <trkpt lat="45.82525" lon="1.2255">
        <ele>310.1</ele>
        <time>2024-09-25T12:09:12Z</time>
      </trkpt>
      <trkpt lat="45.82522" lon="1.22551">
        <ele>310.1</ele>
        <time>2024-09-25T12:09:13Z</time>
      </trkpt>
      <trkpt lat="45.82518" lon="1.22551">
        <ele>310.2</ele>
        <time>2024-09-25T12:09:14Z</time>
      </trkpt>
      <trkpt lat="45.82514" lon="1.22552">
        <ele>310.2</ele>
        <time>2024-09-25T12:09:15Z</time>
      </trkpt>
      <trkpt lat="45.8251" lon="1.22553">
        <ele>310.2</ele>
        <time>2024-09-25T12:09:16Z</time>
      </trkpt>
      <trkpt lat="45.82506" lon="1.22554">
        <ele>310.3</ele>
        <time>2024-09-25T12:09:17Z</time>
      </trkpt>
      <trkpt lat="45.82502" lon="1.22556">
        <ele>310.3</ele>
        <time>2024-09-25T12:09:18Z</time>
      </trkpt>
      <trkpt lat="45.82498" lon="1.22557">
        <ele>310.3</ele>
        <time>2024-09-25T12:09:19Z</time>
      </trkpt>
      <trkpt lat="45.82494" lon="1.22558">
        <ele>310.3</ele>
        <time>2024-09-25T12:09:20Z</time>
      </trkpt>
      <trkpt lat="45.82491" lon="1.2256">
        <ele>310.3</ele>
        <time>2024-09-25T12:09:21Z</time>
      </trkpt>
      <trkpt lat="45.82487" lon="1.22561">
        <ele>310.3</ele>
        <time>2024-09-25T12:09:22Z</time>
      </trkpt>
      <trkpt lat="45.82483" lon="1.22562">
        <ele>310.3</ele>
        <time>2024-09-25T12:09:23Z</time>
      </trkpt>
      <trkpt lat="45.82479" lon="1.22563">
        <ele>310.2</ele>
        <time>2024-09-25T12:09:24Z</time>
      </trkpt>
      <trkpt lat="45.82475" lon="1.22564">
        <ele>310.2</ele>
        <time>2024-09-25T12:09:25Z</time>
      </trkpt>
      <trkpt lat="45.82472" lon="1.22565">
        <ele>310.1</ele>
        <time>2024-09-25T12:09:26Z</time>
      </trkpt>
      <trkpt lat="45.82468" lon="1.22567">
        <ele>310</ele>
        <time>2024-09-25T12:09:27Z</time>
      </trkpt>
      <trkpt lat="45.82464" lon="1.22568">
        <ele>309.9</ele>
        <time>2024-09-25T12:09:28Z</time>
      </trkpt>
      <trkpt lat="45.8246" lon="1.2257">
        <ele>309.8</ele>
        <time>2024-09-25T12:09:29Z</time>
      </trkpt>
      <trkpt lat="45.82457" lon="1.22571">
        <ele>309.7</ele>
        <time>2024-09-25T12:09:30Z</time>
      </trkpt>
      <trkpt lat="45.82453" lon="1.22572">
        <ele>309.6</ele>
        <time>2024-09-25T12:09:31Z</time>
      </trkpt>
      <trkpt lat="45.8245" lon="1.22573">
        <ele>309.5</ele>
        <time>2024-09-25T12:09:32Z</time>
      </trkpt>
      <trkpt lat="45.82447" lon="1.22574">
        <ele>309.4</ele>
        <time>2024-09-25T12:09:33Z</time>
      </trkpt>
      <trkpt lat="45.82444" lon="1.22574">
        <ele>309.3</ele>
        <time>2024-09-25T12:09:34Z</time>
      </trkpt>
      <trkpt lat="45.8244" lon="1.22574">
        <ele>309.1</ele>
        <time>2024-09-25T12:09:35Z</time>
      </trkpt>
      <trkpt lat="45.82436" lon="1.22573">
        <ele>309</ele>
        <time>2024-09-25T12:09:37Z</time>
      </trkpt>
      <trkpt lat="45.82433" lon="1.22572">
        <ele>308.8</ele>
        <time>2024-09-25T12:10:05Z</time>
      </trkpt>
      <trkpt lat="45.8243" lon="1.2257">
        <ele>308.7</ele>
        <time>2024-09-25T12:10:07Z</time>
      </trkpt>
      <trkpt lat="45.82427" lon="1.22568">
        <ele>308.6</ele>
        <time>2024-09-25T12:10:09Z</time>
      </trkpt>
      <trkpt lat="45.82424" lon="1.22569">
        <ele>308.4</ele>
        <time>2024-09-25T12:10:11Z</time>
      </trkpt>
      <trkpt lat="45.82421" lon="1.22571">
        <ele>308.3</ele>
        <time>2024-09-25T12:10:12Z</time>
      </trkpt>
      <trkpt lat="45.82419" lon="1.22573">
        <ele>308.3</ele>
        <time>2024-09-25T12:10:13Z</time>
      </trkpt>
      <trkpt lat="45.82416" lon="1.22576">
        <ele>308.3</ele>
        <time>2024-09-25T12:10:14Z</time>
      </trkpt>
      <trkpt lat="45.82412" lon="1.22579">
        <ele>308.2</ele>
        <time>2024-09-25T12:10:15Z</time>
      </trkpt>
      <trkpt lat="45.82409" lon="1.22583">
        <ele>308.1</ele>
        <time>2024-09-25T12:10:16Z</time>
      </trkpt>
      <trkpt lat="45.82406" lon="1.22587">
        <ele>308.1</ele>
        <time>2024-09-25T12:10:17Z</time>
      </trkpt>
      <trkpt lat="45.82402" lon="1.22591">
        <ele>308.1</ele>
        <time>2024-09-25T12:10:18Z</time>
      </trkpt>
      <trkpt lat="45.824" lon="1.22596">
        <ele>308.1</ele>
        <time>2024-09-25T12:10:19Z</time>
      </trkpt>
      <trkpt lat="45.82397" lon="1.226">
        <ele>308</ele>
        <time>2024-09-25T12:10:20Z</time>
      </trkpt>
      <trkpt lat="45.82393" lon="1.22604">
        <ele>307.9</ele>
        <time>2024-09-25T12:10:21Z</time>
      </trkpt>
      <trkpt lat="45.82389" lon="1.22608">
        <ele>307.8</ele>
        <time>2024-09-25T12:10:22Z</time>
      </trkpt>
      <trkpt lat="45.82385" lon="1.22611">
        <ele>307.7</ele>
        <time>2024-09-25T12:10:23Z</time>
      </trkpt>
      <trkpt lat="45.82381" lon="1.22615">
        <ele>307.6</ele>
        <time>2024-09-25T12:10:24Z</time>
      </trkpt>
      <trkpt lat="45.82378" lon="1.22618">
        <ele>307.5</ele>
        <time>2024-09-25T12:10:25Z</time>
      </trkpt>
      <trkpt lat="45.82375" lon="1.22622">
        <ele>307.3</ele>
        <time>2024-09-25T12:10:26Z</time>
      </trkpt>
      <trkpt lat="45.82371" lon="1.22627">
        <ele>307.1</ele>
        <time>2024-09-25T12:10:27Z</time>
      </trkpt>
      <trkpt lat="45.82367" lon="1.22631">
        <ele>307</ele>
        <time>2024-09-25T12:10:28Z</time>
      </trkpt>
      <trkpt lat="45.82363" lon="1.22635">
        <ele>306.8</ele>
        <time>2024-09-25T12:10:29Z</time>
      </trkpt>
      <trkpt lat="45.82359" lon="1.2264">
        <ele>306.6</ele>
        <time>2024-09-25T12:10:30Z</time>
      </trkpt>
      <trkpt lat="45.82355" lon="1.22644">
        <ele>306.4</ele>
        <time>2024-09-25T12:10:31Z</time>
      </trkpt>
      <trkpt lat="45.82351" lon="1.22649">
        <ele>306.2</ele>
        <time>2024-09-25T12:10:32Z</time>
      </trkpt>
      <trkpt lat="45.82347" lon="1.22653">
        <ele>306</ele>
        <time>2024-09-25T12:10:33Z</time>
      </trkpt>
      <trkpt lat="45.82343" lon="1.22657">
        <ele>305.8</ele>
        <time>2024-09-25T12:10:34Z</time>
      </trkpt>
      <trkpt lat="45.82339" lon="1.22662">
        <ele>305.6</ele>
        <time>2024-09-25T12:10:35Z</time>
      </trkpt>
      <trkpt lat="45.82335" lon="1.22667">
        <ele>305.4</ele>
        <time>2024-09-25T12:10:36Z</time>
      </trkpt>
      <trkpt lat="45.82331" lon="1.22672">
        <ele>305.2</ele>
        <time>2024-09-25T12:10:37Z</time>
      </trkpt>
      <trkpt lat="45.82326" lon="1.22677">
        <ele>305</ele>
        <time>2024-09-25T12:10:38Z</time>
      </trkpt>
      <trkpt lat="45.82322" lon="1.22682">
        <ele>304.8</ele>
        <time>2024-09-25T12:10:39Z</time>
      </trkpt>
      <trkpt lat="45.82318" lon="1.22688">
        <ele>304.5</ele>
        <time>2024-09-25T12:10:40Z</time>
      </trkpt>
      <trkpt lat="45.82313" lon="1.22693">
        <ele>304.3</ele>
        <time>2024-09-25T12:10:41Z</time>
      </trkpt>
      <trkpt lat="45.82309" lon="1.22698">
        <ele>304.2</ele>
        <time>2024-09-25T12:10:42Z</time>
      </trkpt>
      <trkpt lat="45.82304" lon="1.22703">
        <ele>304</ele>
        <time>2024-09-25T12:10:43Z</time>
      </trkpt>
      <trkpt lat="45.823" lon="1.22707">
        <ele>303.9</ele>
        <time>2024-09-25T12:10:44Z</time>
      </trkpt>
      <trkpt lat="45.82296" lon="1.22713">
        <ele>303.8</ele>
        <time>2024-09-25T12:10:45Z</time>
      </trkpt>
      <trkpt lat="45.82291" lon="1.22718">
        <ele>303.6</ele>
        <time>2024-09-25T12:10:46Z</time>
      </trkpt>
      <trkpt lat="45.82287" lon="1.22723">
        <ele>303.4</ele>
        <time>2024-09-25T12:10:47Z</time>
      </trkpt>
      <trkpt lat="45.82282" lon="1.22729">
        <ele>303.2</ele>
        <time>2024-09-25T12:10:48Z</time>
      </trkpt>
      <trkpt lat="45.82277" lon="1.22734">
        <ele>303.1</ele>
        <time>2024-09-25T12:10:49Z</time>
      </trkpt>
      <trkpt lat="45.82273" lon="1.2274">
        <ele>302.9</ele>
        <time>2024-09-25T12:10:50Z</time>
      </trkpt>
      <trkpt lat="45.82268" lon="1.22745">
        <ele>302.8</ele>
        <time>2024-09-25T12:10:51Z</time>
      </trkpt>
      <trkpt lat="45.82263" lon="1.22751">
        <ele>302.6</ele>
        <time>2024-09-25T12:10:52Z</time>
      </trkpt>
      <trkpt lat="45.82259" lon="1.22756">
        <ele>302.5</ele>
        <time>2024-09-25T12:10:53Z</time>
      </trkpt>
      <trkpt lat="45.82254" lon="1.2276">
        <ele>302.5</ele>
        <time>2024-09-25T12:10:54Z</time>
      </trkpt>
      <trkpt lat="45.8225" lon="1.22765">
        <ele>302.4</ele>
        <time>2024-09-25T12:10:55Z</time>
      </trkpt>
      <trkpt lat="45.82246" lon="1.2277">
        <ele>302.3</ele>
        <time>2024-09-25T12:10:56Z</time>
      </trkpt>
      <trkpt lat="45.82241" lon="1.22775">
        <ele>302.3</ele>
        <time>2024-09-25T12:10:57Z</time>
      </trkpt>
      <trkpt lat="45.82237" lon="1.22779">
        <ele>302.3</ele>
        <time>2024-09-25T12:10:58Z</time>
      </trkpt>
      <trkpt lat="45.82234" lon="1.22783">
        <ele>302.3</ele>
        <time>2024-09-25T12:10:59Z</time>
      </trkpt>
      <trkpt lat="45.8223" lon="1.22787">
        <ele>302.3</ele>
        <time>2024-09-25T12:11:00Z</time>
      </trkpt>
      <trkpt lat="45.82227" lon="1.22791">
        <ele>302.3</ele>
        <time>2024-09-25T12:11:01Z</time>
      </trkpt>
      <trkpt lat="45.82224" lon="1.22794">
        <ele>302.3</ele>
        <time>2024-09-25T12:11:02Z</time>
      </trkpt>
      <trkpt lat="45.82221" lon="1.22797">
        <ele>302.3</ele>
        <time>2024-09-25T12:11:03Z</time>
      </trkpt>
      <trkpt lat="45.82218" lon="1.228">
        <ele>302.3</ele>
        <time>2024-09-25T12:11:05Z</time>
      </trkpt>
      <trkpt lat="45.82216" lon="1.22804">
        <ele>302.3</ele>
        <time>2024-09-25T12:11:07Z</time>
      </trkpt>
      <trkpt lat="45.82213" lon="1.22807">
        <ele>302.3</ele>
        <time>2024-09-25T12:11:10Z</time>
      </trkpt>
      <trkpt lat="45.82209" lon="1.22811">
        <ele>302.4</ele>
        <time>2024-09-25T12:11:12Z</time>
      </trkpt>
      <trkpt lat="45.82206" lon="1.22815">
        <ele>302.4</ele>
        <time>2024-09-25T12:11:13Z</time>
      </trkpt>
      <trkpt lat="45.82203" lon="1.22819">
        <ele>302.5</ele>
        <time>2024-09-25T12:11:14Z</time>
      </trkpt>
      <trkpt lat="45.822" lon="1.22823">
        <ele>302.6</ele>
        <time>2024-09-25T12:11:15Z</time>
      </trkpt>
      <trkpt lat="45.82198" lon="1.22826">
        <ele>302.6</ele>
        <time>2024-09-25T12:11:16Z</time>
      </trkpt>
      <trkpt lat="45.82196" lon="1.2283">
        <ele>302.7</ele>
        <time>2024-09-25T12:11:17Z</time>
      </trkpt>
      <trkpt lat="45.82193" lon="1.22833">
        <ele>302.8</ele>
        <time>2024-09-25T12:11:18Z</time>
      </trkpt>
      <trkpt lat="45.82191" lon="1.22836">
        <ele>302.8</ele>
        <time>2024-09-25T12:11:19Z</time>
      </trkpt>
      <trkpt lat="45.82189" lon="1.22839">
        <ele>302.9</ele>
        <time>2024-09-25T12:11:20Z</time>
      </trkpt>
      <trkpt lat="45.82186" lon="1.22844">
        <ele>303</ele>
        <time>2024-09-25T12:11:22Z</time>
      </trkpt>
      <trkpt lat="45.82183" lon="1.22849">
        <ele>303</ele>
        <time>2024-09-25T12:11:23Z</time>
      </trkpt>
      <trkpt lat="45.82181" lon="1.22853">
        <ele>303.1</ele>
        <time>2024-09-25T12:11:24Z</time>
      </trkpt>
      <trkpt lat="45.82178" lon="1.22857">
        <ele>303.2</ele>
        <time>2024-09-25T12:11:25Z</time>
      </trkpt>
      <trkpt lat="45.82176" lon="1.22862">
        <ele>303.2</ele>
        <time>2024-09-25T12:11:26Z</time>
      </trkpt>
      <trkpt lat="45.82173" lon="1.22867">
        <ele>303.3</ele>
        <time>2024-09-25T12:11:27Z</time>
      </trkpt>
      <trkpt lat="45.82171" lon="1.22872">
        <ele>303.4</ele>
        <time>2024-09-25T12:11:28Z</time>
      </trkpt>
      <trkpt lat="45.82168" lon="1.22876">
        <ele>303.5</ele>
        <time>2024-09-25T12:11:29Z</time>
      </trkpt>
      <trkpt lat="45.82165" lon="1.2288">
        <ele>303.5</ele>
        <time>2024-09-25T12:11:30Z</time>
      </trkpt>
      <trkpt lat="45.82163" lon="1.22885">
        <ele>303.6</ele>
        <time>2024-09-25T12:11:31Z</time>
      </trkpt>
      <trkpt lat="45.82161" lon="1.22889">
        <ele>303.6</ele>
        <time>2024-09-25T12:11:32Z</time>
      </trkpt>
      <trkpt lat="45.82159" lon="1.22893">
        <ele>303.7</ele>
        <time>2024-09-25T12:11:33Z</time>
      </trkpt>
      <trkpt lat="45.82156" lon="1.22898">
        <ele>303.7</ele>
        <time>2024-09-25T12:11:34Z</time>
      </trkpt>
      <trkpt lat="45.82154" lon="1.22902">
        <ele>303.8</ele>
        <time>2024-09-25T12:11:35Z</time>
      </trkpt>
      <trkpt lat="45.82151" lon="1.22907">
        <ele>303.8</ele>
        <time>2024-09-25T12:11:36Z</time>
      </trkpt>
      <trkpt lat="45.82149" lon="1.22911">
        <ele>303.9</ele>
        <time>2024-09-25T12:11:37Z</time>
      </trkpt>
      <trkpt lat="45.82147" lon="1.22915">
        <ele>303.9</ele>
        <time>2024-09-25T12:11:38Z</time>
      </trkpt>
      <trkpt lat="45.82145" lon="1.2292">
        <ele>303.9</ele>
        <time>2024-09-25T12:11:39Z</time>
      </trkpt>
      <trkpt lat="45.82143" lon="1.22925">
        <ele>304</ele>
        <time>2024-09-25T12:11:40Z</time>
      </trkpt>
      <trkpt lat="45.8214" lon="1.2293">
        <ele>304</ele>
        <time>2024-09-25T12:11:41Z</time>
      </trkpt>
      <trkpt lat="45.82138" lon="1.22934">
        <ele>304.1</ele>
        <time>2024-09-25T12:11:42Z</time>
      </trkpt>
      <trkpt lat="45.82136" lon="1.22939">
        <ele>304.1</ele>
        <time>2024-09-25T12:11:43Z</time>
      </trkpt>
      <trkpt lat="45.82133" lon="1.22944">
        <ele>304.2</ele>
        <time>2024-09-25T12:11:44Z</time>
      </trkpt>
      <trkpt lat="45.82131" lon="1.2295">
        <ele>304.2</ele>
        <time>2024-09-25T12:11:45Z</time>
      </trkpt>
      <trkpt lat="45.82129" lon="1.22955">
        <ele>304.3</ele>
        <time>2024-09-25T12:11:46Z</time>
      </trkpt>
      <trkpt lat="45.82127" lon="1.2296">
        <ele>304.3</ele>
        <time>2024-09-25T12:11:47Z</time>
      </trkpt>
      <trkpt lat="45.82124" lon="1.22966">
        <ele>304.4</ele>
        <time>2024-09-25T12:11:48Z</time>
      </trkpt>
      <trkpt lat="45.82122" lon="1.22972">
        <ele>304.4</ele>
        <time>2024-09-25T12:11:49Z</time>
      </trkpt>
      <trkpt lat="45.82119" lon="1.22977">
        <ele>304.5</ele>
        <time>2024-09-25T12:11:50Z</time>
      </trkpt>
      <trkpt lat="45.82116" lon="1.22982">
        <ele>304.6</ele>
        <time>2024-09-25T12:11:51Z</time>
      </trkpt>
      <trkpt lat="45.82114" lon="1.22987">
        <ele>304.6</ele>
        <time>2024-09-25T12:11:52Z</time>
      </trkpt>
      <trkpt lat="45.82111" lon="1.22992">
        <ele>304.7</ele>
        <time>2024-09-25T12:11:53Z</time>
      </trkpt>
      <trkpt lat="45.82108" lon="1.22995">
        <ele>304.7</ele>
        <time>2024-09-25T12:11:55Z</time>
      </trkpt>
      <trkpt lat="45.82104" lon="1.22997">
        <ele>304.7</ele>
        <time>2024-09-25T12:11:57Z</time>
      </trkpt>
      <trkpt lat="45.82101" lon="1.22998">
        <ele>304.8</ele>
        <time>2024-09-25T12:11:58Z</time>
      </trkpt>
      <trkpt lat="45.82098" lon="1.22998">
        <ele>304.8</ele>
        <time>2024-09-25T12:11:59Z</time>
      </trkpt>
      <trkpt lat="45.82094" lon="1.22997">
        <ele>304.8</ele>
        <time>2024-09-25T12:12:00Z</time>
      </trkpt>
      <trkpt lat="45.82091" lon="1.22995">
        <ele>304.8</ele>
        <time>2024-09-25T12:12:01Z</time>
      </trkpt>
      <trkpt lat="45.82088" lon="1.22993">
        <ele>304.9</ele>
        <time>2024-09-25T12:12:02Z</time>
      </trkpt>
      <trkpt lat="45.82084" lon="1.22991">
        <ele>305</ele>
        <time>2024-09-25T12:12:03Z</time>
      </trkpt>
      <trkpt lat="45.8208" lon="1.22988">
        <ele>305.1</ele>
        <time>2024-09-25T12:12:04Z</time>
      </trkpt>
      <trkpt lat="45.82077" lon="1.22986">
        <ele>305.2</ele>
        <time>2024-09-25T12:12:05Z</time>
      </trkpt>
      <trkpt lat="45.82073" lon="1.22983">
        <ele>305.3</ele>
        <time>2024-09-25T12:12:06Z</time>
      </trkpt>
      <trkpt lat="45.8207" lon="1.22981">
        <ele>305.4</ele>
        <time>2024-09-25T12:12:07Z</time>
      </trkpt>
      <trkpt lat="45.82066" lon="1.22978">
        <ele>305.6</ele>
        <time>2024-09-25T12:12:08Z</time>
      </trkpt>
      <trkpt lat="45.82063" lon="1.22975">
        <ele>305.7</ele>
        <time>2024-09-25T12:12:09Z</time>
      </trkpt>
      <trkpt lat="45.82059" lon="1.22972">
        <ele>305.9</ele>
        <time>2024-09-25T12:12:10Z</time>
      </trkpt>
      <trkpt lat="45.82056" lon="1.22969">
        <ele>306.1</ele>
        <time>2024-09-25T12:12:11Z</time>
      </trkpt>
      <trkpt lat="45.82053" lon="1.22967">
        <ele>306.2</ele>
        <time>2024-09-25T12:12:12Z</time>
      </trkpt>
      <trkpt lat="45.8205" lon="1.22964">
        <ele>306.4</ele>
        <time>2024-09-25T12:12:13Z</time>
      </trkpt>
      <trkpt lat="45.82046" lon="1.22961">
        <ele>306.6</ele>
        <time>2024-09-25T12:12:14Z</time>
      </trkpt>
      <trkpt lat="45.82043" lon="1.22958">
        <ele>306.8</ele>
        <time>2024-09-25T12:12:15Z</time>
      </trkpt>
      <trkpt lat="45.8204" lon="1.22955">
        <ele>307</ele>
        <time>2024-09-25T12:12:16Z</time>
      </trkpt>
      <trkpt lat="45.82037" lon="1.22952">
        <ele>307.1</ele>
        <time>2024-09-25T12:12:17Z</time>
      </trkpt>
      <trkpt lat="45.82034" lon="1.22948">
        <ele>307.4</ele>
        <time>2024-09-25T12:12:18Z</time>
      </trkpt>
      <trkpt lat="45.82032" lon="1.22944">
        <ele>307.5</ele>
        <time>2024-09-25T12:12:19Z</time>
      </trkpt>
      <trkpt lat="45.82029" lon="1.22939">
        <ele>307.8</ele>
        <time>2024-09-25T12:12:20Z</time>
      </trkpt>
      <trkpt lat="45.82027" lon="1.22934">
        <ele>308</ele>
        <time>2024-09-25T12:12:21Z</time>
      </trkpt>
      <trkpt lat="45.82026" lon="1.22929">
        <ele>308.1</ele>
        <time>2024-09-25T12:12:22Z</time>
      </trkpt>
      <trkpt lat="45.82024" lon="1.22924">
        <ele>308.3</ele>
        <time>2024-09-25T12:12:23Z</time>
      </trkpt>
      <trkpt lat="45.82023" lon="1.22919">
        <ele>308.5</ele>
        <time>2024-09-25T12:12:24Z</time>
      </trkpt>
      <trkpt lat="45.82021" lon="1.22914">
        <ele>308.7</ele>
        <time>2024-09-25T12:12:25Z</time>
      </trkpt>
      <trkpt lat="45.82019" lon="1.22909">
        <ele>308.8</ele>
        <time>2024-09-25T12:12:26Z</time>
      </trkpt>
      <trkpt lat="45.82017" lon="1.22904">
        <ele>309</ele>
        <time>2024-09-25T12:12:27Z</time>
      </trkpt>
      <trkpt lat="45.82014" lon="1.22899">
        <ele>309.2</ele>
        <time>2024-09-25T12:12:28Z</time>
      </trkpt>
      <trkpt lat="45.82012" lon="1.22895">
        <ele>309.3</ele>
        <time>2024-09-25T12:12:29Z</time>
      </trkpt>
      <trkpt lat="45.82009" lon="1.2289">
        <ele>309.4</ele>
        <time>2024-09-25T12:12:30Z</time>
      </trkpt>
      <trkpt lat="45.82006" lon="1.22886">
        <ele>309.5</ele>
        <time>2024-09-25T12:12:31Z</time>
      </trkpt>
      <trkpt lat="45.82003" lon="1.22882">
        <ele>309.6</ele>
        <time>2024-09-25T12:12:32Z</time>
      </trkpt>
      <trkpt lat="45.81999" lon="1.22879">
        <ele>309.7</ele>
        <time>2024-09-25T12:12:33Z</time>
      </trkpt>
      <trkpt lat="45.81996" lon="1.22875">
        <ele>309.8</ele>
        <time>2024-09-25T12:12:34Z</time>
      </trkpt>
      <trkpt lat="45.81993" lon="1.22872">
        <ele>309.9</ele>
        <time>2024-09-25T12:12:35Z</time>
      </trkpt>
      <trkpt lat="45.81989" lon="1.22868">
        <ele>310</ele>
        <time>2024-09-25T12:12:36Z</time>
      </trkpt>
      <trkpt lat="45.81986" lon="1.22864">
        <ele>310.1</ele>
        <time>2024-09-25T12:12:37Z</time>
      </trkpt>
      <trkpt lat="45.81983" lon="1.2286">
        <ele>310.1</ele>
        <time>2024-09-25T12:12:38Z</time>
      </trkpt>
      <trkpt lat="45.8198" lon="1.22856">
        <ele>310.2</ele>
        <time>2024-09-25T12:12:39Z</time>
      </trkpt>
      <trkpt lat="45.81976" lon="1.22852">
        <ele>310.3</ele>
        <time>2024-09-25T12:12:40Z</time>
      </trkpt>
      <trkpt lat="45.81973" lon="1.22849">
        <ele>310.4</ele>
        <time>2024-09-25T12:12:41Z</time>
      </trkpt>
      <trkpt lat="45.81969" lon="1.22845">
        <ele>310.5</ele>
        <time>2024-09-25T12:12:42Z</time>
      </trkpt>
      <trkpt lat="45.81966" lon="1.22842">
        <ele>310.6</ele>
        <time>2024-09-25T12:12:43Z</time>
      </trkpt>
      <trkpt lat="45.81962" lon="1.22839">
        <ele>310.7</ele>
        <time>2024-09-25T12:12:44Z</time>
      </trkpt>
      <trkpt lat="45.81959" lon="1.22836">
        <ele>310.8</ele>
        <time>2024-09-25T12:12:45Z</time>
      </trkpt>
      <trkpt lat="45.81955" lon="1.22832">
        <ele>310.9</ele>
        <time>2024-09-25T12:12:46Z</time>
      </trkpt>
      <trkpt lat="45.81952" lon="1.22829">
        <ele>310.9</ele>
        <time>2024-09-25T12:12:47Z</time>
      </trkpt>
      <trkpt lat="45.81948" lon="1.22825">
        <ele>311</ele>
        <time>2024-09-25T12:12:48Z</time>
      </trkpt>
      <trkpt lat="45.81944" lon="1.22821">
        <ele>311.1</ele>
        <time>2024-09-25T12:12:49Z</time>
      </trkpt>
      <trkpt lat="45.8194" lon="1.22817">
        <ele>311.1</ele>
        <time>2024-09-25T12:12:50Z</time>
      </trkpt>
      <trkpt lat="45.81936" lon="1.22814">
        <ele>311.2</ele>
        <time>2024-09-25T12:12:51Z</time>
      </trkpt>
      <trkpt lat="45.81933" lon="1.2281">
        <ele>311.2</ele>
        <time>2024-09-25T12:12:52Z</time>
      </trkpt>
      <trkpt lat="45.81929" lon="1.22807">
        <ele>311.3</ele>
        <time>2024-09-25T12:12:53Z</time>
      </trkpt>
      <trkpt lat="45.81925" lon="1.22803">
        <ele>311.3</ele>
        <time>2024-09-25T12:12:54Z</time>
      </trkpt>
      <trkpt lat="45.8192" lon="1.22799">
        <ele>311.4</ele>
        <time>2024-09-25T12:12:55Z</time>
      </trkpt>
      <trkpt lat="45.81916" lon="1.22796">
        <ele>311.4</ele>
        <time>2024-09-25T12:12:56Z</time>
      </trkpt>
      <trkpt lat="45.81912" lon="1.22792">
        <ele>311.5</ele>
        <time>2024-09-25T12:12:57Z</time>
      </trkpt>
      <trkpt lat="45.81908" lon="1.22788">
        <ele>311.5</ele>
        <time>2024-09-25T12:12:58Z</time>
      </trkpt>
      <trkpt lat="45.81903" lon="1.22785">
        <ele>311.6</ele>
        <time>2024-09-25T12:12:59Z</time>
      </trkpt>
      <trkpt lat="45.81899" lon="1.22782">
        <ele>311.6</ele>
        <time>2024-09-25T12:13:00Z</time>
      </trkpt>
      <trkpt lat="45.81894" lon="1.22778">
        <ele>311.7</ele>
        <time>2024-09-25T12:13:01Z</time>
      </trkpt>
      <trkpt lat="45.8189" lon="1.22774">
        <ele>311.7</ele>
        <time>2024-09-25T12:13:02Z</time>
      </trkpt>
      <trkpt lat="45.81886" lon="1.2277">
        <ele>311.7</ele>
        <time>2024-09-25T12:13:03Z</time>
      </trkpt>
      <trkpt lat="45.81882" lon="1.22767">
        <ele>311.8</ele>
        <time>2024-09-25T12:13:04Z</time>
      </trkpt>
      <trkpt lat="45.81878" lon="1.22763">
        <ele>311.8</ele>
        <time>2024-09-25T12:13:05Z</time>
      </trkpt>
      <trkpt lat="45.81875" lon="1.2276">
        <ele>311.8</ele>
        <time>2024-09-25T12:13:06Z</time>
      </trkpt>
      <trkpt lat="45.81871" lon="1.22756">
        <ele>311.8</ele>
        <time>2024-09-25T12:13:07Z</time>
      </trkpt>
      <trkpt lat="45.81867" lon="1.22752">
        <ele>311.8</ele>
        <time>2024-09-25T12:13:08Z</time>
      </trkpt>
      <trkpt lat="45.81863" lon="1.22747">
        <ele>311.8</ele>
        <time>2024-09-25T12:13:09Z</time>
      </trkpt>
      <trkpt lat="45.81859" lon="1.22743">
        <ele>311.8</ele>
        <time>2024-09-25T12:13:10Z</time>
      </trkpt>
      <trkpt lat="45.81855" lon="1.22738">
        <ele>311.7</ele>
        <time>2024-09-25T12:13:11Z</time>
      </trkpt>
      <trkpt lat="45.81851" lon="1.22733">
        <ele>311.6</ele>
        <time>2024-09-25T12:13:12Z</time>
      </trkpt>
      <trkpt lat="45.81847" lon="1.22727">
        <ele>311.5</ele>
        <time>2024-09-25T12:13:13Z</time>
      </trkpt>
      <trkpt lat="45.81843" lon="1.22721">
        <ele>311.3</ele>
        <time>2024-09-25T12:13:14Z</time>
      </trkpt>
      <trkpt lat="45.81839" lon="1.22715">
        <ele>311.2</ele>
        <time>2024-09-25T12:13:15Z</time>
      </trkpt>
      <trkpt lat="45.81836" lon="1.22709">
        <ele>311</ele>
        <time>2024-09-25T12:13:16Z</time>
      </trkpt>
      <trkpt lat="45.81832" lon="1.22703">
        <ele>310.8</ele>
        <time>2024-09-25T12:13:17Z</time>
      </trkpt>
      <trkpt lat="45.81829" lon="1.22697">
        <ele>310.6</ele>
        <time>2024-09-25T12:13:18Z</time>
      </trkpt>
      <trkpt lat="45.81825" lon="1.2269">
        <ele>310.4</ele>
        <time>2024-09-25T12:13:19Z</time>
      </trkpt>
      <trkpt lat="45.81821" lon="1.22684">
        <ele>310.2</ele>
        <time>2024-09-25T12:13:20Z</time>
      </trkpt>
      <trkpt lat="45.81817" lon="1.22677">
        <ele>309.8</ele>
        <time>2024-09-25T12:13:21Z</time>
      </trkpt>
      <trkpt lat="45.81813" lon="1.22671">
        <ele>309.4</ele>
        <time>2024-09-25T12:13:22Z</time>
      </trkpt>
      <trkpt lat="45.81808" lon="1.22665">
        <ele>309</ele>
        <time>2024-09-25T12:13:23Z</time>
      </trkpt>
      <trkpt lat="45.81803" lon="1.2266">
        <ele>308.6</ele>
        <time>2024-09-25T12:13:24Z</time>
      </trkpt>
      <trkpt lat="45.81798" lon="1.22655">
        <ele>308.3</ele>
        <time>2024-09-25T12:13:25Z</time>
      </trkpt>
      <trkpt lat="45.81792" lon="1.2265">
        <ele>307.9</ele>
        <time>2024-09-25T12:13:26Z</time>
      </trkpt>
      <trkpt lat="45.81786" lon="1.22645">
        <ele>307.5</ele>
        <time>2024-09-25T12:13:27Z</time>
      </trkpt>
      <trkpt lat="45.8178" lon="1.2264">
        <ele>307.1</ele>
        <time>2024-09-25T12:13:28Z</time>
      </trkpt>
      <trkpt lat="45.81775" lon="1.22635">
        <ele>306.8</ele>
        <time>2024-09-25T12:13:29Z</time>
      </trkpt>
      <trkpt lat="45.81768" lon="1.2263">
        <ele>306.4</ele>
        <time>2024-09-25T12:13:30Z</time>
      </trkpt>
      <trkpt lat="45.81762" lon="1.22625">
        <ele>306.1</ele>
        <time>2024-09-25T12:13:31Z</time>
      </trkpt>
      <trkpt lat="45.81756" lon="1.22621">
        <ele>305.9</ele>
        <time>2024-09-25T12:13:32Z</time>
      </trkpt>
      <trkpt lat="45.8175" lon="1.22617">
        <ele>305.6</ele>
        <time>2024-09-25T12:13:33Z</time>
      </trkpt>
      <trkpt lat="45.81744" lon="1.22612">
        <ele>305.4</ele>
        <time>2024-09-25T12:13:34Z</time>
      </trkpt>
      <trkpt lat="45.81738" lon="1.22608">
        <ele>305.3</ele>
        <time>2024-09-25T12:13:35Z</time>
      </trkpt>
      <trkpt lat="45.81732" lon="1.22604">
        <ele>305.2</ele>
        <time>2024-09-25T12:13:36Z</time>
      </trkpt>
      <trkpt lat="45.81726" lon="1.226">
        <ele>305.2</ele>
        <time>2024-09-25T12:13:37Z</time>
      </trkpt>
      <trkpt lat="45.8172" lon="1.22597">
        <ele>305.2</ele>
        <time>2024-09-25T12:13:38Z</time>
      </trkpt>
      <trkpt lat="45.81714" lon="1.22597">
        <ele>305.2</ele>
        <time>2024-09-25T12:13:39Z</time>
      </trkpt>
      <trkpt lat="45.81709" lon="1.22598">
        <ele>305.3</ele>
        <time>2024-09-25T12:13:40Z</time>
      </trkpt>
      <trkpt lat="45.81705" lon="1.22599">
        <ele>305.3</ele>
        <time>2024-09-25T12:13:41Z</time>
      </trkpt>
      <trkpt lat="45.81701" lon="1.22599">
        <ele>305.4</ele>
        <time>2024-09-25T12:13:42Z</time>
      </trkpt>
      <trkpt lat="45.81698" lon="1.22597">
        <ele>305.5</ele>
        <time>2024-09-25T12:13:43Z</time>
      </trkpt>
      <trkpt lat="45.81694" lon="1.22593">
        <ele>305.4</ele>
        <time>2024-09-25T12:13:44Z</time>
      </trkpt>
      <trkpt lat="45.81691" lon="1.22589">
        <ele>305.3</ele>
        <time>2024-09-25T12:13:45Z</time>
      </trkpt>
      <trkpt lat="45.81688" lon="1.22584">
        <ele>305.2</ele>
        <time>2024-09-25T12:13:46Z</time>
      </trkpt>
      <trkpt lat="45.81684" lon="1.22579">
        <ele>305.1</ele>
        <time>2024-09-25T12:13:47Z</time>
      </trkpt>
      <trkpt lat="45.81681" lon="1.22573">
        <ele>305</ele>
        <time>2024-09-25T12:13:48Z</time>
      </trkpt>
      <trkpt lat="45.81678" lon="1.22567">
        <ele>304.8</ele>
        <time>2024-09-25T12:13:49Z</time>
      </trkpt>
      <trkpt lat="45.81675" lon="1.22562">
        <ele>304.7</ele>
        <time>2024-09-25T12:13:50Z</time>
      </trkpt>
      <trkpt lat="45.81671" lon="1.22557">
        <ele>304.5</ele>
        <time>2024-09-25T12:13:51Z</time>
      </trkpt>
      <trkpt lat="45.81667" lon="1.22552">
        <ele>304.4</ele>
        <time>2024-09-25T12:13:52Z</time>
      </trkpt>
      <trkpt lat="45.81663" lon="1.22546">
        <ele>304.2</ele>
        <time>2024-09-25T12:13:53Z</time>
      </trkpt>
      <trkpt lat="45.81659" lon="1.22541">
        <ele>304.1</ele>
        <time>2024-09-25T12:13:54Z</time>
      </trkpt>
      <trkpt lat="45.81655" lon="1.22535">
        <ele>304</ele>
        <time>2024-09-25T12:13:55Z</time>
      </trkpt>
      <trkpt lat="45.81651" lon="1.2253">
        <ele>303.8</ele>
        <time>2024-09-25T12:13:56Z</time>
      </trkpt>
      <trkpt lat="45.81647" lon="1.22524">
        <ele>303.6</ele>
        <time>2024-09-25T12:13:57Z</time>
      </trkpt>
      <trkpt lat="45.81643" lon="1.22519">
        <ele>303.5</ele>
        <time>2024-09-25T12:13:58Z</time>
      </trkpt>
      <trkpt lat="45.81639" lon="1.22513">
        <ele>303.3</ele>
        <time>2024-09-25T12:13:59Z</time>
      </trkpt>
      <trkpt lat="45.81635" lon="1.22506">
        <ele>303.2</ele>
        <time>2024-09-25T12:14:00Z</time>
      </trkpt>
      <trkpt lat="45.81631" lon="1.22501">
        <ele>303.1</ele>
        <time>2024-09-25T12:14:01Z</time>
      </trkpt>
      <trkpt lat="45.81626" lon="1.22495">
        <ele>303</ele>
        <time>2024-09-25T12:14:02Z</time>
      </trkpt>
      <trkpt lat="45.81622" lon="1.22488">
        <ele>302.9</ele>
        <time>2024-09-25T12:14:03Z</time>
      </trkpt>
      <trkpt lat="45.81618" lon="1.22482">
        <ele>302.8</ele>
        <time>2024-09-25T12:14:04Z</time>
      </trkpt>
      <trkpt lat="45.81615" lon="1.22476">
        <ele>302.7</ele>
        <time>2024-09-25T12:14:05Z</time>
      </trkpt>
      <trkpt lat="45.8161" lon="1.2247">
        <ele>302.7</ele>
        <time>2024-09-25T12:14:06Z</time>
      </trkpt>
      <trkpt lat="45.81606" lon="1.22465">
        <ele>302.7</ele>
        <time>2024-09-25T12:14:07Z</time>
      </trkpt>
      <trkpt lat="45.81602" lon="1.2246">
        <ele>302.7</ele>
        <time>2024-09-25T12:14:08Z</time>
      </trkpt>
      <trkpt lat="45.81598" lon="1.22455">
        <ele>302.7</ele>
        <time>2024-09-25T12:14:09Z</time>
      </trkpt>
      <trkpt lat="45.81594" lon="1.22451">
        <ele>302.7</ele>
        <time>2024-09-25T12:14:10Z</time>
      </trkpt>
      <trkpt lat="45.8159" lon="1.22447">
        <ele>302.8</ele>
        <time>2024-09-25T12:14:11Z</time>
      </trkpt>
      <trkpt lat="45.81587" lon="1.22442">
        <ele>302.8</ele>
        <time>2024-09-25T12:14:12Z</time>
      </trkpt>
      <trkpt lat="45.81585" lon="1.22438">
        <ele>302.7</ele>
        <time>2024-09-25T12:14:13Z</time>
      </trkpt>
      <trkpt lat="45.81584" lon="1.22433">
        <ele>302.7</ele>
        <time>2024-09-25T12:14:14Z</time>
      </trkpt>
      <trkpt lat="45.81584" lon="1.22429">
        <ele>302.6</ele>
        <time>2024-09-25T12:14:15Z</time>
      </trkpt>
      <trkpt lat="45.81584" lon="1.22423">
        <ele>302.5</ele>
        <time>2024-09-25T12:14:16Z</time>
      </trkpt>
      <trkpt lat="45.81584" lon="1.22418">
        <ele>302.4</ele>
        <time>2024-09-25T12:14:17Z</time>
      </trkpt>
      <trkpt lat="45.81583" lon="1.22413">
        <ele>302.4</ele>
        <time>2024-09-25T12:14:18Z</time>
      </trkpt>
      <trkpt lat="45.81581" lon="1.22407">
        <ele>302.4</ele>
        <time>2024-09-25T12:14:19Z</time>
      </trkpt>
      <trkpt lat="45.81579" lon="1.22403">
        <ele>302.4</ele>
        <time>2024-09-25T12:14:20Z</time>
      </trkpt>
      <trkpt lat="45.81576" lon="1.22399">
        <ele>302.4</ele>
        <time>2024-09-25T12:14:21Z</time>
      </trkpt>
      <trkpt lat="45.81572" lon="1.22396">
        <ele>302.5</ele>
        <time>2024-09-25T12:14:22Z</time>
      </trkpt>
      <trkpt lat="45.81568" lon="1.22394">
        <ele>302.6</ele>
        <time>2024-09-25T12:14:23Z</time>
      </trkpt>
      <trkpt lat="45.81564" lon="1.22391">
        <ele>302.8</ele>
        <time>2024-09-25T12:14:24Z</time>
      </trkpt>
      <trkpt lat="45.8156" lon="1.22389">
        <ele>303</ele>
        <time>2024-09-25T12:14:25Z</time>
      </trkpt>
      <trkpt lat="45.81557" lon="1.22385">
        <ele>303.2</ele>
        <time>2024-09-25T12:14:26Z</time>
      </trkpt>
      <trkpt lat="45.81555" lon="1.2238">
        <ele>303.4</ele>
        <time>2024-09-25T12:14:27Z</time>
      </trkpt>
      <trkpt lat="45.81553" lon="1.22374">
        <ele>303.6</ele>
        <time>2024-09-25T12:14:28Z</time>
      </trkpt>
      <trkpt lat="45.8155" lon="1.22369">
        <ele>303.7</ele>
        <time>2024-09-25T12:14:29Z</time>
      </trkpt>
      <trkpt lat="45.81548" lon="1.22364">
        <ele>303.8</ele>
        <time>2024-09-25T12:14:30Z</time>
      </trkpt>
      <trkpt lat="45.81545" lon="1.22359">
        <ele>303.9</ele>
        <time>2024-09-25T12:14:31Z</time>
      </trkpt>
      <trkpt lat="45.81543" lon="1.22355">
        <ele>304</ele>
        <time>2024-09-25T12:14:32Z</time>
      </trkpt>
      <trkpt lat="45.8154" lon="1.22351">
        <ele>304.1</ele>
        <time>2024-09-25T12:14:33Z</time>
      </trkpt>
      <trkpt lat="45.81538" lon="1.22347">
        <ele>304.3</ele>
        <time>2024-09-25T12:14:34Z</time>
      </trkpt>
      <trkpt lat="45.81536" lon="1.22344">
        <ele>304.4</ele>
        <time>2024-09-25T12:14:35Z</time>
      </trkpt>
      <trkpt lat="45.81533" lon="1.22339">
        <ele>304.6</ele>
        <time>2024-09-25T12:14:37Z</time>
      </trkpt>
      <trkpt lat="45.81531" lon="1.22335">
        <ele>304.7</ele>
        <time>2024-09-25T12:14:38Z</time>
      </trkpt>
      <trkpt lat="45.81528" lon="1.22331">
        <ele>304.9</ele>
        <time>2024-09-25T12:14:39Z</time>
      </trkpt>
      <trkpt lat="45.81526" lon="1.22326">
        <ele>305.1</ele>
        <time>2024-09-25T12:14:41Z</time>
      </trkpt>
      <trkpt lat="45.81523" lon="1.22321">
        <ele>305.3</ele>
        <time>2024-09-25T12:14:43Z</time>
      </trkpt>
      <trkpt lat="45.8152" lon="1.22316">
        <ele>305.5</ele>
        <time>2024-09-25T12:14:45Z</time>
      </trkpt>
      <trkpt lat="45.81518" lon="1.22312">
        <ele>305.7</ele>
        <time>2024-09-25T12:14:46Z</time>
      </trkpt>
      <trkpt lat="45.81515" lon="1.22308">
        <ele>305.8</ele>
        <time>2024-09-25T12:14:47Z</time>
      </trkpt>
      <trkpt lat="45.81513" lon="1.22304">
        <ele>306</ele>
        <time>2024-09-25T12:14:48Z</time>
      </trkpt>
      <trkpt lat="45.81511" lon="1.22299">
        <ele>306.2</ele>
        <time>2024-09-25T12:14:49Z</time>
      </trkpt>
      <trkpt lat="45.81508" lon="1.22295">
        <ele>306.3</ele>
        <time>2024-09-25T12:14:50Z</time>
      </trkpt>
      <trkpt lat="45.81506" lon="1.22291">
        <ele>306.5</ele>
        <time>2024-09-25T12:14:51Z</time>
      </trkpt>
      <trkpt lat="45.81503" lon="1.22286">
        <ele>306.7</ele>
        <time>2024-09-25T12:14:52Z</time>
      </trkpt>
      <trkpt lat="45.815" lon="1.22282">
        <ele>306.9</ele>
        <time>2024-09-25T12:14:53Z</time>
      </trkpt>
      <trkpt lat="45.81497" lon="1.22277">
        <ele>307.1</ele>
        <time>2024-09-25T12:14:54Z</time>
      </trkpt>
      <trkpt lat="45.81495" lon="1.22272">
        <ele>307.2</ele>
        <time>2024-09-25T12:14:55Z</time>
      </trkpt>
      <trkpt lat="45.81492" lon="1.22268">
        <ele>307.4</ele>
        <time>2024-09-25T12:14:56Z</time>
      </trkpt>
      <trkpt lat="45.81489" lon="1.22263">
        <ele>307.6</ele>
        <time>2024-09-25T12:14:57Z</time>
      </trkpt>
      <trkpt lat="45.81486" lon="1.22258">
        <ele>307.7</ele>
        <time>2024-09-25T12:14:58Z</time>
      </trkpt>
      <trkpt lat="45.81483" lon="1.22253">
        <ele>307.9</ele>
        <time>2024-09-25T12:14:59Z</time>
      </trkpt>
      <trkpt lat="45.81481" lon="1.22249">
        <ele>308</ele>
        <time>2024-09-25T12:15:00Z</time>
      </trkpt>
      <trkpt lat="45.81478" lon="1.22244">
        <ele>308.2</ele>
        <time>2024-09-25T12:15:01Z</time>
      </trkpt>
      <trkpt lat="45.81475" lon="1.2224">
        <ele>308.3</ele>
        <time>2024-09-25T12:15:02Z</time>
      </trkpt>
      <trkpt lat="45.81473" lon="1.22235">
        <ele>308.5</ele>
        <time>2024-09-25T12:15:03Z</time>
      </trkpt>
      <trkpt lat="45.8147" lon="1.2223">
        <ele>308.6</ele>
        <time>2024-09-25T12:15:04Z</time>
      </trkpt>
      <trkpt lat="45.81467" lon="1.22226">
        <ele>308.8</ele>
        <time>2024-09-25T12:15:05Z</time>
      </trkpt>
      <trkpt lat="45.81465" lon="1.22221">
        <ele>308.9</ele>
        <time>2024-09-25T12:15:06Z</time>
      </trkpt>
      <trkpt lat="45.81462" lon="1.22216">
        <ele>309</ele>
        <time>2024-09-25T12:15:07Z</time>
      </trkpt>
      <trkpt lat="45.81459" lon="1.22211">
        <ele>309.2</ele>
        <time>2024-09-25T12:15:08Z</time>
      </trkpt>
      <trkpt lat="45.81456" lon="1.22206">
        <ele>309.4</ele>
        <time>2024-09-25T12:15:09Z</time>
      </trkpt>
      <trkpt lat="45.81454" lon="1.22201">
        <ele>309.5</ele>
        <time>2024-09-25T12:15:10Z</time>
      </trkpt>
      <trkpt lat="45.81451" lon="1.22196">
        <ele>309.7</ele>
        <time>2024-09-25T12:15:11Z</time>
      </trkpt>
      <trkpt lat="45.81448" lon="1.22192">
        <ele>309.8</ele>
        <time>2024-09-25T12:15:12Z</time>
      </trkpt>
      <trkpt lat="45.81445" lon="1.22187">
        <ele>310</ele>
        <time>2024-09-25T12:15:13Z</time>
      </trkpt>
      <trkpt lat="45.81442" lon="1.22182">
        <ele>310.2</ele>
        <time>2024-09-25T12:15:14Z</time>
      </trkpt>
      <trkpt lat="45.8144" lon="1.22177">
        <ele>310.3</ele>
        <time>2024-09-25T12:15:15Z</time>
      </trkpt>
      <trkpt lat="45.81436" lon="1.22172">
        <ele>310.5</ele>
        <time>2024-09-25T12:15:16Z</time>
      </trkpt>
      <trkpt lat="45.81433" lon="1.22168">
        <ele>310.7</ele>
        <time>2024-09-25T12:15:17Z</time>
      </trkpt>
      <trkpt lat="45.8143" lon="1.22162">
        <ele>310.9</ele>
        <time>2024-09-25T12:15:18Z</time>
      </trkpt>
      <trkpt lat="45.81427" lon="1.22157">
        <ele>311.1</ele>
        <time>2024-09-25T12:15:19Z</time>
      </trkpt>
      <trkpt lat="45.81425" lon="1.22152">
        <ele>311.3</ele>
        <time>2024-09-25T12:15:20Z</time>
      </trkpt>
      <trkpt lat="45.81421" lon="1.22147">
        <ele>311.5</ele>
        <time>2024-09-25T12:15:21Z</time>
      </trkpt>
      <trkpt lat="45.81419" lon="1.22142">
        <ele>311.6</ele>
        <time>2024-09-25T12:15:22Z</time>
      </trkpt>
      <trkpt lat="45.81416" lon="1.22137">
        <ele>311.8</ele>
        <time>2024-09-25T12:15:23Z</time>
      </trkpt>
      <trkpt lat="45.81413" lon="1.22132">
        <ele>312</ele>
        <time>2024-09-25T12:15:24Z</time>
      </trkpt>
      <trkpt lat="45.81411" lon="1.22128">
        <ele>312.1</ele>
        <time>2024-09-25T12:15:25Z</time>
      </trkpt>
      <trkpt lat="45.81408" lon="1.22122">
        <ele>312.3</ele>
        <time>2024-09-25T12:15:26Z</time>
      </trkpt>
      <trkpt lat="45.81405" lon="1.22117">
        <ele>312.4</ele>
        <time>2024-09-25T12:15:27Z</time>
      </trkpt>
      <trkpt lat="45.81402" lon="1.22112">
        <ele>312.6</ele>
        <time>2024-09-25T12:15:28Z</time>
      </trkpt>
      <trkpt lat="45.814" lon="1.22107">
        <ele>312.7</ele>
        <time>2024-09-25T12:15:29Z</time>
      </trkpt>
      <trkpt lat="45.81397" lon="1.22102">
        <ele>312.9</ele>
        <time>2024-09-25T12:15:30Z</time>
      </trkpt>
      <trkpt lat="45.81395" lon="1.22096">
        <ele>313</ele>
        <time>2024-09-25T12:15:31Z</time>
      </trkpt>
      <trkpt lat="45.81392" lon="1.22091">
        <ele>313.2</ele>
        <time>2024-09-25T12:15:32Z</time>
      </trkpt>
      <trkpt lat="45.8139" lon="1.22086">
        <ele>313.3</ele>
        <time>2024-09-25T12:15:33Z</time>
      </trkpt>
      <trkpt lat="45.81388" lon="1.22081">
        <ele>313.4</ele>
        <time>2024-09-25T12:15:34Z</time>
      </trkpt>
      <trkpt lat="45.81385" lon="1.22075">
        <ele>313.5</ele>
        <time>2024-09-25T12:15:35Z</time>
      </trkpt>
      <trkpt lat="45.81383" lon="1.2207">
        <ele>313.6</ele>
        <time>2024-09-25T12:15:36Z</time>
      </trkpt>
      <trkpt lat="45.8138" lon="1.22065">
        <ele>313.7</ele>
        <time>2024-09-25T12:15:37Z</time>
      </trkpt>
      <trkpt lat="45.81378" lon="1.2206">
        <ele>313.8</ele>
        <time>2024-09-25T12:15:38Z</time>
      </trkpt>
      <trkpt lat="45.81376" lon="1.22054">
        <ele>313.9</ele>
        <time>2024-09-25T12:15:39Z</time>
      </trkpt>
      <trkpt lat="45.81374" lon="1.22048">
        <ele>314</ele>
        <time>2024-09-25T12:15:40Z</time>
      </trkpt>
      <trkpt lat="45.81372" lon="1.22041">
        <ele>314.1</ele>
        <time>2024-09-25T12:15:41Z</time>
      </trkpt>
      <trkpt lat="45.8137" lon="1.22035">
        <ele>314.2</ele>
        <time>2024-09-25T12:15:42Z</time>
      </trkpt>
      <trkpt lat="45.81368" lon="1.2203">
        <ele>314.3</ele>
        <time>2024-09-25T12:15:43Z</time>
      </trkpt>
      <trkpt lat="45.81366" lon="1.22024">
        <ele>314.4</ele>
        <time>2024-09-25T12:15:44Z</time>
      </trkpt>
      <trkpt lat="45.81363" lon="1.22018">
        <ele>314.5</ele>
        <time>2024-09-25T12:15:45Z</time>
      </trkpt>
      <trkpt lat="45.81361" lon="1.22013">
        <ele>314.6</ele>
        <time>2024-09-25T12:15:46Z</time>
      </trkpt>
      <trkpt lat="45.81359" lon="1.22007">
        <ele>314.7</ele>
        <time>2024-09-25T12:15:47Z</time>
      </trkpt>
      <trkpt lat="45.81357" lon="1.22002">
        <ele>314.8</ele>
        <time>2024-09-25T12:15:48Z</time>
      </trkpt>
      <trkpt lat="45.81355" lon="1.21996">
        <ele>315</ele>
        <time>2024-09-25T12:15:49Z</time>
      </trkpt>
      <trkpt lat="45.81353" lon="1.21991">
        <ele>315.1</ele>
        <time>2024-09-25T12:15:50Z</time>
      </trkpt>
      <trkpt lat="45.81351" lon="1.21986">
        <ele>315.2</ele>
        <time>2024-09-25T12:15:51Z</time>
      </trkpt>
      <trkpt lat="45.81349" lon="1.21981">
        <ele>315.3</ele>
        <time>2024-09-25T12:15:52Z</time>
      </trkpt>
      <trkpt lat="45.81347" lon="1.21975">
        <ele>315.5</ele>
        <time>2024-09-25T12:15:53Z</time>
      </trkpt>
      <trkpt lat="45.81345" lon="1.2197">
        <ele>315.6</ele>
        <time>2024-09-25T12:15:54Z</time>
      </trkpt>
      <trkpt lat="45.81343" lon="1.21964">
        <ele>315.8</ele>
        <time>2024-09-25T12:15:55Z</time>
      </trkpt>
      <trkpt lat="45.81341" lon="1.21959">
        <ele>315.9</ele>
        <time>2024-09-25T12:15:56Z</time>
      </trkpt>
      <trkpt lat="45.81338" lon="1.21954">
        <ele>316.1</ele>
        <time>2024-09-25T12:15:57Z</time>
      </trkpt>
      <trkpt lat="45.81336" lon="1.21949">
        <ele>316.3</ele>
        <time>2024-09-25T12:15:58Z</time>
      </trkpt>
      <trkpt lat="45.81334" lon="1.21943">
        <ele>316.4</ele>
        <time>2024-09-25T12:15:59Z</time>
      </trkpt>
      <trkpt lat="45.81331" lon="1.21938">
        <ele>316.6</ele>
        <time>2024-09-25T12:16:00Z</time>
      </trkpt>
      <trkpt lat="45.81329" lon="1.21933">
        <ele>316.8</ele>
        <time>2024-09-25T12:16:01Z</time>
      </trkpt>
      <trkpt lat="45.81327" lon="1.21927">
        <ele>317</ele>
        <time>2024-09-25T12:16:02Z</time>
      </trkpt>
      <trkpt lat="45.81326" lon="1.21922">
        <ele>317.1</ele>
        <time>2024-09-25T12:16:03Z</time>
      </trkpt>
      <trkpt lat="45.81323" lon="1.21916">
        <ele>317.3</ele>
        <time>2024-09-25T12:16:04Z</time>
      </trkpt>
      <trkpt lat="45.81322" lon="1.21911">
        <ele>317.5</ele>
        <time>2024-09-25T12:16:05Z</time>
      </trkpt>
      <trkpt lat="45.81319" lon="1.21906">
        <ele>317.7</ele>
        <time>2024-09-25T12:16:06Z</time>
      </trkpt>
      <trkpt lat="45.81317" lon="1.21901">
        <ele>317.9</ele>
        <time>2024-09-25T12:16:07Z</time>
      </trkpt>
      <trkpt lat="45.81315" lon="1.21896">
        <ele>318.1</ele>
        <time>2024-09-25T12:16:08Z</time>
      </trkpt>
      <trkpt lat="45.81313" lon="1.21891">
        <ele>318.4</ele>
        <time>2024-09-25T12:16:09Z</time>
      </trkpt>
      <trkpt lat="45.81311" lon="1.21886">
        <ele>318.6</ele>
        <time>2024-09-25T12:16:10Z</time>
      </trkpt>
      <trkpt lat="45.81309" lon="1.21881">
        <ele>318.8</ele>
        <time>2024-09-25T12:16:11Z</time>
      </trkpt>
      <trkpt lat="45.81307" lon="1.21877">
        <ele>319</ele>
        <time>2024-09-25T12:16:12Z</time>
      </trkpt>
      <trkpt lat="45.81306" lon="1.21873">
        <ele>319.2</ele>
        <time>2024-09-25T12:16:13Z</time>
      </trkpt>
      <trkpt lat="45.81304" lon="1.21869">
        <ele>319.4</ele>
        <time>2024-09-25T12:16:14Z</time>
      </trkpt>
      <trkpt lat="45.81303" lon="1.21865">
        <ele>319.6</ele>
        <time>2024-09-25T12:16:15Z</time>
      </trkpt>
      <trkpt lat="45.81301" lon="1.21862">
        <ele>319.8</ele>
        <time>2024-09-25T12:16:16Z</time>
      </trkpt>
      <trkpt lat="45.81299" lon="1.21858">
        <ele>320</ele>
        <time>2024-09-25T12:16:17Z</time>
      </trkpt>
      <trkpt lat="45.81297" lon="1.21855">
        <ele>320.2</ele>
        <time>2024-09-25T12:16:18Z</time>
      </trkpt>
      <trkpt lat="45.81295" lon="1.21851">
        <ele>320.4</ele>
        <time>2024-09-25T12:16:19Z</time>
      </trkpt>
      <trkpt lat="45.81293" lon="1.21847">
        <ele>320.6</ele>
        <time>2024-09-25T12:16:20Z</time>
      </trkpt>
      <trkpt lat="45.81291" lon="1.21844">
        <ele>320.8</ele>
        <time>2024-09-25T12:16:21Z</time>
      </trkpt>
      <trkpt lat="45.81289" lon="1.2184">
        <ele>321</ele>
        <time>2024-09-25T12:16:22Z</time>
      </trkpt>
      <trkpt lat="45.81287" lon="1.21837">
        <ele>321.1</ele>
        <time>2024-09-25T12:16:23Z</time>
      </trkpt>
      <trkpt lat="45.81285" lon="1.21834">
        <ele>321.3</ele>
        <time>2024-09-25T12:16:24Z</time>
      </trkpt>
      <trkpt lat="45.81283" lon="1.2183">
        <ele>321.5</ele>
        <time>2024-09-25T12:16:25Z</time>
      </trkpt>
      <trkpt lat="45.8128" lon="1.21827">
        <ele>321.8</ele>
        <time>2024-09-25T12:16:26Z</time>
      </trkpt>
      <trkpt lat="45.81278" lon="1.21822">
        <ele>322</ele>
        <time>2024-09-25T12:16:28Z</time>
      </trkpt>
      <trkpt lat="45.81275" lon="1.21818">
        <ele>322.2</ele>
        <time>2024-09-25T12:16:29Z</time>
      </trkpt>
      <trkpt lat="45.81273" lon="1.21815">
        <ele>322.4</ele>
        <time>2024-09-25T12:16:30Z</time>
      </trkpt>
      <trkpt lat="45.81271" lon="1.21812">
        <ele>322.6</ele>
        <time>2024-09-25T12:16:31Z</time>
      </trkpt>
      <trkpt lat="45.81268" lon="1.21808">
        <ele>322.8</ele>
        <time>2024-09-25T12:16:32Z</time>
      </trkpt>
      <trkpt lat="45.81266" lon="1.21806">
        <ele>323</ele>
        <time>2024-09-25T12:16:33Z</time>
      </trkpt>
      <trkpt lat="45.81264" lon="1.21803">
        <ele>323.1</ele>
        <time>2024-09-25T12:16:34Z</time>
      </trkpt>
      <trkpt lat="45.81262" lon="1.218">
        <ele>323.3</ele>
        <time>2024-09-25T12:16:35Z</time>
      </trkpt>
      <trkpt lat="45.81259" lon="1.21798">
        <ele>323.5</ele>
        <time>2024-09-25T12:16:36Z</time>
      </trkpt>
      <trkpt lat="45.81257" lon="1.21795">
        <ele>323.7</ele>
        <time>2024-09-25T12:16:37Z</time>
      </trkpt>
      <trkpt lat="45.81254" lon="1.21792">
        <ele>323.9</ele>
        <time>2024-09-25T12:16:38Z</time>
      </trkpt>
      <trkpt lat="45.81252" lon="1.21789">
        <ele>324</ele>
        <time>2024-09-25T12:16:39Z</time>
      </trkpt>
      <trkpt lat="45.81249" lon="1.21786">
        <ele>324.2</ele>
        <time>2024-09-25T12:16:40Z</time>
      </trkpt>
      <trkpt lat="45.81247" lon="1.21783">
        <ele>324.4</ele>
        <time>2024-09-25T12:16:41Z</time>
      </trkpt>
      <trkpt lat="45.81245" lon="1.2178">
        <ele>324.5</ele>
        <time>2024-09-25T12:16:42Z</time>
      </trkpt>
      <trkpt lat="45.81242" lon="1.21777">
        <ele>324.7</ele>
        <time>2024-09-25T12:16:43Z</time>
      </trkpt>
      <trkpt lat="45.8124" lon="1.21774">
        <ele>324.9</ele>
        <time>2024-09-25T12:16:44Z</time>
      </trkpt>
      <trkpt lat="45.81238" lon="1.21771">
        <ele>325.1</ele>
        <time>2024-09-25T12:16:45Z</time>
      </trkpt>
      <trkpt lat="45.81236" lon="1.21768">
        <ele>325.2</ele>
        <time>2024-09-25T12:16:46Z</time>
      </trkpt>
      <trkpt lat="45.81234" lon="1.21765">
        <ele>325.4</ele>
        <time>2024-09-25T12:16:47Z</time>
      </trkpt>
      <trkpt lat="45.81233" lon="1.21761">
        <ele>325.5</ele>
        <time>2024-09-25T12:16:48Z</time>
      </trkpt>
      <trkpt lat="45.81232" lon="1.21758">
        <ele>325.6</ele>
        <time>2024-09-25T12:16:49Z</time>
      </trkpt>
      <trkpt lat="45.81231" lon="1.21754">
        <ele>325.6</ele>
        <time>2024-09-25T12:16:50Z</time>
      </trkpt>
      <trkpt lat="45.81231" lon="1.2175">
        <ele>325.7</ele>
        <time>2024-09-25T12:16:51Z</time>
      </trkpt>
      <trkpt lat="45.81232" lon="1.21745">
        <ele>325.8</ele>
        <time>2024-09-25T12:16:53Z</time>
      </trkpt>
      <trkpt lat="45.81233" lon="1.21741">
        <ele>325.8</ele>
        <time>2024-09-25T12:17:05Z</time>
      </trkpt>
      <trkpt lat="45.81232" lon="1.21737">
        <ele>325.8</ele>
        <time>2024-09-25T12:17:56Z</time>
      </trkpt>
      <trkpt lat="45.81231" lon="1.21733">
        <ele>325.8</ele>
        <time>2024-09-25T12:17:58Z</time>
      </trkpt>
      <trkpt lat="45.81231" lon="1.21727">
        <ele>325.9</ele>
        <time>2024-09-25T12:18:00Z</time>
      </trkpt>
      <trkpt lat="45.8123" lon="1.21721">
        <ele>325.9</ele>
        <time>2024-09-25T12:18:02Z</time>
      </trkpt>
      <trkpt lat="45.81228" lon="1.21716">
        <ele>326</ele>
        <time>2024-09-25T12:18:03Z</time>
      </trkpt>
      <trkpt lat="45.81226" lon="1.21713">
        <ele>326</ele>
        <time>2024-09-25T12:18:04Z</time>
      </trkpt>
      <trkpt lat="45.81224" lon="1.21709">
        <ele>326.2</ele>
        <time>2024-09-25T12:18:05Z</time>
      </trkpt>
      <trkpt lat="45.81222" lon="1.21706">
        <ele>326.3</ele>
        <time>2024-09-25T12:18:06Z</time>
      </trkpt>
      <trkpt lat="45.81221" lon="1.21702">
        <ele>326.4</ele>
        <time>2024-09-25T12:18:07Z</time>
      </trkpt>
      <trkpt lat="45.8122" lon="1.21698">
        <ele>326.5</ele>
        <time>2024-09-25T12:18:08Z</time>
      </trkpt>
      <trkpt lat="45.81219" lon="1.21693">
        <ele>326.7</ele>
        <time>2024-09-25T12:18:09Z</time>
      </trkpt>
      <trkpt lat="45.81218" lon="1.21689">
        <ele>326.8</ele>
        <time>2024-09-25T12:18:10Z</time>
      </trkpt>
      <trkpt lat="45.81217" lon="1.21684">
        <ele>327</ele>
        <time>2024-09-25T12:18:11Z</time>
      </trkpt>
      <trkpt lat="45.81217" lon="1.21679">
        <ele>327.1</ele>
        <time>2024-09-25T12:18:12Z</time>
      </trkpt>
      <trkpt lat="45.81216" lon="1.21675">
        <ele>327.2</ele>
        <time>2024-09-25T12:18:13Z</time>
      </trkpt>
      <trkpt lat="45.81216" lon="1.2167">
        <ele>327.3</ele>
        <time>2024-09-25T12:18:14Z</time>
      </trkpt>
      <trkpt lat="45.81215" lon="1.21666">
        <ele>327.4</ele>
        <time>2024-09-25T12:18:15Z</time>
      </trkpt>
      <trkpt lat="45.81214" lon="1.21662">
        <ele>327.5</ele>
        <time>2024-09-25T12:18:16Z</time>
      </trkpt>
      <trkpt lat="45.81213" lon="1.21657">
        <ele>327.7</ele>
        <time>2024-09-25T12:18:17Z</time>
      </trkpt>
      <trkpt lat="45.81212" lon="1.21653">
        <ele>327.8</ele>
        <time>2024-09-25T12:18:18Z</time>
      </trkpt>
      <trkpt lat="45.81211" lon="1.21648">
        <ele>327.9</ele>
        <time>2024-09-25T12:18:19Z</time>
      </trkpt>
      <trkpt lat="45.8121" lon="1.21644">
        <ele>328</ele>
        <time>2024-09-25T12:18:20Z</time>
      </trkpt>
      <trkpt lat="45.81209" lon="1.21639">
        <ele>328.1</ele>
        <time>2024-09-25T12:18:21Z</time>
      </trkpt>
      <trkpt lat="45.81208" lon="1.21635">
        <ele>328.2</ele>
        <time>2024-09-25T12:18:22Z</time>
      </trkpt>
      <trkpt lat="45.81207" lon="1.2163">
        <ele>328.3</ele>
        <time>2024-09-25T12:18:23Z</time>
      </trkpt>
      <trkpt lat="45.81206" lon="1.21625">
        <ele>328.4</ele>
        <time>2024-09-25T12:18:24Z</time>
      </trkpt>
      <trkpt lat="45.81205" lon="1.2162">
        <ele>328.5</ele>
        <time>2024-09-25T12:18:25Z</time>
      </trkpt>
      <trkpt lat="45.81204" lon="1.21615">
        <ele>328.6</ele>
        <time>2024-09-25T12:18:26Z</time>
      </trkpt>
      <trkpt lat="45.81203" lon="1.2161">
        <ele>328.7</ele>
        <time>2024-09-25T12:18:27Z</time>
      </trkpt>
      <trkpt lat="45.81202" lon="1.21604">
        <ele>328.8</ele>
        <time>2024-09-25T12:18:28Z</time>
      </trkpt>
      <trkpt lat="45.81201" lon="1.21599">
        <ele>328.8</ele>
        <time>2024-09-25T12:18:29Z</time>
      </trkpt>
      <trkpt lat="45.81199" lon="1.21598">
        <ele>328.9</ele>
        <time>2024-09-25T12:18:33Z</time>
      </trkpt>
      <trkpt lat="45.81196" lon="1.216">
        <ele>329</ele>
        <time>2024-09-25T12:18:35Z</time>
      </trkpt>
      <trkpt lat="45.81193" lon="1.21602">
        <ele>329</ele>
        <time>2024-09-25T12:18:36Z</time>
      </trkpt>
      <trkpt lat="45.8119" lon="1.21602">
        <ele>329.1</ele>
        <time>2024-09-25T12:18:38Z</time>
      </trkpt>
      <trkpt lat="45.81187" lon="1.216">
        <ele>329.2</ele>
        <time>2024-09-25T12:18:39Z</time>
      </trkpt>
      <trkpt lat="45.81184" lon="1.21597">
        <ele>329.2</ele>
        <time>2024-09-25T12:18:40Z</time>
      </trkpt>
      <trkpt lat="45.81182" lon="1.21594">
        <ele>329.3</ele>
        <time>2024-09-25T12:18:41Z</time>
      </trkpt>
      <trkpt lat="45.81179" lon="1.21591">
        <ele>329.4</ele>
        <time>2024-09-25T12:18:42Z</time>
      </trkpt>
      <trkpt lat="45.81176" lon="1.21588">
        <ele>329.5</ele>
        <time>2024-09-25T12:18:43Z</time>
      </trkpt>
      <trkpt lat="45.81174" lon="1.21585">
        <ele>329.6</ele>
        <time>2024-09-25T12:18:44Z</time>
      </trkpt>
      <trkpt lat="45.81171" lon="1.21581">
        <ele>329.7</ele>
        <time>2024-09-25T12:18:46Z</time>
      </trkpt>
      <trkpt lat="45.81167" lon="1.21578">
        <ele>329.8</ele>
        <time>2024-09-25T12:18:48Z</time>
      </trkpt>
      <trkpt lat="45.81163" lon="1.21575">
        <ele>330</ele>
        <time>2024-09-25T12:18:50Z</time>
      </trkpt>
      <trkpt lat="45.81159" lon="1.21571">
        <ele>330.1</ele>
        <time>2024-09-25T12:18:52Z</time>
      </trkpt>
      <trkpt lat="45.81155" lon="1.21568">
        <ele>330.3</ele>
        <time>2024-09-25T12:18:54Z</time>
      </trkpt>
      <trkpt lat="45.8115" lon="1.21563">
        <ele>330.5</ele>
        <time>2024-09-25T12:18:56Z</time>
      </trkpt>
      <trkpt lat="45.81147" lon="1.2156">
        <ele>330.6</ele>
        <time>2024-09-25T12:18:57Z</time>
      </trkpt>
      <trkpt lat="45.81144" lon="1.21557">
        <ele>330.7</ele>
        <time>2024-09-25T12:18:58Z</time>
      </trkpt>
      <trkpt lat="45.81142" lon="1.21553">
        <ele>330.6</ele>
        <time>2024-09-25T12:18:59Z</time>
      </trkpt>
      <trkpt lat="45.81138" lon="1.21552">
        <ele>330.6</ele>
        <time>2024-09-25T12:19:01Z</time>
      </trkpt>
      <trkpt lat="45.81134" lon="1.21552">
        <ele>330.6</ele>
        <time>2024-09-25T12:19:02Z</time>
      </trkpt>
      <trkpt lat="45.81131" lon="1.21553">
        <ele>330.5</ele>
        <time>2024-09-25T12:19:03Z</time>
      </trkpt>
      <trkpt lat="45.81127" lon="1.21553">
        <ele>330.5</ele>
        <time>2024-09-25T12:19:04Z</time>
      </trkpt>
      <trkpt lat="45.81125" lon="1.21551">
        <ele>330.5</ele>
        <time>2024-09-25T12:19:05Z</time>
      </trkpt>
      <trkpt lat="45.81122" lon="1.21549">
        <ele>330.6</ele>
        <time>2024-09-25T12:19:06Z</time>
      </trkpt>
      <trkpt lat="45.8112" lon="1.21544">
        <ele>330.7</ele>
        <time>2024-09-25T12:19:08Z</time>
      </trkpt>
      <trkpt lat="45.8112" lon="1.21539">
        <ele>330.7</ele>
        <time>2024-09-25T12:19:10Z</time>
      </trkpt>
      <trkpt lat="45.81122" lon="1.21533">
        <ele>330.8</ele>
        <time>2024-09-25T12:19:12Z</time>
      </trkpt>
      <trkpt lat="45.81122" lon="1.21528">
        <ele>330.8</ele>
        <time>2024-09-25T12:19:13Z</time>
      </trkpt>
      <trkpt lat="45.81121" lon="1.21523">
        <ele>330.8</ele>
        <time>2024-09-25T12:19:14Z</time>
      </trkpt>
      <trkpt lat="45.8112" lon="1.2152">
        <ele>330.8</ele>
        <time>2024-09-25T12:19:15Z</time>
      </trkpt>
      <trkpt lat="45.81117" lon="1.21516">
        <ele>330.8</ele>
        <time>2024-09-25T12:19:16Z</time>
      </trkpt>
      <trkpt lat="45.81114" lon="1.21513">
        <ele>330.8</ele>
        <time>2024-09-25T12:19:17Z</time>
      </trkpt>
      <trkpt lat="45.81112" lon="1.21509">
        <ele>330.8</ele>
        <time>2024-09-25T12:19:18Z</time>
      </trkpt>
      <trkpt lat="45.81109" lon="1.21506">
        <ele>330.9</ele>
        <time>2024-09-25T12:19:19Z</time>
      </trkpt>
      <trkpt lat="45.81106" lon="1.21503">
        <ele>331</ele>
        <time>2024-09-25T12:19:20Z</time>
      </trkpt>
      <trkpt lat="45.81103" lon="1.21499">
        <ele>331</ele>
        <time>2024-09-25T12:19:21Z</time>
      </trkpt>
      <trkpt lat="45.811" lon="1.21496">
        <ele>331.1</ele>
        <time>2024-09-25T12:19:22Z</time>
      </trkpt>
      <trkpt lat="45.81097" lon="1.21492">
        <ele>331.2</ele>
        <time>2024-09-25T12:19:23Z</time>
      </trkpt>
      <trkpt lat="45.81094" lon="1.21488">
        <ele>331.3</ele>
        <time>2024-09-25T12:19:24Z</time>
      </trkpt>
      <trkpt lat="45.81091" lon="1.21484">
        <ele>331.4</ele>
        <time>2024-09-25T12:19:25Z</time>
      </trkpt>
      <trkpt lat="45.81088" lon="1.2148">
        <ele>331.4</ele>
        <time>2024-09-25T12:19:26Z</time>
      </trkpt>
      <trkpt lat="45.81085" lon="1.21476">
        <ele>331.5</ele>
        <time>2024-09-25T12:19:27Z</time>
      </trkpt>
      <trkpt lat="45.81082" lon="1.21472">
        <ele>331.6</ele>
        <time>2024-09-25T12:19:28Z</time>
      </trkpt>
      <trkpt lat="45.81079" lon="1.21469">
        <ele>331.7</ele>
        <time>2024-09-25T12:19:29Z</time>
      </trkpt>
      <trkpt lat="45.81076" lon="1.21466">
        <ele>331.8</ele>
        <time>2024-09-25T12:19:30Z</time>
      </trkpt>
      <trkpt lat="45.81074" lon="1.21463">
        <ele>331.9</ele>
        <time>2024-09-25T12:19:31Z</time>
      </trkpt>
      <trkpt lat="45.81071" lon="1.21461">
        <ele>332</ele>
        <time>2024-09-25T12:19:32Z</time>
      </trkpt>
      <trkpt lat="45.81068" lon="1.21458">
        <ele>332.1</ele>
        <time>2024-09-25T12:19:33Z</time>
      </trkpt>
      <trkpt lat="45.81065" lon="1.21455">
        <ele>332.1</ele>
        <time>2024-09-25T12:19:34Z</time>
      </trkpt>
      <trkpt lat="45.81062" lon="1.21452">
        <ele>332.2</ele>
        <time>2024-09-25T12:19:35Z</time>
      </trkpt>
      <trkpt lat="45.81059" lon="1.21449">
        <ele>332.3</ele>
        <time>2024-09-25T12:19:36Z</time>
      </trkpt>
      <trkpt lat="45.81057" lon="1.21446">
        <ele>332.4</ele>
        <time>2024-09-25T12:19:37Z</time>
      </trkpt>
      <trkpt lat="45.81054" lon="1.21444">
        <ele>332.5</ele>
        <time>2024-09-25T12:19:38Z</time>
      </trkpt>
      <trkpt lat="45.81051" lon="1.21442">
        <ele>332.6</ele>
        <time>2024-09-25T12:19:39Z</time>
      </trkpt>
      <trkpt lat="45.81047" lon="1.21442">
        <ele>332.7</ele>
        <time>2024-09-25T12:19:41Z</time>
      </trkpt>
      <trkpt lat="45.81044" lon="1.21444">
        <ele>332.8</ele>
        <time>2024-09-25T12:19:42Z</time>
      </trkpt>
      <trkpt lat="45.81041" lon="1.21445">
        <ele>332.9</ele>
        <time>2024-09-25T12:19:43Z</time>
      </trkpt>
      <trkpt lat="45.81038" lon="1.21444">
        <ele>333</ele>
        <time>2024-09-25T12:19:45Z</time>
      </trkpt>
      <trkpt lat="45.81034" lon="1.2144">
        <ele>333.2</ele>
        <time>2024-09-25T12:19:47Z</time>
      </trkpt>
      <trkpt lat="45.81031" lon="1.21437">
        <ele>333.3</ele>
        <time>2024-09-25T12:19:48Z</time>
      </trkpt>
      <trkpt lat="45.81028" lon="1.21432">
        <ele>333.5</ele>
        <time>2024-09-25T12:19:49Z</time>
      </trkpt>
      <trkpt lat="45.81026" lon="1.21428">
        <ele>333.7</ele>
        <time>2024-09-25T12:19:50Z</time>
      </trkpt>
      <trkpt lat="45.81023" lon="1.21424">
        <ele>333.9</ele>
        <time>2024-09-25T12:19:51Z</time>
      </trkpt>
      <trkpt lat="45.8102" lon="1.21421">
        <ele>334.1</ele>
        <time>2024-09-25T12:19:52Z</time>
      </trkpt>
      <trkpt lat="45.81017" lon="1.21417">
        <ele>334.3</ele>
        <time>2024-09-25T12:19:53Z</time>
      </trkpt>
      <trkpt lat="45.81015" lon="1.21413">
        <ele>334.5</ele>
        <time>2024-09-25T12:19:54Z</time>
      </trkpt>
      <trkpt lat="45.81012" lon="1.21409">
        <ele>334.7</ele>
        <time>2024-09-25T12:19:55Z</time>
      </trkpt>
      <trkpt lat="45.81009" lon="1.21405">
        <ele>334.9</ele>
        <time>2024-09-25T12:19:56Z</time>
      </trkpt>
      <trkpt lat="45.81006" lon="1.21402">
        <ele>335</ele>
        <time>2024-09-25T12:19:57Z</time>
      </trkpt>
      <trkpt lat="45.81004" lon="1.21398">
        <ele>335.2</ele>
        <time>2024-09-25T12:19:58Z</time>
      </trkpt>
      <trkpt lat="45.81001" lon="1.21394">
        <ele>335.4</ele>
        <time>2024-09-25T12:19:59Z</time>
      </trkpt>
      <trkpt lat="45.80998" lon="1.2139">
        <ele>335.6</ele>
        <time>2024-09-25T12:20:00Z</time>
      </trkpt>
      <trkpt lat="45.80995" lon="1.21387">
        <ele>335.7</ele>
        <time>2024-09-25T12:20:01Z</time>
      </trkpt>
      <trkpt lat="45.80992" lon="1.21385">
        <ele>335.9</ele>
        <time>2024-09-25T12:20:02Z</time>
      </trkpt>
      <trkpt lat="45.80988" lon="1.21383">
        <ele>336.1</ele>
        <time>2024-09-25T12:20:03Z</time>
      </trkpt>
      <trkpt lat="45.80984" lon="1.21381">
        <ele>336.3</ele>
        <time>2024-09-25T12:20:04Z</time>
      </trkpt>
      <trkpt lat="45.80981" lon="1.2138">
        <ele>336.4</ele>
        <time>2024-09-25T12:20:05Z</time>
      </trkpt>
      <trkpt lat="45.80978" lon="1.21379">
        <ele>336.6</ele>
        <time>2024-09-25T12:20:06Z</time>
      </trkpt>
      <trkpt lat="45.80974" lon="1.21376">
        <ele>336.8</ele>
        <time>2024-09-25T12:20:08Z</time>
      </trkpt>
      <trkpt lat="45.80971" lon="1.21374">
        <ele>337</ele>
        <time>2024-09-25T12:20:09Z</time>
      </trkpt>
      <trkpt lat="45.80968" lon="1.21371">
        <ele>337.1</ele>
        <time>2024-09-25T12:20:10Z</time>
      </trkpt>
      <trkpt lat="45.80965" lon="1.21367">
        <ele>337.3</ele>
        <time>2024-09-25T12:20:11Z</time>
      </trkpt>
      <trkpt lat="45.80961" lon="1.21363">
        <ele>337.5</ele>
        <time>2024-09-25T12:20:13Z</time>
      </trkpt>
      <trkpt lat="45.80958" lon="1.21359">
        <ele>337.7</ele>
        <time>2024-09-25T12:20:14Z</time>
      </trkpt>
      <trkpt lat="45.80954" lon="1.21355">
        <ele>337.9</ele>
        <time>2024-09-25T12:20:15Z</time>
      </trkpt>
      <trkpt lat="45.80951" lon="1.21352">
        <ele>338.1</ele>
        <time>2024-09-25T12:20:16Z</time>
      </trkpt>
      <trkpt lat="45.80947" lon="1.21349">
        <ele>338.3</ele>
        <time>2024-09-25T12:20:17Z</time>
      </trkpt>
      <trkpt lat="45.80944" lon="1.21345">
        <ele>338.5</ele>
        <time>2024-09-25T12:20:18Z</time>
      </trkpt>
      <trkpt lat="45.8094" lon="1.21341">
        <ele>338.7</ele>
        <time>2024-09-25T12:20:19Z</time>
      </trkpt>
      <trkpt lat="45.80938" lon="1.21337">
        <ele>339</ele>
        <time>2024-09-25T12:20:20Z</time>
      </trkpt>
      <trkpt lat="45.80936" lon="1.21333">
        <ele>339.2</ele>
        <time>2024-09-25T12:20:21Z</time>
      </trkpt>
      <trkpt lat="45.80933" lon="1.21329">
        <ele>339.5</ele>
        <time>2024-09-25T12:20:22Z</time>
      </trkpt>
      <trkpt lat="45.80931" lon="1.21324">
        <ele>339.8</ele>
        <time>2024-09-25T12:20:23Z</time>
      </trkpt>
      <trkpt lat="45.8093" lon="1.2132">
        <ele>340</ele>
        <time>2024-09-25T12:20:24Z</time>
      </trkpt>
      <trkpt lat="45.80928" lon="1.21317">
        <ele>340.3</ele>
        <time>2024-09-25T12:20:25Z</time>
      </trkpt>
      <trkpt lat="45.80926" lon="1.21312">
        <ele>340.6</ele>
        <time>2024-09-25T12:20:27Z</time>
      </trkpt>
      <trkpt lat="45.80925" lon="1.21308">
        <ele>340.9</ele>
        <time>2024-09-25T12:20:28Z</time>
      </trkpt>
      <trkpt lat="45.80922" lon="1.21303">
        <ele>341.3</ele>
        <time>2024-09-25T12:20:30Z</time>
      </trkpt>
      <trkpt lat="45.80918" lon="1.21298">
        <ele>341.7</ele>
        <time>2024-09-25T12:20:32Z</time>
      </trkpt>
      <trkpt lat="45.80916" lon="1.21295">
        <ele>342</ele>
        <time>2024-09-25T12:20:33Z</time>
      </trkpt>
      <trkpt lat="45.80913" lon="1.21292">
        <ele>342.2</ele>
        <time>2024-09-25T12:20:34Z</time>
      </trkpt>
      <trkpt lat="45.80911" lon="1.21289">
        <ele>342.4</ele>
        <time>2024-09-25T12:20:35Z</time>
      </trkpt>
      <trkpt lat="45.80909" lon="1.21286">
        <ele>342.6</ele>
        <time>2024-09-25T12:20:36Z</time>
      </trkpt>
      <trkpt lat="45.80907" lon="1.21284">
        <ele>342.8</ele>
        <time>2024-09-25T12:20:37Z</time>
      </trkpt>
      <trkpt lat="45.80905" lon="1.21281">
        <ele>342.9</ele>
        <time>2024-09-25T12:20:38Z</time>
      </trkpt>
      <trkpt lat="45.80902" lon="1.21278">
        <ele>343</ele>
        <time>2024-09-25T12:20:40Z</time>
      </trkpt>
      <trkpt lat="45.80899" lon="1.21277">
        <ele>343.1</ele>
        <time>2024-09-25T12:20:41Z</time>
      </trkpt>
      <trkpt lat="45.80894" lon="1.21276">
        <ele>343.1</ele>
        <time>2024-09-25T12:20:43Z</time>
      </trkpt>
      <trkpt lat="45.80891" lon="1.21274">
        <ele>343.1</ele>
        <time>2024-09-25T12:20:44Z</time>
      </trkpt>
      <trkpt lat="45.80888" lon="1.21271">
        <ele>343.1</ele>
        <time>2024-09-25T12:20:45Z</time>
      </trkpt>
      <trkpt lat="45.80885" lon="1.21269">
        <ele>343.1</ele>
        <time>2024-09-25T12:20:46Z</time>
      </trkpt>
      <trkpt lat="45.80882" lon="1.21266">
        <ele>343</ele>
        <time>2024-09-25T12:20:47Z</time>
      </trkpt>
      <trkpt lat="45.80879" lon="1.21262">
        <ele>343</ele>
        <time>2024-09-25T12:20:48Z</time>
      </trkpt>
      <trkpt lat="45.80878" lon="1.21258">
        <ele>343.2</ele>
        <time>2024-09-25T12:20:49Z</time>
      </trkpt>
      <trkpt lat="45.80877" lon="1.21254">
        <ele>343.3</ele>
        <time>2024-09-25T12:20:50Z</time>
      </trkpt>
      <trkpt lat="45.80876" lon="1.2125">
        <ele>343.5</ele>
        <time>2024-09-25T12:20:51Z</time>
      </trkpt>
      <trkpt lat="45.80875" lon="1.21245">
        <ele>343.7</ele>
        <time>2024-09-25T12:20:52Z</time>
      </trkpt>
      <trkpt lat="45.80875" lon="1.21241">
        <ele>343.8</ele>
        <time>2024-09-25T12:20:53Z</time>
      </trkpt>
      <trkpt lat="45.80874" lon="1.21236">
        <ele>343.9</ele>
        <time>2024-09-25T12:20:55Z</time>
      </trkpt>
      <trkpt lat="45.80873" lon="1.2123">
        <ele>344.1</ele>
        <time>2024-09-25T12:20:57Z</time>
      </trkpt>
      <trkpt lat="45.80871" lon="1.21224">
        <ele>344.3</ele>
        <time>2024-09-25T12:20:59Z</time>
      </trkpt>
      <trkpt lat="45.8087" lon="1.21217">
        <ele>344.4</ele>
        <time>2024-09-25T12:21:01Z</time>
      </trkpt>
      <trkpt lat="45.80869" lon="1.21211">
        <ele>344.5</ele>
        <time>2024-09-25T12:21:03Z</time>
      </trkpt>
      <trkpt lat="45.80868" lon="1.21205">
        <ele>344.6</ele>
        <time>2024-09-25T12:21:05Z</time>
      </trkpt>
      <trkpt lat="45.80867" lon="1.212">
        <ele>344.7</ele>
        <time>2024-09-25T12:21:07Z</time>
      </trkpt>
      <trkpt lat="45.80867" lon="1.21195">
        <ele>344.7</ele>
        <time>2024-09-25T12:21:09Z</time>
      </trkpt>
      <trkpt lat="45.80867" lon="1.21189">
        <ele>344.8</ele>
        <time>2024-09-25T12:21:11Z</time>
      </trkpt>
      <trkpt lat="45.80866" lon="1.21182">
        <ele>344.9</ele>
        <time>2024-09-25T12:21:13Z</time>
      </trkpt>
      <trkpt lat="45.80865" lon="1.21178">
        <ele>344.9</ele>
        <time>2024-09-25T12:21:14Z</time>
      </trkpt>
      <trkpt lat="45.80864" lon="1.21173">
        <ele>344.9</ele>
        <time>2024-09-25T12:21:15Z</time>
      </trkpt>
      <trkpt lat="45.80863" lon="1.21168">
        <ele>345</ele>
        <time>2024-09-25T12:21:16Z</time>
      </trkpt>
      <trkpt lat="45.80862" lon="1.21163">
        <ele>345</ele>
        <time>2024-09-25T12:21:17Z</time>
      </trkpt>
      <trkpt lat="45.80862" lon="1.21159">
        <ele>345</ele>
        <time>2024-09-25T12:21:18Z</time>
      </trkpt>
      <trkpt lat="45.80861" lon="1.21155">
        <ele>345</ele>
        <time>2024-09-25T12:21:19Z</time>
      </trkpt>
      <trkpt lat="45.80861" lon="1.2115">
        <ele>345</ele>
        <time>2024-09-25T12:21:20Z</time>
      </trkpt>
      <trkpt lat="45.80861" lon="1.21146">
        <ele>345</ele>
        <time>2024-09-25T12:21:21Z</time>
      </trkpt>
      <trkpt lat="45.80861" lon="1.21141">
        <ele>345</ele>
        <time>2024-09-25T12:21:22Z</time>
      </trkpt>
      <trkpt lat="45.8086" lon="1.21135">
        <ele>345</ele>
        <time>2024-09-25T12:21:23Z</time>
      </trkpt>
      <trkpt lat="45.8086" lon="1.2113">
        <ele>345</ele>
        <time>2024-09-25T12:21:24Z</time>
      </trkpt>
      <trkpt lat="45.8086" lon="1.21123">
        <ele>344.9</ele>
        <time>2024-09-25T12:21:25Z</time>
      </trkpt>
      <trkpt lat="45.8086" lon="1.21117">
        <ele>344.9</ele>
        <time>2024-09-25T12:21:26Z</time>
      </trkpt>
      <trkpt lat="45.80859" lon="1.21111">
        <ele>344.9</ele>
        <time>2024-09-25T12:21:27Z</time>
      </trkpt>
      <trkpt lat="45.80859" lon="1.21104">
        <ele>344.8</ele>
        <time>2024-09-25T12:21:28Z</time>
      </trkpt>
      <trkpt lat="45.80858" lon="1.21097">
        <ele>344.8</ele>
        <time>2024-09-25T12:21:29Z</time>
      </trkpt>
      <trkpt lat="45.80858" lon="1.2109">
        <ele>344.8</ele>
        <time>2024-09-25T12:21:30Z</time>
      </trkpt>
      <trkpt lat="45.80857" lon="1.21083">
        <ele>344.6</ele>
        <time>2024-09-25T12:21:31Z</time>
      </trkpt>
      <trkpt lat="45.80856" lon="1.21076">
        <ele>344.5</ele>
        <time>2024-09-25T12:21:32Z</time>
      </trkpt>
      <trkpt lat="45.80855" lon="1.21069">
        <ele>344.4</ele>
        <time>2024-09-25T12:21:33Z</time>
      </trkpt>
      <trkpt lat="45.80854" lon="1.21062">
        <ele>344.2</ele>
        <time>2024-09-25T12:21:34Z</time>
      </trkpt>
      <trkpt lat="45.80853" lon="1.21055">
        <ele>344</ele>
        <time>2024-09-25T12:21:35Z</time>
      </trkpt>
      <trkpt lat="45.80852" lon="1.21047">
        <ele>343.8</ele>
        <time>2024-09-25T12:21:36Z</time>
      </trkpt>
      <trkpt lat="45.80851" lon="1.2104">
        <ele>343.6</ele>
        <time>2024-09-25T12:21:37Z</time>
      </trkpt>
      <trkpt lat="45.80851" lon="1.21033">
        <ele>343.4</ele>
        <time>2024-09-25T12:21:38Z</time>
      </trkpt>
      <trkpt lat="45.8085" lon="1.21025">
        <ele>343.1</ele>
        <time>2024-09-25T12:21:39Z</time>
      </trkpt>
      <trkpt lat="45.8085" lon="1.21018">
        <ele>342.9</ele>
        <time>2024-09-25T12:21:40Z</time>
      </trkpt>
      <trkpt lat="45.8085" lon="1.21012">
        <ele>342.6</ele>
        <time>2024-09-25T12:21:41Z</time>
      </trkpt>
      <trkpt lat="45.8085" lon="1.21006">
        <ele>342.4</ele>
        <time>2024-09-25T12:21:42Z</time>
      </trkpt>
      <trkpt lat="45.8085" lon="1.21">
        <ele>342.2</ele>
        <time>2024-09-25T12:21:43Z</time>
      </trkpt>
      <trkpt lat="45.8085" lon="1.20993">
        <ele>341.9</ele>
        <time>2024-09-25T12:21:44Z</time>
      </trkpt>
      <trkpt lat="45.80849" lon="1.20987">
        <ele>341.7</ele>
        <time>2024-09-25T12:21:45Z</time>
      </trkpt>
      <trkpt lat="45.80849" lon="1.2098">
        <ele>341.5</ele>
        <time>2024-09-25T12:21:46Z</time>
      </trkpt>
      <trkpt lat="45.80849" lon="1.20974">
        <ele>341.2</ele>
        <time>2024-09-25T12:21:47Z</time>
      </trkpt>
      <trkpt lat="45.80848" lon="1.20967">
        <ele>340.9</ele>
        <time>2024-09-25T12:21:48Z</time>
      </trkpt>
      <trkpt lat="45.80848" lon="1.20959">
        <ele>340.6</ele>
        <time>2024-09-25T12:21:49Z</time>
      </trkpt>
      <trkpt lat="45.80847" lon="1.20952">
        <ele>340.3</ele>
        <time>2024-09-25T12:21:50Z</time>
      </trkpt>
      <trkpt lat="45.80847" lon="1.20945">
        <ele>339.9</ele>
        <time>2024-09-25T12:21:51Z</time>
      </trkpt>
      <trkpt lat="45.80846" lon="1.20936">
        <ele>339.5</ele>
        <time>2024-09-25T12:21:52Z</time>
      </trkpt>
      <trkpt lat="45.80846" lon="1.20928">
        <ele>339.1</ele>
        <time>2024-09-25T12:21:53Z</time>
      </trkpt>
      <trkpt lat="45.80845" lon="1.20918">
        <ele>338.6</ele>
        <time>2024-09-25T12:21:54Z</time>
      </trkpt>
      <trkpt lat="45.80845" lon="1.20909">
        <ele>338.2</ele>
        <time>2024-09-25T12:21:55Z</time>
      </trkpt>
      <trkpt lat="45.80844" lon="1.20899">
        <ele>337.8</ele>
        <time>2024-09-25T12:21:56Z</time>
      </trkpt>
      <trkpt lat="45.80844" lon="1.20889">
        <ele>337.3</ele>
        <time>2024-09-25T12:21:57Z</time>
      </trkpt>
      <trkpt lat="45.80844" lon="1.2088">
        <ele>336.9</ele>
        <time>2024-09-25T12:21:58Z</time>
      </trkpt>
      <trkpt lat="45.80844" lon="1.20871">
        <ele>336.6</ele>
        <time>2024-09-25T12:21:59Z</time>
      </trkpt>
      <trkpt lat="45.80844" lon="1.20863">
        <ele>336.2</ele>
        <time>2024-09-25T12:22:00Z</time>
      </trkpt>
      <trkpt lat="45.80844" lon="1.20856">
        <ele>335.9</ele>
        <time>2024-09-25T12:22:01Z</time>
      </trkpt>
      <trkpt lat="45.80844" lon="1.20848">
        <ele>335.6</ele>
        <time>2024-09-25T12:22:02Z</time>
      </trkpt>
      <trkpt lat="45.80844" lon="1.20841">
        <ele>335.3</ele>
        <time>2024-09-25T12:22:03Z</time>
      </trkpt>
      <trkpt lat="45.80844" lon="1.20833">
        <ele>335</ele>
        <time>2024-09-25T12:22:04Z</time>
      </trkpt>
      <trkpt lat="45.80844" lon="1.20826">
        <ele>334.7</ele>
        <time>2024-09-25T12:22:05Z</time>
      </trkpt>
      <trkpt lat="45.80844" lon="1.20821">
        <ele>334.5</ele>
        <time>2024-09-25T12:22:07Z</time>
      </trkpt>
      <trkpt lat="45.80844" lon="1.20813">
        <ele>334.2</ele>
        <time>2024-09-25T12:22:09Z</time>
      </trkpt>
      <trkpt lat="45.80844" lon="1.20807">
        <ele>334</ele>
        <time>2024-09-25T12:22:10Z</time>
      </trkpt>
      <trkpt lat="45.80845" lon="1.20801">
        <ele>333.6</ele>
        <time>2024-09-25T12:22:11Z</time>
      </trkpt>
      <trkpt lat="45.80845" lon="1.20793">
        <ele>333.2</ele>
        <time>2024-09-25T12:22:12Z</time>
      </trkpt>
      <trkpt lat="45.80845" lon="1.20786">
        <ele>332.9</ele>
        <time>2024-09-25T12:22:13Z</time>
      </trkpt>
      <trkpt lat="45.80845" lon="1.20778">
        <ele>332.5</ele>
        <time>2024-09-25T12:22:14Z</time>
      </trkpt>
      <trkpt lat="45.80846" lon="1.20769">
        <ele>332</ele>
        <time>2024-09-25T12:22:15Z</time>
      </trkpt>
      <trkpt lat="45.80846" lon="1.20761">
        <ele>331.7</ele>
        <time>2024-09-25T12:22:16Z</time>
      </trkpt>
      <trkpt lat="45.80847" lon="1.20751">
        <ele>331.3</ele>
        <time>2024-09-25T12:22:17Z</time>
      </trkpt>
      <trkpt lat="45.80847" lon="1.20742">
        <ele>330.9</ele>
        <time>2024-09-25T12:22:18Z</time>
      </trkpt>
      <trkpt lat="45.80847" lon="1.20732">
        <ele>330.6</ele>
        <time>2024-09-25T12:22:19Z</time>
      </trkpt>
      <trkpt lat="45.80847" lon="1.20724">
        <ele>330.3</ele>
        <time>2024-09-25T12:22:20Z</time>
      </trkpt>
      <trkpt lat="45.80848" lon="1.20715">
        <ele>329.9</ele>
        <time>2024-09-25T12:22:21Z</time>
      </trkpt>
      <trkpt lat="45.80848" lon="1.20707">
        <ele>329.7</ele>
        <time>2024-09-25T12:22:22Z</time>
      </trkpt>
      <trkpt lat="45.80848" lon="1.207">
        <ele>329.4</ele>
        <time>2024-09-25T12:22:23Z</time>
      </trkpt>
      <trkpt lat="45.80848" lon="1.20694">
        <ele>329.2</ele>
        <time>2024-09-25T12:22:24Z</time>
      </trkpt>
      <trkpt lat="45.80848" lon="1.20688">
        <ele>329</ele>
        <time>2024-09-25T12:22:25Z</time>
      </trkpt>
      <trkpt lat="45.80848" lon="1.20683">
        <ele>328.9</ele>
        <time>2024-09-25T12:22:26Z</time>
      </trkpt>
      <trkpt lat="45.80848" lon="1.20679">
        <ele>328.7</ele>
        <time>2024-09-25T12:22:27Z</time>
      </trkpt>
      <trkpt lat="45.80846" lon="1.20674">
        <ele>328.5</ele>
        <time>2024-09-25T12:22:28Z</time>
      </trkpt>
      <trkpt lat="45.80843" lon="1.2067">
        <ele>328.3</ele>
        <time>2024-09-25T12:22:29Z</time>
      </trkpt>
      <trkpt lat="45.80841" lon="1.20667">
        <ele>328.2</ele>
        <time>2024-09-25T12:22:30Z</time>
      </trkpt>
      <trkpt lat="45.80837" lon="1.20662">
        <ele>328</ele>
        <time>2024-09-25T12:22:31Z</time>
      </trkpt>
      <trkpt lat="45.80834" lon="1.20658">
        <ele>327.9</ele>
        <time>2024-09-25T12:22:32Z</time>
      </trkpt>
      <trkpt lat="45.8083" lon="1.20654">
        <ele>327.7</ele>
        <time>2024-09-25T12:22:33Z</time>
      </trkpt>
      <trkpt lat="45.80826" lon="1.20651">
        <ele>327.6</ele>
        <time>2024-09-25T12:22:34Z</time>
      </trkpt>
      <trkpt lat="45.80822" lon="1.20648">
        <ele>327.5</ele>
        <time>2024-09-25T12:22:35Z</time>
      </trkpt>
      <trkpt lat="45.80819" lon="1.20644">
        <ele>327.4</ele>
        <time>2024-09-25T12:22:36Z</time>
      </trkpt>
      <trkpt lat="45.80815" lon="1.20642">
        <ele>327.3</ele>
        <time>2024-09-25T12:22:37Z</time>
      </trkpt>
      <trkpt lat="45.80811" lon="1.2064">
        <ele>327.1</ele>
        <time>2024-09-25T12:22:38Z</time>
      </trkpt>
      <trkpt lat="45.80806" lon="1.20637">
        <ele>327</ele>
        <time>2024-09-25T12:22:39Z</time>
      </trkpt>
      <trkpt lat="45.80802" lon="1.20634">
        <ele>326.8</ele>
        <time>2024-09-25T12:22:40Z</time>
      </trkpt>
      <trkpt lat="45.80797" lon="1.20631">
        <ele>326.7</ele>
        <time>2024-09-25T12:22:41Z</time>
      </trkpt>
      <trkpt lat="45.80792" lon="1.20627">
        <ele>326.5</ele>
        <time>2024-09-25T12:22:42Z</time>
      </trkpt>
      <trkpt lat="45.80786" lon="1.20624">
        <ele>326.3</ele>
        <time>2024-09-25T12:22:43Z</time>
      </trkpt>
      <trkpt lat="45.80781" lon="1.2062">
        <ele>326.1</ele>
        <time>2024-09-25T12:22:44Z</time>
      </trkpt>
      <trkpt lat="45.80776" lon="1.20616">
        <ele>326</ele>
        <time>2024-09-25T12:22:45Z</time>
      </trkpt>
      <trkpt lat="45.80771" lon="1.20613">
        <ele>325.8</ele>
        <time>2024-09-25T12:22:46Z</time>
      </trkpt>
      <trkpt lat="45.80767" lon="1.20609">
        <ele>325.7</ele>
        <time>2024-09-25T12:22:47Z</time>
      </trkpt>
      <trkpt lat="45.80762" lon="1.20605">
        <ele>325.5</ele>
        <time>2024-09-25T12:22:48Z</time>
      </trkpt>
      <trkpt lat="45.80757" lon="1.20601">
        <ele>325.5</ele>
        <time>2024-09-25T12:22:49Z</time>
      </trkpt>
      <trkpt lat="45.80753" lon="1.20597">
        <ele>325.4</ele>
        <time>2024-09-25T12:22:50Z</time>
      </trkpt>
      <trkpt lat="45.80749" lon="1.20594">
        <ele>325.3</ele>
        <time>2024-09-25T12:22:51Z</time>
      </trkpt>
      <trkpt lat="45.80746" lon="1.20589">
        <ele>325.2</ele>
        <time>2024-09-25T12:22:52Z</time>
      </trkpt>
      <trkpt lat="45.80743" lon="1.20586">
        <ele>325</ele>
        <time>2024-09-25T12:22:53Z</time>
      </trkpt>
      <trkpt lat="45.8074" lon="1.20582">
        <ele>324.7</ele>
        <time>2024-09-25T12:22:54Z</time>
      </trkpt>
      <trkpt lat="45.80736" lon="1.20578">
        <ele>324.4</ele>
        <time>2024-09-25T12:22:55Z</time>
      </trkpt>
      <trkpt lat="45.80733" lon="1.20574">
        <ele>324.2</ele>
        <time>2024-09-25T12:22:56Z</time>
      </trkpt>
      <trkpt lat="45.8073" lon="1.20569">
        <ele>323.9</ele>
        <time>2024-09-25T12:22:57Z</time>
      </trkpt>
      <trkpt lat="45.80726" lon="1.20564">
        <ele>323.5</ele>
        <time>2024-09-25T12:22:58Z</time>
      </trkpt>
      <trkpt lat="45.80722" lon="1.2056">
        <ele>323.2</ele>
        <time>2024-09-25T12:22:59Z</time>
      </trkpt>
      <trkpt lat="45.80718" lon="1.20556">
        <ele>322.8</ele>
        <time>2024-09-25T12:23:00Z</time>
      </trkpt>
      <trkpt lat="45.80715" lon="1.20549">
        <ele>322.3</ele>
        <time>2024-09-25T12:23:01Z</time>
      </trkpt>
      <trkpt lat="45.8071" lon="1.20544">
        <ele>321.6</ele>
        <time>2024-09-25T12:23:02Z</time>
      </trkpt>
      <trkpt lat="45.80706" lon="1.20538">
        <ele>321</ele>
        <time>2024-09-25T12:23:04Z</time>
      </trkpt>
      <trkpt lat="45.80703" lon="1.20534">
        <ele>320.5</ele>
        <time>2024-09-25T12:23:05Z</time>
      </trkpt>
      <trkpt lat="45.807" lon="1.2053">
        <ele>320</ele>
        <time>2024-09-25T12:23:06Z</time>
      </trkpt>
      <trkpt lat="45.80698" lon="1.20527">
        <ele>319.6</ele>
        <time>2024-09-25T12:23:07Z</time>
      </trkpt>
      <trkpt lat="45.80695" lon="1.20524">
        <ele>319.1</ele>
        <time>2024-09-25T12:23:08Z</time>
      </trkpt>
      <trkpt lat="45.80693" lon="1.20521">
        <ele>318.8</ele>
        <time>2024-09-25T12:23:09Z</time>
      </trkpt>
      <trkpt lat="45.80691" lon="1.20518">
        <ele>318.4</ele>
        <time>2024-09-25T12:23:10Z</time>
      </trkpt>
      <trkpt lat="45.80688" lon="1.20515">
        <ele>318</ele>
        <time>2024-09-25T12:23:11Z</time>
      </trkpt>
      <trkpt lat="45.80684" lon="1.20511">
        <ele>317.4</ele>
        <time>2024-09-25T12:23:12Z</time>
      </trkpt>
      <trkpt lat="45.80681" lon="1.20506">
        <ele>317</ele>
        <time>2024-09-25T12:23:13Z</time>
      </trkpt>
      <trkpt lat="45.80677" lon="1.20502">
        <ele>316.5</ele>
        <time>2024-09-25T12:23:14Z</time>
      </trkpt>
      <trkpt lat="45.80674" lon="1.20499">
        <ele>316.2</ele>
        <time>2024-09-25T12:23:15Z</time>
      </trkpt>
      <trkpt lat="45.80671" lon="1.20494">
        <ele>315.8</ele>
        <time>2024-09-25T12:23:16Z</time>
      </trkpt>
      <trkpt lat="45.80667" lon="1.2049">
        <ele>315.3</ele>
        <time>2024-09-25T12:23:17Z</time>
      </trkpt>
      <trkpt lat="45.80662" lon="1.20485">
        <ele>314.8</ele>
        <time>2024-09-25T12:23:18Z</time>
      </trkpt>
      <trkpt lat="45.80658" lon="1.20479">
        <ele>314.3</ele>
        <time>2024-09-25T12:23:19Z</time>
      </trkpt>
      <trkpt lat="45.80654" lon="1.20474">
        <ele>313.9</ele>
        <time>2024-09-25T12:23:20Z</time>
      </trkpt>
      <trkpt lat="45.80648" lon="1.2047">
        <ele>313.3</ele>
        <time>2024-09-25T12:23:21Z</time>
      </trkpt>
      <trkpt lat="45.80644" lon="1.20466">
        <ele>312.9</ele>
        <time>2024-09-25T12:23:22Z</time>
      </trkpt>
      <trkpt lat="45.80639" lon="1.20462">
        <ele>312.4</ele>
        <time>2024-09-25T12:23:23Z</time>
      </trkpt>
      <trkpt lat="45.80636" lon="1.20458">
        <ele>312</ele>
        <time>2024-09-25T12:23:24Z</time>
      </trkpt>
      <trkpt lat="45.80633" lon="1.20453">
        <ele>311.7</ele>
        <time>2024-09-25T12:23:25Z</time>
      </trkpt>
      <trkpt lat="45.80632" lon="1.20447">
        <ele>311.2</ele>
        <time>2024-09-25T12:23:26Z</time>
      </trkpt>
      <trkpt lat="45.80632" lon="1.20442">
        <ele>311</ele>
        <time>2024-09-25T12:23:27Z</time>
      </trkpt>
      <trkpt lat="45.80634" lon="1.20437">
        <ele>310.9</ele>
        <time>2024-09-25T12:23:28Z</time>
      </trkpt>
      <trkpt lat="45.80637" lon="1.20433">
        <ele>310.7</ele>
        <time>2024-09-25T12:23:29Z</time>
      </trkpt>
      <trkpt lat="45.8064" lon="1.20429">
        <ele>310.6</ele>
        <time>2024-09-25T12:23:30Z</time>
      </trkpt>
      <trkpt lat="45.80644" lon="1.20425">
        <ele>310.4</ele>
        <time>2024-09-25T12:23:31Z</time>
      </trkpt>
      <trkpt lat="45.80647" lon="1.20421">
        <ele>310.3</ele>
        <time>2024-09-25T12:23:32Z</time>
      </trkpt>
      <trkpt lat="45.8065" lon="1.20416">
        <ele>310.2</ele>
        <time>2024-09-25T12:23:33Z</time>
      </trkpt>
      <trkpt lat="45.80653" lon="1.20412">
        <ele>310.1</ele>
        <time>2024-09-25T12:23:34Z</time>
      </trkpt>
      <trkpt lat="45.80655" lon="1.20407">
        <ele>310</ele>
        <time>2024-09-25T12:23:35Z</time>
      </trkpt>
      <trkpt lat="45.80658" lon="1.20403">
        <ele>309.8</ele>
        <time>2024-09-25T12:23:36Z</time>
      </trkpt>
      <trkpt lat="45.80661" lon="1.20397">
        <ele>309.7</ele>
        <time>2024-09-25T12:23:37Z</time>
      </trkpt>
      <trkpt lat="45.80664" lon="1.20392">
        <ele>309.6</ele>
        <time>2024-09-25T12:23:38Z</time>
      </trkpt>
      <trkpt lat="45.80667" lon="1.20387">
        <ele>309.4</ele>
        <time>2024-09-25T12:23:39Z</time>
      </trkpt>
      <trkpt lat="45.8067" lon="1.20382">
        <ele>309.3</ele>
        <time>2024-09-25T12:23:40Z</time>
      </trkpt>
      <trkpt lat="45.80673" lon="1.20376">
        <ele>309.2</ele>
        <time>2024-09-25T12:23:41Z</time>
      </trkpt>
      <trkpt lat="45.80676" lon="1.20371">
        <ele>309.1</ele>
        <time>2024-09-25T12:23:42Z</time>
      </trkpt>
      <trkpt lat="45.8068" lon="1.20366">
        <ele>308.9</ele>
        <time>2024-09-25T12:23:43Z</time>
      </trkpt>
      <trkpt lat="45.80683" lon="1.2036">
        <ele>308.8</ele>
        <time>2024-09-25T12:23:44Z</time>
      </trkpt>
      <trkpt lat="45.80687" lon="1.20354">
        <ele>308.7</ele>
        <time>2024-09-25T12:23:45Z</time>
      </trkpt>
      <trkpt lat="45.8069" lon="1.20349">
        <ele>308.6</ele>
        <time>2024-09-25T12:23:46Z</time>
      </trkpt>
      <trkpt lat="45.80694" lon="1.20343">
        <ele>308.6</ele>
        <time>2024-09-25T12:23:47Z</time>
      </trkpt>
      <trkpt lat="45.80697" lon="1.20338">
        <ele>308.5</ele>
        <time>2024-09-25T12:23:48Z</time>
      </trkpt>
      <trkpt lat="45.80701" lon="1.20332">
        <ele>308.5</ele>
        <time>2024-09-25T12:23:49Z</time>
      </trkpt>
      <trkpt lat="45.80704" lon="1.20326">
        <ele>308.4</ele>
        <time>2024-09-25T12:23:50Z</time>
      </trkpt>
      <trkpt lat="45.80708" lon="1.2032">
        <ele>308.4</ele>
        <time>2024-09-25T12:23:51Z</time>
      </trkpt>
      <trkpt lat="45.80711" lon="1.20314">
        <ele>308.4</ele>
        <time>2024-09-25T12:23:52Z</time>
      </trkpt>
      <trkpt lat="45.80714" lon="1.20308">
        <ele>308.4</ele>
        <time>2024-09-25T12:23:53Z</time>
      </trkpt>
      <trkpt lat="45.80718" lon="1.20303">
        <ele>308.5</ele>
        <time>2024-09-25T12:23:54Z</time>
      </trkpt>
      <trkpt lat="45.80722" lon="1.20298">
        <ele>308.5</ele>
        <time>2024-09-25T12:23:55Z</time>
      </trkpt>
      <trkpt lat="45.80725" lon="1.20293">
        <ele>308.5</ele>
        <time>2024-09-25T12:23:56Z</time>
      </trkpt>
      <trkpt lat="45.80729" lon="1.20287">
        <ele>308.6</ele>
        <time>2024-09-25T12:23:57Z</time>
      </trkpt>
      <trkpt lat="45.80732" lon="1.20282">
        <ele>308.7</ele>
        <time>2024-09-25T12:23:58Z</time>
      </trkpt>
      <trkpt lat="45.80736" lon="1.20278">
        <ele>308.8</ele>
        <time>2024-09-25T12:23:59Z</time>
      </trkpt>
      <trkpt lat="45.8074" lon="1.20274">
        <ele>308.9</ele>
        <time>2024-09-25T12:24:00Z</time>
      </trkpt>
      <trkpt lat="45.80743" lon="1.20269">
        <ele>308.9</ele>
        <time>2024-09-25T12:24:01Z</time>
      </trkpt>
      <trkpt lat="45.80747" lon="1.20264">
        <ele>309</ele>
        <time>2024-09-25T12:24:02Z</time>
      </trkpt>
      <trkpt lat="45.8075" lon="1.2026">
        <ele>309</ele>
        <time>2024-09-25T12:24:03Z</time>
      </trkpt>
      <trkpt lat="45.80754" lon="1.20255">
        <ele>309</ele>
        <time>2024-09-25T12:24:04Z</time>
      </trkpt>
      <trkpt lat="45.80757" lon="1.20251">
        <ele>309</ele>
        <time>2024-09-25T12:24:05Z</time>
      </trkpt>
      <trkpt lat="45.80759" lon="1.20247">
        <ele>308.9</ele>
        <time>2024-09-25T12:24:06Z</time>
      </trkpt>
      <trkpt lat="45.8076" lon="1.20242">
        <ele>308.9</ele>
        <time>2024-09-25T12:24:07Z</time>
      </trkpt>
      <trkpt lat="45.80761" lon="1.20237">
        <ele>308.8</ele>
        <time>2024-09-25T12:24:08Z</time>
      </trkpt>
      <trkpt lat="45.80761" lon="1.20231">
        <ele>308.5</ele>
        <time>2024-09-25T12:24:09Z</time>
      </trkpt>
      <trkpt lat="45.8076" lon="1.20225">
        <ele>308.3</ele>
        <time>2024-09-25T12:24:10Z</time>
      </trkpt>
      <trkpt lat="45.80758" lon="1.20219">
        <ele>308.1</ele>
        <time>2024-09-25T12:24:11Z</time>
      </trkpt>
      <trkpt lat="45.80756" lon="1.20212">
        <ele>307.9</ele>
        <time>2024-09-25T12:24:12Z</time>
      </trkpt>
      <trkpt lat="45.80753" lon="1.20204">
        <ele>307.6</ele>
        <time>2024-09-25T12:24:13Z</time>
      </trkpt>
      <trkpt lat="45.8075" lon="1.20197">
        <ele>307.4</ele>
        <time>2024-09-25T12:24:14Z</time>
      </trkpt>
      <trkpt lat="45.80748" lon="1.2019">
        <ele>307.1</ele>
        <time>2024-09-25T12:24:15Z</time>
      </trkpt>
      <trkpt lat="45.80745" lon="1.20182">
        <ele>306.9</ele>
        <time>2024-09-25T12:24:16Z</time>
      </trkpt>
      <trkpt lat="45.80742" lon="1.20173">
        <ele>306.6</ele>
        <time>2024-09-25T12:24:17Z</time>
      </trkpt>
      <trkpt lat="45.8074" lon="1.20165">
        <ele>306.4</ele>
        <time>2024-09-25T12:24:18Z</time>
      </trkpt>
      <trkpt lat="45.80737" lon="1.20157">
        <ele>306.2</ele>
        <time>2024-09-25T12:24:19Z</time>
      </trkpt>
      <trkpt lat="45.80733" lon="1.2015">
        <ele>306.1</ele>
        <time>2024-09-25T12:24:20Z</time>
      </trkpt>
      <trkpt lat="45.8073" lon="1.20143">
        <ele>306</ele>
        <time>2024-09-25T12:24:21Z</time>
      </trkpt>
      <trkpt lat="45.80727" lon="1.20136">
        <ele>305.9</ele>
        <time>2024-09-25T12:24:22Z</time>
      </trkpt>
      <trkpt lat="45.80724" lon="1.20128">
        <ele>305.8</ele>
        <time>2024-09-25T12:24:23Z</time>
      </trkpt>
      <trkpt lat="45.80721" lon="1.20121">
        <ele>305.7</ele>
        <time>2024-09-25T12:24:24Z</time>
      </trkpt>
      <trkpt lat="45.80717" lon="1.20113">
        <ele>305.6</ele>
        <time>2024-09-25T12:24:25Z</time>
      </trkpt>
      <trkpt lat="45.80714" lon="1.20107">
        <ele>305.6</ele>
        <time>2024-09-25T12:24:26Z</time>
      </trkpt>
      <trkpt lat="45.80711" lon="1.20101">
        <ele>305.4</ele>
        <time>2024-09-25T12:24:27Z</time>
      </trkpt>
      <trkpt lat="45.80707" lon="1.20094">
        <ele>305.1</ele>
        <time>2024-09-25T12:24:28Z</time>
      </trkpt>
      <trkpt lat="45.80703" lon="1.20089">
        <ele>304.9</ele>
        <time>2024-09-25T12:24:29Z</time>
      </trkpt>
      <trkpt lat="45.807" lon="1.20082">
        <ele>304.6</ele>
        <time>2024-09-25T12:24:30Z</time>
      </trkpt>
      <trkpt lat="45.80697" lon="1.20075">
        <ele>304.4</ele>
        <time>2024-09-25T12:24:31Z</time>
      </trkpt>
      <trkpt lat="45.80694" lon="1.20067">
        <ele>304.1</ele>
        <time>2024-09-25T12:24:32Z</time>
      </trkpt>
      <trkpt lat="45.80691" lon="1.2006">
        <ele>303.8</ele>
        <time>2024-09-25T12:24:33Z</time>
      </trkpt>
      <trkpt lat="45.80688" lon="1.20051">
        <ele>303.5</ele>
        <time>2024-09-25T12:24:34Z</time>
      </trkpt>
      <trkpt lat="45.80685" lon="1.20045">
        <ele>303.3</ele>
        <time>2024-09-25T12:24:35Z</time>
      </trkpt>
      <trkpt lat="45.80681" lon="1.20039">
        <ele>303.1</ele>
        <time>2024-09-25T12:24:36Z</time>
      </trkpt>
      <trkpt lat="45.80679" lon="1.2003">
        <ele>302.8</ele>
        <time>2024-09-25T12:24:37Z</time>
      </trkpt>
      <trkpt lat="45.80677" lon="1.20022">
        <ele>302.6</ele>
        <time>2024-09-25T12:24:38Z</time>
      </trkpt>
      <trkpt lat="45.80676" lon="1.20015">
        <ele>302.4</ele>
        <time>2024-09-25T12:24:39Z</time>
      </trkpt>
      <trkpt lat="45.80676" lon="1.20009">
        <ele>302.3</ele>
        <time>2024-09-25T12:24:40Z</time>
      </trkpt>
      <trkpt lat="45.80674" lon="1.20004">
        <ele>302.2</ele>
        <time>2024-09-25T12:24:42Z</time>
      </trkpt>
      <trkpt lat="45.80674" lon="1.19999">
        <ele>302.2</ele>
        <time>2024-09-25T12:24:43Z</time>
      </trkpt>
      <trkpt lat="45.80676" lon="1.19996">
        <ele>302.2</ele>
        <time>2024-09-25T12:24:44Z</time>
      </trkpt>
      <trkpt lat="45.80677" lon="1.19992">
        <ele>302.2</ele>
        <time>2024-09-25T12:24:45Z</time>
      </trkpt>
      <trkpt lat="45.80679" lon="1.19988">
        <ele>302.2</ele>
        <time>2024-09-25T12:24:46Z</time>
      </trkpt>
      <trkpt lat="45.80681" lon="1.19984">
        <ele>302.2</ele>
        <time>2024-09-25T12:24:47Z</time>
      </trkpt>
      <trkpt lat="45.80683" lon="1.19979">
        <ele>302.3</ele>
        <time>2024-09-25T12:24:48Z</time>
      </trkpt>
      <trkpt lat="45.80685" lon="1.19975">
        <ele>302.3</ele>
        <time>2024-09-25T12:24:49Z</time>
      </trkpt>
      <trkpt lat="45.80687" lon="1.1997">
        <ele>302.3</ele>
        <time>2024-09-25T12:24:50Z</time>
      </trkpt>
      <trkpt lat="45.8069" lon="1.19965">
        <ele>302.3</ele>
        <time>2024-09-25T12:24:51Z</time>
      </trkpt>
      <trkpt lat="45.80692" lon="1.19961">
        <ele>302.3</ele>
        <time>2024-09-25T12:24:52Z</time>
      </trkpt>
      <trkpt lat="45.80695" lon="1.19958">
        <ele>302.3</ele>
        <time>2024-09-25T12:24:53Z</time>
      </trkpt>
      <trkpt lat="45.80697" lon="1.19954">
        <ele>302.3</ele>
        <time>2024-09-25T12:24:54Z</time>
      </trkpt>
      <trkpt lat="45.80699" lon="1.1995">
        <ele>302.2</ele>
        <time>2024-09-25T12:24:55Z</time>
      </trkpt>
      <trkpt lat="45.80698" lon="1.19945">
        <ele>302.2</ele>
        <time>2024-09-25T12:24:57Z</time>
      </trkpt>
      <trkpt lat="45.80697" lon="1.19941">
        <ele>302.1</ele>
        <time>2024-09-25T12:24:58Z</time>
      </trkpt>
      <trkpt lat="45.80694" lon="1.19937">
        <ele>302.1</ele>
        <time>2024-09-25T12:25:00Z</time>
      </trkpt>
      <trkpt lat="45.80692" lon="1.19934">
        <ele>302</ele>
        <time>2024-09-25T12:25:02Z</time>
      </trkpt>
      <trkpt lat="45.80688" lon="1.19932">
        <ele>302</ele>
        <time>2024-09-25T12:25:04Z</time>
      </trkpt>
      <trkpt lat="45.80685" lon="1.1993">
        <ele>301.9</ele>
        <time>2024-09-25T12:25:06Z</time>
      </trkpt>
      <trkpt lat="45.80682" lon="1.19927">
        <ele>301.8</ele>
        <time>2024-09-25T12:25:08Z</time>
      </trkpt>
      <trkpt lat="45.80677" lon="1.19925">
        <ele>301.5</ele>
        <time>2024-09-25T12:25:10Z</time>
      </trkpt>
      <trkpt lat="45.80673" lon="1.19924">
        <ele>301.4</ele>
        <time>2024-09-25T12:25:11Z</time>
      </trkpt>
      <trkpt lat="45.8067" lon="1.19924">
        <ele>301.2</ele>
        <time>2024-09-25T12:25:12Z</time>
      </trkpt>
      <trkpt lat="45.80665" lon="1.19925">
        <ele>301</ele>
        <time>2024-09-25T12:25:14Z</time>
      </trkpt>
      <trkpt lat="45.80662" lon="1.19927">
        <ele>300.9</ele>
        <time>2024-09-25T12:25:16Z</time>
      </trkpt>
      <trkpt lat="45.80659" lon="1.19931">
        <ele>300.7</ele>
        <time>2024-09-25T12:25:19Z</time>
      </trkpt>
      <trkpt lat="45.80656" lon="1.19935">
        <ele>300.5</ele>
        <time>2024-09-25T12:25:21Z</time>
      </trkpt>
      <trkpt lat="45.80657" lon="1.19938">
        <ele>300.4</ele>
        <time>2024-09-25T12:25:24Z</time>
      </trkpt>
      <trkpt lat="45.80658" lon="1.19937">
        <ele>300.4</ele>
        <time>2024-09-25T12:25:26Z</time>
      </trkpt>
      <trkpt lat="45.8066" lon="1.19931">
        <ele>300.2</ele>
        <time>2024-09-25T12:25:28Z</time>
      </trkpt>
      <trkpt lat="45.80663" lon="1.19927">
        <ele>300</ele>
        <time>2024-09-25T12:25:29Z</time>
      </trkpt>
      <trkpt lat="45.80665" lon="1.19923">
        <ele>300.3</ele>
        <time>2024-09-25T12:25:30Z</time>
      </trkpt>
      <trkpt lat="45.80668" lon="1.19922">
        <ele>300.7</ele>
        <time>2024-09-25T12:25:32Z</time>
      </trkpt>
      <trkpt lat="45.80671" lon="1.19922">
        <ele>301</ele>
        <time>2024-09-25T12:25:33Z</time>
      </trkpt>
      <trkpt lat="45.80674" lon="1.19922">
        <ele>301.3</ele>
        <time>2024-09-25T12:25:34Z</time>
      </trkpt>
      <trkpt lat="45.80678" lon="1.19922">
        <ele>301.8</ele>
        <time>2024-09-25T12:25:35Z</time>
      </trkpt>
      <trkpt lat="45.80681" lon="1.19922">
        <ele>301.9</ele>
        <time>2024-09-25T12:25:36Z</time>
      </trkpt>
      <trkpt lat="45.80684" lon="1.1992">
        <ele>301.8</ele>
        <time>2024-09-25T12:25:38Z</time>
      </trkpt>
      <trkpt lat="45.80686" lon="1.19915">
        <ele>301.7</ele>
        <time>2024-09-25T12:25:40Z</time>
      </trkpt>
      <trkpt lat="45.80688" lon="1.19909">
        <ele>301.5</ele>
        <time>2024-09-25T12:25:41Z</time>
      </trkpt>
      <trkpt lat="45.8069" lon="1.19904">
        <ele>301.4</ele>
        <time>2024-09-25T12:25:42Z</time>
      </trkpt>
      <trkpt lat="45.80692" lon="1.19898">
        <ele>301.3</ele>
        <time>2024-09-25T12:25:43Z</time>
      </trkpt>
      <trkpt lat="45.80693" lon="1.19892">
        <ele>301.2</ele>
        <time>2024-09-25T12:25:44Z</time>
      </trkpt>
      <trkpt lat="45.80696" lon="1.19887">
        <ele>301</ele>
        <time>2024-09-25T12:25:45Z</time>
      </trkpt>
      <trkpt lat="45.80697" lon="1.1988">
        <ele>300.8</ele>
        <time>2024-09-25T12:25:46Z</time>
      </trkpt>
      <trkpt lat="45.807" lon="1.19874">
        <ele>300.5</ele>
        <time>2024-09-25T12:25:47Z</time>
      </trkpt>
      <trkpt lat="45.80701" lon="1.19866">
        <ele>300.1</ele>
        <time>2024-09-25T12:25:48Z</time>
      </trkpt>
      <trkpt lat="45.80705" lon="1.19858">
        <ele>299.6</ele>
        <time>2024-09-25T12:25:49Z</time>
      </trkpt>
      <trkpt lat="45.80708" lon="1.1985">
        <ele>299</ele>
        <time>2024-09-25T12:25:50Z</time>
      </trkpt>
      <trkpt lat="45.80711" lon="1.19841">
        <ele>298.3</ele>
        <time>2024-09-25T12:25:51Z</time>
      </trkpt>
      <trkpt lat="45.80712" lon="1.1983">
        <ele>297.4</ele>
        <time>2024-09-25T12:25:52Z</time>
      </trkpt>
      <trkpt lat="45.80714" lon="1.19821">
        <ele>296.7</ele>
        <time>2024-09-25T12:25:53Z</time>
      </trkpt>
      <trkpt lat="45.80717" lon="1.19811">
        <ele>296</ele>
        <time>2024-09-25T12:25:54Z</time>
      </trkpt>
      <trkpt lat="45.8072" lon="1.19802">
        <ele>295.4</ele>
        <time>2024-09-25T12:25:55Z</time>
      </trkpt>
      <trkpt lat="45.80726" lon="1.19794">
        <ele>294.7</ele>
        <time>2024-09-25T12:25:56Z</time>
      </trkpt>
      <trkpt lat="45.80733" lon="1.1979">
        <ele>294.2</ele>
        <time>2024-09-25T12:25:57Z</time>
      </trkpt>
      <trkpt lat="45.8074" lon="1.19785">
        <ele>293.8</ele>
        <time>2024-09-25T12:25:58Z</time>
      </trkpt>
      <trkpt lat="45.80746" lon="1.1978">
        <ele>293.4</ele>
        <time>2024-09-25T12:25:59Z</time>
      </trkpt>
      <trkpt lat="45.80751" lon="1.19776">
        <ele>293.1</ele>
        <time>2024-09-25T12:26:00Z</time>
      </trkpt>
      <trkpt lat="45.80755" lon="1.19772">
        <ele>292.9</ele>
        <time>2024-09-25T12:26:01Z</time>
      </trkpt>
      <trkpt lat="45.80757" lon="1.19765">
        <ele>292.6</ele>
        <time>2024-09-25T12:26:02Z</time>
      </trkpt>
      <trkpt lat="45.80758" lon="1.19759">
        <ele>292.4</ele>
        <time>2024-09-25T12:26:03Z</time>
      </trkpt>
      <trkpt lat="45.80757" lon="1.19754">
        <ele>292</ele>
        <time>2024-09-25T12:26:04Z</time>
      </trkpt>
      <trkpt lat="45.80751" lon="1.1975">
        <ele>291.4</ele>
        <time>2024-09-25T12:26:05Z</time>
      </trkpt>
      <trkpt lat="45.80746" lon="1.19746">
        <ele>291</ele>
        <time>2024-09-25T12:26:06Z</time>
      </trkpt>
      <trkpt lat="45.80741" lon="1.19742">
        <ele>290.5</ele>
        <time>2024-09-25T12:26:07Z</time>
      </trkpt>
      <trkpt lat="45.80735" lon="1.19737">
        <ele>289.9</ele>
        <time>2024-09-25T12:26:08Z</time>
      </trkpt>
      <trkpt lat="45.8073" lon="1.19732">
        <ele>289.4</ele>
        <time>2024-09-25T12:26:09Z</time>
      </trkpt>
      <trkpt lat="45.80725" lon="1.19725">
        <ele>288.8</ele>
        <time>2024-09-25T12:26:10Z</time>
      </trkpt>
      <trkpt lat="45.8072" lon="1.19717">
        <ele>288.1</ele>
        <time>2024-09-25T12:26:11Z</time>
      </trkpt>
      <trkpt lat="45.80716" lon="1.19707">
        <ele>287.3</ele>
        <time>2024-09-25T12:26:12Z</time>
      </trkpt>
      <trkpt lat="45.80712" lon="1.19697">
        <ele>286.4</ele>
        <time>2024-09-25T12:26:13Z</time>
      </trkpt>
      <trkpt lat="45.80708" lon="1.19686">
        <ele>285.5</ele>
        <time>2024-09-25T12:26:14Z</time>
      </trkpt>
      <trkpt lat="45.80703" lon="1.19674">
        <ele>284.5</ele>
        <time>2024-09-25T12:26:15Z</time>
      </trkpt>
      <trkpt lat="45.80698" lon="1.19662">
        <ele>283.5</ele>
        <time>2024-09-25T12:26:16Z</time>
      </trkpt>
      <trkpt lat="45.80692" lon="1.1965">
        <ele>282.7</ele>
        <time>2024-09-25T12:26:17Z</time>
      </trkpt>
      <trkpt lat="45.80685" lon="1.19637">
        <ele>281.9</ele>
        <time>2024-09-25T12:26:18Z</time>
      </trkpt>
      <trkpt lat="45.80679" lon="1.19625">
        <ele>281.2</ele>
        <time>2024-09-25T12:26:19Z</time>
      </trkpt>
      <trkpt lat="45.80673" lon="1.19614">
        <ele>280.5</ele>
        <time>2024-09-25T12:26:20Z</time>
      </trkpt>
      <trkpt lat="45.80668" lon="1.19601">
        <ele>279.9</ele>
        <time>2024-09-25T12:26:21Z</time>
      </trkpt>
      <trkpt lat="45.80663" lon="1.19589">
        <ele>279.2</ele>
        <time>2024-09-25T12:26:22Z</time>
      </trkpt>
      <trkpt lat="45.8066" lon="1.19577">
        <ele>278.7</ele>
        <time>2024-09-25T12:26:23Z</time>
      </trkpt>
      <trkpt lat="45.80656" lon="1.19564">
        <ele>278</ele>
        <time>2024-09-25T12:26:24Z</time>
      </trkpt>
      <trkpt lat="45.80652" lon="1.19552">
        <ele>277.3</ele>
        <time>2024-09-25T12:26:25Z</time>
      </trkpt>
      <trkpt lat="45.80649" lon="1.1954">
        <ele>276.6</ele>
        <time>2024-09-25T12:26:26Z</time>
      </trkpt>
      <trkpt lat="45.80645" lon="1.19529">
        <ele>276</ele>
        <time>2024-09-25T12:26:27Z</time>
      </trkpt>
      <trkpt lat="45.80642" lon="1.19519">
        <ele>275.4</ele>
        <time>2024-09-25T12:26:28Z</time>
      </trkpt>
      <trkpt lat="45.8064" lon="1.19511">
        <ele>275</ele>
        <time>2024-09-25T12:26:29Z</time>
      </trkpt>
      <trkpt lat="45.80638" lon="1.19503">
        <ele>274.5</ele>
        <time>2024-09-25T12:26:30Z</time>
      </trkpt>
      <trkpt lat="45.80635" lon="1.19495">
        <ele>274.1</ele>
        <time>2024-09-25T12:26:31Z</time>
      </trkpt>
      <trkpt lat="45.80633" lon="1.19489">
        <ele>273.7</ele>
        <time>2024-09-25T12:26:32Z</time>
      </trkpt>
      <trkpt lat="45.80631" lon="1.19482">
        <ele>273.3</ele>
        <time>2024-09-25T12:26:33Z</time>
      </trkpt>
      <trkpt lat="45.80629" lon="1.19475">
        <ele>272.9</ele>
        <time>2024-09-25T12:26:34Z</time>
      </trkpt>
      <trkpt lat="45.80627" lon="1.19468">
        <ele>272.4</ele>
        <time>2024-09-25T12:26:35Z</time>
      </trkpt>
      <trkpt lat="45.80626" lon="1.19463">
        <ele>272</ele>
        <time>2024-09-25T12:26:36Z</time>
      </trkpt>
      <trkpt lat="45.80624" lon="1.19458">
        <ele>271.6</ele>
        <time>2024-09-25T12:26:37Z</time>
      </trkpt>
      <trkpt lat="45.80622" lon="1.19452">
        <ele>271.1</ele>
        <time>2024-09-25T12:26:39Z</time>
      </trkpt>
      <trkpt lat="45.8062" lon="1.19447">
        <ele>270.6</ele>
        <time>2024-09-25T12:26:41Z</time>
      </trkpt>
      <trkpt lat="45.80619" lon="1.19441">
        <ele>270.1</ele>
        <time>2024-09-25T12:26:42Z</time>
      </trkpt>
      <trkpt lat="45.80618" lon="1.19437">
        <ele>269.7</ele>
        <time>2024-09-25T12:26:43Z</time>
      </trkpt>
      <trkpt lat="45.80616" lon="1.1943">
        <ele>269.1</ele>
        <time>2024-09-25T12:26:45Z</time>
      </trkpt>
      <trkpt lat="45.80615" lon="1.19424">
        <ele>268.7</ele>
        <time>2024-09-25T12:26:46Z</time>
      </trkpt>
      <trkpt lat="45.80614" lon="1.19419">
        <ele>268.4</ele>
        <time>2024-09-25T12:26:47Z</time>
      </trkpt>
      <trkpt lat="45.80614" lon="1.19414">
        <ele>268.1</ele>
        <time>2024-09-25T12:26:48Z</time>
      </trkpt>
      <trkpt lat="45.80613" lon="1.1941">
        <ele>267.8</ele>
        <time>2024-09-25T12:26:49Z</time>
      </trkpt>
      <trkpt lat="45.80611" lon="1.19406">
        <ele>267.6</ele>
        <time>2024-09-25T12:26:50Z</time>
      </trkpt>
      <trkpt lat="45.8061" lon="1.194">
        <ele>267.3</ele>
        <time>2024-09-25T12:26:52Z</time>
      </trkpt>
      <trkpt lat="45.80609" lon="1.19394">
        <ele>267</ele>
        <time>2024-09-25T12:26:53Z</time>
      </trkpt>
      <trkpt lat="45.80609" lon="1.19388">
        <ele>266.7</ele>
        <time>2024-09-25T12:26:54Z</time>
      </trkpt>
      <trkpt lat="45.80609" lon="1.19382">
        <ele>266.5</ele>
        <time>2024-09-25T12:26:55Z</time>
      </trkpt>
      <trkpt lat="45.80609" lon="1.19377">
        <ele>266.3</ele>
        <time>2024-09-25T12:26:56Z</time>
      </trkpt>
      <trkpt lat="45.80609" lon="1.19373">
        <ele>266.2</ele>
        <time>2024-09-25T12:26:57Z</time>
      </trkpt>
      <trkpt lat="45.80608" lon="1.19369">
        <ele>266.1</ele>
        <time>2024-09-25T12:26:58Z</time>
      </trkpt>
      <trkpt lat="45.80607" lon="1.19365">
        <ele>266</ele>
        <time>2024-09-25T12:26:59Z</time>
      </trkpt>
      <trkpt lat="45.80605" lon="1.19359">
        <ele>265.9</ele>
        <time>2024-09-25T12:27:01Z</time>
      </trkpt>
      <trkpt lat="45.80604" lon="1.19354">
        <ele>265.8</ele>
        <time>2024-09-25T12:27:02Z</time>
      </trkpt>
      <trkpt lat="45.80603" lon="1.19348">
        <ele>265.8</ele>
        <time>2024-09-25T12:27:03Z</time>
      </trkpt>
      <trkpt lat="45.80602" lon="1.19343">
        <ele>265.7</ele>
        <time>2024-09-25T12:27:04Z</time>
      </trkpt>
      <trkpt lat="45.806" lon="1.19337">
        <ele>265.7</ele>
        <time>2024-09-25T12:27:05Z</time>
      </trkpt>
      <trkpt lat="45.806" lon="1.19331">
        <ele>265.7</ele>
        <time>2024-09-25T12:27:06Z</time>
      </trkpt>
      <trkpt lat="45.80599" lon="1.19324">
        <ele>265.7</ele>
        <time>2024-09-25T12:27:07Z</time>
      </trkpt>
      <trkpt lat="45.80598" lon="1.19318">
        <ele>265.7</ele>
        <time>2024-09-25T12:27:08Z</time>
      </trkpt>
      <trkpt lat="45.80597" lon="1.19312">
        <ele>265.7</ele>
        <time>2024-09-25T12:27:09Z</time>
      </trkpt>
      <trkpt lat="45.80597" lon="1.19306">
        <ele>265.7</ele>
        <time>2024-09-25T12:27:10Z</time>
      </trkpt>
      <trkpt lat="45.80596" lon="1.19301">
        <ele>265.7</ele>
        <time>2024-09-25T12:27:11Z</time>
      </trkpt>
      <trkpt lat="45.80595" lon="1.19295">
        <ele>265.8</ele>
        <time>2024-09-25T12:27:13Z</time>
      </trkpt>
      <trkpt lat="45.80593" lon="1.19289">
        <ele>265.8</ele>
        <time>2024-09-25T12:27:15Z</time>
      </trkpt>
      <trkpt lat="45.80592" lon="1.19282">
        <ele>265.8</ele>
        <time>2024-09-25T12:27:18Z</time>
      </trkpt>
      <trkpt lat="45.80591" lon="1.19278">
        <ele>265.8</ele>
        <time>2024-09-25T12:27:19Z</time>
      </trkpt>
      <trkpt lat="45.80592" lon="1.19273">
        <ele>265.9</ele>
        <time>2024-09-25T12:27:20Z</time>
      </trkpt>
      <trkpt lat="45.80592" lon="1.19268">
        <ele>266.1</ele>
        <time>2024-09-25T12:27:21Z</time>
      </trkpt>
      <trkpt lat="45.80592" lon="1.19263">
        <ele>266.2</ele>
        <time>2024-09-25T12:27:22Z</time>
      </trkpt>
      <trkpt lat="45.80592" lon="1.19259">
        <ele>266.4</ele>
        <time>2024-09-25T12:27:23Z</time>
      </trkpt>
      <trkpt lat="45.80592" lon="1.19254">
        <ele>266.6</ele>
        <time>2024-09-25T12:27:24Z</time>
      </trkpt>
      <trkpt lat="45.80591" lon="1.19251">
        <ele>266.7</ele>
        <time>2024-09-25T12:27:25Z</time>
      </trkpt>
      <trkpt lat="45.8059" lon="1.19245">
        <ele>267.1</ele>
        <time>2024-09-25T12:27:27Z</time>
      </trkpt>
      <trkpt lat="45.80588" lon="1.19238">
        <ele>267.5</ele>
        <time>2024-09-25T12:27:29Z</time>
      </trkpt>
      <trkpt lat="45.80586" lon="1.19231">
        <ele>268</ele>
        <time>2024-09-25T12:27:31Z</time>
      </trkpt>
      <trkpt lat="45.80585" lon="1.19227">
        <ele>268.3</ele>
        <time>2024-09-25T12:27:32Z</time>
      </trkpt>
      <trkpt lat="45.80583" lon="1.19223">
        <ele>268.6</ele>
        <time>2024-09-25T12:27:33Z</time>
      </trkpt>
      <trkpt lat="45.80581" lon="1.19217">
        <ele>269.1</ele>
        <time>2024-09-25T12:27:35Z</time>
      </trkpt>
      <trkpt lat="45.80578" lon="1.19212">
        <ele>269.6</ele>
        <time>2024-09-25T12:27:37Z</time>
      </trkpt>
      <trkpt lat="45.80575" lon="1.19207">
        <ele>270</ele>
        <time>2024-09-25T12:27:39Z</time>
      </trkpt>
      <trkpt lat="45.80572" lon="1.19201">
        <ele>270.5</ele>
        <time>2024-09-25T12:27:41Z</time>
      </trkpt>
      <trkpt lat="45.8057" lon="1.19197">
        <ele>270.9</ele>
        <time>2024-09-25T12:27:42Z</time>
      </trkpt>
      <trkpt lat="45.80568" lon="1.19193">
        <ele>271.2</ele>
        <time>2024-09-25T12:27:43Z</time>
      </trkpt>
      <trkpt lat="45.80566" lon="1.19187">
        <ele>271.6</ele>
        <time>2024-09-25T12:27:45Z</time>
      </trkpt>
      <trkpt lat="45.80563" lon="1.1918">
        <ele>272</ele>
        <time>2024-09-25T12:27:47Z</time>
      </trkpt>
      <trkpt lat="45.80561" lon="1.19176">
        <ele>272.2</ele>
        <time>2024-09-25T12:27:48Z</time>
      </trkpt>
      <trkpt lat="45.80557" lon="1.19171">
        <ele>272.4</ele>
        <time>2024-09-25T12:27:50Z</time>
      </trkpt>
      <trkpt lat="45.80553" lon="1.19165">
        <ele>272.7</ele>
        <time>2024-09-25T12:27:52Z</time>
      </trkpt>
      <trkpt lat="45.8055" lon="1.19161">
        <ele>272.8</ele>
        <time>2024-09-25T12:27:53Z</time>
      </trkpt>
      <trkpt lat="45.80548" lon="1.19158">
        <ele>272.8</ele>
        <time>2024-09-25T12:27:54Z</time>
      </trkpt>
      <trkpt lat="45.80545" lon="1.19155">
        <ele>272.8</ele>
        <time>2024-09-25T12:27:55Z</time>
      </trkpt>
      <trkpt lat="45.80543" lon="1.19152">
        <ele>272.8</ele>
        <time>2024-09-25T12:27:56Z</time>
      </trkpt>
      <trkpt lat="45.8054" lon="1.19149">
        <ele>272.8</ele>
        <time>2024-09-25T12:27:57Z</time>
      </trkpt>
      <trkpt lat="45.80538" lon="1.19146">
        <ele>272.7</ele>
        <time>2024-09-25T12:27:58Z</time>
      </trkpt>
      <trkpt lat="45.80536" lon="1.19142">
        <ele>272.7</ele>
        <time>2024-09-25T12:27:59Z</time>
      </trkpt>
      <trkpt lat="45.80535" lon="1.19137">
        <ele>272.6</ele>
        <time>2024-09-25T12:28:00Z</time>
      </trkpt>
      <trkpt lat="45.80535" lon="1.19131">
        <ele>272.4</ele>
        <time>2024-09-25T12:28:01Z</time>
      </trkpt>
      <trkpt lat="45.80537" lon="1.19126">
        <ele>272.3</ele>
        <time>2024-09-25T12:28:02Z</time>
      </trkpt>
      <trkpt lat="45.80538" lon="1.1912">
        <ele>272.1</ele>
        <time>2024-09-25T12:28:03Z</time>
      </trkpt>
      <trkpt lat="45.80541" lon="1.19115">
        <ele>271.9</ele>
        <time>2024-09-25T12:28:04Z</time>
      </trkpt>
      <trkpt lat="45.80543" lon="1.19109">
        <ele>271.7</ele>
        <time>2024-09-25T12:28:05Z</time>
      </trkpt>
      <trkpt lat="45.80545" lon="1.19104">
        <ele>271.4</ele>
        <time>2024-09-25T12:28:06Z</time>
      </trkpt>
      <trkpt lat="45.80547" lon="1.19098">
        <ele>271.2</ele>
        <time>2024-09-25T12:28:07Z</time>
      </trkpt>
      <trkpt lat="45.80549" lon="1.19092">
        <ele>270.8</ele>
        <time>2024-09-25T12:28:08Z</time>
      </trkpt>
      <trkpt lat="45.8055" lon="1.19085">
        <ele>270.4</ele>
        <time>2024-09-25T12:28:09Z</time>
      </trkpt>
      <trkpt lat="45.80551" lon="1.19076">
        <ele>269.9</ele>
        <time>2024-09-25T12:28:10Z</time>
      </trkpt>
      <trkpt lat="45.80551" lon="1.19067">
        <ele>269.3</ele>
        <time>2024-09-25T12:28:11Z</time>
      </trkpt>
      <trkpt lat="45.80551" lon="1.19059">
        <ele>268.8</ele>
        <time>2024-09-25T12:28:12Z</time>
      </trkpt>
      <trkpt lat="45.80552" lon="1.19051">
        <ele>268.3</ele>
        <time>2024-09-25T12:28:13Z</time>
      </trkpt>
      <trkpt lat="45.80552" lon="1.19041">
        <ele>267.7</ele>
        <time>2024-09-25T12:28:14Z</time>
      </trkpt>
      <trkpt lat="45.80552" lon="1.19031">
        <ele>267.1</ele>
        <time>2024-09-25T12:28:15Z</time>
      </trkpt>
      <trkpt lat="45.80552" lon="1.19022">
        <ele>266.6</ele>
        <time>2024-09-25T12:28:16Z</time>
      </trkpt>
      <trkpt lat="45.80552" lon="1.19012">
        <ele>266.1</ele>
        <time>2024-09-25T12:28:17Z</time>
      </trkpt>
      <trkpt lat="45.80552" lon="1.19002">
        <ele>265.5</ele>
        <time>2024-09-25T12:28:18Z</time>
      </trkpt>
      <trkpt lat="45.80552" lon="1.18992">
        <ele>265</ele>
        <time>2024-09-25T12:28:19Z</time>
      </trkpt>
      <trkpt lat="45.80552" lon="1.18982">
        <ele>264.5</ele>
        <time>2024-09-25T12:28:20Z</time>
      </trkpt>
      <trkpt lat="45.80552" lon="1.18971">
        <ele>264</ele>
        <time>2024-09-25T12:28:21Z</time>
      </trkpt>
      <trkpt lat="45.80552" lon="1.18961">
        <ele>263.5</ele>
        <time>2024-09-25T12:28:22Z</time>
      </trkpt>
      <trkpt lat="45.80552" lon="1.18951">
        <ele>263</ele>
        <time>2024-09-25T12:28:23Z</time>
      </trkpt>
      <trkpt lat="45.80551" lon="1.1894">
        <ele>262.4</ele>
        <time>2024-09-25T12:28:24Z</time>
      </trkpt>
      <trkpt lat="45.80551" lon="1.18931">
        <ele>261.8</ele>
        <time>2024-09-25T12:28:25Z</time>
      </trkpt>
      <trkpt lat="45.80552" lon="1.18921">
        <ele>261.2</ele>
        <time>2024-09-25T12:28:26Z</time>
      </trkpt>
      <trkpt lat="45.80552" lon="1.1891">
        <ele>260.6</ele>
        <time>2024-09-25T12:28:27Z</time>
      </trkpt>
      <trkpt lat="45.80553" lon="1.18899">
        <ele>259.9</ele>
        <time>2024-09-25T12:28:28Z</time>
      </trkpt>
      <trkpt lat="45.80552" lon="1.18887">
        <ele>259.1</ele>
        <time>2024-09-25T12:28:29Z</time>
      </trkpt>
      <trkpt lat="45.80552" lon="1.18875">
        <ele>258.6</ele>
        <time>2024-09-25T12:28:30Z</time>
      </trkpt>
      <trkpt lat="45.80552" lon="1.18864">
        <ele>258.1</ele>
        <time>2024-09-25T12:28:31Z</time>
      </trkpt>
      <trkpt lat="45.80552" lon="1.18853">
        <ele>257.7</ele>
        <time>2024-09-25T12:28:32Z</time>
      </trkpt>
      <trkpt lat="45.80552" lon="1.18842">
        <ele>257.2</ele>
        <time>2024-09-25T12:28:33Z</time>
      </trkpt>
      <trkpt lat="45.80552" lon="1.18833">
        <ele>256.8</ele>
        <time>2024-09-25T12:28:34Z</time>
      </trkpt>
      <trkpt lat="45.80551" lon="1.18825">
        <ele>256.5</ele>
        <time>2024-09-25T12:28:35Z</time>
      </trkpt>
      <trkpt lat="45.8055" lon="1.18816">
        <ele>256</ele>
        <time>2024-09-25T12:28:36Z</time>
      </trkpt>
      <trkpt lat="45.80548" lon="1.18808">
        <ele>255.6</ele>
        <time>2024-09-25T12:28:37Z</time>
      </trkpt>
      <trkpt lat="45.80546" lon="1.188">
        <ele>255.2</ele>
        <time>2024-09-25T12:28:38Z</time>
      </trkpt>
      <trkpt lat="45.80543" lon="1.18792">
        <ele>254.8</ele>
        <time>2024-09-25T12:28:39Z</time>
      </trkpt>
      <trkpt lat="45.80539" lon="1.18784">
        <ele>254.3</ele>
        <time>2024-09-25T12:28:40Z</time>
      </trkpt>
      <trkpt lat="45.80535" lon="1.18777">
        <ele>253.9</ele>
        <time>2024-09-25T12:28:41Z</time>
      </trkpt>
      <trkpt lat="45.80531" lon="1.1877">
        <ele>253.5</ele>
        <time>2024-09-25T12:28:42Z</time>
      </trkpt>
      <trkpt lat="45.80526" lon="1.18764">
        <ele>253.2</ele>
        <time>2024-09-25T12:28:43Z</time>
      </trkpt>
      <trkpt lat="45.80521" lon="1.18758">
        <ele>252.8</ele>
        <time>2024-09-25T12:28:44Z</time>
      </trkpt>
      <trkpt lat="45.80515" lon="1.18753">
        <ele>252.3</ele>
        <time>2024-09-25T12:28:45Z</time>
      </trkpt>
      <trkpt lat="45.8051" lon="1.18748">
        <ele>251.8</ele>
        <time>2024-09-25T12:28:46Z</time>
      </trkpt>
      <trkpt lat="45.80506" lon="1.18743">
        <ele>251.4</ele>
        <time>2024-09-25T12:28:47Z</time>
      </trkpt>
      <trkpt lat="45.80502" lon="1.18738">
        <ele>250.9</ele>
        <time>2024-09-25T12:28:48Z</time>
      </trkpt>
      <trkpt lat="45.80497" lon="1.18737">
        <ele>250.3</ele>
        <time>2024-09-25T12:28:49Z</time>
      </trkpt>
      <trkpt lat="45.80492" lon="1.18735">
        <ele>249.8</ele>
        <time>2024-09-25T12:28:50Z</time>
      </trkpt>
      <trkpt lat="45.80488" lon="1.18732">
        <ele>249.2</ele>
        <time>2024-09-25T12:28:51Z</time>
      </trkpt>
      <trkpt lat="45.80483" lon="1.18729">
        <ele>248.5</ele>
        <time>2024-09-25T12:28:52Z</time>
      </trkpt>
      <trkpt lat="45.80478" lon="1.18724">
        <ele>247.9</ele>
        <time>2024-09-25T12:28:53Z</time>
      </trkpt>
      <trkpt lat="45.80474" lon="1.18718">
        <ele>247.3</ele>
        <time>2024-09-25T12:28:54Z</time>
      </trkpt>
      <trkpt lat="45.80469" lon="1.18711">
        <ele>246.8</ele>
        <time>2024-09-25T12:28:55Z</time>
      </trkpt>
      <trkpt lat="45.80465" lon="1.18702">
        <ele>246.3</ele>
        <time>2024-09-25T12:28:56Z</time>
      </trkpt>
      <trkpt lat="45.80462" lon="1.18693">
        <ele>246</ele>
        <time>2024-09-25T12:28:57Z</time>
      </trkpt>
      <trkpt lat="45.8046" lon="1.18681">
        <ele>245.8</ele>
        <time>2024-09-25T12:28:58Z</time>
      </trkpt>
      <trkpt lat="45.80459" lon="1.18671">
        <ele>245.8</ele>
        <time>2024-09-25T12:28:59Z</time>
      </trkpt>
      <trkpt lat="45.80458" lon="1.18661">
        <ele>245.8</ele>
        <time>2024-09-25T12:29:00Z</time>
      </trkpt>
      <trkpt lat="45.80457" lon="1.18653">
        <ele>245.9</ele>
        <time>2024-09-25T12:29:01Z</time>
      </trkpt>
      <trkpt lat="45.80457" lon="1.18646">
        <ele>246</ele>
        <time>2024-09-25T12:29:02Z</time>
      </trkpt>
      <trkpt lat="45.80456" lon="1.1864">
        <ele>246</ele>
        <time>2024-09-25T12:29:03Z</time>
      </trkpt>
      <trkpt lat="45.80456" lon="1.18634">
        <ele>246.1</ele>
        <time>2024-09-25T12:29:04Z</time>
      </trkpt>
      <trkpt lat="45.80454" lon="1.18629">
        <ele>246.1</ele>
        <time>2024-09-25T12:29:05Z</time>
      </trkpt>
      <trkpt lat="45.80452" lon="1.18622">
        <ele>246</ele>
        <time>2024-09-25T12:29:06Z</time>
      </trkpt>
      <trkpt lat="45.80451" lon="1.18616">
        <ele>245.9</ele>
        <time>2024-09-25T12:29:07Z</time>
      </trkpt>
      <trkpt lat="45.80451" lon="1.1861">
        <ele>245.8</ele>
        <time>2024-09-25T12:29:08Z</time>
      </trkpt>
      <trkpt lat="45.80452" lon="1.18605">
        <ele>245.6</ele>
        <time>2024-09-25T12:29:09Z</time>
      </trkpt>
      <trkpt lat="45.80454" lon="1.18598">
        <ele>245.3</ele>
        <time>2024-09-25T12:29:10Z</time>
      </trkpt>
      <trkpt lat="45.80456" lon="1.18591">
        <ele>244.8</ele>
        <time>2024-09-25T12:29:11Z</time>
      </trkpt>
      <trkpt lat="45.80458" lon="1.18583">
        <ele>244.2</ele>
        <time>2024-09-25T12:29:12Z</time>
      </trkpt>
      <trkpt lat="45.8046" lon="1.18575">
        <ele>243.6</ele>
        <time>2024-09-25T12:29:13Z</time>
      </trkpt>
      <trkpt lat="45.80462" lon="1.18567">
        <ele>243.1</ele>
        <time>2024-09-25T12:29:14Z</time>
      </trkpt>
      <trkpt lat="45.80464" lon="1.18558">
        <ele>242.5</ele>
        <time>2024-09-25T12:29:15Z</time>
      </trkpt>
      <trkpt lat="45.80466" lon="1.1855">
        <ele>242.1</ele>
        <time>2024-09-25T12:29:16Z</time>
      </trkpt>
      <trkpt lat="45.8047" lon="1.18542">
        <ele>241.7</ele>
        <time>2024-09-25T12:29:17Z</time>
      </trkpt>
      <trkpt lat="45.80473" lon="1.18534">
        <ele>241.3</ele>
        <time>2024-09-25T12:29:18Z</time>
      </trkpt>
      <trkpt lat="45.80476" lon="1.18528">
        <ele>241</ele>
        <time>2024-09-25T12:29:19Z</time>
      </trkpt>
      <trkpt lat="45.80478" lon="1.18522">
        <ele>240.8</ele>
        <time>2024-09-25T12:29:20Z</time>
      </trkpt>
      <trkpt lat="45.80479" lon="1.18515">
        <ele>240.6</ele>
        <time>2024-09-25T12:29:21Z</time>
      </trkpt>
      <trkpt lat="45.80481" lon="1.18509">
        <ele>240.4</ele>
        <time>2024-09-25T12:29:22Z</time>
      </trkpt>
      <trkpt lat="45.80483" lon="1.18504">
        <ele>240.3</ele>
        <time>2024-09-25T12:29:23Z</time>
      </trkpt>
      <trkpt lat="45.80485" lon="1.18498">
        <ele>240.1</ele>
        <time>2024-09-25T12:29:24Z</time>
      </trkpt>
      <trkpt lat="45.80488" lon="1.18492">
        <ele>240</ele>
        <time>2024-09-25T12:29:25Z</time>
      </trkpt>
      <trkpt lat="45.80491" lon="1.18486">
        <ele>239.9</ele>
        <time>2024-09-25T12:29:26Z</time>
      </trkpt>
      <trkpt lat="45.80492" lon="1.1848">
        <ele>239.9</ele>
        <time>2024-09-25T12:29:27Z</time>
      </trkpt>
      <trkpt lat="45.80494" lon="1.18476">
        <ele>239.8</ele>
        <time>2024-09-25T12:29:28Z</time>
      </trkpt>
      <trkpt lat="45.80497" lon="1.18471">
        <ele>239.8</ele>
        <time>2024-09-25T12:29:29Z</time>
      </trkpt>
      <trkpt lat="45.805" lon="1.18467">
        <ele>239.8</ele>
        <time>2024-09-25T12:29:30Z</time>
      </trkpt>
      <trkpt lat="45.80502" lon="1.1846">
        <ele>239.8</ele>
        <time>2024-09-25T12:29:31Z</time>
      </trkpt>
      <trkpt lat="45.80504" lon="1.18455">
        <ele>239.8</ele>
        <time>2024-09-25T12:29:32Z</time>
      </trkpt>
      <trkpt lat="45.80507" lon="1.1845">
        <ele>239.9</ele>
        <time>2024-09-25T12:29:33Z</time>
      </trkpt>
      <trkpt lat="45.80509" lon="1.18446">
        <ele>239.9</ele>
        <time>2024-09-25T12:29:34Z</time>
      </trkpt>
      <trkpt lat="45.80511" lon="1.18442">
        <ele>239.8</ele>
        <time>2024-09-25T12:29:35Z</time>
      </trkpt>
      <trkpt lat="45.80513" lon="1.18438">
        <ele>239.7</ele>
        <time>2024-09-25T12:29:36Z</time>
      </trkpt>
      <trkpt lat="45.80516" lon="1.18434">
        <ele>239.5</ele>
        <time>2024-09-25T12:29:37Z</time>
      </trkpt>
      <trkpt lat="45.80519" lon="1.1843">
        <ele>239.4</ele>
        <time>2024-09-25T12:29:38Z</time>
      </trkpt>
      <trkpt lat="45.80521" lon="1.18425">
        <ele>239.2</ele>
        <time>2024-09-25T12:29:39Z</time>
      </trkpt>
      <trkpt lat="45.80524" lon="1.1842">
        <ele>238.9</ele>
        <time>2024-09-25T12:29:40Z</time>
      </trkpt>
      <trkpt lat="45.80527" lon="1.18414">
        <ele>238.6</ele>
        <time>2024-09-25T12:29:41Z</time>
      </trkpt>
      <trkpt lat="45.8053" lon="1.18409">
        <ele>238.2</ele>
        <time>2024-09-25T12:29:42Z</time>
      </trkpt>
      <trkpt lat="45.80534" lon="1.18403">
        <ele>237.7</ele>
        <time>2024-09-25T12:29:43Z</time>
      </trkpt>
      <trkpt lat="45.80537" lon="1.18398">
        <ele>237.3</ele>
        <time>2024-09-25T12:29:44Z</time>
      </trkpt>
      <trkpt lat="45.8054" lon="1.18393">
        <ele>236.9</ele>
        <time>2024-09-25T12:29:45Z</time>
      </trkpt>
      <trkpt lat="45.80544" lon="1.18388">
        <ele>236.5</ele>
        <time>2024-09-25T12:29:46Z</time>
      </trkpt>
      <trkpt lat="45.80547" lon="1.18385">
        <ele>236.2</ele>
        <time>2024-09-25T12:29:47Z</time>
      </trkpt>
      <trkpt lat="45.8055" lon="1.18382">
        <ele>235.8</ele>
        <time>2024-09-25T12:29:48Z</time>
      </trkpt>
      <trkpt lat="45.80552" lon="1.18379">
        <ele>235.6</ele>
        <time>2024-09-25T12:29:49Z</time>
      </trkpt>
      <trkpt lat="45.80556" lon="1.18375">
        <ele>235.1</ele>
        <time>2024-09-25T12:29:51Z</time>
      </trkpt>
      <trkpt lat="45.80558" lon="1.18371">
        <ele>234.7</ele>
        <time>2024-09-25T12:29:52Z</time>
      </trkpt>
      <trkpt lat="45.80559" lon="1.18367">
        <ele>234.3</ele>
        <time>2024-09-25T12:29:54Z</time>
      </trkpt>
      <trkpt lat="45.80561" lon="1.18362">
        <ele>233.7</ele>
        <time>2024-09-25T12:29:56Z</time>
      </trkpt>
      <trkpt lat="45.80561" lon="1.18357">
        <ele>233.3</ele>
        <time>2024-09-25T12:29:59Z</time>
      </trkpt>
      <trkpt lat="45.80561" lon="1.18353">
        <ele>232.9</ele>
        <time>2024-09-25T12:30:27Z</time>
      </trkpt>
      <trkpt lat="45.8056" lon="1.18348">
        <ele>232.3</ele>
        <time>2024-09-25T12:30:41Z</time>
      </trkpt>
      <trkpt lat="45.8056" lon="1.18342">
        <ele>231.8</ele>
        <time>2024-09-25T12:30:43Z</time>
      </trkpt>
      <trkpt lat="45.80561" lon="1.18338">
        <ele>231.4</ele>
        <time>2024-09-25T12:30:44Z</time>
      </trkpt>
      <trkpt lat="45.80564" lon="1.18335">
        <ele>231</ele>
        <time>2024-09-25T12:30:45Z</time>
      </trkpt>
      <trkpt lat="45.80567" lon="1.18335">
        <ele>230.9</ele>
        <time>2024-09-25T12:30:48Z</time>
      </trkpt>
      <trkpt lat="45.80569" lon="1.1834">
        <ele>230.9</ele>
        <time>2024-09-25T12:30:50Z</time>
      </trkpt>
      <trkpt lat="45.80571" lon="1.18344">
        <ele>230.9</ele>
        <time>2024-09-25T12:30:51Z</time>
      </trkpt>
      <trkpt lat="45.80572" lon="1.18349">
        <ele>230.9</ele>
        <time>2024-09-25T12:30:52Z</time>
      </trkpt>
      <trkpt lat="45.80572" lon="1.18354">
        <ele>230.9</ele>
        <time>2024-09-25T12:30:53Z</time>
      </trkpt>
      <trkpt lat="45.80573" lon="1.18359">
        <ele>230.9</ele>
        <time>2024-09-25T12:30:54Z</time>
      </trkpt>
      <trkpt lat="45.80573" lon="1.18364">
        <ele>230.8</ele>
        <time>2024-09-25T12:30:55Z</time>
      </trkpt>
      <trkpt lat="45.80573" lon="1.18369">
        <ele>230.8</ele>
        <time>2024-09-25T12:30:56Z</time>
      </trkpt>
      <trkpt lat="45.80573" lon="1.18373">
        <ele>230.8</ele>
        <time>2024-09-25T12:30:57Z</time>
      </trkpt>
      <trkpt lat="45.80572" lon="1.18378">
        <ele>230.8</ele>
        <time>2024-09-25T12:30:58Z</time>
      </trkpt>
      <trkpt lat="45.80572" lon="1.18383">
        <ele>230.8</ele>
        <time>2024-09-25T12:31:00Z</time>
      </trkpt>
      <trkpt lat="45.80572" lon="1.18388">
        <ele>230.8</ele>
        <time>2024-09-25T12:31:01Z</time>
      </trkpt>
      <trkpt lat="45.80573" lon="1.18392">
        <ele>230.8</ele>
        <time>2024-09-25T12:31:02Z</time>
      </trkpt>
      <trkpt lat="45.80573" lon="1.18396">
        <ele>230.8</ele>
        <time>2024-09-25T12:31:04Z</time>
      </trkpt>
      <trkpt lat="45.80574" lon="1.184">
        <ele>230.8</ele>
        <time>2024-09-25T12:31:13Z</time>
      </trkpt>
      <trkpt lat="45.80576" lon="1.18404">
        <ele>230.9</ele>
        <time>2024-09-25T12:31:23Z</time>
      </trkpt>
      <trkpt lat="45.80578" lon="1.18407">
        <ele>230.9</ele>
        <time>2024-09-25T12:31:26Z</time>
      </trkpt>
      <trkpt lat="45.8058" lon="1.1841">
        <ele>231</ele>
        <time>2024-09-25T12:31:28Z</time>
      </trkpt>
      <trkpt lat="45.80581" lon="1.18414">
        <ele>231</ele>
        <time>2024-09-25T12:31:29Z</time>
      </trkpt>
      <trkpt lat="45.80583" lon="1.1842">
        <ele>231</ele>
        <time>2024-09-25T12:31:31Z</time>
      </trkpt>
      <trkpt lat="45.80584" lon="1.18427">
        <ele>231.2</ele>
        <time>2024-09-25T12:31:33Z</time>
      </trkpt>
      <trkpt lat="45.80584" lon="1.18434">
        <ele>231.4</ele>
        <time>2024-09-25T12:31:35Z</time>
      </trkpt>
      <trkpt lat="45.80584" lon="1.1844">
        <ele>231.7</ele>
        <time>2024-09-25T12:31:36Z</time>
      </trkpt>
      <trkpt lat="45.80584" lon="1.18445">
        <ele>231.9</ele>
        <time>2024-09-25T12:31:37Z</time>
      </trkpt>
      <trkpt lat="45.80583" lon="1.1845">
        <ele>232.1</ele>
        <time>2024-09-25T12:31:38Z</time>
      </trkpt>
      <trkpt lat="45.80583" lon="1.18456">
        <ele>232.5</ele>
        <time>2024-09-25T12:31:39Z</time>
      </trkpt>
      <trkpt lat="45.80583" lon="1.18461">
        <ele>232.8</ele>
        <time>2024-09-25T12:31:40Z</time>
      </trkpt>
      <trkpt lat="45.80584" lon="1.18466">
        <ele>233.3</ele>
        <time>2024-09-25T12:31:42Z</time>
      </trkpt>
      <trkpt lat="45.80586" lon="1.18469">
        <ele>234</ele>
        <time>2024-09-25T12:31:44Z</time>
      </trkpt>
      <trkpt lat="45.80588" lon="1.18468">
        <ele>234.4</ele>
        <time>2024-09-25T12:31:46Z</time>
      </trkpt>
      <trkpt lat="45.80591" lon="1.18467">
        <ele>235.1</ele>
        <time>2024-09-25T12:31:49Z</time>
      </trkpt>
      <trkpt lat="45.80594" lon="1.18466">
        <ele>235.7</ele>
        <time>2024-09-25T12:31:52Z</time>
      </trkpt>
      <trkpt lat="45.80596" lon="1.18465">
        <ele>236.1</ele>
        <time>2024-09-25T12:31:54Z</time>
      </trkpt>
      <trkpt lat="45.806" lon="1.18463">
        <ele>236.9</ele>
        <time>2024-09-25T12:31:57Z</time>
      </trkpt>
      <trkpt lat="45.80604" lon="1.18461">
        <ele>237.6</ele>
        <time>2024-09-25T12:31:59Z</time>
      </trkpt>
      <trkpt lat="45.80608" lon="1.18458">
        <ele>238.3</ele>
        <time>2024-09-25T12:32:01Z</time>
      </trkpt>
      <trkpt lat="45.80611" lon="1.18456">
        <ele>238.8</ele>
        <time>2024-09-25T12:32:02Z</time>
      </trkpt>
      <trkpt lat="45.80614" lon="1.18454">
        <ele>239.2</ele>
        <time>2024-09-25T12:32:03Z</time>
      </trkpt>
      <trkpt lat="45.80617" lon="1.18452">
        <ele>239.7</ele>
        <time>2024-09-25T12:32:04Z</time>
      </trkpt>
      <trkpt lat="45.8062" lon="1.18451">
        <ele>240.2</ele>
        <time>2024-09-25T12:32:05Z</time>
      </trkpt>
      <trkpt lat="45.80622" lon="1.18449">
        <ele>240.5</ele>
        <time>2024-09-25T12:32:06Z</time>
      </trkpt>
      <trkpt lat="45.80627" lon="1.18448">
        <ele>241.3</ele>
        <time>2024-09-25T12:32:08Z</time>
      </trkpt>
      <trkpt lat="45.8063" lon="1.18447">
        <ele>241.8</ele>
        <time>2024-09-25T12:32:10Z</time>
      </trkpt>
      <trkpt lat="45.80634" lon="1.18446">
        <ele>242.4</ele>
        <time>2024-09-25T12:32:12Z</time>
      </trkpt>
      <trkpt lat="45.80638" lon="1.18444">
        <ele>243</ele>
        <time>2024-09-25T12:32:14Z</time>
      </trkpt>
      <trkpt lat="45.80643" lon="1.18444">
        <ele>243.7</ele>
        <time>2024-09-25T12:32:16Z</time>
      </trkpt>
      <trkpt lat="45.80647" lon="1.18443">
        <ele>244.2</ele>
        <time>2024-09-25T12:32:18Z</time>
      </trkpt>
      <trkpt lat="45.8065" lon="1.18442">
        <ele>244.6</ele>
        <time>2024-09-25T12:32:20Z</time>
      </trkpt>
      <trkpt lat="45.80654" lon="1.18439">
        <ele>245.1</ele>
        <time>2024-09-25T12:32:22Z</time>
      </trkpt>
      <trkpt lat="45.80657" lon="1.18435">
        <ele>245.5</ele>
        <time>2024-09-25T12:32:24Z</time>
      </trkpt>
      <trkpt lat="45.80661" lon="1.18431">
        <ele>246</ele>
        <time>2024-09-25T12:32:26Z</time>
      </trkpt>
      <trkpt lat="45.80664" lon="1.18427">
        <ele>246.5</ele>
        <time>2024-09-25T12:32:28Z</time>
      </trkpt>
      <trkpt lat="45.80667" lon="1.18423">
        <ele>246.9</ele>
        <time>2024-09-25T12:32:29Z</time>
      </trkpt>
      <trkpt lat="45.8067" lon="1.18418">
        <ele>247.4</ele>
        <time>2024-09-25T12:32:31Z</time>
      </trkpt>
      <trkpt lat="45.80673" lon="1.18413">
        <ele>247.9</ele>
        <time>2024-09-25T12:32:33Z</time>
      </trkpt>
      <trkpt lat="45.80677" lon="1.18408">
        <ele>248.6</ele>
        <time>2024-09-25T12:32:35Z</time>
      </trkpt>
      <trkpt lat="45.80679" lon="1.18405">
        <ele>249</ele>
        <time>2024-09-25T12:32:36Z</time>
      </trkpt>
      <trkpt lat="45.80683" lon="1.18401">
        <ele>249.7</ele>
        <time>2024-09-25T12:32:38Z</time>
      </trkpt>
      <trkpt lat="45.80686" lon="1.18398">
        <ele>250.3</ele>
        <time>2024-09-25T12:32:40Z</time>
      </trkpt>
      <trkpt lat="45.80689" lon="1.18395">
        <ele>250.9</ele>
        <time>2024-09-25T12:32:42Z</time>
      </trkpt>
      <trkpt lat="45.80692" lon="1.18394">
        <ele>251.3</ele>
        <time>2024-09-25T12:32:43Z</time>
      </trkpt>
      <trkpt lat="45.80696" lon="1.18392">
        <ele>251.9</ele>
        <time>2024-09-25T12:32:45Z</time>
      </trkpt>
      <trkpt lat="45.80699" lon="1.18392">
        <ele>252.3</ele>
        <time>2024-09-25T12:32:46Z</time>
      </trkpt>
      <trkpt lat="45.80702" lon="1.1839">
        <ele>252.7</ele>
        <time>2024-09-25T12:32:48Z</time>
      </trkpt>
      <trkpt lat="45.80706" lon="1.18389">
        <ele>253.2</ele>
        <time>2024-09-25T12:32:50Z</time>
      </trkpt>
      <trkpt lat="45.80709" lon="1.18388">
        <ele>253.5</ele>
        <time>2024-09-25T12:32:51Z</time>
      </trkpt>
      <trkpt lat="45.80712" lon="1.18387">
        <ele>253.8</ele>
        <time>2024-09-25T12:32:52Z</time>
      </trkpt>
      <trkpt lat="45.80714" lon="1.18386">
        <ele>254</ele>
        <time>2024-09-25T12:32:53Z</time>
      </trkpt>
      <trkpt lat="45.80718" lon="1.18385">
        <ele>254.3</ele>
        <time>2024-09-25T12:32:55Z</time>
      </trkpt>
      <trkpt lat="45.80722" lon="1.18383">
        <ele>254.7</ele>
        <time>2024-09-25T12:32:57Z</time>
      </trkpt>
      <trkpt lat="45.80726" lon="1.18383">
        <ele>254.9</ele>
        <time>2024-09-25T12:32:59Z</time>
      </trkpt>
      <trkpt lat="45.80731" lon="1.18383">
        <ele>255.2</ele>
        <time>2024-09-25T12:33:01Z</time>
      </trkpt>
      <trkpt lat="45.80735" lon="1.18384">
        <ele>255.3</ele>
        <time>2024-09-25T12:33:02Z</time>
      </trkpt>
      <trkpt lat="45.8074" lon="1.18385">
        <ele>255.5</ele>
        <time>2024-09-25T12:33:04Z</time>
      </trkpt>
      <trkpt lat="45.80744" lon="1.18385">
        <ele>255.7</ele>
        <time>2024-09-25T12:33:05Z</time>
      </trkpt>
      <trkpt lat="45.80747" lon="1.18386">
        <ele>255.8</ele>
        <time>2024-09-25T12:33:06Z</time>
      </trkpt>
      <trkpt lat="45.80751" lon="1.18386">
        <ele>255.9</ele>
        <time>2024-09-25T12:33:07Z</time>
      </trkpt>
      <trkpt lat="45.80755" lon="1.18386">
        <ele>256</ele>
        <time>2024-09-25T12:33:08Z</time>
      </trkpt>
      <trkpt lat="45.80758" lon="1.18386">
        <ele>256.1</ele>
        <time>2024-09-25T12:33:09Z</time>
      </trkpt>
      <trkpt lat="45.80762" lon="1.18386">
        <ele>256.3</ele>
        <time>2024-09-25T12:33:10Z</time>
      </trkpt>
      <trkpt lat="45.80765" lon="1.18387">
        <ele>256.4</ele>
        <time>2024-09-25T12:33:11Z</time>
      </trkpt>
      <trkpt lat="45.80768" lon="1.18387">
        <ele>256.5</ele>
        <time>2024-09-25T12:33:12Z</time>
      </trkpt>
      <trkpt lat="45.80771" lon="1.18388">
        <ele>256.6</ele>
        <time>2024-09-25T12:33:13Z</time>
      </trkpt>
      <trkpt lat="45.80775" lon="1.18388">
        <ele>256.7</ele>
        <time>2024-09-25T12:33:14Z</time>
      </trkpt>
      <trkpt lat="45.80778" lon="1.18388">
        <ele>256.9</ele>
        <time>2024-09-25T12:33:15Z</time>
      </trkpt>
      <trkpt lat="45.80781" lon="1.18388">
        <ele>257</ele>
        <time>2024-09-25T12:33:16Z</time>
      </trkpt>
      <trkpt lat="45.80784" lon="1.18388">
        <ele>257.2</ele>
        <time>2024-09-25T12:33:17Z</time>
      </trkpt>
      <trkpt lat="45.80787" lon="1.18387">
        <ele>257.3</ele>
        <time>2024-09-25T12:33:18Z</time>
      </trkpt>
      <trkpt lat="45.80791" lon="1.18387">
        <ele>257.5</ele>
        <time>2024-09-25T12:33:19Z</time>
      </trkpt>
      <trkpt lat="45.80794" lon="1.18386">
        <ele>257.7</ele>
        <time>2024-09-25T12:33:20Z</time>
      </trkpt>
      <trkpt lat="45.80798" lon="1.18385">
        <ele>258</ele>
        <time>2024-09-25T12:33:22Z</time>
      </trkpt>
      <trkpt lat="45.80803" lon="1.18384">
        <ele>258.3</ele>
        <time>2024-09-25T12:33:24Z</time>
      </trkpt>
      <trkpt lat="45.80806" lon="1.18383">
        <ele>258.5</ele>
        <time>2024-09-25T12:33:25Z</time>
      </trkpt>
      <trkpt lat="45.8081" lon="1.18383">
        <ele>258.8</ele>
        <time>2024-09-25T12:33:26Z</time>
      </trkpt>
      <trkpt lat="45.80814" lon="1.18383">
        <ele>259</ele>
        <time>2024-09-25T12:33:28Z</time>
      </trkpt>
      <trkpt lat="45.80819" lon="1.18382">
        <ele>259.4</ele>
        <time>2024-09-25T12:33:30Z</time>
      </trkpt>
      <trkpt lat="45.80823" lon="1.18382">
        <ele>259.6</ele>
        <time>2024-09-25T12:33:32Z</time>
      </trkpt>
      <trkpt lat="45.80827" lon="1.18382">
        <ele>259.9</ele>
        <time>2024-09-25T12:33:34Z</time>
      </trkpt>
      <trkpt lat="45.80831" lon="1.18381">
        <ele>260.1</ele>
        <time>2024-09-25T12:33:36Z</time>
      </trkpt>
      <trkpt lat="45.80835" lon="1.1838">
        <ele>260.4</ele>
        <time>2024-09-25T12:33:37Z</time>
      </trkpt>
      <trkpt lat="45.80838" lon="1.1838">
        <ele>260.5</ele>
        <time>2024-09-25T12:33:38Z</time>
      </trkpt>
      <trkpt lat="45.80842" lon="1.1838">
        <ele>260.7</ele>
        <time>2024-09-25T12:33:40Z</time>
      </trkpt>
      <trkpt lat="45.80846" lon="1.1838">
        <ele>260.9</ele>
        <time>2024-09-25T12:33:41Z</time>
      </trkpt>
      <trkpt lat="45.80849" lon="1.18379">
        <ele>261</ele>
        <time>2024-09-25T12:33:43Z</time>
      </trkpt>
      <trkpt lat="45.80854" lon="1.18379">
        <ele>261.3</ele>
        <time>2024-09-25T12:33:45Z</time>
      </trkpt>
      <trkpt lat="45.80859" lon="1.18377">
        <ele>261.5</ele>
        <time>2024-09-25T12:33:47Z</time>
      </trkpt>
      <trkpt lat="45.80862" lon="1.18375">
        <ele>261.7</ele>
        <time>2024-09-25T12:33:55Z</time>
      </trkpt>
      <trkpt lat="45.80865" lon="1.18374">
        <ele>261.7</ele>
        <time>2024-09-25T12:33:57Z</time>
      </trkpt>
      <trkpt lat="45.80869" lon="1.18374">
        <ele>261.5</ele>
        <time>2024-09-25T12:33:59Z</time>
      </trkpt>
      <trkpt lat="45.80872" lon="1.18376">
        <ele>261.2</ele>
        <time>2024-09-25T12:34:01Z</time>
      </trkpt>
      <trkpt lat="45.80876" lon="1.1838">
        <ele>260.8</ele>
        <time>2024-09-25T12:34:03Z</time>
      </trkpt>
      <trkpt lat="45.80879" lon="1.18385">
        <ele>260.3</ele>
        <time>2024-09-25T12:34:04Z</time>
      </trkpt>
      <trkpt lat="45.80882" lon="1.18391">
        <ele>259.7</ele>
        <time>2024-09-25T12:34:05Z</time>
      </trkpt>
      <trkpt lat="45.80885" lon="1.18397">
        <ele>259.1</ele>
        <time>2024-09-25T12:34:06Z</time>
      </trkpt>
      <trkpt lat="45.80888" lon="1.18403">
        <ele>258.6</ele>
        <time>2024-09-25T12:34:07Z</time>
      </trkpt>
      <trkpt lat="45.80891" lon="1.18408">
        <ele>258.1</ele>
        <time>2024-09-25T12:34:08Z</time>
      </trkpt>
      <trkpt lat="45.80896" lon="1.18415">
        <ele>257.5</ele>
        <time>2024-09-25T12:34:09Z</time>
      </trkpt>
      <trkpt lat="45.809" lon="1.18422">
        <ele>257</ele>
        <time>2024-09-25T12:34:10Z</time>
      </trkpt>
      <trkpt lat="45.80905" lon="1.18429">
        <ele>256.5</ele>
        <time>2024-09-25T12:34:11Z</time>
      </trkpt>
      <trkpt lat="45.8091" lon="1.18434">
        <ele>256.1</ele>
        <time>2024-09-25T12:34:12Z</time>
      </trkpt>
      <trkpt lat="45.80916" lon="1.18437">
        <ele>255.6</ele>
        <time>2024-09-25T12:34:14Z</time>
      </trkpt>
      <trkpt lat="45.8092" lon="1.18439">
        <ele>255.3</ele>
        <time>2024-09-25T12:34:15Z</time>
      </trkpt>
      <trkpt lat="45.80924" lon="1.18439">
        <ele>255</ele>
        <time>2024-09-25T12:34:16Z</time>
      </trkpt>
      <trkpt lat="45.80928" lon="1.1844">
        <ele>254.8</ele>
        <time>2024-09-25T12:34:17Z</time>
      </trkpt>
      <trkpt lat="45.80932" lon="1.18441">
        <ele>254.5</ele>
        <time>2024-09-25T12:34:19Z</time>
      </trkpt>
      <trkpt lat="45.80935" lon="1.18443">
        <ele>254.4</ele>
        <time>2024-09-25T12:34:20Z</time>
      </trkpt>
      <trkpt lat="45.80938" lon="1.18445">
        <ele>254.2</ele>
        <time>2024-09-25T12:34:21Z</time>
      </trkpt>
      <trkpt lat="45.80941" lon="1.18446">
        <ele>254</ele>
        <time>2024-09-25T12:34:27Z</time>
      </trkpt>
      <trkpt lat="45.80943" lon="1.18449">
        <ele>253.9</ele>
        <time>2024-09-25T12:34:35Z</time>
      </trkpt>
      <trkpt lat="45.80945" lon="1.18453">
        <ele>253.8</ele>
        <time>2024-09-25T12:34:36Z</time>
      </trkpt>
      <trkpt lat="45.80946" lon="1.18457">
        <ele>253.7</ele>
        <time>2024-09-25T12:34:37Z</time>
      </trkpt>
      <trkpt lat="45.80947" lon="1.18461">
        <ele>253.7</ele>
        <time>2024-09-25T12:34:38Z</time>
      </trkpt>
      <trkpt lat="45.80948" lon="1.18466">
        <ele>253.7</ele>
        <time>2024-09-25T12:34:39Z</time>
      </trkpt>
      <trkpt lat="45.80949" lon="1.18471">
        <ele>253.7</ele>
        <time>2024-09-25T12:34:40Z</time>
      </trkpt>
      <trkpt lat="45.8095" lon="1.18476">
        <ele>253.7</ele>
        <time>2024-09-25T12:34:41Z</time>
      </trkpt>
      <trkpt lat="45.80951" lon="1.18482">
        <ele>253.8</ele>
        <time>2024-09-25T12:34:42Z</time>
      </trkpt>
      <trkpt lat="45.80952" lon="1.18487">
        <ele>253.9</ele>
        <time>2024-09-25T12:34:43Z</time>
      </trkpt>
      <trkpt lat="45.80953" lon="1.18492">
        <ele>254.1</ele>
        <time>2024-09-25T12:34:44Z</time>
      </trkpt>
      <trkpt lat="45.80955" lon="1.18496">
        <ele>254.3</ele>
        <time>2024-09-25T12:34:45Z</time>
      </trkpt>
      <trkpt lat="45.80956" lon="1.185">
        <ele>254.5</ele>
        <time>2024-09-25T12:34:46Z</time>
      </trkpt>
      <trkpt lat="45.80957" lon="1.18504">
        <ele>254.7</ele>
        <time>2024-09-25T12:34:47Z</time>
      </trkpt>
      <trkpt lat="45.80958" lon="1.18508">
        <ele>254.9</ele>
        <time>2024-09-25T12:34:48Z</time>
      </trkpt>
      <trkpt lat="45.80959" lon="1.18513">
        <ele>255.2</ele>
        <time>2024-09-25T12:34:49Z</time>
      </trkpt>
      <trkpt lat="45.8096" lon="1.18517">
        <ele>255.5</ele>
        <time>2024-09-25T12:34:50Z</time>
      </trkpt>
      <trkpt lat="45.80961" lon="1.18521">
        <ele>255.8</ele>
        <time>2024-09-25T12:34:51Z</time>
      </trkpt>
      <trkpt lat="45.80963" lon="1.18527">
        <ele>256.4</ele>
        <time>2024-09-25T12:34:53Z</time>
      </trkpt>
      <trkpt lat="45.80964" lon="1.18534">
        <ele>257.1</ele>
        <time>2024-09-25T12:34:55Z</time>
      </trkpt>
      <trkpt lat="45.80967" lon="1.1854">
        <ele>257.8</ele>
        <time>2024-09-25T12:34:57Z</time>
      </trkpt>
      <trkpt lat="45.80969" lon="1.18546">
        <ele>258.5</ele>
        <time>2024-09-25T12:34:59Z</time>
      </trkpt>
      <trkpt lat="45.80971" lon="1.18551">
        <ele>259</ele>
        <time>2024-09-25T12:35:01Z</time>
      </trkpt>
      <trkpt lat="45.80974" lon="1.18557">
        <ele>259.7</ele>
        <time>2024-09-25T12:35:03Z</time>
      </trkpt>
      <trkpt lat="45.80976" lon="1.18563">
        <ele>260.4</ele>
        <time>2024-09-25T12:35:05Z</time>
      </trkpt>
      <trkpt lat="45.80977" lon="1.18568">
        <ele>260.8</ele>
        <time>2024-09-25T12:35:06Z</time>
      </trkpt>
      <trkpt lat="45.80978" lon="1.18572">
        <ele>260.9</ele>
        <time>2024-09-25T12:35:07Z</time>
      </trkpt>
      <trkpt lat="45.8098" lon="1.18577">
        <ele>260.7</ele>
        <time>2024-09-25T12:35:08Z</time>
      </trkpt>
      <trkpt lat="45.80981" lon="1.18582">
        <ele>260.5</ele>
        <time>2024-09-25T12:35:09Z</time>
      </trkpt>
      <trkpt lat="45.80983" lon="1.18587">
        <ele>260.2</ele>
        <time>2024-09-25T12:35:10Z</time>
      </trkpt>
      <trkpt lat="45.80985" lon="1.18593">
        <ele>259.9</ele>
        <time>2024-09-25T12:35:11Z</time>
      </trkpt>
      <trkpt lat="45.80988" lon="1.18598">
        <ele>259.7</ele>
        <time>2024-09-25T12:35:12Z</time>
      </trkpt>
      <trkpt lat="45.80991" lon="1.18604">
        <ele>259.4</ele>
        <time>2024-09-25T12:35:13Z</time>
      </trkpt>
      <trkpt lat="45.80995" lon="1.18611">
        <ele>259.1</ele>
        <time>2024-09-25T12:35:14Z</time>
      </trkpt>
      <trkpt lat="45.80998" lon="1.18617">
        <ele>258.8</ele>
        <time>2024-09-25T12:35:15Z</time>
      </trkpt>
      <trkpt lat="45.81001" lon="1.18623">
        <ele>258.5</ele>
        <time>2024-09-25T12:35:16Z</time>
      </trkpt>
      <trkpt lat="45.81005" lon="1.18629">
        <ele>258.3</ele>
        <time>2024-09-25T12:35:17Z</time>
      </trkpt>
      <trkpt lat="45.81008" lon="1.18634">
        <ele>258</ele>
        <time>2024-09-25T12:35:18Z</time>
      </trkpt>
      <trkpt lat="45.81012" lon="1.1864">
        <ele>257.8</ele>
        <time>2024-09-25T12:35:19Z</time>
      </trkpt>
      <trkpt lat="45.81016" lon="1.18647">
        <ele>257.5</ele>
        <time>2024-09-25T12:35:20Z</time>
      </trkpt>
      <trkpt lat="45.8102" lon="1.18654">
        <ele>257.2</ele>
        <time>2024-09-25T12:35:21Z</time>
      </trkpt>
      <trkpt lat="45.81024" lon="1.18661">
        <ele>256.9</ele>
        <time>2024-09-25T12:35:22Z</time>
      </trkpt>
      <trkpt lat="45.81029" lon="1.18668">
        <ele>256.6</ele>
        <time>2024-09-25T12:35:23Z</time>
      </trkpt>
      <trkpt lat="45.81034" lon="1.18675">
        <ele>256.2</ele>
        <time>2024-09-25T12:35:24Z</time>
      </trkpt>
      <trkpt lat="45.81039" lon="1.18682">
        <ele>255.8</ele>
        <time>2024-09-25T12:35:25Z</time>
      </trkpt>
      <trkpt lat="45.81044" lon="1.18689">
        <ele>255.3</ele>
        <time>2024-09-25T12:35:26Z</time>
      </trkpt>
      <trkpt lat="45.81049" lon="1.18696">
        <ele>254.9</ele>
        <time>2024-09-25T12:35:27Z</time>
      </trkpt>
      <trkpt lat="45.81054" lon="1.18703">
        <ele>254.4</ele>
        <time>2024-09-25T12:35:28Z</time>
      </trkpt>
      <trkpt lat="45.8106" lon="1.1871">
        <ele>253.9</ele>
        <time>2024-09-25T12:35:29Z</time>
      </trkpt>
      <trkpt lat="45.81066" lon="1.18717">
        <ele>253.3</ele>
        <time>2024-09-25T12:35:30Z</time>
      </trkpt>
      <trkpt lat="45.81072" lon="1.18724">
        <ele>252.7</ele>
        <time>2024-09-25T12:35:31Z</time>
      </trkpt>
      <trkpt lat="45.81079" lon="1.1873">
        <ele>252.1</ele>
        <time>2024-09-25T12:35:32Z</time>
      </trkpt>
      <trkpt lat="45.81085" lon="1.18737">
        <ele>251.6</ele>
        <time>2024-09-25T12:35:33Z</time>
      </trkpt>
      <trkpt lat="45.81092" lon="1.18743">
        <ele>251</ele>
        <time>2024-09-25T12:35:34Z</time>
      </trkpt>
      <trkpt lat="45.81099" lon="1.1875">
        <ele>250.4</ele>
        <time>2024-09-25T12:35:35Z</time>
      </trkpt>
      <trkpt lat="45.81106" lon="1.18758">
        <ele>249.8</ele>
        <time>2024-09-25T12:35:36Z</time>
      </trkpt>
      <trkpt lat="45.81114" lon="1.18766">
        <ele>249.1</ele>
        <time>2024-09-25T12:35:37Z</time>
      </trkpt>
      <trkpt lat="45.81121" lon="1.18773">
        <ele>248.6</ele>
        <time>2024-09-25T12:35:38Z</time>
      </trkpt>
      <trkpt lat="45.81127" lon="1.18779">
        <ele>248.1</ele>
        <time>2024-09-25T12:35:39Z</time>
      </trkpt>
      <trkpt lat="45.81133" lon="1.18785">
        <ele>247.7</ele>
        <time>2024-09-25T12:35:40Z</time>
      </trkpt>
      <trkpt lat="45.81139" lon="1.18792">
        <ele>247.1</ele>
        <time>2024-09-25T12:35:41Z</time>
      </trkpt>
      <trkpt lat="45.81145" lon="1.18798">
        <ele>246.6</ele>
        <time>2024-09-25T12:35:42Z</time>
      </trkpt>
      <trkpt lat="45.8115" lon="1.18803">
        <ele>246.1</ele>
        <time>2024-09-25T12:35:43Z</time>
      </trkpt>
      <trkpt lat="45.81155" lon="1.18809">
        <ele>245.6</ele>
        <time>2024-09-25T12:35:44Z</time>
      </trkpt>
      <trkpt lat="45.81159" lon="1.18817">
        <ele>245</ele>
        <time>2024-09-25T12:35:45Z</time>
      </trkpt>
      <trkpt lat="45.81163" lon="1.18825">
        <ele>244.3</ele>
        <time>2024-09-25T12:35:46Z</time>
      </trkpt>
      <trkpt lat="45.81165" lon="1.18834">
        <ele>243.6</ele>
        <time>2024-09-25T12:35:47Z</time>
      </trkpt>
      <trkpt lat="45.81166" lon="1.18844">
        <ele>242.8</ele>
        <time>2024-09-25T12:35:48Z</time>
      </trkpt>
      <trkpt lat="45.81166" lon="1.18852">
        <ele>242.1</ele>
        <time>2024-09-25T12:35:49Z</time>
      </trkpt>
      <trkpt lat="45.81166" lon="1.18859">
        <ele>241.5</ele>
        <time>2024-09-25T12:35:50Z</time>
      </trkpt>
      <trkpt lat="45.81165" lon="1.18865">
        <ele>241</ele>
        <time>2024-09-25T12:35:51Z</time>
      </trkpt>
      <trkpt lat="45.81164" lon="1.18869">
        <ele>240.7</ele>
        <time>2024-09-25T12:35:52Z</time>
      </trkpt>
      <trkpt lat="45.81163" lon="1.18875">
        <ele>239.7</ele>
        <time>2024-09-25T12:35:54Z</time>
      </trkpt>
      <trkpt lat="45.81165" lon="1.18877">
        <ele>239.7</ele>
        <time>2024-09-25T12:35:57Z</time>
      </trkpt>
      <trkpt lat="45.81168" lon="1.18876">
        <ele>239.5</ele>
        <time>2024-09-25T12:35:58Z</time>
      </trkpt>
      <trkpt lat="45.8117" lon="1.18874">
        <ele>239.3</ele>
        <time>2024-09-25T12:35:59Z</time>
      </trkpt>
      <trkpt lat="45.81174" lon="1.18871">
        <ele>239</ele>
        <time>2024-09-25T12:36:00Z</time>
      </trkpt>
      <trkpt lat="45.81177" lon="1.18868">
        <ele>238.8</ele>
        <time>2024-09-25T12:36:01Z</time>
      </trkpt>
      <trkpt lat="45.81181" lon="1.18864">
        <ele>238.6</ele>
        <time>2024-09-25T12:36:02Z</time>
      </trkpt>
      <trkpt lat="45.81186" lon="1.1886">
        <ele>238.5</ele>
        <time>2024-09-25T12:36:03Z</time>
      </trkpt>
      <trkpt lat="45.8119" lon="1.18856">
        <ele>238.4</ele>
        <time>2024-09-25T12:36:04Z</time>
      </trkpt>
      <trkpt lat="45.81195" lon="1.18853">
        <ele>238.3</ele>
        <time>2024-09-25T12:36:05Z</time>
      </trkpt>
      <trkpt lat="45.81198" lon="1.18852">
        <ele>238.2</ele>
        <time>2024-09-25T12:36:06Z</time>
      </trkpt>
      <trkpt lat="45.81202" lon="1.18851">
        <ele>238.1</ele>
        <time>2024-09-25T12:36:08Z</time>
      </trkpt>
      <trkpt lat="45.81206" lon="1.18851">
        <ele>238</ele>
        <time>2024-09-25T12:36:09Z</time>
      </trkpt>
      <trkpt lat="45.81208" lon="1.18851">
        <ele>238</ele>
        <time>2024-09-25T12:36:10Z</time>
      </trkpt>
      <trkpt lat="45.81212" lon="1.1885">
        <ele>237.9</ele>
        <time>2024-09-25T12:36:12Z</time>
      </trkpt>
      <trkpt lat="45.81217" lon="1.1885">
        <ele>237.9</ele>
        <time>2024-09-25T12:36:14Z</time>
      </trkpt>
      <trkpt lat="45.81221" lon="1.18851">
        <ele>237.9</ele>
        <time>2024-09-25T12:36:15Z</time>
      </trkpt>
      <trkpt lat="45.81224" lon="1.18852">
        <ele>237.9</ele>
        <time>2024-09-25T12:36:16Z</time>
      </trkpt>
      <trkpt lat="45.81227" lon="1.18854">
        <ele>238</ele>
        <time>2024-09-25T12:36:17Z</time>
      </trkpt>
      <trkpt lat="45.8123" lon="1.18856">
        <ele>238.1</ele>
        <time>2024-09-25T12:36:18Z</time>
      </trkpt>
      <trkpt lat="45.81234" lon="1.1886">
        <ele>238.2</ele>
        <time>2024-09-25T12:36:20Z</time>
      </trkpt>
      <trkpt lat="45.81237" lon="1.18864">
        <ele>238.4</ele>
        <time>2024-09-25T12:36:21Z</time>
      </trkpt>
      <trkpt lat="45.81241" lon="1.18867">
        <ele>238.6</ele>
        <time>2024-09-25T12:36:22Z</time>
      </trkpt>
      <trkpt lat="45.81244" lon="1.18869">
        <ele>238.7</ele>
        <time>2024-09-25T12:36:23Z</time>
      </trkpt>
      <trkpt lat="45.81248" lon="1.18872">
        <ele>238.9</ele>
        <time>2024-09-25T12:36:24Z</time>
      </trkpt>
      <trkpt lat="45.81251" lon="1.18874">
        <ele>239.1</ele>
        <time>2024-09-25T12:36:25Z</time>
      </trkpt>
      <trkpt lat="45.81254" lon="1.18876">
        <ele>239.3</ele>
        <time>2024-09-25T12:36:26Z</time>
      </trkpt>
      <trkpt lat="45.81257" lon="1.18878">
        <ele>239.5</ele>
        <time>2024-09-25T12:36:27Z</time>
      </trkpt>
      <trkpt lat="45.81261" lon="1.18879">
        <ele>239.8</ele>
        <time>2024-09-25T12:36:28Z</time>
      </trkpt>
      <trkpt lat="45.81264" lon="1.18879">
        <ele>240.1</ele>
        <time>2024-09-25T12:36:30Z</time>
      </trkpt>
      <trkpt lat="45.81268" lon="1.18879">
        <ele>240.5</ele>
        <time>2024-09-25T12:36:32Z</time>
      </trkpt>
      <trkpt lat="45.81272" lon="1.18878">
        <ele>240.9</ele>
        <time>2024-09-25T12:36:34Z</time>
      </trkpt>
      <trkpt lat="45.81275" lon="1.18877">
        <ele>241.2</ele>
        <time>2024-09-25T12:36:36Z</time>
      </trkpt>
      <trkpt lat="45.81279" lon="1.18875">
        <ele>241.7</ele>
        <time>2024-09-25T12:36:38Z</time>
      </trkpt>
      <trkpt lat="45.81283" lon="1.18873">
        <ele>242.2</ele>
        <time>2024-09-25T12:36:40Z</time>
      </trkpt>
      <trkpt lat="45.81287" lon="1.18872">
        <ele>242.7</ele>
        <time>2024-09-25T12:36:41Z</time>
      </trkpt>
      <trkpt lat="45.8129" lon="1.18871">
        <ele>243.1</ele>
        <time>2024-09-25T12:36:42Z</time>
      </trkpt>
      <trkpt lat="45.81293" lon="1.18871">
        <ele>243.4</ele>
        <time>2024-09-25T12:36:43Z</time>
      </trkpt>
      <trkpt lat="45.81296" lon="1.1887">
        <ele>243.8</ele>
        <time>2024-09-25T12:36:44Z</time>
      </trkpt>
      <trkpt lat="45.813" lon="1.18869">
        <ele>244.3</ele>
        <time>2024-09-25T12:36:46Z</time>
      </trkpt>
      <trkpt lat="45.81304" lon="1.18867">
        <ele>244.9</ele>
        <time>2024-09-25T12:36:50Z</time>
      </trkpt>
      <trkpt lat="45.81307" lon="1.18866">
        <ele>245.3</ele>
        <time>2024-09-25T12:36:55Z</time>
      </trkpt>
      <trkpt lat="45.81312" lon="1.18865">
        <ele>245.9</ele>
        <time>2024-09-25T12:36:57Z</time>
      </trkpt>
      <trkpt lat="45.81316" lon="1.18864">
        <ele>246.5</ele>
        <time>2024-09-25T12:36:58Z</time>
      </trkpt>
      <trkpt lat="45.8132" lon="1.18864">
        <ele>247.1</ele>
        <time>2024-09-25T12:36:59Z</time>
      </trkpt>
      <trkpt lat="45.81323" lon="1.18863">
        <ele>247.6</ele>
        <time>2024-09-25T12:37:00Z</time>
      </trkpt>
      <trkpt lat="45.81326" lon="1.18863">
        <ele>248.1</ele>
        <time>2024-09-25T12:37:01Z</time>
      </trkpt>
      <trkpt lat="45.8133" lon="1.18862">
        <ele>248.9</ele>
        <time>2024-09-25T12:37:03Z</time>
      </trkpt>
      <trkpt lat="45.81333" lon="1.18859">
        <ele>249.8</ele>
        <time>2024-09-25T12:37:05Z</time>
      </trkpt>
      <trkpt lat="45.81334" lon="1.18855">
        <ele>250.5</ele>
        <time>2024-09-25T12:37:13Z</time>
      </trkpt>
      <trkpt lat="45.81338" lon="1.18854">
        <ele>251.7</ele>
        <time>2024-09-25T12:37:52Z</time>
      </trkpt>
      <trkpt lat="45.8134" lon="1.18852">
        <ele>252.4</ele>
        <time>2024-09-25T12:37:58Z</time>
      </trkpt>
      <trkpt lat="45.81343" lon="1.1885">
        <ele>253.4</ele>
        <time>2024-09-25T12:38:03Z</time>
      </trkpt>
      <trkpt lat="45.81346" lon="1.18848">
        <ele>254.4</ele>
        <time>2024-09-25T12:38:06Z</time>
      </trkpt>
      <trkpt lat="45.81349" lon="1.18847">
        <ele>255.3</ele>
        <time>2024-09-25T12:38:17Z</time>
      </trkpt>
      <trkpt lat="45.81352" lon="1.18846">
        <ele>256.2</ele>
        <time>2024-09-25T12:38:21Z</time>
      </trkpt>
      <trkpt lat="45.81355" lon="1.18845">
        <ele>257.1</ele>
        <time>2024-09-25T12:38:26Z</time>
      </trkpt>
      <trkpt lat="45.81359" lon="1.18842">
        <ele>258.2</ele>
        <time>2024-09-25T12:38:28Z</time>
      </trkpt>
      <trkpt lat="45.81362" lon="1.18841">
        <ele>258.9</ele>
        <time>2024-09-25T12:38:29Z</time>
      </trkpt>
      <trkpt lat="45.81365" lon="1.1884">
        <ele>259.5</ele>
        <time>2024-09-25T12:38:30Z</time>
      </trkpt>
      <trkpt lat="45.81368" lon="1.18839">
        <ele>260.1</ele>
        <time>2024-09-25T12:38:31Z</time>
      </trkpt>
      <trkpt lat="45.81371" lon="1.18839">
        <ele>260.6</ele>
        <time>2024-09-25T12:38:32Z</time>
      </trkpt>
      <trkpt lat="45.81374" lon="1.18839">
        <ele>261</ele>
        <time>2024-09-25T12:38:33Z</time>
      </trkpt>
      <trkpt lat="45.81378" lon="1.18839">
        <ele>261.5</ele>
        <time>2024-09-25T12:38:35Z</time>
      </trkpt>
      <trkpt lat="45.81383" lon="1.1884">
        <ele>262</ele>
        <time>2024-09-25T12:38:37Z</time>
      </trkpt>
      <trkpt lat="45.81386" lon="1.1884">
        <ele>262.3</ele>
        <time>2024-09-25T12:38:38Z</time>
      </trkpt>
      <trkpt lat="45.8139" lon="1.18841">
        <ele>262.5</ele>
        <time>2024-09-25T12:38:40Z</time>
      </trkpt>
      <trkpt lat="45.81395" lon="1.18842">
        <ele>262.7</ele>
        <time>2024-09-25T12:38:42Z</time>
      </trkpt>
      <trkpt lat="45.81398" lon="1.18842">
        <ele>262.9</ele>
        <time>2024-09-25T12:38:43Z</time>
      </trkpt>
      <trkpt lat="45.81403" lon="1.18842">
        <ele>263.1</ele>
        <time>2024-09-25T12:38:45Z</time>
      </trkpt>
      <trkpt lat="45.81408" lon="1.18843">
        <ele>263.3</ele>
        <time>2024-09-25T12:38:47Z</time>
      </trkpt>
      <trkpt lat="45.81413" lon="1.18844">
        <ele>263.5</ele>
        <time>2024-09-25T12:38:49Z</time>
      </trkpt>
      <trkpt lat="45.81417" lon="1.18846">
        <ele>263.6</ele>
        <time>2024-09-25T12:38:50Z</time>
      </trkpt>
      <trkpt lat="45.81421" lon="1.18847">
        <ele>263.8</ele>
        <time>2024-09-25T12:38:51Z</time>
      </trkpt>
      <trkpt lat="45.81424" lon="1.18849">
        <ele>263.9</ele>
        <time>2024-09-25T12:38:52Z</time>
      </trkpt>
      <trkpt lat="45.81428" lon="1.18851">
        <ele>264.1</ele>
        <time>2024-09-25T12:38:53Z</time>
      </trkpt>
      <trkpt lat="45.81431" lon="1.18853">
        <ele>264.2</ele>
        <time>2024-09-25T12:38:54Z</time>
      </trkpt>
      <trkpt lat="45.81434" lon="1.18855">
        <ele>264.4</ele>
        <time>2024-09-25T12:38:55Z</time>
      </trkpt>
      <trkpt lat="45.81437" lon="1.18857">
        <ele>264.5</ele>
        <time>2024-09-25T12:38:56Z</time>
      </trkpt>
      <trkpt lat="45.81441" lon="1.1886">
        <ele>264.8</ele>
        <time>2024-09-25T12:38:58Z</time>
      </trkpt>
      <trkpt lat="45.81444" lon="1.18863">
        <ele>265</ele>
        <time>2024-09-25T12:39:00Z</time>
      </trkpt>
      <trkpt lat="45.81446" lon="1.18866">
        <ele>265.2</ele>
        <time>2024-09-25T12:39:01Z</time>
      </trkpt>
      <trkpt lat="45.81449" lon="1.18869">
        <ele>265.5</ele>
        <time>2024-09-25T12:39:02Z</time>
      </trkpt>
      <trkpt lat="45.81451" lon="1.18873">
        <ele>265.7</ele>
        <time>2024-09-25T12:39:04Z</time>
      </trkpt>
      <trkpt lat="45.81454" lon="1.18876">
        <ele>266</ele>
        <time>2024-09-25T12:39:06Z</time>
      </trkpt>
      <trkpt lat="45.81457" lon="1.1888">
        <ele>266.4</ele>
        <time>2024-09-25T12:39:08Z</time>
      </trkpt>
      <trkpt lat="45.8146" lon="1.18885">
        <ele>266.9</ele>
        <time>2024-09-25T12:39:11Z</time>
      </trkpt>
      <trkpt lat="45.81463" lon="1.18889">
        <ele>267.3</ele>
        <time>2024-09-25T12:39:13Z</time>
      </trkpt>
      <trkpt lat="45.81467" lon="1.18894">
        <ele>267.9</ele>
        <time>2024-09-25T12:39:15Z</time>
      </trkpt>
      <trkpt lat="45.81471" lon="1.18896">
        <ele>268.5</ele>
        <time>2024-09-25T12:39:17Z</time>
      </trkpt>
      <trkpt lat="45.81474" lon="1.18896">
        <ele>268.8</ele>
        <time>2024-09-25T12:39:19Z</time>
      </trkpt>
      <trkpt lat="45.81478" lon="1.18893">
        <ele>269.4</ele>
        <time>2024-09-25T12:39:22Z</time>
      </trkpt>
      <trkpt lat="45.81482" lon="1.1889">
        <ele>270</ele>
        <time>2024-09-25T12:39:24Z</time>
      </trkpt>
      <trkpt lat="45.81485" lon="1.18888">
        <ele>270.4</ele>
        <time>2024-09-25T12:39:27Z</time>
      </trkpt>
      <trkpt lat="45.81488" lon="1.18885">
        <ele>270.9</ele>
        <time>2024-09-25T12:39:29Z</time>
      </trkpt>
      <trkpt lat="45.81491" lon="1.18882">
        <ele>271.3</ele>
        <time>2024-09-25T12:39:31Z</time>
      </trkpt>
      <trkpt lat="45.81495" lon="1.18878">
        <ele>271.9</ele>
        <time>2024-09-25T12:39:33Z</time>
      </trkpt>
      <trkpt lat="45.81498" lon="1.18876">
        <ele>272.3</ele>
        <time>2024-09-25T12:39:35Z</time>
      </trkpt>
      <trkpt lat="45.81502" lon="1.18874">
        <ele>272.8</ele>
        <time>2024-09-25T12:39:37Z</time>
      </trkpt>
      <trkpt lat="45.81506" lon="1.18872">
        <ele>273.2</ele>
        <time>2024-09-25T12:39:39Z</time>
      </trkpt>
      <trkpt lat="45.8151" lon="1.18871">
        <ele>273.7</ele>
        <time>2024-09-25T12:39:42Z</time>
      </trkpt>
      <trkpt lat="45.81514" lon="1.18872">
        <ele>274.1</ele>
        <time>2024-09-25T12:39:44Z</time>
      </trkpt>
      <trkpt lat="45.81517" lon="1.18872">
        <ele>274.4</ele>
        <time>2024-09-25T12:39:46Z</time>
      </trkpt>
      <trkpt lat="45.81522" lon="1.18873">
        <ele>274.9</ele>
        <time>2024-09-25T12:39:48Z</time>
      </trkpt>
      <trkpt lat="45.81525" lon="1.18875">
        <ele>275.2</ele>
        <time>2024-09-25T12:39:50Z</time>
      </trkpt>
      <trkpt lat="45.81528" lon="1.18877">
        <ele>275.3</ele>
        <time>2024-09-25T12:39:52Z</time>
      </trkpt>
      <trkpt lat="45.81531" lon="1.1888">
        <ele>275.5</ele>
        <time>2024-09-25T12:39:53Z</time>
      </trkpt>
      <trkpt lat="45.81533" lon="1.18882">
        <ele>275.6</ele>
        <time>2024-09-25T12:39:54Z</time>
      </trkpt>
      <trkpt lat="45.81536" lon="1.18887">
        <ele>275.7</ele>
        <time>2024-09-25T12:39:56Z</time>
      </trkpt>
      <trkpt lat="45.81539" lon="1.18891">
        <ele>275.8</ele>
        <time>2024-09-25T12:39:58Z</time>
      </trkpt>
      <trkpt lat="45.81541" lon="1.18896">
        <ele>275.9</ele>
        <time>2024-09-25T12:40:00Z</time>
      </trkpt>
      <trkpt lat="45.81543" lon="1.18902">
        <ele>276</ele>
        <time>2024-09-25T12:40:02Z</time>
      </trkpt>
      <trkpt lat="45.81546" lon="1.18908">
        <ele>276.1</ele>
        <time>2024-09-25T12:40:04Z</time>
      </trkpt>
      <trkpt lat="45.81548" lon="1.18913">
        <ele>276.2</ele>
        <time>2024-09-25T12:40:05Z</time>
      </trkpt>
      <trkpt lat="45.8155" lon="1.18917">
        <ele>276.2</ele>
        <time>2024-09-25T12:40:06Z</time>
      </trkpt>
      <trkpt lat="45.81552" lon="1.18922">
        <ele>276.3</ele>
        <time>2024-09-25T12:40:08Z</time>
      </trkpt>
      <trkpt lat="45.81554" lon="1.18926">
        <ele>276.3</ele>
        <time>2024-09-25T12:40:09Z</time>
      </trkpt>
      <trkpt lat="45.81556" lon="1.1893">
        <ele>276.3</ele>
        <time>2024-09-25T12:40:10Z</time>
      </trkpt>
      <trkpt lat="45.81558" lon="1.18934">
        <ele>276.3</ele>
        <time>2024-09-25T12:40:11Z</time>
      </trkpt>
      <trkpt lat="45.81561" lon="1.18937">
        <ele>276.3</ele>
        <time>2024-09-25T12:40:12Z</time>
      </trkpt>
      <trkpt lat="45.81564" lon="1.1894">
        <ele>276.3</ele>
        <time>2024-09-25T12:40:13Z</time>
      </trkpt>
      <trkpt lat="45.81567" lon="1.18944">
        <ele>276.2</ele>
        <time>2024-09-25T12:40:14Z</time>
      </trkpt>
      <trkpt lat="45.81569" lon="1.18947">
        <ele>276.2</ele>
        <time>2024-09-25T12:40:15Z</time>
      </trkpt>
      <trkpt lat="45.81573" lon="1.1895">
        <ele>276.2</ele>
        <time>2024-09-25T12:40:17Z</time>
      </trkpt>
      <trkpt lat="45.81575" lon="1.18953">
        <ele>276.2</ele>
        <time>2024-09-25T12:40:18Z</time>
      </trkpt>
      <trkpt lat="45.81578" lon="1.18955">
        <ele>276.2</ele>
        <time>2024-09-25T12:40:19Z</time>
      </trkpt>
      <trkpt lat="45.81582" lon="1.18956">
        <ele>276.1</ele>
        <time>2024-09-25T12:40:21Z</time>
      </trkpt>
      <trkpt lat="45.81585" lon="1.18957">
        <ele>276.1</ele>
        <time>2024-09-25T12:40:34Z</time>
      </trkpt>
      <trkpt lat="45.81587" lon="1.18956">
        <ele>276.1</ele>
        <time>2024-09-25T12:41:22Z</time>
      </trkpt>
      <trkpt lat="45.81591" lon="1.18956">
        <ele>276.1</ele>
        <time>2024-09-25T12:41:52Z</time>
      </trkpt>
      <trkpt lat="45.81595" lon="1.18957">
        <ele>276.1</ele>
        <time>2024-09-25T12:41:54Z</time>
      </trkpt>
      <trkpt lat="45.816" lon="1.18957">
        <ele>276.1</ele>
        <time>2024-09-25T12:41:56Z</time>
      </trkpt>
      <trkpt lat="45.81603" lon="1.18956">
        <ele>276.1</ele>
        <time>2024-09-25T12:41:59Z</time>
      </trkpt>
      <trkpt lat="45.81606" lon="1.18959">
        <ele>276.1</ele>
        <time>2024-09-25T12:42:14Z</time>
      </trkpt>
      <trkpt lat="45.81605" lon="1.18962">
        <ele>276.1</ele>
        <time>2024-09-25T12:42:16Z</time>
      </trkpt>
      <trkpt lat="45.81604" lon="1.18964">
        <ele>276.1</ele>
        <time>2024-09-25T12:42:20Z</time>
      </trkpt>
      <trkpt lat="45.81604" lon="1.18968">
        <ele>276.1</ele>
        <time>2024-09-25T12:42:22Z</time>
      </trkpt>
      <trkpt lat="45.81606" lon="1.18972">
        <ele>276.1</ele>
        <time>2024-09-25T12:42:23Z</time>
      </trkpt>
      <trkpt lat="45.81608" lon="1.18976">
        <ele>276.1</ele>
        <time>2024-09-25T12:42:24Z</time>
      </trkpt>
      <trkpt lat="45.8161" lon="1.18981">
        <ele>276.1</ele>
        <time>2024-09-25T12:42:25Z</time>
      </trkpt>
      <trkpt lat="45.81613" lon="1.18985">
        <ele>276.1</ele>
        <time>2024-09-25T12:42:26Z</time>
      </trkpt>
      <trkpt lat="45.81615" lon="1.1899">
        <ele>276.1</ele>
        <time>2024-09-25T12:42:27Z</time>
      </trkpt>
      <trkpt lat="45.81618" lon="1.18995">
        <ele>276.1</ele>
        <time>2024-09-25T12:42:28Z</time>
      </trkpt>
      <trkpt lat="45.8162" lon="1.19">
        <ele>276.1</ele>
        <time>2024-09-25T12:42:29Z</time>
      </trkpt>
      <trkpt lat="45.81623" lon="1.19006">
        <ele>276.2</ele>
        <time>2024-09-25T12:42:30Z</time>
      </trkpt>
      <trkpt lat="45.81625" lon="1.19011">
        <ele>275.6</ele>
        <time>2024-09-25T12:42:31Z</time>
      </trkpt>
      <trkpt lat="45.81626" lon="1.19016">
        <ele>274.9</ele>
        <time>2024-09-25T12:42:32Z</time>
      </trkpt>
      <trkpt lat="45.81627" lon="1.19021">
        <ele>274.4</ele>
        <time>2024-09-25T12:42:33Z</time>
      </trkpt>
      <trkpt lat="45.81628" lon="1.19026">
        <ele>273.4</ele>
        <time>2024-09-25T12:42:34Z</time>
      </trkpt>
      <trkpt lat="45.8163" lon="1.19031">
        <ele>272.8</ele>
        <time>2024-09-25T12:42:35Z</time>
      </trkpt>
      <trkpt lat="45.81633" lon="1.19035">
        <ele>272.8</ele>
        <time>2024-09-25T12:42:36Z</time>
      </trkpt>
      <trkpt lat="45.81635" lon="1.1904">
        <ele>272.9</ele>
        <time>2024-09-25T12:42:37Z</time>
      </trkpt>
      <trkpt lat="45.81636" lon="1.19044">
        <ele>272.9</ele>
        <time>2024-09-25T12:42:38Z</time>
      </trkpt>
      <trkpt lat="45.81638" lon="1.19048">
        <ele>272.9</ele>
        <time>2024-09-25T12:42:39Z</time>
      </trkpt>
      <trkpt lat="45.8164" lon="1.19052">
        <ele>272.9</ele>
        <time>2024-09-25T12:42:40Z</time>
      </trkpt>
      <trkpt lat="45.81643" lon="1.19056">
        <ele>272.9</ele>
        <time>2024-09-25T12:42:41Z</time>
      </trkpt>
      <trkpt lat="45.81646" lon="1.1906">
        <ele>272.9</ele>
        <time>2024-09-25T12:42:42Z</time>
      </trkpt>
      <trkpt lat="45.81649" lon="1.19065">
        <ele>272.8</ele>
        <time>2024-09-25T12:42:43Z</time>
      </trkpt>
      <trkpt lat="45.81651" lon="1.19069">
        <ele>272.8</ele>
        <time>2024-09-25T12:42:44Z</time>
      </trkpt>
      <trkpt lat="45.81653" lon="1.19074">
        <ele>272.8</ele>
        <time>2024-09-25T12:42:45Z</time>
      </trkpt>
      <trkpt lat="45.81655" lon="1.19078">
        <ele>272.7</ele>
        <time>2024-09-25T12:42:46Z</time>
      </trkpt>
      <trkpt lat="45.81658" lon="1.19083">
        <ele>272.7</ele>
        <time>2024-09-25T12:42:47Z</time>
      </trkpt>
      <trkpt lat="45.8166" lon="1.19088">
        <ele>272.7</ele>
        <time>2024-09-25T12:42:48Z</time>
      </trkpt>
      <trkpt lat="45.81662" lon="1.19093">
        <ele>272.7</ele>
        <time>2024-09-25T12:42:49Z</time>
      </trkpt>
      <trkpt lat="45.81664" lon="1.19098">
        <ele>272.7</ele>
        <time>2024-09-25T12:42:50Z</time>
      </trkpt>
      <trkpt lat="45.81667" lon="1.19103">
        <ele>272.8</ele>
        <time>2024-09-25T12:42:51Z</time>
      </trkpt>
      <trkpt lat="45.81671" lon="1.19106">
        <ele>272.8</ele>
        <time>2024-09-25T12:42:52Z</time>
      </trkpt>
      <trkpt lat="45.81674" lon="1.1911">
        <ele>272.8</ele>
        <time>2024-09-25T12:42:53Z</time>
      </trkpt>
      <trkpt lat="45.81678" lon="1.19113">
        <ele>272.9</ele>
        <time>2024-09-25T12:42:54Z</time>
      </trkpt>
      <trkpt lat="45.81682" lon="1.19115">
        <ele>272.9</ele>
        <time>2024-09-25T12:42:55Z</time>
      </trkpt>
      <trkpt lat="45.81686" lon="1.19116">
        <ele>272.9</ele>
        <time>2024-09-25T12:42:56Z</time>
      </trkpt>
      <trkpt lat="45.81689" lon="1.19116">
        <ele>273</ele>
        <time>2024-09-25T12:42:57Z</time>
      </trkpt>
      <trkpt lat="45.81693" lon="1.19115">
        <ele>273</ele>
        <time>2024-09-25T12:42:58Z</time>
      </trkpt>
      <trkpt lat="45.81696" lon="1.19115">
        <ele>273</ele>
        <time>2024-09-25T12:42:59Z</time>
      </trkpt>
      <trkpt lat="45.81699" lon="1.19114">
        <ele>273.1</ele>
        <time>2024-09-25T12:43:01Z</time>
      </trkpt>
      <trkpt lat="45.81704" lon="1.19113">
        <ele>273.2</ele>
        <time>2024-09-25T12:43:03Z</time>
      </trkpt>
      <trkpt lat="45.81708" lon="1.19115">
        <ele>273.3</ele>
        <time>2024-09-25T12:43:05Z</time>
      </trkpt>
      <trkpt lat="45.81711" lon="1.19119">
        <ele>272.9</ele>
        <time>2024-09-25T12:43:07Z</time>
      </trkpt>
      <trkpt lat="45.81711" lon="1.19124">
        <ele>272.6</ele>
        <time>2024-09-25T12:43:08Z</time>
      </trkpt>
      <trkpt lat="45.8171" lon="1.19127">
        <ele>272.4</ele>
        <time>2024-09-25T12:43:09Z</time>
      </trkpt>
      <trkpt lat="45.8171" lon="1.19131">
        <ele>272.2</ele>
        <time>2024-09-25T12:43:10Z</time>
      </trkpt>
      <trkpt lat="45.81709" lon="1.19136">
        <ele>271.9</ele>
        <time>2024-09-25T12:43:11Z</time>
      </trkpt>
      <trkpt lat="45.81709" lon="1.19142">
        <ele>271.6</ele>
        <time>2024-09-25T12:43:13Z</time>
      </trkpt>
      <trkpt lat="45.8171" lon="1.19146">
        <ele>271.4</ele>
        <time>2024-09-25T12:43:14Z</time>
      </trkpt>
      <trkpt lat="45.81712" lon="1.19151">
        <ele>271.1</ele>
        <time>2024-09-25T12:43:15Z</time>
      </trkpt>
      <trkpt lat="45.81714" lon="1.19154">
        <ele>270.9</ele>
        <time>2024-09-25T12:43:16Z</time>
      </trkpt>
      <trkpt lat="45.81716" lon="1.19158">
        <ele>270.6</ele>
        <time>2024-09-25T12:43:17Z</time>
      </trkpt>
      <trkpt lat="45.81718" lon="1.19162">
        <ele>270.3</ele>
        <time>2024-09-25T12:43:18Z</time>
      </trkpt>
      <trkpt lat="45.8172" lon="1.19166">
        <ele>270</ele>
        <time>2024-09-25T12:43:19Z</time>
      </trkpt>
      <trkpt lat="45.81723" lon="1.19171">
        <ele>269.6</ele>
        <time>2024-09-25T12:43:20Z</time>
      </trkpt>
      <trkpt lat="45.81726" lon="1.19176">
        <ele>269.1</ele>
        <time>2024-09-25T12:43:21Z</time>
      </trkpt>
      <trkpt lat="45.81729" lon="1.19182">
        <ele>268.6</ele>
        <time>2024-09-25T12:43:22Z</time>
      </trkpt>
      <trkpt lat="45.81732" lon="1.19189">
        <ele>268</ele>
        <time>2024-09-25T12:43:23Z</time>
      </trkpt>
      <trkpt lat="45.81734" lon="1.19195">
        <ele>267.6</ele>
        <time>2024-09-25T12:43:24Z</time>
      </trkpt>
      <trkpt lat="45.81736" lon="1.19203">
        <ele>267</ele>
        <time>2024-09-25T12:43:25Z</time>
      </trkpt>
      <trkpt lat="45.81738" lon="1.1921">
        <ele>266.4</ele>
        <time>2024-09-25T12:43:26Z</time>
      </trkpt>
      <trkpt lat="45.81739" lon="1.19218">
        <ele>265.9</ele>
        <time>2024-09-25T12:43:27Z</time>
      </trkpt>
      <trkpt lat="45.8174" lon="1.19226">
        <ele>265.3</ele>
        <time>2024-09-25T12:43:28Z</time>
      </trkpt>
      <trkpt lat="45.81741" lon="1.19235">
        <ele>264.6</ele>
        <time>2024-09-25T12:43:29Z</time>
      </trkpt>
      <trkpt lat="45.81741" lon="1.19244">
        <ele>264</ele>
        <time>2024-09-25T12:43:30Z</time>
      </trkpt>
      <trkpt lat="45.81742" lon="1.19253">
        <ele>263.3</ele>
        <time>2024-09-25T12:43:31Z</time>
      </trkpt>
      <trkpt lat="45.81741" lon="1.19262">
        <ele>262.7</ele>
        <time>2024-09-25T12:43:32Z</time>
      </trkpt>
      <trkpt lat="45.81741" lon="1.19272">
        <ele>262</ele>
        <time>2024-09-25T12:43:33Z</time>
      </trkpt>
      <trkpt lat="45.81741" lon="1.19282">
        <ele>261.4</ele>
        <time>2024-09-25T12:43:34Z</time>
      </trkpt>
      <trkpt lat="45.81741" lon="1.19292">
        <ele>260.8</ele>
        <time>2024-09-25T12:43:35Z</time>
      </trkpt>
      <trkpt lat="45.81741" lon="1.19302">
        <ele>260.3</ele>
        <time>2024-09-25T12:43:36Z</time>
      </trkpt>
      <trkpt lat="45.8174" lon="1.19312">
        <ele>259.8</ele>
        <time>2024-09-25T12:43:37Z</time>
      </trkpt>
      <trkpt lat="45.81739" lon="1.19322">
        <ele>259.2</ele>
        <time>2024-09-25T12:43:38Z</time>
      </trkpt>
      <trkpt lat="45.81739" lon="1.19333">
        <ele>258.7</ele>
        <time>2024-09-25T12:43:39Z</time>
      </trkpt>
      <trkpt lat="45.81739" lon="1.19345">
        <ele>258.2</ele>
        <time>2024-09-25T12:43:40Z</time>
      </trkpt>
      <trkpt lat="45.81738" lon="1.19356">
        <ele>257.9</ele>
        <time>2024-09-25T12:43:41Z</time>
      </trkpt>
      <trkpt lat="45.81739" lon="1.19368">
        <ele>257.5</ele>
        <time>2024-09-25T12:43:42Z</time>
      </trkpt>
      <trkpt lat="45.81738" lon="1.19378">
        <ele>257.2</ele>
        <time>2024-09-25T12:43:43Z</time>
      </trkpt>
      <trkpt lat="45.81737" lon="1.19388">
        <ele>256.8</ele>
        <time>2024-09-25T12:43:44Z</time>
      </trkpt>
      <trkpt lat="45.81737" lon="1.19398">
        <ele>256.4</ele>
        <time>2024-09-25T12:43:45Z</time>
      </trkpt>
      <trkpt lat="45.81737" lon="1.19407">
        <ele>256</ele>
        <time>2024-09-25T12:43:46Z</time>
      </trkpt>
      <trkpt lat="45.81736" lon="1.19417">
        <ele>255.5</ele>
        <time>2024-09-25T12:43:47Z</time>
      </trkpt>
      <trkpt lat="45.81736" lon="1.19425">
        <ele>255.1</ele>
        <time>2024-09-25T12:43:48Z</time>
      </trkpt>
      <trkpt lat="45.81735" lon="1.19434">
        <ele>254.6</ele>
        <time>2024-09-25T12:43:49Z</time>
      </trkpt>
      <trkpt lat="45.81734" lon="1.19442">
        <ele>254.3</ele>
        <time>2024-09-25T12:43:50Z</time>
      </trkpt>
      <trkpt lat="45.81734" lon="1.19451">
        <ele>253.9</ele>
        <time>2024-09-25T12:43:51Z</time>
      </trkpt>
      <trkpt lat="45.81734" lon="1.1946">
        <ele>253.5</ele>
        <time>2024-09-25T12:43:52Z</time>
      </trkpt>
      <trkpt lat="45.81734" lon="1.19468">
        <ele>253.2</ele>
        <time>2024-09-25T12:43:53Z</time>
      </trkpt>
      <trkpt lat="45.81733" lon="1.19479">
        <ele>252.8</ele>
        <time>2024-09-25T12:43:54Z</time>
      </trkpt>
      <trkpt lat="45.81733" lon="1.19488">
        <ele>252.6</ele>
        <time>2024-09-25T12:43:55Z</time>
      </trkpt>
      <trkpt lat="45.81732" lon="1.19498">
        <ele>252.3</ele>
        <time>2024-09-25T12:43:56Z</time>
      </trkpt>
      <trkpt lat="45.81731" lon="1.19507">
        <ele>252</ele>
        <time>2024-09-25T12:43:57Z</time>
      </trkpt>
      <trkpt lat="45.8173" lon="1.19514">
        <ele>251.8</ele>
        <time>2024-09-25T12:43:58Z</time>
      </trkpt>
      <trkpt lat="45.81729" lon="1.19523">
        <ele>251.6</ele>
        <time>2024-09-25T12:43:59Z</time>
      </trkpt>
      <trkpt lat="45.81728" lon="1.19531">
        <ele>251.4</ele>
        <time>2024-09-25T12:44:00Z</time>
      </trkpt>
      <trkpt lat="45.81726" lon="1.19539">
        <ele>251.2</ele>
        <time>2024-09-25T12:44:01Z</time>
      </trkpt>
      <trkpt lat="45.81724" lon="1.19545">
        <ele>251</ele>
        <time>2024-09-25T12:44:02Z</time>
      </trkpt>
      <trkpt lat="45.81723" lon="1.19552">
        <ele>250.8</ele>
        <time>2024-09-25T12:44:03Z</time>
      </trkpt>
      <trkpt lat="45.81722" lon="1.19558">
        <ele>250.7</ele>
        <time>2024-09-25T12:44:04Z</time>
      </trkpt>
      <trkpt lat="45.81722" lon="1.19564">
        <ele>250.5</ele>
        <time>2024-09-25T12:44:05Z</time>
      </trkpt>
      <trkpt lat="45.81721" lon="1.1957">
        <ele>250.4</ele>
        <time>2024-09-25T12:44:06Z</time>
      </trkpt>
      <trkpt lat="45.8172" lon="1.19576">
        <ele>250.2</ele>
        <time>2024-09-25T12:44:07Z</time>
      </trkpt>
      <trkpt lat="45.8172" lon="1.19581">
        <ele>250.1</ele>
        <time>2024-09-25T12:44:08Z</time>
      </trkpt>
      <trkpt lat="45.81719" lon="1.19586">
        <ele>250</ele>
        <time>2024-09-25T12:44:09Z</time>
      </trkpt>
      <trkpt lat="45.81719" lon="1.19591">
        <ele>249.9</ele>
        <time>2024-09-25T12:44:10Z</time>
      </trkpt>
      <trkpt lat="45.81717" lon="1.19597">
        <ele>249.7</ele>
        <time>2024-09-25T12:44:11Z</time>
      </trkpt>
      <trkpt lat="45.81716" lon="1.19602">
        <ele>249.6</ele>
        <time>2024-09-25T12:44:12Z</time>
      </trkpt>
      <trkpt lat="45.81716" lon="1.19606">
        <ele>249.5</ele>
        <time>2024-09-25T12:44:13Z</time>
      </trkpt>
      <trkpt lat="45.81716" lon="1.19611">
        <ele>249.4</ele>
        <time>2024-09-25T12:44:14Z</time>
      </trkpt>
      <trkpt lat="45.81715" lon="1.19615">
        <ele>249.4</ele>
        <time>2024-09-25T12:44:15Z</time>
      </trkpt>
      <trkpt lat="45.81715" lon="1.19619">
        <ele>249.3</ele>
        <time>2024-09-25T12:44:16Z</time>
      </trkpt>
      <trkpt lat="45.81715" lon="1.19624">
        <ele>249.2</ele>
        <time>2024-09-25T12:44:17Z</time>
      </trkpt>
      <trkpt lat="45.81714" lon="1.19629">
        <ele>249.1</ele>
        <time>2024-09-25T12:44:18Z</time>
      </trkpt>
      <trkpt lat="45.81712" lon="1.19634">
        <ele>248.9</ele>
        <time>2024-09-25T12:44:19Z</time>
      </trkpt>
      <trkpt lat="45.81711" lon="1.19639">
        <ele>248.8</ele>
        <time>2024-09-25T12:44:20Z</time>
      </trkpt>
      <trkpt lat="45.81709" lon="1.19648">
        <ele>248.6</ele>
        <time>2024-09-25T12:44:21Z</time>
      </trkpt>
      <trkpt lat="45.81707" lon="1.19655">
        <ele>248.5</ele>
        <time>2024-09-25T12:44:22Z</time>
      </trkpt>
      <trkpt lat="45.81705" lon="1.19664">
        <ele>248.3</ele>
        <time>2024-09-25T12:44:23Z</time>
      </trkpt>
      <trkpt lat="45.81705" lon="1.19672">
        <ele>248.1</ele>
        <time>2024-09-25T12:44:24Z</time>
      </trkpt>
      <trkpt lat="45.81704" lon="1.1968">
        <ele>247.9</ele>
        <time>2024-09-25T12:44:25Z</time>
      </trkpt>
      <trkpt lat="45.81704" lon="1.19688">
        <ele>247.7</ele>
        <time>2024-09-25T12:44:26Z</time>
      </trkpt>
      <trkpt lat="45.81704" lon="1.19694">
        <ele>247.5</ele>
        <time>2024-09-25T12:44:27Z</time>
      </trkpt>
      <trkpt lat="45.81705" lon="1.19702">
        <ele>247.2</ele>
        <time>2024-09-25T12:44:28Z</time>
      </trkpt>
      <trkpt lat="45.81706" lon="1.1971">
        <ele>247</ele>
        <time>2024-09-25T12:44:29Z</time>
      </trkpt>
      <trkpt lat="45.81707" lon="1.19716">
        <ele>246.9</ele>
        <time>2024-09-25T12:44:30Z</time>
      </trkpt>
      <trkpt lat="45.81708" lon="1.19722">
        <ele>246.7</ele>
        <time>2024-09-25T12:44:31Z</time>
      </trkpt>
      <trkpt lat="45.81709" lon="1.19728">
        <ele>246.6</ele>
        <time>2024-09-25T12:44:32Z</time>
      </trkpt>
      <trkpt lat="45.81709" lon="1.19735">
        <ele>246.4</ele>
        <time>2024-09-25T12:44:33Z</time>
      </trkpt>
      <trkpt lat="45.8171" lon="1.19742">
        <ele>246.3</ele>
        <time>2024-09-25T12:44:34Z</time>
      </trkpt>
      <trkpt lat="45.8171" lon="1.19748">
        <ele>246.1</ele>
        <time>2024-09-25T12:44:35Z</time>
      </trkpt>
      <trkpt lat="45.81711" lon="1.19754">
        <ele>246</ele>
        <time>2024-09-25T12:44:36Z</time>
      </trkpt>
      <trkpt lat="45.81712" lon="1.19761">
        <ele>245.9</ele>
        <time>2024-09-25T12:44:37Z</time>
      </trkpt>
      <trkpt lat="45.81712" lon="1.19769">
        <ele>245.7</ele>
        <time>2024-09-25T12:44:38Z</time>
      </trkpt>
      <trkpt lat="45.81713" lon="1.19777">
        <ele>245.5</ele>
        <time>2024-09-25T12:44:39Z</time>
      </trkpt>
      <trkpt lat="45.81714" lon="1.19785">
        <ele>245.3</ele>
        <time>2024-09-25T12:44:40Z</time>
      </trkpt>
      <trkpt lat="45.81715" lon="1.19793">
        <ele>245.2</ele>
        <time>2024-09-25T12:44:41Z</time>
      </trkpt>
      <trkpt lat="45.81715" lon="1.198">
        <ele>245.1</ele>
        <time>2024-09-25T12:44:42Z</time>
      </trkpt>
      <trkpt lat="45.81715" lon="1.19807">
        <ele>244.9</ele>
        <time>2024-09-25T12:44:43Z</time>
      </trkpt>
      <trkpt lat="45.81715" lon="1.19815">
        <ele>244.8</ele>
        <time>2024-09-25T12:44:44Z</time>
      </trkpt>
      <trkpt lat="45.81714" lon="1.19822">
        <ele>244.6</ele>
        <time>2024-09-25T12:44:45Z</time>
      </trkpt>
      <trkpt lat="45.81714" lon="1.1983">
        <ele>244.5</ele>
        <time>2024-09-25T12:44:46Z</time>
      </trkpt>
      <trkpt lat="45.81714" lon="1.19839">
        <ele>244.3</ele>
        <time>2024-09-25T12:44:47Z</time>
      </trkpt>
      <trkpt lat="45.81715" lon="1.19847">
        <ele>244.1</ele>
        <time>2024-09-25T12:44:48Z</time>
      </trkpt>
      <trkpt lat="45.81715" lon="1.19855">
        <ele>244</ele>
        <time>2024-09-25T12:44:49Z</time>
      </trkpt>
      <trkpt lat="45.81716" lon="1.19863">
        <ele>243.8</ele>
        <time>2024-09-25T12:44:50Z</time>
      </trkpt>
      <trkpt lat="45.81717" lon="1.19872">
        <ele>243.7</ele>
        <time>2024-09-25T12:44:51Z</time>
      </trkpt>
      <trkpt lat="45.81718" lon="1.1988">
        <ele>243.5</ele>
        <time>2024-09-25T12:44:52Z</time>
      </trkpt>
      <trkpt lat="45.8172" lon="1.19887">
        <ele>243.4</ele>
        <time>2024-09-25T12:44:53Z</time>
      </trkpt>
      <trkpt lat="45.81722" lon="1.19895">
        <ele>243.3</ele>
        <time>2024-09-25T12:44:54Z</time>
      </trkpt>
      <trkpt lat="45.81724" lon="1.19902">
        <ele>243.1</ele>
        <time>2024-09-25T12:44:55Z</time>
      </trkpt>
      <trkpt lat="45.81726" lon="1.19909">
        <ele>243.1</ele>
        <time>2024-09-25T12:44:56Z</time>
      </trkpt>
      <trkpt lat="45.81728" lon="1.19916">
        <ele>243</ele>
        <time>2024-09-25T12:44:57Z</time>
      </trkpt>
      <trkpt lat="45.8173" lon="1.19922">
        <ele>243</ele>
        <time>2024-09-25T12:44:58Z</time>
      </trkpt>
      <trkpt lat="45.81732" lon="1.19926">
        <ele>242.9</ele>
        <time>2024-09-25T12:44:59Z</time>
      </trkpt>
      <trkpt lat="45.81734" lon="1.1993">
        <ele>242.9</ele>
        <time>2024-09-25T12:45:01Z</time>
      </trkpt>
      <trkpt lat="45.81737" lon="1.19934">
        <ele>243</ele>
        <time>2024-09-25T12:45:03Z</time>
      </trkpt>
      <trkpt lat="45.8174" lon="1.19937">
        <ele>243</ele>
        <time>2024-09-25T12:45:04Z</time>
      </trkpt>
      <trkpt lat="45.81742" lon="1.19941">
        <ele>243</ele>
        <time>2024-09-25T12:45:05Z</time>
      </trkpt>
      <trkpt lat="45.81744" lon="1.19945">
        <ele>243.1</ele>
        <time>2024-09-25T12:45:06Z</time>
      </trkpt>
      <trkpt lat="45.81746" lon="1.19949">
        <ele>243.2</ele>
        <time>2024-09-25T12:45:07Z</time>
      </trkpt>
      <trkpt lat="45.81748" lon="1.19953">
        <ele>243.3</ele>
        <time>2024-09-25T12:45:08Z</time>
      </trkpt>
      <trkpt lat="45.8175" lon="1.19957">
        <ele>243.3</ele>
        <time>2024-09-25T12:45:09Z</time>
      </trkpt>
      <trkpt lat="45.81752" lon="1.19961">
        <ele>243.4</ele>
        <time>2024-09-25T12:45:10Z</time>
      </trkpt>
      <trkpt lat="45.81754" lon="1.19965">
        <ele>243.5</ele>
        <time>2024-09-25T12:45:11Z</time>
      </trkpt>
      <trkpt lat="45.81756" lon="1.19969">
        <ele>243.5</ele>
        <time>2024-09-25T12:45:12Z</time>
      </trkpt>
      <trkpt lat="45.81758" lon="1.19972">
        <ele>243.6</ele>
        <time>2024-09-25T12:45:13Z</time>
      </trkpt>
      <trkpt lat="45.81761" lon="1.19976">
        <ele>243.6</ele>
        <time>2024-09-25T12:45:14Z</time>
      </trkpt>
      <trkpt lat="45.81764" lon="1.19981">
        <ele>243.7</ele>
        <time>2024-09-25T12:45:16Z</time>
      </trkpt>
      <trkpt lat="45.81766" lon="1.19986">
        <ele>243.8</ele>
        <time>2024-09-25T12:45:18Z</time>
      </trkpt>
      <trkpt lat="45.81769" lon="1.19989">
        <ele>243.8</ele>
        <time>2024-09-25T12:45:19Z</time>
      </trkpt>
      <trkpt lat="45.81771" lon="1.19993">
        <ele>243.8</ele>
        <time>2024-09-25T12:45:20Z</time>
      </trkpt>
      <trkpt lat="45.81773" lon="1.19998">
        <ele>243.7</ele>
        <time>2024-09-25T12:45:21Z</time>
      </trkpt>
      <trkpt lat="45.81775" lon="1.20002">
        <ele>243.7</ele>
        <time>2024-09-25T12:45:22Z</time>
      </trkpt>
      <trkpt lat="45.81778" lon="1.20007">
        <ele>243.6</ele>
        <time>2024-09-25T12:45:23Z</time>
      </trkpt>
      <trkpt lat="45.8178" lon="1.20013">
        <ele>243.6</ele>
        <time>2024-09-25T12:45:24Z</time>
      </trkpt>
      <trkpt lat="45.81782" lon="1.20018">
        <ele>243.5</ele>
        <time>2024-09-25T12:45:25Z</time>
      </trkpt>
      <trkpt lat="45.81784" lon="1.20023">
        <ele>243.4</ele>
        <time>2024-09-25T12:45:26Z</time>
      </trkpt>
      <trkpt lat="45.81789" lon="1.2003">
        <ele>243.2</ele>
        <time>2024-09-25T12:45:27Z</time>
      </trkpt>
      <trkpt lat="45.81792" lon="1.20037">
        <ele>243.1</ele>
        <time>2024-09-25T12:45:28Z</time>
      </trkpt>
      <trkpt lat="45.81795" lon="1.20044">
        <ele>242.9</ele>
        <time>2024-09-25T12:45:29Z</time>
      </trkpt>
      <trkpt lat="45.81798" lon="1.2005">
        <ele>242.8</ele>
        <time>2024-09-25T12:45:30Z</time>
      </trkpt>
      <trkpt lat="45.81801" lon="1.20056">
        <ele>242.6</ele>
        <time>2024-09-25T12:45:31Z</time>
      </trkpt>
      <trkpt lat="45.81804" lon="1.20064">
        <ele>242.4</ele>
        <time>2024-09-25T12:45:32Z</time>
      </trkpt>
      <trkpt lat="45.81806" lon="1.20071">
        <ele>242.2</ele>
        <time>2024-09-25T12:45:33Z</time>
      </trkpt>
      <trkpt lat="45.81809" lon="1.20078">
        <ele>242</ele>
        <time>2024-09-25T12:45:34Z</time>
      </trkpt>
      <trkpt lat="45.81812" lon="1.20085">
        <ele>241.8</ele>
        <time>2024-09-25T12:45:35Z</time>
      </trkpt>
      <trkpt lat="45.81816" lon="1.20091">
        <ele>241.7</ele>
        <time>2024-09-25T12:45:36Z</time>
      </trkpt>
      <trkpt lat="45.81819" lon="1.20097">
        <ele>241.5</ele>
        <time>2024-09-25T12:45:37Z</time>
      </trkpt>
      <trkpt lat="45.81822" lon="1.20102">
        <ele>241.4</ele>
        <time>2024-09-25T12:45:38Z</time>
      </trkpt>
      <trkpt lat="45.81825" lon="1.20109">
        <ele>241.2</ele>
        <time>2024-09-25T12:45:39Z</time>
      </trkpt>
      <trkpt lat="45.81829" lon="1.20115">
        <ele>241.1</ele>
        <time>2024-09-25T12:45:40Z</time>
      </trkpt>
      <trkpt lat="45.81832" lon="1.20122">
        <ele>240.9</ele>
        <time>2024-09-25T12:45:41Z</time>
      </trkpt>
      <trkpt lat="45.81835" lon="1.20128">
        <ele>240.8</ele>
        <time>2024-09-25T12:45:42Z</time>
      </trkpt>
      <trkpt lat="45.81837" lon="1.20133">
        <ele>240.7</ele>
        <time>2024-09-25T12:45:43Z</time>
      </trkpt>
      <trkpt lat="45.8184" lon="1.20138">
        <ele>240.6</ele>
        <time>2024-09-25T12:45:44Z</time>
      </trkpt>
      <trkpt lat="45.81842" lon="1.20145">
        <ele>240.5</ele>
        <time>2024-09-25T12:45:45Z</time>
      </trkpt>
      <trkpt lat="45.81845" lon="1.2015">
        <ele>240.4</ele>
        <time>2024-09-25T12:45:46Z</time>
      </trkpt>
      <trkpt lat="45.81848" lon="1.20155">
        <ele>240.3</ele>
        <time>2024-09-25T12:45:47Z</time>
      </trkpt>
      <trkpt lat="45.81851" lon="1.2016">
        <ele>240.2</ele>
        <time>2024-09-25T12:45:48Z</time>
      </trkpt>
      <trkpt lat="45.81854" lon="1.20165">
        <ele>240.1</ele>
        <time>2024-09-25T12:45:49Z</time>
      </trkpt>
      <trkpt lat="45.81857" lon="1.20171">
        <ele>239.9</ele>
        <time>2024-09-25T12:45:50Z</time>
      </trkpt>
      <trkpt lat="45.8186" lon="1.20178">
        <ele>239.8</ele>
        <time>2024-09-25T12:45:51Z</time>
      </trkpt>
      <trkpt lat="45.81863" lon="1.20185">
        <ele>239.7</ele>
        <time>2024-09-25T12:45:52Z</time>
      </trkpt>
      <trkpt lat="45.81866" lon="1.20192">
        <ele>239.6</ele>
        <time>2024-09-25T12:45:53Z</time>
      </trkpt>
      <trkpt lat="45.81869" lon="1.20198">
        <ele>239.6</ele>
        <time>2024-09-25T12:45:54Z</time>
      </trkpt>
      <trkpt lat="45.81872" lon="1.20205">
        <ele>239.6</ele>
        <time>2024-09-25T12:45:55Z</time>
      </trkpt>
      <trkpt lat="45.81874" lon="1.2021">
        <ele>239.6</ele>
        <time>2024-09-25T12:45:56Z</time>
      </trkpt>
      <trkpt lat="45.81877" lon="1.20215">
        <ele>239.6</ele>
        <time>2024-09-25T12:45:59Z</time>
      </trkpt>
      <trkpt lat="45.8188" lon="1.2022">
        <ele>239.6</ele>
        <time>2024-09-25T12:46:00Z</time>
      </trkpt>
      <trkpt lat="45.81883" lon="1.20224">
        <ele>239.7</ele>
        <time>2024-09-25T12:46:01Z</time>
      </trkpt>
      <trkpt lat="45.81885" lon="1.20228">
        <ele>239.7</ele>
        <time>2024-09-25T12:46:02Z</time>
      </trkpt>
      <trkpt lat="45.81888" lon="1.20232">
        <ele>239.8</ele>
        <time>2024-09-25T12:46:03Z</time>
      </trkpt>
      <trkpt lat="45.8189" lon="1.20236">
        <ele>239.9</ele>
        <time>2024-09-25T12:46:04Z</time>
      </trkpt>
      <trkpt lat="45.81893" lon="1.2024">
        <ele>240</ele>
        <time>2024-09-25T12:46:05Z</time>
      </trkpt>
      <trkpt lat="45.81896" lon="1.20245">
        <ele>240.1</ele>
        <time>2024-09-25T12:46:07Z</time>
      </trkpt>
      <trkpt lat="45.81899" lon="1.20248">
        <ele>240.2</ele>
        <time>2024-09-25T12:46:08Z</time>
      </trkpt>
      <trkpt lat="45.81901" lon="1.20252">
        <ele>240.3</ele>
        <time>2024-09-25T12:46:09Z</time>
      </trkpt>
      <trkpt lat="45.81904" lon="1.20256">
        <ele>240.4</ele>
        <time>2024-09-25T12:46:10Z</time>
      </trkpt>
      <trkpt lat="45.81906" lon="1.20258">
        <ele>240.4</ele>
        <time>2024-09-25T12:46:11Z</time>
      </trkpt>
      <trkpt lat="45.81908" lon="1.20262">
        <ele>240.5</ele>
        <time>2024-09-25T12:46:13Z</time>
      </trkpt>
      <trkpt lat="45.8191" lon="1.20265">
        <ele>240.6</ele>
        <time>2024-09-25T12:46:15Z</time>
      </trkpt>
      <trkpt lat="45.81912" lon="1.20269">
        <ele>240.7</ele>
        <time>2024-09-25T12:46:18Z</time>
      </trkpt>
      <trkpt lat="45.81914" lon="1.20272">
        <ele>240.7</ele>
        <time>2024-09-25T12:46:23Z</time>
      </trkpt>
      <trkpt lat="45.81916" lon="1.20274">
        <ele>240.7</ele>
        <time>2024-09-25T12:46:46Z</time>
      </trkpt>
      <trkpt lat="45.81918" lon="1.20272">
        <ele>240.7</ele>
        <time>2024-09-25T12:47:12Z</time>
      </trkpt>
      <trkpt lat="45.81918" lon="1.20273">
        <ele>240.7</ele>
        <time>2024-09-25T12:47:27Z</time>
      </trkpt>
      <trkpt lat="45.8192" lon="1.20276">
        <ele>240.7</ele>
        <time>2024-09-25T12:48:10Z</time>
      </trkpt>
      <trkpt lat="45.81922" lon="1.2028">
        <ele>240.7</ele>
        <time>2024-09-25T12:48:12Z</time>
      </trkpt>
      <trkpt lat="45.81925" lon="1.20284">
        <ele>240.7</ele>
        <time>2024-09-25T12:48:13Z</time>
      </trkpt>
      <trkpt lat="45.81928" lon="1.20287">
        <ele>240.7</ele>
        <time>2024-09-25T12:48:14Z</time>
      </trkpt>
      <trkpt lat="45.81931" lon="1.2029">
        <ele>240.6</ele>
        <time>2024-09-25T12:48:15Z</time>
      </trkpt>
      <trkpt lat="45.81933" lon="1.20293">
        <ele>240.5</ele>
        <time>2024-09-25T12:48:16Z</time>
      </trkpt>
      <trkpt lat="45.81936" lon="1.20295">
        <ele>240.5</ele>
        <time>2024-09-25T12:48:17Z</time>
      </trkpt>
      <trkpt lat="45.81939" lon="1.20298">
        <ele>240.4</ele>
        <time>2024-09-25T12:48:18Z</time>
      </trkpt>
      <trkpt lat="45.81943" lon="1.20301">
        <ele>240.2</ele>
        <time>2024-09-25T12:48:19Z</time>
      </trkpt>
      <trkpt lat="45.81946" lon="1.20304">
        <ele>240.1</ele>
        <time>2024-09-25T12:48:20Z</time>
      </trkpt>
      <trkpt lat="45.8195" lon="1.20307">
        <ele>240</ele>
        <time>2024-09-25T12:48:21Z</time>
      </trkpt>
      <trkpt lat="45.81954" lon="1.20311">
        <ele>239.8</ele>
        <time>2024-09-25T12:48:22Z</time>
      </trkpt>
      <trkpt lat="45.81959" lon="1.20316">
        <ele>239.7</ele>
        <time>2024-09-25T12:48:23Z</time>
      </trkpt>
      <trkpt lat="45.81962" lon="1.20319">
        <ele>239.6</ele>
        <time>2024-09-25T12:48:24Z</time>
      </trkpt>
      <trkpt lat="45.81967" lon="1.20323">
        <ele>239.4</ele>
        <time>2024-09-25T12:48:26Z</time>
      </trkpt>
      <trkpt lat="45.8197" lon="1.20326">
        <ele>239.4</ele>
        <time>2024-09-25T12:48:27Z</time>
      </trkpt>
      <trkpt lat="45.81973" lon="1.20329">
        <ele>239.3</ele>
        <time>2024-09-25T12:48:28Z</time>
      </trkpt>
      <trkpt lat="45.81977" lon="1.20333">
        <ele>239.2</ele>
        <time>2024-09-25T12:48:29Z</time>
      </trkpt>
      <trkpt lat="45.81979" lon="1.20337">
        <ele>239.2</ele>
        <time>2024-09-25T12:48:30Z</time>
      </trkpt>
      <trkpt lat="45.81982" lon="1.2034">
        <ele>239.1</ele>
        <time>2024-09-25T12:48:31Z</time>
      </trkpt>
      <trkpt lat="45.81985" lon="1.20344">
        <ele>239.1</ele>
        <time>2024-09-25T12:48:33Z</time>
      </trkpt>
      <trkpt lat="45.81988" lon="1.20346">
        <ele>239</ele>
        <time>2024-09-25T12:48:35Z</time>
      </trkpt>
      <trkpt lat="45.81991" lon="1.20349">
        <ele>239</ele>
        <time>2024-09-25T12:48:39Z</time>
      </trkpt>
      <trkpt lat="45.81995" lon="1.20352">
        <ele>239</ele>
        <time>2024-09-25T12:48:41Z</time>
      </trkpt>
      <trkpt lat="45.81999" lon="1.20356">
        <ele>238.9</ele>
        <time>2024-09-25T12:48:43Z</time>
      </trkpt>
      <trkpt lat="45.82003" lon="1.2036">
        <ele>239</ele>
        <time>2024-09-25T12:48:45Z</time>
      </trkpt>
      <trkpt lat="45.82006" lon="1.20363">
        <ele>239</ele>
        <time>2024-09-25T12:48:46Z</time>
      </trkpt>
      <trkpt lat="45.82009" lon="1.20366">
        <ele>239.1</ele>
        <time>2024-09-25T12:48:47Z</time>
      </trkpt>
      <trkpt lat="45.82011" lon="1.20369">
        <ele>239.1</ele>
        <time>2024-09-25T12:48:49Z</time>
      </trkpt>
      <trkpt lat="45.82015" lon="1.20373">
        <ele>239.2</ele>
        <time>2024-09-25T12:48:51Z</time>
      </trkpt>
      <trkpt lat="45.8202" lon="1.20377">
        <ele>239.4</ele>
        <time>2024-09-25T12:48:52Z</time>
      </trkpt>
      <trkpt lat="45.82024" lon="1.20381">
        <ele>239.6</ele>
        <time>2024-09-25T12:48:53Z</time>
      </trkpt>
      <trkpt lat="45.82028" lon="1.20385">
        <ele>239.9</ele>
        <time>2024-09-25T12:48:54Z</time>
      </trkpt>
      <trkpt lat="45.82031" lon="1.20389">
        <ele>240.1</ele>
        <time>2024-09-25T12:48:55Z</time>
      </trkpt>
      <trkpt lat="45.82034" lon="1.20392">
        <ele>240.3</ele>
        <time>2024-09-25T12:48:56Z</time>
      </trkpt>
      <trkpt lat="45.82037" lon="1.20395">
        <ele>240.5</ele>
        <time>2024-09-25T12:48:57Z</time>
      </trkpt>
      <trkpt lat="45.8204" lon="1.20398">
        <ele>240.7</ele>
        <time>2024-09-25T12:48:58Z</time>
      </trkpt>
      <trkpt lat="45.82042" lon="1.20401">
        <ele>240.9</ele>
        <time>2024-09-25T12:48:59Z</time>
      </trkpt>
      <trkpt lat="45.82044" lon="1.20403">
        <ele>241</ele>
        <time>2024-09-25T12:49:00Z</time>
      </trkpt>
      <trkpt lat="45.82049" lon="1.20408">
        <ele>241.3</ele>
        <time>2024-09-25T12:49:02Z</time>
      </trkpt>
      <trkpt lat="45.82052" lon="1.20411">
        <ele>241.4</ele>
        <time>2024-09-25T12:49:03Z</time>
      </trkpt>
      <trkpt lat="45.82056" lon="1.20414">
        <ele>241.6</ele>
        <time>2024-09-25T12:49:04Z</time>
      </trkpt>
      <trkpt lat="45.82059" lon="1.20415">
        <ele>241.7</ele>
        <time>2024-09-25T12:49:06Z</time>
      </trkpt>
      <trkpt lat="45.82062" lon="1.20413">
        <ele>241.8</ele>
        <time>2024-09-25T12:49:09Z</time>
      </trkpt>
      <trkpt lat="45.82064" lon="1.20411">
        <ele>242</ele>
        <time>2024-09-25T12:49:11Z</time>
      </trkpt>
      <trkpt lat="45.82066" lon="1.20407">
        <ele>242.1</ele>
        <time>2024-09-25T12:49:13Z</time>
      </trkpt>
      <trkpt lat="45.82068" lon="1.20404">
        <ele>242.2</ele>
        <time>2024-09-25T12:49:28Z</time>
      </trkpt>
      <trkpt lat="45.82072" lon="1.20402">
        <ele>242.4</ele>
        <time>2024-09-25T12:49:30Z</time>
      </trkpt>
      <trkpt lat="45.82077" lon="1.204">
        <ele>242.6</ele>
        <time>2024-09-25T12:49:32Z</time>
      </trkpt>
      <trkpt lat="45.8208" lon="1.20396">
        <ele>242.7</ele>
        <time>2024-09-25T12:49:34Z</time>
      </trkpt>
      <trkpt lat="45.82082" lon="1.20389">
        <ele>242.9</ele>
        <time>2024-09-25T12:49:36Z</time>
      </trkpt>
      <trkpt lat="45.82084" lon="1.20384">
        <ele>243.1</ele>
        <time>2024-09-25T12:49:37Z</time>
      </trkpt>
      <trkpt lat="45.82085" lon="1.20379">
        <ele>243.3</ele>
        <time>2024-09-25T12:49:38Z</time>
      </trkpt>
      <trkpt lat="45.82086" lon="1.20374">
        <ele>243.4</ele>
        <time>2024-09-25T12:49:39Z</time>
      </trkpt>
      <trkpt lat="45.82087" lon="1.2037">
        <ele>243.5</ele>
        <time>2024-09-25T12:49:40Z</time>
      </trkpt>
      <trkpt lat="45.82088" lon="1.20366">
        <ele>243.6</ele>
        <time>2024-09-25T12:49:41Z</time>
      </trkpt>
      <trkpt lat="45.82089" lon="1.20361">
        <ele>243.8</ele>
        <time>2024-09-25T12:49:42Z</time>
      </trkpt>
      <trkpt lat="45.8209" lon="1.20357">
        <ele>243.9</ele>
        <time>2024-09-25T12:49:43Z</time>
      </trkpt>
      <trkpt lat="45.82091" lon="1.20352">
        <ele>244.1</ele>
        <time>2024-09-25T12:49:44Z</time>
      </trkpt>
      <trkpt lat="45.82092" lon="1.20348">
        <ele>244.2</ele>
        <time>2024-09-25T12:49:45Z</time>
      </trkpt>
      <trkpt lat="45.82093" lon="1.20344">
        <ele>244.3</ele>
        <time>2024-09-25T12:49:46Z</time>
      </trkpt>
      <trkpt lat="45.82094" lon="1.2034">
        <ele>244.5</ele>
        <time>2024-09-25T12:49:47Z</time>
      </trkpt>
      <trkpt lat="45.82095" lon="1.20335">
        <ele>244.6</ele>
        <time>2024-09-25T12:49:48Z</time>
      </trkpt>
      <trkpt lat="45.82096" lon="1.20331">
        <ele>244.8</ele>
        <time>2024-09-25T12:49:49Z</time>
      </trkpt>
      <trkpt lat="45.82097" lon="1.20328">
        <ele>244.9</ele>
        <time>2024-09-25T12:49:50Z</time>
      </trkpt>
      <trkpt lat="45.82098" lon="1.20324">
        <ele>245</ele>
        <time>2024-09-25T12:49:51Z</time>
      </trkpt>
      <trkpt lat="45.82099" lon="1.20321">
        <ele>245.1</ele>
        <time>2024-09-25T12:49:52Z</time>
      </trkpt>
      <trkpt lat="45.821" lon="1.20317">
        <ele>245.2</ele>
        <time>2024-09-25T12:49:53Z</time>
      </trkpt>
      <trkpt lat="45.82101" lon="1.20312">
        <ele>245.4</ele>
        <time>2024-09-25T12:49:54Z</time>
      </trkpt>
      <trkpt lat="45.82101" lon="1.20308">
        <ele>245.5</ele>
        <time>2024-09-25T12:49:55Z</time>
      </trkpt>
      <trkpt lat="45.82102" lon="1.20304">
        <ele>245.7</ele>
        <time>2024-09-25T12:49:56Z</time>
      </trkpt>
      <trkpt lat="45.82103" lon="1.20299">
        <ele>245.8</ele>
        <time>2024-09-25T12:49:57Z</time>
      </trkpt>
      <trkpt lat="45.82104" lon="1.20295">
        <ele>245.9</ele>
        <time>2024-09-25T12:49:58Z</time>
      </trkpt>
      <trkpt lat="45.82105" lon="1.2029">
        <ele>246.1</ele>
        <time>2024-09-25T12:49:59Z</time>
      </trkpt>
      <trkpt lat="45.82106" lon="1.20285">
        <ele>246.3</ele>
        <time>2024-09-25T12:50:00Z</time>
      </trkpt>
      <trkpt lat="45.82107" lon="1.2028">
        <ele>246.4</ele>
        <time>2024-09-25T12:50:01Z</time>
      </trkpt>
      <trkpt lat="45.82107" lon="1.20276">
        <ele>246.5</ele>
        <time>2024-09-25T12:50:02Z</time>
      </trkpt>
      <trkpt lat="45.82108" lon="1.20271">
        <ele>246.7</ele>
        <time>2024-09-25T12:50:03Z</time>
      </trkpt>
      <trkpt lat="45.82109" lon="1.20266">
        <ele>246.9</ele>
        <time>2024-09-25T12:50:04Z</time>
      </trkpt>
      <trkpt lat="45.8211" lon="1.20262">
        <ele>247</ele>
        <time>2024-09-25T12:50:05Z</time>
      </trkpt>
      <trkpt lat="45.82111" lon="1.20257">
        <ele>247.2</ele>
        <time>2024-09-25T12:50:06Z</time>
      </trkpt>
      <trkpt lat="45.82112" lon="1.20252">
        <ele>247.3</ele>
        <time>2024-09-25T12:50:07Z</time>
      </trkpt>
      <trkpt lat="45.82113" lon="1.20248">
        <ele>247.5</ele>
        <time>2024-09-25T12:50:08Z</time>
      </trkpt>
      <trkpt lat="45.82114" lon="1.20244">
        <ele>247.6</ele>
        <time>2024-09-25T12:50:09Z</time>
      </trkpt>
      <trkpt lat="45.82115" lon="1.20239">
        <ele>247.8</ele>
        <time>2024-09-25T12:50:10Z</time>
      </trkpt>
      <trkpt lat="45.82116" lon="1.20235">
        <ele>247.9</ele>
        <time>2024-09-25T12:50:11Z</time>
      </trkpt>
      <trkpt lat="45.82116" lon="1.2023">
        <ele>248.1</ele>
        <time>2024-09-25T12:50:12Z</time>
      </trkpt>
      <trkpt lat="45.82117" lon="1.20226">
        <ele>248.2</ele>
        <time>2024-09-25T12:50:13Z</time>
      </trkpt>
      <trkpt lat="45.82118" lon="1.20222">
        <ele>248.3</ele>
        <time>2024-09-25T12:50:14Z</time>
      </trkpt>
      <trkpt lat="45.82118" lon="1.20217">
        <ele>248.5</ele>
        <time>2024-09-25T12:50:15Z</time>
      </trkpt>
      <trkpt lat="45.82119" lon="1.20213">
        <ele>248.6</ele>
        <time>2024-09-25T12:50:16Z</time>
      </trkpt>
      <trkpt lat="45.8212" lon="1.20209">
        <ele>248.7</ele>
        <time>2024-09-25T12:50:17Z</time>
      </trkpt>
      <trkpt lat="45.82121" lon="1.20204">
        <ele>248.9</ele>
        <time>2024-09-25T12:50:18Z</time>
      </trkpt>
      <trkpt lat="45.82121" lon="1.202">
        <ele>249</ele>
        <time>2024-09-25T12:50:19Z</time>
      </trkpt>
      <trkpt lat="45.82123" lon="1.20194">
        <ele>249.2</ele>
        <time>2024-09-25T12:50:21Z</time>
      </trkpt>
      <trkpt lat="45.82124" lon="1.20189">
        <ele>249.4</ele>
        <time>2024-09-25T12:50:22Z</time>
      </trkpt>
      <trkpt lat="45.82125" lon="1.20184">
        <ele>249.5</ele>
        <time>2024-09-25T12:50:23Z</time>
      </trkpt>
      <trkpt lat="45.82125" lon="1.2018">
        <ele>249.6</ele>
        <time>2024-09-25T12:50:24Z</time>
      </trkpt>
      <trkpt lat="45.82126" lon="1.20175">
        <ele>249.8</ele>
        <time>2024-09-25T12:50:25Z</time>
      </trkpt>
      <trkpt lat="45.82127" lon="1.20171">
        <ele>249.9</ele>
        <time>2024-09-25T12:50:26Z</time>
      </trkpt>
      <trkpt lat="45.82128" lon="1.20166">
        <ele>250</ele>
        <time>2024-09-25T12:50:27Z</time>
      </trkpt>
      <trkpt lat="45.82129" lon="1.20162">
        <ele>250.1</ele>
        <time>2024-09-25T12:50:28Z</time>
      </trkpt>
      <trkpt lat="45.8213" lon="1.20157">
        <ele>250.2</ele>
        <time>2024-09-25T12:50:29Z</time>
      </trkpt>
      <trkpt lat="45.82131" lon="1.20153">
        <ele>250.3</ele>
        <time>2024-09-25T12:50:30Z</time>
      </trkpt>
      <trkpt lat="45.82132" lon="1.20148">
        <ele>250.4</ele>
        <time>2024-09-25T12:50:31Z</time>
      </trkpt>
      <trkpt lat="45.82133" lon="1.20144">
        <ele>250.5</ele>
        <time>2024-09-25T12:50:32Z</time>
      </trkpt>
      <trkpt lat="45.82133" lon="1.2014">
        <ele>250.6</ele>
        <time>2024-09-25T12:50:33Z</time>
      </trkpt>
      <trkpt lat="45.82134" lon="1.20136">
        <ele>250.7</ele>
        <time>2024-09-25T12:50:34Z</time>
      </trkpt>
      <trkpt lat="45.82135" lon="1.20131">
        <ele>250.9</ele>
        <time>2024-09-25T12:50:35Z</time>
      </trkpt>
      <trkpt lat="45.82136" lon="1.20127">
        <ele>251</ele>
        <time>2024-09-25T12:50:36Z</time>
      </trkpt>
      <trkpt lat="45.82136" lon="1.20122">
        <ele>251.1</ele>
        <time>2024-09-25T12:50:37Z</time>
      </trkpt>
      <trkpt lat="45.82137" lon="1.20117">
        <ele>251.2</ele>
        <time>2024-09-25T12:50:38Z</time>
      </trkpt>
      <trkpt lat="45.82138" lon="1.20113">
        <ele>251.3</ele>
        <time>2024-09-25T12:50:39Z</time>
      </trkpt>
      <trkpt lat="45.82139" lon="1.20108">
        <ele>251.4</ele>
        <time>2024-09-25T12:50:40Z</time>
      </trkpt>
      <trkpt lat="45.8214" lon="1.20104">
        <ele>251.5</ele>
        <time>2024-09-25T12:50:41Z</time>
      </trkpt>
      <trkpt lat="45.8214" lon="1.20099">
        <ele>251.7</ele>
        <time>2024-09-25T12:50:42Z</time>
      </trkpt>
      <trkpt lat="45.82141" lon="1.20095">
        <ele>251.8</ele>
        <time>2024-09-25T12:50:43Z</time>
      </trkpt>
      <trkpt lat="45.82142" lon="1.2009">
        <ele>251.9</ele>
        <time>2024-09-25T12:50:44Z</time>
      </trkpt>
      <trkpt lat="45.82143" lon="1.20086">
        <ele>252</ele>
        <time>2024-09-25T12:50:45Z</time>
      </trkpt>
      <trkpt lat="45.82144" lon="1.20081">
        <ele>252.2</ele>
        <time>2024-09-25T12:50:46Z</time>
      </trkpt>
      <trkpt lat="45.82145" lon="1.20076">
        <ele>252.3</ele>
        <time>2024-09-25T12:50:47Z</time>
      </trkpt>
      <trkpt lat="45.82146" lon="1.20071">
        <ele>252.4</ele>
        <time>2024-09-25T12:50:48Z</time>
      </trkpt>
      <trkpt lat="45.82147" lon="1.20067">
        <ele>252.5</ele>
        <time>2024-09-25T12:50:49Z</time>
      </trkpt>
      <trkpt lat="45.82148" lon="1.20062">
        <ele>252.7</ele>
        <time>2024-09-25T12:50:50Z</time>
      </trkpt>
      <trkpt lat="45.82149" lon="1.20057">
        <ele>252.8</ele>
        <time>2024-09-25T12:50:51Z</time>
      </trkpt>
      <trkpt lat="45.8215" lon="1.20052">
        <ele>253</ele>
        <time>2024-09-25T12:50:52Z</time>
      </trkpt>
      <trkpt lat="45.82151" lon="1.20048">
        <ele>253.1</ele>
        <time>2024-09-25T12:50:53Z</time>
      </trkpt>
      <trkpt lat="45.82153" lon="1.20042">
        <ele>253.2</ele>
        <time>2024-09-25T12:50:55Z</time>
      </trkpt>
      <trkpt lat="45.82154" lon="1.20036">
        <ele>253.4</ele>
        <time>2024-09-25T12:50:56Z</time>
      </trkpt>
      <trkpt lat="45.82155" lon="1.20032">
        <ele>253.5</ele>
        <time>2024-09-25T12:50:57Z</time>
      </trkpt>
      <trkpt lat="45.82156" lon="1.20027">
        <ele>253.6</ele>
        <time>2024-09-25T12:50:58Z</time>
      </trkpt>
      <trkpt lat="45.82157" lon="1.20023">
        <ele>253.7</ele>
        <time>2024-09-25T12:50:59Z</time>
      </trkpt>
      <trkpt lat="45.82158" lon="1.20018">
        <ele>253.9</ele>
        <time>2024-09-25T12:51:00Z</time>
      </trkpt>
      <trkpt lat="45.82159" lon="1.20013">
        <ele>254</ele>
        <time>2024-09-25T12:51:01Z</time>
      </trkpt>
      <trkpt lat="45.8216" lon="1.20007">
        <ele>254.1</ele>
        <time>2024-09-25T12:51:02Z</time>
      </trkpt>
      <trkpt lat="45.82161" lon="1.20002">
        <ele>254.3</ele>
        <time>2024-09-25T12:51:03Z</time>
      </trkpt>
      <trkpt lat="45.82161" lon="1.19997">
        <ele>254.4</ele>
        <time>2024-09-25T12:51:04Z</time>
      </trkpt>
      <trkpt lat="45.82161" lon="1.19992">
        <ele>254.5</ele>
        <time>2024-09-25T12:51:05Z</time>
      </trkpt>
      <trkpt lat="45.82162" lon="1.19987">
        <ele>254.6</ele>
        <time>2024-09-25T12:51:06Z</time>
      </trkpt>
      <trkpt lat="45.82162" lon="1.19982">
        <ele>254.7</ele>
        <time>2024-09-25T12:51:07Z</time>
      </trkpt>
      <trkpt lat="45.82162" lon="1.19977">
        <ele>254.8</ele>
        <time>2024-09-25T12:51:08Z</time>
      </trkpt>
      <trkpt lat="45.82161" lon="1.19972">
        <ele>254.9</ele>
        <time>2024-09-25T12:51:09Z</time>
      </trkpt>
      <trkpt lat="45.82161" lon="1.19968">
        <ele>255</ele>
        <time>2024-09-25T12:51:10Z</time>
      </trkpt>
      <trkpt lat="45.82161" lon="1.19963">
        <ele>255.1</ele>
        <time>2024-09-25T12:51:11Z</time>
      </trkpt>
      <trkpt lat="45.82161" lon="1.19958">
        <ele>255.2</ele>
        <time>2024-09-25T12:51:12Z</time>
      </trkpt>
      <trkpt lat="45.8216" lon="1.19953">
        <ele>255.3</ele>
        <time>2024-09-25T12:51:13Z</time>
      </trkpt>
      <trkpt lat="45.8216" lon="1.19948">
        <ele>255.4</ele>
        <time>2024-09-25T12:51:14Z</time>
      </trkpt>
      <trkpt lat="45.82159" lon="1.19942">
        <ele>255.5</ele>
        <time>2024-09-25T12:51:15Z</time>
      </trkpt>
      <trkpt lat="45.82159" lon="1.19936">
        <ele>255.6</ele>
        <time>2024-09-25T12:51:16Z</time>
      </trkpt>
      <trkpt lat="45.82158" lon="1.19929">
        <ele>255.6</ele>
        <time>2024-09-25T12:51:17Z</time>
      </trkpt>
      <trkpt lat="45.82157" lon="1.19923">
        <ele>255.7</ele>
        <time>2024-09-25T12:51:18Z</time>
      </trkpt>
      <trkpt lat="45.82156" lon="1.19917">
        <ele>255.8</ele>
        <time>2024-09-25T12:51:19Z</time>
      </trkpt>
      <trkpt lat="45.82155" lon="1.19911">
        <ele>255.8</ele>
        <time>2024-09-25T12:51:20Z</time>
      </trkpt>
      <trkpt lat="45.82155" lon="1.19906">
        <ele>255.9</ele>
        <time>2024-09-25T12:51:21Z</time>
      </trkpt>
      <trkpt lat="45.82154" lon="1.199">
        <ele>255.9</ele>
        <time>2024-09-25T12:51:22Z</time>
      </trkpt>
      <trkpt lat="45.82153" lon="1.19895">
        <ele>256</ele>
        <time>2024-09-25T12:51:23Z</time>
      </trkpt>
      <trkpt lat="45.82152" lon="1.19889">
        <ele>256</ele>
        <time>2024-09-25T12:51:24Z</time>
      </trkpt>
      <trkpt lat="45.82151" lon="1.19884">
        <ele>256.1</ele>
        <time>2024-09-25T12:51:25Z</time>
      </trkpt>
      <trkpt lat="45.82151" lon="1.19879">
        <ele>256.1</ele>
        <time>2024-09-25T12:51:26Z</time>
      </trkpt>
      <trkpt lat="45.8215" lon="1.19873">
        <ele>256.2</ele>
        <time>2024-09-25T12:51:27Z</time>
      </trkpt>
      <trkpt lat="45.82149" lon="1.19868">
        <ele>256.2</ele>
        <time>2024-09-25T12:51:28Z</time>
      </trkpt>
      <trkpt lat="45.82148" lon="1.19862">
        <ele>256.3</ele>
        <time>2024-09-25T12:51:29Z</time>
      </trkpt>
      <trkpt lat="45.82148" lon="1.19857">
        <ele>256.3</ele>
        <time>2024-09-25T12:51:30Z</time>
      </trkpt>
      <trkpt lat="45.82148" lon="1.19852">
        <ele>256.4</ele>
        <time>2024-09-25T12:51:31Z</time>
      </trkpt>
      <trkpt lat="45.8215" lon="1.19847">
        <ele>256.5</ele>
        <time>2024-09-25T12:51:32Z</time>
      </trkpt>
      <trkpt lat="45.82152" lon="1.19843">
        <ele>256.5</ele>
        <time>2024-09-25T12:51:33Z</time>
      </trkpt>
      <trkpt lat="45.82154" lon="1.1984">
        <ele>256.5</ele>
        <time>2024-09-25T12:51:34Z</time>
      </trkpt>
      <trkpt lat="45.82156" lon="1.19836">
        <ele>256.7</ele>
        <time>2024-09-25T12:52:19Z</time>
      </trkpt>
      <trkpt lat="45.8216" lon="1.19833">
        <ele>256.7</ele>
        <time>2024-09-25T12:52:21Z</time>
      </trkpt>
      <trkpt lat="45.82163" lon="1.19832">
        <ele>256.7</ele>
        <time>2024-09-25T12:52:22Z</time>
      </trkpt>
      <trkpt lat="45.82167" lon="1.19832">
        <ele>256.9</ele>
        <time>2024-09-25T12:52:23Z</time>
      </trkpt>
      <trkpt lat="45.8217" lon="1.19832">
        <ele>257</ele>
        <time>2024-09-25T12:52:24Z</time>
      </trkpt>
      <trkpt lat="45.82174" lon="1.19831">
        <ele>257.1</ele>
        <time>2024-09-25T12:52:25Z</time>
      </trkpt>
      <trkpt lat="45.82178" lon="1.19831">
        <ele>257.2</ele>
        <time>2024-09-25T12:52:26Z</time>
      </trkpt>
      <trkpt lat="45.82182" lon="1.19831">
        <ele>257.3</ele>
        <time>2024-09-25T12:52:27Z</time>
      </trkpt>
      <trkpt lat="45.82186" lon="1.19831">
        <ele>257.4</ele>
        <time>2024-09-25T12:52:28Z</time>
      </trkpt>
      <trkpt lat="45.82189" lon="1.19832">
        <ele>257.5</ele>
        <time>2024-09-25T12:52:29Z</time>
      </trkpt>
      <trkpt lat="45.82193" lon="1.19832">
        <ele>257.7</ele>
        <time>2024-09-25T12:52:30Z</time>
      </trkpt>
      <trkpt lat="45.82197" lon="1.19832">
        <ele>257.8</ele>
        <time>2024-09-25T12:52:31Z</time>
      </trkpt>
      <trkpt lat="45.82201" lon="1.19832">
        <ele>258</ele>
        <time>2024-09-25T12:52:32Z</time>
      </trkpt>
      <trkpt lat="45.82205" lon="1.19831">
        <ele>258.1</ele>
        <time>2024-09-25T12:52:33Z</time>
      </trkpt>
      <trkpt lat="45.82209" lon="1.19831">
        <ele>258.2</ele>
        <time>2024-09-25T12:52:34Z</time>
      </trkpt>
      <trkpt lat="45.82213" lon="1.19831">
        <ele>258.4</ele>
        <time>2024-09-25T12:52:35Z</time>
      </trkpt>
      <trkpt lat="45.82216" lon="1.19831">
        <ele>258.5</ele>
        <time>2024-09-25T12:52:36Z</time>
      </trkpt>
      <trkpt lat="45.82219" lon="1.1983">
        <ele>258.6</ele>
        <time>2024-09-25T12:52:37Z</time>
      </trkpt>
      <trkpt lat="45.82223" lon="1.19829">
        <ele>258.7</ele>
        <time>2024-09-25T12:52:38Z</time>
      </trkpt>
      <trkpt lat="45.82226" lon="1.19829">
        <ele>258.8</ele>
        <time>2024-09-25T12:52:39Z</time>
      </trkpt>
      <trkpt lat="45.8223" lon="1.19829">
        <ele>258.9</ele>
        <time>2024-09-25T12:52:40Z</time>
      </trkpt>
      <trkpt lat="45.82233" lon="1.19828">
        <ele>259.1</ele>
        <time>2024-09-25T12:52:41Z</time>
      </trkpt>
      <trkpt lat="45.82237" lon="1.19827">
        <ele>259.3</ele>
        <time>2024-09-25T12:52:42Z</time>
      </trkpt>
      <trkpt lat="45.82241" lon="1.19826">
        <ele>259.6</ele>
        <time>2024-09-25T12:52:43Z</time>
      </trkpt>
      <trkpt lat="45.82245" lon="1.19824">
        <ele>259.8</ele>
        <time>2024-09-25T12:52:44Z</time>
      </trkpt>
      <trkpt lat="45.82248" lon="1.19822">
        <ele>260</ele>
        <time>2024-09-25T12:52:45Z</time>
      </trkpt>
      <trkpt lat="45.82252" lon="1.19819">
        <ele>260.3</ele>
        <time>2024-09-25T12:52:46Z</time>
      </trkpt>
      <trkpt lat="45.82255" lon="1.19816">
        <ele>260.5</ele>
        <time>2024-09-25T12:52:47Z</time>
      </trkpt>
      <trkpt lat="45.82258" lon="1.19813">
        <ele>260.8</ele>
        <time>2024-09-25T12:52:48Z</time>
      </trkpt>
      <trkpt lat="45.82261" lon="1.1981">
        <ele>261.1</ele>
        <time>2024-09-25T12:52:49Z</time>
      </trkpt>
      <trkpt lat="45.82264" lon="1.19806">
        <ele>261.4</ele>
        <time>2024-09-25T12:52:50Z</time>
      </trkpt>
      <trkpt lat="45.82267" lon="1.19803">
        <ele>261.6</ele>
        <time>2024-09-25T12:52:51Z</time>
      </trkpt>
      <trkpt lat="45.82269" lon="1.198">
        <ele>261.8</ele>
        <time>2024-09-25T12:52:52Z</time>
      </trkpt>
      <trkpt lat="45.82272" lon="1.19797">
        <ele>262</ele>
        <time>2024-09-25T12:52:53Z</time>
      </trkpt>
      <trkpt lat="45.82275" lon="1.19794">
        <ele>262.2</ele>
        <time>2024-09-25T12:52:54Z</time>
      </trkpt>
      <trkpt lat="45.82278" lon="1.19792">
        <ele>262.4</ele>
        <time>2024-09-25T12:52:55Z</time>
      </trkpt>
      <trkpt lat="45.82282" lon="1.1979">
        <ele>262.7</ele>
        <time>2024-09-25T12:52:56Z</time>
      </trkpt>
      <trkpt lat="45.82285" lon="1.19788">
        <ele>262.9</ele>
        <time>2024-09-25T12:52:57Z</time>
      </trkpt>
      <trkpt lat="45.82288" lon="1.19787">
        <ele>263.1</ele>
        <time>2024-09-25T12:52:58Z</time>
      </trkpt>
      <trkpt lat="45.82292" lon="1.19787">
        <ele>263.3</ele>
        <time>2024-09-25T12:52:59Z</time>
      </trkpt>
      <trkpt lat="45.82296" lon="1.19787">
        <ele>263.5</ele>
        <time>2024-09-25T12:53:00Z</time>
      </trkpt>
      <trkpt lat="45.82299" lon="1.19787">
        <ele>263.7</ele>
        <time>2024-09-25T12:53:01Z</time>
      </trkpt>
      <trkpt lat="45.82303" lon="1.19788">
        <ele>263.9</ele>
        <time>2024-09-25T12:53:02Z</time>
      </trkpt>
      <trkpt lat="45.82306" lon="1.19789">
        <ele>264</ele>
        <time>2024-09-25T12:53:03Z</time>
      </trkpt>
      <trkpt lat="45.8231" lon="1.19791">
        <ele>264.2</ele>
        <time>2024-09-25T12:53:04Z</time>
      </trkpt>
      <trkpt lat="45.82314" lon="1.19793">
        <ele>264.4</ele>
        <time>2024-09-25T12:53:05Z</time>
      </trkpt>
      <trkpt lat="45.82317" lon="1.19794">
        <ele>264.5</ele>
        <time>2024-09-25T12:53:06Z</time>
      </trkpt>
      <trkpt lat="45.82321" lon="1.19796">
        <ele>264.7</ele>
        <time>2024-09-25T12:53:07Z</time>
      </trkpt>
      <trkpt lat="45.82325" lon="1.19798">
        <ele>264.8</ele>
        <time>2024-09-25T12:53:08Z</time>
      </trkpt>
      <trkpt lat="45.82328" lon="1.198">
        <ele>264.9</ele>
        <time>2024-09-25T12:53:09Z</time>
      </trkpt>
      <trkpt lat="45.82331" lon="1.19801">
        <ele>265.1</ele>
        <time>2024-09-25T12:53:10Z</time>
      </trkpt>
      <trkpt lat="45.82334" lon="1.19801">
        <ele>265.2</ele>
        <time>2024-09-25T12:53:11Z</time>
      </trkpt>
      <trkpt lat="45.82337" lon="1.19801">
        <ele>265.3</ele>
        <time>2024-09-25T12:53:12Z</time>
      </trkpt>
      <trkpt lat="45.82341" lon="1.19801">
        <ele>265.4</ele>
        <time>2024-09-25T12:53:13Z</time>
      </trkpt>
      <trkpt lat="45.82345" lon="1.198">
        <ele>265.6</ele>
        <time>2024-09-25T12:53:14Z</time>
      </trkpt>
      <trkpt lat="45.82349" lon="1.19799">
        <ele>265.7</ele>
        <time>2024-09-25T12:53:15Z</time>
      </trkpt>
      <trkpt lat="45.82352" lon="1.19797">
        <ele>265.8</ele>
        <time>2024-09-25T12:53:16Z</time>
      </trkpt>
      <trkpt lat="45.82356" lon="1.19795">
        <ele>266</ele>
        <time>2024-09-25T12:53:17Z</time>
      </trkpt>
      <trkpt lat="45.82359" lon="1.19792">
        <ele>266.1</ele>
        <time>2024-09-25T12:53:18Z</time>
      </trkpt>
      <trkpt lat="45.82362" lon="1.19789">
        <ele>266.3</ele>
        <time>2024-09-25T12:53:19Z</time>
      </trkpt>
      <trkpt lat="45.82366" lon="1.19786">
        <ele>266.4</ele>
        <time>2024-09-25T12:53:20Z</time>
      </trkpt>
      <trkpt lat="45.82369" lon="1.19782">
        <ele>266.6</ele>
        <time>2024-09-25T12:53:21Z</time>
      </trkpt>
      <trkpt lat="45.82372" lon="1.19778">
        <ele>266.7</ele>
        <time>2024-09-25T12:53:22Z</time>
      </trkpt>
      <trkpt lat="45.82374" lon="1.19773">
        <ele>266.9</ele>
        <time>2024-09-25T12:53:23Z</time>
      </trkpt>
      <trkpt lat="45.82377" lon="1.19768">
        <ele>267.1</ele>
        <time>2024-09-25T12:53:24Z</time>
      </trkpt>
      <trkpt lat="45.82379" lon="1.19764">
        <ele>267.2</ele>
        <time>2024-09-25T12:53:25Z</time>
      </trkpt>
      <trkpt lat="45.82381" lon="1.19759">
        <ele>267.4</ele>
        <time>2024-09-25T12:53:26Z</time>
      </trkpt>
      <trkpt lat="45.82382" lon="1.19754">
        <ele>267.5</ele>
        <time>2024-09-25T12:53:27Z</time>
      </trkpt>
      <trkpt lat="45.82384" lon="1.19749">
        <ele>267.7</ele>
        <time>2024-09-25T12:53:28Z</time>
      </trkpt>
      <trkpt lat="45.82386" lon="1.19744">
        <ele>267.8</ele>
        <time>2024-09-25T12:53:29Z</time>
      </trkpt>
      <trkpt lat="45.82387" lon="1.19739">
        <ele>268</ele>
        <time>2024-09-25T12:53:30Z</time>
      </trkpt>
      <trkpt lat="45.82389" lon="1.19734">
        <ele>268.1</ele>
        <time>2024-09-25T12:53:31Z</time>
      </trkpt>
      <trkpt lat="45.82391" lon="1.19729">
        <ele>268.3</ele>
        <time>2024-09-25T12:53:32Z</time>
      </trkpt>
      <trkpt lat="45.82393" lon="1.19723">
        <ele>268.5</ele>
        <time>2024-09-25T12:53:33Z</time>
      </trkpt>
      <trkpt lat="45.82395" lon="1.19719">
        <ele>268.6</ele>
        <time>2024-09-25T12:53:34Z</time>
      </trkpt>
      <trkpt lat="45.82398" lon="1.19714">
        <ele>268.8</ele>
        <time>2024-09-25T12:53:35Z</time>
      </trkpt>
      <trkpt lat="45.824" lon="1.19708">
        <ele>269</ele>
        <time>2024-09-25T12:53:36Z</time>
      </trkpt>
      <trkpt lat="45.82402" lon="1.19703">
        <ele>269.1</ele>
        <time>2024-09-25T12:53:37Z</time>
      </trkpt>
      <trkpt lat="45.82404" lon="1.19698">
        <ele>269.3</ele>
        <time>2024-09-25T12:53:38Z</time>
      </trkpt>
      <trkpt lat="45.82406" lon="1.19693">
        <ele>269.5</ele>
        <time>2024-09-25T12:53:39Z</time>
      </trkpt>
      <trkpt lat="45.82408" lon="1.19688">
        <ele>269.6</ele>
        <time>2024-09-25T12:53:40Z</time>
      </trkpt>
      <trkpt lat="45.82411" lon="1.19683">
        <ele>269.8</ele>
        <time>2024-09-25T12:53:41Z</time>
      </trkpt>
      <trkpt lat="45.82414" lon="1.1968">
        <ele>270</ele>
        <time>2024-09-25T12:53:42Z</time>
      </trkpt>
      <trkpt lat="45.82417" lon="1.19678">
        <ele>270</ele>
        <time>2024-09-25T12:53:43Z</time>
      </trkpt>
      <trkpt lat="45.82421" lon="1.19677">
        <ele>270.1</ele>
        <time>2024-09-25T12:53:44Z</time>
      </trkpt>
      <trkpt lat="45.82426" lon="1.19676">
        <ele>270.1</ele>
        <time>2024-09-25T12:53:45Z</time>
      </trkpt>
      <trkpt lat="45.8243" lon="1.19676">
        <ele>270.1</ele>
        <time>2024-09-25T12:53:46Z</time>
      </trkpt>
      <trkpt lat="45.82434" lon="1.19676">
        <ele>270.2</ele>
        <time>2024-09-25T12:53:47Z</time>
      </trkpt>
      <trkpt lat="45.82438" lon="1.19677">
        <ele>270.2</ele>
        <time>2024-09-25T12:53:48Z</time>
      </trkpt>
      <trkpt lat="45.82442" lon="1.19678">
        <ele>270.2</ele>
        <time>2024-09-25T12:53:49Z</time>
      </trkpt>
      <trkpt lat="45.82446" lon="1.19678">
        <ele>270.2</ele>
        <time>2024-09-25T12:53:50Z</time>
      </trkpt>
      <trkpt lat="45.82449" lon="1.19679">
        <ele>270.2</ele>
        <time>2024-09-25T12:53:51Z</time>
      </trkpt>
      <trkpt lat="45.82452" lon="1.1968">
        <ele>270.2</ele>
        <time>2024-09-25T12:53:52Z</time>
      </trkpt>
      <trkpt lat="45.82455" lon="1.19681">
        <ele>270.2</ele>
        <time>2024-09-25T12:53:54Z</time>
      </trkpt>
      <trkpt lat="45.82458" lon="1.19683">
        <ele>270.2</ele>
        <time>2024-09-25T12:53:57Z</time>
      </trkpt>
      <trkpt lat="45.82458" lon="1.19688">
        <ele>270.1</ele>
        <time>2024-09-25T12:54:00Z</time>
      </trkpt>
      <trkpt lat="45.82459" lon="1.19692">
        <ele>270</ele>
        <time>2024-09-25T12:54:03Z</time>
      </trkpt>
      <trkpt lat="45.82462" lon="1.19696">
        <ele>269.7</ele>
        <time>2024-09-25T12:54:05Z</time>
      </trkpt>
      <trkpt lat="45.82464" lon="1.197">
        <ele>269.5</ele>
        <time>2024-09-25T12:54:07Z</time>
      </trkpt>
      <trkpt lat="45.82465" lon="1.19707">
        <ele>269</ele>
        <time>2024-09-25T12:54:09Z</time>
      </trkpt>
      <trkpt lat="45.82464" lon="1.19712">
        <ele>268.6</ele>
        <time>2024-09-25T12:54:10Z</time>
      </trkpt>
      <trkpt lat="45.82463" lon="1.19717">
        <ele>268.3</ele>
        <time>2024-09-25T12:54:11Z</time>
      </trkpt>
      <trkpt lat="45.82461" lon="1.19725">
        <ele>267.7</ele>
        <time>2024-09-25T12:54:12Z</time>
      </trkpt>
      <trkpt lat="45.82458" lon="1.19731">
        <ele>267.1</ele>
        <time>2024-09-25T12:54:13Z</time>
      </trkpt>
      <trkpt lat="45.82455" lon="1.19737">
        <ele>266.6</ele>
        <time>2024-09-25T12:54:14Z</time>
      </trkpt>
      <trkpt lat="45.82453" lon="1.19742">
        <ele>266.3</ele>
        <time>2024-09-25T12:54:15Z</time>
      </trkpt>
      <trkpt lat="45.82451" lon="1.19747">
        <ele>265.9</ele>
        <time>2024-09-25T12:54:16Z</time>
      </trkpt>
      <trkpt lat="45.82449" lon="1.19751">
        <ele>265.5</ele>
        <time>2024-09-25T12:54:17Z</time>
      </trkpt>
      <trkpt lat="45.82447" lon="1.19756">
        <ele>265.1</ele>
        <time>2024-09-25T12:54:18Z</time>
      </trkpt>
      <trkpt lat="45.82445" lon="1.19762">
        <ele>264.7</ele>
        <time>2024-09-25T12:54:20Z</time>
      </trkpt>
      <trkpt lat="45.82444" lon="1.19767">
        <ele>264.5</ele>
        <time>2024-09-25T12:54:21Z</time>
      </trkpt>
      <trkpt lat="45.82442" lon="1.19772">
        <ele>264.2</ele>
        <time>2024-09-25T12:54:22Z</time>
      </trkpt>
      <trkpt lat="45.82439" lon="1.19776">
        <ele>263.9</ele>
        <time>2024-09-25T12:54:23Z</time>
      </trkpt>
      <trkpt lat="45.82437" lon="1.19781">
        <ele>263.6</ele>
        <time>2024-09-25T12:54:24Z</time>
      </trkpt>
      <trkpt lat="45.82434" lon="1.19789">
        <ele>263.2</ele>
        <time>2024-09-25T12:54:25Z</time>
      </trkpt>
      <trkpt lat="45.82431" lon="1.19794">
        <ele>263</ele>
        <time>2024-09-25T12:54:26Z</time>
      </trkpt>
      <trkpt lat="45.82427" lon="1.198">
        <ele>262.8</ele>
        <time>2024-09-25T12:54:27Z</time>
      </trkpt>
      <trkpt lat="45.82424" lon="1.19805">
        <ele>262.6</ele>
        <time>2024-09-25T12:54:28Z</time>
      </trkpt>
      <trkpt lat="45.82421" lon="1.19809">
        <ele>262.5</ele>
        <time>2024-09-25T12:54:29Z</time>
      </trkpt>
      <trkpt lat="45.82419" lon="1.19814">
        <ele>262.4</ele>
        <time>2024-09-25T12:54:30Z</time>
      </trkpt>
      <trkpt lat="45.82417" lon="1.19817">
        <ele>262.4</ele>
        <time>2024-09-25T12:54:31Z</time>
      </trkpt>
      <trkpt lat="45.82414" lon="1.19821">
        <ele>262.3</ele>
        <time>2024-09-25T12:54:33Z</time>
      </trkpt>
      <trkpt lat="45.82411" lon="1.19824">
        <ele>262.1</ele>
        <time>2024-09-25T12:54:34Z</time>
      </trkpt>
      <trkpt lat="45.82409" lon="1.19828">
        <ele>261.9</ele>
        <time>2024-09-25T12:54:35Z</time>
      </trkpt>
      <trkpt lat="45.82407" lon="1.19833">
        <ele>261.7</ele>
        <time>2024-09-25T12:54:36Z</time>
      </trkpt>
      <trkpt lat="45.82406" lon="1.19836">
        <ele>261.5</ele>
        <time>2024-09-25T12:54:37Z</time>
      </trkpt>
      <trkpt lat="45.82407" lon="1.19839">
        <ele>261.4</ele>
        <time>2024-09-25T12:54:40Z</time>
      </trkpt>
      <trkpt lat="45.82409" lon="1.19838">
        <ele>261.4</ele>
        <time>2024-09-25T12:54:42Z</time>
      </trkpt>
      <trkpt lat="45.82412" lon="1.19836">
        <ele>261.2</ele>
        <time>2024-09-25T12:54:43Z</time>
      </trkpt>
      <trkpt lat="45.82413" lon="1.19833">
        <ele>261.2</ele>
        <time>2024-09-25T12:54:44Z</time>
      </trkpt>
      <trkpt lat="45.82415" lon="1.1983">
        <ele>261.1</ele>
        <time>2024-09-25T12:54:45Z</time>
      </trkpt>
      <trkpt lat="45.82417" lon="1.19827">
        <ele>261</ele>
        <time>2024-09-25T12:54:46Z</time>
      </trkpt>
      <trkpt lat="45.82419" lon="1.19824">
        <ele>260.9</ele>
        <time>2024-09-25T12:54:47Z</time>
      </trkpt>
      <trkpt lat="45.82421" lon="1.1982">
        <ele>260.9</ele>
        <time>2024-09-25T12:54:48Z</time>
      </trkpt>
      <trkpt lat="45.82423" lon="1.19816">
        <ele>260.8</ele>
        <time>2024-09-25T12:54:49Z</time>
      </trkpt>
      <trkpt lat="45.82425" lon="1.19812">
        <ele>260.7</ele>
        <time>2024-09-25T12:54:50Z</time>
      </trkpt>
      <trkpt lat="45.82428" lon="1.19808">
        <ele>260.6</ele>
        <time>2024-09-25T12:54:51Z</time>
      </trkpt>
      <trkpt lat="45.82431" lon="1.19805">
        <ele>260.5</ele>
        <time>2024-09-25T12:54:52Z</time>
      </trkpt>
      <trkpt lat="45.82436" lon="1.19802">
        <ele>260.3</ele>
        <time>2024-09-25T12:54:53Z</time>
      </trkpt>
      <trkpt lat="45.8244" lon="1.19799">
        <ele>260.1</ele>
        <time>2024-09-25T12:54:54Z</time>
      </trkpt>
      <trkpt lat="45.82444" lon="1.19796">
        <ele>259.9</ele>
        <time>2024-09-25T12:54:55Z</time>
      </trkpt>
      <trkpt lat="45.82448" lon="1.19793">
        <ele>259.7</ele>
        <time>2024-09-25T12:54:56Z</time>
      </trkpt>
      <trkpt lat="45.82451" lon="1.19789">
        <ele>259.5</ele>
        <time>2024-09-25T12:54:57Z</time>
      </trkpt>
      <trkpt lat="45.82455" lon="1.19786">
        <ele>259.2</ele>
        <time>2024-09-25T12:54:58Z</time>
      </trkpt>
      <trkpt lat="45.8246" lon="1.1978">
        <ele>258.9</ele>
        <time>2024-09-25T12:54:59Z</time>
      </trkpt>
      <trkpt lat="45.82466" lon="1.19774">
        <ele>258.6</ele>
        <time>2024-09-25T12:55:00Z</time>
      </trkpt>
      <trkpt lat="45.82472" lon="1.19768">
        <ele>258.2</ele>
        <time>2024-09-25T12:55:01Z</time>
      </trkpt>
      <trkpt lat="45.82477" lon="1.19763">
        <ele>258</ele>
        <time>2024-09-25T12:55:02Z</time>
      </trkpt>
      <trkpt lat="45.8248" lon="1.19758">
        <ele>257.8</ele>
        <time>2024-09-25T12:55:03Z</time>
      </trkpt>
      <trkpt lat="45.82483" lon="1.19754">
        <ele>257.7</ele>
        <time>2024-09-25T12:55:04Z</time>
      </trkpt>
      <trkpt lat="45.82487" lon="1.19751">
        <ele>257.6</ele>
        <time>2024-09-25T12:55:05Z</time>
      </trkpt>
      <trkpt lat="45.82491" lon="1.19752">
        <ele>257.5</ele>
        <time>2024-09-25T12:55:06Z</time>
      </trkpt>
      <trkpt lat="45.82496" lon="1.19752">
        <ele>257.3</ele>
        <time>2024-09-25T12:55:07Z</time>
      </trkpt>
      <trkpt lat="45.82501" lon="1.19753">
        <ele>257.2</ele>
        <time>2024-09-25T12:55:08Z</time>
      </trkpt>
      <trkpt lat="45.82506" lon="1.19752">
        <ele>257.1</ele>
        <time>2024-09-25T12:55:09Z</time>
      </trkpt>
      <trkpt lat="45.82511" lon="1.1975">
        <ele>257.1</ele>
        <time>2024-09-25T12:55:10Z</time>
      </trkpt>
      <trkpt lat="45.82516" lon="1.19749">
        <ele>257.1</ele>
        <time>2024-09-25T12:55:11Z</time>
      </trkpt>
      <trkpt lat="45.82521" lon="1.19748">
        <ele>257.2</ele>
        <time>2024-09-25T12:55:12Z</time>
      </trkpt>
      <trkpt lat="45.82525" lon="1.19746">
        <ele>257.2</ele>
        <time>2024-09-25T12:55:14Z</time>
      </trkpt>
      <trkpt lat="45.8253" lon="1.19744">
        <ele>257.2</ele>
        <time>2024-09-25T12:55:15Z</time>
      </trkpt>
      <trkpt lat="45.82534" lon="1.19741">
        <ele>257.2</ele>
        <time>2024-09-25T12:55:16Z</time>
      </trkpt>
      <trkpt lat="45.82538" lon="1.19738">
        <ele>257.4</ele>
        <time>2024-09-25T12:55:17Z</time>
      </trkpt>
      <trkpt lat="45.82541" lon="1.19735">
        <ele>257.7</ele>
        <time>2024-09-25T12:55:18Z</time>
      </trkpt>
      <trkpt lat="45.82543" lon="1.19732">
        <ele>257.9</ele>
        <time>2024-09-25T12:55:19Z</time>
      </trkpt>
      <trkpt lat="45.82545" lon="1.19728">
        <ele>258.2</ele>
        <time>2024-09-25T12:55:20Z</time>
      </trkpt>
      <trkpt lat="45.82547" lon="1.19723">
        <ele>258.5</ele>
        <time>2024-09-25T12:55:21Z</time>
      </trkpt>
      <trkpt lat="45.82549" lon="1.19719">
        <ele>258.8</ele>
        <time>2024-09-25T12:55:22Z</time>
      </trkpt>
      <trkpt lat="45.82551" lon="1.19715">
        <ele>259.2</ele>
        <time>2024-09-25T12:55:23Z</time>
      </trkpt>
      <trkpt lat="45.82553" lon="1.19711">
        <ele>259.5</ele>
        <time>2024-09-25T12:55:24Z</time>
      </trkpt>
      <trkpt lat="45.82556" lon="1.19708">
        <ele>259.9</ele>
        <time>2024-09-25T12:55:25Z</time>
      </trkpt>
      <trkpt lat="45.82558" lon="1.19705">
        <ele>260.2</ele>
        <time>2024-09-25T12:55:26Z</time>
      </trkpt>
      <trkpt lat="45.82561" lon="1.19703">
        <ele>260.5</ele>
        <time>2024-09-25T12:55:27Z</time>
      </trkpt>
      <trkpt lat="45.82564" lon="1.19702">
        <ele>260.8</ele>
        <time>2024-09-25T12:55:28Z</time>
      </trkpt>
      <trkpt lat="45.82566" lon="1.197">
        <ele>261.1</ele>
        <time>2024-09-25T12:55:29Z</time>
      </trkpt>
      <trkpt lat="45.82569" lon="1.19695">
        <ele>261.5</ele>
        <time>2024-09-25T12:55:31Z</time>
      </trkpt>
      <trkpt lat="45.82569" lon="1.19689">
        <ele>261.7</ele>
        <time>2024-09-25T12:55:33Z</time>
      </trkpt>
      <trkpt lat="45.82568" lon="1.19684">
        <ele>261.8</ele>
        <time>2024-09-25T12:55:34Z</time>
      </trkpt>
      <trkpt lat="45.82566" lon="1.19679">
        <ele>261.8</ele>
        <time>2024-09-25T12:55:35Z</time>
      </trkpt>
      <trkpt lat="45.82565" lon="1.19674">
        <ele>261.8</ele>
        <time>2024-09-25T12:55:36Z</time>
      </trkpt>
      <trkpt lat="45.82564" lon="1.1967">
        <ele>261.7</ele>
        <time>2024-09-25T12:55:39Z</time>
      </trkpt>
      <trkpt lat="45.82562" lon="1.19667">
        <ele>261.6</ele>
        <time>2024-09-25T12:55:56Z</time>
      </trkpt>
      <trkpt lat="45.8256" lon="1.19663">
        <ele>261.4</ele>
        <time>2024-09-25T12:55:58Z</time>
      </trkpt>
      <trkpt lat="45.82559" lon="1.19657">
        <ele>261</ele>
        <time>2024-09-25T12:56:00Z</time>
      </trkpt>
      <trkpt lat="45.82558" lon="1.19652">
        <ele>260.6</ele>
        <time>2024-09-25T12:56:01Z</time>
      </trkpt>
      <trkpt lat="45.82557" lon="1.19646">
        <ele>260.2</ele>
        <time>2024-09-25T12:56:02Z</time>
      </trkpt>
      <trkpt lat="45.82556" lon="1.1964">
        <ele>259.7</ele>
        <time>2024-09-25T12:56:03Z</time>
      </trkpt>
      <trkpt lat="45.82556" lon="1.19632">
        <ele>259.1</ele>
        <time>2024-09-25T12:56:04Z</time>
      </trkpt>
      <trkpt lat="45.82554" lon="1.19623">
        <ele>258.5</ele>
        <time>2024-09-25T12:56:05Z</time>
      </trkpt>
      <trkpt lat="45.82554" lon="1.19616">
        <ele>258.3</ele>
        <time>2024-09-25T12:56:06Z</time>
      </trkpt>
      <trkpt lat="45.82554" lon="1.19608">
        <ele>258.1</ele>
        <time>2024-09-25T12:56:07Z</time>
      </trkpt>
      <trkpt lat="45.82555" lon="1.19603">
        <ele>258.1</ele>
        <time>2024-09-25T12:56:08Z</time>
      </trkpt>
      <trkpt lat="45.82556" lon="1.19598">
        <ele>258.1</ele>
        <time>2024-09-25T12:56:09Z</time>
      </trkpt>
      <trkpt lat="45.82556" lon="1.19593">
        <ele>258.2</ele>
        <time>2024-09-25T12:56:10Z</time>
      </trkpt>
      <trkpt lat="45.82557" lon="1.19588">
        <ele>258.3</ele>
        <time>2024-09-25T12:56:11Z</time>
      </trkpt>
      <trkpt lat="45.82557" lon="1.19583">
        <ele>258.4</ele>
        <time>2024-09-25T12:56:12Z</time>
      </trkpt>
      <trkpt lat="45.82557" lon="1.19579">
        <ele>258.4</ele>
        <time>2024-09-25T12:56:13Z</time>
      </trkpt>
      <trkpt lat="45.82558" lon="1.19575">
        <ele>258.5</ele>
        <time>2024-09-25T12:56:14Z</time>
      </trkpt>
      <trkpt lat="45.82558" lon="1.1957">
        <ele>258.6</ele>
        <time>2024-09-25T12:56:15Z</time>
      </trkpt>
      <trkpt lat="45.82559" lon="1.19565">
        <ele>258.7</ele>
        <time>2024-09-25T12:56:16Z</time>
      </trkpt>
      <trkpt lat="45.82559" lon="1.19559">
        <ele>258.8</ele>
        <time>2024-09-25T12:56:17Z</time>
      </trkpt>
      <trkpt lat="45.8256" lon="1.19554">
        <ele>258.9</ele>
        <time>2024-09-25T12:56:18Z</time>
      </trkpt>
      <trkpt lat="45.82561" lon="1.19549">
        <ele>259</ele>
        <time>2024-09-25T12:56:19Z</time>
      </trkpt>
      <trkpt lat="45.82561" lon="1.19544">
        <ele>259.1</ele>
        <time>2024-09-25T12:56:20Z</time>
      </trkpt>
      <trkpt lat="45.82562" lon="1.19539">
        <ele>259.3</ele>
        <time>2024-09-25T12:56:21Z</time>
      </trkpt>
      <trkpt lat="45.82562" lon="1.19535">
        <ele>259.3</ele>
        <time>2024-09-25T12:56:22Z</time>
      </trkpt>
      <trkpt lat="45.82563" lon="1.19531">
        <ele>259.4</ele>
        <time>2024-09-25T12:56:23Z</time>
      </trkpt>
      <trkpt lat="45.82564" lon="1.19525">
        <ele>259.6</ele>
        <time>2024-09-25T12:56:25Z</time>
      </trkpt>
      <trkpt lat="45.82564" lon="1.1952">
        <ele>259.7</ele>
        <time>2024-09-25T12:56:27Z</time>
      </trkpt>
      <trkpt lat="45.82565" lon="1.19515">
        <ele>259.8</ele>
        <time>2024-09-25T12:56:29Z</time>
      </trkpt>
      <trkpt lat="45.82566" lon="1.1951">
        <ele>260</ele>
        <time>2024-09-25T12:56:31Z</time>
      </trkpt>
      <trkpt lat="45.82567" lon="1.19504">
        <ele>260.1</ele>
        <time>2024-09-25T12:56:33Z</time>
      </trkpt>
      <trkpt lat="45.82567" lon="1.19499">
        <ele>260.2</ele>
        <time>2024-09-25T12:56:34Z</time>
      </trkpt>
      <trkpt lat="45.82567" lon="1.19493">
        <ele>260.3</ele>
        <time>2024-09-25T12:56:36Z</time>
      </trkpt>
      <trkpt lat="45.82567" lon="1.19487">
        <ele>260.4</ele>
        <time>2024-09-25T12:56:37Z</time>
      </trkpt>
      <trkpt lat="45.82567" lon="1.1948">
        <ele>260.6</ele>
        <time>2024-09-25T12:56:38Z</time>
      </trkpt>
      <trkpt lat="45.82567" lon="1.19474">
        <ele>260.7</ele>
        <time>2024-09-25T12:56:39Z</time>
      </trkpt>
      <trkpt lat="45.82568" lon="1.19469">
        <ele>260.8</ele>
        <time>2024-09-25T12:56:40Z</time>
      </trkpt>
      <trkpt lat="45.82568" lon="1.19464">
        <ele>260.9</ele>
        <time>2024-09-25T12:56:41Z</time>
      </trkpt>
      <trkpt lat="45.82568" lon="1.19459">
        <ele>261</ele>
        <time>2024-09-25T12:56:42Z</time>
      </trkpt>
      <trkpt lat="45.82568" lon="1.19454">
        <ele>261.2</ele>
        <time>2024-09-25T12:56:43Z</time>
      </trkpt>
      <trkpt lat="45.82569" lon="1.19447">
        <ele>261.4</ele>
        <time>2024-09-25T12:56:45Z</time>
      </trkpt>
      <trkpt lat="45.82568" lon="1.19439">
        <ele>261.6</ele>
        <time>2024-09-25T12:56:47Z</time>
      </trkpt>
      <trkpt lat="45.82567" lon="1.19434">
        <ele>261.8</ele>
        <time>2024-09-25T12:56:48Z</time>
      </trkpt>
      <trkpt lat="45.82566" lon="1.19428">
        <ele>262</ele>
        <time>2024-09-25T12:56:49Z</time>
      </trkpt>
      <trkpt lat="45.82566" lon="1.19422">
        <ele>262.2</ele>
        <time>2024-09-25T12:56:50Z</time>
      </trkpt>
      <trkpt lat="45.82565" lon="1.19417">
        <ele>262.3</ele>
        <time>2024-09-25T12:56:51Z</time>
      </trkpt>
      <trkpt lat="45.82565" lon="1.19411">
        <ele>262.4</ele>
        <time>2024-09-25T12:56:52Z</time>
      </trkpt>
      <trkpt lat="45.82566" lon="1.19405">
        <ele>262.6</ele>
        <time>2024-09-25T12:56:53Z</time>
      </trkpt>
      <trkpt lat="45.82565" lon="1.194">
        <ele>262.7</ele>
        <time>2024-09-25T12:56:54Z</time>
      </trkpt>
      <trkpt lat="45.82565" lon="1.19395">
        <ele>262.8</ele>
        <time>2024-09-25T12:56:55Z</time>
      </trkpt>
      <trkpt lat="45.82564" lon="1.1939">
        <ele>262.9</ele>
        <time>2024-09-25T12:56:56Z</time>
      </trkpt>
      <trkpt lat="45.82563" lon="1.19385">
        <ele>263.1</ele>
        <time>2024-09-25T12:56:57Z</time>
      </trkpt>
      <trkpt lat="45.82563" lon="1.1938">
        <ele>263.2</ele>
        <time>2024-09-25T12:56:58Z</time>
      </trkpt>
      <trkpt lat="45.82563" lon="1.19375">
        <ele>263.3</ele>
        <time>2024-09-25T12:56:59Z</time>
      </trkpt>
      <trkpt lat="45.82563" lon="1.19371">
        <ele>263.4</ele>
        <time>2024-09-25T12:57:00Z</time>
      </trkpt>
      <trkpt lat="45.82563" lon="1.19366">
        <ele>263.6</ele>
        <time>2024-09-25T12:57:01Z</time>
      </trkpt>
      <trkpt lat="45.82564" lon="1.19362">
        <ele>263.7</ele>
        <time>2024-09-25T12:57:02Z</time>
      </trkpt>
      <trkpt lat="45.82563" lon="1.19357">
        <ele>263.8</ele>
        <time>2024-09-25T12:57:03Z</time>
      </trkpt>
      <trkpt lat="45.82563" lon="1.19352">
        <ele>263.9</ele>
        <time>2024-09-25T12:57:04Z</time>
      </trkpt>
      <trkpt lat="45.82564" lon="1.19348">
        <ele>264</ele>
        <time>2024-09-25T12:57:06Z</time>
      </trkpt>
      <trkpt lat="45.82564" lon="1.19341">
        <ele>264.2</ele>
        <time>2024-09-25T12:57:08Z</time>
      </trkpt>
      <trkpt lat="45.82563" lon="1.19334">
        <ele>264.4</ele>
        <time>2024-09-25T12:57:09Z</time>
      </trkpt>
      <trkpt lat="45.82565" lon="1.19329">
        <ele>264.6</ele>
        <time>2024-09-25T12:57:10Z</time>
      </trkpt>
      <trkpt lat="45.82565" lon="1.19323">
        <ele>264.9</ele>
        <time>2024-09-25T12:57:11Z</time>
      </trkpt>
      <trkpt lat="45.82565" lon="1.19316">
        <ele>265.1</ele>
        <time>2024-09-25T12:57:13Z</time>
      </trkpt>
      <trkpt lat="45.82566" lon="1.1931">
        <ele>265.4</ele>
        <time>2024-09-25T12:57:14Z</time>
      </trkpt>
      <trkpt lat="45.82566" lon="1.19305">
        <ele>265.6</ele>
        <time>2024-09-25T12:57:15Z</time>
      </trkpt>
      <trkpt lat="45.82567" lon="1.193">
        <ele>265.9</ele>
        <time>2024-09-25T12:57:16Z</time>
      </trkpt>
      <trkpt lat="45.82568" lon="1.19294">
        <ele>266.2</ele>
        <time>2024-09-25T12:57:18Z</time>
      </trkpt>
      <trkpt lat="45.82569" lon="1.19289">
        <ele>266.6</ele>
        <time>2024-09-25T12:57:20Z</time>
      </trkpt>
      <trkpt lat="45.8257" lon="1.19283">
        <ele>266.9</ele>
        <time>2024-09-25T12:57:22Z</time>
      </trkpt>
      <trkpt lat="45.82572" lon="1.19276">
        <ele>267.4</ele>
        <time>2024-09-25T12:57:24Z</time>
      </trkpt>
      <trkpt lat="45.82573" lon="1.19269">
        <ele>267.8</ele>
        <time>2024-09-25T12:57:26Z</time>
      </trkpt>
      <trkpt lat="45.82573" lon="1.19263">
        <ele>268</ele>
        <time>2024-09-25T12:57:27Z</time>
      </trkpt>
      <trkpt lat="45.82573" lon="1.19257">
        <ele>268.3</ele>
        <time>2024-09-25T12:57:29Z</time>
      </trkpt>
      <trkpt lat="45.82573" lon="1.19252">
        <ele>268.5</ele>
        <time>2024-09-25T12:57:30Z</time>
      </trkpt>
      <trkpt lat="45.82573" lon="1.19248">
        <ele>268.6</ele>
        <time>2024-09-25T12:57:31Z</time>
      </trkpt>
      <trkpt lat="45.82574" lon="1.19244">
        <ele>268.8</ele>
        <time>2024-09-25T12:57:32Z</time>
      </trkpt>
      <trkpt lat="45.82574" lon="1.19239">
        <ele>268.9</ele>
        <time>2024-09-25T12:57:33Z</time>
      </trkpt>
      <trkpt lat="45.82575" lon="1.19235">
        <ele>269</ele>
        <time>2024-09-25T12:57:34Z</time>
      </trkpt>
      <trkpt lat="45.82575" lon="1.19229">
        <ele>269.2</ele>
        <time>2024-09-25T12:57:36Z</time>
      </trkpt>
      <trkpt lat="45.82576" lon="1.19224">
        <ele>269.3</ele>
        <time>2024-09-25T12:57:37Z</time>
      </trkpt>
      <trkpt lat="45.82577" lon="1.1922">
        <ele>269.4</ele>
        <time>2024-09-25T12:57:38Z</time>
      </trkpt>
      <trkpt lat="45.82579" lon="1.19215">
        <ele>269.6</ele>
        <time>2024-09-25T12:57:40Z</time>
      </trkpt>
      <trkpt lat="45.82582" lon="1.1921">
        <ele>269.7</ele>
        <time>2024-09-25T12:57:41Z</time>
      </trkpt>
      <trkpt lat="45.82584" lon="1.19206">
        <ele>269.7</ele>
        <time>2024-09-25T12:57:42Z</time>
      </trkpt>
      <trkpt lat="45.82586" lon="1.19203">
        <ele>269.8</ele>
        <time>2024-09-25T12:57:43Z</time>
      </trkpt>
      <trkpt lat="45.82589" lon="1.192">
        <ele>269.8</ele>
        <time>2024-09-25T12:57:44Z</time>
      </trkpt>
      <trkpt lat="45.82593" lon="1.19197">
        <ele>269.9</ele>
        <time>2024-09-25T12:57:45Z</time>
      </trkpt>
      <trkpt lat="45.82597" lon="1.19194">
        <ele>270</ele>
        <time>2024-09-25T12:57:46Z</time>
      </trkpt>
      <trkpt lat="45.826" lon="1.19192">
        <ele>270</ele>
        <time>2024-09-25T12:57:47Z</time>
      </trkpt>
      <trkpt lat="45.82603" lon="1.19191">
        <ele>270.1</ele>
        <time>2024-09-25T12:57:48Z</time>
      </trkpt>
      <trkpt lat="45.82606" lon="1.1919">
        <ele>270.2</ele>
        <time>2024-09-25T12:57:49Z</time>
      </trkpt>
      <trkpt lat="45.8261" lon="1.19188">
        <ele>270.2</ele>
        <time>2024-09-25T12:57:50Z</time>
      </trkpt>
      <trkpt lat="45.82613" lon="1.19187">
        <ele>270.3</ele>
        <time>2024-09-25T12:57:51Z</time>
      </trkpt>
      <trkpt lat="45.82617" lon="1.19186">
        <ele>270.4</ele>
        <time>2024-09-25T12:57:53Z</time>
      </trkpt>
      <trkpt lat="45.82621" lon="1.19186">
        <ele>270.4</ele>
        <time>2024-09-25T12:57:54Z</time>
      </trkpt>
      <trkpt lat="45.82624" lon="1.19184">
        <ele>270.5</ele>
        <time>2024-09-25T12:57:56Z</time>
      </trkpt>
      <trkpt lat="45.82628" lon="1.19183">
        <ele>270.5</ele>
        <time>2024-09-25T12:57:57Z</time>
      </trkpt>
      <trkpt lat="45.82632" lon="1.19182">
        <ele>270.6</ele>
        <time>2024-09-25T12:57:58Z</time>
      </trkpt>
      <trkpt lat="45.82636" lon="1.19181">
        <ele>270.6</ele>
        <time>2024-09-25T12:57:59Z</time>
      </trkpt>
      <trkpt lat="45.8264" lon="1.19179">
        <ele>270.7</ele>
        <time>2024-09-25T12:58:00Z</time>
      </trkpt>
      <trkpt lat="45.82642" lon="1.19177">
        <ele>270.8</ele>
        <time>2024-09-25T12:58:01Z</time>
      </trkpt>
      <trkpt lat="45.82645" lon="1.19175">
        <ele>270.9</ele>
        <time>2024-09-25T12:58:02Z</time>
      </trkpt>
      <trkpt lat="45.82648" lon="1.19173">
        <ele>271</ele>
        <time>2024-09-25T12:58:03Z</time>
      </trkpt>
      <trkpt lat="45.8265" lon="1.1917">
        <ele>271.1</ele>
        <time>2024-09-25T12:58:04Z</time>
      </trkpt>
      <trkpt lat="45.82652" lon="1.19166">
        <ele>271.3</ele>
        <time>2024-09-25T12:58:05Z</time>
      </trkpt>
      <trkpt lat="45.82652" lon="1.1916">
        <ele>271.5</ele>
        <time>2024-09-25T12:58:07Z</time>
      </trkpt>
      <trkpt lat="45.82652" lon="1.19154">
        <ele>271.8</ele>
        <time>2024-09-25T12:58:09Z</time>
      </trkpt>
      <trkpt lat="45.82652" lon="1.1915">
        <ele>271.9</ele>
        <time>2024-09-25T12:58:34Z</time>
      </trkpt>
      <trkpt lat="45.82652" lon="1.19143">
        <ele>271.9</ele>
        <time>2024-09-25T12:58:57Z</time>
      </trkpt>
      <trkpt lat="45.82652" lon="1.19138">
        <ele>271.9</ele>
        <time>2024-09-25T12:58:58Z</time>
      </trkpt>
      <trkpt lat="45.82653" lon="1.19134">
        <ele>271.9</ele>
        <time>2024-09-25T12:58:59Z</time>
      </trkpt>
      <trkpt lat="45.82655" lon="1.19129">
        <ele>272</ele>
        <time>2024-09-25T12:59:00Z</time>
      </trkpt>
      <trkpt lat="45.82657" lon="1.19125">
        <ele>272</ele>
        <time>2024-09-25T12:59:01Z</time>
      </trkpt>
      <trkpt lat="45.82659" lon="1.19121">
        <ele>272.1</ele>
        <time>2024-09-25T12:59:02Z</time>
      </trkpt>
      <trkpt lat="45.82661" lon="1.19117">
        <ele>272.1</ele>
        <time>2024-09-25T12:59:03Z</time>
      </trkpt>
      <trkpt lat="45.82663" lon="1.19113">
        <ele>272.2</ele>
        <time>2024-09-25T12:59:04Z</time>
      </trkpt>
      <trkpt lat="45.82665" lon="1.1911">
        <ele>272.3</ele>
        <time>2024-09-25T12:59:05Z</time>
      </trkpt>
      <trkpt lat="45.82668" lon="1.19106">
        <ele>272.5</ele>
        <time>2024-09-25T12:59:06Z</time>
      </trkpt>
      <trkpt lat="45.8267" lon="1.19103">
        <ele>272.6</ele>
        <time>2024-09-25T12:59:07Z</time>
      </trkpt>
      <trkpt lat="45.82672" lon="1.19101">
        <ele>272.7</ele>
        <time>2024-09-25T12:59:08Z</time>
      </trkpt>
      <trkpt lat="45.82674" lon="1.19097">
        <ele>272.9</ele>
        <time>2024-09-25T12:59:09Z</time>
      </trkpt>
      <trkpt lat="45.82677" lon="1.19094">
        <ele>273.2</ele>
        <time>2024-09-25T12:59:10Z</time>
      </trkpt>
      <trkpt lat="45.8268" lon="1.19089">
        <ele>273.5</ele>
        <time>2024-09-25T12:59:12Z</time>
      </trkpt>
      <trkpt lat="45.82682" lon="1.19085">
        <ele>273.7</ele>
        <time>2024-09-25T12:59:13Z</time>
      </trkpt>
      <trkpt lat="45.82683" lon="1.19081">
        <ele>274</ele>
        <time>2024-09-25T12:59:14Z</time>
      </trkpt>
      <trkpt lat="45.82685" lon="1.19078">
        <ele>274.2</ele>
        <time>2024-09-25T12:59:15Z</time>
      </trkpt>
      <trkpt lat="45.82687" lon="1.19074">
        <ele>274.4</ele>
        <time>2024-09-25T12:59:16Z</time>
      </trkpt>
      <trkpt lat="45.82688" lon="1.1907">
        <ele>274.7</ele>
        <time>2024-09-25T12:59:17Z</time>
      </trkpt>
      <trkpt lat="45.82689" lon="1.19067">
        <ele>274.8</ele>
        <time>2024-09-25T12:59:18Z</time>
      </trkpt>
      <trkpt lat="45.82691" lon="1.19063">
        <ele>275.1</ele>
        <time>2024-09-25T12:59:19Z</time>
      </trkpt>
      <trkpt lat="45.82692" lon="1.19057">
        <ele>275.4</ele>
        <time>2024-09-25T12:59:21Z</time>
      </trkpt>
      <trkpt lat="45.82693" lon="1.19052">
        <ele>275.7</ele>
        <time>2024-09-25T12:59:22Z</time>
      </trkpt>
      <trkpt lat="45.82693" lon="1.19048">
        <ele>275.9</ele>
        <time>2024-09-25T12:59:23Z</time>
      </trkpt>
      <trkpt lat="45.82694" lon="1.19044">
        <ele>276.1</ele>
        <time>2024-09-25T12:59:24Z</time>
      </trkpt>
      <trkpt lat="45.82694" lon="1.19039">
        <ele>276.3</ele>
        <time>2024-09-25T12:59:25Z</time>
      </trkpt>
      <trkpt lat="45.82694" lon="1.19035">
        <ele>276.5</ele>
        <time>2024-09-25T12:59:26Z</time>
      </trkpt>
      <trkpt lat="45.82694" lon="1.19031">
        <ele>276.7</ele>
        <time>2024-09-25T12:59:27Z</time>
      </trkpt>
      <trkpt lat="45.82693" lon="1.19026">
        <ele>276.9</ele>
        <time>2024-09-25T12:59:28Z</time>
      </trkpt>
      <trkpt lat="45.82693" lon="1.19022">
        <ele>277.1</ele>
        <time>2024-09-25T12:59:29Z</time>
      </trkpt>
      <trkpt lat="45.82693" lon="1.19017">
        <ele>277.3</ele>
        <time>2024-09-25T12:59:30Z</time>
      </trkpt>
      <trkpt lat="45.82693" lon="1.19013">
        <ele>277.4</ele>
        <time>2024-09-25T12:59:31Z</time>
      </trkpt>
      <trkpt lat="45.82692" lon="1.19008">
        <ele>277.6</ele>
        <time>2024-09-25T12:59:32Z</time>
      </trkpt>
      <trkpt lat="45.82692" lon="1.19004">
        <ele>277.8</ele>
        <time>2024-09-25T12:59:33Z</time>
      </trkpt>
      <trkpt lat="45.82691" lon="1.18999">
        <ele>278</ele>
        <time>2024-09-25T12:59:34Z</time>
      </trkpt>
      <trkpt lat="45.8269" lon="1.18995">
        <ele>278.1</ele>
        <time>2024-09-25T12:59:35Z</time>
      </trkpt>
      <trkpt lat="45.8269" lon="1.18989">
        <ele>278.4</ele>
        <time>2024-09-25T12:59:37Z</time>
      </trkpt>
      <trkpt lat="45.82689" lon="1.18984">
        <ele>278.6</ele>
        <time>2024-09-25T12:59:38Z</time>
      </trkpt>
      <trkpt lat="45.82688" lon="1.18977">
        <ele>278.9</ele>
        <time>2024-09-25T12:59:40Z</time>
      </trkpt>
      <trkpt lat="45.82687" lon="1.18973">
        <ele>279</ele>
        <time>2024-09-25T12:59:41Z</time>
      </trkpt>
      <trkpt lat="45.82686" lon="1.18968">
        <ele>279.2</ele>
        <time>2024-09-25T12:59:42Z</time>
      </trkpt>
      <trkpt lat="45.82685" lon="1.18964">
        <ele>279.4</ele>
        <time>2024-09-25T12:59:43Z</time>
      </trkpt>
      <trkpt lat="45.82684" lon="1.1896">
        <ele>279.6</ele>
        <time>2024-09-25T12:59:44Z</time>
      </trkpt>
      <trkpt lat="45.82683" lon="1.18956">
        <ele>279.8</ele>
        <time>2024-09-25T12:59:45Z</time>
      </trkpt>
      <trkpt lat="45.82682" lon="1.18952">
        <ele>280</ele>
        <time>2024-09-25T12:59:46Z</time>
      </trkpt>
      <trkpt lat="45.82682" lon="1.18948">
        <ele>280.2</ele>
        <time>2024-09-25T12:59:47Z</time>
      </trkpt>
      <trkpt lat="45.82681" lon="1.18943">
        <ele>280.4</ele>
        <time>2024-09-25T12:59:49Z</time>
      </trkpt>
      <trkpt lat="45.82682" lon="1.18937">
        <ele>280.7</ele>
        <time>2024-09-25T12:59:51Z</time>
      </trkpt>
      <trkpt lat="45.82686" lon="1.18934">
        <ele>281.4</ele>
        <time>2024-09-25T12:59:53Z</time>
      </trkpt>
      <trkpt lat="45.8269" lon="1.18932">
        <ele>281.9</ele>
        <time>2024-09-25T12:59:55Z</time>
      </trkpt>
      <trkpt lat="45.82693" lon="1.1893">
        <ele>282.3</ele>
        <time>2024-09-25T12:59:57Z</time>
      </trkpt>
      <trkpt lat="45.82697" lon="1.18929">
        <ele>282.8</ele>
        <time>2024-09-25T12:59:59Z</time>
      </trkpt>
      <trkpt lat="45.82701" lon="1.18928">
        <ele>283.4</ele>
        <time>2024-09-25T13:00:01Z</time>
      </trkpt>
      <trkpt lat="45.82705" lon="1.18928">
        <ele>284</ele>
        <time>2024-09-25T13:00:03Z</time>
      </trkpt>
      <trkpt lat="45.82709" lon="1.18927">
        <ele>284.6</ele>
        <time>2024-09-25T13:00:04Z</time>
      </trkpt>
      <trkpt lat="45.82712" lon="1.18927">
        <ele>285</ele>
        <time>2024-09-25T13:00:05Z</time>
      </trkpt>
      <trkpt lat="45.82716" lon="1.18926">
        <ele>285.6</ele>
        <time>2024-09-25T13:00:07Z</time>
      </trkpt>
      <trkpt lat="45.82719" lon="1.18925">
        <ele>286</ele>
        <time>2024-09-25T13:00:10Z</time>
      </trkpt>
      <trkpt lat="45.82723" lon="1.18924">
        <ele>286.5</ele>
        <time>2024-09-25T13:00:12Z</time>
      </trkpt>
      <trkpt lat="45.82728" lon="1.18922">
        <ele>287.2</ele>
        <time>2024-09-25T13:00:14Z</time>
      </trkpt>
      <trkpt lat="45.82732" lon="1.18918">
        <ele>287.9</ele>
        <time>2024-09-25T13:00:16Z</time>
      </trkpt>
      <trkpt lat="45.82734" lon="1.18914">
        <ele>288.6</ele>
        <time>2024-09-25T13:00:23Z</time>
      </trkpt>
      <trkpt lat="45.82737" lon="1.18911">
        <ele>289.4</ele>
        <time>2024-09-25T13:00:31Z</time>
      </trkpt>
      <trkpt lat="45.8274" lon="1.18908">
        <ele>290.2</ele>
        <time>2024-09-25T13:00:48Z</time>
      </trkpt>
      <trkpt lat="45.82743" lon="1.18905">
        <ele>291</ele>
        <time>2024-09-25T13:00:50Z</time>
      </trkpt>
      <trkpt lat="45.82745" lon="1.18902">
        <ele>291.6</ele>
        <time>2024-09-25T13:00:52Z</time>
      </trkpt>
      <trkpt lat="45.82748" lon="1.18897">
        <ele>292.5</ele>
        <time>2024-09-25T13:00:54Z</time>
      </trkpt>
      <trkpt lat="45.82751" lon="1.18891">
        <ele>293.5</ele>
        <time>2024-09-25T13:00:56Z</time>
      </trkpt>
      <trkpt lat="45.82754" lon="1.18887">
        <ele>294.3</ele>
        <time>2024-09-25T13:00:57Z</time>
      </trkpt>
      <trkpt lat="45.82756" lon="1.18883">
        <ele>294.8</ele>
        <time>2024-09-25T13:00:59Z</time>
      </trkpt>
      <trkpt lat="45.82757" lon="1.18877">
        <ele>295.5</ele>
        <time>2024-09-25T13:01:01Z</time>
      </trkpt>
      <trkpt lat="45.82757" lon="1.18872">
        <ele>296.1</ele>
        <time>2024-09-25T13:01:03Z</time>
      </trkpt>
      <trkpt lat="45.82757" lon="1.18866">
        <ele>296.8</ele>
        <time>2024-09-25T13:01:05Z</time>
      </trkpt>
      <trkpt lat="45.82758" lon="1.18861">
        <ele>297.3</ele>
        <time>2024-09-25T13:01:06Z</time>
      </trkpt>
      <trkpt lat="45.82759" lon="1.18857">
        <ele>297.8</ele>
        <time>2024-09-25T13:01:07Z</time>
      </trkpt>
      <trkpt lat="45.8276" lon="1.18853">
        <ele>298.2</ele>
        <time>2024-09-25T13:01:08Z</time>
      </trkpt>
      <trkpt lat="45.82761" lon="1.18847">
        <ele>298.7</ele>
        <time>2024-09-25T13:01:10Z</time>
      </trkpt>
      <trkpt lat="45.82762" lon="1.18841">
        <ele>299</ele>
        <time>2024-09-25T13:01:12Z</time>
      </trkpt>
      <trkpt lat="45.82763" lon="1.18835">
        <ele>299.3</ele>
        <time>2024-09-25T13:01:14Z</time>
      </trkpt>
      <trkpt lat="45.82763" lon="1.18829">
        <ele>299.7</ele>
        <time>2024-09-25T13:01:16Z</time>
      </trkpt>
      <trkpt lat="45.82764" lon="1.18823">
        <ele>300</ele>
        <time>2024-09-25T13:01:18Z</time>
      </trkpt>
      <trkpt lat="45.82764" lon="1.18818">
        <ele>300.3</ele>
        <time>2024-09-25T13:01:19Z</time>
      </trkpt>
      <trkpt lat="45.82765" lon="1.18813">
        <ele>300.5</ele>
        <time>2024-09-25T13:01:20Z</time>
      </trkpt>
      <trkpt lat="45.82765" lon="1.18807">
        <ele>300.8</ele>
        <time>2024-09-25T13:01:22Z</time>
      </trkpt>
      <trkpt lat="45.82766" lon="1.18802">
        <ele>301</ele>
        <time>2024-09-25T13:01:23Z</time>
      </trkpt>
      <trkpt lat="45.82766" lon="1.18798">
        <ele>301.2</ele>
        <time>2024-09-25T13:01:24Z</time>
      </trkpt>
      <trkpt lat="45.82767" lon="1.18792">
        <ele>301.5</ele>
        <time>2024-09-25T13:01:26Z</time>
      </trkpt>
      <trkpt lat="45.82768" lon="1.18786">
        <ele>301.7</ele>
        <time>2024-09-25T13:01:28Z</time>
      </trkpt>
      <trkpt lat="45.82768" lon="1.18779">
        <ele>301.9</ele>
        <time>2024-09-25T13:01:30Z</time>
      </trkpt>
      <trkpt lat="45.82768" lon="1.18773">
        <ele>302.2</ele>
        <time>2024-09-25T13:01:31Z</time>
      </trkpt>
      <trkpt lat="45.82768" lon="1.18768">
        <ele>302.3</ele>
        <time>2024-09-25T13:01:32Z</time>
      </trkpt>
      <trkpt lat="45.82769" lon="1.18764">
        <ele>302.5</ele>
        <time>2024-09-25T13:01:33Z</time>
      </trkpt>
      <trkpt lat="45.82769" lon="1.1876">
        <ele>302.6</ele>
        <time>2024-09-25T13:01:34Z</time>
      </trkpt>
      <trkpt lat="45.8277" lon="1.18754">
        <ele>302.8</ele>
        <time>2024-09-25T13:01:36Z</time>
      </trkpt>
      <trkpt lat="45.82771" lon="1.1875">
        <ele>302.9</ele>
        <time>2024-09-25T13:01:37Z</time>
      </trkpt>
      <trkpt lat="45.82773" lon="1.18743">
        <ele>303.2</ele>
        <time>2024-09-25T13:01:39Z</time>
      </trkpt>
      <trkpt lat="45.82774" lon="1.18737">
        <ele>303.4</ele>
        <time>2024-09-25T13:01:41Z</time>
      </trkpt>
      <trkpt lat="45.82774" lon="1.1873">
        <ele>303.6</ele>
        <time>2024-09-25T13:01:43Z</time>
      </trkpt>
      <trkpt lat="45.82774" lon="1.18725">
        <ele>303.8</ele>
        <time>2024-09-25T13:01:44Z</time>
      </trkpt>
      <trkpt lat="45.82775" lon="1.18721">
        <ele>304</ele>
        <time>2024-09-25T13:01:45Z</time>
      </trkpt>
      <trkpt lat="45.82776" lon="1.18716">
        <ele>304.3</ele>
        <time>2024-09-25T13:01:46Z</time>
      </trkpt>
      <trkpt lat="45.82777" lon="1.18712">
        <ele>304.5</ele>
        <time>2024-09-25T13:01:47Z</time>
      </trkpt>
      <trkpt lat="45.82777" lon="1.18708">
        <ele>304.7</ele>
        <time>2024-09-25T13:01:48Z</time>
      </trkpt>
      <trkpt lat="45.82777" lon="1.18704">
        <ele>304.9</ele>
        <time>2024-09-25T13:01:49Z</time>
      </trkpt>
      <trkpt lat="45.82777" lon="1.187">
        <ele>305.2</ele>
        <time>2024-09-25T13:01:50Z</time>
      </trkpt>
      <trkpt lat="45.82777" lon="1.18696">
        <ele>305.5</ele>
        <time>2024-09-25T13:01:51Z</time>
      </trkpt>
      <trkpt lat="45.82776" lon="1.18689">
        <ele>305.9</ele>
        <time>2024-09-25T13:01:53Z</time>
      </trkpt>
      <trkpt lat="45.82776" lon="1.18685">
        <ele>306.2</ele>
        <time>2024-09-25T13:01:54Z</time>
      </trkpt>
      <trkpt lat="45.82776" lon="1.1868">
        <ele>306.6</ele>
        <time>2024-09-25T13:01:55Z</time>
      </trkpt>
      <trkpt lat="45.82777" lon="1.18676">
        <ele>306.9</ele>
        <time>2024-09-25T13:01:56Z</time>
      </trkpt>
      <trkpt lat="45.82777" lon="1.18672">
        <ele>307.2</ele>
        <time>2024-09-25T13:01:57Z</time>
      </trkpt>
      <trkpt lat="45.82778" lon="1.18668">
        <ele>307.5</ele>
        <time>2024-09-25T13:01:58Z</time>
      </trkpt>
      <trkpt lat="45.82779" lon="1.18662">
        <ele>307.9</ele>
        <time>2024-09-25T13:02:00Z</time>
      </trkpt>
      <trkpt lat="45.8278" lon="1.18657">
        <ele>308.2</ele>
        <time>2024-09-25T13:02:02Z</time>
      </trkpt>
      <trkpt lat="45.82781" lon="1.18652">
        <ele>308.6</ele>
        <time>2024-09-25T13:02:04Z</time>
      </trkpt>
      <trkpt lat="45.82783" lon="1.18648">
        <ele>308.9</ele>
        <time>2024-09-25T13:02:27Z</time>
      </trkpt>
      <trkpt lat="45.82786" lon="1.18647">
        <ele>309.1</ele>
        <time>2024-09-25T13:02:29Z</time>
      </trkpt>
      <trkpt lat="45.82788" lon="1.18647">
        <ele>309.2</ele>
        <time>2024-09-25T13:02:33Z</time>
      </trkpt>
      <trkpt lat="45.8279" lon="1.18649">
        <ele>309</ele>
        <time>2024-09-25T13:02:37Z</time>
      </trkpt>
      <trkpt lat="45.82792" lon="1.18652">
        <ele>308.7</ele>
        <time>2024-09-25T13:02:39Z</time>
      </trkpt>
      <trkpt lat="45.82794" lon="1.18657">
        <ele>308.2</ele>
        <time>2024-09-25T13:02:41Z</time>
      </trkpt>
      <trkpt lat="45.82797" lon="1.1866">
        <ele>307.8</ele>
        <time>2024-09-25T13:02:44Z</time>
      </trkpt>
      <trkpt lat="45.82799" lon="1.18659">
        <ele>307.5</ele>
        <time>2024-09-25T13:02:46Z</time>
      </trkpt>
      <trkpt lat="45.82801" lon="1.18656">
        <ele>307.1</ele>
        <time>2024-09-25T13:02:48Z</time>
      </trkpt>
      <trkpt lat="45.82804" lon="1.18655">
        <ele>306.8</ele>
        <time>2024-09-25T13:02:50Z</time>
      </trkpt>
      <trkpt lat="45.82806" lon="1.18653">
        <ele>307</ele>
        <time>2024-09-25T13:02:53Z</time>
      </trkpt>
      <trkpt lat="45.82808" lon="1.1865">
        <ele>307.3</ele>
        <time>2024-09-25T13:02:55Z</time>
      </trkpt>
      <trkpt lat="45.8281" lon="1.18647">
        <ele>307.5</ele>
        <time>2024-09-25T13:02:57Z</time>
      </trkpt>
      <trkpt lat="45.82813" lon="1.18645">
        <ele>307.8</ele>
        <time>2024-09-25T13:02:58Z</time>
      </trkpt>
      <trkpt lat="45.82816" lon="1.1864">
        <ele>308.2</ele>
        <time>2024-09-25T13:03:00Z</time>
      </trkpt>
      <trkpt lat="45.82818" lon="1.18636">
        <ele>308.5</ele>
        <time>2024-09-25T13:03:01Z</time>
      </trkpt>
      <trkpt lat="45.82819" lon="1.18632">
        <ele>308.7</ele>
        <time>2024-09-25T13:03:03Z</time>
      </trkpt>
      <trkpt lat="45.8282" lon="1.18626">
        <ele>309.1</ele>
        <time>2024-09-25T13:03:05Z</time>
      </trkpt>
      <trkpt lat="45.82821" lon="1.18622">
        <ele>309.3</ele>
        <time>2024-09-25T13:03:06Z</time>
      </trkpt>
      <trkpt lat="45.82823" lon="1.18618">
        <ele>309.5</ele>
        <time>2024-09-25T13:03:07Z</time>
      </trkpt>
      <trkpt lat="45.82824" lon="1.18615">
        <ele>309.7</ele>
        <time>2024-09-25T13:03:08Z</time>
      </trkpt>
      <trkpt lat="45.82826" lon="1.1861">
        <ele>310</ele>
        <time>2024-09-25T13:03:10Z</time>
      </trkpt>
      <trkpt lat="45.82828" lon="1.18605">
        <ele>310.4</ele>
        <time>2024-09-25T13:03:11Z</time>
      </trkpt>
      <trkpt lat="45.82831" lon="1.18601">
        <ele>310.7</ele>
        <time>2024-09-25T13:03:13Z</time>
      </trkpt>
      <trkpt lat="45.82833" lon="1.18596">
        <ele>311.1</ele>
        <time>2024-09-25T13:03:15Z</time>
      </trkpt>
      <trkpt lat="45.82836" lon="1.18589">
        <ele>311.6</ele>
        <time>2024-09-25T13:03:17Z</time>
      </trkpt>
      <trkpt lat="45.82837" lon="1.18583">
        <ele>312.1</ele>
        <time>2024-09-25T13:03:19Z</time>
      </trkpt>
      <trkpt lat="45.82838" lon="1.18577">
        <ele>312.6</ele>
        <time>2024-09-25T13:03:21Z</time>
      </trkpt>
      <trkpt lat="45.82839" lon="1.18572">
        <ele>313.1</ele>
        <time>2024-09-25T13:03:23Z</time>
      </trkpt>
      <trkpt lat="45.8284" lon="1.18567">
        <ele>313.6</ele>
        <time>2024-09-25T13:03:25Z</time>
      </trkpt>
      <trkpt lat="45.8284" lon="1.18562">
        <ele>314.1</ele>
        <time>2024-09-25T13:03:27Z</time>
      </trkpt>
      <trkpt lat="45.8284" lon="1.18557">
        <ele>314.6</ele>
        <time>2024-09-25T13:03:29Z</time>
      </trkpt>
      <trkpt lat="45.8284" lon="1.18552">
        <ele>315.2</ele>
        <time>2024-09-25T13:03:31Z</time>
      </trkpt>
      <trkpt lat="45.82841" lon="1.18547">
        <ele>315.7</ele>
        <time>2024-09-25T13:03:33Z</time>
      </trkpt>
      <trkpt lat="45.82843" lon="1.18542">
        <ele>316.3</ele>
        <time>2024-09-25T13:03:35Z</time>
      </trkpt>
      <trkpt lat="45.82847" lon="1.18539">
        <ele>317</ele>
        <time>2024-09-25T13:03:37Z</time>
      </trkpt>
      <trkpt lat="45.8285" lon="1.18537">
        <ele>317.4</ele>
        <time>2024-09-25T13:03:38Z</time>
      </trkpt>
      <trkpt lat="45.82852" lon="1.18535">
        <ele>317.6</ele>
        <time>2024-09-25T13:03:39Z</time>
      </trkpt>
      <trkpt lat="45.82855" lon="1.18533">
        <ele>318</ele>
        <time>2024-09-25T13:03:40Z</time>
      </trkpt>
      <trkpt lat="45.82858" lon="1.18531">
        <ele>318.2</ele>
        <time>2024-09-25T13:03:41Z</time>
      </trkpt>
      <trkpt lat="45.82864" lon="1.18529">
        <ele>318.1</ele>
        <time>2024-09-25T13:03:42Z</time>
      </trkpt>
      <trkpt lat="45.82869" lon="1.18528">
        <ele>318</ele>
        <time>2024-09-25T13:03:43Z</time>
      </trkpt>
      <trkpt lat="45.82873" lon="1.18528">
        <ele>317.8</ele>
        <time>2024-09-25T13:03:45Z</time>
      </trkpt>
      <trkpt lat="45.82878" lon="1.1853">
        <ele>317.6</ele>
        <time>2024-09-25T13:03:47Z</time>
      </trkpt>
      <trkpt lat="45.82882" lon="1.1853">
        <ele>317.3</ele>
        <time>2024-09-25T13:03:48Z</time>
      </trkpt>
      <trkpt lat="45.82885" lon="1.18531">
        <ele>317.1</ele>
        <time>2024-09-25T13:03:49Z</time>
      </trkpt>
      <trkpt lat="45.82889" lon="1.18532">
        <ele>316.8</ele>
        <time>2024-09-25T13:03:50Z</time>
      </trkpt>
      <trkpt lat="45.82893" lon="1.18533">
        <ele>316.5</ele>
        <time>2024-09-25T13:03:51Z</time>
      </trkpt>
      <trkpt lat="45.82897" lon="1.18537">
        <ele>316.1</ele>
        <time>2024-09-25T13:03:52Z</time>
      </trkpt>
      <trkpt lat="45.82901" lon="1.1854">
        <ele>315.9</ele>
        <time>2024-09-25T13:03:53Z</time>
      </trkpt>
      <trkpt lat="45.82904" lon="1.18542">
        <ele>315.7</ele>
        <time>2024-09-25T13:03:54Z</time>
      </trkpt>
      <trkpt lat="45.82906" lon="1.18545">
        <ele>315.5</ele>
        <time>2024-09-25T13:03:55Z</time>
      </trkpt>
      <trkpt lat="45.82909" lon="1.18549">
        <ele>315.3</ele>
        <time>2024-09-25T13:03:56Z</time>
      </trkpt>
      <trkpt lat="45.82912" lon="1.18554">
        <ele>315.2</ele>
        <time>2024-09-25T13:03:57Z</time>
      </trkpt>
      <trkpt lat="45.82914" lon="1.18558">
        <ele>315.1</ele>
        <time>2024-09-25T13:03:58Z</time>
      </trkpt>
      <trkpt lat="45.82916" lon="1.18563">
        <ele>315.1</ele>
        <time>2024-09-25T13:03:59Z</time>
      </trkpt>
      <trkpt lat="45.82918" lon="1.18567">
        <ele>315.1</ele>
        <time>2024-09-25T13:04:00Z</time>
      </trkpt>
      <trkpt lat="45.82923" lon="1.18569">
        <ele>315.3</ele>
        <time>2024-09-25T13:04:02Z</time>
      </trkpt>
      <trkpt lat="45.82927" lon="1.18569">
        <ele>315.5</ele>
        <time>2024-09-25T13:04:04Z</time>
      </trkpt>
      <trkpt lat="45.82931" lon="1.18566">
        <ele>315.8</ele>
        <time>2024-09-25T13:04:06Z</time>
      </trkpt>
      <trkpt lat="45.82934" lon="1.18564">
        <ele>316.1</ele>
        <time>2024-09-25T13:04:07Z</time>
      </trkpt>
      <trkpt lat="45.82937" lon="1.18563">
        <ele>316.3</ele>
        <time>2024-09-25T13:04:09Z</time>
      </trkpt>
      <trkpt lat="45.8294" lon="1.1856">
        <ele>316.6</ele>
        <time>2024-09-25T13:04:11Z</time>
      </trkpt>
      <trkpt lat="45.82941" lon="1.18555">
        <ele>316.9</ele>
        <time>2024-09-25T13:04:13Z</time>
      </trkpt>
      <trkpt lat="45.82942" lon="1.18551">
        <ele>317.1</ele>
        <time>2024-09-25T13:04:14Z</time>
      </trkpt>
      <trkpt lat="45.82944" lon="1.18546">
        <ele>317.4</ele>
        <time>2024-09-25T13:04:16Z</time>
      </trkpt>
      <trkpt lat="45.82946" lon="1.18542">
        <ele>317.6</ele>
        <time>2024-09-25T13:04:17Z</time>
      </trkpt>
      <trkpt lat="45.82947" lon="1.18537">
        <ele>317.8</ele>
        <time>2024-09-25T13:04:18Z</time>
      </trkpt>
      <trkpt lat="45.82948" lon="1.18533">
        <ele>318</ele>
        <time>2024-09-25T13:04:19Z</time>
      </trkpt>
      <trkpt lat="45.82949" lon="1.18527">
        <ele>318.3</ele>
        <time>2024-09-25T13:04:21Z</time>
      </trkpt>
      <trkpt lat="45.8295" lon="1.18522">
        <ele>318.5</ele>
        <time>2024-09-25T13:04:22Z</time>
      </trkpt>
      <trkpt lat="45.82951" lon="1.18517">
        <ele>318.7</ele>
        <time>2024-09-25T13:04:24Z</time>
      </trkpt>
      <trkpt lat="45.82952" lon="1.18511">
        <ele>319.1</ele>
        <time>2024-09-25T13:04:26Z</time>
      </trkpt>
      <trkpt lat="45.82953" lon="1.18505">
        <ele>319.4</ele>
        <time>2024-09-25T13:04:28Z</time>
      </trkpt>
      <trkpt lat="45.82952" lon="1.18498">
        <ele>319.8</ele>
        <time>2024-09-25T13:04:30Z</time>
      </trkpt>
      <trkpt lat="45.82951" lon="1.18493">
        <ele>320</ele>
        <time>2024-09-25T13:04:31Z</time>
      </trkpt>
      <trkpt lat="45.82951" lon="1.18488">
        <ele>320.3</ele>
        <time>2024-09-25T13:04:32Z</time>
      </trkpt>
      <trkpt lat="45.82951" lon="1.18483">
        <ele>320.6</ele>
        <time>2024-09-25T13:04:33Z</time>
      </trkpt>
      <trkpt lat="45.82951" lon="1.18478">
        <ele>320.9</ele>
        <time>2024-09-25T13:04:34Z</time>
      </trkpt>
      <trkpt lat="45.82952" lon="1.18473">
        <ele>321.1</ele>
        <time>2024-09-25T13:04:35Z</time>
      </trkpt>
      <trkpt lat="45.82953" lon="1.18468">
        <ele>321.4</ele>
        <time>2024-09-25T13:04:36Z</time>
      </trkpt>
      <trkpt lat="45.82953" lon="1.18464">
        <ele>321.6</ele>
        <time>2024-09-25T13:04:37Z</time>
      </trkpt>
      <trkpt lat="45.82953" lon="1.18459">
        <ele>321.9</ele>
        <time>2024-09-25T13:04:38Z</time>
      </trkpt>
      <trkpt lat="45.82952" lon="1.18455">
        <ele>322.1</ele>
        <time>2024-09-25T13:04:39Z</time>
      </trkpt>
      <trkpt lat="45.82952" lon="1.1845">
        <ele>322.4</ele>
        <time>2024-09-25T13:04:40Z</time>
      </trkpt>
      <trkpt lat="45.82952" lon="1.18446">
        <ele>322.6</ele>
        <time>2024-09-25T13:04:41Z</time>
      </trkpt>
      <trkpt lat="45.82951" lon="1.18441">
        <ele>322.8</ele>
        <time>2024-09-25T13:04:43Z</time>
      </trkpt>
      <trkpt lat="45.82952" lon="1.18435">
        <ele>323.2</ele>
        <time>2024-09-25T13:04:45Z</time>
      </trkpt>
      <trkpt lat="45.82955" lon="1.18432">
        <ele>323.5</ele>
        <time>2024-09-25T13:04:47Z</time>
      </trkpt>
      <trkpt lat="45.82959" lon="1.1843">
        <ele>323.4</ele>
        <time>2024-09-25T13:04:49Z</time>
      </trkpt>
      <trkpt lat="45.82963" lon="1.18429">
        <ele>323.4</ele>
        <time>2024-09-25T13:04:50Z</time>
      </trkpt>
      <trkpt lat="45.82966" lon="1.18429">
        <ele>323.4</ele>
        <time>2024-09-25T13:04:51Z</time>
      </trkpt>
      <trkpt lat="45.8297" lon="1.1843">
        <ele>323.3</ele>
        <time>2024-09-25T13:04:53Z</time>
      </trkpt>
      <trkpt lat="45.82974" lon="1.1843">
        <ele>323.3</ele>
        <time>2024-09-25T13:04:54Z</time>
      </trkpt>
      <trkpt lat="45.82978" lon="1.18432">
        <ele>323.2</ele>
        <time>2024-09-25T13:04:56Z</time>
      </trkpt>
      <trkpt lat="45.82983" lon="1.18433">
        <ele>323.2</ele>
        <time>2024-09-25T13:04:57Z</time>
      </trkpt>
      <trkpt lat="45.82987" lon="1.18435">
        <ele>323.1</ele>
        <time>2024-09-25T13:04:58Z</time>
      </trkpt>
      <trkpt lat="45.82992" lon="1.18436">
        <ele>323</ele>
        <time>2024-09-25T13:04:59Z</time>
      </trkpt>
      <trkpt lat="45.82997" lon="1.18437">
        <ele>322.9</ele>
        <time>2024-09-25T13:05:00Z</time>
      </trkpt>
      <trkpt lat="45.83005" lon="1.18438">
        <ele>322.6</ele>
        <time>2024-09-25T13:05:01Z</time>
      </trkpt>
      <trkpt lat="45.83011" lon="1.1844">
        <ele>322.5</ele>
        <time>2024-09-25T13:05:02Z</time>
      </trkpt>
      <trkpt lat="45.83015" lon="1.18443">
        <ele>322.3</ele>
        <time>2024-09-25T13:05:03Z</time>
      </trkpt>
      <trkpt lat="45.8302" lon="1.18444">
        <ele>322.2</ele>
        <time>2024-09-25T13:05:04Z</time>
      </trkpt>
      <trkpt lat="45.83024" lon="1.18445">
        <ele>322.1</ele>
        <time>2024-09-25T13:05:05Z</time>
      </trkpt>
      <trkpt lat="45.83029" lon="1.18446">
        <ele>321.9</ele>
        <time>2024-09-25T13:05:06Z</time>
      </trkpt>
      <trkpt lat="45.83034" lon="1.18448">
        <ele>321.8</ele>
        <time>2024-09-25T13:05:07Z</time>
      </trkpt>
      <trkpt lat="45.83037" lon="1.18449">
        <ele>321.8</ele>
        <time>2024-09-25T13:05:08Z</time>
      </trkpt>
      <trkpt lat="45.8304" lon="1.18451">
        <ele>321.7</ele>
        <time>2024-09-25T13:05:09Z</time>
      </trkpt>
      <trkpt lat="45.83045" lon="1.18453">
        <ele>321.6</ele>
        <time>2024-09-25T13:05:11Z</time>
      </trkpt>
      <trkpt lat="45.83049" lon="1.18455">
        <ele>321.5</ele>
        <time>2024-09-25T13:05:12Z</time>
      </trkpt>
      <trkpt lat="45.83053" lon="1.18456">
        <ele>321.5</ele>
        <time>2024-09-25T13:05:13Z</time>
      </trkpt>
      <trkpt lat="45.83056" lon="1.18457">
        <ele>321.4</ele>
        <time>2024-09-25T13:05:14Z</time>
      </trkpt>
      <trkpt lat="45.83059" lon="1.18457">
        <ele>321.4</ele>
        <time>2024-09-25T13:05:15Z</time>
      </trkpt>
      <trkpt lat="45.83063" lon="1.18456">
        <ele>321.5</ele>
        <time>2024-09-25T13:05:16Z</time>
      </trkpt>
      <trkpt lat="45.83067" lon="1.18454">
        <ele>321.5</ele>
        <time>2024-09-25T13:05:17Z</time>
      </trkpt>
      <trkpt lat="45.8307" lon="1.18452">
        <ele>321.6</ele>
        <time>2024-09-25T13:05:18Z</time>
      </trkpt>
      <trkpt lat="45.83073" lon="1.1845">
        <ele>321.7</ele>
        <time>2024-09-25T13:05:19Z</time>
      </trkpt>
      <trkpt lat="45.83075" lon="1.18447">
        <ele>321.9</ele>
        <time>2024-09-25T13:05:20Z</time>
      </trkpt>
      <trkpt lat="45.83077" lon="1.18444">
        <ele>322</ele>
        <time>2024-09-25T13:05:21Z</time>
      </trkpt>
      <trkpt lat="45.83079" lon="1.1844">
        <ele>322.2</ele>
        <time>2024-09-25T13:05:23Z</time>
      </trkpt>
      <trkpt lat="45.83081" lon="1.18434">
        <ele>322.4</ele>
        <time>2024-09-25T13:05:25Z</time>
      </trkpt>
      <trkpt lat="45.83081" lon="1.18427">
        <ele>322.6</ele>
        <time>2024-09-25T13:05:27Z</time>
      </trkpt>
      <trkpt lat="45.83081" lon="1.18422">
        <ele>322.8</ele>
        <time>2024-09-25T13:05:28Z</time>
      </trkpt>
      <trkpt lat="45.83081" lon="1.18415">
        <ele>323.1</ele>
        <time>2024-09-25T13:05:30Z</time>
      </trkpt>
      <trkpt lat="45.83081" lon="1.1841">
        <ele>323.2</ele>
        <time>2024-09-25T13:05:31Z</time>
      </trkpt>
      <trkpt lat="45.83081" lon="1.18404">
        <ele>323.4</ele>
        <time>2024-09-25T13:05:32Z</time>
      </trkpt>
      <trkpt lat="45.83081" lon="1.18397">
        <ele>323.6</ele>
        <time>2024-09-25T13:05:33Z</time>
      </trkpt>
      <trkpt lat="45.83082" lon="1.18392">
        <ele>323.7</ele>
        <time>2024-09-25T13:05:34Z</time>
      </trkpt>
      <trkpt lat="45.83082" lon="1.18387">
        <ele>323.8</ele>
        <time>2024-09-25T13:05:35Z</time>
      </trkpt>
      <trkpt lat="45.83082" lon="1.18383">
        <ele>323.8</ele>
        <time>2024-09-25T13:05:36Z</time>
      </trkpt>
      <trkpt lat="45.83082" lon="1.18376">
        <ele>324</ele>
        <time>2024-09-25T13:05:38Z</time>
      </trkpt>
      <trkpt lat="45.83081" lon="1.1837">
        <ele>324.1</ele>
        <time>2024-09-25T13:05:39Z</time>
      </trkpt>
      <trkpt lat="45.83081" lon="1.18366">
        <ele>324.2</ele>
        <time>2024-09-25T13:05:40Z</time>
      </trkpt>
      <trkpt lat="45.83081" lon="1.18358">
        <ele>324.4</ele>
        <time>2024-09-25T13:05:42Z</time>
      </trkpt>
      <trkpt lat="45.83081" lon="1.18352">
        <ele>324.5</ele>
        <time>2024-09-25T13:05:43Z</time>
      </trkpt>
      <trkpt lat="45.83082" lon="1.18346">
        <ele>324.7</ele>
        <time>2024-09-25T13:05:44Z</time>
      </trkpt>
      <trkpt lat="45.83082" lon="1.18341">
        <ele>324.8</ele>
        <time>2024-09-25T13:05:45Z</time>
      </trkpt>
      <trkpt lat="45.83082" lon="1.18335">
        <ele>325</ele>
        <time>2024-09-25T13:05:46Z</time>
      </trkpt>
      <trkpt lat="45.83081" lon="1.1833">
        <ele>325.1</ele>
        <time>2024-09-25T13:05:47Z</time>
      </trkpt>
      <trkpt lat="45.83081" lon="1.18324">
        <ele>325.3</ele>
        <time>2024-09-25T13:05:48Z</time>
      </trkpt>
      <trkpt lat="45.8308" lon="1.18319">
        <ele>325.4</ele>
        <time>2024-09-25T13:05:49Z</time>
      </trkpt>
      <trkpt lat="45.8308" lon="1.18315">
        <ele>325.5</ele>
        <time>2024-09-25T13:05:50Z</time>
      </trkpt>
      <trkpt lat="45.83078" lon="1.18309">
        <ele>325.7</ele>
        <time>2024-09-25T13:05:52Z</time>
      </trkpt>
      <trkpt lat="45.83077" lon="1.18304">
        <ele>325.8</ele>
        <time>2024-09-25T13:05:53Z</time>
      </trkpt>
      <trkpt lat="45.83077" lon="1.18299">
        <ele>325.9</ele>
        <time>2024-09-25T13:05:54Z</time>
      </trkpt>
      <trkpt lat="45.83076" lon="1.18295">
        <ele>326</ele>
        <time>2024-09-25T13:05:55Z</time>
      </trkpt>
      <trkpt lat="45.83075" lon="1.18292">
        <ele>326.1</ele>
        <time>2024-09-25T13:05:56Z</time>
      </trkpt>
      <trkpt lat="45.83072" lon="1.18287">
        <ele>326.2</ele>
        <time>2024-09-25T13:05:58Z</time>
      </trkpt>
      <trkpt lat="45.8307" lon="1.18283">
        <ele>326.3</ele>
        <time>2024-09-25T13:05:59Z</time>
      </trkpt>
      <trkpt lat="45.83068" lon="1.18278">
        <ele>326.4</ele>
        <time>2024-09-25T13:06:01Z</time>
      </trkpt>
      <trkpt lat="45.83068" lon="1.18273">
        <ele>326.4</ele>
        <time>2024-09-25T13:06:03Z</time>
      </trkpt>
      <trkpt lat="45.83067" lon="1.18269">
        <ele>326.4</ele>
        <time>2024-09-25T13:06:05Z</time>
      </trkpt>
      <trkpt lat="45.83066" lon="1.18265">
        <ele>326.4</ele>
        <time>2024-09-25T13:06:07Z</time>
      </trkpt>
      <trkpt lat="45.83065" lon="1.18261">
        <ele>326.4</ele>
        <time>2024-09-25T13:06:13Z</time>
      </trkpt>
      <trkpt lat="45.83064" lon="1.18257">
        <ele>326.4</ele>
        <time>2024-09-25T13:06:17Z</time>
      </trkpt>
      <trkpt lat="45.83062" lon="1.18253">
        <ele>326.3</ele>
        <time>2024-09-25T13:06:22Z</time>
      </trkpt>
      <trkpt lat="45.83062" lon="1.18247">
        <ele>326.2</ele>
        <time>2024-09-25T13:06:25Z</time>
      </trkpt>
      <trkpt lat="45.83061" lon="1.18242">
        <ele>326.1</ele>
        <time>2024-09-25T13:06:26Z</time>
      </trkpt>
      <trkpt lat="45.8306" lon="1.18236">
        <ele>325.9</ele>
        <time>2024-09-25T13:06:28Z</time>
      </trkpt>
      <trkpt lat="45.83059" lon="1.1823">
        <ele>325.7</ele>
        <time>2024-09-25T13:06:30Z</time>
      </trkpt>
      <trkpt lat="45.83058" lon="1.18226">
        <ele>325.5</ele>
        <time>2024-09-25T13:06:32Z</time>
      </trkpt>
      <trkpt lat="45.83058" lon="1.18221">
        <ele>325.4</ele>
        <time>2024-09-25T13:06:35Z</time>
      </trkpt>
      <trkpt lat="45.83057" lon="1.18219">
        <ele>325.3</ele>
        <time>2024-09-25T13:06:42Z</time>
      </trkpt>
      <trkpt lat="45.83056" lon="1.18215">
        <ele>325.2</ele>
        <time>2024-09-25T13:06:49Z</time>
      </trkpt>
      <trkpt lat="45.83055" lon="1.1821">
        <ele>325.1</ele>
        <time>2024-09-25T13:06:51Z</time>
      </trkpt>
      <trkpt lat="45.83055" lon="1.18205">
        <ele>325</ele>
        <time>2024-09-25T13:06:52Z</time>
      </trkpt>
      <trkpt lat="45.83056" lon="1.182">
        <ele>324.9</ele>
        <time>2024-09-25T13:06:53Z</time>
      </trkpt>
      <trkpt lat="45.83056" lon="1.18196">
        <ele>324.9</ele>
        <time>2024-09-25T13:06:55Z</time>
      </trkpt>
      <trkpt lat="45.83056" lon="1.18191">
        <ele>324.8</ele>
        <time>2024-09-25T13:06:57Z</time>
      </trkpt>
      <trkpt lat="45.83055" lon="1.18186">
        <ele>324.7</ele>
        <time>2024-09-25T13:07:03Z</time>
      </trkpt>
      <trkpt lat="45.83055" lon="1.18182">
        <ele>324.7</ele>
        <time>2024-09-25T13:07:10Z</time>
      </trkpt>
      <trkpt lat="45.83052" lon="1.18178">
        <ele>324.6</ele>
        <time>2024-09-25T13:07:12Z</time>
      </trkpt>
      <trkpt lat="45.8305" lon="1.18175">
        <ele>324.6</ele>
        <time>2024-09-25T13:07:13Z</time>
      </trkpt>
      <trkpt lat="45.83048" lon="1.18171">
        <ele>324.5</ele>
        <time>2024-09-25T13:07:15Z</time>
      </trkpt>
      <trkpt lat="45.83046" lon="1.18167">
        <ele>324.5</ele>
        <time>2024-09-25T13:07:17Z</time>
      </trkpt>
      <trkpt lat="45.83045" lon="1.18161">
        <ele>324.4</ele>
        <time>2024-09-25T13:07:19Z</time>
      </trkpt>
      <trkpt lat="45.83045" lon="1.18156">
        <ele>324.4</ele>
        <time>2024-09-25T13:07:23Z</time>
      </trkpt>
      <trkpt lat="45.83044" lon="1.18152">
        <ele>324.4</ele>
        <time>2024-09-25T13:07:32Z</time>
      </trkpt>
      <trkpt lat="45.83043" lon="1.18148">
        <ele>324.3</ele>
        <time>2024-09-25T13:07:35Z</time>
      </trkpt>
      <trkpt lat="45.83044" lon="1.18143">
        <ele>324.3</ele>
        <time>2024-09-25T13:07:37Z</time>
      </trkpt>
      <trkpt lat="45.83044" lon="1.18138">
        <ele>324.3</ele>
        <time>2024-09-25T13:07:38Z</time>
      </trkpt>
      <trkpt lat="45.83044" lon="1.18133">
        <ele>324.2</ele>
        <time>2024-09-25T13:07:39Z</time>
      </trkpt>
      <trkpt lat="45.83044" lon="1.18127">
        <ele>324.2</ele>
        <time>2024-09-25T13:07:41Z</time>
      </trkpt>
      <trkpt lat="45.83043" lon="1.18122">
        <ele>324.2</ele>
        <time>2024-09-25T13:07:42Z</time>
      </trkpt>
      <trkpt lat="45.83043" lon="1.18118">
        <ele>324.2</ele>
        <time>2024-09-25T13:07:43Z</time>
      </trkpt>
      <trkpt lat="45.83044" lon="1.18113">
        <ele>324.2</ele>
        <time>2024-09-25T13:07:44Z</time>
      </trkpt>
      <trkpt lat="45.83044" lon="1.18108">
        <ele>324.2</ele>
        <time>2024-09-25T13:07:45Z</time>
      </trkpt>
      <trkpt lat="45.83044" lon="1.18104">
        <ele>324.2</ele>
        <time>2024-09-25T13:07:47Z</time>
      </trkpt>
      <trkpt lat="45.83043" lon="1.18097">
        <ele>324.3</ele>
        <time>2024-09-25T13:07:49Z</time>
      </trkpt>
      <trkpt lat="45.83042" lon="1.18092">
        <ele>324.3</ele>
        <time>2024-09-25T13:07:50Z</time>
      </trkpt>
      <trkpt lat="45.83041" lon="1.18087">
        <ele>324.3</ele>
        <time>2024-09-25T13:07:51Z</time>
      </trkpt>
      <trkpt lat="45.8304" lon="1.18081">
        <ele>324.3</ele>
        <time>2024-09-25T13:07:53Z</time>
      </trkpt>
      <trkpt lat="45.83039" lon="1.18073">
        <ele>324.3</ele>
        <time>2024-09-25T13:07:55Z</time>
      </trkpt>
      <trkpt lat="45.83039" lon="1.18067">
        <ele>324.3</ele>
        <time>2024-09-25T13:07:56Z</time>
      </trkpt>
      <trkpt lat="45.83038" lon="1.18062">
        <ele>324.3</ele>
        <time>2024-09-25T13:07:57Z</time>
      </trkpt>
      <trkpt lat="45.83038" lon="1.18058">
        <ele>324.3</ele>
        <time>2024-09-25T13:07:58Z</time>
      </trkpt>
      <trkpt lat="45.83039" lon="1.18053">
        <ele>324.2</ele>
        <time>2024-09-25T13:07:59Z</time>
      </trkpt>
      <trkpt lat="45.83039" lon="1.18047">
        <ele>324.2</ele>
        <time>2024-09-25T13:08:00Z</time>
      </trkpt>
      <trkpt lat="45.8304" lon="1.18041">
        <ele>324.1</ele>
        <time>2024-09-25T13:08:01Z</time>
      </trkpt>
      <trkpt lat="45.83041" lon="1.18036">
        <ele>324</ele>
        <time>2024-09-25T13:08:02Z</time>
      </trkpt>
      <trkpt lat="45.83042" lon="1.18032">
        <ele>324</ele>
        <time>2024-09-25T13:08:03Z</time>
      </trkpt>
      <trkpt lat="45.83043" lon="1.18026">
        <ele>324</ele>
        <time>2024-09-25T13:08:05Z</time>
      </trkpt>
      <trkpt lat="45.83045" lon="1.18019">
        <ele>324</ele>
        <time>2024-09-25T13:08:07Z</time>
      </trkpt>
      <trkpt lat="45.83048" lon="1.18013">
        <ele>323.9</ele>
        <time>2024-09-25T13:08:09Z</time>
      </trkpt>
      <trkpt lat="45.83052" lon="1.1801">
        <ele>323.8</ele>
        <time>2024-09-25T13:08:11Z</time>
      </trkpt>
      <trkpt lat="45.83056" lon="1.18009">
        <ele>323.7</ele>
        <time>2024-09-25T13:08:12Z</time>
      </trkpt>
      <trkpt lat="45.83061" lon="1.18008">
        <ele>323.6</ele>
        <time>2024-09-25T13:08:13Z</time>
      </trkpt>
      <trkpt lat="45.83065" lon="1.18008">
        <ele>323.5</ele>
        <time>2024-09-25T13:08:14Z</time>
      </trkpt>
      <trkpt lat="45.8307" lon="1.18007">
        <ele>323.5</ele>
        <time>2024-09-25T13:08:15Z</time>
      </trkpt>
      <trkpt lat="45.83074" lon="1.18007">
        <ele>323.4</ele>
        <time>2024-09-25T13:08:16Z</time>
      </trkpt>
      <trkpt lat="45.8308" lon="1.18006">
        <ele>323.4</ele>
        <time>2024-09-25T13:08:17Z</time>
      </trkpt>
      <trkpt lat="45.83085" lon="1.18006">
        <ele>323.4</ele>
        <time>2024-09-25T13:08:18Z</time>
      </trkpt>
      <trkpt lat="45.83089" lon="1.18007">
        <ele>323.4</ele>
        <time>2024-09-25T13:08:19Z</time>
      </trkpt>
      <trkpt lat="45.83093" lon="1.18008">
        <ele>323.5</ele>
        <time>2024-09-25T13:08:20Z</time>
      </trkpt>
      <trkpt lat="45.83098" lon="1.1801">
        <ele>323.5</ele>
        <time>2024-09-25T13:08:21Z</time>
      </trkpt>
      <trkpt lat="45.83102" lon="1.18011">
        <ele>323.5</ele>
        <time>2024-09-25T13:08:22Z</time>
      </trkpt>
      <trkpt lat="45.83107" lon="1.18011">
        <ele>323.7</ele>
        <time>2024-09-25T13:08:23Z</time>
      </trkpt>
      <trkpt lat="45.83111" lon="1.18011">
        <ele>323.8</ele>
        <time>2024-09-25T13:08:24Z</time>
      </trkpt>
      <trkpt lat="45.83115" lon="1.18012">
        <ele>324</ele>
        <time>2024-09-25T13:08:25Z</time>
      </trkpt>
      <trkpt lat="45.83118" lon="1.18013">
        <ele>324.1</ele>
        <time>2024-09-25T13:08:26Z</time>
      </trkpt>
      <trkpt lat="45.83122" lon="1.18013">
        <ele>324.3</ele>
        <time>2024-09-25T13:08:27Z</time>
      </trkpt>
      <trkpt lat="45.83126" lon="1.18013">
        <ele>324.5</ele>
        <time>2024-09-25T13:08:28Z</time>
      </trkpt>
      <trkpt lat="45.8313" lon="1.18013">
        <ele>324.7</ele>
        <time>2024-09-25T13:08:29Z</time>
      </trkpt>
      <trkpt lat="45.83134" lon="1.18013">
        <ele>324.9</ele>
        <time>2024-09-25T13:08:30Z</time>
      </trkpt>
      <trkpt lat="45.83138" lon="1.18013">
        <ele>325.1</ele>
        <time>2024-09-25T13:08:31Z</time>
      </trkpt>
      <trkpt lat="45.83142" lon="1.18013">
        <ele>325.2</ele>
        <time>2024-09-25T13:08:32Z</time>
      </trkpt>
      <trkpt lat="45.83146" lon="1.18013">
        <ele>325.4</ele>
        <time>2024-09-25T13:08:33Z</time>
      </trkpt>
      <trkpt lat="45.8315" lon="1.18013">
        <ele>325.5</ele>
        <time>2024-09-25T13:08:34Z</time>
      </trkpt>
      <trkpt lat="45.83154" lon="1.18013">
        <ele>325.6</ele>
        <time>2024-09-25T13:08:35Z</time>
      </trkpt>
      <trkpt lat="45.83157" lon="1.18013">
        <ele>325.7</ele>
        <time>2024-09-25T13:08:36Z</time>
      </trkpt>
      <trkpt lat="45.8316" lon="1.18013">
        <ele>325.7</ele>
        <time>2024-09-25T13:08:37Z</time>
      </trkpt>
      <trkpt lat="45.83164" lon="1.18013">
        <ele>325.8</ele>
        <time>2024-09-25T13:08:38Z</time>
      </trkpt>
      <trkpt lat="45.83168" lon="1.18013">
        <ele>325.8</ele>
        <time>2024-09-25T13:08:39Z</time>
      </trkpt>
      <trkpt lat="45.83172" lon="1.18013">
        <ele>325.8</ele>
        <time>2024-09-25T13:08:40Z</time>
      </trkpt>
      <trkpt lat="45.83179" lon="1.18013">
        <ele>325.8</ele>
        <time>2024-09-25T13:08:41Z</time>
      </trkpt>
      <trkpt lat="45.83185" lon="1.18014">
        <ele>325.8</ele>
        <time>2024-09-25T13:08:42Z</time>
      </trkpt>
      <trkpt lat="45.8319" lon="1.18014">
        <ele>325.8</ele>
        <time>2024-09-25T13:08:43Z</time>
      </trkpt>
      <trkpt lat="45.83194" lon="1.18016">
        <ele>325.7</ele>
        <time>2024-09-25T13:08:44Z</time>
      </trkpt>
      <trkpt lat="45.83199" lon="1.18018">
        <ele>325.7</ele>
        <time>2024-09-25T13:08:45Z</time>
      </trkpt>
      <trkpt lat="45.83203" lon="1.18018">
        <ele>325.6</ele>
        <time>2024-09-25T13:08:46Z</time>
      </trkpt>
      <trkpt lat="45.83208" lon="1.18019">
        <ele>325.6</ele>
        <time>2024-09-25T13:08:47Z</time>
      </trkpt>
      <trkpt lat="45.83214" lon="1.18021">
        <ele>325.5</ele>
        <time>2024-09-25T13:08:48Z</time>
      </trkpt>
      <trkpt lat="45.83219" lon="1.18022">
        <ele>325.4</ele>
        <time>2024-09-25T13:08:49Z</time>
      </trkpt>
      <trkpt lat="45.83225" lon="1.18023">
        <ele>325.4</ele>
        <time>2024-09-25T13:08:50Z</time>
      </trkpt>
      <trkpt lat="45.8323" lon="1.18026">
        <ele>325.3</ele>
        <time>2024-09-25T13:08:51Z</time>
      </trkpt>
      <trkpt lat="45.83237" lon="1.18029">
        <ele>325.3</ele>
        <time>2024-09-25T13:08:52Z</time>
      </trkpt>
      <trkpt lat="45.83244" lon="1.18031">
        <ele>325.2</ele>
        <time>2024-09-25T13:08:53Z</time>
      </trkpt>
      <trkpt lat="45.83249" lon="1.18033">
        <ele>325.2</ele>
        <time>2024-09-25T13:08:54Z</time>
      </trkpt>
      <trkpt lat="45.83254" lon="1.18035">
        <ele>325.1</ele>
        <time>2024-09-25T13:08:55Z</time>
      </trkpt>
      <trkpt lat="45.83258" lon="1.18038">
        <ele>325.1</ele>
        <time>2024-09-25T13:08:56Z</time>
      </trkpt>
      <trkpt lat="45.83263" lon="1.18039">
        <ele>325</ele>
        <time>2024-09-25T13:08:57Z</time>
      </trkpt>
      <trkpt lat="45.83267" lon="1.18039">
        <ele>324.9</ele>
        <time>2024-09-25T13:08:58Z</time>
      </trkpt>
      <trkpt lat="45.83271" lon="1.18039">
        <ele>324.8</ele>
        <time>2024-09-25T13:08:59Z</time>
      </trkpt>
      <trkpt lat="45.83275" lon="1.18042">
        <ele>324.7</ele>
        <time>2024-09-25T13:09:00Z</time>
      </trkpt>
      <trkpt lat="45.8328" lon="1.18044">
        <ele>324.5</ele>
        <time>2024-09-25T13:09:01Z</time>
      </trkpt>
      <trkpt lat="45.83285" lon="1.18046">
        <ele>324.4</ele>
        <time>2024-09-25T13:09:02Z</time>
      </trkpt>
      <trkpt lat="45.83291" lon="1.18049">
        <ele>324.2</ele>
        <time>2024-09-25T13:09:03Z</time>
      </trkpt>
      <trkpt lat="45.83296" lon="1.18051">
        <ele>324</ele>
        <time>2024-09-25T13:09:04Z</time>
      </trkpt>
      <trkpt lat="45.83301" lon="1.18053">
        <ele>323.8</ele>
        <time>2024-09-25T13:09:05Z</time>
      </trkpt>
      <trkpt lat="45.83308" lon="1.18055">
        <ele>323.5</ele>
        <time>2024-09-25T13:09:06Z</time>
      </trkpt>
      <trkpt lat="45.83316" lon="1.18057">
        <ele>323.2</ele>
        <time>2024-09-25T13:09:07Z</time>
      </trkpt>
      <trkpt lat="45.83323" lon="1.1806">
        <ele>323</ele>
        <time>2024-09-25T13:09:08Z</time>
      </trkpt>
      <trkpt lat="45.83328" lon="1.18063">
        <ele>322.8</ele>
        <time>2024-09-25T13:09:09Z</time>
      </trkpt>
      <trkpt lat="45.83333" lon="1.18066">
        <ele>322.6</ele>
        <time>2024-09-25T13:09:10Z</time>
      </trkpt>
      <trkpt lat="45.83339" lon="1.1807">
        <ele>322.4</ele>
        <time>2024-09-25T13:09:11Z</time>
      </trkpt>
      <trkpt lat="45.83344" lon="1.18075">
        <ele>322.2</ele>
        <time>2024-09-25T13:09:12Z</time>
      </trkpt>
      <trkpt lat="45.83349" lon="1.18079">
        <ele>322.1</ele>
        <time>2024-09-25T13:09:13Z</time>
      </trkpt>
      <trkpt lat="45.83354" lon="1.18083">
        <ele>321.9</ele>
        <time>2024-09-25T13:09:14Z</time>
      </trkpt>
      <trkpt lat="45.83358" lon="1.18086">
        <ele>321.8</ele>
        <time>2024-09-25T13:09:15Z</time>
      </trkpt>
      <trkpt lat="45.83363" lon="1.18089">
        <ele>321.7</ele>
        <time>2024-09-25T13:09:16Z</time>
      </trkpt>
      <trkpt lat="45.83369" lon="1.18094">
        <ele>321.6</ele>
        <time>2024-09-25T13:09:17Z</time>
      </trkpt>
      <trkpt lat="45.83374" lon="1.18098">
        <ele>321.5</ele>
        <time>2024-09-25T13:09:18Z</time>
      </trkpt>
      <trkpt lat="45.8338" lon="1.18104">
        <ele>321.4</ele>
        <time>2024-09-25T13:09:19Z</time>
      </trkpt>
      <trkpt lat="45.83386" lon="1.18108">
        <ele>321.3</ele>
        <time>2024-09-25T13:09:20Z</time>
      </trkpt>
      <trkpt lat="45.83391" lon="1.18113">
        <ele>321.2</ele>
        <time>2024-09-25T13:09:21Z</time>
      </trkpt>
      <trkpt lat="45.83398" lon="1.18118">
        <ele>321.2</ele>
        <time>2024-09-25T13:09:22Z</time>
      </trkpt>
      <trkpt lat="45.83403" lon="1.18122">
        <ele>321.2</ele>
        <time>2024-09-25T13:09:23Z</time>
      </trkpt>
      <trkpt lat="45.83408" lon="1.18127">
        <ele>321.2</ele>
        <time>2024-09-25T13:09:24Z</time>
      </trkpt>
      <trkpt lat="45.83414" lon="1.18132">
        <ele>321.1</ele>
        <time>2024-09-25T13:09:25Z</time>
      </trkpt>
      <trkpt lat="45.83418" lon="1.18137">
        <ele>321.1</ele>
        <time>2024-09-25T13:09:26Z</time>
      </trkpt>
      <trkpt lat="45.83423" lon="1.18141">
        <ele>321.1</ele>
        <time>2024-09-25T13:09:27Z</time>
      </trkpt>
      <trkpt lat="45.83428" lon="1.18145">
        <ele>321.1</ele>
        <time>2024-09-25T13:09:28Z</time>
      </trkpt>
      <trkpt lat="45.83433" lon="1.18147">
        <ele>321.2</ele>
        <time>2024-09-25T13:09:29Z</time>
      </trkpt>
      <trkpt lat="45.83438" lon="1.1815">
        <ele>321.2</ele>
        <time>2024-09-25T13:09:30Z</time>
      </trkpt>
      <trkpt lat="45.83443" lon="1.18153">
        <ele>321.2</ele>
        <time>2024-09-25T13:09:31Z</time>
      </trkpt>
      <trkpt lat="45.83448" lon="1.18156">
        <ele>321.2</ele>
        <time>2024-09-25T13:09:32Z</time>
      </trkpt>
      <trkpt lat="45.83453" lon="1.1816">
        <ele>321.2</ele>
        <time>2024-09-25T13:09:33Z</time>
      </trkpt>
      <trkpt lat="45.83458" lon="1.18163">
        <ele>321.3</ele>
        <time>2024-09-25T13:09:34Z</time>
      </trkpt>
      <trkpt lat="45.83463" lon="1.18166">
        <ele>321.3</ele>
        <time>2024-09-25T13:09:35Z</time>
      </trkpt>
      <trkpt lat="45.83468" lon="1.1817">
        <ele>321.3</ele>
        <time>2024-09-25T13:09:36Z</time>
      </trkpt>
      <trkpt lat="45.83471" lon="1.18173">
        <ele>321.3</ele>
        <time>2024-09-25T13:09:37Z</time>
      </trkpt>
      <trkpt lat="45.83476" lon="1.18176">
        <ele>321.4</ele>
        <time>2024-09-25T13:09:38Z</time>
      </trkpt>
      <trkpt lat="45.8348" lon="1.18179">
        <ele>321.4</ele>
        <time>2024-09-25T13:09:39Z</time>
      </trkpt>
      <trkpt lat="45.83485" lon="1.18182">
        <ele>321.4</ele>
        <time>2024-09-25T13:09:40Z</time>
      </trkpt>
      <trkpt lat="45.8349" lon="1.18186">
        <ele>321.5</ele>
        <time>2024-09-25T13:09:41Z</time>
      </trkpt>
      <trkpt lat="45.83494" lon="1.18189">
        <ele>321.6</ele>
        <time>2024-09-25T13:09:42Z</time>
      </trkpt>
      <trkpt lat="45.83498" lon="1.18192">
        <ele>321.6</ele>
        <time>2024-09-25T13:09:43Z</time>
      </trkpt>
      <trkpt lat="45.83503" lon="1.18195">
        <ele>321.7</ele>
        <time>2024-09-25T13:09:44Z</time>
      </trkpt>
      <trkpt lat="45.83507" lon="1.18197">
        <ele>321.8</ele>
        <time>2024-09-25T13:09:45Z</time>
      </trkpt>
      <trkpt lat="45.83512" lon="1.18199">
        <ele>321.9</ele>
        <time>2024-09-25T13:09:46Z</time>
      </trkpt>
      <trkpt lat="45.83516" lon="1.18201">
        <ele>321.9</ele>
        <time>2024-09-25T13:09:47Z</time>
      </trkpt>
      <trkpt lat="45.83521" lon="1.18203">
        <ele>322</ele>
        <time>2024-09-25T13:09:48Z</time>
      </trkpt>
      <trkpt lat="45.83525" lon="1.18205">
        <ele>322.1</ele>
        <time>2024-09-25T13:09:49Z</time>
      </trkpt>
      <trkpt lat="45.83531" lon="1.18206">
        <ele>322.2</ele>
        <time>2024-09-25T13:09:50Z</time>
      </trkpt>
      <trkpt lat="45.83536" lon="1.18208">
        <ele>322.3</ele>
        <time>2024-09-25T13:09:51Z</time>
      </trkpt>
      <trkpt lat="45.83541" lon="1.18209">
        <ele>322.4</ele>
        <time>2024-09-25T13:09:52Z</time>
      </trkpt>
      <trkpt lat="45.83547" lon="1.18211">
        <ele>322.5</ele>
        <time>2024-09-25T13:09:53Z</time>
      </trkpt>
      <trkpt lat="45.83552" lon="1.18213">
        <ele>322.7</ele>
        <time>2024-09-25T13:09:54Z</time>
      </trkpt>
      <trkpt lat="45.83557" lon="1.18214">
        <ele>322.8</ele>
        <time>2024-09-25T13:09:55Z</time>
      </trkpt>
      <trkpt lat="45.83562" lon="1.18216">
        <ele>322.9</ele>
        <time>2024-09-25T13:09:56Z</time>
      </trkpt>
      <trkpt lat="45.83568" lon="1.18218">
        <ele>323.1</ele>
        <time>2024-09-25T13:09:57Z</time>
      </trkpt>
      <trkpt lat="45.83573" lon="1.18221">
        <ele>323.2</ele>
        <time>2024-09-25T13:09:58Z</time>
      </trkpt>
      <trkpt lat="45.83577" lon="1.18223">
        <ele>323.4</ele>
        <time>2024-09-25T13:09:59Z</time>
      </trkpt>
      <trkpt lat="45.83581" lon="1.18224">
        <ele>323.5</ele>
        <time>2024-09-25T13:10:00Z</time>
      </trkpt>
      <trkpt lat="45.83586" lon="1.18226">
        <ele>323.7</ele>
        <time>2024-09-25T13:10:01Z</time>
      </trkpt>
      <trkpt lat="45.83591" lon="1.18227">
        <ele>323.8</ele>
        <time>2024-09-25T13:10:02Z</time>
      </trkpt>
      <trkpt lat="45.83596" lon="1.18228">
        <ele>324</ele>
        <time>2024-09-25T13:10:03Z</time>
      </trkpt>
      <trkpt lat="45.83601" lon="1.18228">
        <ele>324.1</ele>
        <time>2024-09-25T13:10:04Z</time>
      </trkpt>
      <trkpt lat="45.83606" lon="1.18229">
        <ele>324.3</ele>
        <time>2024-09-25T13:10:05Z</time>
      </trkpt>
      <trkpt lat="45.83611" lon="1.1823">
        <ele>324.4</ele>
        <time>2024-09-25T13:10:06Z</time>
      </trkpt>
      <trkpt lat="45.83615" lon="1.1823">
        <ele>324.5</ele>
        <time>2024-09-25T13:10:07Z</time>
      </trkpt>
      <trkpt lat="45.83619" lon="1.18231">
        <ele>324.6</ele>
        <time>2024-09-25T13:10:08Z</time>
      </trkpt>
      <trkpt lat="45.83624" lon="1.18231">
        <ele>324.8</ele>
        <time>2024-09-25T13:10:09Z</time>
      </trkpt>
      <trkpt lat="45.83628" lon="1.18232">
        <ele>324.9</ele>
        <time>2024-09-25T13:10:10Z</time>
      </trkpt>
      <trkpt lat="45.83633" lon="1.18234">
        <ele>325.1</ele>
        <time>2024-09-25T13:10:11Z</time>
      </trkpt>
      <trkpt lat="45.83638" lon="1.18236">
        <ele>325.2</ele>
        <time>2024-09-25T13:10:12Z</time>
      </trkpt>
      <trkpt lat="45.83643" lon="1.18237">
        <ele>325.3</ele>
        <time>2024-09-25T13:10:13Z</time>
      </trkpt>
      <trkpt lat="45.83648" lon="1.18239">
        <ele>325.5</ele>
        <time>2024-09-25T13:10:14Z</time>
      </trkpt>
      <trkpt lat="45.83654" lon="1.1824">
        <ele>325.6</ele>
        <time>2024-09-25T13:10:15Z</time>
      </trkpt>
      <trkpt lat="45.83659" lon="1.18241">
        <ele>325.7</ele>
        <time>2024-09-25T13:10:16Z</time>
      </trkpt>
      <trkpt lat="45.83664" lon="1.18242">
        <ele>325.8</ele>
        <time>2024-09-25T13:10:17Z</time>
      </trkpt>
      <trkpt lat="45.83668" lon="1.18242">
        <ele>325.9</ele>
        <time>2024-09-25T13:10:18Z</time>
      </trkpt>
      <trkpt lat="45.83672" lon="1.18243">
        <ele>325.9</ele>
        <time>2024-09-25T13:10:19Z</time>
      </trkpt>
      <trkpt lat="45.83676" lon="1.18243">
        <ele>326</ele>
        <time>2024-09-25T13:10:20Z</time>
      </trkpt>
      <trkpt lat="45.8368" lon="1.18243">
        <ele>326</ele>
        <time>2024-09-25T13:10:21Z</time>
      </trkpt>
      <trkpt lat="45.83684" lon="1.18243">
        <ele>326.1</ele>
        <time>2024-09-25T13:10:22Z</time>
      </trkpt>
      <trkpt lat="45.83687" lon="1.18243">
        <ele>326.1</ele>
        <time>2024-09-25T13:10:23Z</time>
      </trkpt>
      <trkpt lat="45.8369" lon="1.18244">
        <ele>326.1</ele>
        <time>2024-09-25T13:10:24Z</time>
      </trkpt>
      <trkpt lat="45.83693" lon="1.18247">
        <ele>326.2</ele>
        <time>2024-09-25T13:10:25Z</time>
      </trkpt>
      <trkpt lat="45.83694" lon="1.1825">
        <ele>326.3</ele>
        <time>2024-09-25T13:10:26Z</time>
      </trkpt>
      <trkpt lat="45.83694" lon="1.18255">
        <ele>326.4</ele>
        <time>2024-09-25T13:10:28Z</time>
      </trkpt>
      <trkpt lat="45.83694" lon="1.18261">
        <ele>326.6</ele>
        <time>2024-09-25T13:10:30Z</time>
      </trkpt>
      <trkpt lat="45.83695" lon="1.18267">
        <ele>326.9</ele>
        <time>2024-09-25T13:10:32Z</time>
      </trkpt>
      <trkpt lat="45.83696" lon="1.18272">
        <ele>327.1</ele>
        <time>2024-09-25T13:10:33Z</time>
      </trkpt>
      <trkpt lat="45.83696" lon="1.18276">
        <ele>327.3</ele>
        <time>2024-09-25T13:10:34Z</time>
      </trkpt>
      <trkpt lat="45.83696" lon="1.18283">
        <ele>327.6</ele>
        <time>2024-09-25T13:10:36Z</time>
      </trkpt>
      <trkpt lat="45.83697" lon="1.18288">
        <ele>327.8</ele>
        <time>2024-09-25T13:10:37Z</time>
      </trkpt>
      <trkpt lat="45.83696" lon="1.18293">
        <ele>328.1</ele>
        <time>2024-09-25T13:10:38Z</time>
      </trkpt>
      <trkpt lat="45.83696" lon="1.18297">
        <ele>328.2</ele>
        <time>2024-09-25T13:10:39Z</time>
      </trkpt>
      <trkpt lat="45.83697" lon="1.18302">
        <ele>328.5</ele>
        <time>2024-09-25T13:10:40Z</time>
      </trkpt>
      <trkpt lat="45.83697" lon="1.18307">
        <ele>328.7</ele>
        <time>2024-09-25T13:10:41Z</time>
      </trkpt>
      <trkpt lat="45.83696" lon="1.18311">
        <ele>328.8</ele>
        <time>2024-09-25T13:10:42Z</time>
      </trkpt>
      <trkpt lat="45.83695" lon="1.18315">
        <ele>329</ele>
        <time>2024-09-25T13:10:43Z</time>
      </trkpt>
      <trkpt lat="45.83693" lon="1.18322">
        <ele>329.3</ele>
        <time>2024-09-25T13:10:45Z</time>
      </trkpt>
      <trkpt lat="45.83692" lon="1.18328">
        <ele>329.5</ele>
        <time>2024-09-25T13:10:47Z</time>
      </trkpt>
      <trkpt lat="45.83692" lon="1.18335">
        <ele>329.7</ele>
        <time>2024-09-25T13:10:49Z</time>
      </trkpt>
      <trkpt lat="45.83691" lon="1.18341">
        <ele>329.9</ele>
        <time>2024-09-25T13:10:50Z</time>
      </trkpt>
      <trkpt lat="45.83691" lon="1.18346">
        <ele>330</ele>
        <time>2024-09-25T13:10:51Z</time>
      </trkpt>
      <trkpt lat="45.83691" lon="1.18352">
        <ele>330.1</ele>
        <time>2024-09-25T13:10:52Z</time>
      </trkpt>
      <trkpt lat="45.83691" lon="1.18357">
        <ele>330.2</ele>
        <time>2024-09-25T13:10:53Z</time>
      </trkpt>
      <trkpt lat="45.83691" lon="1.18362">
        <ele>330.3</ele>
        <time>2024-09-25T13:10:54Z</time>
      </trkpt>
      <trkpt lat="45.83691" lon="1.18368">
        <ele>330.4</ele>
        <time>2024-09-25T13:10:55Z</time>
      </trkpt>
      <trkpt lat="45.83692" lon="1.18375">
        <ele>330.4</ele>
        <time>2024-09-25T13:10:56Z</time>
      </trkpt>
      <trkpt lat="45.83692" lon="1.18381">
        <ele>330.4</ele>
        <time>2024-09-25T13:10:57Z</time>
      </trkpt>
      <trkpt lat="45.83692" lon="1.18388">
        <ele>330.4</ele>
        <time>2024-09-25T13:10:58Z</time>
      </trkpt>
      <trkpt lat="45.83693" lon="1.18393">
        <ele>330.4</ele>
        <time>2024-09-25T13:10:59Z</time>
      </trkpt>
      <trkpt lat="45.83694" lon="1.18399">
        <ele>330.4</ele>
        <time>2024-09-25T13:11:00Z</time>
      </trkpt>
      <trkpt lat="45.83694" lon="1.18404">
        <ele>330.3</ele>
        <time>2024-09-25T13:11:01Z</time>
      </trkpt>
      <trkpt lat="45.83694" lon="1.18409">
        <ele>330.3</ele>
        <time>2024-09-25T13:11:02Z</time>
      </trkpt>
      <trkpt lat="45.83695" lon="1.18414">
        <ele>330.2</ele>
        <time>2024-09-25T13:11:04Z</time>
      </trkpt>
      <trkpt lat="45.83697" lon="1.18417">
        <ele>330.1</ele>
        <time>2024-09-25T13:11:06Z</time>
      </trkpt>
      <trkpt lat="45.83701" lon="1.18419">
        <ele>330.3</ele>
        <time>2024-09-25T13:11:08Z</time>
      </trkpt>
      <trkpt lat="45.83704" lon="1.1842">
        <ele>330.3</ele>
        <time>2024-09-25T13:11:09Z</time>
      </trkpt>
      <trkpt lat="45.83707" lon="1.1842">
        <ele>330.4</ele>
        <time>2024-09-25T13:11:10Z</time>
      </trkpt>
      <trkpt lat="45.8371" lon="1.1842">
        <ele>330.5</ele>
        <time>2024-09-25T13:11:11Z</time>
      </trkpt>
      <trkpt lat="45.83715" lon="1.1842">
        <ele>330.7</ele>
        <time>2024-09-25T13:11:13Z</time>
      </trkpt>
      <trkpt lat="45.83719" lon="1.18419">
        <ele>330.9</ele>
        <time>2024-09-25T13:11:14Z</time>
      </trkpt>
      <trkpt lat="45.83724" lon="1.18418">
        <ele>331</ele>
        <time>2024-09-25T13:11:15Z</time>
      </trkpt>
      <trkpt lat="45.83728" lon="1.18416">
        <ele>331.2</ele>
        <time>2024-09-25T13:11:16Z</time>
      </trkpt>
      <trkpt lat="45.83732" lon="1.18416">
        <ele>331.4</ele>
        <time>2024-09-25T13:11:18Z</time>
      </trkpt>
      <trkpt lat="45.83736" lon="1.18415">
        <ele>331.5</ele>
        <time>2024-09-25T13:11:19Z</time>
      </trkpt>
      <trkpt lat="45.8374" lon="1.18414">
        <ele>331.7</ele>
        <time>2024-09-25T13:11:20Z</time>
      </trkpt>
      <trkpt lat="45.83744" lon="1.18412">
        <ele>331.8</ele>
        <time>2024-09-25T13:11:21Z</time>
      </trkpt>
      <trkpt lat="45.83748" lon="1.18411">
        <ele>332</ele>
        <time>2024-09-25T13:11:22Z</time>
      </trkpt>
      <trkpt lat="45.83751" lon="1.18409">
        <ele>332.2</ele>
        <time>2024-09-25T13:11:23Z</time>
      </trkpt>
      <trkpt lat="45.83755" lon="1.18407">
        <ele>332.3</ele>
        <time>2024-09-25T13:11:25Z</time>
      </trkpt>
      <trkpt lat="45.83758" lon="1.18405">
        <ele>332.5</ele>
        <time>2024-09-25T13:11:26Z</time>
      </trkpt>
      <trkpt lat="45.83761" lon="1.18404">
        <ele>332.6</ele>
        <time>2024-09-25T13:11:27Z</time>
      </trkpt>
      <trkpt lat="45.83765" lon="1.18402">
        <ele>332.8</ele>
        <time>2024-09-25T13:11:29Z</time>
      </trkpt>
      <trkpt lat="45.8377" lon="1.18399">
        <ele>333</ele>
        <time>2024-09-25T13:11:30Z</time>
      </trkpt>
      <trkpt lat="45.83773" lon="1.18397">
        <ele>333.1</ele>
        <time>2024-09-25T13:11:31Z</time>
      </trkpt>
      <trkpt lat="45.83777" lon="1.18396">
        <ele>333.2</ele>
        <time>2024-09-25T13:11:32Z</time>
      </trkpt>
      <trkpt lat="45.8378" lon="1.18394">
        <ele>333.4</ele>
        <time>2024-09-25T13:11:33Z</time>
      </trkpt>
      <trkpt lat="45.83784" lon="1.18393">
        <ele>333.5</ele>
        <time>2024-09-25T13:11:34Z</time>
      </trkpt>
      <trkpt lat="45.83788" lon="1.18392">
        <ele>333.7</ele>
        <time>2024-09-25T13:11:35Z</time>
      </trkpt>
      <trkpt lat="45.83791" lon="1.18391">
        <ele>333.8</ele>
        <time>2024-09-25T13:11:36Z</time>
      </trkpt>
      <trkpt lat="45.83794" lon="1.1839">
        <ele>333.9</ele>
        <time>2024-09-25T13:11:37Z</time>
      </trkpt>
      <trkpt lat="45.83797" lon="1.18389">
        <ele>334</ele>
        <time>2024-09-25T13:11:38Z</time>
      </trkpt>
      <trkpt lat="45.83803" lon="1.1839">
        <ele>334.3</ele>
        <time>2024-09-25T13:11:39Z</time>
      </trkpt>
      <trkpt lat="45.83807" lon="1.18389">
        <ele>334.4</ele>
        <time>2024-09-25T13:11:40Z</time>
      </trkpt>
      <trkpt lat="45.83812" lon="1.18387">
        <ele>334.6</ele>
        <time>2024-09-25T13:11:42Z</time>
      </trkpt>
      <trkpt lat="45.83816" lon="1.18385">
        <ele>334.7</ele>
        <time>2024-09-25T13:11:44Z</time>
      </trkpt>
      <trkpt lat="45.83819" lon="1.18383">
        <ele>334.8</ele>
        <time>2024-09-25T13:11:45Z</time>
      </trkpt>
      <trkpt lat="45.83822" lon="1.18382">
        <ele>334.9</ele>
        <time>2024-09-25T13:11:46Z</time>
      </trkpt>
      <trkpt lat="45.83825" lon="1.18381">
        <ele>335</ele>
        <time>2024-09-25T13:11:47Z</time>
      </trkpt>
      <trkpt lat="45.83828" lon="1.18379">
        <ele>335.1</ele>
        <time>2024-09-25T13:11:48Z</time>
      </trkpt>
      <trkpt lat="45.83832" lon="1.18378">
        <ele>335.2</ele>
        <time>2024-09-25T13:11:49Z</time>
      </trkpt>
      <trkpt lat="45.83836" lon="1.18377">
        <ele>335.4</ele>
        <time>2024-09-25T13:11:51Z</time>
      </trkpt>
      <trkpt lat="45.83839" lon="1.18376">
        <ele>335.5</ele>
        <time>2024-09-25T13:11:52Z</time>
      </trkpt>
      <trkpt lat="45.83843" lon="1.18375">
        <ele>335.6</ele>
        <time>2024-09-25T13:11:53Z</time>
      </trkpt>
      <trkpt lat="45.83847" lon="1.18374">
        <ele>335.7</ele>
        <time>2024-09-25T13:11:54Z</time>
      </trkpt>
      <trkpt lat="45.83852" lon="1.18372">
        <ele>335.8</ele>
        <time>2024-09-25T13:11:55Z</time>
      </trkpt>
      <trkpt lat="45.83856" lon="1.18372">
        <ele>335.9</ele>
        <time>2024-09-25T13:11:56Z</time>
      </trkpt>
      <trkpt lat="45.8386" lon="1.18371">
        <ele>336</ele>
        <time>2024-09-25T13:11:57Z</time>
      </trkpt>
      <trkpt lat="45.83864" lon="1.1837">
        <ele>336.1</ele>
        <time>2024-09-25T13:11:59Z</time>
      </trkpt>
      <trkpt lat="45.83868" lon="1.18368">
        <ele>336.2</ele>
        <time>2024-09-25T13:12:00Z</time>
      </trkpt>
      <trkpt lat="45.83872" lon="1.18367">
        <ele>336.2</ele>
        <time>2024-09-25T13:12:01Z</time>
      </trkpt>
      <trkpt lat="45.83876" lon="1.18365">
        <ele>336.3</ele>
        <time>2024-09-25T13:12:02Z</time>
      </trkpt>
      <trkpt lat="45.8388" lon="1.18363">
        <ele>336.3</ele>
        <time>2024-09-25T13:12:03Z</time>
      </trkpt>
      <trkpt lat="45.83884" lon="1.18362">
        <ele>336.3</ele>
        <time>2024-09-25T13:12:04Z</time>
      </trkpt>
      <trkpt lat="45.83888" lon="1.1836">
        <ele>336.3</ele>
        <time>2024-09-25T13:12:05Z</time>
      </trkpt>
      <trkpt lat="45.83891" lon="1.18359">
        <ele>336.3</ele>
        <time>2024-09-25T13:12:06Z</time>
      </trkpt>
      <trkpt lat="45.83895" lon="1.18358">
        <ele>336.4</ele>
        <time>2024-09-25T13:12:07Z</time>
      </trkpt>
      <trkpt lat="45.839" lon="1.18357">
        <ele>336.5</ele>
        <time>2024-09-25T13:12:08Z</time>
      </trkpt>
      <trkpt lat="45.83904" lon="1.18356">
        <ele>336.5</ele>
        <time>2024-09-25T13:12:09Z</time>
      </trkpt>
      <trkpt lat="45.83908" lon="1.18355">
        <ele>336.6</ele>
        <time>2024-09-25T13:12:10Z</time>
      </trkpt>
      <trkpt lat="45.83912" lon="1.18354">
        <ele>336.7</ele>
        <time>2024-09-25T13:12:11Z</time>
      </trkpt>
      <trkpt lat="45.83915" lon="1.18354">
        <ele>336.7</ele>
        <time>2024-09-25T13:12:12Z</time>
      </trkpt>
      <trkpt lat="45.83918" lon="1.18353">
        <ele>336.7</ele>
        <time>2024-09-25T13:12:13Z</time>
      </trkpt>
      <trkpt lat="45.83921" lon="1.1835">
        <ele>336.8</ele>
        <time>2024-09-25T13:12:15Z</time>
      </trkpt>
      <trkpt lat="45.83924" lon="1.18346">
        <ele>337.1</ele>
        <time>2024-09-25T13:12:17Z</time>
      </trkpt>
      <trkpt lat="45.83925" lon="1.18342">
        <ele>337.3</ele>
        <time>2024-09-25T13:12:18Z</time>
      </trkpt>
      <trkpt lat="45.83926" lon="1.18338">
        <ele>337.5</ele>
        <time>2024-09-25T13:12:19Z</time>
      </trkpt>
      <trkpt lat="45.83927" lon="1.18332">
        <ele>337.8</ele>
        <time>2024-09-25T13:12:21Z</time>
      </trkpt>
      <trkpt lat="45.83928" lon="1.18327">
        <ele>338</ele>
        <time>2024-09-25T13:12:22Z</time>
      </trkpt>
      <trkpt lat="45.83927" lon="1.18321">
        <ele>338.1</ele>
        <time>2024-09-25T13:12:23Z</time>
      </trkpt>
      <trkpt lat="45.83927" lon="1.18316">
        <ele>338.1</ele>
        <time>2024-09-25T13:12:24Z</time>
      </trkpt>
      <trkpt lat="45.83927" lon="1.18311">
        <ele>338.2</ele>
        <time>2024-09-25T13:12:25Z</time>
      </trkpt>
      <trkpt lat="45.83927" lon="1.18305">
        <ele>338.3</ele>
        <time>2024-09-25T13:12:27Z</time>
      </trkpt>
      <trkpt lat="45.83926" lon="1.18298">
        <ele>338.4</ele>
        <time>2024-09-25T13:12:29Z</time>
      </trkpt>
      <trkpt lat="45.83926" lon="1.18292">
        <ele>338.4</ele>
        <time>2024-09-25T13:12:30Z</time>
      </trkpt>
      <trkpt lat="45.83927" lon="1.18287">
        <ele>338.5</ele>
        <time>2024-09-25T13:12:31Z</time>
      </trkpt>
      <trkpt lat="45.83928" lon="1.18281">
        <ele>338.5</ele>
        <time>2024-09-25T13:12:32Z</time>
      </trkpt>
      <trkpt lat="45.83929" lon="1.18276">
        <ele>338.6</ele>
        <time>2024-09-25T13:12:33Z</time>
      </trkpt>
      <trkpt lat="45.8393" lon="1.1827">
        <ele>338.6</ele>
        <time>2024-09-25T13:12:34Z</time>
      </trkpt>
      <trkpt lat="45.83933" lon="1.18265">
        <ele>338.7</ele>
        <time>2024-09-25T13:12:35Z</time>
      </trkpt>
      <trkpt lat="45.83935" lon="1.18261">
        <ele>338.7</ele>
        <time>2024-09-25T13:12:36Z</time>
      </trkpt>
      <trkpt lat="45.83938" lon="1.18257">
        <ele>338.8</ele>
        <time>2024-09-25T13:12:37Z</time>
      </trkpt>
      <trkpt lat="45.8394" lon="1.18253">
        <ele>338.8</ele>
        <time>2024-09-25T13:12:38Z</time>
      </trkpt>
      <trkpt lat="45.83943" lon="1.18249">
        <ele>338.8</ele>
        <time>2024-09-25T13:12:39Z</time>
      </trkpt>
      <trkpt lat="45.83946" lon="1.18244">
        <ele>338.9</ele>
        <time>2024-09-25T13:12:40Z</time>
      </trkpt>
      <trkpt lat="45.83949" lon="1.1824">
        <ele>338.9</ele>
        <time>2024-09-25T13:12:41Z</time>
      </trkpt>
      <trkpt lat="45.83952" lon="1.18236">
        <ele>339</ele>
        <time>2024-09-25T13:12:42Z</time>
      </trkpt>
      <trkpt lat="45.83955" lon="1.18232">
        <ele>339</ele>
        <time>2024-09-25T13:12:43Z</time>
      </trkpt>
      <trkpt lat="45.83958" lon="1.18229">
        <ele>339.1</ele>
        <time>2024-09-25T13:12:44Z</time>
      </trkpt>
      <trkpt lat="45.83961" lon="1.18227">
        <ele>339.1</ele>
        <time>2024-09-25T13:12:45Z</time>
      </trkpt>
      <trkpt lat="45.83964" lon="1.18224">
        <ele>339.2</ele>
        <time>2024-09-25T13:12:46Z</time>
      </trkpt>
      <trkpt lat="45.83967" lon="1.1822">
        <ele>339.2</ele>
        <time>2024-09-25T13:12:47Z</time>
      </trkpt>
      <trkpt lat="45.8397" lon="1.18217">
        <ele>339.3</ele>
        <time>2024-09-25T13:12:48Z</time>
      </trkpt>
      <trkpt lat="45.83973" lon="1.18213">
        <ele>339.4</ele>
        <time>2024-09-25T13:12:49Z</time>
      </trkpt>
      <trkpt lat="45.83976" lon="1.18209">
        <ele>339.5</ele>
        <time>2024-09-25T13:12:50Z</time>
      </trkpt>
      <trkpt lat="45.83979" lon="1.18204">
        <ele>339.6</ele>
        <time>2024-09-25T13:12:51Z</time>
      </trkpt>
      <trkpt lat="45.83981" lon="1.182">
        <ele>339.7</ele>
        <time>2024-09-25T13:12:52Z</time>
      </trkpt>
      <trkpt lat="45.83984" lon="1.18196">
        <ele>339.8</ele>
        <time>2024-09-25T13:12:53Z</time>
      </trkpt>
      <trkpt lat="45.83988" lon="1.18192">
        <ele>340</ele>
        <time>2024-09-25T13:12:54Z</time>
      </trkpt>
      <trkpt lat="45.83991" lon="1.18188">
        <ele>340.1</ele>
        <time>2024-09-25T13:12:55Z</time>
      </trkpt>
      <trkpt lat="45.83994" lon="1.18184">
        <ele>340.2</ele>
        <time>2024-09-25T13:12:56Z</time>
      </trkpt>
      <trkpt lat="45.83996" lon="1.18181">
        <ele>340.3</ele>
        <time>2024-09-25T13:12:57Z</time>
      </trkpt>
      <trkpt lat="45.83999" lon="1.18177">
        <ele>340.4</ele>
        <time>2024-09-25T13:12:58Z</time>
      </trkpt>
      <trkpt lat="45.84001" lon="1.18173">
        <ele>340.6</ele>
        <time>2024-09-25T13:12:59Z</time>
      </trkpt>
      <trkpt lat="45.84004" lon="1.18168">
        <ele>340.7</ele>
        <time>2024-09-25T13:13:00Z</time>
      </trkpt>
      <trkpt lat="45.84006" lon="1.18163">
        <ele>340.8</ele>
        <time>2024-09-25T13:13:01Z</time>
      </trkpt>
      <trkpt lat="45.84009" lon="1.18159">
        <ele>340.9</ele>
        <time>2024-09-25T13:13:02Z</time>
      </trkpt>
      <trkpt lat="45.84011" lon="1.18154">
        <ele>341</ele>
        <time>2024-09-25T13:13:03Z</time>
      </trkpt>
      <trkpt lat="45.84014" lon="1.1815">
        <ele>341.1</ele>
        <time>2024-09-25T13:13:04Z</time>
      </trkpt>
      <trkpt lat="45.84015" lon="1.18147">
        <ele>341.2</ele>
        <time>2024-09-25T13:13:05Z</time>
      </trkpt>
      <trkpt lat="45.84017" lon="1.18143">
        <ele>341.3</ele>
        <time>2024-09-25T13:13:06Z</time>
      </trkpt>
      <trkpt lat="45.84019" lon="1.18138">
        <ele>341.3</ele>
        <time>2024-09-25T13:13:07Z</time>
      </trkpt>
      <trkpt lat="45.8402" lon="1.18133">
        <ele>341.4</ele>
        <time>2024-09-25T13:13:08Z</time>
      </trkpt>
      <trkpt lat="45.8402" lon="1.18127">
        <ele>341.3</ele>
        <time>2024-09-25T13:13:09Z</time>
      </trkpt>
      <trkpt lat="45.84019" lon="1.18121">
        <ele>341.2</ele>
        <time>2024-09-25T13:13:10Z</time>
      </trkpt>
      <trkpt lat="45.84019" lon="1.18116">
        <ele>341.1</ele>
        <time>2024-09-25T13:13:11Z</time>
      </trkpt>
      <trkpt lat="45.84018" lon="1.1811">
        <ele>341</ele>
        <time>2024-09-25T13:13:12Z</time>
      </trkpt>
      <trkpt lat="45.84018" lon="1.18104">
        <ele>340.9</ele>
        <time>2024-09-25T13:13:13Z</time>
      </trkpt>
      <trkpt lat="45.84017" lon="1.18098">
        <ele>340.8</ele>
        <time>2024-09-25T13:13:14Z</time>
      </trkpt>
      <trkpt lat="45.84017" lon="1.18093">
        <ele>340.8</ele>
        <time>2024-09-25T13:13:15Z</time>
      </trkpt>
      <trkpt lat="45.84016" lon="1.18087">
        <ele>340.7</ele>
        <time>2024-09-25T13:13:16Z</time>
      </trkpt>
      <trkpt lat="45.84015" lon="1.18081">
        <ele>340.6</ele>
        <time>2024-09-25T13:13:17Z</time>
      </trkpt>
      <trkpt lat="45.84014" lon="1.18075">
        <ele>340.6</ele>
        <time>2024-09-25T13:13:18Z</time>
      </trkpt>
      <trkpt lat="45.84013" lon="1.18068">
        <ele>340.6</ele>
        <time>2024-09-25T13:13:19Z</time>
      </trkpt>
      <trkpt lat="45.84011" lon="1.18062">
        <ele>340.5</ele>
        <time>2024-09-25T13:13:20Z</time>
      </trkpt>
      <trkpt lat="45.8401" lon="1.18054">
        <ele>340.5</ele>
        <time>2024-09-25T13:13:21Z</time>
      </trkpt>
      <trkpt lat="45.84008" lon="1.18046">
        <ele>340.4</ele>
        <time>2024-09-25T13:13:22Z</time>
      </trkpt>
      <trkpt lat="45.84006" lon="1.18039">
        <ele>340.4</ele>
        <time>2024-09-25T13:13:23Z</time>
      </trkpt>
      <trkpt lat="45.84003" lon="1.18032">
        <ele>340.3</ele>
        <time>2024-09-25T13:13:24Z</time>
      </trkpt>
      <trkpt lat="45.84001" lon="1.18026">
        <ele>340.2</ele>
        <time>2024-09-25T13:13:25Z</time>
      </trkpt>
      <trkpt lat="45.83998" lon="1.18019">
        <ele>340.1</ele>
        <time>2024-09-25T13:13:26Z</time>
      </trkpt>
      <trkpt lat="45.83995" lon="1.18013">
        <ele>340</ele>
        <time>2024-09-25T13:13:27Z</time>
      </trkpt>
      <trkpt lat="45.83992" lon="1.18007">
        <ele>339.8</ele>
        <time>2024-09-25T13:13:28Z</time>
      </trkpt>
      <trkpt lat="45.83988" lon="1.18">
        <ele>339.6</ele>
        <time>2024-09-25T13:13:29Z</time>
      </trkpt>
      <trkpt lat="45.83985" lon="1.17994">
        <ele>339.4</ele>
        <time>2024-09-25T13:13:30Z</time>
      </trkpt>
      <trkpt lat="45.83981" lon="1.17987">
        <ele>339.2</ele>
        <time>2024-09-25T13:13:31Z</time>
      </trkpt>
      <trkpt lat="45.83978" lon="1.1798">
        <ele>339</ele>
        <time>2024-09-25T13:13:32Z</time>
      </trkpt>
      <trkpt lat="45.83975" lon="1.17973">
        <ele>338.8</ele>
        <time>2024-09-25T13:13:33Z</time>
      </trkpt>
      <trkpt lat="45.83973" lon="1.17965">
        <ele>338.6</ele>
        <time>2024-09-25T13:13:34Z</time>
      </trkpt>
      <trkpt lat="45.8397" lon="1.17958">
        <ele>338.4</ele>
        <time>2024-09-25T13:13:35Z</time>
      </trkpt>
      <trkpt lat="45.83967" lon="1.17952">
        <ele>338.3</ele>
        <time>2024-09-25T13:13:36Z</time>
      </trkpt>
      <trkpt lat="45.83964" lon="1.17946">
        <ele>338.1</ele>
        <time>2024-09-25T13:13:37Z</time>
      </trkpt>
      <trkpt lat="45.8396" lon="1.1794">
        <ele>337.9</ele>
        <time>2024-09-25T13:13:38Z</time>
      </trkpt>
      <trkpt lat="45.83957" lon="1.17934">
        <ele>337.8</ele>
        <time>2024-09-25T13:13:39Z</time>
      </trkpt>
      <trkpt lat="45.83953" lon="1.17929">
        <ele>337.6</ele>
        <time>2024-09-25T13:13:40Z</time>
      </trkpt>
      <trkpt lat="45.83949" lon="1.17925">
        <ele>337.5</ele>
        <time>2024-09-25T13:13:41Z</time>
      </trkpt>
      <trkpt lat="45.83945" lon="1.17924">
        <ele>337.3</ele>
        <time>2024-09-25T13:13:42Z</time>
      </trkpt>
      <trkpt lat="45.8394" lon="1.17925">
        <ele>337</ele>
        <time>2024-09-25T13:13:43Z</time>
      </trkpt>
      <trkpt lat="45.83934" lon="1.1793">
        <ele>336.5</ele>
        <time>2024-09-25T13:13:44Z</time>
      </trkpt>
      <trkpt lat="45.83929" lon="1.17934">
        <ele>336.1</ele>
        <time>2024-09-25T13:13:45Z</time>
      </trkpt>
      <trkpt lat="45.83924" lon="1.17939">
        <ele>335.6</ele>
        <time>2024-09-25T13:13:46Z</time>
      </trkpt>
      <trkpt lat="45.83919" lon="1.17943">
        <ele>335.2</ele>
        <time>2024-09-25T13:13:47Z</time>
      </trkpt>
      <trkpt lat="45.83914" lon="1.17947">
        <ele>334.9</ele>
        <time>2024-09-25T13:13:48Z</time>
      </trkpt>
      <trkpt lat="45.83907" lon="1.17952">
        <ele>334.4</ele>
        <time>2024-09-25T13:13:49Z</time>
      </trkpt>
      <trkpt lat="45.83903" lon="1.17956">
        <ele>334.1</ele>
        <time>2024-09-25T13:13:50Z</time>
      </trkpt>
      <trkpt lat="45.83898" lon="1.17961">
        <ele>333.8</ele>
        <time>2024-09-25T13:13:51Z</time>
      </trkpt>
      <trkpt lat="45.83893" lon="1.17964">
        <ele>333.5</ele>
        <time>2024-09-25T13:13:52Z</time>
      </trkpt>
      <trkpt lat="45.8389" lon="1.17968">
        <ele>333.2</ele>
        <time>2024-09-25T13:13:53Z</time>
      </trkpt>
      <trkpt lat="45.83886" lon="1.1797">
        <ele>333</ele>
        <time>2024-09-25T13:13:54Z</time>
      </trkpt>
      <trkpt lat="45.83881" lon="1.17973">
        <ele>332.8</ele>
        <time>2024-09-25T13:13:55Z</time>
      </trkpt>
      <trkpt lat="45.83876" lon="1.17975">
        <ele>332.5</ele>
        <time>2024-09-25T13:13:57Z</time>
      </trkpt>
      <trkpt lat="45.83872" lon="1.17976">
        <ele>332.3</ele>
        <time>2024-09-25T13:13:58Z</time>
      </trkpt>
      <trkpt lat="45.83869" lon="1.17975">
        <ele>332.1</ele>
        <time>2024-09-25T13:13:59Z</time>
      </trkpt>
      <trkpt lat="45.83866" lon="1.17973">
        <ele>332</ele>
        <time>2024-09-25T13:14:00Z</time>
      </trkpt>
      <trkpt lat="45.83862" lon="1.17971">
        <ele>331.8</ele>
        <time>2024-09-25T13:14:01Z</time>
      </trkpt>
      <trkpt lat="45.83859" lon="1.17969">
        <ele>331.6</ele>
        <time>2024-09-25T13:14:02Z</time>
      </trkpt>
      <trkpt lat="45.83855" lon="1.17967">
        <ele>331.4</ele>
        <time>2024-09-25T13:14:03Z</time>
      </trkpt>
      <trkpt lat="45.8385" lon="1.17964">
        <ele>331.2</ele>
        <time>2024-09-25T13:14:04Z</time>
      </trkpt>
      <trkpt lat="45.83845" lon="1.17962">
        <ele>330.9</ele>
        <time>2024-09-25T13:14:05Z</time>
      </trkpt>
      <trkpt lat="45.8384" lon="1.1796">
        <ele>330.5</ele>
        <time>2024-09-25T13:14:06Z</time>
      </trkpt>
      <trkpt lat="45.83835" lon="1.17958">
        <ele>330.2</ele>
        <time>2024-09-25T13:14:07Z</time>
      </trkpt>
      <trkpt lat="45.83829" lon="1.17956">
        <ele>329.7</ele>
        <time>2024-09-25T13:14:08Z</time>
      </trkpt>
      <trkpt lat="45.83824" lon="1.17953">
        <ele>329.2</ele>
        <time>2024-09-25T13:14:09Z</time>
      </trkpt>
      <trkpt lat="45.83818" lon="1.1795">
        <ele>328.7</ele>
        <time>2024-09-25T13:14:10Z</time>
      </trkpt>
      <trkpt lat="45.83813" lon="1.17949">
        <ele>328.2</ele>
        <time>2024-09-25T13:14:11Z</time>
      </trkpt>
      <trkpt lat="45.83808" lon="1.17948">
        <ele>327.8</ele>
        <time>2024-09-25T13:14:12Z</time>
      </trkpt>
      <trkpt lat="45.83802" lon="1.17946">
        <ele>327.3</ele>
        <time>2024-09-25T13:14:13Z</time>
      </trkpt>
      <trkpt lat="45.83796" lon="1.17944">
        <ele>326.8</ele>
        <time>2024-09-25T13:14:14Z</time>
      </trkpt>
      <trkpt lat="45.8379" lon="1.17943">
        <ele>326.3</ele>
        <time>2024-09-25T13:14:15Z</time>
      </trkpt>
      <trkpt lat="45.83785" lon="1.17941">
        <ele>325.8</ele>
        <time>2024-09-25T13:14:16Z</time>
      </trkpt>
      <trkpt lat="45.83779" lon="1.17939">
        <ele>325.3</ele>
        <time>2024-09-25T13:14:17Z</time>
      </trkpt>
      <trkpt lat="45.83774" lon="1.17936">
        <ele>324.8</ele>
        <time>2024-09-25T13:14:18Z</time>
      </trkpt>
      <trkpt lat="45.83768" lon="1.17934">
        <ele>324.3</ele>
        <time>2024-09-25T13:14:19Z</time>
      </trkpt>
      <trkpt lat="45.83762" lon="1.17932">
        <ele>323.9</ele>
        <time>2024-09-25T13:14:20Z</time>
      </trkpt>
      <trkpt lat="45.83755" lon="1.1793">
        <ele>323.3</ele>
        <time>2024-09-25T13:14:21Z</time>
      </trkpt>
      <trkpt lat="45.83749" lon="1.17928">
        <ele>322.8</ele>
        <time>2024-09-25T13:14:22Z</time>
      </trkpt>
      <trkpt lat="45.83743" lon="1.17926">
        <ele>322.4</ele>
        <time>2024-09-25T13:14:23Z</time>
      </trkpt>
      <trkpt lat="45.83736" lon="1.17924">
        <ele>321.9</ele>
        <time>2024-09-25T13:14:24Z</time>
      </trkpt>
      <trkpt lat="45.8373" lon="1.17921">
        <ele>321.6</ele>
        <time>2024-09-25T13:14:25Z</time>
      </trkpt>
      <trkpt lat="45.83723" lon="1.17918">
        <ele>321.1</ele>
        <time>2024-09-25T13:14:26Z</time>
      </trkpt>
      <trkpt lat="45.83716" lon="1.17917">
        <ele>320.8</ele>
        <time>2024-09-25T13:14:27Z</time>
      </trkpt>
      <trkpt lat="45.8371" lon="1.17916">
        <ele>320.4</ele>
        <time>2024-09-25T13:14:28Z</time>
      </trkpt>
      <trkpt lat="45.83704" lon="1.17916">
        <ele>320.1</ele>
        <time>2024-09-25T13:14:29Z</time>
      </trkpt>
      <trkpt lat="45.83698" lon="1.17916">
        <ele>319.8</ele>
        <time>2024-09-25T13:14:30Z</time>
      </trkpt>
      <trkpt lat="45.83691" lon="1.17916">
        <ele>319.6</ele>
        <time>2024-09-25T13:14:31Z</time>
      </trkpt>
      <trkpt lat="45.83686" lon="1.17915">
        <ele>319.4</ele>
        <time>2024-09-25T13:14:32Z</time>
      </trkpt>
      <trkpt lat="45.83683" lon="1.17913">
        <ele>319.3</ele>
        <time>2024-09-25T13:14:33Z</time>
      </trkpt>
      <trkpt lat="45.8368" lon="1.17911">
        <ele>319.3</ele>
        <time>2024-09-25T13:14:34Z</time>
      </trkpt>
      <trkpt lat="45.83678" lon="1.17907">
        <ele>319.2</ele>
        <time>2024-09-25T13:14:35Z</time>
      </trkpt>
      <trkpt lat="45.83677" lon="1.17903">
        <ele>319.2</ele>
        <time>2024-09-25T13:14:36Z</time>
      </trkpt>
      <trkpt lat="45.83677" lon="1.17897">
        <ele>319.2</ele>
        <time>2024-09-25T13:14:37Z</time>
      </trkpt>
      <trkpt lat="45.83677" lon="1.17892">
        <ele>319.2</ele>
        <time>2024-09-25T13:14:38Z</time>
      </trkpt>
      <trkpt lat="45.83677" lon="1.17886">
        <ele>319.2</ele>
        <time>2024-09-25T13:14:39Z</time>
      </trkpt>
      <trkpt lat="45.83676" lon="1.1788">
        <ele>319.3</ele>
        <time>2024-09-25T13:14:40Z</time>
      </trkpt>
      <trkpt lat="45.83676" lon="1.17873">
        <ele>319.4</ele>
        <time>2024-09-25T13:14:41Z</time>
      </trkpt>
      <trkpt lat="45.83676" lon="1.17866">
        <ele>319.4</ele>
        <time>2024-09-25T13:14:42Z</time>
      </trkpt>
      <trkpt lat="45.83676" lon="1.17859">
        <ele>319.5</ele>
        <time>2024-09-25T13:14:43Z</time>
      </trkpt>
      <trkpt lat="45.83675" lon="1.17853">
        <ele>319.6</ele>
        <time>2024-09-25T13:14:44Z</time>
      </trkpt>
      <trkpt lat="45.83675" lon="1.17845">
        <ele>319.8</ele>
        <time>2024-09-25T13:14:45Z</time>
      </trkpt>
      <trkpt lat="45.83675" lon="1.17839">
        <ele>319.9</ele>
        <time>2024-09-25T13:14:46Z</time>
      </trkpt>
      <trkpt lat="45.83675" lon="1.17833">
        <ele>320</ele>
        <time>2024-09-25T13:14:47Z</time>
      </trkpt>
      <trkpt lat="45.83675" lon="1.17827">
        <ele>320.1</ele>
        <time>2024-09-25T13:14:48Z</time>
      </trkpt>
      <trkpt lat="45.83674" lon="1.1782">
        <ele>320.2</ele>
        <time>2024-09-25T13:14:49Z</time>
      </trkpt>
      <trkpt lat="45.83674" lon="1.17814">
        <ele>320.3</ele>
        <time>2024-09-25T13:14:50Z</time>
      </trkpt>
      <trkpt lat="45.83674" lon="1.17807">
        <ele>320.4</ele>
        <time>2024-09-25T13:14:51Z</time>
      </trkpt>
      <trkpt lat="45.83674" lon="1.178">
        <ele>320.5</ele>
        <time>2024-09-25T13:14:52Z</time>
      </trkpt>
      <trkpt lat="45.83674" lon="1.17793">
        <ele>320.5</ele>
        <time>2024-09-25T13:14:53Z</time>
      </trkpt>
      <trkpt lat="45.83672" lon="1.17786">
        <ele>320.5</ele>
        <time>2024-09-25T13:14:54Z</time>
      </trkpt>
      <trkpt lat="45.83671" lon="1.17778">
        <ele>320.5</ele>
        <time>2024-09-25T13:14:55Z</time>
      </trkpt>
      <trkpt lat="45.83671" lon="1.17772">
        <ele>320.5</ele>
        <time>2024-09-25T13:14:56Z</time>
      </trkpt>
      <trkpt lat="45.83671" lon="1.17765">
        <ele>320.5</ele>
        <time>2024-09-25T13:14:57Z</time>
      </trkpt>
      <trkpt lat="45.83671" lon="1.17759">
        <ele>320.4</ele>
        <time>2024-09-25T13:14:58Z</time>
      </trkpt>
      <trkpt lat="45.83671" lon="1.17752">
        <ele>320.4</ele>
        <time>2024-09-25T13:14:59Z</time>
      </trkpt>
      <trkpt lat="45.83671" lon="1.17746">
        <ele>320.3</ele>
        <time>2024-09-25T13:15:00Z</time>
      </trkpt>
      <trkpt lat="45.83671" lon="1.17742">
        <ele>320.2</ele>
        <time>2024-09-25T13:15:01Z</time>
      </trkpt>
      <trkpt lat="45.83671" lon="1.17736">
        <ele>320.1</ele>
        <time>2024-09-25T13:15:02Z</time>
      </trkpt>
      <trkpt lat="45.83671" lon="1.17731">
        <ele>320</ele>
        <time>2024-09-25T13:15:03Z</time>
      </trkpt>
      <trkpt lat="45.83671" lon="1.17725">
        <ele>319.9</ele>
        <time>2024-09-25T13:15:04Z</time>
      </trkpt>
      <trkpt lat="45.8367" lon="1.17719">
        <ele>319.8</ele>
        <time>2024-09-25T13:15:05Z</time>
      </trkpt>
      <trkpt lat="45.8367" lon="1.17713">
        <ele>319.6</ele>
        <time>2024-09-25T13:15:06Z</time>
      </trkpt>
      <trkpt lat="45.8367" lon="1.17706">
        <ele>319.5</ele>
        <time>2024-09-25T13:15:07Z</time>
      </trkpt>
      <trkpt lat="45.8367" lon="1.17699">
        <ele>319.3</ele>
        <time>2024-09-25T13:15:08Z</time>
      </trkpt>
      <trkpt lat="45.8367" lon="1.17692">
        <ele>319.2</ele>
        <time>2024-09-25T13:15:09Z</time>
      </trkpt>
      <trkpt lat="45.8367" lon="1.17686">
        <ele>319</ele>
        <time>2024-09-25T13:15:10Z</time>
      </trkpt>
      <trkpt lat="45.8367" lon="1.1768">
        <ele>318.9</ele>
        <time>2024-09-25T13:15:11Z</time>
      </trkpt>
      <trkpt lat="45.83669" lon="1.17674">
        <ele>318.7</ele>
        <time>2024-09-25T13:15:12Z</time>
      </trkpt>
      <trkpt lat="45.83668" lon="1.17669">
        <ele>318.6</ele>
        <time>2024-09-25T13:15:13Z</time>
      </trkpt>
      <trkpt lat="45.83666" lon="1.17665">
        <ele>318.4</ele>
        <time>2024-09-25T13:15:14Z</time>
      </trkpt>
      <trkpt lat="45.83664" lon="1.17663">
        <ele>318.3</ele>
        <time>2024-09-25T13:15:15Z</time>
      </trkpt>
      <trkpt lat="45.83659" lon="1.17663">
        <ele>317.9</ele>
        <time>2024-09-25T13:15:17Z</time>
      </trkpt>
      <trkpt lat="45.83654" lon="1.17663">
        <ele>317.5</ele>
        <time>2024-09-25T13:15:18Z</time>
      </trkpt>
      <trkpt lat="45.83649" lon="1.17665">
        <ele>317.2</ele>
        <time>2024-09-25T13:15:19Z</time>
      </trkpt>
      <trkpt lat="45.83644" lon="1.17666">
        <ele>316.9</ele>
        <time>2024-09-25T13:15:20Z</time>
      </trkpt>
      <trkpt lat="45.83639" lon="1.17667">
        <ele>316.6</ele>
        <time>2024-09-25T13:15:21Z</time>
      </trkpt>
      <trkpt lat="45.83634" lon="1.17668">
        <ele>316.3</ele>
        <time>2024-09-25T13:15:22Z</time>
      </trkpt>
      <trkpt lat="45.83629" lon="1.17667">
        <ele>316.1</ele>
        <time>2024-09-25T13:15:23Z</time>
      </trkpt>
      <trkpt lat="45.83623" lon="1.17668">
        <ele>315.8</ele>
        <time>2024-09-25T13:15:24Z</time>
      </trkpt>
      <trkpt lat="45.83616" lon="1.17669">
        <ele>315.6</ele>
        <time>2024-09-25T13:15:25Z</time>
      </trkpt>
      <trkpt lat="45.83611" lon="1.1767">
        <ele>315.4</ele>
        <time>2024-09-25T13:15:26Z</time>
      </trkpt>
      <trkpt lat="45.83605" lon="1.1767">
        <ele>315.2</ele>
        <time>2024-09-25T13:15:27Z</time>
      </trkpt>
      <trkpt lat="45.836" lon="1.17671">
        <ele>315.1</ele>
        <time>2024-09-25T13:15:28Z</time>
      </trkpt>
      <trkpt lat="45.83595" lon="1.17671">
        <ele>314.9</ele>
        <time>2024-09-25T13:15:29Z</time>
      </trkpt>
      <trkpt lat="45.83589" lon="1.17671">
        <ele>314.7</ele>
        <time>2024-09-25T13:15:30Z</time>
      </trkpt>
      <trkpt lat="45.83584" lon="1.17671">
        <ele>314.5</ele>
        <time>2024-09-25T13:15:31Z</time>
      </trkpt>
      <trkpt lat="45.83579" lon="1.17671">
        <ele>314.4</ele>
        <time>2024-09-25T13:15:32Z</time>
      </trkpt>
      <trkpt lat="45.83574" lon="1.17673">
        <ele>314.4</ele>
        <time>2024-09-25T13:15:33Z</time>
      </trkpt>
      <trkpt lat="45.83569" lon="1.17675">
        <ele>314.3</ele>
        <time>2024-09-25T13:15:34Z</time>
      </trkpt>
      <trkpt lat="45.83564" lon="1.17676">
        <ele>314.2</ele>
        <time>2024-09-25T13:15:35Z</time>
      </trkpt>
      <trkpt lat="45.8356" lon="1.17677">
        <ele>314.2</ele>
        <time>2024-09-25T13:15:36Z</time>
      </trkpt>
      <trkpt lat="45.83557" lon="1.17677">
        <ele>314.1</ele>
        <time>2024-09-25T13:15:37Z</time>
      </trkpt>
      <trkpt lat="45.83552" lon="1.17677">
        <ele>314.1</ele>
        <time>2024-09-25T13:15:38Z</time>
      </trkpt>
      <trkpt lat="45.83548" lon="1.17678">
        <ele>314</ele>
        <time>2024-09-25T13:15:39Z</time>
      </trkpt>
      <trkpt lat="45.83544" lon="1.17679">
        <ele>313.9</ele>
        <time>2024-09-25T13:15:40Z</time>
      </trkpt>
      <trkpt lat="45.83539" lon="1.17679">
        <ele>313.8</ele>
        <time>2024-09-25T13:15:41Z</time>
      </trkpt>
      <trkpt lat="45.83535" lon="1.1768">
        <ele>313.7</ele>
        <time>2024-09-25T13:15:42Z</time>
      </trkpt>
      <trkpt lat="45.83531" lon="1.17681">
        <ele>313.6</ele>
        <time>2024-09-25T13:15:43Z</time>
      </trkpt>
      <trkpt lat="45.83525" lon="1.17684">
        <ele>313.4</ele>
        <time>2024-09-25T13:15:44Z</time>
      </trkpt>
      <trkpt lat="45.8352" lon="1.17684">
        <ele>313.3</ele>
        <time>2024-09-25T13:15:45Z</time>
      </trkpt>
      <trkpt lat="45.83514" lon="1.17686">
        <ele>313.1</ele>
        <time>2024-09-25T13:15:46Z</time>
      </trkpt>
      <trkpt lat="45.83505" lon="1.17688">
        <ele>312.8</ele>
        <time>2024-09-25T13:15:48Z</time>
      </trkpt>
      <trkpt lat="45.835" lon="1.17689">
        <ele>312.6</ele>
        <time>2024-09-25T13:15:49Z</time>
      </trkpt>
      <trkpt lat="45.83495" lon="1.1769">
        <ele>312.4</ele>
        <time>2024-09-25T13:15:50Z</time>
      </trkpt>
      <trkpt lat="45.83488" lon="1.1769">
        <ele>312.1</ele>
        <time>2024-09-25T13:15:51Z</time>
      </trkpt>
      <trkpt lat="45.83483" lon="1.17691">
        <ele>311.8</ele>
        <time>2024-09-25T13:15:52Z</time>
      </trkpt>
      <trkpt lat="45.83477" lon="1.17692">
        <ele>311.5</ele>
        <time>2024-09-25T13:15:53Z</time>
      </trkpt>
      <trkpt lat="45.83472" lon="1.17693">
        <ele>311.3</ele>
        <time>2024-09-25T13:15:54Z</time>
      </trkpt>
      <trkpt lat="45.83467" lon="1.17694">
        <ele>311.1</ele>
        <time>2024-09-25T13:15:55Z</time>
      </trkpt>
      <trkpt lat="45.8346" lon="1.17694">
        <ele>310.8</ele>
        <time>2024-09-25T13:15:56Z</time>
      </trkpt>
      <trkpt lat="45.83454" lon="1.17695">
        <ele>310.5</ele>
        <time>2024-09-25T13:15:57Z</time>
      </trkpt>
      <trkpt lat="45.83449" lon="1.17696">
        <ele>310.4</ele>
        <time>2024-09-25T13:15:58Z</time>
      </trkpt>
      <trkpt lat="45.83443" lon="1.17697">
        <ele>310.3</ele>
        <time>2024-09-25T13:15:59Z</time>
      </trkpt>
      <trkpt lat="45.83438" lon="1.17698">
        <ele>310.2</ele>
        <time>2024-09-25T13:16:00Z</time>
      </trkpt>
      <trkpt lat="45.83433" lon="1.17699">
        <ele>310.2</ele>
        <time>2024-09-25T13:16:01Z</time>
      </trkpt>
      <trkpt lat="45.83429" lon="1.177">
        <ele>310.2</ele>
        <time>2024-09-25T13:16:02Z</time>
      </trkpt>
      <trkpt lat="45.83424" lon="1.17701">
        <ele>310.3</ele>
        <time>2024-09-25T13:16:03Z</time>
      </trkpt>
      <trkpt lat="45.83419" lon="1.17703">
        <ele>310.4</ele>
        <time>2024-09-25T13:16:04Z</time>
      </trkpt>
      <trkpt lat="45.83415" lon="1.17703">
        <ele>310.6</ele>
        <time>2024-09-25T13:16:05Z</time>
      </trkpt>
      <trkpt lat="45.8341" lon="1.17704">
        <ele>310.8</ele>
        <time>2024-09-25T13:16:06Z</time>
      </trkpt>
      <trkpt lat="45.83405" lon="1.17705">
        <ele>311.1</ele>
        <time>2024-09-25T13:16:07Z</time>
      </trkpt>
      <trkpt lat="45.83401" lon="1.17707">
        <ele>311.4</ele>
        <time>2024-09-25T13:16:08Z</time>
      </trkpt>
      <trkpt lat="45.83396" lon="1.17707">
        <ele>311.7</ele>
        <time>2024-09-25T13:16:09Z</time>
      </trkpt>
      <trkpt lat="45.83391" lon="1.17708">
        <ele>312.1</ele>
        <time>2024-09-25T13:16:10Z</time>
      </trkpt>
      <trkpt lat="45.83387" lon="1.17709">
        <ele>312.5</ele>
        <time>2024-09-25T13:16:11Z</time>
      </trkpt>
      <trkpt lat="45.83383" lon="1.1771">
        <ele>312.9</ele>
        <time>2024-09-25T13:16:12Z</time>
      </trkpt>
      <trkpt lat="45.83378" lon="1.17711">
        <ele>313.3</ele>
        <time>2024-09-25T13:16:14Z</time>
      </trkpt>
      <trkpt lat="45.83374" lon="1.17712">
        <ele>313.7</ele>
        <time>2024-09-25T13:16:15Z</time>
      </trkpt>
      <trkpt lat="45.8337" lon="1.17712">
        <ele>314.1</ele>
        <time>2024-09-25T13:16:16Z</time>
      </trkpt>
      <trkpt lat="45.83367" lon="1.17713">
        <ele>314.4</ele>
        <time>2024-09-25T13:16:17Z</time>
      </trkpt>
      <trkpt lat="45.83362" lon="1.17713">
        <ele>314.9</ele>
        <time>2024-09-25T13:16:19Z</time>
      </trkpt>
      <trkpt lat="45.83358" lon="1.17714">
        <ele>315.3</ele>
        <time>2024-09-25T13:16:21Z</time>
      </trkpt>
      <trkpt lat="45.83354" lon="1.17714">
        <ele>315.7</ele>
        <time>2024-09-25T13:16:22Z</time>
      </trkpt>
      <trkpt lat="45.8335" lon="1.17715">
        <ele>316.1</ele>
        <time>2024-09-25T13:16:23Z</time>
      </trkpt>
      <trkpt lat="45.83347" lon="1.17718">
        <ele>316.5</ele>
        <time>2024-09-25T13:16:25Z</time>
      </trkpt>
      <trkpt lat="45.83346" lon="1.17722">
        <ele>316.6</ele>
        <time>2024-09-25T13:16:27Z</time>
      </trkpt>
      <trkpt lat="45.83346" lon="1.17727">
        <ele>316.8</ele>
        <time>2024-09-25T13:16:29Z</time>
      </trkpt>
      <trkpt lat="45.83346" lon="1.17733">
        <ele>317</ele>
        <time>2024-09-25T13:16:31Z</time>
      </trkpt>
      <trkpt lat="45.83347" lon="1.17737">
        <ele>317.2</ele>
        <time>2024-09-25T13:16:32Z</time>
      </trkpt>
      <trkpt lat="45.83348" lon="1.17742">
        <ele>317.3</ele>
        <time>2024-09-25T13:16:33Z</time>
      </trkpt>
      <trkpt lat="45.83348" lon="1.17746">
        <ele>317.5</ele>
        <time>2024-09-25T13:16:34Z</time>
      </trkpt>
      <trkpt lat="45.83349" lon="1.17753">
        <ele>317.7</ele>
        <time>2024-09-25T13:16:36Z</time>
      </trkpt>
      <trkpt lat="45.83349" lon="1.17758">
        <ele>317.9</ele>
        <time>2024-09-25T13:16:37Z</time>
      </trkpt>
      <trkpt lat="45.83349" lon="1.17762">
        <ele>318</ele>
        <time>2024-09-25T13:16:38Z</time>
      </trkpt>
      <trkpt lat="45.8335" lon="1.17767">
        <ele>318.1</ele>
        <time>2024-09-25T13:16:39Z</time>
      </trkpt>
      <trkpt lat="45.83351" lon="1.17772">
        <ele>318.3</ele>
        <time>2024-09-25T13:16:41Z</time>
      </trkpt>
      <trkpt lat="45.83351" lon="1.17779">
        <ele>318.5</ele>
        <time>2024-09-25T13:16:43Z</time>
      </trkpt>
      <trkpt lat="45.83351" lon="1.17785">
        <ele>318.7</ele>
        <time>2024-09-25T13:16:44Z</time>
      </trkpt>
      <trkpt lat="45.8335" lon="1.17791">
        <ele>318.8</ele>
        <time>2024-09-25T13:16:46Z</time>
      </trkpt>
      <trkpt lat="45.83347" lon="1.17795">
        <ele>319</ele>
        <time>2024-09-25T13:16:48Z</time>
      </trkpt>
      <trkpt lat="45.83344" lon="1.17798">
        <ele>319</ele>
        <time>2024-09-25T13:16:49Z</time>
      </trkpt>
      <trkpt lat="45.83341" lon="1.17799">
        <ele>319.1</ele>
        <time>2024-09-25T13:16:50Z</time>
      </trkpt>
      <trkpt lat="45.83337" lon="1.17802">
        <ele>319.1</ele>
        <time>2024-09-25T13:16:52Z</time>
      </trkpt>
      <trkpt lat="45.83332" lon="1.17804">
        <ele>319.2</ele>
        <time>2024-09-25T13:16:54Z</time>
      </trkpt>
      <trkpt lat="45.83327" lon="1.17807">
        <ele>319.2</ele>
        <time>2024-09-25T13:16:56Z</time>
      </trkpt>
      <trkpt lat="45.83323" lon="1.1781">
        <ele>319.2</ele>
        <time>2024-09-25T13:16:57Z</time>
      </trkpt>
      <trkpt lat="45.83318" lon="1.17812">
        <ele>319.2</ele>
        <time>2024-09-25T13:16:58Z</time>
      </trkpt>
      <trkpt lat="45.83314" lon="1.17815">
        <ele>319.2</ele>
        <time>2024-09-25T13:16:59Z</time>
      </trkpt>
      <trkpt lat="45.8331" lon="1.17818">
        <ele>319.2</ele>
        <time>2024-09-25T13:17:01Z</time>
      </trkpt>
      <trkpt lat="45.83306" lon="1.17821">
        <ele>319.2</ele>
        <time>2024-09-25T13:17:02Z</time>
      </trkpt>
      <trkpt lat="45.83302" lon="1.17823">
        <ele>319.2</ele>
        <time>2024-09-25T13:17:03Z</time>
      </trkpt>
      <trkpt lat="45.83298" lon="1.17825">
        <ele>319.2</ele>
        <time>2024-09-25T13:17:04Z</time>
      </trkpt>
      <trkpt lat="45.83294" lon="1.17827">
        <ele>319.2</ele>
        <time>2024-09-25T13:17:05Z</time>
      </trkpt>
      <trkpt lat="45.8329" lon="1.17829">
        <ele>319.2</ele>
        <time>2024-09-25T13:17:06Z</time>
      </trkpt>
      <trkpt lat="45.83287" lon="1.1783">
        <ele>319.2</ele>
        <time>2024-09-25T13:17:07Z</time>
      </trkpt>
      <trkpt lat="45.83284" lon="1.17832">
        <ele>319.3</ele>
        <time>2024-09-25T13:17:08Z</time>
      </trkpt>
      <trkpt lat="45.8328" lon="1.17835">
        <ele>319.3</ele>
        <time>2024-09-25T13:17:09Z</time>
      </trkpt>
      <trkpt lat="45.83276" lon="1.17837">
        <ele>319.3</ele>
        <time>2024-09-25T13:17:10Z</time>
      </trkpt>
      <trkpt lat="45.83272" lon="1.17839">
        <ele>319.3</ele>
        <time>2024-09-25T13:17:11Z</time>
      </trkpt>
      <trkpt lat="45.83268" lon="1.17842">
        <ele>319.3</ele>
        <time>2024-09-25T13:17:12Z</time>
      </trkpt>
      <trkpt lat="45.83263" lon="1.17844">
        <ele>319.3</ele>
        <time>2024-09-25T13:17:13Z</time>
      </trkpt>
      <trkpt lat="45.83259" lon="1.17846">
        <ele>319.4</ele>
        <time>2024-09-25T13:17:14Z</time>
      </trkpt>
      <trkpt lat="45.83255" lon="1.17849">
        <ele>319.4</ele>
        <time>2024-09-25T13:17:15Z</time>
      </trkpt>
      <trkpt lat="45.83249" lon="1.17852">
        <ele>319.4</ele>
        <time>2024-09-25T13:17:16Z</time>
      </trkpt>
      <trkpt lat="45.83243" lon="1.17857">
        <ele>319.4</ele>
        <time>2024-09-25T13:17:18Z</time>
      </trkpt>
      <trkpt lat="45.83239" lon="1.1786">
        <ele>319.3</ele>
        <time>2024-09-25T13:17:19Z</time>
      </trkpt>
      <trkpt lat="45.83235" lon="1.17862">
        <ele>319.3</ele>
        <time>2024-09-25T13:17:20Z</time>
      </trkpt>
      <trkpt lat="45.83231" lon="1.17864">
        <ele>319.3</ele>
        <time>2024-09-25T13:17:21Z</time>
      </trkpt>
      <trkpt lat="45.83223" lon="1.17869">
        <ele>319.3</ele>
        <time>2024-09-25T13:17:22Z</time>
      </trkpt>
      <trkpt lat="45.83218" lon="1.1787">
        <ele>319.3</ele>
        <time>2024-09-25T13:17:23Z</time>
      </trkpt>
      <trkpt lat="45.83213" lon="1.17873">
        <ele>319.3</ele>
        <time>2024-09-25T13:17:24Z</time>
      </trkpt>
      <trkpt lat="45.83209" lon="1.17876">
        <ele>319.3</ele>
        <time>2024-09-25T13:17:25Z</time>
      </trkpt>
      <trkpt lat="45.83205" lon="1.17879">
        <ele>319.4</ele>
        <time>2024-09-25T13:17:26Z</time>
      </trkpt>
      <trkpt lat="45.83202" lon="1.1788">
        <ele>319.4</ele>
        <time>2024-09-25T13:17:27Z</time>
      </trkpt>
      <trkpt lat="45.83198" lon="1.17883">
        <ele>319.5</ele>
        <time>2024-09-25T13:17:28Z</time>
      </trkpt>
      <trkpt lat="45.83193" lon="1.17885">
        <ele>319.6</ele>
        <time>2024-09-25T13:17:29Z</time>
      </trkpt>
      <trkpt lat="45.83189" lon="1.17888">
        <ele>319.7</ele>
        <time>2024-09-25T13:17:30Z</time>
      </trkpt>
      <trkpt lat="45.83185" lon="1.1789">
        <ele>319.8</ele>
        <time>2024-09-25T13:17:31Z</time>
      </trkpt>
      <trkpt lat="45.83182" lon="1.17892">
        <ele>319.9</ele>
        <time>2024-09-25T13:17:32Z</time>
      </trkpt>
      <trkpt lat="45.83179" lon="1.17894">
        <ele>319.9</ele>
        <time>2024-09-25T13:17:33Z</time>
      </trkpt>
      <trkpt lat="45.83174" lon="1.17896">
        <ele>320</ele>
        <time>2024-09-25T13:17:34Z</time>
      </trkpt>
      <trkpt lat="45.8317" lon="1.17899">
        <ele>320.1</ele>
        <time>2024-09-25T13:17:36Z</time>
      </trkpt>
      <trkpt lat="45.83166" lon="1.17901">
        <ele>320.2</ele>
        <time>2024-09-25T13:17:37Z</time>
      </trkpt>
      <trkpt lat="45.83161" lon="1.17903">
        <ele>320.3</ele>
        <time>2024-09-25T13:17:39Z</time>
      </trkpt>
      <trkpt lat="45.83157" lon="1.17904">
        <ele>320.3</ele>
        <time>2024-09-25T13:17:40Z</time>
      </trkpt>
      <trkpt lat="45.83154" lon="1.17906">
        <ele>320.3</ele>
        <time>2024-09-25T13:17:41Z</time>
      </trkpt>
      <trkpt lat="45.8315" lon="1.17907">
        <ele>320.4</ele>
        <time>2024-09-25T13:17:42Z</time>
      </trkpt>
      <trkpt lat="45.83145" lon="1.17909">
        <ele>320.4</ele>
        <time>2024-09-25T13:17:43Z</time>
      </trkpt>
      <trkpt lat="45.83141" lon="1.17911">
        <ele>320.5</ele>
        <time>2024-09-25T13:17:44Z</time>
      </trkpt>
      <trkpt lat="45.83136" lon="1.17913">
        <ele>320.6</ele>
        <time>2024-09-25T13:17:45Z</time>
      </trkpt>
      <trkpt lat="45.83132" lon="1.17916">
        <ele>320.6</ele>
        <time>2024-09-25T13:17:46Z</time>
      </trkpt>
      <trkpt lat="45.83127" lon="1.17919">
        <ele>320.7</ele>
        <time>2024-09-25T13:17:47Z</time>
      </trkpt>
      <trkpt lat="45.83122" lon="1.17922">
        <ele>320.8</ele>
        <time>2024-09-25T13:17:48Z</time>
      </trkpt>
      <trkpt lat="45.83118" lon="1.17924">
        <ele>320.8</ele>
        <time>2024-09-25T13:17:49Z</time>
      </trkpt>
      <trkpt lat="45.83114" lon="1.17926">
        <ele>320.8</ele>
        <time>2024-09-25T13:17:50Z</time>
      </trkpt>
      <trkpt lat="45.8311" lon="1.17929">
        <ele>320.8</ele>
        <time>2024-09-25T13:17:51Z</time>
      </trkpt>
      <trkpt lat="45.83105" lon="1.17931">
        <ele>320.8</ele>
        <time>2024-09-25T13:17:52Z</time>
      </trkpt>
      <trkpt lat="45.83101" lon="1.17931">
        <ele>320.8</ele>
        <time>2024-09-25T13:17:54Z</time>
      </trkpt>
      <trkpt lat="45.83097" lon="1.1793">
        <ele>320.7</ele>
        <time>2024-09-25T13:17:56Z</time>
      </trkpt>
      <trkpt lat="45.83093" lon="1.17928">
        <ele>320.7</ele>
        <time>2024-09-25T13:17:58Z</time>
      </trkpt>
      <trkpt lat="45.8309" lon="1.17926">
        <ele>320.7</ele>
        <time>2024-09-25T13:18:00Z</time>
      </trkpt>
      <trkpt lat="45.83086" lon="1.17925">
        <ele>320.7</ele>
        <time>2024-09-25T13:18:02Z</time>
      </trkpt>
      <trkpt lat="45.83083" lon="1.17923">
        <ele>320.7</ele>
        <time>2024-09-25T13:18:15Z</time>
      </trkpt>
      <trkpt lat="45.83081" lon="1.17921">
        <ele>320.8</ele>
        <time>2024-09-25T13:18:19Z</time>
      </trkpt>
      <trkpt lat="45.83078" lon="1.17919">
        <ele>320.8</ele>
        <time>2024-09-25T13:18:25Z</time>
      </trkpt>
      <trkpt lat="45.83075" lon="1.17918">
        <ele>320.9</ele>
        <time>2024-09-25T13:18:31Z</time>
      </trkpt>
      <trkpt lat="45.83072" lon="1.17916">
        <ele>321</ele>
        <time>2024-09-25T13:18:33Z</time>
      </trkpt>
      <trkpt lat="45.83067" lon="1.17914">
        <ele>321.3</ele>
        <time>2024-09-25T13:18:35Z</time>
      </trkpt>
      <trkpt lat="45.83064" lon="1.17912">
        <ele>321.5</ele>
        <time>2024-09-25T13:18:36Z</time>
      </trkpt>
      <trkpt lat="45.83061" lon="1.17909">
        <ele>321.7</ele>
        <time>2024-09-25T13:18:38Z</time>
      </trkpt>
      <trkpt lat="45.83058" lon="1.17906">
        <ele>321.8</ele>
        <time>2024-09-25T13:18:40Z</time>
      </trkpt>
      <trkpt lat="45.83058" lon="1.17901">
        <ele>321.7</ele>
        <time>2024-09-25T13:18:41Z</time>
      </trkpt>
      <trkpt lat="45.83057" lon="1.17896">
        <ele>321.6</ele>
        <time>2024-09-25T13:18:42Z</time>
      </trkpt>
      <trkpt lat="45.83057" lon="1.1789">
        <ele>321.5</ele>
        <time>2024-09-25T13:18:43Z</time>
      </trkpt>
      <trkpt lat="45.83057" lon="1.17885">
        <ele>321.4</ele>
        <time>2024-09-25T13:18:44Z</time>
      </trkpt>
      <trkpt lat="45.83057" lon="1.17879">
        <ele>321.2</ele>
        <time>2024-09-25T13:18:45Z</time>
      </trkpt>
      <trkpt lat="45.83057" lon="1.17874">
        <ele>321.1</ele>
        <time>2024-09-25T13:18:46Z</time>
      </trkpt>
      <trkpt lat="45.83057" lon="1.17869">
        <ele>320.9</ele>
        <time>2024-09-25T13:18:47Z</time>
      </trkpt>
      <trkpt lat="45.83058" lon="1.17865">
        <ele>320.8</ele>
        <time>2024-09-25T13:18:48Z</time>
      </trkpt>
      <trkpt lat="45.83058" lon="1.1786">
        <ele>320.7</ele>
        <time>2024-09-25T13:18:49Z</time>
      </trkpt>
      <trkpt lat="45.83058" lon="1.17855">
        <ele>320.5</ele>
        <time>2024-09-25T13:18:50Z</time>
      </trkpt>
      <trkpt lat="45.83058" lon="1.1785">
        <ele>320.3</ele>
        <time>2024-09-25T13:18:52Z</time>
      </trkpt>
      <trkpt lat="45.83058" lon="1.17844">
        <ele>320.1</ele>
        <time>2024-09-25T13:18:54Z</time>
      </trkpt>
      <trkpt lat="45.83058" lon="1.17839">
        <ele>319.9</ele>
        <time>2024-09-25T13:18:57Z</time>
      </trkpt>
      <trkpt lat="45.83058" lon="1.17832">
        <ele>319.5</ele>
        <time>2024-09-25T13:19:06Z</time>
      </trkpt>
      <trkpt lat="45.83059" lon="1.17825">
        <ele>319.2</ele>
        <time>2024-09-25T13:19:08Z</time>
      </trkpt>
      <trkpt lat="45.83059" lon="1.17818">
        <ele>318.8</ele>
        <time>2024-09-25T13:19:09Z</time>
      </trkpt>
      <trkpt lat="45.8306" lon="1.17811">
        <ele>318.5</ele>
        <time>2024-09-25T13:19:10Z</time>
      </trkpt>
      <trkpt lat="45.8306" lon="1.17804">
        <ele>318.2</ele>
        <time>2024-09-25T13:19:11Z</time>
      </trkpt>
      <trkpt lat="45.8306" lon="1.17796">
        <ele>318</ele>
        <time>2024-09-25T13:19:12Z</time>
      </trkpt>
      <trkpt lat="45.83059" lon="1.1779">
        <ele>317.9</ele>
        <time>2024-09-25T13:19:13Z</time>
      </trkpt>
      <trkpt lat="45.83059" lon="1.17784">
        <ele>317.8</ele>
        <time>2024-09-25T13:19:14Z</time>
      </trkpt>
      <trkpt lat="45.8306" lon="1.17779">
        <ele>317.8</ele>
        <time>2024-09-25T13:19:15Z</time>
      </trkpt>
      <trkpt lat="45.8306" lon="1.17773">
        <ele>317.8</ele>
        <time>2024-09-25T13:19:16Z</time>
      </trkpt>
      <trkpt lat="45.8306" lon="1.17767">
        <ele>317.8</ele>
        <time>2024-09-25T13:19:17Z</time>
      </trkpt>
      <trkpt lat="45.83061" lon="1.17762">
        <ele>317.8</ele>
        <time>2024-09-25T13:19:18Z</time>
      </trkpt>
      <trkpt lat="45.83061" lon="1.17758">
        <ele>317.8</ele>
        <time>2024-09-25T13:19:19Z</time>
      </trkpt>
      <trkpt lat="45.83061" lon="1.17753">
        <ele>317.8</ele>
        <time>2024-09-25T13:19:20Z</time>
      </trkpt>
      <trkpt lat="45.83062" lon="1.17747">
        <ele>317.8</ele>
        <time>2024-09-25T13:19:21Z</time>
      </trkpt>
      <trkpt lat="45.83062" lon="1.17742">
        <ele>317.8</ele>
        <time>2024-09-25T13:19:22Z</time>
      </trkpt>
      <trkpt lat="45.83063" lon="1.17736">
        <ele>317.8</ele>
        <time>2024-09-25T13:19:23Z</time>
      </trkpt>
      <trkpt lat="45.83063" lon="1.17731">
        <ele>317.8</ele>
        <time>2024-09-25T13:19:24Z</time>
      </trkpt>
      <trkpt lat="45.83063" lon="1.17726">
        <ele>317.8</ele>
        <time>2024-09-25T13:19:25Z</time>
      </trkpt>
      <trkpt lat="45.83063" lon="1.17719">
        <ele>317.8</ele>
        <time>2024-09-25T13:19:26Z</time>
      </trkpt>
      <trkpt lat="45.83063" lon="1.17712">
        <ele>317.8</ele>
        <time>2024-09-25T13:19:27Z</time>
      </trkpt>
      <trkpt lat="45.83063" lon="1.17705">
        <ele>317.8</ele>
        <time>2024-09-25T13:19:28Z</time>
      </trkpt>
      <trkpt lat="45.83063" lon="1.17699">
        <ele>317.8</ele>
        <time>2024-09-25T13:19:29Z</time>
      </trkpt>
      <trkpt lat="45.83064" lon="1.17693">
        <ele>317.8</ele>
        <time>2024-09-25T13:19:30Z</time>
      </trkpt>
      <trkpt lat="45.83065" lon="1.17687">
        <ele>317.8</ele>
        <time>2024-09-25T13:19:31Z</time>
      </trkpt>
      <trkpt lat="45.83066" lon="1.17681">
        <ele>317.8</ele>
        <time>2024-09-25T13:19:32Z</time>
      </trkpt>
      <trkpt lat="45.83067" lon="1.17676">
        <ele>317.8</ele>
        <time>2024-09-25T13:19:33Z</time>
      </trkpt>
      <trkpt lat="45.83069" lon="1.1767">
        <ele>317.8</ele>
        <time>2024-09-25T13:19:34Z</time>
      </trkpt>
      <trkpt lat="45.83069" lon="1.17664">
        <ele>317.8</ele>
        <time>2024-09-25T13:19:35Z</time>
      </trkpt>
      <trkpt lat="45.83069" lon="1.17658">
        <ele>317.9</ele>
        <time>2024-09-25T13:19:36Z</time>
      </trkpt>
      <trkpt lat="45.83069" lon="1.17651">
        <ele>317.9</ele>
        <time>2024-09-25T13:19:37Z</time>
      </trkpt>
      <trkpt lat="45.83069" lon="1.17645">
        <ele>317.9</ele>
        <time>2024-09-25T13:19:38Z</time>
      </trkpt>
      <trkpt lat="45.83069" lon="1.1764">
        <ele>317.9</ele>
        <time>2024-09-25T13:19:39Z</time>
      </trkpt>
      <trkpt lat="45.83069" lon="1.17635">
        <ele>317.9</ele>
        <time>2024-09-25T13:19:40Z</time>
      </trkpt>
      <trkpt lat="45.8307" lon="1.1763">
        <ele>317.9</ele>
        <time>2024-09-25T13:19:41Z</time>
      </trkpt>
      <trkpt lat="45.83073" lon="1.17628">
        <ele>317.9</ele>
        <time>2024-09-25T13:19:42Z</time>
      </trkpt>
      <trkpt lat="45.83075" lon="1.17626">
        <ele>317.9</ele>
        <time>2024-09-25T13:19:43Z</time>
      </trkpt>
      <trkpt lat="45.83078" lon="1.17627">
        <ele>317.7</ele>
        <time>2024-09-25T13:19:44Z</time>
      </trkpt>
      <trkpt lat="45.83083" lon="1.17627">
        <ele>317.5</ele>
        <time>2024-09-25T13:19:46Z</time>
      </trkpt>
      <trkpt lat="45.83087" lon="1.17628">
        <ele>317.3</ele>
        <time>2024-09-25T13:19:47Z</time>
      </trkpt>
      <trkpt lat="45.83092" lon="1.1763">
        <ele>317</ele>
        <time>2024-09-25T13:19:48Z</time>
      </trkpt>
      <trkpt lat="45.83097" lon="1.17632">
        <ele>316.8</ele>
        <time>2024-09-25T13:19:49Z</time>
      </trkpt>
      <trkpt lat="45.83104" lon="1.17635">
        <ele>316.5</ele>
        <time>2024-09-25T13:19:50Z</time>
      </trkpt>
      <trkpt lat="45.8311" lon="1.17638">
        <ele>316.3</ele>
        <time>2024-09-25T13:19:51Z</time>
      </trkpt>
      <trkpt lat="45.83116" lon="1.17642">
        <ele>316</ele>
        <time>2024-09-25T13:19:52Z</time>
      </trkpt>
      <trkpt lat="45.83121" lon="1.17644">
        <ele>315.7</ele>
        <time>2024-09-25T13:19:53Z</time>
      </trkpt>
      <trkpt lat="45.83126" lon="1.17647">
        <ele>315.5</ele>
        <time>2024-09-25T13:19:54Z</time>
      </trkpt>
      <trkpt lat="45.83131" lon="1.17649">
        <ele>315.2</ele>
        <time>2024-09-25T13:19:55Z</time>
      </trkpt>
      <trkpt lat="45.83136" lon="1.17651">
        <ele>314.9</ele>
        <time>2024-09-25T13:19:56Z</time>
      </trkpt>
      <trkpt lat="45.83141" lon="1.17653">
        <ele>314.6</ele>
        <time>2024-09-25T13:19:57Z</time>
      </trkpt>
      <trkpt lat="45.83146" lon="1.17655">
        <ele>314.3</ele>
        <time>2024-09-25T13:19:58Z</time>
      </trkpt>
      <trkpt lat="45.83152" lon="1.17658">
        <ele>313.9</ele>
        <time>2024-09-25T13:19:59Z</time>
      </trkpt>
      <trkpt lat="45.83157" lon="1.1766">
        <ele>313.6</ele>
        <time>2024-09-25T13:20:00Z</time>
      </trkpt>
      <trkpt lat="45.83164" lon="1.17663">
        <ele>313.2</ele>
        <time>2024-09-25T13:20:01Z</time>
      </trkpt>
      <trkpt lat="45.8317" lon="1.17665">
        <ele>312.9</ele>
        <time>2024-09-25T13:20:02Z</time>
      </trkpt>
      <trkpt lat="45.83178" lon="1.17668">
        <ele>312.6</ele>
        <time>2024-09-25T13:20:03Z</time>
      </trkpt>
      <trkpt lat="45.83181" lon="1.17667">
        <ele>312.5</ele>
        <time>2024-09-25T13:20:05Z</time>
      </trkpt>
      <trkpt lat="45.83183" lon="1.17662">
        <ele>312.3</ele>
        <time>2024-09-25T13:20:07Z</time>
      </trkpt>
      <trkpt lat="45.83185" lon="1.17656">
        <ele>312.1</ele>
        <time>2024-09-25T13:20:09Z</time>
      </trkpt>
      <trkpt lat="45.83187" lon="1.17651">
        <ele>312.1</ele>
        <time>2024-09-25T13:20:10Z</time>
      </trkpt>
      <trkpt lat="45.83189" lon="1.17646">
        <ele>312</ele>
        <time>2024-09-25T13:20:11Z</time>
      </trkpt>
      <trkpt lat="45.83191" lon="1.1764">
        <ele>312</ele>
        <time>2024-09-25T13:20:12Z</time>
      </trkpt>
      <trkpt lat="45.83194" lon="1.17635">
        <ele>311.8</ele>
        <time>2024-09-25T13:20:13Z</time>
      </trkpt>
      <trkpt lat="45.83196" lon="1.17629">
        <ele>311.7</ele>
        <time>2024-09-25T13:20:14Z</time>
      </trkpt>
      <trkpt lat="45.83199" lon="1.17621">
        <ele>311.5</ele>
        <time>2024-09-25T13:20:15Z</time>
      </trkpt>
      <trkpt lat="45.83201" lon="1.17613">
        <ele>311.2</ele>
        <time>2024-09-25T13:20:16Z</time>
      </trkpt>
      <trkpt lat="45.83203" lon="1.17604">
        <ele>311</ele>
        <time>2024-09-25T13:20:17Z</time>
      </trkpt>
      <trkpt lat="45.83205" lon="1.17595">
        <ele>310.8</ele>
        <time>2024-09-25T13:20:18Z</time>
      </trkpt>
      <trkpt lat="45.83208" lon="1.17587">
        <ele>310.6</ele>
        <time>2024-09-25T13:20:19Z</time>
      </trkpt>
      <trkpt lat="45.8321" lon="1.17579">
        <ele>310.4</ele>
        <time>2024-09-25T13:20:20Z</time>
      </trkpt>
      <trkpt lat="45.83214" lon="1.17571">
        <ele>310.2</ele>
        <time>2024-09-25T13:20:21Z</time>
      </trkpt>
      <trkpt lat="45.83217" lon="1.17562">
        <ele>310.1</ele>
        <time>2024-09-25T13:20:22Z</time>
      </trkpt>
      <trkpt lat="45.8322" lon="1.17554">
        <ele>309.9</ele>
        <time>2024-09-25T13:20:23Z</time>
      </trkpt>
      <trkpt lat="45.83221" lon="1.17547">
        <ele>309.8</ele>
        <time>2024-09-25T13:20:24Z</time>
      </trkpt>
      <trkpt lat="45.83223" lon="1.17541">
        <ele>309.7</ele>
        <time>2024-09-25T13:20:25Z</time>
      </trkpt>
      <trkpt lat="45.83225" lon="1.17535">
        <ele>309.5</ele>
        <time>2024-09-25T13:20:26Z</time>
      </trkpt>
      <trkpt lat="45.83228" lon="1.17532">
        <ele>309.3</ele>
        <time>2024-09-25T13:20:27Z</time>
      </trkpt>
      <trkpt lat="45.83232" lon="1.1753">
        <ele>309.1</ele>
        <time>2024-09-25T13:20:28Z</time>
      </trkpt>
      <trkpt lat="45.83236" lon="1.1753">
        <ele>308.9</ele>
        <time>2024-09-25T13:20:30Z</time>
      </trkpt>
      <trkpt lat="45.83241" lon="1.17528">
        <ele>308.6</ele>
        <time>2024-09-25T13:20:31Z</time>
      </trkpt>
      <trkpt lat="45.83245" lon="1.17526">
        <ele>308.4</ele>
        <time>2024-09-25T13:20:32Z</time>
      </trkpt>
      <trkpt lat="45.8325" lon="1.17519">
        <ele>308.1</ele>
        <time>2024-09-25T13:20:33Z</time>
      </trkpt>
      <trkpt lat="45.83253" lon="1.17513">
        <ele>307.9</ele>
        <time>2024-09-25T13:20:34Z</time>
      </trkpt>
      <trkpt lat="45.83254" lon="1.17507">
        <ele>307.7</ele>
        <time>2024-09-25T13:20:35Z</time>
      </trkpt>
      <trkpt lat="45.83255" lon="1.175">
        <ele>307.6</ele>
        <time>2024-09-25T13:20:36Z</time>
      </trkpt>
      <trkpt lat="45.83255" lon="1.17495">
        <ele>307.5</ele>
        <time>2024-09-25T13:20:37Z</time>
      </trkpt>
      <trkpt lat="45.83255" lon="1.17491">
        <ele>307.4</ele>
        <time>2024-09-25T13:20:38Z</time>
      </trkpt>
      <trkpt lat="45.83256" lon="1.17485">
        <ele>307.3</ele>
        <time>2024-09-25T13:20:39Z</time>
      </trkpt>
      <trkpt lat="45.83258" lon="1.17478">
        <ele>307.1</ele>
        <time>2024-09-25T13:20:40Z</time>
      </trkpt>
      <trkpt lat="45.83259" lon="1.1747">
        <ele>306.8</ele>
        <time>2024-09-25T13:20:41Z</time>
      </trkpt>
      <trkpt lat="45.83263" lon="1.17462">
        <ele>306.5</ele>
        <time>2024-09-25T13:20:42Z</time>
      </trkpt>
      <trkpt lat="45.83264" lon="1.17455">
        <ele>306.2</ele>
        <time>2024-09-25T13:20:43Z</time>
      </trkpt>
      <trkpt lat="45.83265" lon="1.17449">
        <ele>306</ele>
        <time>2024-09-25T13:20:44Z</time>
      </trkpt>
      <trkpt lat="45.83267" lon="1.17443">
        <ele>305.8</ele>
        <time>2024-09-25T13:20:45Z</time>
      </trkpt>
      <trkpt lat="45.83268" lon="1.17438">
        <ele>305.6</ele>
        <time>2024-09-25T13:20:46Z</time>
      </trkpt>
      <trkpt lat="45.8327" lon="1.17432">
        <ele>305.4</ele>
        <time>2024-09-25T13:20:47Z</time>
      </trkpt>
      <trkpt lat="45.83271" lon="1.17425">
        <ele>305.2</ele>
        <time>2024-09-25T13:20:48Z</time>
      </trkpt>
      <trkpt lat="45.83277" lon="1.17417">
        <ele>304.8</ele>
        <time>2024-09-25T13:20:49Z</time>
      </trkpt>
      <trkpt lat="45.83278" lon="1.1741">
        <ele>304.7</ele>
        <time>2024-09-25T13:20:50Z</time>
      </trkpt>
      <trkpt lat="45.83279" lon="1.17402">
        <ele>304.5</ele>
        <time>2024-09-25T13:20:51Z</time>
      </trkpt>
      <trkpt lat="45.83282" lon="1.17394">
        <ele>304.4</ele>
        <time>2024-09-25T13:20:52Z</time>
      </trkpt>
      <trkpt lat="45.83284" lon="1.17387">
        <ele>304.2</ele>
        <time>2024-09-25T13:20:53Z</time>
      </trkpt>
      <trkpt lat="45.83287" lon="1.1738">
        <ele>304.1</ele>
        <time>2024-09-25T13:20:54Z</time>
      </trkpt>
      <trkpt lat="45.83291" lon="1.17371">
        <ele>304</ele>
        <time>2024-09-25T13:20:55Z</time>
      </trkpt>
      <trkpt lat="45.83294" lon="1.17365">
        <ele>304</ele>
        <time>2024-09-25T13:20:56Z</time>
      </trkpt>
      <trkpt lat="45.83295" lon="1.17357">
        <ele>303.9</ele>
        <time>2024-09-25T13:20:58Z</time>
      </trkpt>
      <trkpt lat="45.83296" lon="1.17351">
        <ele>303.9</ele>
        <time>2024-09-25T13:20:59Z</time>
      </trkpt>
      <trkpt lat="45.83297" lon="1.17343">
        <ele>303.8</ele>
        <time>2024-09-25T13:21:00Z</time>
      </trkpt>
      <trkpt lat="45.83299" lon="1.17336">
        <ele>303.7</ele>
        <time>2024-09-25T13:21:01Z</time>
      </trkpt>
      <trkpt lat="45.833" lon="1.17328">
        <ele>303.5</ele>
        <time>2024-09-25T13:21:02Z</time>
      </trkpt>
      <trkpt lat="45.83301" lon="1.1732">
        <ele>303.2</ele>
        <time>2024-09-25T13:21:03Z</time>
      </trkpt>
      <trkpt lat="45.83301" lon="1.17314">
        <ele>302.9</ele>
        <time>2024-09-25T13:21:04Z</time>
      </trkpt>
      <trkpt lat="45.83301" lon="1.17307">
        <ele>302.6</ele>
        <time>2024-09-25T13:21:05Z</time>
      </trkpt>
      <trkpt lat="45.83299" lon="1.173">
        <ele>302.3</ele>
        <time>2024-09-25T13:21:06Z</time>
      </trkpt>
      <trkpt lat="45.83296" lon="1.17292">
        <ele>302</ele>
        <time>2024-09-25T13:21:07Z</time>
      </trkpt>
      <trkpt lat="45.83292" lon="1.17285">
        <ele>301.7</ele>
        <time>2024-09-25T13:21:08Z</time>
      </trkpt>
      <trkpt lat="45.83289" lon="1.17277">
        <ele>301.4</ele>
        <time>2024-09-25T13:21:09Z</time>
      </trkpt>
      <trkpt lat="45.83286" lon="1.17271">
        <ele>301.2</ele>
        <time>2024-09-25T13:21:10Z</time>
      </trkpt>
      <trkpt lat="45.83283" lon="1.17264">
        <ele>301</ele>
        <time>2024-09-25T13:21:11Z</time>
      </trkpt>
      <trkpt lat="45.83282" lon="1.17257">
        <ele>301.1</ele>
        <time>2024-09-25T13:21:12Z</time>
      </trkpt>
      <trkpt lat="45.8328" lon="1.17248">
        <ele>301.2</ele>
        <time>2024-09-25T13:21:13Z</time>
      </trkpt>
      <trkpt lat="45.8328" lon="1.1724">
        <ele>301.4</ele>
        <time>2024-09-25T13:21:14Z</time>
      </trkpt>
      <trkpt lat="45.8328" lon="1.17232">
        <ele>301.7</ele>
        <time>2024-09-25T13:21:15Z</time>
      </trkpt>
      <trkpt lat="45.83278" lon="1.17225">
        <ele>302</ele>
        <time>2024-09-25T13:21:16Z</time>
      </trkpt>
      <trkpt lat="45.83277" lon="1.17219">
        <ele>302.2</ele>
        <time>2024-09-25T13:21:17Z</time>
      </trkpt>
      <trkpt lat="45.83275" lon="1.17214">
        <ele>302.5</ele>
        <time>2024-09-25T13:21:18Z</time>
      </trkpt>
      <trkpt lat="45.83272" lon="1.17207">
        <ele>302.9</ele>
        <time>2024-09-25T13:21:19Z</time>
      </trkpt>
      <trkpt lat="45.83269" lon="1.17201">
        <ele>303.2</ele>
        <time>2024-09-25T13:21:20Z</time>
      </trkpt>
      <trkpt lat="45.83267" lon="1.17196">
        <ele>303.5</ele>
        <time>2024-09-25T13:21:21Z</time>
      </trkpt>
      <trkpt lat="45.83267" lon="1.17191">
        <ele>303.8</ele>
        <time>2024-09-25T13:21:22Z</time>
      </trkpt>
      <trkpt lat="45.83266" lon="1.17186">
        <ele>304</ele>
        <time>2024-09-25T13:21:23Z</time>
      </trkpt>
      <trkpt lat="45.83266" lon="1.17182">
        <ele>304.2</ele>
        <time>2024-09-25T13:21:24Z</time>
      </trkpt>
      <trkpt lat="45.83265" lon="1.17178">
        <ele>304.5</ele>
        <time>2024-09-25T13:21:25Z</time>
      </trkpt>
      <trkpt lat="45.83264" lon="1.17173">
        <ele>304.7</ele>
        <time>2024-09-25T13:21:26Z</time>
      </trkpt>
      <trkpt lat="45.83263" lon="1.17169">
        <ele>304.9</ele>
        <time>2024-09-25T13:21:27Z</time>
      </trkpt>
      <trkpt lat="45.83262" lon="1.17166">
        <ele>305.1</ele>
        <time>2024-09-25T13:21:28Z</time>
      </trkpt>
      <trkpt lat="45.83261" lon="1.17162">
        <ele>305.2</ele>
        <time>2024-09-25T13:21:29Z</time>
      </trkpt>
      <trkpt lat="45.83259" lon="1.17157">
        <ele>305.4</ele>
        <time>2024-09-25T13:21:30Z</time>
      </trkpt>
      <trkpt lat="45.83258" lon="1.17151">
        <ele>305.5</ele>
        <time>2024-09-25T13:21:31Z</time>
      </trkpt>
      <trkpt lat="45.83258" lon="1.17145">
        <ele>305.5</ele>
        <time>2024-09-25T13:21:32Z</time>
      </trkpt>
      <trkpt lat="45.83259" lon="1.17139">
        <ele>305.5</ele>
        <time>2024-09-25T13:21:33Z</time>
      </trkpt>
      <trkpt lat="45.83259" lon="1.17133">
        <ele>305.5</ele>
        <time>2024-09-25T13:21:34Z</time>
      </trkpt>
      <trkpt lat="45.83261" lon="1.17128">
        <ele>305.5</ele>
        <time>2024-09-25T13:21:35Z</time>
      </trkpt>
      <trkpt lat="45.83262" lon="1.17122">
        <ele>305.4</ele>
        <time>2024-09-25T13:21:36Z</time>
      </trkpt>
      <trkpt lat="45.83263" lon="1.17115">
        <ele>305.4</ele>
        <time>2024-09-25T13:21:37Z</time>
      </trkpt>
      <trkpt lat="45.83265" lon="1.17108">
        <ele>305.4</ele>
        <time>2024-09-25T13:21:38Z</time>
      </trkpt>
      <trkpt lat="45.83266" lon="1.17102">
        <ele>305.3</ele>
        <time>2024-09-25T13:21:39Z</time>
      </trkpt>
      <trkpt lat="45.83267" lon="1.17095">
        <ele>305.3</ele>
        <time>2024-09-25T13:21:40Z</time>
      </trkpt>
      <trkpt lat="45.83267" lon="1.17087">
        <ele>305.3</ele>
        <time>2024-09-25T13:21:41Z</time>
      </trkpt>
      <trkpt lat="45.83267" lon="1.17079">
        <ele>305.3</ele>
        <time>2024-09-25T13:21:42Z</time>
      </trkpt>
      <trkpt lat="45.83266" lon="1.17071">
        <ele>305.4</ele>
        <time>2024-09-25T13:21:43Z</time>
      </trkpt>
      <trkpt lat="45.83266" lon="1.17064">
        <ele>305.5</ele>
        <time>2024-09-25T13:21:44Z</time>
      </trkpt>
      <trkpt lat="45.83265" lon="1.17058">
        <ele>305.6</ele>
        <time>2024-09-25T13:21:45Z</time>
      </trkpt>
      <trkpt lat="45.83263" lon="1.17053">
        <ele>305.7</ele>
        <time>2024-09-25T13:21:47Z</time>
      </trkpt>
      <trkpt lat="45.83261" lon="1.17048">
        <ele>305.8</ele>
        <time>2024-09-25T13:21:48Z</time>
      </trkpt>
      <trkpt lat="45.8326" lon="1.17043">
        <ele>306</ele>
        <time>2024-09-25T13:21:49Z</time>
      </trkpt>
      <trkpt lat="45.83258" lon="1.17039">
        <ele>306.1</ele>
        <time>2024-09-25T13:21:50Z</time>
      </trkpt>
      <trkpt lat="45.83257" lon="1.17035">
        <ele>306.3</ele>
        <time>2024-09-25T13:21:51Z</time>
      </trkpt>
      <trkpt lat="45.83255" lon="1.17031">
        <ele>306.4</ele>
        <time>2024-09-25T13:21:53Z</time>
      </trkpt>
      <trkpt lat="45.83252" lon="1.17033">
        <ele>306.6</ele>
        <time>2024-09-25T13:22:00Z</time>
      </trkpt>
      <trkpt lat="45.83249" lon="1.17037">
        <ele>306.8</ele>
        <time>2024-09-25T13:22:02Z</time>
      </trkpt>
      <trkpt lat="45.83246" lon="1.17041">
        <ele>306.9</ele>
        <time>2024-09-25T13:22:03Z</time>
      </trkpt>
      <trkpt lat="45.83244" lon="1.17045">
        <ele>307</ele>
        <time>2024-09-25T13:22:04Z</time>
      </trkpt>
      <trkpt lat="45.83242" lon="1.17049">
        <ele>307</ele>
        <time>2024-09-25T13:22:05Z</time>
      </trkpt>
      <trkpt lat="45.8324" lon="1.17053">
        <ele>307.1</ele>
        <time>2024-09-25T13:22:06Z</time>
      </trkpt>
      <trkpt lat="45.83238" lon="1.1706">
        <ele>307.2</ele>
        <time>2024-09-25T13:22:07Z</time>
      </trkpt>
      <trkpt lat="45.83236" lon="1.17069">
        <ele>307.4</ele>
        <time>2024-09-25T13:22:08Z</time>
      </trkpt>
      <trkpt lat="45.83234" lon="1.17076">
        <ele>307.4</ele>
        <time>2024-09-25T13:22:09Z</time>
      </trkpt>
      <trkpt lat="45.83232" lon="1.17083">
        <ele>307.5</ele>
        <time>2024-09-25T13:22:10Z</time>
      </trkpt>
      <trkpt lat="45.8323" lon="1.1709">
        <ele>307.5</ele>
        <time>2024-09-25T13:22:11Z</time>
      </trkpt>
      <trkpt lat="45.83228" lon="1.17096">
        <ele>307.6</ele>
        <time>2024-09-25T13:22:12Z</time>
      </trkpt>
      <trkpt lat="45.83228" lon="1.17106">
        <ele>307.6</ele>
        <time>2024-09-25T13:22:13Z</time>
      </trkpt>
      <trkpt lat="45.83226" lon="1.17111">
        <ele>307.6</ele>
        <time>2024-09-25T13:22:14Z</time>
      </trkpt>
      <trkpt lat="45.83224" lon="1.17118">
        <ele>307.6</ele>
        <time>2024-09-25T13:22:16Z</time>
      </trkpt>
      <trkpt lat="45.83221" lon="1.17127">
        <ele>307.7</ele>
        <time>2024-09-25T13:22:17Z</time>
      </trkpt>
      <trkpt lat="45.83219" lon="1.17135">
        <ele>307.8</ele>
        <time>2024-09-25T13:22:18Z</time>
      </trkpt>
      <trkpt lat="45.83217" lon="1.17141">
        <ele>308</ele>
        <time>2024-09-25T13:22:19Z</time>
      </trkpt>
      <trkpt lat="45.83215" lon="1.17146">
        <ele>308.1</ele>
        <time>2024-09-25T13:22:20Z</time>
      </trkpt>
      <trkpt lat="45.83213" lon="1.17151">
        <ele>308.2</ele>
        <time>2024-09-25T13:22:21Z</time>
      </trkpt>
      <trkpt lat="45.83211" lon="1.17155">
        <ele>308.3</ele>
        <time>2024-09-25T13:22:22Z</time>
      </trkpt>
      <trkpt lat="45.83209" lon="1.1716">
        <ele>308.5</ele>
        <time>2024-09-25T13:22:23Z</time>
      </trkpt>
      <trkpt lat="45.83208" lon="1.17164">
        <ele>308.6</ele>
        <time>2024-09-25T13:22:24Z</time>
      </trkpt>
      <trkpt lat="45.83206" lon="1.17167">
        <ele>308.7</ele>
        <time>2024-09-25T13:22:25Z</time>
      </trkpt>
      <trkpt lat="45.83204" lon="1.17171">
        <ele>308.8</ele>
        <time>2024-09-25T13:22:26Z</time>
      </trkpt>
      <trkpt lat="45.83202" lon="1.17176">
        <ele>309</ele>
        <time>2024-09-25T13:22:27Z</time>
      </trkpt>
      <trkpt lat="45.83201" lon="1.1718">
        <ele>309.1</ele>
        <time>2024-09-25T13:22:28Z</time>
      </trkpt>
      <trkpt lat="45.83203" lon="1.17185">
        <ele>309.3</ele>
        <time>2024-09-25T13:22:29Z</time>
      </trkpt>
      <trkpt lat="45.83203" lon="1.1719">
        <ele>309.5</ele>
        <time>2024-09-25T13:22:30Z</time>
      </trkpt>
      <trkpt lat="45.83205" lon="1.17196">
        <ele>309.7</ele>
        <time>2024-09-25T13:22:31Z</time>
      </trkpt>
      <trkpt lat="45.83205" lon="1.17201">
        <ele>309.8</ele>
        <time>2024-09-25T13:22:32Z</time>
      </trkpt>
      <trkpt lat="45.83204" lon="1.17205">
        <ele>310</ele>
        <time>2024-09-25T13:22:33Z</time>
      </trkpt>
      <trkpt lat="45.83203" lon="1.17209">
        <ele>310.1</ele>
        <time>2024-09-25T13:22:34Z</time>
      </trkpt>
      <trkpt lat="45.83201" lon="1.17212">
        <ele>310.3</ele>
        <time>2024-09-25T13:22:35Z</time>
      </trkpt>
      <trkpt lat="45.83197" lon="1.17215">
        <ele>310.5</ele>
        <time>2024-09-25T13:22:36Z</time>
      </trkpt>
      <trkpt lat="45.83193" lon="1.17218">
        <ele>310.7</ele>
        <time>2024-09-25T13:22:37Z</time>
      </trkpt>
      <trkpt lat="45.8319" lon="1.17221">
        <ele>310.9</ele>
        <time>2024-09-25T13:22:38Z</time>
      </trkpt>
      <trkpt lat="45.83187" lon="1.17224">
        <ele>311.1</ele>
        <time>2024-09-25T13:22:39Z</time>
      </trkpt>
      <trkpt lat="45.83184" lon="1.17228">
        <ele>311.3</ele>
        <time>2024-09-25T13:22:40Z</time>
      </trkpt>
      <trkpt lat="45.83182" lon="1.17232">
        <ele>311.4</ele>
        <time>2024-09-25T13:22:42Z</time>
      </trkpt>
      <trkpt lat="45.83179" lon="1.17236">
        <ele>311.6</ele>
        <time>2024-09-25T13:22:43Z</time>
      </trkpt>
      <trkpt lat="45.83177" lon="1.17239">
        <ele>311.8</ele>
        <time>2024-09-25T13:22:44Z</time>
      </trkpt>
      <trkpt lat="45.83175" lon="1.17242">
        <ele>311.9</ele>
        <time>2024-09-25T13:22:45Z</time>
      </trkpt>
      <trkpt lat="45.83173" lon="1.17246">
        <ele>312.1</ele>
        <time>2024-09-25T13:22:46Z</time>
      </trkpt>
      <trkpt lat="45.8317" lon="1.1725">
        <ele>312.2</ele>
        <time>2024-09-25T13:22:47Z</time>
      </trkpt>
      <trkpt lat="45.83168" lon="1.17254">
        <ele>312.4</ele>
        <time>2024-09-25T13:22:48Z</time>
      </trkpt>
      <trkpt lat="45.83166" lon="1.17258">
        <ele>312.6</ele>
        <time>2024-09-25T13:22:49Z</time>
      </trkpt>
      <trkpt lat="45.83164" lon="1.17262">
        <ele>312.7</ele>
        <time>2024-09-25T13:22:50Z</time>
      </trkpt>
      <trkpt lat="45.8316" lon="1.17264">
        <ele>312.9</ele>
        <time>2024-09-25T13:22:51Z</time>
      </trkpt>
      <trkpt lat="45.83156" lon="1.17266">
        <ele>313</ele>
        <time>2024-09-25T13:22:52Z</time>
      </trkpt>
      <trkpt lat="45.83153" lon="1.17269">
        <ele>313.1</ele>
        <time>2024-09-25T13:22:53Z</time>
      </trkpt>
      <trkpt lat="45.8315" lon="1.17271">
        <ele>313.2</ele>
        <time>2024-09-25T13:22:54Z</time>
      </trkpt>
      <trkpt lat="45.83146" lon="1.17273">
        <ele>313.3</ele>
        <time>2024-09-25T13:22:55Z</time>
      </trkpt>
      <trkpt lat="45.83143" lon="1.17275">
        <ele>313.4</ele>
        <time>2024-09-25T13:22:56Z</time>
      </trkpt>
      <trkpt lat="45.83139" lon="1.17277">
        <ele>313.5</ele>
        <time>2024-09-25T13:22:57Z</time>
      </trkpt>
      <trkpt lat="45.83134" lon="1.17279">
        <ele>313.5</ele>
        <time>2024-09-25T13:22:58Z</time>
      </trkpt>
      <trkpt lat="45.83129" lon="1.17282">
        <ele>313.5</ele>
        <time>2024-09-25T13:22:59Z</time>
      </trkpt>
      <trkpt lat="45.83124" lon="1.17284">
        <ele>313.5</ele>
        <time>2024-09-25T13:23:00Z</time>
      </trkpt>
      <trkpt lat="45.83118" lon="1.17286">
        <ele>313.5</ele>
        <time>2024-09-25T13:23:01Z</time>
      </trkpt>
      <trkpt lat="45.83114" lon="1.17288">
        <ele>313.4</ele>
        <time>2024-09-25T13:23:02Z</time>
      </trkpt>
      <trkpt lat="45.83109" lon="1.17289">
        <ele>313.4</ele>
        <time>2024-09-25T13:23:03Z</time>
      </trkpt>
      <trkpt lat="45.83105" lon="1.17288">
        <ele>313.4</ele>
        <time>2024-09-25T13:23:04Z</time>
      </trkpt>
      <trkpt lat="45.83102" lon="1.17288">
        <ele>313.4</ele>
        <time>2024-09-25T13:23:05Z</time>
      </trkpt>
      <trkpt lat="45.83097" lon="1.17288">
        <ele>313.5</ele>
        <time>2024-09-25T13:23:06Z</time>
      </trkpt>
      <trkpt lat="45.83093" lon="1.17287">
        <ele>313.5</ele>
        <time>2024-09-25T13:23:07Z</time>
      </trkpt>
      <trkpt lat="45.83089" lon="1.17287">
        <ele>313.6</ele>
        <time>2024-09-25T13:23:08Z</time>
      </trkpt>
      <trkpt lat="45.83084" lon="1.17288">
        <ele>313.6</ele>
        <time>2024-09-25T13:23:09Z</time>
      </trkpt>
      <trkpt lat="45.83079" lon="1.17288">
        <ele>313.7</ele>
        <time>2024-09-25T13:23:10Z</time>
      </trkpt>
      <trkpt lat="45.83074" lon="1.17288">
        <ele>313.8</ele>
        <time>2024-09-25T13:23:11Z</time>
      </trkpt>
      <trkpt lat="45.83069" lon="1.17288">
        <ele>313.9</ele>
        <time>2024-09-25T13:23:12Z</time>
      </trkpt>
      <trkpt lat="45.83065" lon="1.17288">
        <ele>314</ele>
        <time>2024-09-25T13:23:13Z</time>
      </trkpt>
      <trkpt lat="45.83061" lon="1.17289">
        <ele>314.1</ele>
        <time>2024-09-25T13:23:14Z</time>
      </trkpt>
      <trkpt lat="45.83056" lon="1.17289">
        <ele>314.2</ele>
        <time>2024-09-25T13:23:15Z</time>
      </trkpt>
      <trkpt lat="45.83051" lon="1.17288">
        <ele>314.4</ele>
        <time>2024-09-25T13:23:17Z</time>
      </trkpt>
      <trkpt lat="45.83045" lon="1.17288">
        <ele>314.6</ele>
        <time>2024-09-25T13:23:19Z</time>
      </trkpt>
      <trkpt lat="45.8304" lon="1.17288">
        <ele>314.7</ele>
        <time>2024-09-25T13:23:20Z</time>
      </trkpt>
      <trkpt lat="45.83036" lon="1.17289">
        <ele>314.9</ele>
        <time>2024-09-25T13:23:21Z</time>
      </trkpt>
      <trkpt lat="45.83032" lon="1.17289">
        <ele>315</ele>
        <time>2024-09-25T13:23:23Z</time>
      </trkpt>
      <trkpt lat="45.83028" lon="1.17289">
        <ele>315.1</ele>
        <time>2024-09-25T13:23:24Z</time>
      </trkpt>
      <trkpt lat="45.83024" lon="1.17289">
        <ele>315.3</ele>
        <time>2024-09-25T13:23:25Z</time>
      </trkpt>
      <trkpt lat="45.8302" lon="1.17289">
        <ele>315.4</ele>
        <time>2024-09-25T13:23:26Z</time>
      </trkpt>
      <trkpt lat="45.83015" lon="1.1729">
        <ele>315.6</ele>
        <time>2024-09-25T13:23:27Z</time>
      </trkpt>
      <trkpt lat="45.83011" lon="1.1729">
        <ele>315.8</ele>
        <time>2024-09-25T13:23:28Z</time>
      </trkpt>
      <trkpt lat="45.83007" lon="1.17291">
        <ele>316</ele>
        <time>2024-09-25T13:23:29Z</time>
      </trkpt>
      <trkpt lat="45.83002" lon="1.17292">
        <ele>316.2</ele>
        <time>2024-09-25T13:23:30Z</time>
      </trkpt>
      <trkpt lat="45.82998" lon="1.17292">
        <ele>316.4</ele>
        <time>2024-09-25T13:23:31Z</time>
      </trkpt>
      <trkpt lat="45.82994" lon="1.17292">
        <ele>316.6</ele>
        <time>2024-09-25T13:23:32Z</time>
      </trkpt>
      <trkpt lat="45.82991" lon="1.17292">
        <ele>316.7</ele>
        <time>2024-09-25T13:23:33Z</time>
      </trkpt>
      <trkpt lat="45.82988" lon="1.17294">
        <ele>316.8</ele>
        <time>2024-09-25T13:23:34Z</time>
      </trkpt>
      <trkpt lat="45.82985" lon="1.17297">
        <ele>316.9</ele>
        <time>2024-09-25T13:23:36Z</time>
      </trkpt>
      <trkpt lat="45.82984" lon="1.17303">
        <ele>317</ele>
        <time>2024-09-25T13:23:38Z</time>
      </trkpt>
      <trkpt lat="45.82983" lon="1.17308">
        <ele>317.1</ele>
        <time>2024-09-25T13:23:40Z</time>
      </trkpt>
      <trkpt lat="45.82983" lon="1.17312">
        <ele>317.1</ele>
        <time>2024-09-25T13:23:41Z</time>
      </trkpt>
      <trkpt lat="45.82983" lon="1.17317">
        <ele>317.2</ele>
        <time>2024-09-25T13:23:42Z</time>
      </trkpt>
      <trkpt lat="45.82983" lon="1.17322">
        <ele>317.2</ele>
        <time>2024-09-25T13:23:43Z</time>
      </trkpt>
      <trkpt lat="45.82983" lon="1.17327">
        <ele>317.3</ele>
        <time>2024-09-25T13:23:44Z</time>
      </trkpt>
      <trkpt lat="45.82982" lon="1.17332">
        <ele>317.3</ele>
        <time>2024-09-25T13:23:45Z</time>
      </trkpt>
      <trkpt lat="45.82981" lon="1.17338">
        <ele>317.4</ele>
        <time>2024-09-25T13:23:46Z</time>
      </trkpt>
      <trkpt lat="45.8298" lon="1.17344">
        <ele>317.4</ele>
        <time>2024-09-25T13:23:47Z</time>
      </trkpt>
      <trkpt lat="45.82979" lon="1.1735">
        <ele>317.5</ele>
        <time>2024-09-25T13:23:48Z</time>
      </trkpt>
      <trkpt lat="45.82978" lon="1.17357">
        <ele>317.6</ele>
        <time>2024-09-25T13:23:49Z</time>
      </trkpt>
      <trkpt lat="45.82977" lon="1.17363">
        <ele>317.7</ele>
        <time>2024-09-25T13:23:50Z</time>
      </trkpt>
      <trkpt lat="45.82976" lon="1.17369">
        <ele>317.8</ele>
        <time>2024-09-25T13:23:51Z</time>
      </trkpt>
      <trkpt lat="45.82975" lon="1.17375">
        <ele>317.9</ele>
        <time>2024-09-25T13:23:52Z</time>
      </trkpt>
      <trkpt lat="45.82975" lon="1.17381">
        <ele>318</ele>
        <time>2024-09-25T13:23:53Z</time>
      </trkpt>
      <trkpt lat="45.82975" lon="1.17386">
        <ele>318.1</ele>
        <time>2024-09-25T13:23:54Z</time>
      </trkpt>
      <trkpt lat="45.82975" lon="1.17391">
        <ele>318.2</ele>
        <time>2024-09-25T13:23:55Z</time>
      </trkpt>
      <trkpt lat="45.82974" lon="1.17398">
        <ele>318.3</ele>
        <time>2024-09-25T13:23:57Z</time>
      </trkpt>
      <trkpt lat="45.82974" lon="1.17403">
        <ele>318.4</ele>
        <time>2024-09-25T13:23:58Z</time>
      </trkpt>
      <trkpt lat="45.82973" lon="1.17408">
        <ele>318.4</ele>
        <time>2024-09-25T13:23:59Z</time>
      </trkpt>
      <trkpt lat="45.82972" lon="1.17415">
        <ele>318.6</ele>
        <time>2024-09-25T13:24:00Z</time>
      </trkpt>
      <trkpt lat="45.82971" lon="1.17421">
        <ele>318.6</ele>
        <time>2024-09-25T13:24:01Z</time>
      </trkpt>
      <trkpt lat="45.8297" lon="1.17428">
        <ele>318.7</ele>
        <time>2024-09-25T13:24:02Z</time>
      </trkpt>
      <trkpt lat="45.82969" lon="1.17433">
        <ele>318.8</ele>
        <time>2024-09-25T13:24:03Z</time>
      </trkpt>
      <trkpt lat="45.82968" lon="1.17437">
        <ele>318.9</ele>
        <time>2024-09-25T13:24:04Z</time>
      </trkpt>
      <trkpt lat="45.82967" lon="1.17442">
        <ele>318.9</ele>
        <time>2024-09-25T13:24:05Z</time>
      </trkpt>
      <trkpt lat="45.82966" lon="1.17448">
        <ele>319</ele>
        <time>2024-09-25T13:24:06Z</time>
      </trkpt>
      <trkpt lat="45.82964" lon="1.17454">
        <ele>319.1</ele>
        <time>2024-09-25T13:24:07Z</time>
      </trkpt>
      <trkpt lat="45.82962" lon="1.17459">
        <ele>319.2</ele>
        <time>2024-09-25T13:24:08Z</time>
      </trkpt>
      <trkpt lat="45.8296" lon="1.17464">
        <ele>319.3</ele>
        <time>2024-09-25T13:24:09Z</time>
      </trkpt>
      <trkpt lat="45.82959" lon="1.1747">
        <ele>319.4</ele>
        <time>2024-09-25T13:24:10Z</time>
      </trkpt>
      <trkpt lat="45.82958" lon="1.17475">
        <ele>319.6</ele>
        <time>2024-09-25T13:24:11Z</time>
      </trkpt>
      <trkpt lat="45.82957" lon="1.17481">
        <ele>319.7</ele>
        <time>2024-09-25T13:24:12Z</time>
      </trkpt>
      <trkpt lat="45.82957" lon="1.17486">
        <ele>319.8</ele>
        <time>2024-09-25T13:24:13Z</time>
      </trkpt>
      <trkpt lat="45.82957" lon="1.17492">
        <ele>320</ele>
        <time>2024-09-25T13:24:14Z</time>
      </trkpt>
      <trkpt lat="45.82956" lon="1.17498">
        <ele>320.1</ele>
        <time>2024-09-25T13:24:15Z</time>
      </trkpt>
      <trkpt lat="45.82954" lon="1.17504">
        <ele>320.3</ele>
        <time>2024-09-25T13:24:16Z</time>
      </trkpt>
      <trkpt lat="45.82952" lon="1.1751">
        <ele>320.5</ele>
        <time>2024-09-25T13:24:17Z</time>
      </trkpt>
      <trkpt lat="45.82951" lon="1.17515">
        <ele>320.6</ele>
        <time>2024-09-25T13:24:18Z</time>
      </trkpt>
      <trkpt lat="45.8295" lon="1.17521">
        <ele>320.8</ele>
        <time>2024-09-25T13:24:19Z</time>
      </trkpt>
      <trkpt lat="45.82949" lon="1.17527">
        <ele>321</ele>
        <time>2024-09-25T13:24:20Z</time>
      </trkpt>
      <trkpt lat="45.82948" lon="1.17533">
        <ele>321.2</ele>
        <time>2024-09-25T13:24:21Z</time>
      </trkpt>
      <trkpt lat="45.82946" lon="1.17538">
        <ele>321.3</ele>
        <time>2024-09-25T13:24:22Z</time>
      </trkpt>
      <trkpt lat="45.82944" lon="1.17543">
        <ele>321.5</ele>
        <time>2024-09-25T13:24:23Z</time>
      </trkpt>
      <trkpt lat="45.82943" lon="1.17547">
        <ele>321.7</ele>
        <time>2024-09-25T13:24:24Z</time>
      </trkpt>
      <trkpt lat="45.82941" lon="1.1755">
        <ele>321.8</ele>
        <time>2024-09-25T13:24:25Z</time>
      </trkpt>
      <trkpt lat="45.8294" lon="1.17554">
        <ele>321.9</ele>
        <time>2024-09-25T13:24:26Z</time>
      </trkpt>
      <trkpt lat="45.82939" lon="1.17559">
        <ele>322.1</ele>
        <time>2024-09-25T13:24:27Z</time>
      </trkpt>
      <trkpt lat="45.82939" lon="1.17563">
        <ele>322.2</ele>
        <time>2024-09-25T13:24:28Z</time>
      </trkpt>
      <trkpt lat="45.82939" lon="1.17567">
        <ele>322.3</ele>
        <time>2024-09-25T13:24:29Z</time>
      </trkpt>
      <trkpt lat="45.82938" lon="1.17574">
        <ele>322.5</ele>
        <time>2024-09-25T13:24:31Z</time>
      </trkpt>
      <trkpt lat="45.82938" lon="1.1758">
        <ele>322.6</ele>
        <time>2024-09-25T13:24:32Z</time>
      </trkpt>
      <trkpt lat="45.82937" lon="1.17585">
        <ele>322.8</ele>
        <time>2024-09-25T13:24:33Z</time>
      </trkpt>
      <trkpt lat="45.82937" lon="1.17591">
        <ele>322.9</ele>
        <time>2024-09-25T13:24:34Z</time>
      </trkpt>
      <trkpt lat="45.82937" lon="1.17596">
        <ele>323.1</ele>
        <time>2024-09-25T13:24:35Z</time>
      </trkpt>
      <trkpt lat="45.82936" lon="1.17602">
        <ele>323.2</ele>
        <time>2024-09-25T13:24:36Z</time>
      </trkpt>
      <trkpt lat="45.82936" lon="1.17607">
        <ele>323.3</ele>
        <time>2024-09-25T13:24:37Z</time>
      </trkpt>
      <trkpt lat="45.82935" lon="1.17613">
        <ele>323.4</ele>
        <time>2024-09-25T13:24:38Z</time>
      </trkpt>
      <trkpt lat="45.82934" lon="1.17619">
        <ele>323.5</ele>
        <time>2024-09-25T13:24:39Z</time>
      </trkpt>
      <trkpt lat="45.82932" lon="1.17626">
        <ele>323.7</ele>
        <time>2024-09-25T13:24:40Z</time>
      </trkpt>
      <trkpt lat="45.82931" lon="1.17633">
        <ele>323.8</ele>
        <time>2024-09-25T13:24:41Z</time>
      </trkpt>
      <trkpt lat="45.8293" lon="1.17639">
        <ele>323.9</ele>
        <time>2024-09-25T13:24:42Z</time>
      </trkpt>
      <trkpt lat="45.8293" lon="1.17645">
        <ele>324</ele>
        <time>2024-09-25T13:24:43Z</time>
      </trkpt>
      <trkpt lat="45.82929" lon="1.17651">
        <ele>324.1</ele>
        <time>2024-09-25T13:24:44Z</time>
      </trkpt>
      <trkpt lat="45.82927" lon="1.17658">
        <ele>324.1</ele>
        <time>2024-09-25T13:24:45Z</time>
      </trkpt>
      <trkpt lat="45.82925" lon="1.17663">
        <ele>324.2</ele>
        <time>2024-09-25T13:24:46Z</time>
      </trkpt>
      <trkpt lat="45.82924" lon="1.1767">
        <ele>324.2</ele>
        <time>2024-09-25T13:24:47Z</time>
      </trkpt>
      <trkpt lat="45.82922" lon="1.17678">
        <ele>324.3</ele>
        <time>2024-09-25T13:24:48Z</time>
      </trkpt>
      <trkpt lat="45.82921" lon="1.17686">
        <ele>324.2</ele>
        <time>2024-09-25T13:24:49Z</time>
      </trkpt>
      <trkpt lat="45.82917" lon="1.17693">
        <ele>324.2</ele>
        <time>2024-09-25T13:24:50Z</time>
      </trkpt>
      <trkpt lat="45.82915" lon="1.17699">
        <ele>324.1</ele>
        <time>2024-09-25T13:24:51Z</time>
      </trkpt>
      <trkpt lat="45.82914" lon="1.17706">
        <ele>324</ele>
        <time>2024-09-25T13:24:52Z</time>
      </trkpt>
      <trkpt lat="45.82912" lon="1.17712">
        <ele>324</ele>
        <time>2024-09-25T13:24:53Z</time>
      </trkpt>
      <trkpt lat="45.82912" lon="1.17718">
        <ele>323.9</ele>
        <time>2024-09-25T13:24:54Z</time>
      </trkpt>
      <trkpt lat="45.82911" lon="1.17724">
        <ele>323.8</ele>
        <time>2024-09-25T13:24:55Z</time>
      </trkpt>
      <trkpt lat="45.8291" lon="1.17731">
        <ele>323.7</ele>
        <time>2024-09-25T13:24:56Z</time>
      </trkpt>
      <trkpt lat="45.82909" lon="1.1774">
        <ele>323.6</ele>
        <time>2024-09-25T13:24:57Z</time>
      </trkpt>
      <trkpt lat="45.82908" lon="1.17748">
        <ele>323.5</ele>
        <time>2024-09-25T13:24:58Z</time>
      </trkpt>
      <trkpt lat="45.82907" lon="1.17757">
        <ele>323.5</ele>
        <time>2024-09-25T13:24:59Z</time>
      </trkpt>
      <trkpt lat="45.82905" lon="1.17764">
        <ele>323.5</ele>
        <time>2024-09-25T13:25:00Z</time>
      </trkpt>
      <trkpt lat="45.82902" lon="1.17771">
        <ele>323.5</ele>
        <time>2024-09-25T13:25:01Z</time>
      </trkpt>
      <trkpt lat="45.82901" lon="1.17779">
        <ele>323.5</ele>
        <time>2024-09-25T13:25:02Z</time>
      </trkpt>
      <trkpt lat="45.82899" lon="1.17788">
        <ele>323.5</ele>
        <time>2024-09-25T13:25:03Z</time>
      </trkpt>
      <trkpt lat="45.82898" lon="1.17795">
        <ele>323.5</ele>
        <time>2024-09-25T13:25:04Z</time>
      </trkpt>
      <trkpt lat="45.82897" lon="1.17802">
        <ele>323.5</ele>
        <time>2024-09-25T13:25:05Z</time>
      </trkpt>
      <trkpt lat="45.82896" lon="1.17807">
        <ele>323.5</ele>
        <time>2024-09-25T13:25:06Z</time>
      </trkpt>
      <trkpt lat="45.82895" lon="1.17814">
        <ele>323.5</ele>
        <time>2024-09-25T13:25:07Z</time>
      </trkpt>
      <trkpt lat="45.82893" lon="1.17821">
        <ele>323.6</ele>
        <time>2024-09-25T13:25:08Z</time>
      </trkpt>
      <trkpt lat="45.82892" lon="1.17827">
        <ele>323.6</ele>
        <time>2024-09-25T13:25:09Z</time>
      </trkpt>
      <trkpt lat="45.82891" lon="1.17833">
        <ele>323.6</ele>
        <time>2024-09-25T13:25:10Z</time>
      </trkpt>
      <trkpt lat="45.82891" lon="1.17838">
        <ele>323.7</ele>
        <time>2024-09-25T13:25:11Z</time>
      </trkpt>
      <trkpt lat="45.82891" lon="1.17842">
        <ele>323.7</ele>
        <time>2024-09-25T13:25:12Z</time>
      </trkpt>
      <trkpt lat="45.82891" lon="1.17847">
        <ele>323.8</ele>
        <time>2024-09-25T13:25:13Z</time>
      </trkpt>
      <trkpt lat="45.8289" lon="1.17852">
        <ele>323.8</ele>
        <time>2024-09-25T13:25:14Z</time>
      </trkpt>
      <trkpt lat="45.82889" lon="1.17856">
        <ele>323.9</ele>
        <time>2024-09-25T13:25:15Z</time>
      </trkpt>
      <trkpt lat="45.82887" lon="1.1786">
        <ele>324</ele>
        <time>2024-09-25T13:25:16Z</time>
      </trkpt>
      <trkpt lat="45.82886" lon="1.17865">
        <ele>324</ele>
        <time>2024-09-25T13:25:17Z</time>
      </trkpt>
      <trkpt lat="45.82885" lon="1.1787">
        <ele>324.1</ele>
        <time>2024-09-25T13:25:18Z</time>
      </trkpt>
      <trkpt lat="45.82884" lon="1.17874">
        <ele>324.2</ele>
        <time>2024-09-25T13:25:19Z</time>
      </trkpt>
      <trkpt lat="45.82883" lon="1.17879">
        <ele>324.3</ele>
        <time>2024-09-25T13:25:20Z</time>
      </trkpt>
      <trkpt lat="45.82882" lon="1.17884">
        <ele>324.4</ele>
        <time>2024-09-25T13:25:21Z</time>
      </trkpt>
      <trkpt lat="45.82881" lon="1.1789">
        <ele>324.5</ele>
        <time>2024-09-25T13:25:22Z</time>
      </trkpt>
      <trkpt lat="45.82881" lon="1.17896">
        <ele>324.7</ele>
        <time>2024-09-25T13:25:23Z</time>
      </trkpt>
      <trkpt lat="45.8288" lon="1.17902">
        <ele>324.8</ele>
        <time>2024-09-25T13:25:24Z</time>
      </trkpt>
      <trkpt lat="45.82879" lon="1.17907">
        <ele>324.9</ele>
        <time>2024-09-25T13:25:25Z</time>
      </trkpt>
      <trkpt lat="45.82878" lon="1.17911">
        <ele>325</ele>
        <time>2024-09-25T13:25:26Z</time>
      </trkpt>
      <trkpt lat="45.82875" lon="1.17917">
        <ele>325.2</ele>
        <time>2024-09-25T13:25:28Z</time>
      </trkpt>
      <trkpt lat="45.82872" lon="1.1792">
        <ele>325.3</ele>
        <time>2024-09-25T13:25:29Z</time>
      </trkpt>
      <trkpt lat="45.8287" lon="1.17923">
        <ele>325.4</ele>
        <time>2024-09-25T13:25:30Z</time>
      </trkpt>
      <trkpt lat="45.82868" lon="1.17925">
        <ele>325.5</ele>
        <time>2024-09-25T13:25:31Z</time>
      </trkpt>
      <trkpt lat="45.82865" lon="1.17928">
        <ele>325.6</ele>
        <time>2024-09-25T13:25:32Z</time>
      </trkpt>
      <trkpt lat="45.82862" lon="1.17931">
        <ele>325.8</ele>
        <time>2024-09-25T13:25:34Z</time>
      </trkpt>
      <trkpt lat="45.82859" lon="1.17934">
        <ele>326</ele>
        <time>2024-09-25T13:25:35Z</time>
      </trkpt>
      <trkpt lat="45.82856" lon="1.17936">
        <ele>326.1</ele>
        <time>2024-09-25T13:25:36Z</time>
      </trkpt>
      <trkpt lat="45.82853" lon="1.17937">
        <ele>326.2</ele>
        <time>2024-09-25T13:25:37Z</time>
      </trkpt>
      <trkpt lat="45.82849" lon="1.17938">
        <ele>326.3</ele>
        <time>2024-09-25T13:25:38Z</time>
      </trkpt>
      <trkpt lat="45.82845" lon="1.17938">
        <ele>326.5</ele>
        <time>2024-09-25T13:25:39Z</time>
      </trkpt>
      <trkpt lat="45.82841" lon="1.17937">
        <ele>326.6</ele>
        <time>2024-09-25T13:25:40Z</time>
      </trkpt>
      <trkpt lat="45.82837" lon="1.17936">
        <ele>326.8</ele>
        <time>2024-09-25T13:25:41Z</time>
      </trkpt>
      <trkpt lat="45.82833" lon="1.17935">
        <ele>326.9</ele>
        <time>2024-09-25T13:25:42Z</time>
      </trkpt>
      <trkpt lat="45.8283" lon="1.17935">
        <ele>327</ele>
        <time>2024-09-25T13:25:43Z</time>
      </trkpt>
      <trkpt lat="45.82825" lon="1.17934">
        <ele>327.2</ele>
        <time>2024-09-25T13:25:44Z</time>
      </trkpt>
      <trkpt lat="45.82821" lon="1.17934">
        <ele>327.4</ele>
        <time>2024-09-25T13:25:45Z</time>
      </trkpt>
      <trkpt lat="45.82816" lon="1.17933">
        <ele>327.6</ele>
        <time>2024-09-25T13:25:46Z</time>
      </trkpt>
      <trkpt lat="45.82812" lon="1.17931">
        <ele>327.7</ele>
        <time>2024-09-25T13:25:47Z</time>
      </trkpt>
      <trkpt lat="45.82809" lon="1.17931">
        <ele>327.8</ele>
        <time>2024-09-25T13:25:48Z</time>
      </trkpt>
      <trkpt lat="45.82806" lon="1.1793">
        <ele>328</ele>
        <time>2024-09-25T13:25:49Z</time>
      </trkpt>
      <trkpt lat="45.82803" lon="1.17928">
        <ele>328.1</ele>
        <time>2024-09-25T13:25:50Z</time>
      </trkpt>
      <trkpt lat="45.828" lon="1.17927">
        <ele>328.2</ele>
        <time>2024-09-25T13:25:51Z</time>
      </trkpt>
      <trkpt lat="45.82796" lon="1.17925">
        <ele>328.4</ele>
        <time>2024-09-25T13:25:52Z</time>
      </trkpt>
      <trkpt lat="45.82793" lon="1.17924">
        <ele>328.5</ele>
        <time>2024-09-25T13:25:53Z</time>
      </trkpt>
      <trkpt lat="45.8279" lon="1.17922">
        <ele>328.6</ele>
        <time>2024-09-25T13:25:54Z</time>
      </trkpt>
      <trkpt lat="45.82787" lon="1.1792">
        <ele>328.7</ele>
        <time>2024-09-25T13:25:55Z</time>
      </trkpt>
      <trkpt lat="45.82784" lon="1.17918">
        <ele>328.9</ele>
        <time>2024-09-25T13:25:56Z</time>
      </trkpt>
      <trkpt lat="45.82781" lon="1.17917">
        <ele>329</ele>
        <time>2024-09-25T13:25:57Z</time>
      </trkpt>
      <trkpt lat="45.82777" lon="1.17915">
        <ele>329.2</ele>
        <time>2024-09-25T13:25:58Z</time>
      </trkpt>
      <trkpt lat="45.82773" lon="1.17914">
        <ele>329.4</ele>
        <time>2024-09-25T13:25:59Z</time>
      </trkpt>
      <trkpt lat="45.8277" lon="1.17912">
        <ele>329.5</ele>
        <time>2024-09-25T13:26:00Z</time>
      </trkpt>
      <trkpt lat="45.82767" lon="1.1791">
        <ele>329.7</ele>
        <time>2024-09-25T13:26:01Z</time>
      </trkpt>
      <trkpt lat="45.82764" lon="1.17908">
        <ele>329.8</ele>
        <time>2024-09-25T13:26:02Z</time>
      </trkpt>
      <trkpt lat="45.82761" lon="1.17907">
        <ele>330</ele>
        <time>2024-09-25T13:26:03Z</time>
      </trkpt>
      <trkpt lat="45.82757" lon="1.17905">
        <ele>330.2</ele>
        <time>2024-09-25T13:26:05Z</time>
      </trkpt>
      <trkpt lat="45.82753" lon="1.17903">
        <ele>330.4</ele>
        <time>2024-09-25T13:26:06Z</time>
      </trkpt>
      <trkpt lat="45.8275" lon="1.17902">
        <ele>330.5</ele>
        <time>2024-09-25T13:26:07Z</time>
      </trkpt>
      <trkpt lat="45.82747" lon="1.17901">
        <ele>330.6</ele>
        <time>2024-09-25T13:26:08Z</time>
      </trkpt>
      <trkpt lat="45.82742" lon="1.17899">
        <ele>330.9</ele>
        <time>2024-09-25T13:26:10Z</time>
      </trkpt>
      <trkpt lat="45.82738" lon="1.17897">
        <ele>331</ele>
        <time>2024-09-25T13:26:11Z</time>
      </trkpt>
      <trkpt lat="45.82735" lon="1.17895">
        <ele>331.1</ele>
        <time>2024-09-25T13:26:12Z</time>
      </trkpt>
      <trkpt lat="45.82733" lon="1.17892">
        <ele>331.1</ele>
        <time>2024-09-25T13:26:13Z</time>
      </trkpt>
      <trkpt lat="45.8273" lon="1.17889">
        <ele>331.1</ele>
        <time>2024-09-25T13:26:14Z</time>
      </trkpt>
      <trkpt lat="45.82728" lon="1.17885">
        <ele>331.2</ele>
        <time>2024-09-25T13:26:15Z</time>
      </trkpt>
      <trkpt lat="45.82726" lon="1.17882">
        <ele>331.2</ele>
        <time>2024-09-25T13:26:16Z</time>
      </trkpt>
      <trkpt lat="45.82723" lon="1.17879">
        <ele>331.2</ele>
        <time>2024-09-25T13:26:17Z</time>
      </trkpt>
      <trkpt lat="45.8272" lon="1.17876">
        <ele>331.3</ele>
        <time>2024-09-25T13:26:18Z</time>
      </trkpt>
      <trkpt lat="45.82716" lon="1.17873">
        <ele>331.3</ele>
        <time>2024-09-25T13:26:20Z</time>
      </trkpt>
      <trkpt lat="45.82713" lon="1.1787">
        <ele>331.4</ele>
        <time>2024-09-25T13:26:21Z</time>
      </trkpt>
      <trkpt lat="45.8271" lon="1.17868">
        <ele>331.4</ele>
        <time>2024-09-25T13:26:22Z</time>
      </trkpt>
      <trkpt lat="45.82707" lon="1.17866">
        <ele>331.5</ele>
        <time>2024-09-25T13:26:23Z</time>
      </trkpt>
      <trkpt lat="45.82705" lon="1.17864">
        <ele>331.5</ele>
        <time>2024-09-25T13:26:24Z</time>
      </trkpt>
      <trkpt lat="45.82701" lon="1.1786">
        <ele>331.7</ele>
        <time>2024-09-25T13:26:26Z</time>
      </trkpt>
      <trkpt lat="45.82698" lon="1.17858">
        <ele>331.8</ele>
        <time>2024-09-25T13:26:27Z</time>
      </trkpt>
      <trkpt lat="45.82695" lon="1.17855">
        <ele>331.9</ele>
        <time>2024-09-25T13:26:28Z</time>
      </trkpt>
      <trkpt lat="45.82692" lon="1.17853">
        <ele>332</ele>
        <time>2024-09-25T13:26:29Z</time>
      </trkpt>
      <trkpt lat="45.82689" lon="1.17851">
        <ele>332.1</ele>
        <time>2024-09-25T13:26:30Z</time>
      </trkpt>
      <trkpt lat="45.82686" lon="1.17848">
        <ele>332.2</ele>
        <time>2024-09-25T13:26:31Z</time>
      </trkpt>
      <trkpt lat="45.82683" lon="1.17846">
        <ele>332.4</ele>
        <time>2024-09-25T13:26:32Z</time>
      </trkpt>
      <trkpt lat="45.8268" lon="1.17843">
        <ele>332.5</ele>
        <time>2024-09-25T13:26:33Z</time>
      </trkpt>
      <trkpt lat="45.82677" lon="1.17841">
        <ele>332.6</ele>
        <time>2024-09-25T13:26:34Z</time>
      </trkpt>
      <trkpt lat="45.82673" lon="1.17838">
        <ele>332.8</ele>
        <time>2024-09-25T13:26:36Z</time>
      </trkpt>
      <trkpt lat="45.8267" lon="1.17833">
        <ele>333</ele>
        <time>2024-09-25T13:26:38Z</time>
      </trkpt>
      <trkpt lat="45.82666" lon="1.17829">
        <ele>333.2</ele>
        <time>2024-09-25T13:26:40Z</time>
      </trkpt>
      <trkpt lat="45.82663" lon="1.17825">
        <ele>333.3</ele>
        <time>2024-09-25T13:26:41Z</time>
      </trkpt>
      <trkpt lat="45.82659" lon="1.1782">
        <ele>333.5</ele>
        <time>2024-09-25T13:26:42Z</time>
      </trkpt>
      <trkpt lat="45.82655" lon="1.17817">
        <ele>333.6</ele>
        <time>2024-09-25T13:26:43Z</time>
      </trkpt>
      <trkpt lat="45.82651" lon="1.17812">
        <ele>333.7</ele>
        <time>2024-09-25T13:26:45Z</time>
      </trkpt>
      <trkpt lat="45.82646" lon="1.17808">
        <ele>333.9</ele>
        <time>2024-09-25T13:26:47Z</time>
      </trkpt>
      <trkpt lat="45.82643" lon="1.17805">
        <ele>334</ele>
        <time>2024-09-25T13:26:48Z</time>
      </trkpt>
      <trkpt lat="45.8264" lon="1.17803">
        <ele>334.1</ele>
        <time>2024-09-25T13:26:49Z</time>
      </trkpt>
      <trkpt lat="45.82637" lon="1.17802">
        <ele>334.2</ele>
        <time>2024-09-25T13:26:50Z</time>
      </trkpt>
      <trkpt lat="45.82632" lon="1.17802">
        <ele>334.3</ele>
        <time>2024-09-25T13:26:52Z</time>
      </trkpt>
      <trkpt lat="45.82629" lon="1.17802">
        <ele>334.4</ele>
        <time>2024-09-25T13:26:53Z</time>
      </trkpt>
      <trkpt lat="45.82625" lon="1.17802">
        <ele>334.5</ele>
        <time>2024-09-25T13:26:54Z</time>
      </trkpt>
      <trkpt lat="45.82622" lon="1.17801">
        <ele>334.6</ele>
        <time>2024-09-25T13:26:55Z</time>
      </trkpt>
      <trkpt lat="45.82618" lon="1.17801">
        <ele>334.7</ele>
        <time>2024-09-25T13:26:56Z</time>
      </trkpt>
      <trkpt lat="45.82615" lon="1.178">
        <ele>334.8</ele>
        <time>2024-09-25T13:26:57Z</time>
      </trkpt>
      <trkpt lat="45.82612" lon="1.178">
        <ele>334.9</ele>
        <time>2024-09-25T13:26:58Z</time>
      </trkpt>
      <trkpt lat="45.82609" lon="1.17799">
        <ele>334.9</ele>
        <time>2024-09-25T13:26:59Z</time>
      </trkpt>
      <trkpt lat="45.82606" lon="1.17798">
        <ele>335</ele>
        <time>2024-09-25T13:27:00Z</time>
      </trkpt>
      <trkpt lat="45.82602" lon="1.17796">
        <ele>335.1</ele>
        <time>2024-09-25T13:27:01Z</time>
      </trkpt>
      <trkpt lat="45.82599" lon="1.17793">
        <ele>335.1</ele>
        <time>2024-09-25T13:27:02Z</time>
      </trkpt>
      <trkpt lat="45.82595" lon="1.17791">
        <ele>335.1</ele>
        <time>2024-09-25T13:27:03Z</time>
      </trkpt>
      <trkpt lat="45.82591" lon="1.17789">
        <ele>335.1</ele>
        <time>2024-09-25T13:27:04Z</time>
      </trkpt>
      <trkpt lat="45.82587" lon="1.17789">
        <ele>335.1</ele>
        <time>2024-09-25T13:27:05Z</time>
      </trkpt>
      <trkpt lat="45.82584" lon="1.17787">
        <ele>335.1</ele>
        <time>2024-09-25T13:27:06Z</time>
      </trkpt>
      <trkpt lat="45.82581" lon="1.17786">
        <ele>335.1</ele>
        <time>2024-09-25T13:27:07Z</time>
      </trkpt>
      <trkpt lat="45.82579" lon="1.17783">
        <ele>335.1</ele>
        <time>2024-09-25T13:27:08Z</time>
      </trkpt>
      <trkpt lat="45.82577" lon="1.17779">
        <ele>335.1</ele>
        <time>2024-09-25T13:27:09Z</time>
      </trkpt>
      <trkpt lat="45.82575" lon="1.17775">
        <ele>335</ele>
        <time>2024-09-25T13:27:10Z</time>
      </trkpt>
      <trkpt lat="45.82574" lon="1.1777">
        <ele>335</ele>
        <time>2024-09-25T13:27:12Z</time>
      </trkpt>
      <trkpt lat="45.82571" lon="1.17763">
        <ele>334.9</ele>
        <time>2024-09-25T13:27:14Z</time>
      </trkpt>
      <trkpt lat="45.82567" lon="1.17755">
        <ele>334.8</ele>
        <time>2024-09-25T13:27:15Z</time>
      </trkpt>
      <trkpt lat="45.82564" lon="1.1775">
        <ele>334.7</ele>
        <time>2024-09-25T13:27:16Z</time>
      </trkpt>
      <trkpt lat="45.8256" lon="1.17745">
        <ele>334.6</ele>
        <time>2024-09-25T13:27:18Z</time>
      </trkpt>
      <trkpt lat="45.82557" lon="1.17741">
        <ele>334.5</ele>
        <time>2024-09-25T13:27:19Z</time>
      </trkpt>
      <trkpt lat="45.82553" lon="1.17736">
        <ele>334.4</ele>
        <time>2024-09-25T13:27:21Z</time>
      </trkpt>
      <trkpt lat="45.82549" lon="1.17733">
        <ele>334.4</ele>
        <time>2024-09-25T13:27:22Z</time>
      </trkpt>
      <trkpt lat="45.82546" lon="1.1773">
        <ele>334.3</ele>
        <time>2024-09-25T13:27:23Z</time>
      </trkpt>
      <trkpt lat="45.82543" lon="1.17728">
        <ele>334.3</ele>
        <time>2024-09-25T13:27:24Z</time>
      </trkpt>
      <trkpt lat="45.8254" lon="1.17728">
        <ele>334.2</ele>
        <time>2024-09-25T13:27:25Z</time>
      </trkpt>
      <trkpt lat="45.82536" lon="1.17725">
        <ele>334.2</ele>
        <time>2024-09-25T13:27:27Z</time>
      </trkpt>
      <trkpt lat="45.82533" lon="1.17722">
        <ele>334.1</ele>
        <time>2024-09-25T13:27:28Z</time>
      </trkpt>
      <trkpt lat="45.8253" lon="1.17718">
        <ele>334</ele>
        <time>2024-09-25T13:27:29Z</time>
      </trkpt>
      <trkpt lat="45.82527" lon="1.17714">
        <ele>334</ele>
        <time>2024-09-25T13:27:30Z</time>
      </trkpt>
      <trkpt lat="45.82524" lon="1.17711">
        <ele>333.9</ele>
        <time>2024-09-25T13:27:31Z</time>
      </trkpt>
      <trkpt lat="45.82521" lon="1.17707">
        <ele>333.8</ele>
        <time>2024-09-25T13:27:32Z</time>
      </trkpt>
      <trkpt lat="45.82519" lon="1.17703">
        <ele>333.8</ele>
        <time>2024-09-25T13:27:33Z</time>
      </trkpt>
      <trkpt lat="45.82516" lon="1.177">
        <ele>333.8</ele>
        <time>2024-09-25T13:27:34Z</time>
      </trkpt>
      <trkpt lat="45.82513" lon="1.17697">
        <ele>333.7</ele>
        <time>2024-09-25T13:27:35Z</time>
      </trkpt>
      <trkpt lat="45.8251" lon="1.17694">
        <ele>333.7</ele>
        <time>2024-09-25T13:27:36Z</time>
      </trkpt>
      <trkpt lat="45.82507" lon="1.17692">
        <ele>333.6</ele>
        <time>2024-09-25T13:27:37Z</time>
      </trkpt>
      <trkpt lat="45.82504" lon="1.17689">
        <ele>333.6</ele>
        <time>2024-09-25T13:27:38Z</time>
      </trkpt>
      <trkpt lat="45.82501" lon="1.17686">
        <ele>333.6</ele>
        <time>2024-09-25T13:27:40Z</time>
      </trkpt>
      <trkpt lat="45.82496" lon="1.17683">
        <ele>333.5</ele>
        <time>2024-09-25T13:27:42Z</time>
      </trkpt>
      <trkpt lat="45.82493" lon="1.17681">
        <ele>333.4</ele>
        <time>2024-09-25T13:27:43Z</time>
      </trkpt>
      <trkpt lat="45.82489" lon="1.1768">
        <ele>333.3</ele>
        <time>2024-09-25T13:27:44Z</time>
      </trkpt>
      <trkpt lat="45.82486" lon="1.17678">
        <ele>333.3</ele>
        <time>2024-09-25T13:27:45Z</time>
      </trkpt>
      <trkpt lat="45.82483" lon="1.17677">
        <ele>333.2</ele>
        <time>2024-09-25T13:27:46Z</time>
      </trkpt>
      <trkpt lat="45.8248" lon="1.17675">
        <ele>333.1</ele>
        <time>2024-09-25T13:27:47Z</time>
      </trkpt>
      <trkpt lat="45.82475" lon="1.17673">
        <ele>333</ele>
        <time>2024-09-25T13:27:49Z</time>
      </trkpt>
      <trkpt lat="45.82472" lon="1.17671">
        <ele>333</ele>
        <time>2024-09-25T13:27:50Z</time>
      </trkpt>
      <trkpt lat="45.82468" lon="1.1767">
        <ele>332.9</ele>
        <time>2024-09-25T13:27:51Z</time>
      </trkpt>
      <trkpt lat="45.82465" lon="1.1767">
        <ele>332.9</ele>
        <time>2024-09-25T13:27:52Z</time>
      </trkpt>
      <trkpt lat="45.82462" lon="1.1767">
        <ele>332.9</ele>
        <time>2024-09-25T13:27:53Z</time>
      </trkpt>
      <trkpt lat="45.82459" lon="1.1767">
        <ele>332.9</ele>
        <time>2024-09-25T13:27:54Z</time>
      </trkpt>
      <trkpt lat="45.82456" lon="1.17674">
        <ele>332.9</ele>
        <time>2024-09-25T13:27:56Z</time>
      </trkpt>
      <trkpt lat="45.82455" lon="1.17679">
        <ele>333</ele>
        <time>2024-09-25T13:27:58Z</time>
      </trkpt>
      <trkpt lat="45.82454" lon="1.17684">
        <ele>333</ele>
        <time>2024-09-25T13:27:59Z</time>
      </trkpt>
      <trkpt lat="45.82454" lon="1.1769">
        <ele>333.1</ele>
        <time>2024-09-25T13:28:01Z</time>
      </trkpt>
      <trkpt lat="45.82455" lon="1.17695">
        <ele>333.2</ele>
        <time>2024-09-25T13:28:02Z</time>
      </trkpt>
      <trkpt lat="45.82455" lon="1.17699">
        <ele>333.2</ele>
        <time>2024-09-25T13:28:03Z</time>
      </trkpt>
      <trkpt lat="45.82454" lon="1.17705">
        <ele>333.3</ele>
        <time>2024-09-25T13:28:05Z</time>
      </trkpt>
      <trkpt lat="45.82453" lon="1.17709">
        <ele>333.3</ele>
        <time>2024-09-25T13:28:06Z</time>
      </trkpt>
      <trkpt lat="45.82451" lon="1.17712">
        <ele>333.3</ele>
        <time>2024-09-25T13:28:07Z</time>
      </trkpt>
      <trkpt lat="45.82449" lon="1.17716">
        <ele>333.3</ele>
        <time>2024-09-25T13:28:08Z</time>
      </trkpt>
      <trkpt lat="45.82447" lon="1.1772">
        <ele>333.4</ele>
        <time>2024-09-25T13:28:09Z</time>
      </trkpt>
      <trkpt lat="45.82444" lon="1.17725">
        <ele>333.4</ele>
        <time>2024-09-25T13:28:10Z</time>
      </trkpt>
      <trkpt lat="45.82441" lon="1.17731">
        <ele>333.3</ele>
        <time>2024-09-25T13:28:11Z</time>
      </trkpt>
      <trkpt lat="45.82439" lon="1.17735">
        <ele>333.3</ele>
        <time>2024-09-25T13:28:12Z</time>
      </trkpt>
      <trkpt lat="45.82436" lon="1.17738">
        <ele>333.3</ele>
        <time>2024-09-25T13:28:13Z</time>
      </trkpt>
      <trkpt lat="45.82433" lon="1.17739">
        <ele>333.3</ele>
        <time>2024-09-25T13:28:14Z</time>
      </trkpt>
      <trkpt lat="45.8243" lon="1.17741">
        <ele>333.3</ele>
        <time>2024-09-25T13:28:15Z</time>
      </trkpt>
      <trkpt lat="45.82428" lon="1.17744">
        <ele>333.3</ele>
        <time>2024-09-25T13:28:16Z</time>
      </trkpt>
      <trkpt lat="45.82425" lon="1.17748">
        <ele>333.3</ele>
        <time>2024-09-25T13:28:17Z</time>
      </trkpt>
      <trkpt lat="45.82424" lon="1.17753">
        <ele>333.3</ele>
        <time>2024-09-25T13:28:18Z</time>
      </trkpt>
      <trkpt lat="45.82422" lon="1.17758">
        <ele>333.4</ele>
        <time>2024-09-25T13:28:19Z</time>
      </trkpt>
      <trkpt lat="45.82419" lon="1.17761">
        <ele>333.4</ele>
        <time>2024-09-25T13:28:20Z</time>
      </trkpt>
      <trkpt lat="45.82416" lon="1.17763">
        <ele>333.5</ele>
        <time>2024-09-25T13:28:21Z</time>
      </trkpt>
      <trkpt lat="45.82413" lon="1.17766">
        <ele>333.5</ele>
        <time>2024-09-25T13:28:22Z</time>
      </trkpt>
      <trkpt lat="45.8241" lon="1.17769">
        <ele>333.6</ele>
        <time>2024-09-25T13:28:23Z</time>
      </trkpt>
      <trkpt lat="45.82408" lon="1.17771">
        <ele>333.6</ele>
        <time>2024-09-25T13:28:24Z</time>
      </trkpt>
      <trkpt lat="45.82405" lon="1.17774">
        <ele>333.6</ele>
        <time>2024-09-25T13:28:25Z</time>
      </trkpt>
      <trkpt lat="45.82403" lon="1.17777">
        <ele>333.7</ele>
        <time>2024-09-25T13:28:26Z</time>
      </trkpt>
      <trkpt lat="45.82401" lon="1.17781">
        <ele>333.7</ele>
        <time>2024-09-25T13:28:27Z</time>
      </trkpt>
      <trkpt lat="45.824" lon="1.17785">
        <ele>333.8</ele>
        <time>2024-09-25T13:28:28Z</time>
      </trkpt>
      <trkpt lat="45.82399" lon="1.1779">
        <ele>333.8</ele>
        <time>2024-09-25T13:28:29Z</time>
      </trkpt>
      <trkpt lat="45.82398" lon="1.17794">
        <ele>333.9</ele>
        <time>2024-09-25T13:28:30Z</time>
      </trkpt>
      <trkpt lat="45.82396" lon="1.17798">
        <ele>333.9</ele>
        <time>2024-09-25T13:28:31Z</time>
      </trkpt>
      <trkpt lat="45.82394" lon="1.17801">
        <ele>333.9</ele>
        <time>2024-09-25T13:28:32Z</time>
      </trkpt>
      <trkpt lat="45.82391" lon="1.17804">
        <ele>334</ele>
        <time>2024-09-25T13:28:33Z</time>
      </trkpt>
      <trkpt lat="45.82388" lon="1.17807">
        <ele>334</ele>
        <time>2024-09-25T13:28:34Z</time>
      </trkpt>
      <trkpt lat="45.82386" lon="1.1781">
        <ele>334</ele>
        <time>2024-09-25T13:28:35Z</time>
      </trkpt>
      <trkpt lat="45.82384" lon="1.17814">
        <ele>334</ele>
        <time>2024-09-25T13:28:36Z</time>
      </trkpt>
      <trkpt lat="45.82382" lon="1.17818">
        <ele>334</ele>
        <time>2024-09-25T13:28:37Z</time>
      </trkpt>
      <trkpt lat="45.82382" lon="1.17823">
        <ele>334</ele>
        <time>2024-09-25T13:28:38Z</time>
      </trkpt>
      <trkpt lat="45.82382" lon="1.17829">
        <ele>334</ele>
        <time>2024-09-25T13:28:39Z</time>
      </trkpt>
      <trkpt lat="45.82382" lon="1.17834">
        <ele>334</ele>
        <time>2024-09-25T13:28:40Z</time>
      </trkpt>
      <trkpt lat="45.82381" lon="1.17839">
        <ele>334</ele>
        <time>2024-09-25T13:28:41Z</time>
      </trkpt>
      <trkpt lat="45.82381" lon="1.17843">
        <ele>334</ele>
        <time>2024-09-25T13:28:42Z</time>
      </trkpt>
      <trkpt lat="45.8238" lon="1.17848">
        <ele>334</ele>
        <time>2024-09-25T13:28:43Z</time>
      </trkpt>
      <trkpt lat="45.82378" lon="1.17854">
        <ele>334</ele>
        <time>2024-09-25T13:28:44Z</time>
      </trkpt>
      <trkpt lat="45.82378" lon="1.17859">
        <ele>333.9</ele>
        <time>2024-09-25T13:28:45Z</time>
      </trkpt>
      <trkpt lat="45.82377" lon="1.17865">
        <ele>333.9</ele>
        <time>2024-09-25T13:28:46Z</time>
      </trkpt>
      <trkpt lat="45.82374" lon="1.17871">
        <ele>333.8</ele>
        <time>2024-09-25T13:28:47Z</time>
      </trkpt>
      <trkpt lat="45.82372" lon="1.17876">
        <ele>333.7</ele>
        <time>2024-09-25T13:28:48Z</time>
      </trkpt>
      <trkpt lat="45.82371" lon="1.17882">
        <ele>333.6</ele>
        <time>2024-09-25T13:28:49Z</time>
      </trkpt>
      <trkpt lat="45.82372" lon="1.17887">
        <ele>333.5</ele>
        <time>2024-09-25T13:28:50Z</time>
      </trkpt>
      <trkpt lat="45.82372" lon="1.17893">
        <ele>333.4</ele>
        <time>2024-09-25T13:28:51Z</time>
      </trkpt>
      <trkpt lat="45.82373" lon="1.17899">
        <ele>333.2</ele>
        <time>2024-09-25T13:28:53Z</time>
      </trkpt>
      <trkpt lat="45.82372" lon="1.17905">
        <ele>333</ele>
        <time>2024-09-25T13:28:54Z</time>
      </trkpt>
      <trkpt lat="45.82368" lon="1.17911">
        <ele>332.7</ele>
        <time>2024-09-25T13:28:55Z</time>
      </trkpt>
      <trkpt lat="45.82365" lon="1.17915">
        <ele>332.5</ele>
        <time>2024-09-25T13:28:56Z</time>
      </trkpt>
      <trkpt lat="45.82362" lon="1.1792">
        <ele>332.3</ele>
        <time>2024-09-25T13:28:57Z</time>
      </trkpt>
      <trkpt lat="45.82361" lon="1.17924">
        <ele>332.1</ele>
        <time>2024-09-25T13:28:58Z</time>
      </trkpt>
      <trkpt lat="45.82359" lon="1.1793">
        <ele>331.9</ele>
        <time>2024-09-25T13:29:00Z</time>
      </trkpt>
      <trkpt lat="45.82357" lon="1.17935">
        <ele>331.7</ele>
        <time>2024-09-25T13:29:01Z</time>
      </trkpt>
      <trkpt lat="45.82356" lon="1.1794">
        <ele>331.6</ele>
        <time>2024-09-25T13:29:02Z</time>
      </trkpt>
      <trkpt lat="45.82355" lon="1.17944">
        <ele>331.5</ele>
        <time>2024-09-25T13:29:03Z</time>
      </trkpt>
      <trkpt lat="45.82351" lon="1.17949">
        <ele>331.3</ele>
        <time>2024-09-25T13:29:04Z</time>
      </trkpt>
      <trkpt lat="45.82349" lon="1.17953">
        <ele>331.2</ele>
        <time>2024-09-25T13:29:05Z</time>
      </trkpt>
      <trkpt lat="45.82349" lon="1.1796">
        <ele>331.1</ele>
        <time>2024-09-25T13:29:06Z</time>
      </trkpt>
      <trkpt lat="45.82348" lon="1.17965">
        <ele>331</ele>
        <time>2024-09-25T13:29:07Z</time>
      </trkpt>
      <trkpt lat="45.82347" lon="1.17971">
        <ele>330.9</ele>
        <time>2024-09-25T13:29:08Z</time>
      </trkpt>
      <trkpt lat="45.82344" lon="1.17974">
        <ele>330.9</ele>
        <time>2024-09-25T13:29:09Z</time>
      </trkpt>
      <trkpt lat="45.82341" lon="1.17977">
        <ele>330.9</ele>
        <time>2024-09-25T13:29:10Z</time>
      </trkpt>
      <trkpt lat="45.82337" lon="1.17979">
        <ele>331</ele>
        <time>2024-09-25T13:29:11Z</time>
      </trkpt>
      <trkpt lat="45.82333" lon="1.17979">
        <ele>331.1</ele>
        <time>2024-09-25T13:29:13Z</time>
      </trkpt>
      <trkpt lat="45.82328" lon="1.17979">
        <ele>331.3</ele>
        <time>2024-09-25T13:29:14Z</time>
      </trkpt>
      <trkpt lat="45.82323" lon="1.17979">
        <ele>331.6</ele>
        <time>2024-09-25T13:29:15Z</time>
      </trkpt>
      <trkpt lat="45.82318" lon="1.1798">
        <ele>332.2</ele>
        <time>2024-09-25T13:29:16Z</time>
      </trkpt>
      <trkpt lat="45.82315" lon="1.17982">
        <ele>332.5</ele>
        <time>2024-09-25T13:29:17Z</time>
      </trkpt>
      <trkpt lat="45.82312" lon="1.17985">
        <ele>332.9</ele>
        <time>2024-09-25T13:29:18Z</time>
      </trkpt>
      <trkpt lat="45.8231" lon="1.17988">
        <ele>333.2</ele>
        <time>2024-09-25T13:29:19Z</time>
      </trkpt>
      <trkpt lat="45.82308" lon="1.17991">
        <ele>333.4</ele>
        <time>2024-09-25T13:29:20Z</time>
      </trkpt>
      <trkpt lat="45.82305" lon="1.17996">
        <ele>333.7</ele>
        <time>2024-09-25T13:29:22Z</time>
      </trkpt>
      <trkpt lat="45.82302" lon="1.18">
        <ele>333.9</ele>
        <time>2024-09-25T13:29:24Z</time>
      </trkpt>
      <trkpt lat="45.823" lon="1.18004">
        <ele>334.1</ele>
        <time>2024-09-25T13:29:25Z</time>
      </trkpt>
      <trkpt lat="45.82298" lon="1.18008">
        <ele>334.2</ele>
        <time>2024-09-25T13:29:26Z</time>
      </trkpt>
      <trkpt lat="45.82297" lon="1.18012">
        <ele>334.3</ele>
        <time>2024-09-25T13:29:27Z</time>
      </trkpt>
      <trkpt lat="45.82297" lon="1.18017">
        <ele>334.4</ele>
        <time>2024-09-25T13:29:28Z</time>
      </trkpt>
      <trkpt lat="45.82297" lon="1.18022">
        <ele>334.4</ele>
        <time>2024-09-25T13:29:29Z</time>
      </trkpt>
      <trkpt lat="45.82294" lon="1.18028">
        <ele>334.5</ele>
        <time>2024-09-25T13:29:31Z</time>
      </trkpt>
      <trkpt lat="45.82292" lon="1.18032">
        <ele>334.6</ele>
        <time>2024-09-25T13:29:32Z</time>
      </trkpt>
      <trkpt lat="45.82289" lon="1.18036">
        <ele>334.6</ele>
        <time>2024-09-25T13:29:33Z</time>
      </trkpt>
      <trkpt lat="45.82287" lon="1.18039">
        <ele>334.6</ele>
        <time>2024-09-25T13:29:34Z</time>
      </trkpt>
      <trkpt lat="45.82284" lon="1.18041">
        <ele>334.6</ele>
        <time>2024-09-25T13:29:35Z</time>
      </trkpt>
      <trkpt lat="45.82282" lon="1.18045">
        <ele>334.6</ele>
        <time>2024-09-25T13:29:36Z</time>
      </trkpt>
      <trkpt lat="45.82279" lon="1.1805">
        <ele>334.5</ele>
        <time>2024-09-25T13:29:37Z</time>
      </trkpt>
      <trkpt lat="45.82277" lon="1.18056">
        <ele>334.4</ele>
        <time>2024-09-25T13:29:38Z</time>
      </trkpt>
      <trkpt lat="45.82275" lon="1.18062">
        <ele>334.1</ele>
        <time>2024-09-25T13:29:39Z</time>
      </trkpt>
      <trkpt lat="45.82274" lon="1.18068">
        <ele>333.9</ele>
        <time>2024-09-25T13:29:40Z</time>
      </trkpt>
      <trkpt lat="45.82274" lon="1.18075">
        <ele>333.6</ele>
        <time>2024-09-25T13:29:41Z</time>
      </trkpt>
      <trkpt lat="45.82275" lon="1.18082">
        <ele>333.2</ele>
        <time>2024-09-25T13:29:42Z</time>
      </trkpt>
      <trkpt lat="45.82275" lon="1.18092">
        <ele>332.7</ele>
        <time>2024-09-25T13:29:43Z</time>
      </trkpt>
      <trkpt lat="45.82274" lon="1.181">
        <ele>332.3</ele>
        <time>2024-09-25T13:29:44Z</time>
      </trkpt>
      <trkpt lat="45.82274" lon="1.18108">
        <ele>331.9</ele>
        <time>2024-09-25T13:29:45Z</time>
      </trkpt>
      <trkpt lat="45.82274" lon="1.18115">
        <ele>331.6</ele>
        <time>2024-09-25T13:29:46Z</time>
      </trkpt>
      <trkpt lat="45.82274" lon="1.18123">
        <ele>331.2</ele>
        <time>2024-09-25T13:29:47Z</time>
      </trkpt>
      <trkpt lat="45.82274" lon="1.18131">
        <ele>330.8</ele>
        <time>2024-09-25T13:29:48Z</time>
      </trkpt>
      <trkpt lat="45.82274" lon="1.18138">
        <ele>330.5</ele>
        <time>2024-09-25T13:29:49Z</time>
      </trkpt>
      <trkpt lat="45.82273" lon="1.18145">
        <ele>330.1</ele>
        <time>2024-09-25T13:29:50Z</time>
      </trkpt>
      <trkpt lat="45.82271" lon="1.18151">
        <ele>329.8</ele>
        <time>2024-09-25T13:29:51Z</time>
      </trkpt>
      <trkpt lat="45.82271" lon="1.1816">
        <ele>329.2</ele>
        <time>2024-09-25T13:29:52Z</time>
      </trkpt>
      <trkpt lat="45.8227" lon="1.18168">
        <ele>328.6</ele>
        <time>2024-09-25T13:29:53Z</time>
      </trkpt>
      <trkpt lat="45.82267" lon="1.18175">
        <ele>328.1</ele>
        <time>2024-09-25T13:29:54Z</time>
      </trkpt>
      <trkpt lat="45.82263" lon="1.18184">
        <ele>327.5</ele>
        <time>2024-09-25T13:29:55Z</time>
      </trkpt>
      <trkpt lat="45.82259" lon="1.18191">
        <ele>327.1</ele>
        <time>2024-09-25T13:29:56Z</time>
      </trkpt>
      <trkpt lat="45.82258" lon="1.18199">
        <ele>326.9</ele>
        <time>2024-09-25T13:29:57Z</time>
      </trkpt>
      <trkpt lat="45.82256" lon="1.18204">
        <ele>326.7</ele>
        <time>2024-09-25T13:29:58Z</time>
      </trkpt>
      <trkpt lat="45.82254" lon="1.18209">
        <ele>326.6</ele>
        <time>2024-09-25T13:29:59Z</time>
      </trkpt>
      <trkpt lat="45.8225" lon="1.18215">
        <ele>326.4</ele>
        <time>2024-09-25T13:30:00Z</time>
      </trkpt>
      <trkpt lat="45.82247" lon="1.18221">
        <ele>326.3</ele>
        <time>2024-09-25T13:30:01Z</time>
      </trkpt>
      <trkpt lat="45.82242" lon="1.18229">
        <ele>326.1</ele>
        <time>2024-09-25T13:30:02Z</time>
      </trkpt>
      <trkpt lat="45.82237" lon="1.18235">
        <ele>325.9</ele>
        <time>2024-09-25T13:30:03Z</time>
      </trkpt>
      <trkpt lat="45.82232" lon="1.18239">
        <ele>325.8</ele>
        <time>2024-09-25T13:30:04Z</time>
      </trkpt>
      <trkpt lat="45.82229" lon="1.18244">
        <ele>325.6</ele>
        <time>2024-09-25T13:30:05Z</time>
      </trkpt>
      <trkpt lat="45.82223" lon="1.18249">
        <ele>325.4</ele>
        <time>2024-09-25T13:30:06Z</time>
      </trkpt>
      <trkpt lat="45.82218" lon="1.18255">
        <ele>325.2</ele>
        <time>2024-09-25T13:30:08Z</time>
      </trkpt>
      <trkpt lat="45.82213" lon="1.1826">
        <ele>324.9</ele>
        <time>2024-09-25T13:30:09Z</time>
      </trkpt>
      <trkpt lat="45.8221" lon="1.18266">
        <ele>324.7</ele>
        <time>2024-09-25T13:30:10Z</time>
      </trkpt>
      <trkpt lat="45.82206" lon="1.18272">
        <ele>324.4</ele>
        <time>2024-09-25T13:30:11Z</time>
      </trkpt>
      <trkpt lat="45.82205" lon="1.18278">
        <ele>324.2</ele>
        <time>2024-09-25T13:30:12Z</time>
      </trkpt>
      <trkpt lat="45.82204" lon="1.18284">
        <ele>324</ele>
        <time>2024-09-25T13:30:13Z</time>
      </trkpt>
      <trkpt lat="45.82203" lon="1.1829">
        <ele>323.8</ele>
        <time>2024-09-25T13:30:14Z</time>
      </trkpt>
      <trkpt lat="45.82199" lon="1.18295">
        <ele>323.5</ele>
        <time>2024-09-25T13:30:15Z</time>
      </trkpt>
      <trkpt lat="45.82192" lon="1.18304">
        <ele>322.9</ele>
        <time>2024-09-25T13:30:17Z</time>
      </trkpt>
      <trkpt lat="45.82189" lon="1.1831">
        <ele>322.5</ele>
        <time>2024-09-25T13:30:18Z</time>
      </trkpt>
      <trkpt lat="45.82186" lon="1.18317">
        <ele>322.2</ele>
        <time>2024-09-25T13:30:19Z</time>
      </trkpt>
      <trkpt lat="45.82182" lon="1.18322">
        <ele>321.8</ele>
        <time>2024-09-25T13:30:20Z</time>
      </trkpt>
      <trkpt lat="45.82179" lon="1.18328">
        <ele>321.5</ele>
        <time>2024-09-25T13:30:21Z</time>
      </trkpt>
      <trkpt lat="45.82177" lon="1.18332">
        <ele>321.3</ele>
        <time>2024-09-25T13:30:22Z</time>
      </trkpt>
      <trkpt lat="45.82178" lon="1.18338">
        <ele>321.1</ele>
        <time>2024-09-25T13:30:23Z</time>
      </trkpt>
      <trkpt lat="45.82178" lon="1.18344">
        <ele>320.9</ele>
        <time>2024-09-25T13:30:24Z</time>
      </trkpt>
      <trkpt lat="45.82178" lon="1.1835">
        <ele>320.7</ele>
        <time>2024-09-25T13:30:25Z</time>
      </trkpt>
      <trkpt lat="45.82176" lon="1.18354">
        <ele>320.6</ele>
        <time>2024-09-25T13:30:26Z</time>
      </trkpt>
      <trkpt lat="45.82174" lon="1.18359">
        <ele>320.4</ele>
        <time>2024-09-25T13:30:28Z</time>
      </trkpt>
      <trkpt lat="45.82172" lon="1.18363">
        <ele>320.3</ele>
        <time>2024-09-25T13:30:29Z</time>
      </trkpt>
      <trkpt lat="45.8217" lon="1.18368">
        <ele>320.2</ele>
        <time>2024-09-25T13:30:30Z</time>
      </trkpt>
      <trkpt lat="45.8217" lon="1.18373">
        <ele>320</ele>
        <time>2024-09-25T13:30:31Z</time>
      </trkpt>
      <trkpt lat="45.8217" lon="1.18379">
        <ele>319.9</ele>
        <time>2024-09-25T13:30:32Z</time>
      </trkpt>
      <trkpt lat="45.8217" lon="1.18384">
        <ele>319.8</ele>
        <time>2024-09-25T13:30:33Z</time>
      </trkpt>
      <trkpt lat="45.8217" lon="1.1839">
        <ele>319.7</ele>
        <time>2024-09-25T13:30:34Z</time>
      </trkpt>
      <trkpt lat="45.8217" lon="1.18396">
        <ele>319.7</ele>
        <time>2024-09-25T13:30:35Z</time>
      </trkpt>
      <trkpt lat="45.8217" lon="1.18402">
        <ele>319.6</ele>
        <time>2024-09-25T13:30:36Z</time>
      </trkpt>
      <trkpt lat="45.82169" lon="1.18409">
        <ele>319.6</ele>
        <time>2024-09-25T13:30:37Z</time>
      </trkpt>
      <trkpt lat="45.82168" lon="1.18416">
        <ele>319.5</ele>
        <time>2024-09-25T13:30:38Z</time>
      </trkpt>
      <trkpt lat="45.82167" lon="1.18422">
        <ele>319.5</ele>
        <time>2024-09-25T13:30:39Z</time>
      </trkpt>
      <trkpt lat="45.82165" lon="1.18429">
        <ele>319.4</ele>
        <time>2024-09-25T13:30:40Z</time>
      </trkpt>
      <trkpt lat="45.82164" lon="1.18435">
        <ele>319.3</ele>
        <time>2024-09-25T13:30:41Z</time>
      </trkpt>
      <trkpt lat="45.82164" lon="1.18441">
        <ele>319.2</ele>
        <time>2024-09-25T13:30:42Z</time>
      </trkpt>
      <trkpt lat="45.82165" lon="1.18447">
        <ele>319.1</ele>
        <time>2024-09-25T13:30:43Z</time>
      </trkpt>
      <trkpt lat="45.82165" lon="1.18453">
        <ele>319.1</ele>
        <time>2024-09-25T13:30:44Z</time>
      </trkpt>
      <trkpt lat="45.82165" lon="1.18459">
        <ele>319</ele>
        <time>2024-09-25T13:30:45Z</time>
      </trkpt>
      <trkpt lat="45.82166" lon="1.18465">
        <ele>318.9</ele>
        <time>2024-09-25T13:30:46Z</time>
      </trkpt>
      <trkpt lat="45.82167" lon="1.18472">
        <ele>318.8</ele>
        <time>2024-09-25T13:30:47Z</time>
      </trkpt>
      <trkpt lat="45.82171" lon="1.18483">
        <ele>318.7</ele>
        <time>2024-09-25T13:30:48Z</time>
      </trkpt>
      <trkpt lat="45.82174" lon="1.18494">
        <ele>318.5</ele>
        <time>2024-09-25T13:30:49Z</time>
      </trkpt>
      <trkpt lat="45.82176" lon="1.18503">
        <ele>318.4</ele>
        <time>2024-09-25T13:30:50Z</time>
      </trkpt>
      <trkpt lat="45.82177" lon="1.18512">
        <ele>318.3</ele>
        <time>2024-09-25T13:30:51Z</time>
      </trkpt>
      <trkpt lat="45.82178" lon="1.18519">
        <ele>318.1</ele>
        <time>2024-09-25T13:30:52Z</time>
      </trkpt>
      <trkpt lat="45.82179" lon="1.18526">
        <ele>318</ele>
        <time>2024-09-25T13:30:53Z</time>
      </trkpt>
      <trkpt lat="45.82178" lon="1.18533">
        <ele>317.9</ele>
        <time>2024-09-25T13:30:54Z</time>
      </trkpt>
      <trkpt lat="45.82178" lon="1.1854">
        <ele>317.8</ele>
        <time>2024-09-25T13:30:55Z</time>
      </trkpt>
      <trkpt lat="45.82179" lon="1.18548">
        <ele>317.7</ele>
        <time>2024-09-25T13:30:56Z</time>
      </trkpt>
      <trkpt lat="45.8218" lon="1.18556">
        <ele>317.6</ele>
        <time>2024-09-25T13:30:57Z</time>
      </trkpt>
      <trkpt lat="45.8218" lon="1.18564">
        <ele>317.4</ele>
        <time>2024-09-25T13:30:58Z</time>
      </trkpt>
      <trkpt lat="45.82181" lon="1.18573">
        <ele>317.3</ele>
        <time>2024-09-25T13:30:59Z</time>
      </trkpt>
      <trkpt lat="45.82182" lon="1.18582">
        <ele>317.2</ele>
        <time>2024-09-25T13:31:00Z</time>
      </trkpt>
      <trkpt lat="45.82184" lon="1.18591">
        <ele>317</ele>
        <time>2024-09-25T13:31:01Z</time>
      </trkpt>
      <trkpt lat="45.82185" lon="1.18599">
        <ele>316.8</ele>
        <time>2024-09-25T13:31:02Z</time>
      </trkpt>
      <trkpt lat="45.82187" lon="1.18609">
        <ele>316.6</ele>
        <time>2024-09-25T13:31:03Z</time>
      </trkpt>
      <trkpt lat="45.82189" lon="1.18618">
        <ele>316.4</ele>
        <time>2024-09-25T13:31:04Z</time>
      </trkpt>
      <trkpt lat="45.8219" lon="1.18627">
        <ele>316.1</ele>
        <time>2024-09-25T13:31:05Z</time>
      </trkpt>
      <trkpt lat="45.82192" lon="1.18636">
        <ele>315.8</ele>
        <time>2024-09-25T13:31:06Z</time>
      </trkpt>
      <trkpt lat="45.82194" lon="1.18645">
        <ele>315.6</ele>
        <time>2024-09-25T13:31:07Z</time>
      </trkpt>
      <trkpt lat="45.82194" lon="1.18654">
        <ele>315.3</ele>
        <time>2024-09-25T13:31:08Z</time>
      </trkpt>
      <trkpt lat="45.82196" lon="1.18663">
        <ele>315</ele>
        <time>2024-09-25T13:31:09Z</time>
      </trkpt>
      <trkpt lat="45.82197" lon="1.18671">
        <ele>314.8</ele>
        <time>2024-09-25T13:31:10Z</time>
      </trkpt>
      <trkpt lat="45.82196" lon="1.18679">
        <ele>314.6</ele>
        <time>2024-09-25T13:31:11Z</time>
      </trkpt>
      <trkpt lat="45.82196" lon="1.18687">
        <ele>314.4</ele>
        <time>2024-09-25T13:31:12Z</time>
      </trkpt>
      <trkpt lat="45.82197" lon="1.18694">
        <ele>314.1</ele>
        <time>2024-09-25T13:31:13Z</time>
      </trkpt>
      <trkpt lat="45.82198" lon="1.18702">
        <ele>313.8</ele>
        <time>2024-09-25T13:31:14Z</time>
      </trkpt>
      <trkpt lat="45.82201" lon="1.1871">
        <ele>313.5</ele>
        <time>2024-09-25T13:31:15Z</time>
      </trkpt>
      <trkpt lat="45.82203" lon="1.18718">
        <ele>313</ele>
        <time>2024-09-25T13:31:16Z</time>
      </trkpt>
      <trkpt lat="45.82206" lon="1.18726">
        <ele>312.6</ele>
        <time>2024-09-25T13:31:17Z</time>
      </trkpt>
      <trkpt lat="45.82208" lon="1.18734">
        <ele>312.1</ele>
        <time>2024-09-25T13:31:18Z</time>
      </trkpt>
      <trkpt lat="45.82211" lon="1.18744">
        <ele>311.5</ele>
        <time>2024-09-25T13:31:19Z</time>
      </trkpt>
      <trkpt lat="45.82213" lon="1.18752">
        <ele>311.1</ele>
        <time>2024-09-25T13:31:20Z</time>
      </trkpt>
      <trkpt lat="45.82214" lon="1.18759">
        <ele>310.7</ele>
        <time>2024-09-25T13:31:21Z</time>
      </trkpt>
      <trkpt lat="45.82217" lon="1.18767">
        <ele>310.2</ele>
        <time>2024-09-25T13:31:22Z</time>
      </trkpt>
      <trkpt lat="45.82219" lon="1.18773">
        <ele>309.9</ele>
        <time>2024-09-25T13:31:23Z</time>
      </trkpt>
      <trkpt lat="45.8222" lon="1.18781">
        <ele>309.5</ele>
        <time>2024-09-25T13:31:24Z</time>
      </trkpt>
      <trkpt lat="45.82221" lon="1.18786">
        <ele>309.2</ele>
        <time>2024-09-25T13:31:25Z</time>
      </trkpt>
      <trkpt lat="45.82219" lon="1.18792">
        <ele>308.8</ele>
        <time>2024-09-25T13:31:26Z</time>
      </trkpt>
      <trkpt lat="45.82215" lon="1.18796">
        <ele>308.5</ele>
        <time>2024-09-25T13:31:28Z</time>
      </trkpt>
      <trkpt lat="45.82211" lon="1.18798">
        <ele>308.5</ele>
        <time>2024-09-25T13:31:30Z</time>
      </trkpt>
      <trkpt lat="45.82207" lon="1.18798">
        <ele>308.7</ele>
        <time>2024-09-25T13:31:31Z</time>
      </trkpt>
      <trkpt lat="45.82204" lon="1.18797">
        <ele>308.8</ele>
        <time>2024-09-25T13:31:32Z</time>
      </trkpt>
      <trkpt lat="45.822" lon="1.18797">
        <ele>309</ele>
        <time>2024-09-25T13:31:33Z</time>
      </trkpt>
      <trkpt lat="45.82196" lon="1.18796">
        <ele>309.2</ele>
        <time>2024-09-25T13:31:34Z</time>
      </trkpt>
      <trkpt lat="45.82193" lon="1.18796">
        <ele>309.3</ele>
        <time>2024-09-25T13:31:35Z</time>
      </trkpt>
      <trkpt lat="45.82189" lon="1.18795">
        <ele>309.5</ele>
        <time>2024-09-25T13:31:36Z</time>
      </trkpt>
      <trkpt lat="45.82185" lon="1.18794">
        <ele>309.7</ele>
        <time>2024-09-25T13:31:37Z</time>
      </trkpt>
      <trkpt lat="45.82181" lon="1.18793">
        <ele>309.9</ele>
        <time>2024-09-25T13:31:38Z</time>
      </trkpt>
      <trkpt lat="45.82177" lon="1.18792">
        <ele>310.1</ele>
        <time>2024-09-25T13:31:39Z</time>
      </trkpt>
      <trkpt lat="45.82173" lon="1.18791">
        <ele>310.2</ele>
        <time>2024-09-25T13:31:40Z</time>
      </trkpt>
      <trkpt lat="45.82169" lon="1.1879">
        <ele>310.4</ele>
        <time>2024-09-25T13:31:41Z</time>
      </trkpt>
      <trkpt lat="45.82165" lon="1.18789">
        <ele>310.5</ele>
        <time>2024-09-25T13:31:42Z</time>
      </trkpt>
      <trkpt lat="45.82161" lon="1.18788">
        <ele>310.5</ele>
        <time>2024-09-25T13:31:43Z</time>
      </trkpt>
      <trkpt lat="45.82156" lon="1.18787">
        <ele>310.5</ele>
        <time>2024-09-25T13:31:44Z</time>
      </trkpt>
      <trkpt lat="45.82152" lon="1.18786">
        <ele>310.5</ele>
        <time>2024-09-25T13:31:45Z</time>
      </trkpt>
      <trkpt lat="45.82148" lon="1.18785">
        <ele>310.4</ele>
        <time>2024-09-25T13:31:46Z</time>
      </trkpt>
      <trkpt lat="45.82145" lon="1.18784">
        <ele>310.4</ele>
        <time>2024-09-25T13:31:47Z</time>
      </trkpt>
      <trkpt lat="45.82141" lon="1.18782">
        <ele>310.3</ele>
        <time>2024-09-25T13:31:48Z</time>
      </trkpt>
      <trkpt lat="45.82137" lon="1.18781">
        <ele>310.1</ele>
        <time>2024-09-25T13:31:49Z</time>
      </trkpt>
      <trkpt lat="45.82132" lon="1.18779">
        <ele>309.9</ele>
        <time>2024-09-25T13:31:50Z</time>
      </trkpt>
      <trkpt lat="45.82128" lon="1.18778">
        <ele>309.7</ele>
        <time>2024-09-25T13:31:51Z</time>
      </trkpt>
      <trkpt lat="45.82123" lon="1.18776">
        <ele>309.4</ele>
        <time>2024-09-25T13:31:52Z</time>
      </trkpt>
      <trkpt lat="45.82119" lon="1.18774">
        <ele>309.2</ele>
        <time>2024-09-25T13:31:53Z</time>
      </trkpt>
      <trkpt lat="45.82114" lon="1.18771">
        <ele>308.8</ele>
        <time>2024-09-25T13:31:54Z</time>
      </trkpt>
      <trkpt lat="45.82108" lon="1.18768">
        <ele>308.4</ele>
        <time>2024-09-25T13:31:55Z</time>
      </trkpt>
      <trkpt lat="45.82103" lon="1.18764">
        <ele>308</ele>
        <time>2024-09-25T13:31:56Z</time>
      </trkpt>
      <trkpt lat="45.82097" lon="1.18763">
        <ele>307.6</ele>
        <time>2024-09-25T13:31:57Z</time>
      </trkpt>
      <trkpt lat="45.82091" lon="1.18761">
        <ele>307.2</ele>
        <time>2024-09-25T13:31:58Z</time>
      </trkpt>
      <trkpt lat="45.82085" lon="1.18761">
        <ele>306.8</ele>
        <time>2024-09-25T13:31:59Z</time>
      </trkpt>
      <trkpt lat="45.82079" lon="1.1876">
        <ele>306.3</ele>
        <time>2024-09-25T13:32:00Z</time>
      </trkpt>
      <trkpt lat="45.82073" lon="1.18761">
        <ele>305.9</ele>
        <time>2024-09-25T13:32:01Z</time>
      </trkpt>
      <trkpt lat="45.82066" lon="1.18761">
        <ele>305.4</ele>
        <time>2024-09-25T13:32:02Z</time>
      </trkpt>
      <trkpt lat="45.82059" lon="1.18763">
        <ele>304.9</ele>
        <time>2024-09-25T13:32:03Z</time>
      </trkpt>
      <trkpt lat="45.82052" lon="1.18764">
        <ele>304.4</ele>
        <time>2024-09-25T13:32:04Z</time>
      </trkpt>
      <trkpt lat="45.82046" lon="1.18765">
        <ele>303.9</ele>
        <time>2024-09-25T13:32:05Z</time>
      </trkpt>
      <trkpt lat="45.82039" lon="1.18767">
        <ele>303.4</ele>
        <time>2024-09-25T13:32:06Z</time>
      </trkpt>
      <trkpt lat="45.82032" lon="1.1877">
        <ele>302.9</ele>
        <time>2024-09-25T13:32:07Z</time>
      </trkpt>
      <trkpt lat="45.82025" lon="1.18772">
        <ele>302.3</ele>
        <time>2024-09-25T13:32:08Z</time>
      </trkpt>
      <trkpt lat="45.82018" lon="1.18774">
        <ele>301.7</ele>
        <time>2024-09-25T13:32:09Z</time>
      </trkpt>
      <trkpt lat="45.82012" lon="1.18776">
        <ele>301.2</ele>
        <time>2024-09-25T13:32:10Z</time>
      </trkpt>
      <trkpt lat="45.82005" lon="1.18778">
        <ele>300.7</ele>
        <time>2024-09-25T13:32:11Z</time>
      </trkpt>
      <trkpt lat="45.81999" lon="1.18781">
        <ele>300.2</ele>
        <time>2024-09-25T13:32:12Z</time>
      </trkpt>
      <trkpt lat="45.81992" lon="1.18782">
        <ele>299.6</ele>
        <time>2024-09-25T13:32:13Z</time>
      </trkpt>
      <trkpt lat="45.81985" lon="1.18784">
        <ele>299</ele>
        <time>2024-09-25T13:32:14Z</time>
      </trkpt>
      <trkpt lat="45.81978" lon="1.18786">
        <ele>298.3</ele>
        <time>2024-09-25T13:32:15Z</time>
      </trkpt>
      <trkpt lat="45.81971" lon="1.18788">
        <ele>297.7</ele>
        <time>2024-09-25T13:32:16Z</time>
      </trkpt>
      <trkpt lat="45.81964" lon="1.18789">
        <ele>297.2</ele>
        <time>2024-09-25T13:32:17Z</time>
      </trkpt>
      <trkpt lat="45.81957" lon="1.18788">
        <ele>296.6</ele>
        <time>2024-09-25T13:32:18Z</time>
      </trkpt>
      <trkpt lat="45.81949" lon="1.18786">
        <ele>296</ele>
        <time>2024-09-25T13:32:19Z</time>
      </trkpt>
      <trkpt lat="45.81942" lon="1.18783">
        <ele>295.4</ele>
        <time>2024-09-25T13:32:20Z</time>
      </trkpt>
      <trkpt lat="45.81935" lon="1.1878">
        <ele>294.9</ele>
        <time>2024-09-25T13:32:21Z</time>
      </trkpt>
      <trkpt lat="45.8193" lon="1.18777">
        <ele>294.5</ele>
        <time>2024-09-25T13:32:22Z</time>
      </trkpt>
      <trkpt lat="45.81924" lon="1.18774">
        <ele>294.1</ele>
        <time>2024-09-25T13:32:23Z</time>
      </trkpt>
      <trkpt lat="45.81919" lon="1.1877">
        <ele>293.8</ele>
        <time>2024-09-25T13:32:24Z</time>
      </trkpt>
      <trkpt lat="45.81915" lon="1.18766">
        <ele>293.6</ele>
        <time>2024-09-25T13:32:25Z</time>
      </trkpt>
      <trkpt lat="45.81912" lon="1.18764">
        <ele>293.5</ele>
        <time>2024-09-25T13:32:26Z</time>
      </trkpt>
      <trkpt lat="45.81909" lon="1.18763">
        <ele>293.4</ele>
        <time>2024-09-25T13:32:28Z</time>
      </trkpt>
      <trkpt lat="45.81906" lon="1.18763">
        <ele>293.3</ele>
        <time>2024-09-25T13:32:33Z</time>
      </trkpt>
      <trkpt lat="45.81901" lon="1.18763">
        <ele>293.2</ele>
        <time>2024-09-25T13:32:35Z</time>
      </trkpt>
      <trkpt lat="45.81897" lon="1.18763">
        <ele>293.1</ele>
        <time>2024-09-25T13:32:36Z</time>
      </trkpt>
      <trkpt lat="45.81893" lon="1.18763">
        <ele>293</ele>
        <time>2024-09-25T13:32:37Z</time>
      </trkpt>
      <trkpt lat="45.8189" lon="1.18763">
        <ele>292.9</ele>
        <time>2024-09-25T13:32:38Z</time>
      </trkpt>
      <trkpt lat="45.81886" lon="1.18764">
        <ele>292.7</ele>
        <time>2024-09-25T13:32:39Z</time>
      </trkpt>
      <trkpt lat="45.81882" lon="1.18766">
        <ele>292.6</ele>
        <time>2024-09-25T13:32:40Z</time>
      </trkpt>
      <trkpt lat="45.81878" lon="1.18767">
        <ele>292.5</ele>
        <time>2024-09-25T13:32:41Z</time>
      </trkpt>
      <trkpt lat="45.81874" lon="1.18769">
        <ele>292.3</ele>
        <time>2024-09-25T13:32:42Z</time>
      </trkpt>
      <trkpt lat="45.8187" lon="1.1877">
        <ele>292.2</ele>
        <time>2024-09-25T13:32:43Z</time>
      </trkpt>
      <trkpt lat="45.81866" lon="1.18771">
        <ele>292.1</ele>
        <time>2024-09-25T13:32:44Z</time>
      </trkpt>
      <trkpt lat="45.81863" lon="1.18773">
        <ele>291.9</ele>
        <time>2024-09-25T13:32:45Z</time>
      </trkpt>
      <trkpt lat="45.81859" lon="1.18775">
        <ele>291.8</ele>
        <time>2024-09-25T13:32:46Z</time>
      </trkpt>
      <trkpt lat="45.81855" lon="1.18776">
        <ele>291.6</ele>
        <time>2024-09-25T13:32:47Z</time>
      </trkpt>
      <trkpt lat="45.81851" lon="1.18777">
        <ele>291.5</ele>
        <time>2024-09-25T13:32:48Z</time>
      </trkpt>
      <trkpt lat="45.81847" lon="1.18778">
        <ele>291.3</ele>
        <time>2024-09-25T13:32:49Z</time>
      </trkpt>
      <trkpt lat="45.81842" lon="1.18779">
        <ele>291.1</ele>
        <time>2024-09-25T13:32:50Z</time>
      </trkpt>
      <trkpt lat="45.81837" lon="1.1878">
        <ele>290.8</ele>
        <time>2024-09-25T13:32:51Z</time>
      </trkpt>
      <trkpt lat="45.81832" lon="1.18781">
        <ele>290.5</ele>
        <time>2024-09-25T13:32:52Z</time>
      </trkpt>
      <trkpt lat="45.81826" lon="1.18782">
        <ele>290.1</ele>
        <time>2024-09-25T13:32:53Z</time>
      </trkpt>
      <trkpt lat="45.8182" lon="1.18784">
        <ele>289.7</ele>
        <time>2024-09-25T13:32:54Z</time>
      </trkpt>
      <trkpt lat="45.81815" lon="1.18787">
        <ele>289.4</ele>
        <time>2024-09-25T13:32:55Z</time>
      </trkpt>
      <trkpt lat="45.81809" lon="1.18789">
        <ele>289</ele>
        <time>2024-09-25T13:32:56Z</time>
      </trkpt>
      <trkpt lat="45.81803" lon="1.18791">
        <ele>288.5</ele>
        <time>2024-09-25T13:32:57Z</time>
      </trkpt>
      <trkpt lat="45.81796" lon="1.18793">
        <ele>288.1</ele>
        <time>2024-09-25T13:32:58Z</time>
      </trkpt>
      <trkpt lat="45.8179" lon="1.18795">
        <ele>287.7</ele>
        <time>2024-09-25T13:32:59Z</time>
      </trkpt>
      <trkpt lat="45.81784" lon="1.18796">
        <ele>287.4</ele>
        <time>2024-09-25T13:33:00Z</time>
      </trkpt>
      <trkpt lat="45.81777" lon="1.18797">
        <ele>287</ele>
        <time>2024-09-25T13:33:01Z</time>
      </trkpt>
      <trkpt lat="45.81771" lon="1.18799">
        <ele>286.7</ele>
        <time>2024-09-25T13:33:02Z</time>
      </trkpt>
      <trkpt lat="45.81766" lon="1.18802">
        <ele>286.5</ele>
        <time>2024-09-25T13:33:03Z</time>
      </trkpt>
      <trkpt lat="45.8176" lon="1.18804">
        <ele>286.2</ele>
        <time>2024-09-25T13:33:04Z</time>
      </trkpt>
      <trkpt lat="45.81754" lon="1.18806">
        <ele>285.9</ele>
        <time>2024-09-25T13:33:05Z</time>
      </trkpt>
      <trkpt lat="45.81747" lon="1.18808">
        <ele>285.6</ele>
        <time>2024-09-25T13:33:06Z</time>
      </trkpt>
      <trkpt lat="45.81741" lon="1.18809">
        <ele>285.4</ele>
        <time>2024-09-25T13:33:07Z</time>
      </trkpt>
      <trkpt lat="45.81735" lon="1.18811">
        <ele>285.2</ele>
        <time>2024-09-25T13:33:08Z</time>
      </trkpt>
      <trkpt lat="45.8173" lon="1.18813">
        <ele>285</ele>
        <time>2024-09-25T13:33:09Z</time>
      </trkpt>
      <trkpt lat="45.81724" lon="1.18815">
        <ele>284.9</ele>
        <time>2024-09-25T13:33:10Z</time>
      </trkpt>
      <trkpt lat="45.81719" lon="1.18817">
        <ele>284.7</ele>
        <time>2024-09-25T13:33:11Z</time>
      </trkpt>
      <trkpt lat="45.81713" lon="1.18819">
        <ele>284.6</ele>
        <time>2024-09-25T13:33:12Z</time>
      </trkpt>
      <trkpt lat="45.81708" lon="1.1882">
        <ele>284.5</ele>
        <time>2024-09-25T13:33:13Z</time>
      </trkpt>
      <trkpt lat="45.81703" lon="1.18822">
        <ele>284.4</ele>
        <time>2024-09-25T13:33:14Z</time>
      </trkpt>
      <trkpt lat="45.81698" lon="1.18823">
        <ele>284.3</ele>
        <time>2024-09-25T13:33:15Z</time>
      </trkpt>
      <trkpt lat="45.81693" lon="1.18825">
        <ele>284.2</ele>
        <time>2024-09-25T13:33:16Z</time>
      </trkpt>
      <trkpt lat="45.81688" lon="1.18826">
        <ele>284.1</ele>
        <time>2024-09-25T13:33:17Z</time>
      </trkpt>
      <trkpt lat="45.81683" lon="1.18826">
        <ele>283.9</ele>
        <time>2024-09-25T13:33:18Z</time>
      </trkpt>
      <trkpt lat="45.81677" lon="1.18828">
        <ele>283.8</ele>
        <time>2024-09-25T13:33:19Z</time>
      </trkpt>
      <trkpt lat="45.81672" lon="1.1883">
        <ele>283.7</ele>
        <time>2024-09-25T13:33:20Z</time>
      </trkpt>
      <trkpt lat="45.81668" lon="1.18831">
        <ele>283.6</ele>
        <time>2024-09-25T13:33:21Z</time>
      </trkpt>
      <trkpt lat="45.81663" lon="1.18833">
        <ele>283.5</ele>
        <time>2024-09-25T13:33:22Z</time>
      </trkpt>
      <trkpt lat="45.81658" lon="1.18835">
        <ele>283.4</ele>
        <time>2024-09-25T13:33:23Z</time>
      </trkpt>
      <trkpt lat="45.81654" lon="1.18836">
        <ele>283.3</ele>
        <time>2024-09-25T13:33:24Z</time>
      </trkpt>
      <trkpt lat="45.81649" lon="1.18837">
        <ele>283.2</ele>
        <time>2024-09-25T13:33:25Z</time>
      </trkpt>
      <trkpt lat="45.81645" lon="1.18836">
        <ele>283.1</ele>
        <time>2024-09-25T13:33:26Z</time>
      </trkpt>
      <trkpt lat="45.81641" lon="1.18834">
        <ele>283.1</ele>
        <time>2024-09-25T13:33:27Z</time>
      </trkpt>
      <trkpt lat="45.81637" lon="1.18831">
        <ele>283.2</ele>
        <time>2024-09-25T13:33:28Z</time>
      </trkpt>
      <trkpt lat="45.81634" lon="1.18827">
        <ele>283.2</ele>
        <time>2024-09-25T13:33:29Z</time>
      </trkpt>
      <trkpt lat="45.81631" lon="1.18823">
        <ele>283.2</ele>
        <time>2024-09-25T13:33:30Z</time>
      </trkpt>
      <trkpt lat="45.81628" lon="1.18817">
        <ele>283.1</ele>
        <time>2024-09-25T13:33:31Z</time>
      </trkpt>
      <trkpt lat="45.81626" lon="1.18811">
        <ele>283</ele>
        <time>2024-09-25T13:33:32Z</time>
      </trkpt>
      <trkpt lat="45.81624" lon="1.18805">
        <ele>283</ele>
        <time>2024-09-25T13:33:33Z</time>
      </trkpt>
      <trkpt lat="45.81622" lon="1.18799">
        <ele>282.9</ele>
        <time>2024-09-25T13:33:34Z</time>
      </trkpt>
      <trkpt lat="45.8162" lon="1.18792">
        <ele>282.8</ele>
        <time>2024-09-25T13:33:35Z</time>
      </trkpt>
      <trkpt lat="45.81618" lon="1.18784">
        <ele>282.7</ele>
        <time>2024-09-25T13:33:36Z</time>
      </trkpt>
      <trkpt lat="45.81617" lon="1.18776">
        <ele>282.6</ele>
        <time>2024-09-25T13:33:37Z</time>
      </trkpt>
      <trkpt lat="45.81615" lon="1.18769">
        <ele>282.5</ele>
        <time>2024-09-25T13:33:38Z</time>
      </trkpt>
      <trkpt lat="45.81613" lon="1.18761">
        <ele>282.3</ele>
        <time>2024-09-25T13:33:39Z</time>
      </trkpt>
      <trkpt lat="45.81612" lon="1.18753">
        <ele>282.2</ele>
        <time>2024-09-25T13:33:40Z</time>
      </trkpt>
      <trkpt lat="45.8161" lon="1.18746">
        <ele>282.1</ele>
        <time>2024-09-25T13:33:41Z</time>
      </trkpt>
      <trkpt lat="45.81608" lon="1.18738">
        <ele>281.9</ele>
        <time>2024-09-25T13:33:42Z</time>
      </trkpt>
      <trkpt lat="45.81606" lon="1.18731">
        <ele>281.8</ele>
        <time>2024-09-25T13:33:43Z</time>
      </trkpt>
      <trkpt lat="45.81605" lon="1.18723">
        <ele>281.6</ele>
        <time>2024-09-25T13:33:44Z</time>
      </trkpt>
      <trkpt lat="45.81603" lon="1.18715">
        <ele>281.4</ele>
        <time>2024-09-25T13:33:45Z</time>
      </trkpt>
      <trkpt lat="45.81601" lon="1.18707">
        <ele>281.3</ele>
        <time>2024-09-25T13:33:46Z</time>
      </trkpt>
      <trkpt lat="45.81599" lon="1.187">
        <ele>281.1</ele>
        <time>2024-09-25T13:33:47Z</time>
      </trkpt>
      <trkpt lat="45.81597" lon="1.18691">
        <ele>280.9</ele>
        <time>2024-09-25T13:33:48Z</time>
      </trkpt>
      <trkpt lat="45.81595" lon="1.18683">
        <ele>280.7</ele>
        <time>2024-09-25T13:33:49Z</time>
      </trkpt>
      <trkpt lat="45.81594" lon="1.18676">
        <ele>280.6</ele>
        <time>2024-09-25T13:33:50Z</time>
      </trkpt>
      <trkpt lat="45.81592" lon="1.18668">
        <ele>280.4</ele>
        <time>2024-09-25T13:33:51Z</time>
      </trkpt>
      <trkpt lat="45.8159" lon="1.18661">
        <ele>280.2</ele>
        <time>2024-09-25T13:33:52Z</time>
      </trkpt>
      <trkpt lat="45.81588" lon="1.18653">
        <ele>280</ele>
        <time>2024-09-25T13:33:53Z</time>
      </trkpt>
      <trkpt lat="45.81586" lon="1.18645">
        <ele>279.8</ele>
        <time>2024-09-25T13:33:54Z</time>
      </trkpt>
      <trkpt lat="45.81585" lon="1.18637">
        <ele>279.7</ele>
        <time>2024-09-25T13:33:55Z</time>
      </trkpt>
      <trkpt lat="45.81583" lon="1.18628">
        <ele>279.4</ele>
        <time>2024-09-25T13:33:56Z</time>
      </trkpt>
      <trkpt lat="45.81582" lon="1.1862">
        <ele>279.2</ele>
        <time>2024-09-25T13:33:57Z</time>
      </trkpt>
      <trkpt lat="45.8158" lon="1.18612">
        <ele>279</ele>
        <time>2024-09-25T13:33:58Z</time>
      </trkpt>
      <trkpt lat="45.81579" lon="1.18604">
        <ele>278.8</ele>
        <time>2024-09-25T13:33:59Z</time>
      </trkpt>
      <trkpt lat="45.81576" lon="1.18595">
        <ele>278.6</ele>
        <time>2024-09-25T13:34:00Z</time>
      </trkpt>
      <trkpt lat="45.81574" lon="1.18586">
        <ele>278.4</ele>
        <time>2024-09-25T13:34:01Z</time>
      </trkpt>
      <trkpt lat="45.81572" lon="1.18578">
        <ele>278.2</ele>
        <time>2024-09-25T13:34:02Z</time>
      </trkpt>
      <trkpt lat="45.8157" lon="1.18571">
        <ele>278</ele>
        <time>2024-09-25T13:34:03Z</time>
      </trkpt>
      <trkpt lat="45.81568" lon="1.18563">
        <ele>277.8</ele>
        <time>2024-09-25T13:34:04Z</time>
      </trkpt>
      <trkpt lat="45.81566" lon="1.18555">
        <ele>277.6</ele>
        <time>2024-09-25T13:34:05Z</time>
      </trkpt>
      <trkpt lat="45.81565" lon="1.18547">
        <ele>277.3</ele>
        <time>2024-09-25T13:34:06Z</time>
      </trkpt>
      <trkpt lat="45.81563" lon="1.1854">
        <ele>277.1</ele>
        <time>2024-09-25T13:34:07Z</time>
      </trkpt>
      <trkpt lat="45.8156" lon="1.18532">
        <ele>276.7</ele>
        <time>2024-09-25T13:34:08Z</time>
      </trkpt>
      <trkpt lat="45.81558" lon="1.18525">
        <ele>276.5</ele>
        <time>2024-09-25T13:34:09Z</time>
      </trkpt>
      <trkpt lat="45.81554" lon="1.18518">
        <ele>276.1</ele>
        <time>2024-09-25T13:34:10Z</time>
      </trkpt>
      <trkpt lat="45.8155" lon="1.18511">
        <ele>275.8</ele>
        <time>2024-09-25T13:34:11Z</time>
      </trkpt>
      <trkpt lat="45.81545" lon="1.18505">
        <ele>275.5</ele>
        <time>2024-09-25T13:34:12Z</time>
      </trkpt>
      <trkpt lat="45.81539" lon="1.18501">
        <ele>275.1</ele>
        <time>2024-09-25T13:34:13Z</time>
      </trkpt>
      <trkpt lat="45.81533" lon="1.18497">
        <ele>274.8</ele>
        <time>2024-09-25T13:34:14Z</time>
      </trkpt>
      <trkpt lat="45.81526" lon="1.18493">
        <ele>274.4</ele>
        <time>2024-09-25T13:34:15Z</time>
      </trkpt>
      <trkpt lat="45.81519" lon="1.18489">
        <ele>273.9</ele>
        <time>2024-09-25T13:34:16Z</time>
      </trkpt>
      <trkpt lat="45.81512" lon="1.18483">
        <ele>273.4</ele>
        <time>2024-09-25T13:34:17Z</time>
      </trkpt>
      <trkpt lat="45.81505" lon="1.18476">
        <ele>272.9</ele>
        <time>2024-09-25T13:34:18Z</time>
      </trkpt>
      <trkpt lat="45.81499" lon="1.18468">
        <ele>272.4</ele>
        <time>2024-09-25T13:34:19Z</time>
      </trkpt>
      <trkpt lat="45.81493" lon="1.1846">
        <ele>271.8</ele>
        <time>2024-09-25T13:34:20Z</time>
      </trkpt>
      <trkpt lat="45.81486" lon="1.18451">
        <ele>271.3</ele>
        <time>2024-09-25T13:34:21Z</time>
      </trkpt>
      <trkpt lat="45.8148" lon="1.18443">
        <ele>270.9</ele>
        <time>2024-09-25T13:34:22Z</time>
      </trkpt>
      <trkpt lat="45.81474" lon="1.18434">
        <ele>270.5</ele>
        <time>2024-09-25T13:34:23Z</time>
      </trkpt>
      <trkpt lat="45.81467" lon="1.18425">
        <ele>270.2</ele>
        <time>2024-09-25T13:34:24Z</time>
      </trkpt>
      <trkpt lat="45.81462" lon="1.18416">
        <ele>270</ele>
        <time>2024-09-25T13:34:25Z</time>
      </trkpt>
      <trkpt lat="45.81456" lon="1.18407">
        <ele>269.9</ele>
        <time>2024-09-25T13:34:26Z</time>
      </trkpt>
      <trkpt lat="45.8145" lon="1.184">
        <ele>270</ele>
        <time>2024-09-25T13:34:27Z</time>
      </trkpt>
      <trkpt lat="45.81444" lon="1.18394">
        <ele>270.2</ele>
        <time>2024-09-25T13:34:28Z</time>
      </trkpt>
      <trkpt lat="45.81439" lon="1.1839">
        <ele>270.4</ele>
        <time>2024-09-25T13:34:29Z</time>
      </trkpt>
      <trkpt lat="45.81433" lon="1.18386">
        <ele>270.7</ele>
        <time>2024-09-25T13:34:30Z</time>
      </trkpt>
      <trkpt lat="45.8143" lon="1.18384">
        <ele>271</ele>
        <time>2024-09-25T13:34:31Z</time>
      </trkpt>
      <trkpt lat="45.81426" lon="1.18383">
        <ele>271.2</ele>
        <time>2024-09-25T13:34:32Z</time>
      </trkpt>
      <trkpt lat="45.81423" lon="1.18381">
        <ele>271.5</ele>
        <time>2024-09-25T13:34:33Z</time>
      </trkpt>
      <trkpt lat="45.81419" lon="1.1838">
        <ele>271.8</ele>
        <time>2024-09-25T13:34:34Z</time>
      </trkpt>
      <trkpt lat="45.81415" lon="1.18379">
        <ele>272.1</ele>
        <time>2024-09-25T13:34:35Z</time>
      </trkpt>
      <trkpt lat="45.81411" lon="1.18379">
        <ele>272.4</ele>
        <time>2024-09-25T13:34:36Z</time>
      </trkpt>
      <trkpt lat="45.81407" lon="1.18379">
        <ele>272.7</ele>
        <time>2024-09-25T13:34:37Z</time>
      </trkpt>
      <trkpt lat="45.81403" lon="1.18379">
        <ele>273.1</ele>
        <time>2024-09-25T13:34:38Z</time>
      </trkpt>
      <trkpt lat="45.81399" lon="1.1838">
        <ele>273.4</ele>
        <time>2024-09-25T13:34:39Z</time>
      </trkpt>
      <trkpt lat="45.81395" lon="1.18381">
        <ele>273.7</ele>
        <time>2024-09-25T13:34:40Z</time>
      </trkpt>
      <trkpt lat="45.81391" lon="1.18381">
        <ele>274</ele>
        <time>2024-09-25T13:34:41Z</time>
      </trkpt>
      <trkpt lat="45.81388" lon="1.18382">
        <ele>274.2</ele>
        <time>2024-09-25T13:34:42Z</time>
      </trkpt>
      <trkpt lat="45.81384" lon="1.18384">
        <ele>274.5</ele>
        <time>2024-09-25T13:34:43Z</time>
      </trkpt>
      <trkpt lat="45.8138" lon="1.18386">
        <ele>274.5</ele>
        <time>2024-09-25T13:34:44Z</time>
      </trkpt>
      <trkpt lat="45.81376" lon="1.18388">
        <ele>274.6</ele>
        <time>2024-09-25T13:34:45Z</time>
      </trkpt>
      <trkpt lat="45.81371" lon="1.18391">
        <ele>274.6</ele>
        <time>2024-09-25T13:34:46Z</time>
      </trkpt>
      <trkpt lat="45.81367" lon="1.18394">
        <ele>274.6</ele>
        <time>2024-09-25T13:34:47Z</time>
      </trkpt>
      <trkpt lat="45.81363" lon="1.18398">
        <ele>274.6</ele>
        <time>2024-09-25T13:34:48Z</time>
      </trkpt>
      <trkpt lat="45.81359" lon="1.18401">
        <ele>274.6</ele>
        <time>2024-09-25T13:34:49Z</time>
      </trkpt>
      <trkpt lat="45.81353" lon="1.18404">
        <ele>274.5</ele>
        <time>2024-09-25T13:34:50Z</time>
      </trkpt>
      <trkpt lat="45.81348" lon="1.18407">
        <ele>274.3</ele>
        <time>2024-09-25T13:34:51Z</time>
      </trkpt>
      <trkpt lat="45.81342" lon="1.18409">
        <ele>274.1</ele>
        <time>2024-09-25T13:34:52Z</time>
      </trkpt>
      <trkpt lat="45.81336" lon="1.18412">
        <ele>273.8</ele>
        <time>2024-09-25T13:34:53Z</time>
      </trkpt>
      <trkpt lat="45.8133" lon="1.18415">
        <ele>273.5</ele>
        <time>2024-09-25T13:34:54Z</time>
      </trkpt>
      <trkpt lat="45.81324" lon="1.18418">
        <ele>273.1</ele>
        <time>2024-09-25T13:34:55Z</time>
      </trkpt>
      <trkpt lat="45.81318" lon="1.18421">
        <ele>272.8</ele>
        <time>2024-09-25T13:34:56Z</time>
      </trkpt>
      <trkpt lat="45.81313" lon="1.18424">
        <ele>272.5</ele>
        <time>2024-09-25T13:34:57Z</time>
      </trkpt>
      <trkpt lat="45.81307" lon="1.18427">
        <ele>272.2</ele>
        <time>2024-09-25T13:34:58Z</time>
      </trkpt>
      <trkpt lat="45.81301" lon="1.18429">
        <ele>272</ele>
        <time>2024-09-25T13:34:59Z</time>
      </trkpt>
      <trkpt lat="45.81294" lon="1.1843">
        <ele>271.8</ele>
        <time>2024-09-25T13:35:00Z</time>
      </trkpt>
      <trkpt lat="45.81287" lon="1.18431">
        <ele>271.7</ele>
        <time>2024-09-25T13:35:01Z</time>
      </trkpt>
      <trkpt lat="45.81281" lon="1.18431">
        <ele>271.7</ele>
        <time>2024-09-25T13:35:02Z</time>
      </trkpt>
      <trkpt lat="45.81274" lon="1.18431">
        <ele>271.8</ele>
        <time>2024-09-25T13:35:03Z</time>
      </trkpt>
      <trkpt lat="45.81268" lon="1.1843">
        <ele>271.8</ele>
        <time>2024-09-25T13:35:04Z</time>
      </trkpt>
      <trkpt lat="45.81263" lon="1.1843">
        <ele>271.8</ele>
        <time>2024-09-25T13:35:05Z</time>
      </trkpt>
      <trkpt lat="45.81257" lon="1.18429">
        <ele>271.8</ele>
        <time>2024-09-25T13:35:06Z</time>
      </trkpt>
      <trkpt lat="45.81252" lon="1.18429">
        <ele>271.9</ele>
        <time>2024-09-25T13:35:07Z</time>
      </trkpt>
      <trkpt lat="45.81247" lon="1.18429">
        <ele>272</ele>
        <time>2024-09-25T13:35:08Z</time>
      </trkpt>
      <trkpt lat="45.81243" lon="1.18429">
        <ele>272.1</ele>
        <time>2024-09-25T13:35:09Z</time>
      </trkpt>
      <trkpt lat="45.81239" lon="1.18429">
        <ele>272.2</ele>
        <time>2024-09-25T13:35:10Z</time>
      </trkpt>
      <trkpt lat="45.81234" lon="1.18428">
        <ele>272.3</ele>
        <time>2024-09-25T13:35:11Z</time>
      </trkpt>
      <trkpt lat="45.8123" lon="1.18429">
        <ele>272.4</ele>
        <time>2024-09-25T13:35:12Z</time>
      </trkpt>
      <trkpt lat="45.81225" lon="1.18428">
        <ele>272.5</ele>
        <time>2024-09-25T13:35:13Z</time>
      </trkpt>
      <trkpt lat="45.81221" lon="1.18426">
        <ele>272.6</ele>
        <time>2024-09-25T13:35:14Z</time>
      </trkpt>
      <trkpt lat="45.81218" lon="1.18423">
        <ele>272.7</ele>
        <time>2024-09-25T13:35:15Z</time>
      </trkpt>
      <trkpt lat="45.81216" lon="1.18418">
        <ele>272.8</ele>
        <time>2024-09-25T13:35:16Z</time>
      </trkpt>
      <trkpt lat="45.81215" lon="1.18413">
        <ele>272.8</ele>
        <time>2024-09-25T13:35:17Z</time>
      </trkpt>
      <trkpt lat="45.81215" lon="1.18407">
        <ele>272.8</ele>
        <time>2024-09-25T13:35:18Z</time>
      </trkpt>
      <trkpt lat="45.81216" lon="1.18401">
        <ele>272.9</ele>
        <time>2024-09-25T13:35:19Z</time>
      </trkpt>
      <trkpt lat="45.81217" lon="1.18397">
        <ele>272.9</ele>
        <time>2024-09-25T13:35:20Z</time>
      </trkpt>
      <trkpt lat="45.81218" lon="1.18392">
        <ele>272.9</ele>
        <time>2024-09-25T13:35:22Z</time>
      </trkpt>
      <trkpt lat="45.81218" lon="1.18387">
        <ele>272.9</ele>
        <time>2024-09-25T13:35:24Z</time>
      </trkpt>
      <trkpt lat="45.81217" lon="1.18383">
        <ele>272.9</ele>
        <time>2024-09-25T13:35:26Z</time>
      </trkpt>
      <trkpt lat="45.81216" lon="1.18383">
        <ele>272.9</ele>
        <time>2024-09-25T13:35:28Z</time>
      </trkpt>
      <trkpt lat="45.81214" lon="1.18388">
        <ele>272.9</ele>
        <time>2024-09-25T13:35:30Z</time>
      </trkpt>
      <trkpt lat="45.81214" lon="1.18393">
        <ele>273</ele>
        <time>2024-09-25T13:35:31Z</time>
      </trkpt>
      <trkpt lat="45.81213" lon="1.18398">
        <ele>273</ele>
        <time>2024-09-25T13:35:32Z</time>
      </trkpt>
      <trkpt lat="45.81211" lon="1.18404">
        <ele>273</ele>
        <time>2024-09-25T13:35:33Z</time>
      </trkpt>
      <trkpt lat="45.8121" lon="1.18409">
        <ele>272.9</ele>
        <time>2024-09-25T13:35:34Z</time>
      </trkpt>
      <trkpt lat="45.81208" lon="1.18414">
        <ele>272.8</ele>
        <time>2024-09-25T13:35:35Z</time>
      </trkpt>
      <trkpt lat="45.81206" lon="1.18418">
        <ele>272.8</ele>
        <time>2024-09-25T13:35:36Z</time>
      </trkpt>
      <trkpt lat="45.81202" lon="1.18422">
        <ele>272.7</ele>
        <time>2024-09-25T13:35:37Z</time>
      </trkpt>
      <trkpt lat="45.81198" lon="1.18423">
        <ele>272.7</ele>
        <time>2024-09-25T13:35:38Z</time>
      </trkpt>
      <trkpt lat="45.81194" lon="1.18424">
        <ele>272.7</ele>
        <time>2024-09-25T13:35:39Z</time>
      </trkpt>
      <trkpt lat="45.8119" lon="1.18426">
        <ele>272.7</ele>
        <time>2024-09-25T13:35:40Z</time>
      </trkpt>
      <trkpt lat="45.81187" lon="1.18427">
        <ele>272.7</ele>
        <time>2024-09-25T13:35:41Z</time>
      </trkpt>
      <trkpt lat="45.81183" lon="1.18428">
        <ele>272.7</ele>
        <time>2024-09-25T13:35:42Z</time>
      </trkpt>
      <trkpt lat="45.81179" lon="1.18429">
        <ele>272.7</ele>
        <time>2024-09-25T13:35:43Z</time>
      </trkpt>
      <trkpt lat="45.81176" lon="1.1843">
        <ele>272.7</ele>
        <time>2024-09-25T13:35:44Z</time>
      </trkpt>
      <trkpt lat="45.81172" lon="1.18431">
        <ele>272.7</ele>
        <time>2024-09-25T13:35:45Z</time>
      </trkpt>
      <trkpt lat="45.81169" lon="1.18432">
        <ele>272.7</ele>
        <time>2024-09-25T13:35:46Z</time>
      </trkpt>
      <trkpt lat="45.81165" lon="1.18433">
        <ele>272.7</ele>
        <time>2024-09-25T13:35:47Z</time>
      </trkpt>
      <trkpt lat="45.81162" lon="1.18435">
        <ele>272.7</ele>
        <time>2024-09-25T13:35:48Z</time>
      </trkpt>
      <trkpt lat="45.81159" lon="1.18437">
        <ele>272.7</ele>
        <time>2024-09-25T13:35:49Z</time>
      </trkpt>
      <trkpt lat="45.81156" lon="1.18439">
        <ele>272.7</ele>
        <time>2024-09-25T13:35:51Z</time>
      </trkpt>
      <trkpt lat="45.81153" lon="1.1844">
        <ele>272.7</ele>
        <time>2024-09-25T13:35:53Z</time>
      </trkpt>
      <trkpt lat="45.8115" lon="1.18438">
        <ele>272.7</ele>
        <time>2024-09-25T13:35:55Z</time>
      </trkpt>
      <trkpt lat="45.81148" lon="1.18435">
        <ele>272.6</ele>
        <time>2024-09-25T13:35:57Z</time>
      </trkpt>
      <trkpt lat="45.81147" lon="1.1843">
        <ele>272.5</ele>
        <time>2024-09-25T13:35:59Z</time>
      </trkpt>
      <trkpt lat="45.81146" lon="1.18425">
        <ele>272.4</ele>
        <time>2024-09-25T13:36:00Z</time>
      </trkpt>
      <trkpt lat="45.81146" lon="1.1842">
        <ele>272.3</ele>
        <time>2024-09-25T13:36:01Z</time>
      </trkpt>
      <trkpt lat="45.81147" lon="1.18415">
        <ele>272.3</ele>
        <time>2024-09-25T13:36:02Z</time>
      </trkpt>
      <trkpt lat="45.81147" lon="1.1841">
        <ele>272.2</ele>
        <time>2024-09-25T13:36:03Z</time>
      </trkpt>
      <trkpt lat="45.81148" lon="1.18405">
        <ele>272.2</ele>
        <time>2024-09-25T13:36:04Z</time>
      </trkpt>
      <trkpt lat="45.81149" lon="1.184">
        <ele>272.2</ele>
        <time>2024-09-25T13:36:05Z</time>
      </trkpt>
      <trkpt lat="45.8115" lon="1.18395">
        <ele>272.2</ele>
        <time>2024-09-25T13:36:06Z</time>
      </trkpt>
      <trkpt lat="45.81151" lon="1.1839">
        <ele>272.2</ele>
        <time>2024-09-25T13:36:07Z</time>
      </trkpt>
      <trkpt lat="45.81151" lon="1.18385">
        <ele>272.2</ele>
        <time>2024-09-25T13:36:08Z</time>
      </trkpt>
      <trkpt lat="45.81151" lon="1.18381">
        <ele>272.2</ele>
        <time>2024-09-25T13:36:09Z</time>
      </trkpt>
      <trkpt lat="45.8115" lon="1.18376">
        <ele>272.2</ele>
        <time>2024-09-25T13:36:10Z</time>
      </trkpt>
      <trkpt lat="45.8115" lon="1.18371">
        <ele>272.3</ele>
        <time>2024-09-25T13:36:11Z</time>
      </trkpt>
      <trkpt lat="45.8115" lon="1.18366">
        <ele>272.4</ele>
        <time>2024-09-25T13:36:12Z</time>
      </trkpt>
      <trkpt lat="45.8115" lon="1.1836">
        <ele>272.5</ele>
        <time>2024-09-25T13:36:13Z</time>
      </trkpt>
      <trkpt lat="45.81149" lon="1.18355">
        <ele>272.5</ele>
        <time>2024-09-25T13:36:14Z</time>
      </trkpt>
      <trkpt lat="45.81148" lon="1.1835">
        <ele>272.6</ele>
        <time>2024-09-25T13:36:15Z</time>
      </trkpt>
      <trkpt lat="45.81146" lon="1.18345">
        <ele>272.7</ele>
        <time>2024-09-25T13:36:16Z</time>
      </trkpt>
      <trkpt lat="45.81144" lon="1.18339">
        <ele>272.9</ele>
        <time>2024-09-25T13:36:17Z</time>
      </trkpt>
      <trkpt lat="45.81141" lon="1.18334">
        <ele>273</ele>
        <time>2024-09-25T13:36:18Z</time>
      </trkpt>
      <trkpt lat="45.81139" lon="1.18329">
        <ele>273.1</ele>
        <time>2024-09-25T13:36:19Z</time>
      </trkpt>
      <trkpt lat="45.81137" lon="1.18325">
        <ele>273.2</ele>
        <time>2024-09-25T13:36:20Z</time>
      </trkpt>
      <trkpt lat="45.81135" lon="1.18321">
        <ele>273.3</ele>
        <time>2024-09-25T13:36:21Z</time>
      </trkpt>
      <trkpt lat="45.81132" lon="1.18317">
        <ele>273.4</ele>
        <time>2024-09-25T13:36:22Z</time>
      </trkpt>
      <trkpt lat="45.8113" lon="1.18313">
        <ele>273.5</ele>
        <time>2024-09-25T13:36:23Z</time>
      </trkpt>
      <trkpt lat="45.81128" lon="1.1831">
        <ele>273.6</ele>
        <time>2024-09-25T13:36:24Z</time>
      </trkpt>
      <trkpt lat="45.81126" lon="1.18306">
        <ele>273.7</ele>
        <time>2024-09-25T13:36:25Z</time>
      </trkpt>
      <trkpt lat="45.81123" lon="1.18303">
        <ele>273.8</ele>
        <time>2024-09-25T13:36:26Z</time>
      </trkpt>
      <trkpt lat="45.81121" lon="1.18301">
        <ele>273.9</ele>
        <time>2024-09-25T13:36:27Z</time>
      </trkpt>
      <trkpt lat="45.81117" lon="1.18298">
        <ele>274.1</ele>
        <time>2024-09-25T13:36:28Z</time>
      </trkpt>
      <trkpt lat="45.81114" lon="1.18296">
        <ele>274.2</ele>
        <time>2024-09-25T13:36:29Z</time>
      </trkpt>
      <trkpt lat="45.81111" lon="1.18294">
        <ele>274.3</ele>
        <time>2024-09-25T13:36:30Z</time>
      </trkpt>
      <trkpt lat="45.81107" lon="1.18292">
        <ele>274.4</ele>
        <time>2024-09-25T13:36:31Z</time>
      </trkpt>
      <trkpt lat="45.81104" lon="1.1829">
        <ele>274.6</ele>
        <time>2024-09-25T13:36:32Z</time>
      </trkpt>
      <trkpt lat="45.811" lon="1.18289">
        <ele>274.7</ele>
        <time>2024-09-25T13:36:33Z</time>
      </trkpt>
      <trkpt lat="45.81096" lon="1.18288">
        <ele>274.8</ele>
        <time>2024-09-25T13:36:34Z</time>
      </trkpt>
      <trkpt lat="45.81092" lon="1.18287">
        <ele>274.9</ele>
        <time>2024-09-25T13:36:35Z</time>
      </trkpt>
      <trkpt lat="45.81089" lon="1.18286">
        <ele>275</ele>
        <time>2024-09-25T13:36:36Z</time>
      </trkpt>
      <trkpt lat="45.81085" lon="1.18285">
        <ele>275.1</ele>
        <time>2024-09-25T13:36:37Z</time>
      </trkpt>
      <trkpt lat="45.81082" lon="1.18284">
        <ele>275.2</ele>
        <time>2024-09-25T13:36:38Z</time>
      </trkpt>
      <trkpt lat="45.81079" lon="1.18283">
        <ele>275.3</ele>
        <time>2024-09-25T13:36:39Z</time>
      </trkpt>
      <trkpt lat="45.81075" lon="1.18283">
        <ele>275.3</ele>
        <time>2024-09-25T13:36:40Z</time>
      </trkpt>
      <trkpt lat="45.81072" lon="1.18283">
        <ele>275.4</ele>
        <time>2024-09-25T13:36:41Z</time>
      </trkpt>
      <trkpt lat="45.81068" lon="1.18282">
        <ele>275.5</ele>
        <time>2024-09-25T13:36:42Z</time>
      </trkpt>
      <trkpt lat="45.81064" lon="1.18282">
        <ele>275.5</ele>
        <time>2024-09-25T13:36:43Z</time>
      </trkpt>
      <trkpt lat="45.8106" lon="1.18282">
        <ele>275.6</ele>
        <time>2024-09-25T13:36:44Z</time>
      </trkpt>
      <trkpt lat="45.81056" lon="1.18281">
        <ele>275.6</ele>
        <time>2024-09-25T13:36:45Z</time>
      </trkpt>
      <trkpt lat="45.81051" lon="1.18281">
        <ele>275.7</ele>
        <time>2024-09-25T13:36:46Z</time>
      </trkpt>
      <trkpt lat="45.81047" lon="1.1828">
        <ele>275.7</ele>
        <time>2024-09-25T13:36:47Z</time>
      </trkpt>
      <trkpt lat="45.81043" lon="1.1828">
        <ele>275.6</ele>
        <time>2024-09-25T13:36:48Z</time>
      </trkpt>
      <trkpt lat="45.81038" lon="1.1828">
        <ele>275.6</ele>
        <time>2024-09-25T13:36:49Z</time>
      </trkpt>
      <trkpt lat="45.81032" lon="1.18282">
        <ele>275.5</ele>
        <time>2024-09-25T13:36:50Z</time>
      </trkpt>
      <trkpt lat="45.81028" lon="1.18283">
        <ele>275.4</ele>
        <time>2024-09-25T13:36:51Z</time>
      </trkpt>
      <trkpt lat="45.81024" lon="1.18286">
        <ele>275.3</ele>
        <time>2024-09-25T13:36:52Z</time>
      </trkpt>
      <trkpt lat="45.81019" lon="1.18288">
        <ele>275.2</ele>
        <time>2024-09-25T13:36:53Z</time>
      </trkpt>
      <trkpt lat="45.81013" lon="1.18289">
        <ele>275.2</ele>
        <time>2024-09-25T13:36:54Z</time>
      </trkpt>
      <trkpt lat="45.81008" lon="1.1829">
        <ele>275.1</ele>
        <time>2024-09-25T13:36:55Z</time>
      </trkpt>
      <trkpt lat="45.81002" lon="1.18289">
        <ele>275.1</ele>
        <time>2024-09-25T13:36:57Z</time>
      </trkpt>
      <trkpt lat="45.80997" lon="1.18289">
        <ele>275.1</ele>
        <time>2024-09-25T13:36:58Z</time>
      </trkpt>
      <trkpt lat="45.80992" lon="1.18287">
        <ele>275.1</ele>
        <time>2024-09-25T13:36:59Z</time>
      </trkpt>
      <trkpt lat="45.80989" lon="1.18287">
        <ele>275.1</ele>
        <time>2024-09-25T13:37:00Z</time>
      </trkpt>
      <trkpt lat="45.80985" lon="1.18287">
        <ele>275</ele>
        <time>2024-09-25T13:37:01Z</time>
      </trkpt>
      <trkpt lat="45.80981" lon="1.18286">
        <ele>275</ele>
        <time>2024-09-25T13:37:02Z</time>
      </trkpt>
      <trkpt lat="45.80977" lon="1.18286">
        <ele>275</ele>
        <time>2024-09-25T13:37:03Z</time>
      </trkpt>
      <trkpt lat="45.80971" lon="1.18284">
        <ele>275</ele>
        <time>2024-09-25T13:37:04Z</time>
      </trkpt>
      <trkpt lat="45.80967" lon="1.18283">
        <ele>275</ele>
        <time>2024-09-25T13:37:05Z</time>
      </trkpt>
      <trkpt lat="45.80961" lon="1.18284">
        <ele>275</ele>
        <time>2024-09-25T13:37:06Z</time>
      </trkpt>
      <trkpt lat="45.80957" lon="1.18284">
        <ele>275</ele>
        <time>2024-09-25T13:37:07Z</time>
      </trkpt>
      <trkpt lat="45.80954" lon="1.18283">
        <ele>275</ele>
        <time>2024-09-25T13:37:08Z</time>
      </trkpt>
      <trkpt lat="45.80949" lon="1.18282">
        <ele>275</ele>
        <time>2024-09-25T13:37:09Z</time>
      </trkpt>
      <trkpt lat="45.80944" lon="1.18283">
        <ele>275.1</ele>
        <time>2024-09-25T13:37:10Z</time>
      </trkpt>
      <trkpt lat="45.80939" lon="1.18282">
        <ele>275.2</ele>
        <time>2024-09-25T13:37:11Z</time>
      </trkpt>
      <trkpt lat="45.80934" lon="1.18281">
        <ele>275.3</ele>
        <time>2024-09-25T13:37:12Z</time>
      </trkpt>
      <trkpt lat="45.8093" lon="1.18281">
        <ele>275.4</ele>
        <time>2024-09-25T13:37:13Z</time>
      </trkpt>
      <trkpt lat="45.80926" lon="1.18281">
        <ele>275.5</ele>
        <time>2024-09-25T13:37:14Z</time>
      </trkpt>
      <trkpt lat="45.80921" lon="1.18279">
        <ele>275.7</ele>
        <time>2024-09-25T13:37:15Z</time>
      </trkpt>
      <trkpt lat="45.80918" lon="1.18277">
        <ele>275.8</ele>
        <time>2024-09-25T13:37:16Z</time>
      </trkpt>
      <trkpt lat="45.80916" lon="1.18273">
        <ele>276</ele>
        <time>2024-09-25T13:37:17Z</time>
      </trkpt>
      <trkpt lat="45.80914" lon="1.18269">
        <ele>276.2</ele>
        <time>2024-09-25T13:37:18Z</time>
      </trkpt>
      <trkpt lat="45.80913" lon="1.18264">
        <ele>276.4</ele>
        <time>2024-09-25T13:37:19Z</time>
      </trkpt>
      <trkpt lat="45.80912" lon="1.18259">
        <ele>276.6</ele>
        <time>2024-09-25T13:37:20Z</time>
      </trkpt>
      <trkpt lat="45.80911" lon="1.18255">
        <ele>276.8</ele>
        <time>2024-09-25T13:37:21Z</time>
      </trkpt>
      <trkpt lat="45.8091" lon="1.18251">
        <ele>277</ele>
        <time>2024-09-25T13:37:22Z</time>
      </trkpt>
      <trkpt lat="45.80909" lon="1.18244">
        <ele>277.4</ele>
        <time>2024-09-25T13:37:24Z</time>
      </trkpt>
      <trkpt lat="45.80909" lon="1.18238">
        <ele>277.8</ele>
        <time>2024-09-25T13:37:26Z</time>
      </trkpt>
      <trkpt lat="45.80909" lon="1.18233">
        <ele>278.1</ele>
        <time>2024-09-25T13:37:27Z</time>
      </trkpt>
      <trkpt lat="45.80908" lon="1.18227">
        <ele>278.5</ele>
        <time>2024-09-25T13:37:29Z</time>
      </trkpt>
      <trkpt lat="45.80907" lon="1.18221">
        <ele>279</ele>
        <time>2024-09-25T13:37:31Z</time>
      </trkpt>
      <trkpt lat="45.80907" lon="1.18216">
        <ele>279.3</ele>
        <time>2024-09-25T13:37:32Z</time>
      </trkpt>
      <trkpt lat="45.80906" lon="1.18212">
        <ele>279.7</ele>
        <time>2024-09-25T13:37:33Z</time>
      </trkpt>
      <trkpt lat="45.80905" lon="1.18207">
        <ele>280.1</ele>
        <time>2024-09-25T13:37:34Z</time>
      </trkpt>
      <trkpt lat="45.80904" lon="1.18202">
        <ele>280.4</ele>
        <time>2024-09-25T13:37:35Z</time>
      </trkpt>
      <trkpt lat="45.80904" lon="1.18197">
        <ele>280.8</ele>
        <time>2024-09-25T13:37:36Z</time>
      </trkpt>
      <trkpt lat="45.80904" lon="1.18193">
        <ele>281.1</ele>
        <time>2024-09-25T13:37:37Z</time>
      </trkpt>
      <trkpt lat="45.80903" lon="1.18189">
        <ele>281.4</ele>
        <time>2024-09-25T13:37:38Z</time>
      </trkpt>
      <trkpt lat="45.80902" lon="1.18185">
        <ele>281.8</ele>
        <time>2024-09-25T13:37:39Z</time>
      </trkpt>
      <trkpt lat="45.80902" lon="1.18178">
        <ele>282.3</ele>
        <time>2024-09-25T13:37:41Z</time>
      </trkpt>
      <trkpt lat="45.80901" lon="1.18172">
        <ele>282.8</ele>
        <time>2024-09-25T13:37:42Z</time>
      </trkpt>
      <trkpt lat="45.80901" lon="1.18167">
        <ele>283.1</ele>
        <time>2024-09-25T13:37:43Z</time>
      </trkpt>
      <trkpt lat="45.809" lon="1.18163">
        <ele>283.4</ele>
        <time>2024-09-25T13:37:44Z</time>
      </trkpt>
      <trkpt lat="45.80899" lon="1.18156">
        <ele>283.9</ele>
        <time>2024-09-25T13:37:46Z</time>
      </trkpt>
      <trkpt lat="45.80898" lon="1.1815">
        <ele>284.3</ele>
        <time>2024-09-25T13:37:48Z</time>
      </trkpt>
      <trkpt lat="45.80897" lon="1.18143">
        <ele>284.7</ele>
        <time>2024-09-25T13:37:50Z</time>
      </trkpt>
      <trkpt lat="45.80896" lon="1.18136">
        <ele>285.1</ele>
        <time>2024-09-25T13:37:52Z</time>
      </trkpt>
      <trkpt lat="45.80895" lon="1.1813">
        <ele>285.4</ele>
        <time>2024-09-25T13:37:53Z</time>
      </trkpt>
      <trkpt lat="45.80895" lon="1.18125">
        <ele>285.5</ele>
        <time>2024-09-25T13:37:54Z</time>
      </trkpt>
      <trkpt lat="45.80894" lon="1.1812">
        <ele>285.7</ele>
        <time>2024-09-25T13:37:55Z</time>
      </trkpt>
      <trkpt lat="45.80894" lon="1.18115">
        <ele>285.8</ele>
        <time>2024-09-25T13:37:56Z</time>
      </trkpt>
      <trkpt lat="45.80893" lon="1.1811">
        <ele>285.9</ele>
        <time>2024-09-25T13:37:57Z</time>
      </trkpt>
      <trkpt lat="45.80893" lon="1.18105">
        <ele>285.9</ele>
        <time>2024-09-25T13:37:58Z</time>
      </trkpt>
      <trkpt lat="45.80893" lon="1.181">
        <ele>285.9</ele>
        <time>2024-09-25T13:37:59Z</time>
      </trkpt>
      <trkpt lat="45.80893" lon="1.18095">
        <ele>285.9</ele>
        <time>2024-09-25T13:38:00Z</time>
      </trkpt>
      <trkpt lat="45.80892" lon="1.18089">
        <ele>285.9</ele>
        <time>2024-09-25T13:38:01Z</time>
      </trkpt>
      <trkpt lat="45.80892" lon="1.18083">
        <ele>285.9</ele>
        <time>2024-09-25T13:38:02Z</time>
      </trkpt>
      <trkpt lat="45.80892" lon="1.18076">
        <ele>285.8</ele>
        <time>2024-09-25T13:38:03Z</time>
      </trkpt>
      <trkpt lat="45.80892" lon="1.1807">
        <ele>285.8</ele>
        <time>2024-09-25T13:38:04Z</time>
      </trkpt>
      <trkpt lat="45.80892" lon="1.18062">
        <ele>285.7</ele>
        <time>2024-09-25T13:38:05Z</time>
      </trkpt>
      <trkpt lat="45.80891" lon="1.18055">
        <ele>285.6</ele>
        <time>2024-09-25T13:38:06Z</time>
      </trkpt>
      <trkpt lat="45.80891" lon="1.18049">
        <ele>285.5</ele>
        <time>2024-09-25T13:38:07Z</time>
      </trkpt>
      <trkpt lat="45.8089" lon="1.18041">
        <ele>285.4</ele>
        <time>2024-09-25T13:38:08Z</time>
      </trkpt>
      <trkpt lat="45.8089" lon="1.18034">
        <ele>285.2</ele>
        <time>2024-09-25T13:38:09Z</time>
      </trkpt>
      <trkpt lat="45.80889" lon="1.18026">
        <ele>285.1</ele>
        <time>2024-09-25T13:38:10Z</time>
      </trkpt>
      <trkpt lat="45.80888" lon="1.1802">
        <ele>284.9</ele>
        <time>2024-09-25T13:38:11Z</time>
      </trkpt>
      <trkpt lat="45.80886" lon="1.18014">
        <ele>284.7</ele>
        <time>2024-09-25T13:38:12Z</time>
      </trkpt>
      <trkpt lat="45.80885" lon="1.18007">
        <ele>284.5</ele>
        <time>2024-09-25T13:38:13Z</time>
      </trkpt>
      <trkpt lat="45.80883" lon="1.18001">
        <ele>284.3</ele>
        <time>2024-09-25T13:38:14Z</time>
      </trkpt>
      <trkpt lat="45.80882" lon="1.17994">
        <ele>284</ele>
        <time>2024-09-25T13:38:15Z</time>
      </trkpt>
      <trkpt lat="45.80881" lon="1.17988">
        <ele>283.7</ele>
        <time>2024-09-25T13:38:16Z</time>
      </trkpt>
      <trkpt lat="45.80881" lon="1.17981">
        <ele>283.5</ele>
        <time>2024-09-25T13:38:17Z</time>
      </trkpt>
      <trkpt lat="45.8088" lon="1.17973">
        <ele>283.1</ele>
        <time>2024-09-25T13:38:18Z</time>
      </trkpt>
      <trkpt lat="45.8088" lon="1.17966">
        <ele>282.9</ele>
        <time>2024-09-25T13:38:19Z</time>
      </trkpt>
      <trkpt lat="45.80879" lon="1.17958">
        <ele>282.6</ele>
        <time>2024-09-25T13:38:20Z</time>
      </trkpt>
      <trkpt lat="45.80878" lon="1.17951">
        <ele>282.4</ele>
        <time>2024-09-25T13:38:21Z</time>
      </trkpt>
      <trkpt lat="45.80878" lon="1.17944">
        <ele>282.3</ele>
        <time>2024-09-25T13:38:22Z</time>
      </trkpt>
      <trkpt lat="45.80877" lon="1.17937">
        <ele>282.1</ele>
        <time>2024-09-25T13:38:23Z</time>
      </trkpt>
      <trkpt lat="45.80877" lon="1.17931">
        <ele>282</ele>
        <time>2024-09-25T13:38:25Z</time>
      </trkpt>
      <trkpt lat="45.80876" lon="1.17925">
        <ele>281.9</ele>
        <time>2024-09-25T13:38:26Z</time>
      </trkpt>
      <trkpt lat="45.80874" lon="1.17921">
        <ele>281.7</ele>
        <time>2024-09-25T13:38:27Z</time>
      </trkpt>
      <trkpt lat="45.80871" lon="1.17916">
        <ele>281.6</ele>
        <time>2024-09-25T13:38:28Z</time>
      </trkpt>
      <trkpt lat="45.80867" lon="1.17912">
        <ele>281.5</ele>
        <time>2024-09-25T13:38:29Z</time>
      </trkpt>
      <trkpt lat="45.80864" lon="1.17907">
        <ele>281.3</ele>
        <time>2024-09-25T13:38:30Z</time>
      </trkpt>
      <trkpt lat="45.80859" lon="1.17902">
        <ele>281.2</ele>
        <time>2024-09-25T13:38:31Z</time>
      </trkpt>
      <trkpt lat="45.80855" lon="1.17897">
        <ele>281</ele>
        <time>2024-09-25T13:38:32Z</time>
      </trkpt>
      <trkpt lat="45.80851" lon="1.17892">
        <ele>280.8</ele>
        <time>2024-09-25T13:38:33Z</time>
      </trkpt>
      <trkpt lat="45.80847" lon="1.17886">
        <ele>280.5</ele>
        <time>2024-09-25T13:38:34Z</time>
      </trkpt>
      <trkpt lat="45.80843" lon="1.17881">
        <ele>280.2</ele>
        <time>2024-09-25T13:38:35Z</time>
      </trkpt>
      <trkpt lat="45.80838" lon="1.17876">
        <ele>279.9</ele>
        <time>2024-09-25T13:38:36Z</time>
      </trkpt>
      <trkpt lat="45.80834" lon="1.17872">
        <ele>279.7</ele>
        <time>2024-09-25T13:38:37Z</time>
      </trkpt>
      <trkpt lat="45.80829" lon="1.17866">
        <ele>279.3</ele>
        <time>2024-09-25T13:38:38Z</time>
      </trkpt>
      <trkpt lat="45.80824" lon="1.17862">
        <ele>279.1</ele>
        <time>2024-09-25T13:38:39Z</time>
      </trkpt>
      <trkpt lat="45.8082" lon="1.17857">
        <ele>278.9</ele>
        <time>2024-09-25T13:38:40Z</time>
      </trkpt>
      <trkpt lat="45.80815" lon="1.17851">
        <ele>278.6</ele>
        <time>2024-09-25T13:38:41Z</time>
      </trkpt>
      <trkpt lat="45.8081" lon="1.17846">
        <ele>278.3</ele>
        <time>2024-09-25T13:38:42Z</time>
      </trkpt>
      <trkpt lat="45.80805" lon="1.17842">
        <ele>278.1</ele>
        <time>2024-09-25T13:38:43Z</time>
      </trkpt>
      <trkpt lat="45.808" lon="1.17837">
        <ele>277.9</ele>
        <time>2024-09-25T13:38:44Z</time>
      </trkpt>
      <trkpt lat="45.80796" lon="1.17832">
        <ele>277.7</ele>
        <time>2024-09-25T13:38:45Z</time>
      </trkpt>
      <trkpt lat="45.80791" lon="1.17826">
        <ele>277.4</ele>
        <time>2024-09-25T13:38:46Z</time>
      </trkpt>
      <trkpt lat="45.80786" lon="1.17821">
        <ele>277.2</ele>
        <time>2024-09-25T13:38:47Z</time>
      </trkpt>
      <trkpt lat="45.80781" lon="1.17816">
        <ele>277</ele>
        <time>2024-09-25T13:38:48Z</time>
      </trkpt>
      <trkpt lat="45.80776" lon="1.17812">
        <ele>276.8</ele>
        <time>2024-09-25T13:38:49Z</time>
      </trkpt>
      <trkpt lat="45.80771" lon="1.17807">
        <ele>276.6</ele>
        <time>2024-09-25T13:38:50Z</time>
      </trkpt>
      <trkpt lat="45.80766" lon="1.17802">
        <ele>276.4</ele>
        <time>2024-09-25T13:38:51Z</time>
      </trkpt>
      <trkpt lat="45.80761" lon="1.17797">
        <ele>276.2</ele>
        <time>2024-09-25T13:38:52Z</time>
      </trkpt>
      <trkpt lat="45.80756" lon="1.17792">
        <ele>276.1</ele>
        <time>2024-09-25T13:38:53Z</time>
      </trkpt>
      <trkpt lat="45.80752" lon="1.17788">
        <ele>276.1</ele>
        <time>2024-09-25T13:38:54Z</time>
      </trkpt>
      <trkpt lat="45.80749" lon="1.17784">
        <ele>276</ele>
        <time>2024-09-25T13:38:55Z</time>
      </trkpt>
      <trkpt lat="45.80746" lon="1.1778">
        <ele>276</ele>
        <time>2024-09-25T13:38:56Z</time>
      </trkpt>
      <trkpt lat="45.80745" lon="1.17774">
        <ele>275.6</ele>
        <time>2024-09-25T13:38:58Z</time>
      </trkpt>
      <trkpt lat="45.80747" lon="1.17768">
        <ele>275</ele>
        <time>2024-09-25T13:38:59Z</time>
      </trkpt>
      <trkpt lat="45.80748" lon="1.17763">
        <ele>274.5</ele>
        <time>2024-09-25T13:39:00Z</time>
      </trkpt>
      <trkpt lat="45.8075" lon="1.17759">
        <ele>274</ele>
        <time>2024-09-25T13:39:01Z</time>
      </trkpt>
      <trkpt lat="45.80753" lon="1.17753">
        <ele>273.2</ele>
        <time>2024-09-25T13:39:02Z</time>
      </trkpt>
      <trkpt lat="45.80757" lon="1.17744">
        <ele>272.2</ele>
        <time>2024-09-25T13:39:03Z</time>
      </trkpt>
      <trkpt lat="45.80762" lon="1.17734">
        <ele>271.2</ele>
        <time>2024-09-25T13:39:04Z</time>
      </trkpt>
      <trkpt lat="45.80766" lon="1.17725">
        <ele>270.5</ele>
        <time>2024-09-25T13:39:05Z</time>
      </trkpt>
      <trkpt lat="45.80768" lon="1.17718">
        <ele>270</ele>
        <time>2024-09-25T13:39:06Z</time>
      </trkpt>
      <trkpt lat="45.80768" lon="1.17711">
        <ele>269.5</ele>
        <time>2024-09-25T13:39:07Z</time>
      </trkpt>
      <trkpt lat="45.80767" lon="1.17702">
        <ele>269</ele>
        <time>2024-09-25T13:39:09Z</time>
      </trkpt>
      <trkpt lat="45.80764" lon="1.17695">
        <ele>268.4</ele>
        <time>2024-09-25T13:39:10Z</time>
      </trkpt>
      <trkpt lat="45.80761" lon="1.1769">
        <ele>268</ele>
        <time>2024-09-25T13:39:11Z</time>
      </trkpt>
      <trkpt lat="45.80758" lon="1.17684">
        <ele>267.6</ele>
        <time>2024-09-25T13:39:12Z</time>
      </trkpt>
      <trkpt lat="45.80752" lon="1.17679">
        <ele>267.1</ele>
        <time>2024-09-25T13:39:13Z</time>
      </trkpt>
      <trkpt lat="45.80748" lon="1.17674">
        <ele>266.7</ele>
        <time>2024-09-25T13:39:14Z</time>
      </trkpt>
      <trkpt lat="45.80743" lon="1.17667">
        <ele>266.2</ele>
        <time>2024-09-25T13:39:15Z</time>
      </trkpt>
      <trkpt lat="45.80738" lon="1.17662">
        <ele>265.8</ele>
        <time>2024-09-25T13:39:16Z</time>
      </trkpt>
      <trkpt lat="45.80733" lon="1.17658">
        <ele>265.5</ele>
        <time>2024-09-25T13:39:17Z</time>
      </trkpt>
      <trkpt lat="45.80728" lon="1.17653">
        <ele>265.1</ele>
        <time>2024-09-25T13:39:18Z</time>
      </trkpt>
      <trkpt lat="45.80723" lon="1.17648">
        <ele>264.7</ele>
        <time>2024-09-25T13:39:19Z</time>
      </trkpt>
      <trkpt lat="45.80718" lon="1.17643">
        <ele>264.3</ele>
        <time>2024-09-25T13:39:20Z</time>
      </trkpt>
      <trkpt lat="45.80715" lon="1.17638">
        <ele>264</ele>
        <time>2024-09-25T13:39:21Z</time>
      </trkpt>
      <trkpt lat="45.80712" lon="1.17632">
        <ele>263.7</ele>
        <time>2024-09-25T13:39:22Z</time>
      </trkpt>
      <trkpt lat="45.80709" lon="1.17628">
        <ele>263.4</ele>
        <time>2024-09-25T13:39:23Z</time>
      </trkpt>
      <trkpt lat="45.80705" lon="1.17623">
        <ele>263.2</ele>
        <time>2024-09-25T13:39:24Z</time>
      </trkpt>
      <trkpt lat="45.80702" lon="1.1762">
        <ele>263</ele>
        <time>2024-09-25T13:39:25Z</time>
      </trkpt>
      <trkpt lat="45.80698" lon="1.17617">
        <ele>262.8</ele>
        <time>2024-09-25T13:39:26Z</time>
      </trkpt>
      <trkpt lat="45.80694" lon="1.17615">
        <ele>262.6</ele>
        <time>2024-09-25T13:39:27Z</time>
      </trkpt>
      <trkpt lat="45.80688" lon="1.17612">
        <ele>262.2</ele>
        <time>2024-09-25T13:39:29Z</time>
      </trkpt>
      <trkpt lat="45.80684" lon="1.17611">
        <ele>262</ele>
        <time>2024-09-25T13:39:30Z</time>
      </trkpt>
      <trkpt lat="45.8068" lon="1.1761">
        <ele>261.8</ele>
        <time>2024-09-25T13:39:31Z</time>
      </trkpt>
      <trkpt lat="45.80676" lon="1.17609">
        <ele>261.5</ele>
        <time>2024-09-25T13:39:32Z</time>
      </trkpt>
      <trkpt lat="45.80673" lon="1.17606">
        <ele>261.4</ele>
        <time>2024-09-25T13:39:33Z</time>
      </trkpt>
      <trkpt lat="45.80669" lon="1.17606">
        <ele>261.2</ele>
        <time>2024-09-25T13:39:34Z</time>
      </trkpt>
      <trkpt lat="45.80666" lon="1.17605">
        <ele>261.1</ele>
        <time>2024-09-25T13:39:35Z</time>
      </trkpt>
      <trkpt lat="45.80663" lon="1.17604">
        <ele>261</ele>
        <time>2024-09-25T13:39:36Z</time>
      </trkpt>
      <trkpt lat="45.80659" lon="1.17602">
        <ele>260.9</ele>
        <time>2024-09-25T13:39:37Z</time>
      </trkpt>
      <trkpt lat="45.80654" lon="1.176">
        <ele>260.7</ele>
        <time>2024-09-25T13:39:38Z</time>
      </trkpt>
      <trkpt lat="45.80649" lon="1.17598">
        <ele>260.4</ele>
        <time>2024-09-25T13:39:39Z</time>
      </trkpt>
      <trkpt lat="45.80641" lon="1.17597">
        <ele>259.7</ele>
        <time>2024-09-25T13:39:40Z</time>
      </trkpt>
      <trkpt lat="45.80635" lon="1.17594">
        <ele>259.1</ele>
        <time>2024-09-25T13:39:41Z</time>
      </trkpt>
      <trkpt lat="45.8063" lon="1.17591">
        <ele>258.4</ele>
        <time>2024-09-25T13:39:42Z</time>
      </trkpt>
      <trkpt lat="45.80625" lon="1.17587">
        <ele>257.8</ele>
        <time>2024-09-25T13:39:43Z</time>
      </trkpt>
      <trkpt lat="45.8062" lon="1.17584">
        <ele>257.1</ele>
        <time>2024-09-25T13:39:44Z</time>
      </trkpt>
      <trkpt lat="45.80613" lon="1.1758">
        <ele>256</ele>
        <time>2024-09-25T13:39:45Z</time>
      </trkpt>
      <trkpt lat="45.80608" lon="1.17578">
        <ele>255.2</ele>
        <time>2024-09-25T13:39:47Z</time>
      </trkpt>
      <trkpt lat="45.80604" lon="1.17576">
        <ele>254.6</ele>
        <time>2024-09-25T13:39:48Z</time>
      </trkpt>
      <trkpt lat="45.806" lon="1.17573">
        <ele>253.8</ele>
        <time>2024-09-25T13:39:49Z</time>
      </trkpt>
      <trkpt lat="45.80595" lon="1.17573">
        <ele>253</ele>
        <time>2024-09-25T13:39:50Z</time>
      </trkpt>
      <trkpt lat="45.80591" lon="1.17575">
        <ele>252.3</ele>
        <time>2024-09-25T13:39:51Z</time>
      </trkpt>
      <trkpt lat="45.80587" lon="1.17577">
        <ele>251.6</ele>
        <time>2024-09-25T13:39:53Z</time>
      </trkpt>
      <trkpt lat="45.80582" lon="1.17576">
        <ele>250.7</ele>
        <time>2024-09-25T13:39:54Z</time>
      </trkpt>
      <trkpt lat="45.80578" lon="1.17575">
        <ele>250</ele>
        <time>2024-09-25T13:39:55Z</time>
      </trkpt>
      <trkpt lat="45.80574" lon="1.17574">
        <ele>249.3</ele>
        <time>2024-09-25T13:39:56Z</time>
      </trkpt>
      <trkpt lat="45.8057" lon="1.17572">
        <ele>248.6</ele>
        <time>2024-09-25T13:39:57Z</time>
      </trkpt>
      <trkpt lat="45.80566" lon="1.17571">
        <ele>247.9</ele>
        <time>2024-09-25T13:39:58Z</time>
      </trkpt>
      <trkpt lat="45.80562" lon="1.17569">
        <ele>247.1</ele>
        <time>2024-09-25T13:39:59Z</time>
      </trkpt>
      <trkpt lat="45.80559" lon="1.17568">
        <ele>246.6</ele>
        <time>2024-09-25T13:40:00Z</time>
      </trkpt>
      <trkpt lat="45.80554" lon="1.17568">
        <ele>245.8</ele>
        <time>2024-09-25T13:40:02Z</time>
      </trkpt>
      <trkpt lat="45.80551" lon="1.17567">
        <ele>245.2</ele>
        <time>2024-09-25T13:40:03Z</time>
      </trkpt>
      <trkpt lat="45.80547" lon="1.17566">
        <ele>244.5</ele>
        <time>2024-09-25T13:40:04Z</time>
      </trkpt>
      <trkpt lat="45.80544" lon="1.17565">
        <ele>243.9</ele>
        <time>2024-09-25T13:40:05Z</time>
      </trkpt>
      <trkpt lat="45.8054" lon="1.17564">
        <ele>243.1</ele>
        <time>2024-09-25T13:40:06Z</time>
      </trkpt>
      <trkpt lat="45.80537" lon="1.17562">
        <ele>242.4</ele>
        <time>2024-09-25T13:40:07Z</time>
      </trkpt>
      <trkpt lat="45.80534" lon="1.17561">
        <ele>241.7</ele>
        <time>2024-09-25T13:40:09Z</time>
      </trkpt>
      <trkpt lat="45.80531" lon="1.17561">
        <ele>241</ele>
        <time>2024-09-25T13:40:10Z</time>
      </trkpt>
      <trkpt lat="45.80527" lon="1.17561">
        <ele>240.1</ele>
        <time>2024-09-25T13:40:11Z</time>
      </trkpt>
      <trkpt lat="45.80524" lon="1.17561">
        <ele>239.4</ele>
        <time>2024-09-25T13:40:12Z</time>
      </trkpt>
      <trkpt lat="45.8052" lon="1.17562">
        <ele>238.5</ele>
        <time>2024-09-25T13:40:13Z</time>
      </trkpt>
      <trkpt lat="45.80516" lon="1.17562">
        <ele>237.7</ele>
        <time>2024-09-25T13:40:14Z</time>
      </trkpt>
      <trkpt lat="45.80512" lon="1.17563">
        <ele>236.8</ele>
        <time>2024-09-25T13:40:15Z</time>
      </trkpt>
      <trkpt lat="45.80508" lon="1.17563">
        <ele>235.9</ele>
        <time>2024-09-25T13:40:16Z</time>
      </trkpt>
      <trkpt lat="45.80504" lon="1.17566">
        <ele>235.1</ele>
        <time>2024-09-25T13:40:17Z</time>
      </trkpt>
      <trkpt lat="45.80499" lon="1.17569">
        <ele>234.1</ele>
        <time>2024-09-25T13:40:18Z</time>
      </trkpt>
      <trkpt lat="45.80496" lon="1.17575">
        <ele>233.3</ele>
        <time>2024-09-25T13:40:19Z</time>
      </trkpt>
      <trkpt lat="45.80493" lon="1.17581">
        <ele>232.6</ele>
        <time>2024-09-25T13:40:20Z</time>
      </trkpt>
      <trkpt lat="45.80491" lon="1.17586">
        <ele>232.1</ele>
        <time>2024-09-25T13:40:21Z</time>
      </trkpt>
      <trkpt lat="45.80489" lon="1.17591">
        <ele>231.6</ele>
        <time>2024-09-25T13:40:22Z</time>
      </trkpt>
      <trkpt lat="45.80488" lon="1.17597">
        <ele>231.1</ele>
        <time>2024-09-25T13:40:24Z</time>
      </trkpt>
      <trkpt lat="45.80488" lon="1.17603">
        <ele>230.6</ele>
        <time>2024-09-25T13:40:26Z</time>
      </trkpt>
      <trkpt lat="45.80487" lon="1.17611">
        <ele>229.9</ele>
        <time>2024-09-25T13:40:29Z</time>
      </trkpt>
      <trkpt lat="45.80488" lon="1.17617">
        <ele>229.4</ele>
        <time>2024-09-25T13:40:30Z</time>
      </trkpt>
      <trkpt lat="45.80489" lon="1.17623">
        <ele>228.8</ele>
        <time>2024-09-25T13:40:31Z</time>
      </trkpt>
      <trkpt lat="45.8049" lon="1.17628">
        <ele>228.4</ele>
        <time>2024-09-25T13:40:32Z</time>
      </trkpt>
      <trkpt lat="45.80491" lon="1.17633">
        <ele>228</ele>
        <time>2024-09-25T13:40:33Z</time>
      </trkpt>
      <trkpt lat="45.80491" lon="1.17638">
        <ele>227.7</ele>
        <time>2024-09-25T13:40:34Z</time>
      </trkpt>
      <trkpt lat="45.80491" lon="1.17643">
        <ele>227.4</ele>
        <time>2024-09-25T13:40:36Z</time>
      </trkpt>
      <trkpt lat="45.80491" lon="1.17649">
        <ele>227.1</ele>
        <time>2024-09-25T13:40:47Z</time>
      </trkpt>
      <trkpt lat="45.80492" lon="1.17656">
        <ele>226.8</ele>
        <time>2024-09-25T13:40:49Z</time>
      </trkpt>
      <trkpt lat="45.80492" lon="1.17662">
        <ele>226.6</ele>
        <time>2024-09-25T13:40:50Z</time>
      </trkpt>
      <trkpt lat="45.80493" lon="1.17668">
        <ele>226.6</ele>
        <time>2024-09-25T13:40:51Z</time>
      </trkpt>
      <trkpt lat="45.80493" lon="1.17673">
        <ele>226.6</ele>
        <time>2024-09-25T13:40:52Z</time>
      </trkpt>
      <trkpt lat="45.80493" lon="1.17679">
        <ele>226.6</ele>
        <time>2024-09-25T13:40:54Z</time>
      </trkpt>
      <trkpt lat="45.80492" lon="1.17685">
        <ele>226.7</ele>
        <time>2024-09-25T13:40:55Z</time>
      </trkpt>
      <trkpt lat="45.80492" lon="1.1769">
        <ele>226.7</ele>
        <time>2024-09-25T13:40:56Z</time>
      </trkpt>
      <trkpt lat="45.80492" lon="1.17695">
        <ele>226.7</ele>
        <time>2024-09-25T13:40:57Z</time>
      </trkpt>
      <trkpt lat="45.80493" lon="1.177">
        <ele>226.7</ele>
        <time>2024-09-25T13:40:58Z</time>
      </trkpt>
      <trkpt lat="45.80494" lon="1.17705">
        <ele>226.7</ele>
        <time>2024-09-25T13:40:59Z</time>
      </trkpt>
      <trkpt lat="45.80494" lon="1.1771">
        <ele>226.8</ele>
        <time>2024-09-25T13:41:00Z</time>
      </trkpt>
      <trkpt lat="45.80494" lon="1.17715">
        <ele>226.8</ele>
        <time>2024-09-25T13:41:01Z</time>
      </trkpt>
      <trkpt lat="45.80494" lon="1.17722">
        <ele>226.8</ele>
        <time>2024-09-25T13:41:03Z</time>
      </trkpt>
      <trkpt lat="45.80494" lon="1.17727">
        <ele>226.8</ele>
        <time>2024-09-25T13:41:04Z</time>
      </trkpt>
      <trkpt lat="45.80493" lon="1.17732">
        <ele>226.9</ele>
        <time>2024-09-25T13:41:05Z</time>
      </trkpt>
      <trkpt lat="45.80492" lon="1.17739">
        <ele>226.9</ele>
        <time>2024-09-25T13:41:06Z</time>
      </trkpt>
      <trkpt lat="45.80492" lon="1.17745">
        <ele>227</ele>
        <time>2024-09-25T13:41:07Z</time>
      </trkpt>
      <trkpt lat="45.80491" lon="1.17752">
        <ele>227</ele>
        <time>2024-09-25T13:41:08Z</time>
      </trkpt>
      <trkpt lat="45.80489" lon="1.17758">
        <ele>227.1</ele>
        <time>2024-09-25T13:41:09Z</time>
      </trkpt>
      <trkpt lat="45.80488" lon="1.17762">
        <ele>227.1</ele>
        <time>2024-09-25T13:41:10Z</time>
      </trkpt>
      <trkpt lat="45.80486" lon="1.17768">
        <ele>227.2</ele>
        <time>2024-09-25T13:41:11Z</time>
      </trkpt>
      <trkpt lat="45.80484" lon="1.17773">
        <ele>227.3</ele>
        <time>2024-09-25T13:41:12Z</time>
      </trkpt>
      <trkpt lat="45.80483" lon="1.17779">
        <ele>227.3</ele>
        <time>2024-09-25T13:41:13Z</time>
      </trkpt>
      <trkpt lat="45.80481" lon="1.17784">
        <ele>227.4</ele>
        <time>2024-09-25T13:41:14Z</time>
      </trkpt>
      <trkpt lat="45.8048" lon="1.1779">
        <ele>227.5</ele>
        <time>2024-09-25T13:41:15Z</time>
      </trkpt>
      <trkpt lat="45.80478" lon="1.17795">
        <ele>227.5</ele>
        <time>2024-09-25T13:41:16Z</time>
      </trkpt>
      <trkpt lat="45.80477" lon="1.178">
        <ele>227.6</ele>
        <time>2024-09-25T13:41:17Z</time>
      </trkpt>
      <trkpt lat="45.80475" lon="1.17804">
        <ele>227.7</ele>
        <time>2024-09-25T13:41:18Z</time>
      </trkpt>
      <trkpt lat="45.80473" lon="1.17809">
        <ele>227.8</ele>
        <time>2024-09-25T13:41:19Z</time>
      </trkpt>
      <trkpt lat="45.80471" lon="1.17813">
        <ele>227.8</ele>
        <time>2024-09-25T13:41:20Z</time>
      </trkpt>
      <trkpt lat="45.80469" lon="1.17817">
        <ele>227.9</ele>
        <time>2024-09-25T13:41:21Z</time>
      </trkpt>
      <trkpt lat="45.80467" lon="1.1782">
        <ele>228</ele>
        <time>2024-09-25T13:41:22Z</time>
      </trkpt>
      <trkpt lat="45.80465" lon="1.17823">
        <ele>228</ele>
        <time>2024-09-25T13:41:23Z</time>
      </trkpt>
      <trkpt lat="45.80462" lon="1.17825">
        <ele>228.1</ele>
        <time>2024-09-25T13:41:25Z</time>
      </trkpt>
      <trkpt lat="45.80459" lon="1.17825">
        <ele>228</ele>
        <time>2024-09-25T13:41:26Z</time>
      </trkpt>
      <trkpt lat="45.80456" lon="1.17824">
        <ele>227.8</ele>
        <time>2024-09-25T13:41:27Z</time>
      </trkpt>
      <trkpt lat="45.80452" lon="1.17823">
        <ele>227.5</ele>
        <time>2024-09-25T13:41:28Z</time>
      </trkpt>
      <trkpt lat="45.80448" lon="1.17823">
        <ele>227.2</ele>
        <time>2024-09-25T13:41:29Z</time>
      </trkpt>
      <trkpt lat="45.80443" lon="1.17823">
        <ele>226.8</ele>
        <time>2024-09-25T13:41:30Z</time>
      </trkpt>
      <trkpt lat="45.80438" lon="1.17823">
        <ele>226.6</ele>
        <time>2024-09-25T13:41:31Z</time>
      </trkpt>
      <trkpt lat="45.80433" lon="1.17823">
        <ele>226.4</ele>
        <time>2024-09-25T13:41:32Z</time>
      </trkpt>
      <trkpt lat="45.80428" lon="1.17824">
        <ele>226.3</ele>
        <time>2024-09-25T13:41:33Z</time>
      </trkpt>
      <trkpt lat="45.80424" lon="1.17827">
        <ele>226.3</ele>
        <time>2024-09-25T13:41:34Z</time>
      </trkpt>
      <trkpt lat="45.8042" lon="1.17829">
        <ele>226.3</ele>
        <time>2024-09-25T13:41:35Z</time>
      </trkpt>
      <trkpt lat="45.80417" lon="1.17833">
        <ele>226.3</ele>
        <time>2024-09-25T13:41:36Z</time>
      </trkpt>
      <trkpt lat="45.80416" lon="1.17837">
        <ele>226.3</ele>
        <time>2024-09-25T13:41:37Z</time>
      </trkpt>
      <trkpt lat="45.80413" lon="1.17841">
        <ele>226.3</ele>
        <time>2024-09-25T13:41:38Z</time>
      </trkpt>
      <trkpt lat="45.80411" lon="1.17845">
        <ele>226.3</ele>
        <time>2024-09-25T13:41:39Z</time>
      </trkpt>
      <trkpt lat="45.80408" lon="1.17849">
        <ele>226.3</ele>
        <time>2024-09-25T13:41:40Z</time>
      </trkpt>
      <trkpt lat="45.80405" lon="1.17852">
        <ele>226.3</ele>
        <time>2024-09-25T13:41:41Z</time>
      </trkpt>
      <trkpt lat="45.80402" lon="1.17855">
        <ele>226.3</ele>
        <time>2024-09-25T13:41:42Z</time>
      </trkpt>
      <trkpt lat="45.80396" lon="1.17859">
        <ele>226.3</ele>
        <time>2024-09-25T13:41:43Z</time>
      </trkpt>
      <trkpt lat="45.80392" lon="1.17863">
        <ele>226.3</ele>
        <time>2024-09-25T13:41:44Z</time>
      </trkpt>
      <trkpt lat="45.80388" lon="1.17867">
        <ele>226.3</ele>
        <time>2024-09-25T13:41:45Z</time>
      </trkpt>
      <trkpt lat="45.80384" lon="1.17871">
        <ele>226.3</ele>
        <time>2024-09-25T13:41:46Z</time>
      </trkpt>
      <trkpt lat="45.8038" lon="1.17874">
        <ele>226.3</ele>
        <time>2024-09-25T13:41:47Z</time>
      </trkpt>
      <trkpt lat="45.80377" lon="1.17876">
        <ele>226.3</ele>
        <time>2024-09-25T13:41:48Z</time>
      </trkpt>
      <trkpt lat="45.80374" lon="1.17878">
        <ele>226.2</ele>
        <time>2024-09-25T13:41:49Z</time>
      </trkpt>
      <trkpt lat="45.8037" lon="1.1788">
        <ele>226.2</ele>
        <time>2024-09-25T13:41:50Z</time>
      </trkpt>
      <trkpt lat="45.80366" lon="1.17881">
        <ele>226.1</ele>
        <time>2024-09-25T13:41:51Z</time>
      </trkpt>
      <trkpt lat="45.80363" lon="1.17883">
        <ele>226.1</ele>
        <time>2024-09-25T13:41:52Z</time>
      </trkpt>
      <trkpt lat="45.80359" lon="1.17884">
        <ele>226.1</ele>
        <time>2024-09-25T13:41:53Z</time>
      </trkpt>
      <trkpt lat="45.80355" lon="1.17886">
        <ele>226</ele>
        <time>2024-09-25T13:41:54Z</time>
      </trkpt>
      <trkpt lat="45.80351" lon="1.17888">
        <ele>226</ele>
        <time>2024-09-25T13:41:55Z</time>
      </trkpt>
      <trkpt lat="45.80345" lon="1.17889">
        <ele>226</ele>
        <time>2024-09-25T13:41:57Z</time>
      </trkpt>
      <trkpt lat="45.80341" lon="1.17888">
        <ele>226</ele>
        <time>2024-09-25T13:41:58Z</time>
      </trkpt>
      <trkpt lat="45.80338" lon="1.17888">
        <ele>226.1</ele>
        <time>2024-09-25T13:41:59Z</time>
      </trkpt>
      <trkpt lat="45.80333" lon="1.17887">
        <ele>226.1</ele>
        <time>2024-09-25T13:42:00Z</time>
      </trkpt>
      <trkpt lat="45.80329" lon="1.17887">
        <ele>226.1</ele>
        <time>2024-09-25T13:42:01Z</time>
      </trkpt>
      <trkpt lat="45.80324" lon="1.17886">
        <ele>226.2</ele>
        <time>2024-09-25T13:42:02Z</time>
      </trkpt>
      <trkpt lat="45.80319" lon="1.17885">
        <ele>226.3</ele>
        <time>2024-09-25T13:42:03Z</time>
      </trkpt>
      <trkpt lat="45.80314" lon="1.17886">
        <ele>226.4</ele>
        <time>2024-09-25T13:42:04Z</time>
      </trkpt>
      <trkpt lat="45.8031" lon="1.17886">
        <ele>226.4</ele>
        <time>2024-09-25T13:42:05Z</time>
      </trkpt>
      <trkpt lat="45.80305" lon="1.17886">
        <ele>226.5</ele>
        <time>2024-09-25T13:42:06Z</time>
      </trkpt>
      <trkpt lat="45.80301" lon="1.17886">
        <ele>226.5</ele>
        <time>2024-09-25T13:42:07Z</time>
      </trkpt>
      <trkpt lat="45.80297" lon="1.17887">
        <ele>226.5</ele>
        <time>2024-09-25T13:42:08Z</time>
      </trkpt>
      <trkpt lat="45.80294" lon="1.17889">
        <ele>226.5</ele>
        <time>2024-09-25T13:42:09Z</time>
      </trkpt>
      <trkpt lat="45.80288" lon="1.17891">
        <ele>226.5</ele>
        <time>2024-09-25T13:42:10Z</time>
      </trkpt>
      <trkpt lat="45.80286" lon="1.17894">
        <ele>226.5</ele>
        <time>2024-09-25T13:42:11Z</time>
      </trkpt>
      <trkpt lat="45.80284" lon="1.17899">
        <ele>226.5</ele>
        <time>2024-09-25T13:42:12Z</time>
      </trkpt>
      <trkpt lat="45.80281" lon="1.17906">
        <ele>226.5</ele>
        <time>2024-09-25T13:42:14Z</time>
      </trkpt>
      <trkpt lat="45.80279" lon="1.17911">
        <ele>226.5</ele>
        <time>2024-09-25T13:42:15Z</time>
      </trkpt>
      <trkpt lat="45.80276" lon="1.17916">
        <ele>226.6</ele>
        <time>2024-09-25T13:42:16Z</time>
      </trkpt>
      <trkpt lat="45.80272" lon="1.17921">
        <ele>226.6</ele>
        <time>2024-09-25T13:42:18Z</time>
      </trkpt>
      <trkpt lat="45.80269" lon="1.17925">
        <ele>226.7</ele>
        <time>2024-09-25T13:42:19Z</time>
      </trkpt>
      <trkpt lat="45.80267" lon="1.17931">
        <ele>226.7</ele>
        <time>2024-09-25T13:42:20Z</time>
      </trkpt>
      <trkpt lat="45.80266" lon="1.17936">
        <ele>226.8</ele>
        <time>2024-09-25T13:42:21Z</time>
      </trkpt>
      <trkpt lat="45.80265" lon="1.17941">
        <ele>226.8</ele>
        <time>2024-09-25T13:42:22Z</time>
      </trkpt>
      <trkpt lat="45.80264" lon="1.17946">
        <ele>226.8</ele>
        <time>2024-09-25T13:42:23Z</time>
      </trkpt>
      <trkpt lat="45.80263" lon="1.1795">
        <ele>226.9</ele>
        <time>2024-09-25T13:42:24Z</time>
      </trkpt>
      <trkpt lat="45.80261" lon="1.17955">
        <ele>226.9</ele>
        <time>2024-09-25T13:42:25Z</time>
      </trkpt>
      <trkpt lat="45.80261" lon="1.1796">
        <ele>226.9</ele>
        <time>2024-09-25T13:42:26Z</time>
      </trkpt>
      <trkpt lat="45.80259" lon="1.17966">
        <ele>226.9</ele>
        <time>2024-09-25T13:42:28Z</time>
      </trkpt>
      <trkpt lat="45.80257" lon="1.17971">
        <ele>227</ele>
        <time>2024-09-25T13:42:29Z</time>
      </trkpt>
      <trkpt lat="45.80255" lon="1.17974">
        <ele>227</ele>
        <time>2024-09-25T13:42:30Z</time>
      </trkpt>
      <trkpt lat="45.80251" lon="1.17977">
        <ele>227</ele>
        <time>2024-09-25T13:42:32Z</time>
      </trkpt>
      <trkpt lat="45.80248" lon="1.17979">
        <ele>227</ele>
        <time>2024-09-25T13:42:33Z</time>
      </trkpt>
      <trkpt lat="45.80245" lon="1.17982">
        <ele>227</ele>
        <time>2024-09-25T13:42:34Z</time>
      </trkpt>
      <trkpt lat="45.80241" lon="1.17985">
        <ele>227</ele>
        <time>2024-09-25T13:42:35Z</time>
      </trkpt>
      <trkpt lat="45.80238" lon="1.17987">
        <ele>227</ele>
        <time>2024-09-25T13:42:36Z</time>
      </trkpt>
      <trkpt lat="45.80234" lon="1.17992">
        <ele>227</ele>
        <time>2024-09-25T13:42:38Z</time>
      </trkpt>
      <trkpt lat="45.80232" lon="1.17996">
        <ele>227</ele>
        <time>2024-09-25T13:42:39Z</time>
      </trkpt>
      <trkpt lat="45.8023" lon="1.18001">
        <ele>227</ele>
        <time>2024-09-25T13:42:40Z</time>
      </trkpt>
      <trkpt lat="45.80228" lon="1.18006">
        <ele>227</ele>
        <time>2024-09-25T13:42:41Z</time>
      </trkpt>
      <trkpt lat="45.80226" lon="1.1801">
        <ele>227.1</ele>
        <time>2024-09-25T13:42:42Z</time>
      </trkpt>
      <trkpt lat="45.80224" lon="1.18015">
        <ele>227.1</ele>
        <time>2024-09-25T13:42:43Z</time>
      </trkpt>
      <trkpt lat="45.80222" lon="1.18021">
        <ele>227.2</ele>
        <time>2024-09-25T13:42:44Z</time>
      </trkpt>
      <trkpt lat="45.8022" lon="1.18027">
        <ele>227.2</ele>
        <time>2024-09-25T13:42:45Z</time>
      </trkpt>
      <trkpt lat="45.80219" lon="1.18033">
        <ele>227.3</ele>
        <time>2024-09-25T13:42:46Z</time>
      </trkpt>
      <trkpt lat="45.80219" lon="1.18039">
        <ele>227.3</ele>
        <time>2024-09-25T13:42:47Z</time>
      </trkpt>
      <trkpt lat="45.80218" lon="1.18045">
        <ele>227.4</ele>
        <time>2024-09-25T13:42:48Z</time>
      </trkpt>
      <trkpt lat="45.80216" lon="1.1805">
        <ele>227.4</ele>
        <time>2024-09-25T13:42:49Z</time>
      </trkpt>
      <trkpt lat="45.80214" lon="1.18055">
        <ele>227.4</ele>
        <time>2024-09-25T13:42:50Z</time>
      </trkpt>
      <trkpt lat="45.80212" lon="1.1806">
        <ele>227.4</ele>
        <time>2024-09-25T13:42:51Z</time>
      </trkpt>
      <trkpt lat="45.80211" lon="1.18065">
        <ele>227.4</ele>
        <time>2024-09-25T13:42:52Z</time>
      </trkpt>
      <trkpt lat="45.80209" lon="1.1807">
        <ele>227.5</ele>
        <time>2024-09-25T13:42:53Z</time>
      </trkpt>
      <trkpt lat="45.80209" lon="1.18075">
        <ele>227.5</ele>
        <time>2024-09-25T13:42:54Z</time>
      </trkpt>
      <trkpt lat="45.80209" lon="1.18081">
        <ele>227.5</ele>
        <time>2024-09-25T13:42:55Z</time>
      </trkpt>
      <trkpt lat="45.80211" lon="1.18086">
        <ele>227.5</ele>
        <time>2024-09-25T13:42:56Z</time>
      </trkpt>
      <trkpt lat="45.80213" lon="1.18091">
        <ele>227.5</ele>
        <time>2024-09-25T13:42:57Z</time>
      </trkpt>
      <trkpt lat="45.80216" lon="1.18096">
        <ele>227.5</ele>
        <time>2024-09-25T13:42:58Z</time>
      </trkpt>
      <trkpt lat="45.80218" lon="1.18099">
        <ele>227.5</ele>
        <time>2024-09-25T13:42:59Z</time>
      </trkpt>
      <trkpt lat="45.8022" lon="1.18104">
        <ele>227.5</ele>
        <time>2024-09-25T13:43:00Z</time>
      </trkpt>
      <trkpt lat="45.80221" lon="1.18109">
        <ele>227.5</ele>
        <time>2024-09-25T13:43:01Z</time>
      </trkpt>
      <trkpt lat="45.80222" lon="1.18114">
        <ele>227.5</ele>
        <time>2024-09-25T13:43:02Z</time>
      </trkpt>
      <trkpt lat="45.80223" lon="1.1812">
        <ele>227.5</ele>
        <time>2024-09-25T13:43:03Z</time>
      </trkpt>
      <trkpt lat="45.80225" lon="1.18125">
        <ele>227.6</ele>
        <time>2024-09-25T13:43:04Z</time>
      </trkpt>
      <trkpt lat="45.80226" lon="1.1813">
        <ele>227.6</ele>
        <time>2024-09-25T13:43:05Z</time>
      </trkpt>
      <trkpt lat="45.80229" lon="1.18135">
        <ele>227.7</ele>
        <time>2024-09-25T13:43:06Z</time>
      </trkpt>
      <trkpt lat="45.80233" lon="1.18138">
        <ele>227.7</ele>
        <time>2024-09-25T13:43:07Z</time>
      </trkpt>
      <trkpt lat="45.80237" lon="1.1814">
        <ele>227.8</ele>
        <time>2024-09-25T13:43:08Z</time>
      </trkpt>
      <trkpt lat="45.8024" lon="1.18141">
        <ele>227.8</ele>
        <time>2024-09-25T13:43:09Z</time>
      </trkpt>
      <trkpt lat="45.80244" lon="1.18143">
        <ele>227.9</ele>
        <time>2024-09-25T13:43:10Z</time>
      </trkpt>
      <trkpt lat="45.80248" lon="1.18144">
        <ele>227.9</ele>
        <time>2024-09-25T13:43:11Z</time>
      </trkpt>
      <trkpt lat="45.80252" lon="1.18146">
        <ele>228</ele>
        <time>2024-09-25T13:43:12Z</time>
      </trkpt>
      <trkpt lat="45.80256" lon="1.18149">
        <ele>228</ele>
        <time>2024-09-25T13:43:14Z</time>
      </trkpt>
      <trkpt lat="45.8026" lon="1.18151">
        <ele>228</ele>
        <time>2024-09-25T13:43:15Z</time>
      </trkpt>
      <trkpt lat="45.80263" lon="1.18153">
        <ele>228</ele>
        <time>2024-09-25T13:43:16Z</time>
      </trkpt>
      <trkpt lat="45.80268" lon="1.18155">
        <ele>228.1</ele>
        <time>2024-09-25T13:43:17Z</time>
      </trkpt>
      <trkpt lat="45.80272" lon="1.18157">
        <ele>228.1</ele>
        <time>2024-09-25T13:43:18Z</time>
      </trkpt>
      <trkpt lat="45.80275" lon="1.18161">
        <ele>228.1</ele>
        <time>2024-09-25T13:43:19Z</time>
      </trkpt>
      <trkpt lat="45.80278" lon="1.18165">
        <ele>228.1</ele>
        <time>2024-09-25T13:43:20Z</time>
      </trkpt>
      <trkpt lat="45.80281" lon="1.18169">
        <ele>228.1</ele>
        <time>2024-09-25T13:43:21Z</time>
      </trkpt>
      <trkpt lat="45.80284" lon="1.18173">
        <ele>228.1</ele>
        <time>2024-09-25T13:43:22Z</time>
      </trkpt>
      <trkpt lat="45.80287" lon="1.18178">
        <ele>228.1</ele>
        <time>2024-09-25T13:43:23Z</time>
      </trkpt>
      <trkpt lat="45.80291" lon="1.18183">
        <ele>228.1</ele>
        <time>2024-09-25T13:43:24Z</time>
      </trkpt>
      <trkpt lat="45.80295" lon="1.1819">
        <ele>228.2</ele>
        <time>2024-09-25T13:43:25Z</time>
      </trkpt>
      <trkpt lat="45.80299" lon="1.18194">
        <ele>228.3</ele>
        <time>2024-09-25T13:43:26Z</time>
      </trkpt>
      <trkpt lat="45.80302" lon="1.18197">
        <ele>228.3</ele>
        <time>2024-09-25T13:43:27Z</time>
      </trkpt>
      <trkpt lat="45.80308" lon="1.18198">
        <ele>228.4</ele>
        <time>2024-09-25T13:43:29Z</time>
      </trkpt>
      <trkpt lat="45.80313" lon="1.18199">
        <ele>228.4</ele>
        <time>2024-09-25T13:43:30Z</time>
      </trkpt>
      <trkpt lat="45.80318" lon="1.18198">
        <ele>228.4</ele>
        <time>2024-09-25T13:43:31Z</time>
      </trkpt>
      <trkpt lat="45.80322" lon="1.18197">
        <ele>228.5</ele>
        <time>2024-09-25T13:43:32Z</time>
      </trkpt>
      <trkpt lat="45.80325" lon="1.18197">
        <ele>228.5</ele>
        <time>2024-09-25T13:43:33Z</time>
      </trkpt>
      <trkpt lat="45.80328" lon="1.18196">
        <ele>228.5</ele>
        <time>2024-09-25T13:43:34Z</time>
      </trkpt>
      <trkpt lat="45.80333" lon="1.18195">
        <ele>228.5</ele>
        <time>2024-09-25T13:43:36Z</time>
      </trkpt>
      <trkpt lat="45.80336" lon="1.18195">
        <ele>228.6</ele>
        <time>2024-09-25T13:43:37Z</time>
      </trkpt>
      <trkpt lat="45.80341" lon="1.18194">
        <ele>228.6</ele>
        <time>2024-09-25T13:43:39Z</time>
      </trkpt>
      <trkpt lat="45.80345" lon="1.18194">
        <ele>228.6</ele>
        <time>2024-09-25T13:43:40Z</time>
      </trkpt>
      <trkpt lat="45.80348" lon="1.18194">
        <ele>228.7</ele>
        <time>2024-09-25T13:43:41Z</time>
      </trkpt>
      <trkpt lat="45.80352" lon="1.18195">
        <ele>228.7</ele>
        <time>2024-09-25T13:43:42Z</time>
      </trkpt>
      <trkpt lat="45.80356" lon="1.18195">
        <ele>228.7</ele>
        <time>2024-09-25T13:43:43Z</time>
      </trkpt>
      <trkpt lat="45.8036" lon="1.18194">
        <ele>228.8</ele>
        <time>2024-09-25T13:43:44Z</time>
      </trkpt>
      <trkpt lat="45.80363" lon="1.18193">
        <ele>228.8</ele>
        <time>2024-09-25T13:43:45Z</time>
      </trkpt>
      <trkpt lat="45.80367" lon="1.18191">
        <ele>228.7</ele>
        <time>2024-09-25T13:43:46Z</time>
      </trkpt>
      <trkpt lat="45.80371" lon="1.18188">
        <ele>228.7</ele>
        <time>2024-09-25T13:43:47Z</time>
      </trkpt>
      <trkpt lat="45.80374" lon="1.18185">
        <ele>228.7</ele>
        <time>2024-09-25T13:43:48Z</time>
      </trkpt>
      <trkpt lat="45.80377" lon="1.18183">
        <ele>228.7</ele>
        <time>2024-09-25T13:43:49Z</time>
      </trkpt>
      <trkpt lat="45.80381" lon="1.1818">
        <ele>228.7</ele>
        <time>2024-09-25T13:43:50Z</time>
      </trkpt>
      <trkpt lat="45.80384" lon="1.18177">
        <ele>228.7</ele>
        <time>2024-09-25T13:43:51Z</time>
      </trkpt>
      <trkpt lat="45.80387" lon="1.18174">
        <ele>228.8</ele>
        <time>2024-09-25T13:43:52Z</time>
      </trkpt>
      <trkpt lat="45.8039" lon="1.1817">
        <ele>228.8</ele>
        <time>2024-09-25T13:43:53Z</time>
      </trkpt>
      <trkpt lat="45.80392" lon="1.18166">
        <ele>228.8</ele>
        <time>2024-09-25T13:43:54Z</time>
      </trkpt>
      <trkpt lat="45.80395" lon="1.18163">
        <ele>228.9</ele>
        <time>2024-09-25T13:43:55Z</time>
      </trkpt>
      <trkpt lat="45.80398" lon="1.1816">
        <ele>228.9</ele>
        <time>2024-09-25T13:43:57Z</time>
      </trkpt>
      <trkpt lat="45.80403" lon="1.18157">
        <ele>229</ele>
        <time>2024-09-25T13:43:59Z</time>
      </trkpt>
      <trkpt lat="45.80406" lon="1.18155">
        <ele>229.1</ele>
        <time>2024-09-25T13:44:00Z</time>
      </trkpt>
      <trkpt lat="45.80409" lon="1.18153">
        <ele>229.2</ele>
        <time>2024-09-25T13:44:01Z</time>
      </trkpt>
      <trkpt lat="45.80411" lon="1.1815">
        <ele>229.2</ele>
        <time>2024-09-25T13:44:02Z</time>
      </trkpt>
      <trkpt lat="45.80414" lon="1.18147">
        <ele>229.3</ele>
        <time>2024-09-25T13:44:03Z</time>
      </trkpt>
      <trkpt lat="45.80416" lon="1.18144">
        <ele>229.3</ele>
        <time>2024-09-25T13:44:04Z</time>
      </trkpt>
      <trkpt lat="45.80418" lon="1.1814">
        <ele>229.3</ele>
        <time>2024-09-25T13:44:05Z</time>
      </trkpt>
      <trkpt lat="45.8042" lon="1.18137">
        <ele>229.4</ele>
        <time>2024-09-25T13:44:06Z</time>
      </trkpt>
      <trkpt lat="45.80422" lon="1.18132">
        <ele>229.4</ele>
        <time>2024-09-25T13:44:07Z</time>
      </trkpt>
      <trkpt lat="45.80424" lon="1.18127">
        <ele>229.5</ele>
        <time>2024-09-25T13:44:08Z</time>
      </trkpt>
      <trkpt lat="45.80426" lon="1.18124">
        <ele>229.6</ele>
        <time>2024-09-25T13:44:09Z</time>
      </trkpt>
      <trkpt lat="45.80429" lon="1.18119">
        <ele>229.6</ele>
        <time>2024-09-25T13:44:11Z</time>
      </trkpt>
      <trkpt lat="45.80431" lon="1.18113">
        <ele>229.7</ele>
        <time>2024-09-25T13:44:12Z</time>
      </trkpt>
      <trkpt lat="45.80434" lon="1.18108">
        <ele>229.9</ele>
        <time>2024-09-25T13:44:13Z</time>
      </trkpt>
      <trkpt lat="45.80436" lon="1.18103">
        <ele>230</ele>
        <time>2024-09-25T13:44:14Z</time>
      </trkpt>
      <trkpt lat="45.80438" lon="1.18099">
        <ele>230.2</ele>
        <time>2024-09-25T13:44:15Z</time>
      </trkpt>
      <trkpt lat="45.80441" lon="1.18097">
        <ele>230.3</ele>
        <time>2024-09-25T13:44:16Z</time>
      </trkpt>
      <trkpt lat="45.80444" lon="1.18094">
        <ele>230.5</ele>
        <time>2024-09-25T13:44:17Z</time>
      </trkpt>
      <trkpt lat="45.80448" lon="1.18092">
        <ele>230.7</ele>
        <time>2024-09-25T13:44:18Z</time>
      </trkpt>
      <trkpt lat="45.80453" lon="1.18089">
        <ele>230.9</ele>
        <time>2024-09-25T13:44:19Z</time>
      </trkpt>
      <trkpt lat="45.80456" lon="1.18087">
        <ele>231</ele>
        <time>2024-09-25T13:44:20Z</time>
      </trkpt>
      <trkpt lat="45.8046" lon="1.18085">
        <ele>231</ele>
        <time>2024-09-25T13:44:21Z</time>
      </trkpt>
      <trkpt lat="45.80463" lon="1.18084">
        <ele>231.1</ele>
        <time>2024-09-25T13:44:22Z</time>
      </trkpt>
      <trkpt lat="45.80466" lon="1.18083">
        <ele>231.1</ele>
        <time>2024-09-25T13:44:24Z</time>
      </trkpt>
      <trkpt lat="45.8047" lon="1.18083">
        <ele>231.1</ele>
        <time>2024-09-25T13:44:29Z</time>
      </trkpt>
      <trkpt lat="45.80473" lon="1.18084">
        <ele>231.1</ele>
        <time>2024-09-25T13:44:31Z</time>
      </trkpt>
      <trkpt lat="45.80478" lon="1.18086">
        <ele>231</ele>
        <time>2024-09-25T13:44:33Z</time>
      </trkpt>
      <trkpt lat="45.80481" lon="1.18087">
        <ele>231</ele>
        <time>2024-09-25T13:44:34Z</time>
      </trkpt>
      <trkpt lat="45.80485" lon="1.18089">
        <ele>230.9</ele>
        <time>2024-09-25T13:44:35Z</time>
      </trkpt>
      <trkpt lat="45.80489" lon="1.18092">
        <ele>230.8</ele>
        <time>2024-09-25T13:44:37Z</time>
      </trkpt>
      <trkpt lat="45.80492" lon="1.18095">
        <ele>230.7</ele>
        <time>2024-09-25T13:44:38Z</time>
      </trkpt>
      <trkpt lat="45.80496" lon="1.18098">
        <ele>230.6</ele>
        <time>2024-09-25T13:44:39Z</time>
      </trkpt>
      <trkpt lat="45.80501" lon="1.18101">
        <ele>230.4</ele>
        <time>2024-09-25T13:44:40Z</time>
      </trkpt>
      <trkpt lat="45.80506" lon="1.18104">
        <ele>230.2</ele>
        <time>2024-09-25T13:44:41Z</time>
      </trkpt>
      <trkpt lat="45.8051" lon="1.18108">
        <ele>230.1</ele>
        <time>2024-09-25T13:44:42Z</time>
      </trkpt>
      <trkpt lat="45.80514" lon="1.18113">
        <ele>230</ele>
        <time>2024-09-25T13:44:43Z</time>
      </trkpt>
      <trkpt lat="45.80517" lon="1.18117">
        <ele>229.9</ele>
        <time>2024-09-25T13:44:44Z</time>
      </trkpt>
      <trkpt lat="45.8052" lon="1.18122">
        <ele>229.8</ele>
        <time>2024-09-25T13:44:45Z</time>
      </trkpt>
      <trkpt lat="45.80525" lon="1.1813">
        <ele>229.8</ele>
        <time>2024-09-25T13:44:46Z</time>
      </trkpt>
      <trkpt lat="45.80527" lon="1.18137">
        <ele>229.8</ele>
        <time>2024-09-25T13:44:47Z</time>
      </trkpt>
      <trkpt lat="45.8053" lon="1.1814">
        <ele>229.8</ele>
        <time>2024-09-25T13:44:48Z</time>
      </trkpt>
      <trkpt lat="45.80533" lon="1.18144">
        <ele>229.8</ele>
        <time>2024-09-25T13:44:49Z</time>
      </trkpt>
      <trkpt lat="45.80537" lon="1.18146">
        <ele>229.8</ele>
        <time>2024-09-25T13:44:50Z</time>
      </trkpt>
      <trkpt lat="45.80543" lon="1.18147">
        <ele>229.9</ele>
        <time>2024-09-25T13:44:51Z</time>
      </trkpt>
      <trkpt lat="45.80549" lon="1.18147">
        <ele>230</ele>
        <time>2024-09-25T13:44:52Z</time>
      </trkpt>
      <trkpt lat="45.80553" lon="1.18147">
        <ele>230</ele>
        <time>2024-09-25T13:44:53Z</time>
      </trkpt>
      <trkpt lat="45.80558" lon="1.18147">
        <ele>230</ele>
        <time>2024-09-25T13:44:55Z</time>
      </trkpt>
      <trkpt lat="45.80562" lon="1.18149">
        <ele>230.1</ele>
        <time>2024-09-25T13:44:56Z</time>
      </trkpt>
      <trkpt lat="45.80566" lon="1.18152">
        <ele>230.1</ele>
        <time>2024-09-25T13:44:57Z</time>
      </trkpt>
      <trkpt lat="45.80568" lon="1.18156">
        <ele>230.1</ele>
        <time>2024-09-25T13:44:58Z</time>
      </trkpt>
      <trkpt lat="45.8057" lon="1.1816">
        <ele>230.1</ele>
        <time>2024-09-25T13:44:59Z</time>
      </trkpt>
      <trkpt lat="45.80573" lon="1.18165">
        <ele>230.1</ele>
        <time>2024-09-25T13:45:00Z</time>
      </trkpt>
      <trkpt lat="45.80576" lon="1.1817">
        <ele>230.1</ele>
        <time>2024-09-25T13:45:01Z</time>
      </trkpt>
      <trkpt lat="45.80579" lon="1.18174">
        <ele>230.1</ele>
        <time>2024-09-25T13:45:02Z</time>
      </trkpt>
      <trkpt lat="45.80582" lon="1.18178">
        <ele>230.2</ele>
        <time>2024-09-25T13:45:03Z</time>
      </trkpt>
      <trkpt lat="45.80585" lon="1.18183">
        <ele>230.2</ele>
        <time>2024-09-25T13:45:04Z</time>
      </trkpt>
      <trkpt lat="45.80588" lon="1.18187">
        <ele>230.3</ele>
        <time>2024-09-25T13:45:05Z</time>
      </trkpt>
      <trkpt lat="45.80591" lon="1.18192">
        <ele>230.4</ele>
        <time>2024-09-25T13:45:06Z</time>
      </trkpt>
      <trkpt lat="45.80593" lon="1.18199">
        <ele>230.6</ele>
        <time>2024-09-25T13:45:08Z</time>
      </trkpt>
      <trkpt lat="45.80593" lon="1.18204">
        <ele>230.7</ele>
        <time>2024-09-25T13:45:09Z</time>
      </trkpt>
      <trkpt lat="45.80594" lon="1.18209">
        <ele>230.8</ele>
        <time>2024-09-25T13:45:10Z</time>
      </trkpt>
      <trkpt lat="45.80594" lon="1.18214">
        <ele>230.8</ele>
        <time>2024-09-25T13:45:11Z</time>
      </trkpt>
      <trkpt lat="45.80596" lon="1.18219">
        <ele>230.9</ele>
        <time>2024-09-25T13:45:13Z</time>
      </trkpt>
      <trkpt lat="45.80598" lon="1.18225">
        <ele>230.9</ele>
        <time>2024-09-25T13:45:14Z</time>
      </trkpt>
      <trkpt lat="45.806" lon="1.1823">
        <ele>231</ele>
        <time>2024-09-25T13:45:15Z</time>
      </trkpt>
      <trkpt lat="45.80602" lon="1.18235">
        <ele>231.1</ele>
        <time>2024-09-25T13:45:16Z</time>
      </trkpt>
      <trkpt lat="45.80604" lon="1.1824">
        <ele>231.2</ele>
        <time>2024-09-25T13:45:17Z</time>
      </trkpt>
      <trkpt lat="45.80604" lon="1.18245">
        <ele>231.3</ele>
        <time>2024-09-25T13:45:19Z</time>
      </trkpt>
      <trkpt lat="45.80604" lon="1.18252">
        <ele>231.6</ele>
        <time>2024-09-25T13:45:21Z</time>
      </trkpt>
      <trkpt lat="45.80605" lon="1.18257">
        <ele>231.8</ele>
        <time>2024-09-25T13:45:22Z</time>
      </trkpt>
      <trkpt lat="45.80605" lon="1.18263">
        <ele>232</ele>
        <time>2024-09-25T13:45:23Z</time>
      </trkpt>
      <trkpt lat="45.80604" lon="1.18268">
        <ele>232.2</ele>
        <time>2024-09-25T13:45:24Z</time>
      </trkpt>
      <trkpt lat="45.80603" lon="1.18274">
        <ele>232.2</ele>
        <time>2024-09-25T13:45:25Z</time>
      </trkpt>
      <trkpt lat="45.80604" lon="1.1828">
        <ele>232</ele>
        <time>2024-09-25T13:45:27Z</time>
      </trkpt>
      <trkpt lat="45.80605" lon="1.18285">
        <ele>231.9</ele>
        <time>2024-09-25T13:45:28Z</time>
      </trkpt>
      <trkpt lat="45.80606" lon="1.1829">
        <ele>231.7</ele>
        <time>2024-09-25T13:45:29Z</time>
      </trkpt>
      <trkpt lat="45.80607" lon="1.18295">
        <ele>231.5</ele>
        <time>2024-09-25T13:45:30Z</time>
      </trkpt>
      <trkpt lat="45.80609" lon="1.18299">
        <ele>231.4</ele>
        <time>2024-09-25T13:45:31Z</time>
      </trkpt>
      <trkpt lat="45.8061" lon="1.18304">
        <ele>231.2</ele>
        <time>2024-09-25T13:45:33Z</time>
      </trkpt>
      <trkpt lat="45.80611" lon="1.18309">
        <ele>231.1</ele>
        <time>2024-09-25T13:45:35Z</time>
      </trkpt>
      <trkpt lat="45.80611" lon="1.18316">
        <ele>231.1</ele>
        <time>2024-09-25T13:45:37Z</time>
      </trkpt>
      <trkpt lat="45.80611" lon="1.18322">
        <ele>231.1</ele>
        <time>2024-09-25T13:45:38Z</time>
      </trkpt>
      <trkpt lat="45.80612" lon="1.18327">
        <ele>231.1</ele>
        <time>2024-09-25T13:45:39Z</time>
      </trkpt>
      <trkpt lat="45.80612" lon="1.18332">
        <ele>231.1</ele>
        <time>2024-09-25T13:45:40Z</time>
      </trkpt>
      <trkpt lat="45.80613" lon="1.18337">
        <ele>231.1</ele>
        <time>2024-09-25T13:45:41Z</time>
      </trkpt>
      <trkpt lat="45.80613" lon="1.18341">
        <ele>231.1</ele>
        <time>2024-09-25T13:45:42Z</time>
      </trkpt>
      <trkpt lat="45.80613" lon="1.18346">
        <ele>231.2</ele>
        <time>2024-09-25T13:45:43Z</time>
      </trkpt>
      <trkpt lat="45.80613" lon="1.18352">
        <ele>231.2</ele>
        <time>2024-09-25T13:45:44Z</time>
      </trkpt>
      <trkpt lat="45.80611" lon="1.18358">
        <ele>231.2</ele>
        <time>2024-09-25T13:45:45Z</time>
      </trkpt>
      <trkpt lat="45.80608" lon="1.18364">
        <ele>231.2</ele>
        <time>2024-09-25T13:45:46Z</time>
      </trkpt>
      <trkpt lat="45.80606" lon="1.1837">
        <ele>231.2</ele>
        <time>2024-09-25T13:45:47Z</time>
      </trkpt>
      <trkpt lat="45.80604" lon="1.18375">
        <ele>231.2</ele>
        <time>2024-09-25T13:45:48Z</time>
      </trkpt>
      <trkpt lat="45.80603" lon="1.18381">
        <ele>231.2</ele>
        <time>2024-09-25T13:45:49Z</time>
      </trkpt>
      <trkpt lat="45.80601" lon="1.18386">
        <ele>231.2</ele>
        <time>2024-09-25T13:45:50Z</time>
      </trkpt>
      <trkpt lat="45.806" lon="1.18391">
        <ele>231.2</ele>
        <time>2024-09-25T13:45:52Z</time>
      </trkpt>
      <trkpt lat="45.80599" lon="1.18396">
        <ele>231.2</ele>
        <time>2024-09-25T13:45:53Z</time>
      </trkpt>
      <trkpt lat="45.80597" lon="1.184">
        <ele>231.1</ele>
        <time>2024-09-25T13:45:54Z</time>
      </trkpt>
      <trkpt lat="45.80594" lon="1.18403">
        <ele>231.1</ele>
        <time>2024-09-25T13:45:56Z</time>
      </trkpt>
      <trkpt lat="45.80591" lon="1.18406">
        <ele>231</ele>
        <time>2024-09-25T13:45:58Z</time>
      </trkpt>
      <trkpt lat="45.80588" lon="1.18407">
        <ele>231</ele>
        <time>2024-09-25T13:46:00Z</time>
      </trkpt>
      <trkpt lat="45.80584" lon="1.18406">
        <ele>230.9</ele>
        <time>2024-09-25T13:46:02Z</time>
      </trkpt>
      <trkpt lat="45.80581" lon="1.18406">
        <ele>230.9</ele>
        <time>2024-09-25T13:46:06Z</time>
      </trkpt>
      <trkpt lat="45.80578" lon="1.18405">
        <ele>230.9</ele>
        <time>2024-09-25T13:46:16Z</time>
      </trkpt>
      <trkpt lat="45.80576" lon="1.18404">
        <ele>230.8</ele>
        <time>2024-09-25T13:46:24Z</time>
      </trkpt>
      <trkpt lat="45.80574" lon="1.18399">
        <ele>230.8</ele>
        <time>2024-09-25T13:46:26Z</time>
      </trkpt>
      <trkpt lat="45.80573" lon="1.18394">
        <ele>230.8</ele>
        <time>2024-09-25T13:46:28Z</time>
      </trkpt>
      <trkpt lat="45.80573" lon="1.18388">
        <ele>230.8</ele>
        <time>2024-09-25T13:46:31Z</time>
      </trkpt>
      <trkpt lat="45.80573" lon="1.18383">
        <ele>230.8</ele>
        <time>2024-09-25T13:46:32Z</time>
      </trkpt>
      <trkpt lat="45.80573" lon="1.18378">
        <ele>230.8</ele>
        <time>2024-09-25T13:46:33Z</time>
      </trkpt>
      <trkpt lat="45.80573" lon="1.18374">
        <ele>230.8</ele>
        <time>2024-09-25T13:46:34Z</time>
      </trkpt>
      <trkpt lat="45.80573" lon="1.18367">
        <ele>230.8</ele>
        <time>2024-09-25T13:46:36Z</time>
      </trkpt>
      <trkpt lat="45.80572" lon="1.18361">
        <ele>230.9</ele>
        <time>2024-09-25T13:46:38Z</time>
      </trkpt>
      <trkpt lat="45.80571" lon="1.18353">
        <ele>230.9</ele>
        <time>2024-09-25T13:46:40Z</time>
      </trkpt>
      <trkpt lat="45.8057" lon="1.18348">
        <ele>230.9</ele>
        <time>2024-09-25T13:46:41Z</time>
      </trkpt>
      <trkpt lat="45.80569" lon="1.18342">
        <ele>230.9</ele>
        <time>2024-09-25T13:46:43Z</time>
      </trkpt>
      <trkpt lat="45.80567" lon="1.18337">
        <ele>230.9</ele>
        <time>2024-09-25T13:46:44Z</time>
      </trkpt>
      <trkpt lat="45.80565" lon="1.18332">
        <ele>230.9</ele>
        <time>2024-09-25T13:46:45Z</time>
      </trkpt>
      <trkpt lat="45.80563" lon="1.18329">
        <ele>230.9</ele>
        <time>2024-09-25T13:46:46Z</time>
      </trkpt>
      <trkpt lat="45.80561" lon="1.18325">
        <ele>230.9</ele>
        <time>2024-09-25T13:46:47Z</time>
      </trkpt>
      <trkpt lat="45.80559" lon="1.18321">
        <ele>230.9</ele>
        <time>2024-09-25T13:46:49Z</time>
      </trkpt>
      <trkpt lat="45.80559" lon="1.18314">
        <ele>230.9</ele>
        <time>2024-09-25T13:46:51Z</time>
      </trkpt>
      <trkpt lat="45.8056" lon="1.18309">
        <ele>230.9</ele>
        <time>2024-09-25T13:46:52Z</time>
      </trkpt>
      <trkpt lat="45.80562" lon="1.18305">
        <ele>230.8</ele>
        <time>2024-09-25T13:46:53Z</time>
      </trkpt>
      <trkpt lat="45.80563" lon="1.183">
        <ele>230.8</ele>
        <time>2024-09-25T13:46:54Z</time>
      </trkpt>
      <trkpt lat="45.80565" lon="1.18295">
        <ele>230.8</ele>
        <time>2024-09-25T13:46:55Z</time>
      </trkpt>
      <trkpt lat="45.80566" lon="1.18291">
        <ele>230.7</ele>
        <time>2024-09-25T13:46:56Z</time>
      </trkpt>
      <trkpt lat="45.80567" lon="1.18286">
        <ele>230.7</ele>
        <time>2024-09-25T13:46:57Z</time>
      </trkpt>
      <trkpt lat="45.80569" lon="1.18281">
        <ele>230.7</ele>
        <time>2024-09-25T13:46:58Z</time>
      </trkpt>
      <trkpt lat="45.8057" lon="1.18276">
        <ele>230.6</ele>
        <time>2024-09-25T13:46:59Z</time>
      </trkpt>
      <trkpt lat="45.80573" lon="1.18272">
        <ele>230.6</ele>
        <time>2024-09-25T13:47:01Z</time>
      </trkpt>
      <trkpt lat="45.80575" lon="1.18268">
        <ele>230.6</ele>
        <time>2024-09-25T13:47:02Z</time>
      </trkpt>
      <trkpt lat="45.80575" lon="1.18263">
        <ele>230.5</ele>
        <time>2024-09-25T13:47:03Z</time>
      </trkpt>
      <trkpt lat="45.80575" lon="1.18259">
        <ele>230.5</ele>
        <time>2024-09-25T13:47:04Z</time>
      </trkpt>
      <trkpt lat="45.80574" lon="1.18254">
        <ele>230.5</ele>
        <time>2024-09-25T13:47:05Z</time>
      </trkpt>
      <trkpt lat="45.80572" lon="1.1825">
        <ele>230.4</ele>
        <time>2024-09-25T13:47:06Z</time>
      </trkpt>
      <trkpt lat="45.8057" lon="1.18245">
        <ele>230.4</ele>
        <time>2024-09-25T13:47:07Z</time>
      </trkpt>
      <trkpt lat="45.80568" lon="1.18241">
        <ele>230.3</ele>
        <time>2024-09-25T13:47:08Z</time>
      </trkpt>
      <trkpt lat="45.80565" lon="1.18237">
        <ele>230.3</ele>
        <time>2024-09-25T13:47:09Z</time>
      </trkpt>
      <trkpt lat="45.80564" lon="1.18233">
        <ele>230.2</ele>
        <time>2024-09-25T13:47:10Z</time>
      </trkpt>
      <trkpt lat="45.80562" lon="1.18229">
        <ele>230.2</ele>
        <time>2024-09-25T13:47:11Z</time>
      </trkpt>
      <trkpt lat="45.8056" lon="1.18226">
        <ele>230.2</ele>
        <time>2024-09-25T13:47:12Z</time>
      </trkpt>
      <trkpt lat="45.80558" lon="1.18223">
        <ele>230.2</ele>
        <time>2024-09-25T13:47:13Z</time>
      </trkpt>
      <trkpt lat="45.80555" lon="1.1822">
        <ele>230.1</ele>
        <time>2024-09-25T13:47:14Z</time>
      </trkpt>
      <trkpt lat="45.80553" lon="1.18218">
        <ele>230.1</ele>
        <time>2024-09-25T13:47:15Z</time>
      </trkpt>
      <trkpt lat="45.8055" lon="1.18213">
        <ele>230.1</ele>
        <time>2024-09-25T13:47:17Z</time>
      </trkpt>
      <trkpt lat="45.80548" lon="1.18208">
        <ele>230</ele>
        <time>2024-09-25T13:47:19Z</time>
      </trkpt>
      <trkpt lat="45.80546" lon="1.18203">
        <ele>230</ele>
        <time>2024-09-25T13:47:20Z</time>
      </trkpt>
      <trkpt lat="45.80544" lon="1.18199">
        <ele>230</ele>
        <time>2024-09-25T13:47:21Z</time>
      </trkpt>
      <trkpt lat="45.80542" lon="1.18196">
        <ele>230</ele>
        <time>2024-09-25T13:47:22Z</time>
      </trkpt>
      <trkpt lat="45.80539" lon="1.18192">
        <ele>230</ele>
        <time>2024-09-25T13:47:23Z</time>
      </trkpt>
      <trkpt lat="45.80537" lon="1.1819">
        <ele>230.1</ele>
        <time>2024-09-25T13:47:24Z</time>
      </trkpt>
      <trkpt lat="45.80534" lon="1.18186">
        <ele>230.1</ele>
        <time>2024-09-25T13:47:26Z</time>
      </trkpt>
      <trkpt lat="45.80531" lon="1.18182">
        <ele>230.1</ele>
        <time>2024-09-25T13:47:28Z</time>
      </trkpt>
      <trkpt lat="45.80528" lon="1.18177">
        <ele>230.2</ele>
        <time>2024-09-25T13:47:30Z</time>
      </trkpt>
      <trkpt lat="45.80525" lon="1.18172">
        <ele>230.2</ele>
        <time>2024-09-25T13:47:32Z</time>
      </trkpt>
      <trkpt lat="45.80523" lon="1.18168">
        <ele>230.1</ele>
        <time>2024-09-25T13:47:33Z</time>
      </trkpt>
      <trkpt lat="45.8052" lon="1.18165">
        <ele>230.1</ele>
        <time>2024-09-25T13:47:35Z</time>
      </trkpt>
      <trkpt lat="45.80518" lon="1.18162">
        <ele>230.1</ele>
        <time>2024-09-25T13:47:41Z</time>
      </trkpt>
      <trkpt lat="45.80515" lon="1.1816">
        <ele>230.1</ele>
        <time>2024-09-25T13:47:48Z</time>
      </trkpt>
      <trkpt lat="45.80511" lon="1.18159">
        <ele>230</ele>
        <time>2024-09-25T13:47:50Z</time>
      </trkpt>
      <trkpt lat="45.80507" lon="1.18159">
        <ele>230</ele>
        <time>2024-09-25T13:47:51Z</time>
      </trkpt>
      <trkpt lat="45.80503" lon="1.18158">
        <ele>230</ele>
        <time>2024-09-25T13:47:52Z</time>
      </trkpt>
      <trkpt lat="45.805" lon="1.18156">
        <ele>229.9</ele>
        <time>2024-09-25T13:47:53Z</time>
      </trkpt>
      <trkpt lat="45.80497" lon="1.18151">
        <ele>229.9</ele>
        <time>2024-09-25T13:47:55Z</time>
      </trkpt>
      <trkpt lat="45.80495" lon="1.18147">
        <ele>229.9</ele>
        <time>2024-09-25T13:47:56Z</time>
      </trkpt>
      <trkpt lat="45.80493" lon="1.18143">
        <ele>229.9</ele>
        <time>2024-09-25T13:47:57Z</time>
      </trkpt>
      <trkpt lat="45.80491" lon="1.18139">
        <ele>229.9</ele>
        <time>2024-09-25T13:47:58Z</time>
      </trkpt>
      <trkpt lat="45.80489" lon="1.18136">
        <ele>229.9</ele>
        <time>2024-09-25T13:47:59Z</time>
      </trkpt>
      <trkpt lat="45.80485" lon="1.18132">
        <ele>229.9</ele>
        <time>2024-09-25T13:48:01Z</time>
      </trkpt>
      <trkpt lat="45.80482" lon="1.1813">
        <ele>229.9</ele>
        <time>2024-09-25T13:48:02Z</time>
      </trkpt>
      <trkpt lat="45.80479" lon="1.1813">
        <ele>229.9</ele>
        <time>2024-09-25T13:48:03Z</time>
      </trkpt>
      <trkpt lat="45.80476" lon="1.18131">
        <ele>230</ele>
        <time>2024-09-25T13:48:04Z</time>
      </trkpt>
      <trkpt lat="45.80473" lon="1.18131">
        <ele>230</ele>
        <time>2024-09-25T13:48:05Z</time>
      </trkpt>
      <trkpt lat="45.8047" lon="1.18131">
        <ele>230</ele>
        <time>2024-09-25T13:48:06Z</time>
      </trkpt>
      <trkpt lat="45.80467" lon="1.18128">
        <ele>230</ele>
        <time>2024-09-25T13:48:08Z</time>
      </trkpt>
      <trkpt lat="45.80465" lon="1.18124">
        <ele>230</ele>
        <time>2024-09-25T13:48:10Z</time>
      </trkpt>
      <trkpt lat="45.80462" lon="1.18121">
        <ele>230</ele>
        <time>2024-09-25T13:48:12Z</time>
      </trkpt>
      <trkpt lat="45.80459" lon="1.18122">
        <ele>230</ele>
        <time>2024-09-25T13:48:15Z</time>
      </trkpt>
      <trkpt lat="45.80457" lon="1.18126">
        <ele>230</ele>
        <time>2024-09-25T13:48:16Z</time>
      </trkpt>
      <trkpt lat="45.80455" lon="1.18131">
        <ele>229.9</ele>
        <time>2024-09-25T13:48:18Z</time>
      </trkpt>
      <trkpt lat="45.80454" lon="1.18136">
        <ele>229.9</ele>
        <time>2024-09-25T13:48:19Z</time>
      </trkpt>
      <trkpt lat="45.80453" lon="1.18141">
        <ele>229.8</ele>
        <time>2024-09-25T13:48:20Z</time>
      </trkpt>
      <trkpt lat="45.80453" lon="1.18147">
        <ele>229.8</ele>
        <time>2024-09-25T13:48:21Z</time>
      </trkpt>
      <trkpt lat="45.80453" lon="1.18153">
        <ele>229.8</ele>
        <time>2024-09-25T13:48:22Z</time>
      </trkpt>
      <trkpt lat="45.80453" lon="1.18159">
        <ele>229.7</ele>
        <time>2024-09-25T13:48:23Z</time>
      </trkpt>
      <trkpt lat="45.80452" lon="1.18164">
        <ele>229.7</ele>
        <time>2024-09-25T13:48:25Z</time>
      </trkpt>
      <trkpt lat="45.80449" lon="1.18167">
        <ele>229.7</ele>
        <time>2024-09-25T13:48:26Z</time>
      </trkpt>
      <trkpt lat="45.80446" lon="1.1817">
        <ele>229.7</ele>
        <time>2024-09-25T13:48:27Z</time>
      </trkpt>
      <trkpt lat="45.80443" lon="1.18175">
        <ele>229.6</ele>
        <time>2024-09-25T13:48:29Z</time>
      </trkpt>
      <trkpt lat="45.8044" lon="1.18178">
        <ele>229.6</ele>
        <time>2024-09-25T13:48:30Z</time>
      </trkpt>
      <trkpt lat="45.80437" lon="1.1818">
        <ele>229.6</ele>
        <time>2024-09-25T13:48:31Z</time>
      </trkpt>
      <trkpt lat="45.80434" lon="1.18183">
        <ele>229.6</ele>
        <time>2024-09-25T13:48:33Z</time>
      </trkpt>
      <trkpt lat="45.80432" lon="1.18187">
        <ele>229.6</ele>
        <time>2024-09-25T13:48:34Z</time>
      </trkpt>
      <trkpt lat="45.80429" lon="1.18191">
        <ele>229.5</ele>
        <time>2024-09-25T13:48:36Z</time>
      </trkpt>
      <trkpt lat="45.80425" lon="1.18194">
        <ele>229.5</ele>
        <time>2024-09-25T13:48:38Z</time>
      </trkpt>
      <trkpt lat="45.80421" lon="1.18194">
        <ele>229.4</ele>
        <time>2024-09-25T13:48:40Z</time>
      </trkpt>
      <trkpt lat="45.80417" lon="1.18195">
        <ele>229.4</ele>
        <time>2024-09-25T13:48:42Z</time>
      </trkpt>
      <trkpt lat="45.80413" lon="1.18196">
        <ele>229.3</ele>
        <time>2024-09-25T13:48:44Z</time>
      </trkpt>
      <trkpt lat="45.80409" lon="1.18199">
        <ele>229.3</ele>
        <time>2024-09-25T13:48:46Z</time>
      </trkpt>
      <trkpt lat="45.80404" lon="1.182">
        <ele>229.3</ele>
        <time>2024-09-25T13:48:48Z</time>
      </trkpt>
      <trkpt lat="45.804" lon="1.182">
        <ele>229.3</ele>
        <time>2024-09-25T13:48:49Z</time>
      </trkpt>
      <trkpt lat="45.80395" lon="1.182">
        <ele>229.3</ele>
        <time>2024-09-25T13:48:51Z</time>
      </trkpt>
      <trkpt lat="45.80392" lon="1.182">
        <ele>229.3</ele>
        <time>2024-09-25T13:48:52Z</time>
      </trkpt>
      <trkpt lat="45.80388" lon="1.18199">
        <ele>229.3</ele>
        <time>2024-09-25T13:48:53Z</time>
      </trkpt>
      <trkpt lat="45.80383" lon="1.182">
        <ele>229.3</ele>
        <time>2024-09-25T13:48:55Z</time>
      </trkpt>
      <trkpt lat="45.80379" lon="1.182">
        <ele>229.3</ele>
        <time>2024-09-25T13:48:56Z</time>
      </trkpt>
      <trkpt lat="45.80376" lon="1.18202">
        <ele>229.3</ele>
        <time>2024-09-25T13:48:57Z</time>
      </trkpt>
      <trkpt lat="45.80373" lon="1.18203">
        <ele>229.3</ele>
        <time>2024-09-25T13:48:58Z</time>
      </trkpt>
      <trkpt lat="45.8037" lon="1.18205">
        <ele>229.3</ele>
        <time>2024-09-25T13:48:59Z</time>
      </trkpt>
      <trkpt lat="45.80367" lon="1.18208">
        <ele>229.3</ele>
        <time>2024-09-25T13:49:00Z</time>
      </trkpt>
      <trkpt lat="45.80364" lon="1.18212">
        <ele>229.2</ele>
        <time>2024-09-25T13:49:01Z</time>
      </trkpt>
      <trkpt lat="45.80362" lon="1.18216">
        <ele>229.2</ele>
        <time>2024-09-25T13:49:02Z</time>
      </trkpt>
      <trkpt lat="45.80359" lon="1.1822">
        <ele>229.2</ele>
        <time>2024-09-25T13:49:03Z</time>
      </trkpt>
      <trkpt lat="45.80357" lon="1.18224">
        <ele>229.2</ele>
        <time>2024-09-25T13:49:04Z</time>
      </trkpt>
      <trkpt lat="45.80354" lon="1.18228">
        <ele>229.2</ele>
        <time>2024-09-25T13:49:05Z</time>
      </trkpt>
      <trkpt lat="45.80352" lon="1.18231">
        <ele>229.2</ele>
        <time>2024-09-25T13:49:06Z</time>
      </trkpt>
      <trkpt lat="45.80348" lon="1.18233">
        <ele>229.2</ele>
        <time>2024-09-25T13:49:07Z</time>
      </trkpt>
      <trkpt lat="45.80343" lon="1.18232">
        <ele>229.2</ele>
        <time>2024-09-25T13:49:08Z</time>
      </trkpt>
      <trkpt lat="45.80339" lon="1.18231">
        <ele>229.2</ele>
        <time>2024-09-25T13:49:09Z</time>
      </trkpt>
      <trkpt lat="45.80335" lon="1.18231">
        <ele>229.3</ele>
        <time>2024-09-25T13:49:10Z</time>
      </trkpt>
      <trkpt lat="45.80333" lon="1.18231">
        <ele>229.3</ele>
        <time>2024-09-25T13:49:11Z</time>
      </trkpt>
      <trkpt lat="45.80329" lon="1.18232">
        <ele>229.4</ele>
        <time>2024-09-25T13:49:13Z</time>
      </trkpt>
      <trkpt lat="45.80325" lon="1.18234">
        <ele>229.5</ele>
        <time>2024-09-25T13:49:15Z</time>
      </trkpt>
      <trkpt lat="45.80321" lon="1.18237">
        <ele>229.7</ele>
        <time>2024-09-25T13:49:18Z</time>
      </trkpt>
      <trkpt lat="45.80319" lon="1.18241">
        <ele>229.9</ele>
        <time>2024-09-25T13:49:29Z</time>
      </trkpt>
      <trkpt lat="45.80318" lon="1.18244">
        <ele>230</ele>
        <time>2024-09-25T13:49:32Z</time>
      </trkpt>
      <trkpt lat="45.80318" lon="1.18248">
        <ele>230.1</ele>
        <time>2024-09-25T13:49:38Z</time>
      </trkpt>
      <trkpt lat="45.80316" lon="1.18251">
        <ele>230.3</ele>
        <time>2024-09-25T13:49:43Z</time>
      </trkpt>
      <trkpt lat="45.80314" lon="1.18256">
        <ele>230.6</ele>
        <time>2024-09-25T13:49:45Z</time>
      </trkpt>
      <trkpt lat="45.80312" lon="1.18259">
        <ele>230.9</ele>
        <time>2024-09-25T13:49:47Z</time>
      </trkpt>
      <trkpt lat="45.80309" lon="1.18263">
        <ele>231.2</ele>
        <time>2024-09-25T13:49:49Z</time>
      </trkpt>
      <trkpt lat="45.80306" lon="1.18265">
        <ele>231.4</ele>
        <time>2024-09-25T13:49:51Z</time>
      </trkpt>
      <trkpt lat="45.80302" lon="1.18267">
        <ele>231.6</ele>
        <time>2024-09-25T13:49:53Z</time>
      </trkpt>
      <trkpt lat="45.80298" lon="1.18268">
        <ele>231.7</ele>
        <time>2024-09-25T13:49:55Z</time>
      </trkpt>
      <trkpt lat="45.80295" lon="1.18268">
        <ele>231.8</ele>
        <time>2024-09-25T13:49:57Z</time>
      </trkpt>
      <trkpt lat="45.80292" lon="1.1827">
        <ele>231.8</ele>
        <time>2024-09-25T13:49:59Z</time>
      </trkpt>
      <trkpt lat="45.80289" lon="1.18271">
        <ele>231.9</ele>
        <time>2024-09-25T13:50:01Z</time>
      </trkpt>
      <trkpt lat="45.80286" lon="1.18274">
        <ele>232.1</ele>
        <time>2024-09-25T13:50:03Z</time>
      </trkpt>
      <trkpt lat="45.80282" lon="1.18276">
        <ele>232.3</ele>
        <time>2024-09-25T13:50:04Z</time>
      </trkpt>
      <trkpt lat="45.80279" lon="1.18277">
        <ele>232.6</ele>
        <time>2024-09-25T13:50:06Z</time>
      </trkpt>
      <trkpt lat="45.80276" lon="1.18277">
        <ele>232.8</ele>
        <time>2024-09-25T13:50:10Z</time>
      </trkpt>
      <trkpt lat="45.80272" lon="1.18276">
        <ele>233.2</ele>
        <time>2024-09-25T13:50:12Z</time>
      </trkpt>
      <trkpt lat="45.80268" lon="1.18274">
        <ele>233.6</ele>
        <time>2024-09-25T13:50:14Z</time>
      </trkpt>
      <trkpt lat="45.80265" lon="1.18272">
        <ele>233.9</ele>
        <time>2024-09-25T13:50:15Z</time>
      </trkpt>
      <trkpt lat="45.80262" lon="1.18271">
        <ele>234.1</ele>
        <time>2024-09-25T13:50:16Z</time>
      </trkpt>
      <trkpt lat="45.8026" lon="1.18269">
        <ele>234.3</ele>
        <time>2024-09-25T13:50:17Z</time>
      </trkpt>
      <trkpt lat="45.80257" lon="1.18267">
        <ele>234.6</ele>
        <time>2024-09-25T13:50:18Z</time>
      </trkpt>
      <trkpt lat="45.80254" lon="1.18264">
        <ele>234.9</ele>
        <time>2024-09-25T13:50:20Z</time>
      </trkpt>
      <trkpt lat="45.8025" lon="1.18263">
        <ele>235.2</ele>
        <time>2024-09-25T13:50:22Z</time>
      </trkpt>
      <trkpt lat="45.80246" lon="1.18264">
        <ele>235.6</ele>
        <time>2024-09-25T13:50:23Z</time>
      </trkpt>
      <trkpt lat="45.80243" lon="1.18264">
        <ele>235.9</ele>
        <time>2024-09-25T13:50:24Z</time>
      </trkpt>
      <trkpt lat="45.80238" lon="1.18265">
        <ele>236.4</ele>
        <time>2024-09-25T13:50:26Z</time>
      </trkpt>
      <trkpt lat="45.80235" lon="1.18265">
        <ele>236.6</ele>
        <time>2024-09-25T13:50:27Z</time>
      </trkpt>
      <trkpt lat="45.80231" lon="1.18262">
        <ele>237.1</ele>
        <time>2024-09-25T13:50:29Z</time>
      </trkpt>
      <trkpt lat="45.80226" lon="1.18258">
        <ele>237.6</ele>
        <time>2024-09-25T13:50:31Z</time>
      </trkpt>
      <trkpt lat="45.80222" lon="1.18255">
        <ele>238</ele>
        <time>2024-09-25T13:50:32Z</time>
      </trkpt>
      <trkpt lat="45.80217" lon="1.18254">
        <ele>238.5</ele>
        <time>2024-09-25T13:50:34Z</time>
      </trkpt>
      <trkpt lat="45.80214" lon="1.18254">
        <ele>238.8</ele>
        <time>2024-09-25T13:50:35Z</time>
      </trkpt>
      <trkpt lat="45.8021" lon="1.18253">
        <ele>239.3</ele>
        <time>2024-09-25T13:50:37Z</time>
      </trkpt>
      <trkpt lat="45.80207" lon="1.18251">
        <ele>239.8</ele>
        <time>2024-09-25T13:50:40Z</time>
      </trkpt>
      <trkpt lat="45.80204" lon="1.18248">
        <ele>240.4</ele>
        <time>2024-09-25T13:50:42Z</time>
      </trkpt>
      <trkpt lat="45.80201" lon="1.18247">
        <ele>240.9</ele>
        <time>2024-09-25T13:50:45Z</time>
      </trkpt>
      <trkpt lat="45.80199" lon="1.18248">
        <ele>241.3</ele>
        <time>2024-09-25T13:50:47Z</time>
      </trkpt>
      <trkpt lat="45.80195" lon="1.18249">
        <ele>242.2</ele>
        <time>2024-09-25T13:50:51Z</time>
      </trkpt>
      <trkpt lat="45.80193" lon="1.18247">
        <ele>242.7</ele>
        <time>2024-09-25T13:51:40Z</time>
      </trkpt>
      <trkpt lat="45.8019" lon="1.18246">
        <ele>243.4</ele>
        <time>2024-09-25T13:51:48Z</time>
      </trkpt>
      <trkpt lat="45.80187" lon="1.18246">
        <ele>244.1</ele>
        <time>2024-09-25T13:52:16Z</time>
      </trkpt>
      <trkpt lat="45.80184" lon="1.18247">
        <ele>244.9</ele>
        <time>2024-09-25T13:52:22Z</time>
      </trkpt>
      <trkpt lat="45.80181" lon="1.18246">
        <ele>245.6</ele>
        <time>2024-09-25T13:52:24Z</time>
      </trkpt>
      <trkpt lat="45.80178" lon="1.18243">
        <ele>246.3</ele>
        <time>2024-09-25T13:52:26Z</time>
      </trkpt>
      <trkpt lat="45.80175" lon="1.18241">
        <ele>247</ele>
        <time>2024-09-25T13:52:28Z</time>
      </trkpt>
      <trkpt lat="45.80172" lon="1.18239">
        <ele>247.6</ele>
        <time>2024-09-25T13:52:30Z</time>
      </trkpt>
      <trkpt lat="45.8017" lon="1.18235">
        <ele>248.2</ele>
        <time>2024-09-25T13:52:32Z</time>
      </trkpt>
      <trkpt lat="45.80167" lon="1.18232">
        <ele>248.9</ele>
        <time>2024-09-25T13:52:34Z</time>
      </trkpt>
      <trkpt lat="45.80164" lon="1.18228">
        <ele>249.5</ele>
        <time>2024-09-25T13:52:36Z</time>
      </trkpt>
      <trkpt lat="45.80162" lon="1.18224">
        <ele>250.1</ele>
        <time>2024-09-25T13:52:38Z</time>
      </trkpt>
      <trkpt lat="45.8016" lon="1.18222">
        <ele>250.4</ele>
        <time>2024-09-25T13:52:40Z</time>
      </trkpt>
      <trkpt lat="45.80157" lon="1.18219">
        <ele>251</ele>
        <time>2024-09-25T13:52:43Z</time>
      </trkpt>
      <trkpt lat="45.80154" lon="1.18216">
        <ele>251.6</ele>
        <time>2024-09-25T13:52:45Z</time>
      </trkpt>
      <trkpt lat="45.80151" lon="1.18213">
        <ele>252.1</ele>
        <time>2024-09-25T13:52:47Z</time>
      </trkpt>
      <trkpt lat="45.80148" lon="1.1821">
        <ele>252.7</ele>
        <time>2024-09-25T13:52:49Z</time>
      </trkpt>
      <trkpt lat="45.80143" lon="1.18207">
        <ele>253.5</ele>
        <time>2024-09-25T13:52:51Z</time>
      </trkpt>
      <trkpt lat="45.8014" lon="1.18202">
        <ele>254.2</ele>
        <time>2024-09-25T13:52:53Z</time>
      </trkpt>
      <trkpt lat="45.80136" lon="1.18199">
        <ele>255</ele>
        <time>2024-09-25T13:52:55Z</time>
      </trkpt>
      <trkpt lat="45.80132" lon="1.18198">
        <ele>255.7</ele>
        <time>2024-09-25T13:52:57Z</time>
      </trkpt>
      <trkpt lat="45.80128" lon="1.18197">
        <ele>256.6</ele>
        <time>2024-09-25T13:52:59Z</time>
      </trkpt>
      <trkpt lat="45.80124" lon="1.18198">
        <ele>257.5</ele>
        <time>2024-09-25T13:53:03Z</time>
      </trkpt>
      <trkpt lat="45.8012" lon="1.18198">
        <ele>258.5</ele>
        <time>2024-09-25T13:53:05Z</time>
      </trkpt>
      <trkpt lat="45.80117" lon="1.18198">
        <ele>259.3</ele>
        <time>2024-09-25T13:53:08Z</time>
      </trkpt>
      <trkpt lat="45.80113" lon="1.18199">
        <ele>260.3</ele>
        <time>2024-09-25T13:53:11Z</time>
      </trkpt>
      <trkpt lat="45.8011" lon="1.182">
        <ele>261.1</ele>
        <time>2024-09-25T13:53:13Z</time>
      </trkpt>
      <trkpt lat="45.80107" lon="1.18199">
        <ele>261.9</ele>
        <time>2024-09-25T13:53:16Z</time>
      </trkpt>
      <trkpt lat="45.80103" lon="1.18198">
        <ele>262.9</ele>
        <time>2024-09-25T13:53:18Z</time>
      </trkpt>
      <trkpt lat="45.801" lon="1.18196">
        <ele>263.6</ele>
        <time>2024-09-25T13:53:27Z</time>
      </trkpt>
      <trkpt lat="45.80097" lon="1.18196">
        <ele>264.3</ele>
        <time>2024-09-25T13:53:40Z</time>
      </trkpt>
      <trkpt lat="45.80098" lon="1.18196">
        <ele>264.3</ele>
        <time>2024-09-25T13:53:51Z</time>
      </trkpt>
      <trkpt lat="45.801" lon="1.182">
        <ele>264.3</ele>
        <time>2024-09-25T13:53:54Z</time>
      </trkpt>
      <trkpt lat="45.80101" lon="1.18208">
        <ele>264.2</ele>
        <time>2024-09-25T13:53:56Z</time>
      </trkpt>
      <trkpt lat="45.80102" lon="1.18216">
        <ele>264.2</ele>
        <time>2024-09-25T13:53:57Z</time>
      </trkpt>
      <trkpt lat="45.80102" lon="1.18223">
        <ele>264.2</ele>
        <time>2024-09-25T13:53:58Z</time>
      </trkpt>
      <trkpt lat="45.80101" lon="1.18229">
        <ele>264.2</ele>
        <time>2024-09-25T13:53:59Z</time>
      </trkpt>
      <trkpt lat="45.801" lon="1.18233">
        <ele>264.2</ele>
        <time>2024-09-25T13:54:00Z</time>
      </trkpt>
      <trkpt lat="45.801" lon="1.18238">
        <ele>264.2</ele>
        <time>2024-09-25T13:54:01Z</time>
      </trkpt>
      <trkpt lat="45.80101" lon="1.18242">
        <ele>264.2</ele>
        <time>2024-09-25T13:54:03Z</time>
      </trkpt>
      <trkpt lat="45.80101" lon="1.18248">
        <ele>264.3</ele>
        <time>2024-09-25T13:54:05Z</time>
      </trkpt>
      <trkpt lat="45.80099" lon="1.18253">
        <ele>264.5</ele>
        <time>2024-09-25T13:54:06Z</time>
      </trkpt>
      <trkpt lat="45.80097" lon="1.18257">
        <ele>264.6</ele>
        <time>2024-09-25T13:54:07Z</time>
      </trkpt>
      <trkpt lat="45.80096" lon="1.18261">
        <ele>264.7</ele>
        <time>2024-09-25T13:54:08Z</time>
      </trkpt>
      <trkpt lat="45.80094" lon="1.18265">
        <ele>264.8</ele>
        <time>2024-09-25T13:54:09Z</time>
      </trkpt>
      <trkpt lat="45.80093" lon="1.18269">
        <ele>264.9</ele>
        <time>2024-09-25T13:54:10Z</time>
      </trkpt>
      <trkpt lat="45.80092" lon="1.18273">
        <ele>265</ele>
        <time>2024-09-25T13:54:11Z</time>
      </trkpt>
      <trkpt lat="45.80091" lon="1.18277">
        <ele>265.1</ele>
        <time>2024-09-25T13:54:12Z</time>
      </trkpt>
      <trkpt lat="45.8009" lon="1.18281">
        <ele>265.1</ele>
        <time>2024-09-25T13:54:13Z</time>
      </trkpt>
      <trkpt lat="45.80089" lon="1.18285">
        <ele>265.2</ele>
        <time>2024-09-25T13:54:14Z</time>
      </trkpt>
      <trkpt lat="45.80088" lon="1.18289">
        <ele>265.3</ele>
        <time>2024-09-25T13:54:15Z</time>
      </trkpt>
      <trkpt lat="45.80087" lon="1.18293">
        <ele>265.4</ele>
        <time>2024-09-25T13:54:16Z</time>
      </trkpt>
      <trkpt lat="45.80086" lon="1.18297">
        <ele>265.5</ele>
        <time>2024-09-25T13:54:17Z</time>
      </trkpt>
      <trkpt lat="45.80086" lon="1.18301">
        <ele>265.6</ele>
        <time>2024-09-25T13:54:18Z</time>
      </trkpt>
      <trkpt lat="45.80086" lon="1.18305">
        <ele>265.7</ele>
        <time>2024-09-25T13:54:19Z</time>
      </trkpt>
      <trkpt lat="45.80085" lon="1.18309">
        <ele>265.8</ele>
        <time>2024-09-25T13:54:20Z</time>
      </trkpt>
      <trkpt lat="45.80085" lon="1.18315">
        <ele>265.9</ele>
        <time>2024-09-25T13:54:22Z</time>
      </trkpt>
      <trkpt lat="45.80085" lon="1.18322">
        <ele>266</ele>
        <time>2024-09-25T13:54:24Z</time>
      </trkpt>
      <trkpt lat="45.80084" lon="1.18327">
        <ele>266.2</ele>
        <time>2024-09-25T13:54:25Z</time>
      </trkpt>
      <trkpt lat="45.80084" lon="1.18332">
        <ele>266.3</ele>
        <time>2024-09-25T13:54:26Z</time>
      </trkpt>
      <trkpt lat="45.80084" lon="1.18336">
        <ele>266.4</ele>
        <time>2024-09-25T13:54:27Z</time>
      </trkpt>
      <trkpt lat="45.80084" lon="1.1834">
        <ele>266.5</ele>
        <time>2024-09-25T13:54:28Z</time>
      </trkpt>
      <trkpt lat="45.80085" lon="1.18344">
        <ele>266.6</ele>
        <time>2024-09-25T13:54:29Z</time>
      </trkpt>
      <trkpt lat="45.80084" lon="1.18348">
        <ele>266.7</ele>
        <time>2024-09-25T13:54:30Z</time>
      </trkpt>
      <trkpt lat="45.80084" lon="1.18353">
        <ele>266.8</ele>
        <time>2024-09-25T13:54:31Z</time>
      </trkpt>
      <trkpt lat="45.80083" lon="1.18359">
        <ele>266.9</ele>
        <time>2024-09-25T13:54:33Z</time>
      </trkpt>
      <trkpt lat="45.80082" lon="1.18364">
        <ele>267.1</ele>
        <time>2024-09-25T13:54:34Z</time>
      </trkpt>
      <trkpt lat="45.80082" lon="1.18368">
        <ele>267.2</ele>
        <time>2024-09-25T13:54:35Z</time>
      </trkpt>
      <trkpt lat="45.80082" lon="1.18372">
        <ele>267.3</ele>
        <time>2024-09-25T13:54:36Z</time>
      </trkpt>
      <trkpt lat="45.80081" lon="1.18376">
        <ele>267.4</ele>
        <time>2024-09-25T13:54:37Z</time>
      </trkpt>
      <trkpt lat="45.80081" lon="1.1838">
        <ele>267.5</ele>
        <time>2024-09-25T13:54:38Z</time>
      </trkpt>
      <trkpt lat="45.80081" lon="1.18384">
        <ele>267.6</ele>
        <time>2024-09-25T13:54:39Z</time>
      </trkpt>
      <trkpt lat="45.8008" lon="1.18389">
        <ele>267.8</ele>
        <time>2024-09-25T13:54:40Z</time>
      </trkpt>
      <trkpt lat="45.8008" lon="1.18393">
        <ele>267.9</ele>
        <time>2024-09-25T13:54:41Z</time>
      </trkpt>
      <trkpt lat="45.80079" lon="1.18399">
        <ele>268.1</ele>
        <time>2024-09-25T13:54:43Z</time>
      </trkpt>
      <trkpt lat="45.80078" lon="1.18406">
        <ele>268.3</ele>
        <time>2024-09-25T13:54:45Z</time>
      </trkpt>
      <trkpt lat="45.80078" lon="1.18413">
        <ele>268.6</ele>
        <time>2024-09-25T13:54:47Z</time>
      </trkpt>
      <trkpt lat="45.80077" lon="1.1842">
        <ele>268.9</ele>
        <time>2024-09-25T13:54:49Z</time>
      </trkpt>
      <trkpt lat="45.80076" lon="1.18425">
        <ele>269.1</ele>
        <time>2024-09-25T13:54:50Z</time>
      </trkpt>
      <trkpt lat="45.80076" lon="1.1843">
        <ele>269.3</ele>
        <time>2024-09-25T13:54:51Z</time>
      </trkpt>
      <trkpt lat="45.80075" lon="1.18434">
        <ele>269.4</ele>
        <time>2024-09-25T13:54:52Z</time>
      </trkpt>
      <trkpt lat="45.80075" lon="1.18439">
        <ele>269.6</ele>
        <time>2024-09-25T13:54:53Z</time>
      </trkpt>
      <trkpt lat="45.80074" lon="1.18443">
        <ele>269.7</ele>
        <time>2024-09-25T13:54:54Z</time>
      </trkpt>
      <trkpt lat="45.80074" lon="1.18447">
        <ele>269.8</ele>
        <time>2024-09-25T13:54:55Z</time>
      </trkpt>
      <trkpt lat="45.80073" lon="1.18451">
        <ele>270</ele>
        <time>2024-09-25T13:54:56Z</time>
      </trkpt>
      <trkpt lat="45.80072" lon="1.18455">
        <ele>270.1</ele>
        <time>2024-09-25T13:54:57Z</time>
      </trkpt>
      <trkpt lat="45.80072" lon="1.1846">
        <ele>270.3</ele>
        <time>2024-09-25T13:54:58Z</time>
      </trkpt>
      <trkpt lat="45.80071" lon="1.18465">
        <ele>270.4</ele>
        <time>2024-09-25T13:54:59Z</time>
      </trkpt>
      <trkpt lat="45.8007" lon="1.18469">
        <ele>270.6</ele>
        <time>2024-09-25T13:55:00Z</time>
      </trkpt>
      <trkpt lat="45.80069" lon="1.18473">
        <ele>270.7</ele>
        <time>2024-09-25T13:55:01Z</time>
      </trkpt>
      <trkpt lat="45.80068" lon="1.18477">
        <ele>270.8</ele>
        <time>2024-09-25T13:55:02Z</time>
      </trkpt>
      <trkpt lat="45.80067" lon="1.18481">
        <ele>271</ele>
        <time>2024-09-25T13:55:03Z</time>
      </trkpt>
      <trkpt lat="45.80066" lon="1.18485">
        <ele>271.1</ele>
        <time>2024-09-25T13:55:04Z</time>
      </trkpt>
      <trkpt lat="45.80065" lon="1.18489">
        <ele>271.3</ele>
        <time>2024-09-25T13:55:05Z</time>
      </trkpt>
      <trkpt lat="45.80063" lon="1.18493">
        <ele>271.5</ele>
        <time>2024-09-25T13:55:06Z</time>
      </trkpt>
      <trkpt lat="45.80062" lon="1.18497">
        <ele>271.7</ele>
        <time>2024-09-25T13:55:07Z</time>
      </trkpt>
      <trkpt lat="45.80061" lon="1.18501">
        <ele>271.9</ele>
        <time>2024-09-25T13:55:08Z</time>
      </trkpt>
      <trkpt lat="45.80059" lon="1.18505">
        <ele>272.2</ele>
        <time>2024-09-25T13:55:09Z</time>
      </trkpt>
      <trkpt lat="45.80058" lon="1.18508">
        <ele>272.4</ele>
        <time>2024-09-25T13:55:10Z</time>
      </trkpt>
      <trkpt lat="45.80056" lon="1.18514">
        <ele>272.8</ele>
        <time>2024-09-25T13:55:12Z</time>
      </trkpt>
      <trkpt lat="45.80053" lon="1.18517">
        <ele>273.1</ele>
        <time>2024-09-25T13:55:14Z</time>
      </trkpt>
      <trkpt lat="45.80049" lon="1.18519">
        <ele>273.5</ele>
        <time>2024-09-25T13:55:16Z</time>
      </trkpt>
      <trkpt lat="45.80045" lon="1.18518">
        <ele>273.6</ele>
        <time>2024-09-25T13:55:18Z</time>
      </trkpt>
      <trkpt lat="45.80042" lon="1.18517">
        <ele>274</ele>
        <time>2024-09-25T13:55:20Z</time>
      </trkpt>
      <trkpt lat="45.80038" lon="1.18515">
        <ele>274.7</ele>
        <time>2024-09-25T13:55:22Z</time>
      </trkpt>
      <trkpt lat="45.80036" lon="1.18514">
        <ele>275.1</ele>
        <time>2024-09-25T13:55:24Z</time>
      </trkpt>
      <trkpt lat="45.80032" lon="1.18513">
        <ele>275.9</ele>
        <time>2024-09-25T13:55:27Z</time>
      </trkpt>
      <trkpt lat="45.80029" lon="1.18511">
        <ele>276.6</ele>
        <time>2024-09-25T13:55:29Z</time>
      </trkpt>
      <trkpt lat="45.80026" lon="1.18509">
        <ele>277.2</ele>
        <time>2024-09-25T13:55:31Z</time>
      </trkpt>
      <trkpt lat="45.80022" lon="1.18506">
        <ele>278.1</ele>
        <time>2024-09-25T13:55:33Z</time>
      </trkpt>
      <trkpt lat="45.8002" lon="1.18504">
        <ele>278.6</ele>
        <time>2024-09-25T13:55:35Z</time>
      </trkpt>
      <trkpt lat="45.80017" lon="1.18501">
        <ele>279.3</ele>
        <time>2024-09-25T13:55:38Z</time>
      </trkpt>
      <trkpt lat="45.80014" lon="1.18497">
        <ele>280.1</ele>
        <time>2024-09-25T13:55:42Z</time>
      </trkpt>
      <trkpt lat="45.80011" lon="1.18494">
        <ele>280.8</ele>
        <time>2024-09-25T13:55:44Z</time>
      </trkpt>
      <trkpt lat="45.80009" lon="1.1849">
        <ele>281.5</ele>
        <time>2024-09-25T13:55:48Z</time>
      </trkpt>
      <trkpt lat="45.80007" lon="1.18487">
        <ele>282.1</ele>
        <time>2024-09-25T13:55:51Z</time>
      </trkpt>
      <trkpt lat="45.80005" lon="1.18484">
        <ele>282.7</ele>
        <time>2024-09-25T13:55:53Z</time>
      </trkpt>
      <trkpt lat="45.80002" lon="1.1848">
        <ele>283.6</ele>
        <time>2024-09-25T13:55:55Z</time>
      </trkpt>
      <trkpt lat="45.8" lon="1.18476">
        <ele>284.3</ele>
        <time>2024-09-25T13:55:57Z</time>
      </trkpt>
      <trkpt lat="45.79997" lon="1.18473">
        <ele>285.1</ele>
        <time>2024-09-25T13:55:59Z</time>
      </trkpt>
      <trkpt lat="45.79994" lon="1.1847">
        <ele>285.8</ele>
        <time>2024-09-25T13:56:01Z</time>
      </trkpt>
      <trkpt lat="45.79991" lon="1.18467">
        <ele>286.7</ele>
        <time>2024-09-25T13:56:03Z</time>
      </trkpt>
      <trkpt lat="45.79988" lon="1.18465">
        <ele>287.5</ele>
        <time>2024-09-25T13:56:05Z</time>
      </trkpt>
      <trkpt lat="45.79985" lon="1.18461">
        <ele>288.4</ele>
        <time>2024-09-25T13:56:07Z</time>
      </trkpt>
      <trkpt lat="45.79983" lon="1.18457">
        <ele>289.3</ele>
        <time>2024-09-25T13:56:09Z</time>
      </trkpt>
      <trkpt lat="45.79981" lon="1.18452">
        <ele>290.3</ele>
        <time>2024-09-25T13:56:11Z</time>
      </trkpt>
      <trkpt lat="45.79978" lon="1.18449">
        <ele>291.3</ele>
        <time>2024-09-25T13:56:15Z</time>
      </trkpt>
      <trkpt lat="45.79974" lon="1.18448">
        <ele>292.3</ele>
        <time>2024-09-25T13:56:21Z</time>
      </trkpt>
      <trkpt lat="45.79972" lon="1.18446">
        <ele>293</ele>
        <time>2024-09-25T13:56:32Z</time>
      </trkpt>
      <trkpt lat="45.79969" lon="1.18444">
        <ele>293.9</ele>
        <time>2024-09-25T13:56:43Z</time>
      </trkpt>
      <trkpt lat="45.79966" lon="1.18444">
        <ele>294.8</ele>
        <time>2024-09-25T13:56:49Z</time>
      </trkpt>
      <trkpt lat="45.79963" lon="1.18445">
        <ele>295.6</ele>
        <time>2024-09-25T13:56:54Z</time>
      </trkpt>
      <trkpt lat="45.79959" lon="1.18445">
        <ele>296.7</ele>
        <time>2024-09-25T13:57:05Z</time>
      </trkpt>
      <trkpt lat="45.79956" lon="1.18444">
        <ele>297.5</ele>
        <time>2024-09-25T13:57:09Z</time>
      </trkpt>
      <trkpt lat="45.79953" lon="1.18443">
        <ele>298.3</ele>
        <time>2024-09-25T13:57:15Z</time>
      </trkpt>
      <trkpt lat="45.79949" lon="1.18441">
        <ele>299.2</ele>
        <time>2024-09-25T13:57:21Z</time>
      </trkpt>
      <trkpt lat="45.79946" lon="1.18439">
        <ele>299.9</ele>
        <time>2024-09-25T13:57:24Z</time>
      </trkpt>
      <trkpt lat="45.79943" lon="1.18438">
        <ele>300.5</ele>
        <time>2024-09-25T13:57:26Z</time>
      </trkpt>
      <trkpt lat="45.79942" lon="1.18435">
        <ele>300.8</ele>
        <time>2024-09-25T13:57:56Z</time>
      </trkpt>
      <trkpt lat="45.7994" lon="1.18431">
        <ele>301.4</ele>
        <time>2024-09-25T13:57:58Z</time>
      </trkpt>
      <trkpt lat="45.79938" lon="1.18426">
        <ele>301.9</ele>
        <time>2024-09-25T13:58:00Z</time>
      </trkpt>
      <trkpt lat="45.79935" lon="1.18422">
        <ele>302.4</ele>
        <time>2024-09-25T13:58:02Z</time>
      </trkpt>
      <trkpt lat="45.79932" lon="1.18417">
        <ele>303</ele>
        <time>2024-09-25T13:58:04Z</time>
      </trkpt>
      <trkpt lat="45.79929" lon="1.18411">
        <ele>303.5</ele>
        <time>2024-09-25T13:58:06Z</time>
      </trkpt>
      <trkpt lat="45.79925" lon="1.18407">
        <ele>303.9</ele>
        <time>2024-09-25T13:58:08Z</time>
      </trkpt>
      <trkpt lat="45.79923" lon="1.18403">
        <ele>304.2</ele>
        <time>2024-09-25T13:58:09Z</time>
      </trkpt>
      <trkpt lat="45.79919" lon="1.18399">
        <ele>304.6</ele>
        <time>2024-09-25T13:58:11Z</time>
      </trkpt>
      <trkpt lat="45.79916" lon="1.18398">
        <ele>304.8</ele>
        <time>2024-09-25T13:58:13Z</time>
      </trkpt>
      <trkpt lat="45.79912" lon="1.184">
        <ele>305</ele>
        <time>2024-09-25T13:58:15Z</time>
      </trkpt>
      <trkpt lat="45.79909" lon="1.18403">
        <ele>305.2</ele>
        <time>2024-09-25T13:58:17Z</time>
      </trkpt>
      <trkpt lat="45.79907" lon="1.18408">
        <ele>305.3</ele>
        <time>2024-09-25T13:58:19Z</time>
      </trkpt>
      <trkpt lat="45.79905" lon="1.18411">
        <ele>305.4</ele>
        <time>2024-09-25T13:58:20Z</time>
      </trkpt>
      <trkpt lat="45.79902" lon="1.18414">
        <ele>305.6</ele>
        <time>2024-09-25T13:58:21Z</time>
      </trkpt>
      <trkpt lat="45.79898" lon="1.18415">
        <ele>305.7</ele>
        <time>2024-09-25T13:58:23Z</time>
      </trkpt>
      <trkpt lat="45.79895" lon="1.18414">
        <ele>305.7</ele>
        <time>2024-09-25T13:58:24Z</time>
      </trkpt>
      <trkpt lat="45.79892" lon="1.18413">
        <ele>305.8</ele>
        <time>2024-09-25T13:58:25Z</time>
      </trkpt>
      <trkpt lat="45.79889" lon="1.18412">
        <ele>305.8</ele>
        <time>2024-09-25T13:58:26Z</time>
      </trkpt>
      <trkpt lat="45.79886" lon="1.1841">
        <ele>305.9</ele>
        <time>2024-09-25T13:58:27Z</time>
      </trkpt>
      <trkpt lat="45.79884" lon="1.18408">
        <ele>305.9</ele>
        <time>2024-09-25T13:58:28Z</time>
      </trkpt>
      <trkpt lat="45.79879" lon="1.18406">
        <ele>306</ele>
        <time>2024-09-25T13:58:30Z</time>
      </trkpt>
      <trkpt lat="45.79876" lon="1.18404">
        <ele>306</ele>
        <time>2024-09-25T13:58:31Z</time>
      </trkpt>
      <trkpt lat="45.79873" lon="1.18402">
        <ele>306</ele>
        <time>2024-09-25T13:58:32Z</time>
      </trkpt>
      <trkpt lat="45.7987" lon="1.184">
        <ele>306</ele>
        <time>2024-09-25T13:58:33Z</time>
      </trkpt>
      <trkpt lat="45.79867" lon="1.18399">
        <ele>306.1</ele>
        <time>2024-09-25T13:58:34Z</time>
      </trkpt>
      <trkpt lat="45.79864" lon="1.18397">
        <ele>306.1</ele>
        <time>2024-09-25T13:58:35Z</time>
      </trkpt>
      <trkpt lat="45.79861" lon="1.18395">
        <ele>306.1</ele>
        <time>2024-09-25T13:58:36Z</time>
      </trkpt>
      <trkpt lat="45.79858" lon="1.18394">
        <ele>306.1</ele>
        <time>2024-09-25T13:58:37Z</time>
      </trkpt>
      <trkpt lat="45.79855" lon="1.18392">
        <ele>306.1</ele>
        <time>2024-09-25T13:58:38Z</time>
      </trkpt>
      <trkpt lat="45.79852" lon="1.1839">
        <ele>306</ele>
        <time>2024-09-25T13:58:39Z</time>
      </trkpt>
      <trkpt lat="45.79849" lon="1.18388">
        <ele>306</ele>
        <time>2024-09-25T13:58:40Z</time>
      </trkpt>
      <trkpt lat="45.79847" lon="1.18387">
        <ele>306</ele>
        <time>2024-09-25T13:58:41Z</time>
      </trkpt>
      <trkpt lat="45.79844" lon="1.18385">
        <ele>305.9</ele>
        <time>2024-09-25T13:58:42Z</time>
      </trkpt>
      <trkpt lat="45.79841" lon="1.18383">
        <ele>305.9</ele>
        <time>2024-09-25T13:58:43Z</time>
      </trkpt>
      <trkpt lat="45.79839" lon="1.18382">
        <ele>305.9</ele>
        <time>2024-09-25T13:58:44Z</time>
      </trkpt>
      <trkpt lat="45.79836" lon="1.1838">
        <ele>305.8</ele>
        <time>2024-09-25T13:58:45Z</time>
      </trkpt>
      <trkpt lat="45.79832" lon="1.18378">
        <ele>305.7</ele>
        <time>2024-09-25T13:58:46Z</time>
      </trkpt>
      <trkpt lat="45.79829" lon="1.18376">
        <ele>305.6</ele>
        <time>2024-09-25T13:58:47Z</time>
      </trkpt>
      <trkpt lat="45.79825" lon="1.18373">
        <ele>305.5</ele>
        <time>2024-09-25T13:58:48Z</time>
      </trkpt>
      <trkpt lat="45.7982" lon="1.18371">
        <ele>305.4</ele>
        <time>2024-09-25T13:58:49Z</time>
      </trkpt>
      <trkpt lat="45.79816" lon="1.18368">
        <ele>305.3</ele>
        <time>2024-09-25T13:58:50Z</time>
      </trkpt>
      <trkpt lat="45.79812" lon="1.18366">
        <ele>305.2</ele>
        <time>2024-09-25T13:58:51Z</time>
      </trkpt>
      <trkpt lat="45.79808" lon="1.18364">
        <ele>305.1</ele>
        <time>2024-09-25T13:58:52Z</time>
      </trkpt>
      <trkpt lat="45.79804" lon="1.18362">
        <ele>305</ele>
        <time>2024-09-25T13:58:53Z</time>
      </trkpt>
      <trkpt lat="45.798" lon="1.18361">
        <ele>304.9</ele>
        <time>2024-09-25T13:58:54Z</time>
      </trkpt>
      <trkpt lat="45.79796" lon="1.18358">
        <ele>304.8</ele>
        <time>2024-09-25T13:58:55Z</time>
      </trkpt>
      <trkpt lat="45.79792" lon="1.18356">
        <ele>304.7</ele>
        <time>2024-09-25T13:58:56Z</time>
      </trkpt>
      <trkpt lat="45.79789" lon="1.18353">
        <ele>304.7</ele>
        <time>2024-09-25T13:58:57Z</time>
      </trkpt>
      <trkpt lat="45.79785" lon="1.18351">
        <ele>304.5</ele>
        <time>2024-09-25T13:58:58Z</time>
      </trkpt>
      <trkpt lat="45.79782" lon="1.18349">
        <ele>304.5</ele>
        <time>2024-09-25T13:58:59Z</time>
      </trkpt>
      <trkpt lat="45.79779" lon="1.18348">
        <ele>304.4</ele>
        <time>2024-09-25T13:59:00Z</time>
      </trkpt>
      <trkpt lat="45.79775" lon="1.18346">
        <ele>304.3</ele>
        <time>2024-09-25T13:59:01Z</time>
      </trkpt>
      <trkpt lat="45.79772" lon="1.18343">
        <ele>304.2</ele>
        <time>2024-09-25T13:59:02Z</time>
      </trkpt>
      <trkpt lat="45.79768" lon="1.18341">
        <ele>304.1</ele>
        <time>2024-09-25T13:59:03Z</time>
      </trkpt>
      <trkpt lat="45.79764" lon="1.18338">
        <ele>303.9</ele>
        <time>2024-09-25T13:59:04Z</time>
      </trkpt>
      <trkpt lat="45.7976" lon="1.18334">
        <ele>303.8</ele>
        <time>2024-09-25T13:59:05Z</time>
      </trkpt>
      <trkpt lat="45.79757" lon="1.1833">
        <ele>303.7</ele>
        <time>2024-09-25T13:59:06Z</time>
      </trkpt>
      <trkpt lat="45.79753" lon="1.18326">
        <ele>303.5</ele>
        <time>2024-09-25T13:59:07Z</time>
      </trkpt>
      <trkpt lat="45.79748" lon="1.18323">
        <ele>303.3</ele>
        <time>2024-09-25T13:59:08Z</time>
      </trkpt>
      <trkpt lat="45.79742" lon="1.1832">
        <ele>303.1</ele>
        <time>2024-09-25T13:59:10Z</time>
      </trkpt>
      <trkpt lat="45.79738" lon="1.18317">
        <ele>302.9</ele>
        <time>2024-09-25T13:59:11Z</time>
      </trkpt>
      <trkpt lat="45.79734" lon="1.18315">
        <ele>302.8</ele>
        <time>2024-09-25T13:59:12Z</time>
      </trkpt>
      <trkpt lat="45.7973" lon="1.18313">
        <ele>302.6</ele>
        <time>2024-09-25T13:59:13Z</time>
      </trkpt>
      <trkpt lat="45.79726" lon="1.1831">
        <ele>302.4</ele>
        <time>2024-09-25T13:59:14Z</time>
      </trkpt>
      <trkpt lat="45.79721" lon="1.18308">
        <ele>302.1</ele>
        <time>2024-09-25T13:59:15Z</time>
      </trkpt>
      <trkpt lat="45.79718" lon="1.18304">
        <ele>302</ele>
        <time>2024-09-25T13:59:16Z</time>
      </trkpt>
      <trkpt lat="45.79714" lon="1.18302">
        <ele>301.8</ele>
        <time>2024-09-25T13:59:17Z</time>
      </trkpt>
      <trkpt lat="45.79709" lon="1.18298">
        <ele>301.5</ele>
        <time>2024-09-25T13:59:19Z</time>
      </trkpt>
      <trkpt lat="45.79703" lon="1.18294">
        <ele>301.1</ele>
        <time>2024-09-25T13:59:20Z</time>
      </trkpt>
      <trkpt lat="45.79697" lon="1.18291">
        <ele>300.8</ele>
        <time>2024-09-25T13:59:21Z</time>
      </trkpt>
      <trkpt lat="45.79692" lon="1.18287">
        <ele>300.5</ele>
        <time>2024-09-25T13:59:22Z</time>
      </trkpt>
      <trkpt lat="45.79688" lon="1.18284">
        <ele>300.3</ele>
        <time>2024-09-25T13:59:23Z</time>
      </trkpt>
      <trkpt lat="45.79684" lon="1.18281">
        <ele>300</ele>
        <time>2024-09-25T13:59:24Z</time>
      </trkpt>
      <trkpt lat="45.79681" lon="1.18279">
        <ele>299.9</ele>
        <time>2024-09-25T13:59:25Z</time>
      </trkpt>
      <trkpt lat="45.79677" lon="1.18279">
        <ele>299.7</ele>
        <time>2024-09-25T13:59:27Z</time>
      </trkpt>
      <trkpt lat="45.79672" lon="1.18278">
        <ele>299.5</ele>
        <time>2024-09-25T13:59:29Z</time>
      </trkpt>
      <trkpt lat="45.79667" lon="1.18277">
        <ele>299.4</ele>
        <time>2024-09-25T13:59:30Z</time>
      </trkpt>
      <trkpt lat="45.79663" lon="1.18275">
        <ele>299.4</ele>
        <time>2024-09-25T13:59:31Z</time>
      </trkpt>
      <trkpt lat="45.79658" lon="1.18271">
        <ele>299.3</ele>
        <time>2024-09-25T13:59:32Z</time>
      </trkpt>
      <trkpt lat="45.79653" lon="1.18267">
        <ele>299.1</ele>
        <time>2024-09-25T13:59:33Z</time>
      </trkpt>
      <trkpt lat="45.79648" lon="1.18264">
        <ele>298.9</ele>
        <time>2024-09-25T13:59:34Z</time>
      </trkpt>
      <trkpt lat="45.79643" lon="1.1826">
        <ele>298.7</ele>
        <time>2024-09-25T13:59:35Z</time>
      </trkpt>
      <trkpt lat="45.79639" lon="1.18257">
        <ele>298.6</ele>
        <time>2024-09-25T13:59:36Z</time>
      </trkpt>
      <trkpt lat="45.79634" lon="1.18255">
        <ele>298.4</ele>
        <time>2024-09-25T13:59:37Z</time>
      </trkpt>
      <trkpt lat="45.7963" lon="1.18253">
        <ele>298.4</ele>
        <time>2024-09-25T13:59:38Z</time>
      </trkpt>
      <trkpt lat="45.79628" lon="1.18255">
        <ele>298.4</ele>
        <time>2024-09-25T13:59:39Z</time>
      </trkpt>
      <trkpt lat="45.79625" lon="1.18258">
        <ele>298.4</ele>
        <time>2024-09-25T13:59:40Z</time>
      </trkpt>
      <trkpt lat="45.79625" lon="1.18263">
        <ele>298.4</ele>
        <time>2024-09-25T13:59:42Z</time>
      </trkpt>
      <trkpt lat="45.79624" lon="1.18267">
        <ele>298.5</ele>
        <time>2024-09-25T13:59:43Z</time>
      </trkpt>
      <trkpt lat="45.79624" lon="1.18272">
        <ele>298.6</ele>
        <time>2024-09-25T13:59:44Z</time>
      </trkpt>
      <trkpt lat="45.79624" lon="1.18277">
        <ele>298.7</ele>
        <time>2024-09-25T13:59:45Z</time>
      </trkpt>
      <trkpt lat="45.79624" lon="1.18282">
        <ele>298.8</ele>
        <time>2024-09-25T13:59:46Z</time>
      </trkpt>
      <trkpt lat="45.79624" lon="1.18286">
        <ele>298.9</ele>
        <time>2024-09-25T13:59:47Z</time>
      </trkpt>
      <trkpt lat="45.79624" lon="1.18291">
        <ele>299.1</ele>
        <time>2024-09-25T13:59:48Z</time>
      </trkpt>
      <trkpt lat="45.79624" lon="1.18296">
        <ele>299.3</ele>
        <time>2024-09-25T13:59:49Z</time>
      </trkpt>
      <trkpt lat="45.79624" lon="1.18301">
        <ele>299.4</ele>
        <time>2024-09-25T13:59:50Z</time>
      </trkpt>
      <trkpt lat="45.79624" lon="1.18307">
        <ele>299.6</ele>
        <time>2024-09-25T13:59:51Z</time>
      </trkpt>
      <trkpt lat="45.79624" lon="1.18312">
        <ele>299.7</ele>
        <time>2024-09-25T13:59:52Z</time>
      </trkpt>
      <trkpt lat="45.79624" lon="1.18317">
        <ele>299.8</ele>
        <time>2024-09-25T13:59:53Z</time>
      </trkpt>
      <trkpt lat="45.79624" lon="1.18323">
        <ele>300</ele>
        <time>2024-09-25T13:59:54Z</time>
      </trkpt>
      <trkpt lat="45.79624" lon="1.18328">
        <ele>300.1</ele>
        <time>2024-09-25T13:59:55Z</time>
      </trkpt>
      <trkpt lat="45.79625" lon="1.18334">
        <ele>300.2</ele>
        <time>2024-09-25T13:59:56Z</time>
      </trkpt>
      <trkpt lat="45.79625" lon="1.18339">
        <ele>300.2</ele>
        <time>2024-09-25T13:59:57Z</time>
      </trkpt>
      <trkpt lat="45.79625" lon="1.18344">
        <ele>300.3</ele>
        <time>2024-09-25T13:59:58Z</time>
      </trkpt>
      <trkpt lat="45.79625" lon="1.18349">
        <ele>300.3</ele>
        <time>2024-09-25T13:59:59Z</time>
      </trkpt>
      <trkpt lat="45.79625" lon="1.18354">
        <ele>300.3</ele>
        <time>2024-09-25T14:00:00Z</time>
      </trkpt>
      <trkpt lat="45.79626" lon="1.18359">
        <ele>300.3</ele>
        <time>2024-09-25T14:00:01Z</time>
      </trkpt>
      <trkpt lat="45.79625" lon="1.18364">
        <ele>300.2</ele>
        <time>2024-09-25T14:00:02Z</time>
      </trkpt>
      <trkpt lat="45.79626" lon="1.18368">
        <ele>300.2</ele>
        <time>2024-09-25T14:00:03Z</time>
      </trkpt>
      <trkpt lat="45.79626" lon="1.18373">
        <ele>300.2</ele>
        <time>2024-09-25T14:00:04Z</time>
      </trkpt>
      <trkpt lat="45.79626" lon="1.18378">
        <ele>300.1</ele>
        <time>2024-09-25T14:00:05Z</time>
      </trkpt>
      <trkpt lat="45.79626" lon="1.18382">
        <ele>300</ele>
        <time>2024-09-25T14:00:06Z</time>
      </trkpt>
      <trkpt lat="45.79626" lon="1.18387">
        <ele>300</ele>
        <time>2024-09-25T14:00:07Z</time>
      </trkpt>
      <trkpt lat="45.79625" lon="1.18392">
        <ele>300.1</ele>
        <time>2024-09-25T14:00:08Z</time>
      </trkpt>
      <trkpt lat="45.79625" lon="1.18396">
        <ele>300.1</ele>
        <time>2024-09-25T14:00:09Z</time>
      </trkpt>
      <trkpt lat="45.79625" lon="1.18402">
        <ele>300.2</ele>
        <time>2024-09-25T14:00:11Z</time>
      </trkpt>
      <trkpt lat="45.79625" lon="1.18407">
        <ele>300.2</ele>
        <time>2024-09-25T14:00:12Z</time>
      </trkpt>
      <trkpt lat="45.79625" lon="1.18412">
        <ele>300.3</ele>
        <time>2024-09-25T14:00:13Z</time>
      </trkpt>
      <trkpt lat="45.79625" lon="1.18416">
        <ele>300.3</ele>
        <time>2024-09-25T14:00:14Z</time>
      </trkpt>
      <trkpt lat="45.79625" lon="1.18422">
        <ele>300.3</ele>
        <time>2024-09-25T14:00:16Z</time>
      </trkpt>
      <trkpt lat="45.79625" lon="1.18427">
        <ele>300.3</ele>
        <time>2024-09-25T14:00:17Z</time>
      </trkpt>
      <trkpt lat="45.79625" lon="1.18433">
        <ele>300.3</ele>
        <time>2024-09-25T14:00:19Z</time>
      </trkpt>
      <trkpt lat="45.79625" lon="1.18438">
        <ele>300.2</ele>
        <time>2024-09-25T14:00:20Z</time>
      </trkpt>
      <trkpt lat="45.79624" lon="1.18442">
        <ele>300.2</ele>
        <time>2024-09-25T14:00:21Z</time>
      </trkpt>
      <trkpt lat="45.79624" lon="1.18448">
        <ele>300.2</ele>
        <time>2024-09-25T14:00:23Z</time>
      </trkpt>
      <trkpt lat="45.79623" lon="1.18454">
        <ele>300.1</ele>
        <time>2024-09-25T14:00:25Z</time>
      </trkpt>
      <trkpt lat="45.79623" lon="1.18459">
        <ele>300</ele>
        <time>2024-09-25T14:00:27Z</time>
      </trkpt>
      <trkpt lat="45.79623" lon="1.18466">
        <ele>299.9</ele>
        <time>2024-09-25T14:00:29Z</time>
      </trkpt>
      <trkpt lat="45.79623" lon="1.18474">
        <ele>299.7</ele>
        <time>2024-09-25T14:00:31Z</time>
      </trkpt>
      <trkpt lat="45.79623" lon="1.18481">
        <ele>299.5</ele>
        <time>2024-09-25T14:00:32Z</time>
      </trkpt>
      <trkpt lat="45.79624" lon="1.18491">
        <ele>299.2</ele>
        <time>2024-09-25T14:00:33Z</time>
      </trkpt>
      <trkpt lat="45.79625" lon="1.185">
        <ele>298.9</ele>
        <time>2024-09-25T14:00:34Z</time>
      </trkpt>
      <trkpt lat="45.79625" lon="1.18508">
        <ele>298.6</ele>
        <time>2024-09-25T14:00:35Z</time>
      </trkpt>
      <trkpt lat="45.79625" lon="1.18516">
        <ele>298.3</ele>
        <time>2024-09-25T14:00:36Z</time>
      </trkpt>
      <trkpt lat="45.79625" lon="1.18523">
        <ele>298</ele>
        <time>2024-09-25T14:00:37Z</time>
      </trkpt>
      <trkpt lat="45.79625" lon="1.18531">
        <ele>297.7</ele>
        <time>2024-09-25T14:00:38Z</time>
      </trkpt>
      <trkpt lat="45.79626" lon="1.18538">
        <ele>297.3</ele>
        <time>2024-09-25T14:00:39Z</time>
      </trkpt>
      <trkpt lat="45.79626" lon="1.18546">
        <ele>296.9</ele>
        <time>2024-09-25T14:00:40Z</time>
      </trkpt>
      <trkpt lat="45.79627" lon="1.18555">
        <ele>296.4</ele>
        <time>2024-09-25T14:00:41Z</time>
      </trkpt>
      <trkpt lat="45.7963" lon="1.18563">
        <ele>295.9</ele>
        <time>2024-09-25T14:00:42Z</time>
      </trkpt>
      <trkpt lat="45.79633" lon="1.1857">
        <ele>295.5</ele>
        <time>2024-09-25T14:00:43Z</time>
      </trkpt>
      <trkpt lat="45.79638" lon="1.18576">
        <ele>295.1</ele>
        <time>2024-09-25T14:00:44Z</time>
      </trkpt>
      <trkpt lat="45.79643" lon="1.18581">
        <ele>294.8</ele>
        <time>2024-09-25T14:00:45Z</time>
      </trkpt>
      <trkpt lat="45.79648" lon="1.18587">
        <ele>294.5</ele>
        <time>2024-09-25T14:00:46Z</time>
      </trkpt>
      <trkpt lat="45.79654" lon="1.18593">
        <ele>294.1</ele>
        <time>2024-09-25T14:00:47Z</time>
      </trkpt>
      <trkpt lat="45.79659" lon="1.18598">
        <ele>293.8</ele>
        <time>2024-09-25T14:00:48Z</time>
      </trkpt>
      <trkpt lat="45.79665" lon="1.18605">
        <ele>293.5</ele>
        <time>2024-09-25T14:00:49Z</time>
      </trkpt>
      <trkpt lat="45.79671" lon="1.1861">
        <ele>293.1</ele>
        <time>2024-09-25T14:00:50Z</time>
      </trkpt>
      <trkpt lat="45.79676" lon="1.18616">
        <ele>292.8</ele>
        <time>2024-09-25T14:00:51Z</time>
      </trkpt>
      <trkpt lat="45.79681" lon="1.18621">
        <ele>292.5</ele>
        <time>2024-09-25T14:00:52Z</time>
      </trkpt>
      <trkpt lat="45.79686" lon="1.18627">
        <ele>292.1</ele>
        <time>2024-09-25T14:00:53Z</time>
      </trkpt>
      <trkpt lat="45.79692" lon="1.18633">
        <ele>291.7</ele>
        <time>2024-09-25T14:00:54Z</time>
      </trkpt>
      <trkpt lat="45.79698" lon="1.18638">
        <ele>291.3</ele>
        <time>2024-09-25T14:00:55Z</time>
      </trkpt>
      <trkpt lat="45.79703" lon="1.18643">
        <ele>290.9</ele>
        <time>2024-09-25T14:00:56Z</time>
      </trkpt>
      <trkpt lat="45.79709" lon="1.18648">
        <ele>290.5</ele>
        <time>2024-09-25T14:00:57Z</time>
      </trkpt>
      <trkpt lat="45.79714" lon="1.18653">
        <ele>290.1</ele>
        <time>2024-09-25T14:00:58Z</time>
      </trkpt>
      <trkpt lat="45.79718" lon="1.18657">
        <ele>289.9</ele>
        <time>2024-09-25T14:00:59Z</time>
      </trkpt>
      <trkpt lat="45.79722" lon="1.18663">
        <ele>289.6</ele>
        <time>2024-09-25T14:01:00Z</time>
      </trkpt>
      <trkpt lat="45.79728" lon="1.18668">
        <ele>289.5</ele>
        <time>2024-09-25T14:01:01Z</time>
      </trkpt>
      <trkpt lat="45.79732" lon="1.18673">
        <ele>289.4</ele>
        <time>2024-09-25T14:01:02Z</time>
      </trkpt>
      <trkpt lat="45.79737" lon="1.18678">
        <ele>289.4</ele>
        <time>2024-09-25T14:01:03Z</time>
      </trkpt>
      <trkpt lat="45.79741" lon="1.18684">
        <ele>289.4</ele>
        <time>2024-09-25T14:01:04Z</time>
      </trkpt>
      <trkpt lat="45.79743" lon="1.18691">
        <ele>289.5</ele>
        <time>2024-09-25T14:01:05Z</time>
      </trkpt>
      <trkpt lat="45.79745" lon="1.18697">
        <ele>289.5</ele>
        <time>2024-09-25T14:01:06Z</time>
      </trkpt>
      <trkpt lat="45.79746" lon="1.18702">
        <ele>289.5</ele>
        <time>2024-09-25T14:01:07Z</time>
      </trkpt>
      <trkpt lat="45.79748" lon="1.18708">
        <ele>289.5</ele>
        <time>2024-09-25T14:01:08Z</time>
      </trkpt>
      <trkpt lat="45.79749" lon="1.18714">
        <ele>289.5</ele>
        <time>2024-09-25T14:01:09Z</time>
      </trkpt>
      <trkpt lat="45.79749" lon="1.1872">
        <ele>289.4</ele>
        <time>2024-09-25T14:01:10Z</time>
      </trkpt>
      <trkpt lat="45.7975" lon="1.18727">
        <ele>289.4</ele>
        <time>2024-09-25T14:01:11Z</time>
      </trkpt>
      <trkpt lat="45.79751" lon="1.18734">
        <ele>289.3</ele>
        <time>2024-09-25T14:01:12Z</time>
      </trkpt>
      <trkpt lat="45.79752" lon="1.18742">
        <ele>289.2</ele>
        <time>2024-09-25T14:01:13Z</time>
      </trkpt>
      <trkpt lat="45.79752" lon="1.18751">
        <ele>289</ele>
        <time>2024-09-25T14:01:14Z</time>
      </trkpt>
      <trkpt lat="45.79753" lon="1.1876">
        <ele>288.8</ele>
        <time>2024-09-25T14:01:15Z</time>
      </trkpt>
      <trkpt lat="45.79753" lon="1.18769">
        <ele>288.6</ele>
        <time>2024-09-25T14:01:16Z</time>
      </trkpt>
      <trkpt lat="45.79755" lon="1.18778">
        <ele>288.4</ele>
        <time>2024-09-25T14:01:17Z</time>
      </trkpt>
      <trkpt lat="45.79756" lon="1.18788">
        <ele>288.1</ele>
        <time>2024-09-25T14:01:18Z</time>
      </trkpt>
      <trkpt lat="45.79758" lon="1.18797">
        <ele>287.9</ele>
        <time>2024-09-25T14:01:19Z</time>
      </trkpt>
      <trkpt lat="45.79759" lon="1.18806">
        <ele>287.6</ele>
        <time>2024-09-25T14:01:20Z</time>
      </trkpt>
      <trkpt lat="45.7976" lon="1.18815">
        <ele>287.4</ele>
        <time>2024-09-25T14:01:21Z</time>
      </trkpt>
      <trkpt lat="45.79761" lon="1.18824">
        <ele>287.2</ele>
        <time>2024-09-25T14:01:22Z</time>
      </trkpt>
      <trkpt lat="45.79762" lon="1.18833">
        <ele>287</ele>
        <time>2024-09-25T14:01:23Z</time>
      </trkpt>
      <trkpt lat="45.79763" lon="1.18842">
        <ele>286.8</ele>
        <time>2024-09-25T14:01:24Z</time>
      </trkpt>
      <trkpt lat="45.79765" lon="1.18852">
        <ele>286.6</ele>
        <time>2024-09-25T14:01:25Z</time>
      </trkpt>
      <trkpt lat="45.79766" lon="1.18861">
        <ele>286.5</ele>
        <time>2024-09-25T14:01:26Z</time>
      </trkpt>
      <trkpt lat="45.79767" lon="1.1887">
        <ele>286.5</ele>
        <time>2024-09-25T14:01:27Z</time>
      </trkpt>
      <trkpt lat="45.79768" lon="1.18879">
        <ele>286.5</ele>
        <time>2024-09-25T14:01:28Z</time>
      </trkpt>
      <trkpt lat="45.79768" lon="1.18887">
        <ele>286.6</ele>
        <time>2024-09-25T14:01:29Z</time>
      </trkpt>
      <trkpt lat="45.79769" lon="1.18895">
        <ele>286.7</ele>
        <time>2024-09-25T14:01:30Z</time>
      </trkpt>
      <trkpt lat="45.7977" lon="1.18904">
        <ele>286.8</ele>
        <time>2024-09-25T14:01:31Z</time>
      </trkpt>
      <trkpt lat="45.79771" lon="1.18913">
        <ele>287.1</ele>
        <time>2024-09-25T14:01:32Z</time>
      </trkpt>
      <trkpt lat="45.79771" lon="1.18921">
        <ele>287.3</ele>
        <time>2024-09-25T14:01:33Z</time>
      </trkpt>
      <trkpt lat="45.79772" lon="1.18928">
        <ele>287.5</ele>
        <time>2024-09-25T14:01:34Z</time>
      </trkpt>
      <trkpt lat="45.79773" lon="1.18936">
        <ele>287.8</ele>
        <time>2024-09-25T14:01:35Z</time>
      </trkpt>
      <trkpt lat="45.79774" lon="1.18943">
        <ele>288</ele>
        <time>2024-09-25T14:01:36Z</time>
      </trkpt>
      <trkpt lat="45.79775" lon="1.1895">
        <ele>288.2</ele>
        <time>2024-09-25T14:01:37Z</time>
      </trkpt>
      <trkpt lat="45.79775" lon="1.18956">
        <ele>288.4</ele>
        <time>2024-09-25T14:01:38Z</time>
      </trkpt>
      <trkpt lat="45.79776" lon="1.18963">
        <ele>288.6</ele>
        <time>2024-09-25T14:01:39Z</time>
      </trkpt>
      <trkpt lat="45.79776" lon="1.1897">
        <ele>288.7</ele>
        <time>2024-09-25T14:01:40Z</time>
      </trkpt>
      <trkpt lat="45.79776" lon="1.18977">
        <ele>288.9</ele>
        <time>2024-09-25T14:01:41Z</time>
      </trkpt>
      <trkpt lat="45.79777" lon="1.18984">
        <ele>289</ele>
        <time>2024-09-25T14:01:42Z</time>
      </trkpt>
      <trkpt lat="45.79779" lon="1.18992">
        <ele>289.1</ele>
        <time>2024-09-25T14:01:43Z</time>
      </trkpt>
      <trkpt lat="45.7978" lon="1.18999">
        <ele>289.2</ele>
        <time>2024-09-25T14:01:44Z</time>
      </trkpt>
      <trkpt lat="45.79782" lon="1.19005">
        <ele>289.2</ele>
        <time>2024-09-25T14:01:45Z</time>
      </trkpt>
      <trkpt lat="45.79783" lon="1.19013">
        <ele>289.3</ele>
        <time>2024-09-25T14:01:46Z</time>
      </trkpt>
      <trkpt lat="45.79785" lon="1.1902">
        <ele>289.3</ele>
        <time>2024-09-25T14:01:47Z</time>
      </trkpt>
      <trkpt lat="45.79785" lon="1.19028">
        <ele>289.3</ele>
        <time>2024-09-25T14:01:48Z</time>
      </trkpt>
      <trkpt lat="45.79785" lon="1.19035">
        <ele>289.3</ele>
        <time>2024-09-25T14:01:49Z</time>
      </trkpt>
      <trkpt lat="45.79787" lon="1.19044">
        <ele>289.3</ele>
        <time>2024-09-25T14:01:50Z</time>
      </trkpt>
      <trkpt lat="45.79788" lon="1.19052">
        <ele>289.2</ele>
        <time>2024-09-25T14:01:51Z</time>
      </trkpt>
      <trkpt lat="45.79789" lon="1.19061">
        <ele>289</ele>
        <time>2024-09-25T14:01:52Z</time>
      </trkpt>
      <trkpt lat="45.79791" lon="1.19069">
        <ele>288.9</ele>
        <time>2024-09-25T14:01:53Z</time>
      </trkpt>
      <trkpt lat="45.79792" lon="1.19078">
        <ele>288.7</ele>
        <time>2024-09-25T14:01:54Z</time>
      </trkpt>
      <trkpt lat="45.79793" lon="1.19086">
        <ele>288.5</ele>
        <time>2024-09-25T14:01:55Z</time>
      </trkpt>
      <trkpt lat="45.79795" lon="1.19094">
        <ele>288.3</ele>
        <time>2024-09-25T14:01:56Z</time>
      </trkpt>
      <trkpt lat="45.79796" lon="1.19103">
        <ele>288.1</ele>
        <time>2024-09-25T14:01:57Z</time>
      </trkpt>
      <trkpt lat="45.79797" lon="1.19112">
        <ele>288</ele>
        <time>2024-09-25T14:01:58Z</time>
      </trkpt>
      <trkpt lat="45.79799" lon="1.19122">
        <ele>287.8</ele>
        <time>2024-09-25T14:01:59Z</time>
      </trkpt>
      <trkpt lat="45.79801" lon="1.1913">
        <ele>287.7</ele>
        <time>2024-09-25T14:02:00Z</time>
      </trkpt>
      <trkpt lat="45.79802" lon="1.19138">
        <ele>287.6</ele>
        <time>2024-09-25T14:02:01Z</time>
      </trkpt>
      <trkpt lat="45.79804" lon="1.19146">
        <ele>287.6</ele>
        <time>2024-09-25T14:02:02Z</time>
      </trkpt>
      <trkpt lat="45.79806" lon="1.19154">
        <ele>287.5</ele>
        <time>2024-09-25T14:02:03Z</time>
      </trkpt>
      <trkpt lat="45.79807" lon="1.19162">
        <ele>287.5</ele>
        <time>2024-09-25T14:02:04Z</time>
      </trkpt>
      <trkpt lat="45.79808" lon="1.19169">
        <ele>287.5</ele>
        <time>2024-09-25T14:02:05Z</time>
      </trkpt>
      <trkpt lat="45.79809" lon="1.19178">
        <ele>287.5</ele>
        <time>2024-09-25T14:02:06Z</time>
      </trkpt>
      <trkpt lat="45.7981" lon="1.19186">
        <ele>287.5</ele>
        <time>2024-09-25T14:02:07Z</time>
      </trkpt>
      <trkpt lat="45.79811" lon="1.19194">
        <ele>287.6</ele>
        <time>2024-09-25T14:02:08Z</time>
      </trkpt>
      <trkpt lat="45.79812" lon="1.19201">
        <ele>287.6</ele>
        <time>2024-09-25T14:02:09Z</time>
      </trkpt>
      <trkpt lat="45.79813" lon="1.19209">
        <ele>287.6</ele>
        <time>2024-09-25T14:02:10Z</time>
      </trkpt>
      <trkpt lat="45.79813" lon="1.19217">
        <ele>287.7</ele>
        <time>2024-09-25T14:02:11Z</time>
      </trkpt>
      <trkpt lat="45.79814" lon="1.19226">
        <ele>287.8</ele>
        <time>2024-09-25T14:02:12Z</time>
      </trkpt>
      <trkpt lat="45.79815" lon="1.19234">
        <ele>287.8</ele>
        <time>2024-09-25T14:02:13Z</time>
      </trkpt>
      <trkpt lat="45.79816" lon="1.19243">
        <ele>287.9</ele>
        <time>2024-09-25T14:02:14Z</time>
      </trkpt>
      <trkpt lat="45.79817" lon="1.19251">
        <ele>288.1</ele>
        <time>2024-09-25T14:02:15Z</time>
      </trkpt>
      <trkpt lat="45.79818" lon="1.19259">
        <ele>288.2</ele>
        <time>2024-09-25T14:02:16Z</time>
      </trkpt>
      <trkpt lat="45.79819" lon="1.19266">
        <ele>288.3</ele>
        <time>2024-09-25T14:02:17Z</time>
      </trkpt>
      <trkpt lat="45.79819" lon="1.19275">
        <ele>288.5</ele>
        <time>2024-09-25T14:02:18Z</time>
      </trkpt>
      <trkpt lat="45.79819" lon="1.19282">
        <ele>288.7</ele>
        <time>2024-09-25T14:02:19Z</time>
      </trkpt>
      <trkpt lat="45.79819" lon="1.1929">
        <ele>288.9</ele>
        <time>2024-09-25T14:02:20Z</time>
      </trkpt>
      <trkpt lat="45.7982" lon="1.19298">
        <ele>289.1</ele>
        <time>2024-09-25T14:02:21Z</time>
      </trkpt>
      <trkpt lat="45.7982" lon="1.19306">
        <ele>289.3</ele>
        <time>2024-09-25T14:02:22Z</time>
      </trkpt>
      <trkpt lat="45.7982" lon="1.19313">
        <ele>289.5</ele>
        <time>2024-09-25T14:02:23Z</time>
      </trkpt>
      <trkpt lat="45.7982" lon="1.1932">
        <ele>289.6</ele>
        <time>2024-09-25T14:02:24Z</time>
      </trkpt>
      <trkpt lat="45.7982" lon="1.19327">
        <ele>289.8</ele>
        <time>2024-09-25T14:02:25Z</time>
      </trkpt>
      <trkpt lat="45.7982" lon="1.19334">
        <ele>290</ele>
        <time>2024-09-25T14:02:26Z</time>
      </trkpt>
      <trkpt lat="45.79821" lon="1.19341">
        <ele>290.2</ele>
        <time>2024-09-25T14:02:27Z</time>
      </trkpt>
      <trkpt lat="45.79822" lon="1.19347">
        <ele>290.4</ele>
        <time>2024-09-25T14:02:28Z</time>
      </trkpt>
      <trkpt lat="45.79822" lon="1.19354">
        <ele>290.6</ele>
        <time>2024-09-25T14:02:29Z</time>
      </trkpt>
      <trkpt lat="45.79822" lon="1.1936">
        <ele>290.7</ele>
        <time>2024-09-25T14:02:30Z</time>
      </trkpt>
      <trkpt lat="45.79821" lon="1.19366">
        <ele>290.9</ele>
        <time>2024-09-25T14:02:31Z</time>
      </trkpt>
      <trkpt lat="45.7982" lon="1.19372">
        <ele>291.1</ele>
        <time>2024-09-25T14:02:32Z</time>
      </trkpt>
      <trkpt lat="45.79819" lon="1.19377">
        <ele>291.2</ele>
        <time>2024-09-25T14:02:33Z</time>
      </trkpt>
      <trkpt lat="45.79818" lon="1.19382">
        <ele>291.4</ele>
        <time>2024-09-25T14:02:34Z</time>
      </trkpt>
      <trkpt lat="45.79817" lon="1.19386">
        <ele>291.4</ele>
        <time>2024-09-25T14:02:35Z</time>
      </trkpt>
      <trkpt lat="45.79816" lon="1.19392">
        <ele>291.5</ele>
        <time>2024-09-25T14:02:36Z</time>
      </trkpt>
      <trkpt lat="45.79816" lon="1.19397">
        <ele>291.6</ele>
        <time>2024-09-25T14:02:37Z</time>
      </trkpt>
      <trkpt lat="45.79816" lon="1.19403">
        <ele>291.7</ele>
        <time>2024-09-25T14:02:38Z</time>
      </trkpt>
      <trkpt lat="45.79816" lon="1.19409">
        <ele>291.7</ele>
        <time>2024-09-25T14:02:39Z</time>
      </trkpt>
      <trkpt lat="45.79816" lon="1.19416">
        <ele>291.9</ele>
        <time>2024-09-25T14:02:40Z</time>
      </trkpt>
      <trkpt lat="45.79816" lon="1.19422">
        <ele>292.1</ele>
        <time>2024-09-25T14:02:41Z</time>
      </trkpt>
      <trkpt lat="45.79816" lon="1.19428">
        <ele>292.3</ele>
        <time>2024-09-25T14:02:42Z</time>
      </trkpt>
      <trkpt lat="45.79816" lon="1.19435">
        <ele>292.6</ele>
        <time>2024-09-25T14:02:43Z</time>
      </trkpt>
      <trkpt lat="45.79815" lon="1.19442">
        <ele>292.8</ele>
        <time>2024-09-25T14:02:44Z</time>
      </trkpt>
      <trkpt lat="45.79815" lon="1.19448">
        <ele>293.1</ele>
        <time>2024-09-25T14:02:45Z</time>
      </trkpt>
      <trkpt lat="45.79815" lon="1.19455">
        <ele>293.3</ele>
        <time>2024-09-25T14:02:46Z</time>
      </trkpt>
      <trkpt lat="45.79814" lon="1.19462">
        <ele>293.6</ele>
        <time>2024-09-25T14:02:47Z</time>
      </trkpt>
      <trkpt lat="45.79814" lon="1.19468">
        <ele>293.8</ele>
        <time>2024-09-25T14:02:48Z</time>
      </trkpt>
      <trkpt lat="45.79814" lon="1.19476">
        <ele>294.1</ele>
        <time>2024-09-25T14:02:49Z</time>
      </trkpt>
      <trkpt lat="45.79814" lon="1.19482">
        <ele>294.3</ele>
        <time>2024-09-25T14:02:50Z</time>
      </trkpt>
      <trkpt lat="45.79814" lon="1.19488">
        <ele>294.6</ele>
        <time>2024-09-25T14:02:51Z</time>
      </trkpt>
      <trkpt lat="45.79813" lon="1.19494">
        <ele>294.8</ele>
        <time>2024-09-25T14:02:52Z</time>
      </trkpt>
      <trkpt lat="45.79812" lon="1.195">
        <ele>295</ele>
        <time>2024-09-25T14:02:53Z</time>
      </trkpt>
      <trkpt lat="45.7981" lon="1.19504">
        <ele>295.1</ele>
        <time>2024-09-25T14:02:54Z</time>
      </trkpt>
      <trkpt lat="45.79807" lon="1.19506">
        <ele>295.2</ele>
        <time>2024-09-25T14:02:55Z</time>
      </trkpt>
      <trkpt lat="45.79804" lon="1.19508">
        <ele>295.4</ele>
        <time>2024-09-25T14:02:56Z</time>
      </trkpt>
      <trkpt lat="45.798" lon="1.1951">
        <ele>295.8</ele>
        <time>2024-09-25T14:02:57Z</time>
      </trkpt>
      <trkpt lat="45.79797" lon="1.19511">
        <ele>296</ele>
        <time>2024-09-25T14:02:58Z</time>
      </trkpt>
      <trkpt lat="45.79794" lon="1.19513">
        <ele>296.3</ele>
        <time>2024-09-25T14:02:59Z</time>
      </trkpt>
      <trkpt lat="45.7979" lon="1.19514">
        <ele>296.6</ele>
        <time>2024-09-25T14:03:00Z</time>
      </trkpt>
      <trkpt lat="45.79786" lon="1.19516">
        <ele>296.9</ele>
        <time>2024-09-25T14:03:01Z</time>
      </trkpt>
      <trkpt lat="45.79782" lon="1.19518">
        <ele>297.2</ele>
        <time>2024-09-25T14:03:02Z</time>
      </trkpt>
      <trkpt lat="45.79778" lon="1.1952">
        <ele>297.5</ele>
        <time>2024-09-25T14:03:03Z</time>
      </trkpt>
      <trkpt lat="45.79774" lon="1.19523">
        <ele>297.8</ele>
        <time>2024-09-25T14:03:04Z</time>
      </trkpt>
      <trkpt lat="45.7977" lon="1.19525">
        <ele>298.1</ele>
        <time>2024-09-25T14:03:05Z</time>
      </trkpt>
      <trkpt lat="45.79766" lon="1.19528">
        <ele>298.3</ele>
        <time>2024-09-25T14:03:06Z</time>
      </trkpt>
      <trkpt lat="45.79763" lon="1.1953">
        <ele>298.4</ele>
        <time>2024-09-25T14:03:07Z</time>
      </trkpt>
      <trkpt lat="45.79759" lon="1.19532">
        <ele>298.6</ele>
        <time>2024-09-25T14:03:08Z</time>
      </trkpt>
      <trkpt lat="45.79756" lon="1.19534">
        <ele>298.7</ele>
        <time>2024-09-25T14:03:09Z</time>
      </trkpt>
      <trkpt lat="45.79752" lon="1.19536">
        <ele>298.8</ele>
        <time>2024-09-25T14:03:10Z</time>
      </trkpt>
      <trkpt lat="45.79749" lon="1.19538">
        <ele>298.9</ele>
        <time>2024-09-25T14:03:11Z</time>
      </trkpt>
      <trkpt lat="45.79746" lon="1.19539">
        <ele>299</ele>
        <time>2024-09-25T14:03:12Z</time>
      </trkpt>
      <trkpt lat="45.79743" lon="1.1954">
        <ele>299.1</ele>
        <time>2024-09-25T14:03:13Z</time>
      </trkpt>
      <trkpt lat="45.7974" lon="1.19541">
        <ele>299.2</ele>
        <time>2024-09-25T14:03:15Z</time>
      </trkpt>
      <trkpt lat="45.79735" lon="1.19542">
        <ele>299.4</ele>
        <time>2024-09-25T14:03:26Z</time>
      </trkpt>
      <trkpt lat="45.79732" lon="1.19543">
        <ele>299.5</ele>
        <time>2024-09-25T14:03:27Z</time>
      </trkpt>
      <trkpt lat="45.79729" lon="1.19544">
        <ele>299.6</ele>
        <time>2024-09-25T14:03:28Z</time>
      </trkpt>
      <trkpt lat="45.79726" lon="1.19546">
        <ele>299.7</ele>
        <time>2024-09-25T14:03:29Z</time>
      </trkpt>
      <trkpt lat="45.79723" lon="1.19548">
        <ele>299.9</ele>
        <time>2024-09-25T14:03:30Z</time>
      </trkpt>
      <trkpt lat="45.7972" lon="1.1955">
        <ele>300</ele>
        <time>2024-09-25T14:03:31Z</time>
      </trkpt>
      <trkpt lat="45.79717" lon="1.19552">
        <ele>300.1</ele>
        <time>2024-09-25T14:03:32Z</time>
      </trkpt>
      <trkpt lat="45.79713" lon="1.19554">
        <ele>300.3</ele>
        <time>2024-09-25T14:03:33Z</time>
      </trkpt>
      <trkpt lat="45.79709" lon="1.19556">
        <ele>300.4</ele>
        <time>2024-09-25T14:03:34Z</time>
      </trkpt>
      <trkpt lat="45.79706" lon="1.19558">
        <ele>300.6</ele>
        <time>2024-09-25T14:03:35Z</time>
      </trkpt>
      <trkpt lat="45.79702" lon="1.19559">
        <ele>300.7</ele>
        <time>2024-09-25T14:03:36Z</time>
      </trkpt>
      <trkpt lat="45.79699" lon="1.1956">
        <ele>300.8</ele>
        <time>2024-09-25T14:03:37Z</time>
      </trkpt>
      <trkpt lat="45.79695" lon="1.19562">
        <ele>301</ele>
        <time>2024-09-25T14:03:38Z</time>
      </trkpt>
      <trkpt lat="45.79691" lon="1.19565">
        <ele>301.1</ele>
        <time>2024-09-25T14:03:39Z</time>
      </trkpt>
      <trkpt lat="45.79687" lon="1.19567">
        <ele>301.3</ele>
        <time>2024-09-25T14:03:40Z</time>
      </trkpt>
      <trkpt lat="45.79684" lon="1.19569">
        <ele>301.3</ele>
        <time>2024-09-25T14:03:41Z</time>
      </trkpt>
      <trkpt lat="45.79679" lon="1.19572">
        <ele>301.5</ele>
        <time>2024-09-25T14:03:42Z</time>
      </trkpt>
      <trkpt lat="45.79675" lon="1.19575">
        <ele>301.6</ele>
        <time>2024-09-25T14:03:43Z</time>
      </trkpt>
      <trkpt lat="45.7967" lon="1.19578">
        <ele>301.7</ele>
        <time>2024-09-25T14:03:44Z</time>
      </trkpt>
      <trkpt lat="45.79666" lon="1.1958">
        <ele>301.7</ele>
        <time>2024-09-25T14:03:45Z</time>
      </trkpt>
      <trkpt lat="45.79661" lon="1.19583">
        <ele>301.8</ele>
        <time>2024-09-25T14:03:46Z</time>
      </trkpt>
      <trkpt lat="45.79657" lon="1.19585">
        <ele>301.8</ele>
        <time>2024-09-25T14:03:47Z</time>
      </trkpt>
      <trkpt lat="45.79652" lon="1.19588">
        <ele>301.8</ele>
        <time>2024-09-25T14:03:48Z</time>
      </trkpt>
      <trkpt lat="45.79647" lon="1.19591">
        <ele>301.9</ele>
        <time>2024-09-25T14:03:49Z</time>
      </trkpt>
      <trkpt lat="45.79641" lon="1.19595">
        <ele>301.9</ele>
        <time>2024-09-25T14:03:50Z</time>
      </trkpt>
      <trkpt lat="45.79635" lon="1.19599">
        <ele>301.9</ele>
        <time>2024-09-25T14:03:51Z</time>
      </trkpt>
      <trkpt lat="45.7963" lon="1.19603">
        <ele>302</ele>
        <time>2024-09-25T14:03:52Z</time>
      </trkpt>
      <trkpt lat="45.79625" lon="1.19606">
        <ele>302</ele>
        <time>2024-09-25T14:03:53Z</time>
      </trkpt>
      <trkpt lat="45.79621" lon="1.19608">
        <ele>302</ele>
        <time>2024-09-25T14:03:54Z</time>
      </trkpt>
      <trkpt lat="45.79617" lon="1.19611">
        <ele>302</ele>
        <time>2024-09-25T14:03:55Z</time>
      </trkpt>
      <trkpt lat="45.79614" lon="1.19613">
        <ele>302</ele>
        <time>2024-09-25T14:03:56Z</time>
      </trkpt>
      <trkpt lat="45.79609" lon="1.19616">
        <ele>302</ele>
        <time>2024-09-25T14:03:57Z</time>
      </trkpt>
      <trkpt lat="45.79605" lon="1.19618">
        <ele>301.9</ele>
        <time>2024-09-25T14:03:58Z</time>
      </trkpt>
      <trkpt lat="45.79601" lon="1.1962">
        <ele>301.9</ele>
        <time>2024-09-25T14:03:59Z</time>
      </trkpt>
      <trkpt lat="45.79597" lon="1.19622">
        <ele>301.9</ele>
        <time>2024-09-25T14:04:00Z</time>
      </trkpt>
      <trkpt lat="45.7959" lon="1.19626">
        <ele>301.8</ele>
        <time>2024-09-25T14:04:01Z</time>
      </trkpt>
      <trkpt lat="45.79585" lon="1.1963">
        <ele>301.8</ele>
        <time>2024-09-25T14:04:02Z</time>
      </trkpt>
      <trkpt lat="45.79579" lon="1.19632">
        <ele>301.7</ele>
        <time>2024-09-25T14:04:03Z</time>
      </trkpt>
      <trkpt lat="45.79574" lon="1.19634">
        <ele>301.7</ele>
        <time>2024-09-25T14:04:04Z</time>
      </trkpt>
      <trkpt lat="45.79569" lon="1.19636">
        <ele>301.7</ele>
        <time>2024-09-25T14:04:05Z</time>
      </trkpt>
      <trkpt lat="45.79564" lon="1.19638">
        <ele>301.7</ele>
        <time>2024-09-25T14:04:06Z</time>
      </trkpt>
      <trkpt lat="45.79558" lon="1.19641">
        <ele>301.7</ele>
        <time>2024-09-25T14:04:07Z</time>
      </trkpt>
      <trkpt lat="45.79553" lon="1.19643">
        <ele>301.7</ele>
        <time>2024-09-25T14:04:08Z</time>
      </trkpt>
      <trkpt lat="45.79549" lon="1.19645">
        <ele>301.8</ele>
        <time>2024-09-25T14:04:09Z</time>
      </trkpt>
      <trkpt lat="45.79545" lon="1.19649">
        <ele>301.8</ele>
        <time>2024-09-25T14:04:10Z</time>
      </trkpt>
      <trkpt lat="45.79542" lon="1.19653">
        <ele>301.8</ele>
        <time>2024-09-25T14:04:11Z</time>
      </trkpt>
      <trkpt lat="45.79539" lon="1.19659">
        <ele>301.9</ele>
        <time>2024-09-25T14:04:12Z</time>
      </trkpt>
      <trkpt lat="45.79536" lon="1.19664">
        <ele>301.9</ele>
        <time>2024-09-25T14:04:13Z</time>
      </trkpt>
      <trkpt lat="45.79534" lon="1.19669">
        <ele>302</ele>
        <time>2024-09-25T14:04:14Z</time>
      </trkpt>
      <trkpt lat="45.79531" lon="1.19676">
        <ele>302</ele>
        <time>2024-09-25T14:04:15Z</time>
      </trkpt>
      <trkpt lat="45.79527" lon="1.19681">
        <ele>302</ele>
        <time>2024-09-25T14:04:16Z</time>
      </trkpt>
      <trkpt lat="45.79523" lon="1.19685">
        <ele>302.1</ele>
        <time>2024-09-25T14:04:17Z</time>
      </trkpt>
      <trkpt lat="45.79518" lon="1.19688">
        <ele>302.2</ele>
        <time>2024-09-25T14:04:18Z</time>
      </trkpt>
      <trkpt lat="45.79514" lon="1.19691">
        <ele>302.3</ele>
        <time>2024-09-25T14:04:19Z</time>
      </trkpt>
      <trkpt lat="45.7951" lon="1.19691">
        <ele>302.4</ele>
        <time>2024-09-25T14:04:20Z</time>
      </trkpt>
      <trkpt lat="45.79505" lon="1.19694">
        <ele>302.5</ele>
        <time>2024-09-25T14:04:22Z</time>
      </trkpt>
      <trkpt lat="45.79502" lon="1.19698">
        <ele>302.5</ele>
        <time>2024-09-25T14:04:23Z</time>
      </trkpt>
      <trkpt lat="45.79498" lon="1.19702">
        <ele>302.5</ele>
        <time>2024-09-25T14:04:24Z</time>
      </trkpt>
      <trkpt lat="45.79495" lon="1.19706">
        <ele>302.4</ele>
        <time>2024-09-25T14:04:25Z</time>
      </trkpt>
      <trkpt lat="45.79492" lon="1.19711">
        <ele>302.3</ele>
        <time>2024-09-25T14:04:26Z</time>
      </trkpt>
      <trkpt lat="45.79489" lon="1.19716">
        <ele>302.1</ele>
        <time>2024-09-25T14:04:27Z</time>
      </trkpt>
      <trkpt lat="45.79487" lon="1.19721">
        <ele>301.9</ele>
        <time>2024-09-25T14:04:28Z</time>
      </trkpt>
      <trkpt lat="45.79484" lon="1.19727">
        <ele>301.7</ele>
        <time>2024-09-25T14:04:29Z</time>
      </trkpt>
      <trkpt lat="45.79481" lon="1.19733">
        <ele>301.5</ele>
        <time>2024-09-25T14:04:30Z</time>
      </trkpt>
      <trkpt lat="45.79479" lon="1.1974">
        <ele>301.3</ele>
        <time>2024-09-25T14:04:31Z</time>
      </trkpt>
      <trkpt lat="45.79479" lon="1.19749">
        <ele>301</ele>
        <time>2024-09-25T14:04:32Z</time>
      </trkpt>
      <trkpt lat="45.79477" lon="1.19757">
        <ele>300.8</ele>
        <time>2024-09-25T14:04:33Z</time>
      </trkpt>
      <trkpt lat="45.79475" lon="1.19764">
        <ele>300.6</ele>
        <time>2024-09-25T14:04:34Z</time>
      </trkpt>
      <trkpt lat="45.79474" lon="1.19769">
        <ele>300.4</ele>
        <time>2024-09-25T14:04:35Z</time>
      </trkpt>
      <trkpt lat="45.79472" lon="1.19777">
        <ele>300.1</ele>
        <time>2024-09-25T14:04:36Z</time>
      </trkpt>
      <trkpt lat="45.79471" lon="1.19784">
        <ele>299.7</ele>
        <time>2024-09-25T14:04:37Z</time>
      </trkpt>
      <trkpt lat="45.79471" lon="1.19791">
        <ele>299.3</ele>
        <time>2024-09-25T14:04:38Z</time>
      </trkpt>
      <trkpt lat="45.7947" lon="1.19797">
        <ele>299</ele>
        <time>2024-09-25T14:04:39Z</time>
      </trkpt>
      <trkpt lat="45.7947" lon="1.19802">
        <ele>298.7</ele>
        <time>2024-09-25T14:04:40Z</time>
      </trkpt>
      <trkpt lat="45.79469" lon="1.19807">
        <ele>298.4</ele>
        <time>2024-09-25T14:04:41Z</time>
      </trkpt>
      <trkpt lat="45.79467" lon="1.19811">
        <ele>298.2</ele>
        <time>2024-09-25T14:04:42Z</time>
      </trkpt>
      <trkpt lat="45.79466" lon="1.19816">
        <ele>297.9</ele>
        <time>2024-09-25T14:04:43Z</time>
      </trkpt>
      <trkpt lat="45.79464" lon="1.1982">
        <ele>297.8</ele>
        <time>2024-09-25T14:04:44Z</time>
      </trkpt>
      <trkpt lat="45.79462" lon="1.19823">
        <ele>297.6</ele>
        <time>2024-09-25T14:04:45Z</time>
      </trkpt>
      <trkpt lat="45.79459" lon="1.19825">
        <ele>297.4</ele>
        <time>2024-09-25T14:04:46Z</time>
      </trkpt>
      <trkpt lat="45.79455" lon="1.19828">
        <ele>297.5</ele>
        <time>2024-09-25T14:04:47Z</time>
      </trkpt>
      <trkpt lat="45.79451" lon="1.19831">
        <ele>297.5</ele>
        <time>2024-09-25T14:04:48Z</time>
      </trkpt>
      <trkpt lat="45.79447" lon="1.19834">
        <ele>297.6</ele>
        <time>2024-09-25T14:04:49Z</time>
      </trkpt>
      <trkpt lat="45.79443" lon="1.19837">
        <ele>297.6</ele>
        <time>2024-09-25T14:04:50Z</time>
      </trkpt>
      <trkpt lat="45.79438" lon="1.1984">
        <ele>297.7</ele>
        <time>2024-09-25T14:04:51Z</time>
      </trkpt>
      <trkpt lat="45.79434" lon="1.19843">
        <ele>297.8</ele>
        <time>2024-09-25T14:04:52Z</time>
      </trkpt>
      <trkpt lat="45.79431" lon="1.19848">
        <ele>297.8</ele>
        <time>2024-09-25T14:04:53Z</time>
      </trkpt>
      <trkpt lat="45.79429" lon="1.19853">
        <ele>297.9</ele>
        <time>2024-09-25T14:04:54Z</time>
      </trkpt>
      <trkpt lat="45.79428" lon="1.19859">
        <ele>297.8</ele>
        <time>2024-09-25T14:04:55Z</time>
      </trkpt>
      <trkpt lat="45.79427" lon="1.19866">
        <ele>297.6</ele>
        <time>2024-09-25T14:04:56Z</time>
      </trkpt>
      <trkpt lat="45.79426" lon="1.19872">
        <ele>297.5</ele>
        <time>2024-09-25T14:04:57Z</time>
      </trkpt>
      <trkpt lat="45.79424" lon="1.19879">
        <ele>297.3</ele>
        <time>2024-09-25T14:04:58Z</time>
      </trkpt>
      <trkpt lat="45.79423" lon="1.19887">
        <ele>297.2</ele>
        <time>2024-09-25T14:04:59Z</time>
      </trkpt>
      <trkpt lat="45.79421" lon="1.19895">
        <ele>297</ele>
        <time>2024-09-25T14:05:00Z</time>
      </trkpt>
      <trkpt lat="45.79419" lon="1.19903">
        <ele>296.8</ele>
        <time>2024-09-25T14:05:01Z</time>
      </trkpt>
      <trkpt lat="45.79418" lon="1.1991">
        <ele>296.6</ele>
        <time>2024-09-25T14:05:02Z</time>
      </trkpt>
      <trkpt lat="45.79417" lon="1.19919">
        <ele>296.5</ele>
        <time>2024-09-25T14:05:03Z</time>
      </trkpt>
      <trkpt lat="45.79415" lon="1.19927">
        <ele>296.3</ele>
        <time>2024-09-25T14:05:04Z</time>
      </trkpt>
      <trkpt lat="45.79414" lon="1.19935">
        <ele>296.2</ele>
        <time>2024-09-25T14:05:05Z</time>
      </trkpt>
      <trkpt lat="45.79413" lon="1.19943">
        <ele>296.1</ele>
        <time>2024-09-25T14:05:06Z</time>
      </trkpt>
      <trkpt lat="45.79412" lon="1.19951">
        <ele>296</ele>
        <time>2024-09-25T14:05:07Z</time>
      </trkpt>
      <trkpt lat="45.7941" lon="1.1996">
        <ele>295.9</ele>
        <time>2024-09-25T14:05:08Z</time>
      </trkpt>
      <trkpt lat="45.79408" lon="1.19968">
        <ele>295.8</ele>
        <time>2024-09-25T14:05:09Z</time>
      </trkpt>
      <trkpt lat="45.79406" lon="1.19977">
        <ele>295.7</ele>
        <time>2024-09-25T14:05:10Z</time>
      </trkpt>
      <trkpt lat="45.79405" lon="1.19985">
        <ele>295.7</ele>
        <time>2024-09-25T14:05:11Z</time>
      </trkpt>
      <trkpt lat="45.79404" lon="1.19993">
        <ele>295.7</ele>
        <time>2024-09-25T14:05:12Z</time>
      </trkpt>
      <trkpt lat="45.79402" lon="1.20001">
        <ele>295.7</ele>
        <time>2024-09-25T14:05:13Z</time>
      </trkpt>
      <trkpt lat="45.79401" lon="1.2001">
        <ele>295.7</ele>
        <time>2024-09-25T14:05:14Z</time>
      </trkpt>
      <trkpt lat="45.79399" lon="1.20018">
        <ele>295.8</ele>
        <time>2024-09-25T14:05:15Z</time>
      </trkpt>
      <trkpt lat="45.79398" lon="1.20026">
        <ele>295.8</ele>
        <time>2024-09-25T14:05:16Z</time>
      </trkpt>
      <trkpt lat="45.79397" lon="1.20034">
        <ele>295.8</ele>
        <time>2024-09-25T14:05:17Z</time>
      </trkpt>
      <trkpt lat="45.79396" lon="1.20042">
        <ele>295.9</ele>
        <time>2024-09-25T14:05:18Z</time>
      </trkpt>
      <trkpt lat="45.79394" lon="1.2005">
        <ele>295.9</ele>
        <time>2024-09-25T14:05:19Z</time>
      </trkpt>
      <trkpt lat="45.79392" lon="1.20057">
        <ele>295.9</ele>
        <time>2024-09-25T14:05:20Z</time>
      </trkpt>
      <trkpt lat="45.79391" lon="1.20064">
        <ele>296</ele>
        <time>2024-09-25T14:05:21Z</time>
      </trkpt>
      <trkpt lat="45.79389" lon="1.20071">
        <ele>296</ele>
        <time>2024-09-25T14:05:22Z</time>
      </trkpt>
      <trkpt lat="45.79388" lon="1.20079">
        <ele>296</ele>
        <time>2024-09-25T14:05:23Z</time>
      </trkpt>
      <trkpt lat="45.79387" lon="1.20086">
        <ele>296.1</ele>
        <time>2024-09-25T14:05:24Z</time>
      </trkpt>
      <trkpt lat="45.79385" lon="1.20093">
        <ele>296.1</ele>
        <time>2024-09-25T14:05:25Z</time>
      </trkpt>
      <trkpt lat="45.79384" lon="1.20101">
        <ele>296.2</ele>
        <time>2024-09-25T14:05:26Z</time>
      </trkpt>
      <trkpt lat="45.79383" lon="1.20108">
        <ele>296.2</ele>
        <time>2024-09-25T14:05:27Z</time>
      </trkpt>
      <trkpt lat="45.79381" lon="1.20115">
        <ele>296.2</ele>
        <time>2024-09-25T14:05:28Z</time>
      </trkpt>
      <trkpt lat="45.79381" lon="1.20121">
        <ele>296.3</ele>
        <time>2024-09-25T14:05:29Z</time>
      </trkpt>
      <trkpt lat="45.79379" lon="1.20128">
        <ele>296.3</ele>
        <time>2024-09-25T14:05:30Z</time>
      </trkpt>
      <trkpt lat="45.79378" lon="1.20135">
        <ele>296.4</ele>
        <time>2024-09-25T14:05:31Z</time>
      </trkpt>
      <trkpt lat="45.79377" lon="1.20142">
        <ele>296.4</ele>
        <time>2024-09-25T14:05:32Z</time>
      </trkpt>
      <trkpt lat="45.79376" lon="1.20149">
        <ele>296.4</ele>
        <time>2024-09-25T14:05:33Z</time>
      </trkpt>
      <trkpt lat="45.79374" lon="1.20156">
        <ele>296.4</ele>
        <time>2024-09-25T14:05:34Z</time>
      </trkpt>
      <trkpt lat="45.79374" lon="1.20162">
        <ele>296.5</ele>
        <time>2024-09-25T14:05:35Z</time>
      </trkpt>
      <trkpt lat="45.79372" lon="1.20169">
        <ele>296.5</ele>
        <time>2024-09-25T14:05:36Z</time>
      </trkpt>
      <trkpt lat="45.7937" lon="1.20175">
        <ele>296.5</ele>
        <time>2024-09-25T14:05:37Z</time>
      </trkpt>
      <trkpt lat="45.79368" lon="1.20181">
        <ele>296.6</ele>
        <time>2024-09-25T14:05:38Z</time>
      </trkpt>
      <trkpt lat="45.79365" lon="1.20184">
        <ele>296.6</ele>
        <time>2024-09-25T14:05:39Z</time>
      </trkpt>
      <trkpt lat="45.79361" lon="1.20187">
        <ele>296.6</ele>
        <time>2024-09-25T14:05:40Z</time>
      </trkpt>
      <trkpt lat="45.79357" lon="1.20188">
        <ele>296.6</ele>
        <time>2024-09-25T14:05:41Z</time>
      </trkpt>
      <trkpt lat="45.79353" lon="1.20187">
        <ele>296.5</ele>
        <time>2024-09-25T14:05:42Z</time>
      </trkpt>
      <trkpt lat="45.79349" lon="1.20186">
        <ele>296.5</ele>
        <time>2024-09-25T14:05:43Z</time>
      </trkpt>
      <trkpt lat="45.79344" lon="1.20185">
        <ele>296.4</ele>
        <time>2024-09-25T14:05:44Z</time>
      </trkpt>
      <trkpt lat="45.7934" lon="1.20182">
        <ele>296.3</ele>
        <time>2024-09-25T14:05:45Z</time>
      </trkpt>
      <trkpt lat="45.79334" lon="1.20181">
        <ele>296.2</ele>
        <time>2024-09-25T14:05:46Z</time>
      </trkpt>
      <trkpt lat="45.79329" lon="1.20179">
        <ele>296.1</ele>
        <time>2024-09-25T14:05:47Z</time>
      </trkpt>
      <trkpt lat="45.79324" lon="1.20177">
        <ele>295.9</ele>
        <time>2024-09-25T14:05:48Z</time>
      </trkpt>
      <trkpt lat="45.79319" lon="1.20176">
        <ele>295.8</ele>
        <time>2024-09-25T14:05:49Z</time>
      </trkpt>
      <trkpt lat="45.79313" lon="1.20175">
        <ele>295.6</ele>
        <time>2024-09-25T14:05:50Z</time>
      </trkpt>
      <trkpt lat="45.79307" lon="1.20173">
        <ele>295.3</ele>
        <time>2024-09-25T14:05:51Z</time>
      </trkpt>
      <trkpt lat="45.79302" lon="1.20171">
        <ele>295.1</ele>
        <time>2024-09-25T14:05:52Z</time>
      </trkpt>
      <trkpt lat="45.79296" lon="1.20169">
        <ele>294.8</ele>
        <time>2024-09-25T14:05:53Z</time>
      </trkpt>
      <trkpt lat="45.79291" lon="1.20167">
        <ele>294.6</ele>
        <time>2024-09-25T14:05:54Z</time>
      </trkpt>
      <trkpt lat="45.79285" lon="1.20165">
        <ele>294.4</ele>
        <time>2024-09-25T14:05:55Z</time>
      </trkpt>
      <trkpt lat="45.79279" lon="1.20162">
        <ele>294.1</ele>
        <time>2024-09-25T14:05:56Z</time>
      </trkpt>
      <trkpt lat="45.79273" lon="1.20161">
        <ele>293.9</ele>
        <time>2024-09-25T14:05:57Z</time>
      </trkpt>
      <trkpt lat="45.79268" lon="1.20158">
        <ele>293.8</ele>
        <time>2024-09-25T14:05:58Z</time>
      </trkpt>
      <trkpt lat="45.79263" lon="1.20157">
        <ele>293.7</ele>
        <time>2024-09-25T14:05:59Z</time>
      </trkpt>
      <trkpt lat="45.79259" lon="1.20157">
        <ele>293.6</ele>
        <time>2024-09-25T14:06:00Z</time>
      </trkpt>
      <trkpt lat="45.79256" lon="1.2016">
        <ele>293.6</ele>
        <time>2024-09-25T14:06:01Z</time>
      </trkpt>
      <trkpt lat="45.79252" lon="1.20163">
        <ele>293.5</ele>
        <time>2024-09-25T14:06:02Z</time>
      </trkpt>
      <trkpt lat="45.79251" lon="1.20169">
        <ele>293.5</ele>
        <time>2024-09-25T14:06:03Z</time>
      </trkpt>
      <trkpt lat="45.7925" lon="1.20175">
        <ele>293.5</ele>
        <time>2024-09-25T14:06:04Z</time>
      </trkpt>
      <trkpt lat="45.79249" lon="1.20181">
        <ele>293.5</ele>
        <time>2024-09-25T14:06:05Z</time>
      </trkpt>
      <trkpt lat="45.79247" lon="1.20188">
        <ele>293.5</ele>
        <time>2024-09-25T14:06:06Z</time>
      </trkpt>
      <trkpt lat="45.79248" lon="1.20194">
        <ele>293.5</ele>
        <time>2024-09-25T14:06:07Z</time>
      </trkpt>
      <trkpt lat="45.79247" lon="1.20201">
        <ele>293.5</ele>
        <time>2024-09-25T14:06:08Z</time>
      </trkpt>
      <trkpt lat="45.79245" lon="1.20208">
        <ele>293.4</ele>
        <time>2024-09-25T14:06:09Z</time>
      </trkpt>
      <trkpt lat="45.79244" lon="1.20215">
        <ele>293.4</ele>
        <time>2024-09-25T14:06:10Z</time>
      </trkpt>
      <trkpt lat="45.79243" lon="1.20222">
        <ele>293.3</ele>
        <time>2024-09-25T14:06:11Z</time>
      </trkpt>
      <trkpt lat="45.79241" lon="1.20229">
        <ele>293.2</ele>
        <time>2024-09-25T14:06:12Z</time>
      </trkpt>
      <trkpt lat="45.79239" lon="1.20236">
        <ele>293.1</ele>
        <time>2024-09-25T14:06:13Z</time>
      </trkpt>
      <trkpt lat="45.79237" lon="1.20244">
        <ele>293</ele>
        <time>2024-09-25T14:06:14Z</time>
      </trkpt>
      <trkpt lat="45.79235" lon="1.20251">
        <ele>292.9</ele>
        <time>2024-09-25T14:06:15Z</time>
      </trkpt>
      <trkpt lat="45.79233" lon="1.20257">
        <ele>292.8</ele>
        <time>2024-09-25T14:06:16Z</time>
      </trkpt>
      <trkpt lat="45.79231" lon="1.20263">
        <ele>292.7</ele>
        <time>2024-09-25T14:06:17Z</time>
      </trkpt>
      <trkpt lat="45.79229" lon="1.20269">
        <ele>292.7</ele>
        <time>2024-09-25T14:06:18Z</time>
      </trkpt>
      <trkpt lat="45.79227" lon="1.20275">
        <ele>292.6</ele>
        <time>2024-09-25T14:06:19Z</time>
      </trkpt>
      <trkpt lat="45.79225" lon="1.20282">
        <ele>292.4</ele>
        <time>2024-09-25T14:06:20Z</time>
      </trkpt>
      <trkpt lat="45.79223" lon="1.20289">
        <ele>292.3</ele>
        <time>2024-09-25T14:06:21Z</time>
      </trkpt>
      <trkpt lat="45.79221" lon="1.20295">
        <ele>292.2</ele>
        <time>2024-09-25T14:06:22Z</time>
      </trkpt>
      <trkpt lat="45.79219" lon="1.20301">
        <ele>292.1</ele>
        <time>2024-09-25T14:06:23Z</time>
      </trkpt>
      <trkpt lat="45.79218" lon="1.20305">
        <ele>292</ele>
        <time>2024-09-25T14:06:24Z</time>
      </trkpt>
      <trkpt lat="45.79216" lon="1.20309">
        <ele>291.9</ele>
        <time>2024-09-25T14:06:25Z</time>
      </trkpt>
      <trkpt lat="45.79215" lon="1.20312">
        <ele>291.9</ele>
        <time>2024-09-25T14:06:26Z</time>
      </trkpt>
      <trkpt lat="45.79213" lon="1.20316">
        <ele>291.8</ele>
        <time>2024-09-25T14:06:27Z</time>
      </trkpt>
      <trkpt lat="45.7921" lon="1.20318">
        <ele>291.7</ele>
        <time>2024-09-25T14:06:28Z</time>
      </trkpt>
      <trkpt lat="45.79208" lon="1.20319">
        <ele>291.6</ele>
        <time>2024-09-25T14:06:29Z</time>
      </trkpt>
      <trkpt lat="45.79204" lon="1.20319">
        <ele>291.3</ele>
        <time>2024-09-25T14:06:30Z</time>
      </trkpt>
      <trkpt lat="45.792" lon="1.20318">
        <ele>291.1</ele>
        <time>2024-09-25T14:06:31Z</time>
      </trkpt>
      <trkpt lat="45.79196" lon="1.20319">
        <ele>290.9</ele>
        <time>2024-09-25T14:06:32Z</time>
      </trkpt>
      <trkpt lat="45.79189" lon="1.20319">
        <ele>290.5</ele>
        <time>2024-09-25T14:06:33Z</time>
      </trkpt>
      <trkpt lat="45.79184" lon="1.20323">
        <ele>290.2</ele>
        <time>2024-09-25T14:06:34Z</time>
      </trkpt>
      <trkpt lat="45.79177" lon="1.20326">
        <ele>289.8</ele>
        <time>2024-09-25T14:06:35Z</time>
      </trkpt>
      <trkpt lat="45.79172" lon="1.2033">
        <ele>289.5</ele>
        <time>2024-09-25T14:06:36Z</time>
      </trkpt>
      <trkpt lat="45.79166" lon="1.20335">
        <ele>289.1</ele>
        <time>2024-09-25T14:06:37Z</time>
      </trkpt>
      <trkpt lat="45.7916" lon="1.20339">
        <ele>288.7</ele>
        <time>2024-09-25T14:06:38Z</time>
      </trkpt>
      <trkpt lat="45.79154" lon="1.20343">
        <ele>288.3</ele>
        <time>2024-09-25T14:06:39Z</time>
      </trkpt>
      <trkpt lat="45.79146" lon="1.20347">
        <ele>287.9</ele>
        <time>2024-09-25T14:06:40Z</time>
      </trkpt>
      <trkpt lat="45.79139" lon="1.20349">
        <ele>287.5</ele>
        <time>2024-09-25T14:06:41Z</time>
      </trkpt>
      <trkpt lat="45.79132" lon="1.20347">
        <ele>287.2</ele>
        <time>2024-09-25T14:06:42Z</time>
      </trkpt>
      <trkpt lat="45.79126" lon="1.20344">
        <ele>286.9</ele>
        <time>2024-09-25T14:06:43Z</time>
      </trkpt>
      <trkpt lat="45.79121" lon="1.2034">
        <ele>286.7</ele>
        <time>2024-09-25T14:06:44Z</time>
      </trkpt>
      <trkpt lat="45.79115" lon="1.20334">
        <ele>286.4</ele>
        <time>2024-09-25T14:06:45Z</time>
      </trkpt>
      <trkpt lat="45.79111" lon="1.20328">
        <ele>286.1</ele>
        <time>2024-09-25T14:06:46Z</time>
      </trkpt>
      <trkpt lat="45.79107" lon="1.20322">
        <ele>285.9</ele>
        <time>2024-09-25T14:06:47Z</time>
      </trkpt>
      <trkpt lat="45.79102" lon="1.20315">
        <ele>285.6</ele>
        <time>2024-09-25T14:06:48Z</time>
      </trkpt>
      <trkpt lat="45.79097" lon="1.20309">
        <ele>285.3</ele>
        <time>2024-09-25T14:06:49Z</time>
      </trkpt>
      <trkpt lat="45.79093" lon="1.20303">
        <ele>285.1</ele>
        <time>2024-09-25T14:06:50Z</time>
      </trkpt>
      <trkpt lat="45.79088" lon="1.20297">
        <ele>284.8</ele>
        <time>2024-09-25T14:06:51Z</time>
      </trkpt>
      <trkpt lat="45.79082" lon="1.20291">
        <ele>284.5</ele>
        <time>2024-09-25T14:06:52Z</time>
      </trkpt>
      <trkpt lat="45.79077" lon="1.20286">
        <ele>284.2</ele>
        <time>2024-09-25T14:06:53Z</time>
      </trkpt>
      <trkpt lat="45.79072" lon="1.20281">
        <ele>283.9</ele>
        <time>2024-09-25T14:06:54Z</time>
      </trkpt>
      <trkpt lat="45.79068" lon="1.20276">
        <ele>283.7</ele>
        <time>2024-09-25T14:06:55Z</time>
      </trkpt>
      <trkpt lat="45.79063" lon="1.20271">
        <ele>283.4</ele>
        <time>2024-09-25T14:06:56Z</time>
      </trkpt>
      <trkpt lat="45.79059" lon="1.20266">
        <ele>283.1</ele>
        <time>2024-09-25T14:06:57Z</time>
      </trkpt>
      <trkpt lat="45.79054" lon="1.20261">
        <ele>282.8</ele>
        <time>2024-09-25T14:06:58Z</time>
      </trkpt>
      <trkpt lat="45.79049" lon="1.20255">
        <ele>282.5</ele>
        <time>2024-09-25T14:06:59Z</time>
      </trkpt>
      <trkpt lat="45.79044" lon="1.20249">
        <ele>282.2</ele>
        <time>2024-09-25T14:07:00Z</time>
      </trkpt>
      <trkpt lat="45.79039" lon="1.20243">
        <ele>281.8</ele>
        <time>2024-09-25T14:07:01Z</time>
      </trkpt>
      <trkpt lat="45.79034" lon="1.20237">
        <ele>281.5</ele>
        <time>2024-09-25T14:07:02Z</time>
      </trkpt>
      <trkpt lat="45.79029" lon="1.20232">
        <ele>281.2</ele>
        <time>2024-09-25T14:07:03Z</time>
      </trkpt>
      <trkpt lat="45.79024" lon="1.20226">
        <ele>280.8</ele>
        <time>2024-09-25T14:07:04Z</time>
      </trkpt>
      <trkpt lat="45.79019" lon="1.20222">
        <ele>280.6</ele>
        <time>2024-09-25T14:07:05Z</time>
      </trkpt>
      <trkpt lat="45.79014" lon="1.20218">
        <ele>280.3</ele>
        <time>2024-09-25T14:07:06Z</time>
      </trkpt>
      <trkpt lat="45.79009" lon="1.20213">
        <ele>280.1</ele>
        <time>2024-09-25T14:07:07Z</time>
      </trkpt>
      <trkpt lat="45.79004" lon="1.20209">
        <ele>279.8</ele>
        <time>2024-09-25T14:07:08Z</time>
      </trkpt>
      <trkpt lat="45.78998" lon="1.20206">
        <ele>279.6</ele>
        <time>2024-09-25T14:07:09Z</time>
      </trkpt>
      <trkpt lat="45.78993" lon="1.20202">
        <ele>279.4</ele>
        <time>2024-09-25T14:07:10Z</time>
      </trkpt>
      <trkpt lat="45.78987" lon="1.20199">
        <ele>279.1</ele>
        <time>2024-09-25T14:07:11Z</time>
      </trkpt>
      <trkpt lat="45.78981" lon="1.20194">
        <ele>278.9</ele>
        <time>2024-09-25T14:07:12Z</time>
      </trkpt>
      <trkpt lat="45.78975" lon="1.20191">
        <ele>278.7</ele>
        <time>2024-09-25T14:07:13Z</time>
      </trkpt>
      <trkpt lat="45.78969" lon="1.2019">
        <ele>278.6</ele>
        <time>2024-09-25T14:07:14Z</time>
      </trkpt>
      <trkpt lat="45.78962" lon="1.20188">
        <ele>278.4</ele>
        <time>2024-09-25T14:07:15Z</time>
      </trkpt>
      <trkpt lat="45.78956" lon="1.20186">
        <ele>278.3</ele>
        <time>2024-09-25T14:07:16Z</time>
      </trkpt>
      <trkpt lat="45.78949" lon="1.20184">
        <ele>278.2</ele>
        <time>2024-09-25T14:07:17Z</time>
      </trkpt>
      <trkpt lat="45.78944" lon="1.20181">
        <ele>278.2</ele>
        <time>2024-09-25T14:07:18Z</time>
      </trkpt>
      <trkpt lat="45.78937" lon="1.20179">
        <ele>278.1</ele>
        <time>2024-09-25T14:07:19Z</time>
      </trkpt>
      <trkpt lat="45.78931" lon="1.20177">
        <ele>278</ele>
        <time>2024-09-25T14:07:20Z</time>
      </trkpt>
      <trkpt lat="45.78926" lon="1.20176">
        <ele>278</ele>
        <time>2024-09-25T14:07:21Z</time>
      </trkpt>
      <trkpt lat="45.7892" lon="1.20175">
        <ele>278</ele>
        <time>2024-09-25T14:07:22Z</time>
      </trkpt>
      <trkpt lat="45.78914" lon="1.20174">
        <ele>278</ele>
        <time>2024-09-25T14:07:23Z</time>
      </trkpt>
      <trkpt lat="45.78908" lon="1.20174">
        <ele>278</ele>
        <time>2024-09-25T14:07:24Z</time>
      </trkpt>
      <trkpt lat="45.78902" lon="1.20175">
        <ele>278</ele>
        <time>2024-09-25T14:07:25Z</time>
      </trkpt>
      <trkpt lat="45.78897" lon="1.20176">
        <ele>278</ele>
        <time>2024-09-25T14:07:26Z</time>
      </trkpt>
      <trkpt lat="45.78891" lon="1.20179">
        <ele>278.1</ele>
        <time>2024-09-25T14:07:27Z</time>
      </trkpt>
      <trkpt lat="45.78886" lon="1.20181">
        <ele>278.2</ele>
        <time>2024-09-25T14:07:28Z</time>
      </trkpt>
      <trkpt lat="45.7888" lon="1.20184">
        <ele>278.3</ele>
        <time>2024-09-25T14:07:29Z</time>
      </trkpt>
      <trkpt lat="45.78875" lon="1.20187">
        <ele>278.4</ele>
        <time>2024-09-25T14:07:30Z</time>
      </trkpt>
      <trkpt lat="45.78869" lon="1.2019">
        <ele>278.5</ele>
        <time>2024-09-25T14:07:31Z</time>
      </trkpt>
      <trkpt lat="45.78863" lon="1.20193">
        <ele>278.7</ele>
        <time>2024-09-25T14:07:32Z</time>
      </trkpt>
      <trkpt lat="45.78858" lon="1.20195">
        <ele>278.8</ele>
        <time>2024-09-25T14:07:33Z</time>
      </trkpt>
      <trkpt lat="45.78852" lon="1.20196">
        <ele>279</ele>
        <time>2024-09-25T14:07:34Z</time>
      </trkpt>
      <trkpt lat="45.78847" lon="1.20197">
        <ele>279.1</ele>
        <time>2024-09-25T14:07:35Z</time>
      </trkpt>
      <trkpt lat="45.78842" lon="1.20198">
        <ele>279.3</ele>
        <time>2024-09-25T14:07:36Z</time>
      </trkpt>
      <trkpt lat="45.78837" lon="1.20198">
        <ele>279.4</ele>
        <time>2024-09-25T14:07:37Z</time>
      </trkpt>
      <trkpt lat="45.78832" lon="1.20196">
        <ele>279.6</ele>
        <time>2024-09-25T14:07:38Z</time>
      </trkpt>
      <trkpt lat="45.78828" lon="1.20193">
        <ele>279.7</ele>
        <time>2024-09-25T14:07:39Z</time>
      </trkpt>
      <trkpt lat="45.78823" lon="1.20191">
        <ele>279.9</ele>
        <time>2024-09-25T14:07:40Z</time>
      </trkpt>
      <trkpt lat="45.78819" lon="1.2019">
        <ele>280</ele>
        <time>2024-09-25T14:07:41Z</time>
      </trkpt>
      <trkpt lat="45.78813" lon="1.20188">
        <ele>280.1</ele>
        <time>2024-09-25T14:07:42Z</time>
      </trkpt>
      <trkpt lat="45.78808" lon="1.20187">
        <ele>280.2</ele>
        <time>2024-09-25T14:07:43Z</time>
      </trkpt>
      <trkpt lat="45.78803" lon="1.20184">
        <ele>280.3</ele>
        <time>2024-09-25T14:07:44Z</time>
      </trkpt>
      <trkpt lat="45.78798" lon="1.20182">
        <ele>280.4</ele>
        <time>2024-09-25T14:07:45Z</time>
      </trkpt>
      <trkpt lat="45.78792" lon="1.2018">
        <ele>280.5</ele>
        <time>2024-09-25T14:07:46Z</time>
      </trkpt>
      <trkpt lat="45.78788" lon="1.20178">
        <ele>280.5</ele>
        <time>2024-09-25T14:07:47Z</time>
      </trkpt>
      <trkpt lat="45.78783" lon="1.20176">
        <ele>280.5</ele>
        <time>2024-09-25T14:07:48Z</time>
      </trkpt>
      <trkpt lat="45.78779" lon="1.20175">
        <ele>280.6</ele>
        <time>2024-09-25T14:07:49Z</time>
      </trkpt>
      <trkpt lat="45.78774" lon="1.20173">
        <ele>280.6</ele>
        <time>2024-09-25T14:07:50Z</time>
      </trkpt>
      <trkpt lat="45.7877" lon="1.20172">
        <ele>280.6</ele>
        <time>2024-09-25T14:07:51Z</time>
      </trkpt>
      <trkpt lat="45.78765" lon="1.20172">
        <ele>280.7</ele>
        <time>2024-09-25T14:07:52Z</time>
      </trkpt>
      <trkpt lat="45.78761" lon="1.20173">
        <ele>280.7</ele>
        <time>2024-09-25T14:07:53Z</time>
      </trkpt>
      <trkpt lat="45.78757" lon="1.20175">
        <ele>280.7</ele>
        <time>2024-09-25T14:07:54Z</time>
      </trkpt>
      <trkpt lat="45.78755" lon="1.20179">
        <ele>280.8</ele>
        <time>2024-09-25T14:07:55Z</time>
      </trkpt>
      <trkpt lat="45.78753" lon="1.20183">
        <ele>280.8</ele>
        <time>2024-09-25T14:07:56Z</time>
      </trkpt>
      <trkpt lat="45.78752" lon="1.20188">
        <ele>280.9</ele>
        <time>2024-09-25T14:07:57Z</time>
      </trkpt>
      <trkpt lat="45.78751" lon="1.20193">
        <ele>280.9</ele>
        <time>2024-09-25T14:07:58Z</time>
      </trkpt>
      <trkpt lat="45.78751" lon="1.20201">
        <ele>281</ele>
        <time>2024-09-25T14:08:00Z</time>
      </trkpt>
      <trkpt lat="45.78751" lon="1.20209">
        <ele>281.1</ele>
        <time>2024-09-25T14:08:01Z</time>
      </trkpt>
      <trkpt lat="45.78752" lon="1.20216">
        <ele>281.1</ele>
        <time>2024-09-25T14:08:02Z</time>
      </trkpt>
      <trkpt lat="45.78752" lon="1.20223">
        <ele>281.2</ele>
        <time>2024-09-25T14:08:03Z</time>
      </trkpt>
      <trkpt lat="45.78753" lon="1.2023">
        <ele>281.1</ele>
        <time>2024-09-25T14:08:04Z</time>
      </trkpt>
      <trkpt lat="45.78753" lon="1.20237">
        <ele>281.1</ele>
        <time>2024-09-25T14:08:05Z</time>
      </trkpt>
      <trkpt lat="45.78754" lon="1.20244">
        <ele>281</ele>
        <time>2024-09-25T14:08:06Z</time>
      </trkpt>
      <trkpt lat="45.78753" lon="1.20249">
        <ele>281</ele>
        <time>2024-09-25T14:08:07Z</time>
      </trkpt>
      <trkpt lat="45.78753" lon="1.20255">
        <ele>280.9</ele>
        <time>2024-09-25T14:08:08Z</time>
      </trkpt>
      <trkpt lat="45.78753" lon="1.2026">
        <ele>280.7</ele>
        <time>2024-09-25T14:08:09Z</time>
      </trkpt>
      <trkpt lat="45.78752" lon="1.20267">
        <ele>280.6</ele>
        <time>2024-09-25T14:08:10Z</time>
      </trkpt>
      <trkpt lat="45.78752" lon="1.20272">
        <ele>280.4</ele>
        <time>2024-09-25T14:08:11Z</time>
      </trkpt>
      <trkpt lat="45.78752" lon="1.20277">
        <ele>280.3</ele>
        <time>2024-09-25T14:08:12Z</time>
      </trkpt>
      <trkpt lat="45.78752" lon="1.20281">
        <ele>280.1</ele>
        <time>2024-09-25T14:08:14Z</time>
      </trkpt>
      <trkpt lat="45.78751" lon="1.20288">
        <ele>279.9</ele>
        <time>2024-09-25T14:08:16Z</time>
      </trkpt>
      <trkpt lat="45.7875" lon="1.20295">
        <ele>279.7</ele>
        <time>2024-09-25T14:08:17Z</time>
      </trkpt>
      <trkpt lat="45.78749" lon="1.203">
        <ele>279.5</ele>
        <time>2024-09-25T14:08:18Z</time>
      </trkpt>
      <trkpt lat="45.78747" lon="1.20306">
        <ele>279.3</ele>
        <time>2024-09-25T14:08:19Z</time>
      </trkpt>
      <trkpt lat="45.78746" lon="1.20312">
        <ele>279.1</ele>
        <time>2024-09-25T14:08:20Z</time>
      </trkpt>
      <trkpt lat="45.78744" lon="1.20319">
        <ele>278.8</ele>
        <time>2024-09-25T14:08:21Z</time>
      </trkpt>
      <trkpt lat="45.78743" lon="1.20324">
        <ele>278.6</ele>
        <time>2024-09-25T14:08:22Z</time>
      </trkpt>
      <trkpt lat="45.78744" lon="1.20329">
        <ele>278.5</ele>
        <time>2024-09-25T14:08:23Z</time>
      </trkpt>
      <trkpt lat="45.78746" lon="1.20333">
        <ele>278.3</ele>
        <time>2024-09-25T14:08:24Z</time>
      </trkpt>
      <trkpt lat="45.78749" lon="1.20337">
        <ele>277.8</ele>
        <time>2024-09-25T14:08:25Z</time>
      </trkpt>
      <trkpt lat="45.78752" lon="1.20339">
        <ele>277.6</ele>
        <time>2024-09-25T14:08:26Z</time>
      </trkpt>
      <trkpt lat="45.78756" lon="1.20341">
        <ele>277.4</ele>
        <time>2024-09-25T14:08:27Z</time>
      </trkpt>
      <trkpt lat="45.7876" lon="1.20343">
        <ele>277.2</ele>
        <time>2024-09-25T14:08:28Z</time>
      </trkpt>
      <trkpt lat="45.78765" lon="1.20344">
        <ele>276.9</ele>
        <time>2024-09-25T14:08:29Z</time>
      </trkpt>
      <trkpt lat="45.78769" lon="1.20345">
        <ele>276.7</ele>
        <time>2024-09-25T14:08:30Z</time>
      </trkpt>
      <trkpt lat="45.78774" lon="1.20347">
        <ele>276.3</ele>
        <time>2024-09-25T14:08:31Z</time>
      </trkpt>
      <trkpt lat="45.78779" lon="1.20348">
        <ele>276</ele>
        <time>2024-09-25T14:08:32Z</time>
      </trkpt>
      <trkpt lat="45.78785" lon="1.2035">
        <ele>275.6</ele>
        <time>2024-09-25T14:08:33Z</time>
      </trkpt>
      <trkpt lat="45.7879" lon="1.20351">
        <ele>275.3</ele>
        <time>2024-09-25T14:08:34Z</time>
      </trkpt>
      <trkpt lat="45.78795" lon="1.20352">
        <ele>274.9</ele>
        <time>2024-09-25T14:08:35Z</time>
      </trkpt>
      <trkpt lat="45.788" lon="1.20353">
        <ele>274.5</ele>
        <time>2024-09-25T14:08:36Z</time>
      </trkpt>
      <trkpt lat="45.78805" lon="1.20355">
        <ele>274.1</ele>
        <time>2024-09-25T14:08:37Z</time>
      </trkpt>
      <trkpt lat="45.78809" lon="1.20358">
        <ele>273.6</ele>
        <time>2024-09-25T14:08:38Z</time>
      </trkpt>
      <trkpt lat="45.78814" lon="1.20362">
        <ele>273</ele>
        <time>2024-09-25T14:08:39Z</time>
      </trkpt>
      <trkpt lat="45.78817" lon="1.20367">
        <ele>272.5</ele>
        <time>2024-09-25T14:08:40Z</time>
      </trkpt>
      <trkpt lat="45.78821" lon="1.20372">
        <ele>271.9</ele>
        <time>2024-09-25T14:08:41Z</time>
      </trkpt>
      <trkpt lat="45.78825" lon="1.20379">
        <ele>271.1</ele>
        <time>2024-09-25T14:08:42Z</time>
      </trkpt>
      <trkpt lat="45.78828" lon="1.20385">
        <ele>270.5</ele>
        <time>2024-09-25T14:08:43Z</time>
      </trkpt>
      <trkpt lat="45.78832" lon="1.20392">
        <ele>269.8</ele>
        <time>2024-09-25T14:08:44Z</time>
      </trkpt>
      <trkpt lat="45.78835" lon="1.20399">
        <ele>269.1</ele>
        <time>2024-09-25T14:08:45Z</time>
      </trkpt>
      <trkpt lat="45.78838" lon="1.20406">
        <ele>268.3</ele>
        <time>2024-09-25T14:08:46Z</time>
      </trkpt>
      <trkpt lat="45.78842" lon="1.20412">
        <ele>267.6</ele>
        <time>2024-09-25T14:08:47Z</time>
      </trkpt>
      <trkpt lat="45.78846" lon="1.20419">
        <ele>266.6</ele>
        <time>2024-09-25T14:08:48Z</time>
      </trkpt>
      <trkpt lat="45.7885" lon="1.20425">
        <ele>265.7</ele>
        <time>2024-09-25T14:08:49Z</time>
      </trkpt>
      <trkpt lat="45.78854" lon="1.20431">
        <ele>264.8</ele>
        <time>2024-09-25T14:08:50Z</time>
      </trkpt>
      <trkpt lat="45.78859" lon="1.20436">
        <ele>263.9</ele>
        <time>2024-09-25T14:08:51Z</time>
      </trkpt>
      <trkpt lat="45.78863" lon="1.20441">
        <ele>263.1</ele>
        <time>2024-09-25T14:08:52Z</time>
      </trkpt>
      <trkpt lat="45.78868" lon="1.20446">
        <ele>262.2</ele>
        <time>2024-09-25T14:08:53Z</time>
      </trkpt>
      <trkpt lat="45.78873" lon="1.20451">
        <ele>261.5</ele>
        <time>2024-09-25T14:08:54Z</time>
      </trkpt>
      <trkpt lat="45.78879" lon="1.20456">
        <ele>260.7</ele>
        <time>2024-09-25T14:08:55Z</time>
      </trkpt>
      <trkpt lat="45.78884" lon="1.20461">
        <ele>260.1</ele>
        <time>2024-09-25T14:08:56Z</time>
      </trkpt>
      <trkpt lat="45.78889" lon="1.20466">
        <ele>259.5</ele>
        <time>2024-09-25T14:08:57Z</time>
      </trkpt>
      <trkpt lat="45.78894" lon="1.20471">
        <ele>259</ele>
        <time>2024-09-25T14:08:58Z</time>
      </trkpt>
      <trkpt lat="45.78899" lon="1.20475">
        <ele>258.5</ele>
        <time>2024-09-25T14:08:59Z</time>
      </trkpt>
      <trkpt lat="45.78906" lon="1.2048">
        <ele>258</ele>
        <time>2024-09-25T14:09:01Z</time>
      </trkpt>
      <trkpt lat="45.7891" lon="1.20483">
        <ele>257.6</ele>
        <time>2024-09-25T14:09:02Z</time>
      </trkpt>
      <trkpt lat="45.78914" lon="1.20486">
        <ele>257.4</ele>
        <time>2024-09-25T14:09:03Z</time>
      </trkpt>
      <trkpt lat="45.78918" lon="1.20489">
        <ele>257.1</ele>
        <time>2024-09-25T14:09:04Z</time>
      </trkpt>
      <trkpt lat="45.78922" lon="1.20491">
        <ele>257</ele>
        <time>2024-09-25T14:09:05Z</time>
      </trkpt>
      <trkpt lat="45.78926" lon="1.20493">
        <ele>256.8</ele>
        <time>2024-09-25T14:09:06Z</time>
      </trkpt>
      <trkpt lat="45.78929" lon="1.20495">
        <ele>256.7</ele>
        <time>2024-09-25T14:09:07Z</time>
      </trkpt>
      <trkpt lat="45.78933" lon="1.20497">
        <ele>256.5</ele>
        <time>2024-09-25T14:09:08Z</time>
      </trkpt>
      <trkpt lat="45.78936" lon="1.205">
        <ele>256.4</ele>
        <time>2024-09-25T14:09:09Z</time>
      </trkpt>
      <trkpt lat="45.78939" lon="1.20504">
        <ele>256.3</ele>
        <time>2024-09-25T14:09:10Z</time>
      </trkpt>
      <trkpt lat="45.78944" lon="1.20508">
        <ele>256.2</ele>
        <time>2024-09-25T14:09:11Z</time>
      </trkpt>
      <trkpt lat="45.78948" lon="1.20512">
        <ele>256.1</ele>
        <time>2024-09-25T14:09:12Z</time>
      </trkpt>
      <trkpt lat="45.78952" lon="1.20518">
        <ele>256</ele>
        <time>2024-09-25T14:09:13Z</time>
      </trkpt>
      <trkpt lat="45.78957" lon="1.20522">
        <ele>255.9</ele>
        <time>2024-09-25T14:09:14Z</time>
      </trkpt>
      <trkpt lat="45.78959" lon="1.20525">
        <ele>255.9</ele>
        <time>2024-09-25T14:09:15Z</time>
      </trkpt>
      <trkpt lat="45.78962" lon="1.20529">
        <ele>255.7</ele>
        <time>2024-09-25T14:09:17Z</time>
      </trkpt>
      <trkpt lat="45.78963" lon="1.20535">
        <ele>255.5</ele>
        <time>2024-09-25T14:09:19Z</time>
      </trkpt>
      <trkpt lat="45.78964" lon="1.20539">
        <ele>255.3</ele>
        <time>2024-09-25T14:09:20Z</time>
      </trkpt>
      <trkpt lat="45.78962" lon="1.20544">
        <ele>255</ele>
        <time>2024-09-25T14:09:21Z</time>
      </trkpt>
      <trkpt lat="45.7896" lon="1.20549">
        <ele>254.6</ele>
        <time>2024-09-25T14:09:22Z</time>
      </trkpt>
      <trkpt lat="45.78957" lon="1.20553">
        <ele>254.1</ele>
        <time>2024-09-25T14:09:23Z</time>
      </trkpt>
      <trkpt lat="45.78954" lon="1.20559">
        <ele>253.5</ele>
        <time>2024-09-25T14:09:24Z</time>
      </trkpt>
      <trkpt lat="45.78951" lon="1.20564">
        <ele>253</ele>
        <time>2024-09-25T14:09:25Z</time>
      </trkpt>
      <trkpt lat="45.78946" lon="1.20571">
        <ele>252.2</ele>
        <time>2024-09-25T14:09:26Z</time>
      </trkpt>
      <trkpt lat="45.78942" lon="1.20579">
        <ele>251.4</ele>
        <time>2024-09-25T14:09:27Z</time>
      </trkpt>
      <trkpt lat="45.7894" lon="1.20586">
        <ele>250.7</ele>
        <time>2024-09-25T14:09:28Z</time>
      </trkpt>
      <trkpt lat="45.78937" lon="1.20592">
        <ele>250.1</ele>
        <time>2024-09-25T14:09:29Z</time>
      </trkpt>
      <trkpt lat="45.78933" lon="1.20599">
        <ele>249.3</ele>
        <time>2024-09-25T14:09:30Z</time>
      </trkpt>
      <trkpt lat="45.78929" lon="1.20606">
        <ele>248.5</ele>
        <time>2024-09-25T14:09:32Z</time>
      </trkpt>
      <trkpt lat="45.78925" lon="1.20611">
        <ele>247.7</ele>
        <time>2024-09-25T14:09:34Z</time>
      </trkpt>
      <trkpt lat="45.78921" lon="1.20615">
        <ele>247</ele>
        <time>2024-09-25T14:09:35Z</time>
      </trkpt>
      <trkpt lat="45.78918" lon="1.20619">
        <ele>246.4</ele>
        <time>2024-09-25T14:09:36Z</time>
      </trkpt>
      <trkpt lat="45.78915" lon="1.20623">
        <ele>245.9</ele>
        <time>2024-09-25T14:09:37Z</time>
      </trkpt>
      <trkpt lat="45.78912" lon="1.20628">
        <ele>245.3</ele>
        <time>2024-09-25T14:09:38Z</time>
      </trkpt>
      <trkpt lat="45.78909" lon="1.20633">
        <ele>244.7</ele>
        <time>2024-09-25T14:09:39Z</time>
      </trkpt>
      <trkpt lat="45.78905" lon="1.20639">
        <ele>244.1</ele>
        <time>2024-09-25T14:09:40Z</time>
      </trkpt>
      <trkpt lat="45.78902" lon="1.20646">
        <ele>243.6</ele>
        <time>2024-09-25T14:09:41Z</time>
      </trkpt>
      <trkpt lat="45.78899" lon="1.20652">
        <ele>243.2</ele>
        <time>2024-09-25T14:09:42Z</time>
      </trkpt>
      <trkpt lat="45.78897" lon="1.20658">
        <ele>242.8</ele>
        <time>2024-09-25T14:09:43Z</time>
      </trkpt>
      <trkpt lat="45.78894" lon="1.20662">
        <ele>242.6</ele>
        <time>2024-09-25T14:09:44Z</time>
      </trkpt>
      <trkpt lat="45.78893" lon="1.20668">
        <ele>242.3</ele>
        <time>2024-09-25T14:09:45Z</time>
      </trkpt>
      <trkpt lat="45.78894" lon="1.20673">
        <ele>242.2</ele>
        <time>2024-09-25T14:09:47Z</time>
      </trkpt>
      <trkpt lat="45.78895" lon="1.20679">
        <ele>242</ele>
        <time>2024-09-25T14:09:48Z</time>
      </trkpt>
      <trkpt lat="45.78896" lon="1.20683">
        <ele>241.9</ele>
        <time>2024-09-25T14:09:49Z</time>
      </trkpt>
      <trkpt lat="45.78897" lon="1.20687">
        <ele>241.9</ele>
        <time>2024-09-25T14:09:50Z</time>
      </trkpt>
      <trkpt lat="45.78899" lon="1.20692">
        <ele>241.8</ele>
        <time>2024-09-25T14:09:51Z</time>
      </trkpt>
      <trkpt lat="45.78901" lon="1.20696">
        <ele>241.8</ele>
        <time>2024-09-25T14:09:52Z</time>
      </trkpt>
      <trkpt lat="45.78904" lon="1.207">
        <ele>242.1</ele>
        <time>2024-09-25T14:09:53Z</time>
      </trkpt>
      <trkpt lat="45.78907" lon="1.20702">
        <ele>242.4</ele>
        <time>2024-09-25T14:09:54Z</time>
      </trkpt>
      <trkpt lat="45.7891" lon="1.20703">
        <ele>242.7</ele>
        <time>2024-09-25T14:09:55Z</time>
      </trkpt>
      <trkpt lat="45.78914" lon="1.20704">
        <ele>243</ele>
        <time>2024-09-25T14:09:56Z</time>
      </trkpt>
      <trkpt lat="45.78918" lon="1.20704">
        <ele>243.4</ele>
        <time>2024-09-25T14:09:57Z</time>
      </trkpt>
      <trkpt lat="45.78922" lon="1.20705">
        <ele>243.7</ele>
        <time>2024-09-25T14:09:58Z</time>
      </trkpt>
      <trkpt lat="45.78925" lon="1.20705">
        <ele>244</ele>
        <time>2024-09-25T14:09:59Z</time>
      </trkpt>
      <trkpt lat="45.78929" lon="1.20707">
        <ele>244.2</ele>
        <time>2024-09-25T14:10:00Z</time>
      </trkpt>
      <trkpt lat="45.78931" lon="1.2071">
        <ele>244.2</ele>
        <time>2024-09-25T14:10:01Z</time>
      </trkpt>
      <trkpt lat="45.78933" lon="1.20714">
        <ele>244.2</ele>
        <time>2024-09-25T14:10:02Z</time>
      </trkpt>
      <trkpt lat="45.78934" lon="1.20718">
        <ele>244.2</ele>
        <time>2024-09-25T14:10:03Z</time>
      </trkpt>
      <trkpt lat="45.78933" lon="1.20724">
        <ele>244.3</ele>
        <time>2024-09-25T14:10:05Z</time>
      </trkpt>
      <trkpt lat="45.78932" lon="1.20729">
        <ele>244.3</ele>
        <time>2024-09-25T14:10:06Z</time>
      </trkpt>
      <trkpt lat="45.78932" lon="1.20735">
        <ele>244.4</ele>
        <time>2024-09-25T14:10:07Z</time>
      </trkpt>
      <trkpt lat="45.78933" lon="1.20741">
        <ele>244.4</ele>
        <time>2024-09-25T14:10:08Z</time>
      </trkpt>
      <trkpt lat="45.78935" lon="1.20748">
        <ele>244.5</ele>
        <time>2024-09-25T14:10:09Z</time>
      </trkpt>
      <trkpt lat="45.78937" lon="1.20754">
        <ele>244.5</ele>
        <time>2024-09-25T14:10:10Z</time>
      </trkpt>
      <trkpt lat="45.78941" lon="1.20759">
        <ele>244.6</ele>
        <time>2024-09-25T14:10:12Z</time>
      </trkpt>
      <trkpt lat="45.78943" lon="1.20763">
        <ele>244.6</ele>
        <time>2024-09-25T14:10:13Z</time>
      </trkpt>
      <trkpt lat="45.78947" lon="1.20767">
        <ele>244.7</ele>
        <time>2024-09-25T14:10:14Z</time>
      </trkpt>
      <trkpt lat="45.7895" lon="1.20771">
        <ele>244.7</ele>
        <time>2024-09-25T14:10:15Z</time>
      </trkpt>
      <trkpt lat="45.78953" lon="1.20775">
        <ele>244.8</ele>
        <time>2024-09-25T14:10:16Z</time>
      </trkpt>
      <trkpt lat="45.78955" lon="1.20779">
        <ele>244.8</ele>
        <time>2024-09-25T14:10:17Z</time>
      </trkpt>
      <trkpt lat="45.78957" lon="1.20782">
        <ele>244.9</ele>
        <time>2024-09-25T14:10:18Z</time>
      </trkpt>
      <trkpt lat="45.7896" lon="1.20787">
        <ele>244.9</ele>
        <time>2024-09-25T14:10:19Z</time>
      </trkpt>
      <trkpt lat="45.78963" lon="1.20792">
        <ele>245</ele>
        <time>2024-09-25T14:10:20Z</time>
      </trkpt>
      <trkpt lat="45.78965" lon="1.20798">
        <ele>245</ele>
        <time>2024-09-25T14:10:21Z</time>
      </trkpt>
      <trkpt lat="45.78968" lon="1.20804">
        <ele>245</ele>
        <time>2024-09-25T14:10:22Z</time>
      </trkpt>
      <trkpt lat="45.78974" lon="1.20811">
        <ele>245</ele>
        <time>2024-09-25T14:10:23Z</time>
      </trkpt>
      <trkpt lat="45.78979" lon="1.20816">
        <ele>245</ele>
        <time>2024-09-25T14:10:24Z</time>
      </trkpt>
      <trkpt lat="45.78983" lon="1.20821">
        <ele>245</ele>
        <time>2024-09-25T14:10:25Z</time>
      </trkpt>
      <trkpt lat="45.78986" lon="1.20825">
        <ele>245</ele>
        <time>2024-09-25T14:10:26Z</time>
      </trkpt>
      <trkpt lat="45.78989" lon="1.2083">
        <ele>244.9</ele>
        <time>2024-09-25T14:10:27Z</time>
      </trkpt>
      <trkpt lat="45.78992" lon="1.20834">
        <ele>244.8</ele>
        <time>2024-09-25T14:10:28Z</time>
      </trkpt>
      <trkpt lat="45.78995" lon="1.2084">
        <ele>244.7</ele>
        <time>2024-09-25T14:10:29Z</time>
      </trkpt>
      <trkpt lat="45.78999" lon="1.20845">
        <ele>244.6</ele>
        <time>2024-09-25T14:10:30Z</time>
      </trkpt>
      <trkpt lat="45.79004" lon="1.20853">
        <ele>244.3</ele>
        <time>2024-09-25T14:10:31Z</time>
      </trkpt>
      <trkpt lat="45.79008" lon="1.20859">
        <ele>244</ele>
        <time>2024-09-25T14:10:32Z</time>
      </trkpt>
      <trkpt lat="45.79013" lon="1.20865">
        <ele>243.6</ele>
        <time>2024-09-25T14:10:33Z</time>
      </trkpt>
      <trkpt lat="45.79019" lon="1.2087">
        <ele>243.1</ele>
        <time>2024-09-25T14:10:34Z</time>
      </trkpt>
      <trkpt lat="45.79025" lon="1.20876">
        <ele>242.6</ele>
        <time>2024-09-25T14:10:35Z</time>
      </trkpt>
      <trkpt lat="45.7903" lon="1.20883">
        <ele>242</ele>
        <time>2024-09-25T14:10:36Z</time>
      </trkpt>
      <trkpt lat="45.79034" lon="1.20889">
        <ele>241.5</ele>
        <time>2024-09-25T14:10:37Z</time>
      </trkpt>
      <trkpt lat="45.79038" lon="1.20895">
        <ele>241</ele>
        <time>2024-09-25T14:10:38Z</time>
      </trkpt>
      <trkpt lat="45.79041" lon="1.209">
        <ele>240.6</ele>
        <time>2024-09-25T14:10:39Z</time>
      </trkpt>
      <trkpt lat="45.79044" lon="1.20904">
        <ele>240.3</ele>
        <time>2024-09-25T14:10:40Z</time>
      </trkpt>
      <trkpt lat="45.79047" lon="1.20909">
        <ele>240</ele>
        <time>2024-09-25T14:10:41Z</time>
      </trkpt>
      <trkpt lat="45.79049" lon="1.20915">
        <ele>239.8</ele>
        <time>2024-09-25T14:10:43Z</time>
      </trkpt>
      <trkpt lat="45.79052" lon="1.20919">
        <ele>239.7</ele>
        <time>2024-09-25T14:10:44Z</time>
      </trkpt>
      <trkpt lat="45.79055" lon="1.20924">
        <ele>239.7</ele>
        <time>2024-09-25T14:10:46Z</time>
      </trkpt>
      <trkpt lat="45.79058" lon="1.20929">
        <ele>239.8</ele>
        <time>2024-09-25T14:10:48Z</time>
      </trkpt>
      <trkpt lat="45.79061" lon="1.20935">
        <ele>240</ele>
        <time>2024-09-25T14:10:50Z</time>
      </trkpt>
      <trkpt lat="45.79065" lon="1.2094">
        <ele>240.4</ele>
        <time>2024-09-25T14:10:53Z</time>
      </trkpt>
      <trkpt lat="45.79067" lon="1.20944">
        <ele>240.6</ele>
        <time>2024-09-25T14:10:54Z</time>
      </trkpt>
      <trkpt lat="45.7907" lon="1.20948">
        <ele>241</ele>
        <time>2024-09-25T14:10:55Z</time>
      </trkpt>
      <trkpt lat="45.79072" lon="1.20952">
        <ele>241.3</ele>
        <time>2024-09-25T14:10:56Z</time>
      </trkpt>
      <trkpt lat="45.79074" lon="1.20957">
        <ele>241.8</ele>
        <time>2024-09-25T14:10:57Z</time>
      </trkpt>
      <trkpt lat="45.79076" lon="1.20962">
        <ele>242.3</ele>
        <time>2024-09-25T14:10:58Z</time>
      </trkpt>
      <trkpt lat="45.79078" lon="1.20967">
        <ele>242.9</ele>
        <time>2024-09-25T14:10:59Z</time>
      </trkpt>
      <trkpt lat="45.7908" lon="1.20972">
        <ele>243.5</ele>
        <time>2024-09-25T14:11:00Z</time>
      </trkpt>
      <trkpt lat="45.79083" lon="1.20976">
        <ele>244.2</ele>
        <time>2024-09-25T14:11:02Z</time>
      </trkpt>
      <trkpt lat="45.79085" lon="1.2098">
        <ele>244.7</ele>
        <time>2024-09-25T14:11:03Z</time>
      </trkpt>
      <trkpt lat="45.79088" lon="1.20986">
        <ele>245.6</ele>
        <time>2024-09-25T14:11:05Z</time>
      </trkpt>
      <trkpt lat="45.7909" lon="1.2099">
        <ele>246.1</ele>
        <time>2024-09-25T14:11:06Z</time>
      </trkpt>
      <trkpt lat="45.79092" lon="1.20995">
        <ele>246.8</ele>
        <time>2024-09-25T14:11:08Z</time>
      </trkpt>
      <trkpt lat="45.79094" lon="1.21001">
        <ele>247.7</ele>
        <time>2024-09-25T14:11:10Z</time>
      </trkpt>
      <trkpt lat="45.79096" lon="1.21007">
        <ele>248.5</ele>
        <time>2024-09-25T14:11:12Z</time>
      </trkpt>
      <trkpt lat="45.79098" lon="1.21012">
        <ele>249.2</ele>
        <time>2024-09-25T14:11:14Z</time>
      </trkpt>
      <trkpt lat="45.79102" lon="1.21016">
        <ele>250.1</ele>
        <time>2024-09-25T14:11:16Z</time>
      </trkpt>
      <trkpt lat="45.79106" lon="1.21018">
        <ele>250.8</ele>
        <time>2024-09-25T14:11:18Z</time>
      </trkpt>
      <trkpt lat="45.79108" lon="1.21022">
        <ele>251.4</ele>
        <time>2024-09-25T14:11:20Z</time>
      </trkpt>
      <trkpt lat="45.79111" lon="1.21027">
        <ele>252.1</ele>
        <time>2024-09-25T14:11:22Z</time>
      </trkpt>
      <trkpt lat="45.79114" lon="1.21032">
        <ele>252.5</ele>
        <time>2024-09-25T14:11:24Z</time>
      </trkpt>
      <trkpt lat="45.79116" lon="1.21038">
        <ele>252.9</ele>
        <time>2024-09-25T14:11:26Z</time>
      </trkpt>
      <trkpt lat="45.79118" lon="1.21043">
        <ele>253.2</ele>
        <time>2024-09-25T14:11:28Z</time>
      </trkpt>
      <trkpt lat="45.79121" lon="1.21048">
        <ele>253.6</ele>
        <time>2024-09-25T14:11:30Z</time>
      </trkpt>
      <trkpt lat="45.79123" lon="1.21053">
        <ele>254</ele>
        <time>2024-09-25T14:11:32Z</time>
      </trkpt>
      <trkpt lat="45.79126" lon="1.21058">
        <ele>254.4</ele>
        <time>2024-09-25T14:11:34Z</time>
      </trkpt>
      <trkpt lat="45.79129" lon="1.21061">
        <ele>254.8</ele>
        <time>2024-09-25T14:11:35Z</time>
      </trkpt>
      <trkpt lat="45.79131" lon="1.21064">
        <ele>255.1</ele>
        <time>2024-09-25T14:11:36Z</time>
      </trkpt>
      <trkpt lat="45.79132" lon="1.21068">
        <ele>255.4</ele>
        <time>2024-09-25T14:11:38Z</time>
      </trkpt>
      <trkpt lat="45.79135" lon="1.21072">
        <ele>255.8</ele>
        <time>2024-09-25T14:11:40Z</time>
      </trkpt>
      <trkpt lat="45.79137" lon="1.21075">
        <ele>256</ele>
        <time>2024-09-25T14:11:41Z</time>
      </trkpt>
      <trkpt lat="45.79139" lon="1.21079">
        <ele>256.4</ele>
        <time>2024-09-25T14:11:42Z</time>
      </trkpt>
      <trkpt lat="45.79141" lon="1.21082">
        <ele>256.6</ele>
        <time>2024-09-25T14:11:43Z</time>
      </trkpt>
      <trkpt lat="45.79142" lon="1.21085">
        <ele>256.9</ele>
        <time>2024-09-25T14:11:44Z</time>
      </trkpt>
      <trkpt lat="45.79145" lon="1.21089">
        <ele>257.3</ele>
        <time>2024-09-25T14:11:46Z</time>
      </trkpt>
      <trkpt lat="45.79148" lon="1.21094">
        <ele>257.7</ele>
        <time>2024-09-25T14:11:48Z</time>
      </trkpt>
      <trkpt lat="45.79151" lon="1.21098">
        <ele>258</ele>
        <time>2024-09-25T14:11:50Z</time>
      </trkpt>
      <trkpt lat="45.79153" lon="1.21103">
        <ele>258.4</ele>
        <time>2024-09-25T14:11:52Z</time>
      </trkpt>
      <trkpt lat="45.79156" lon="1.21108">
        <ele>258.7</ele>
        <time>2024-09-25T14:11:54Z</time>
      </trkpt>
      <trkpt lat="45.79158" lon="1.21113">
        <ele>259.1</ele>
        <time>2024-09-25T14:11:56Z</time>
      </trkpt>
      <trkpt lat="45.7916" lon="1.21118">
        <ele>259.4</ele>
        <time>2024-09-25T14:11:57Z</time>
      </trkpt>
      <trkpt lat="45.79161" lon="1.21123">
        <ele>259.7</ele>
        <time>2024-09-25T14:11:59Z</time>
      </trkpt>
      <trkpt lat="45.79163" lon="1.21128">
        <ele>260</ele>
        <time>2024-09-25T14:12:01Z</time>
      </trkpt>
      <trkpt lat="45.79166" lon="1.21133">
        <ele>260.5</ele>
        <time>2024-09-25T14:12:03Z</time>
      </trkpt>
      <trkpt lat="45.79168" lon="1.21137">
        <ele>260.8</ele>
        <time>2024-09-25T14:12:05Z</time>
      </trkpt>
      <trkpt lat="45.79171" lon="1.21136">
        <ele>261.4</ele>
        <time>2024-09-25T14:12:09Z</time>
      </trkpt>
      <trkpt lat="45.79174" lon="1.21133">
        <ele>261.6</ele>
        <time>2024-09-25T14:12:11Z</time>
      </trkpt>
      <trkpt lat="45.79176" lon="1.21128">
        <ele>261.9</ele>
        <time>2024-09-25T14:12:13Z</time>
      </trkpt>
      <trkpt lat="45.79179" lon="1.21124">
        <ele>262.2</ele>
        <time>2024-09-25T14:12:15Z</time>
      </trkpt>
      <trkpt lat="45.79182" lon="1.21119">
        <ele>262.5</ele>
        <time>2024-09-25T14:12:17Z</time>
      </trkpt>
      <trkpt lat="45.79185" lon="1.21115">
        <ele>262.9</ele>
        <time>2024-09-25T14:12:18Z</time>
      </trkpt>
      <trkpt lat="45.79188" lon="1.21112">
        <ele>263.2</ele>
        <time>2024-09-25T14:12:20Z</time>
      </trkpt>
      <trkpt lat="45.79191" lon="1.21109">
        <ele>263.5</ele>
        <time>2024-09-25T14:12:22Z</time>
      </trkpt>
      <trkpt lat="45.79193" lon="1.21105">
        <ele>263.7</ele>
        <time>2024-09-25T14:12:24Z</time>
      </trkpt>
      <trkpt lat="45.79196" lon="1.211">
        <ele>264.1</ele>
        <time>2024-09-25T14:12:26Z</time>
      </trkpt>
      <trkpt lat="45.79198" lon="1.21096">
        <ele>264.4</ele>
        <time>2024-09-25T14:12:27Z</time>
      </trkpt>
      <trkpt lat="45.792" lon="1.21092">
        <ele>264.7</ele>
        <time>2024-09-25T14:12:28Z</time>
      </trkpt>
      <trkpt lat="45.79202" lon="1.21089">
        <ele>264.9</ele>
        <time>2024-09-25T14:12:29Z</time>
      </trkpt>
      <trkpt lat="45.79204" lon="1.21085">
        <ele>265.1</ele>
        <time>2024-09-25T14:12:30Z</time>
      </trkpt>
      <trkpt lat="45.79207" lon="1.21082">
        <ele>265.4</ele>
        <time>2024-09-25T14:12:31Z</time>
      </trkpt>
      <trkpt lat="45.79208" lon="1.21079">
        <ele>265.5</ele>
        <time>2024-09-25T14:12:32Z</time>
      </trkpt>
      <trkpt lat="45.79211" lon="1.21074">
        <ele>265.8</ele>
        <time>2024-09-25T14:12:34Z</time>
      </trkpt>
      <trkpt lat="45.79214" lon="1.21068">
        <ele>266.1</ele>
        <time>2024-09-25T14:12:36Z</time>
      </trkpt>
      <trkpt lat="45.79217" lon="1.21063">
        <ele>266.5</ele>
        <time>2024-09-25T14:12:38Z</time>
      </trkpt>
      <trkpt lat="45.7922" lon="1.21057">
        <ele>266.9</ele>
        <time>2024-09-25T14:12:40Z</time>
      </trkpt>
      <trkpt lat="45.79223" lon="1.21052">
        <ele>267.3</ele>
        <time>2024-09-25T14:12:42Z</time>
      </trkpt>
      <trkpt lat="45.79226" lon="1.21046">
        <ele>267.7</ele>
        <time>2024-09-25T14:12:44Z</time>
      </trkpt>
      <trkpt lat="45.79229" lon="1.2104">
        <ele>268.3</ele>
        <time>2024-09-25T14:12:46Z</time>
      </trkpt>
      <trkpt lat="45.79233" lon="1.21035">
        <ele>268.9</ele>
        <time>2024-09-25T14:12:48Z</time>
      </trkpt>
      <trkpt lat="45.79237" lon="1.21031">
        <ele>269.5</ele>
        <time>2024-09-25T14:12:50Z</time>
      </trkpt>
      <trkpt lat="45.7924" lon="1.21027">
        <ele>270</ele>
        <time>2024-09-25T14:12:52Z</time>
      </trkpt>
      <trkpt lat="45.79244" lon="1.21023">
        <ele>270.7</ele>
        <time>2024-09-25T14:12:55Z</time>
      </trkpt>
      <trkpt lat="45.79247" lon="1.21019">
        <ele>271.2</ele>
        <time>2024-09-25T14:12:57Z</time>
      </trkpt>
      <trkpt lat="45.7925" lon="1.21015">
        <ele>271.8</ele>
        <time>2024-09-25T14:12:59Z</time>
      </trkpt>
      <trkpt lat="45.79253" lon="1.21013">
        <ele>272.1</ele>
        <time>2024-09-25T14:13:01Z</time>
      </trkpt>
      <trkpt lat="45.79257" lon="1.2101">
        <ele>272.6</ele>
        <time>2024-09-25T14:13:03Z</time>
      </trkpt>
      <trkpt lat="45.79261" lon="1.21011">
        <ele>272.9</ele>
        <time>2024-09-25T14:13:06Z</time>
      </trkpt>
      <trkpt lat="45.79266" lon="1.21012">
        <ele>273.3</ele>
        <time>2024-09-25T14:13:08Z</time>
      </trkpt>
      <trkpt lat="45.79269" lon="1.21014">
        <ele>273.5</ele>
        <time>2024-09-25T14:13:09Z</time>
      </trkpt>
      <trkpt lat="45.79273" lon="1.21016">
        <ele>273.7</ele>
        <time>2024-09-25T14:13:11Z</time>
      </trkpt>
      <trkpt lat="45.79276" lon="1.21018">
        <ele>273.9</ele>
        <time>2024-09-25T14:13:12Z</time>
      </trkpt>
      <trkpt lat="45.79279" lon="1.2102">
        <ele>274.1</ele>
        <time>2024-09-25T14:13:13Z</time>
      </trkpt>
      <trkpt lat="45.79283" lon="1.21023">
        <ele>274.3</ele>
        <time>2024-09-25T14:13:15Z</time>
      </trkpt>
      <trkpt lat="45.79287" lon="1.21027">
        <ele>274.6</ele>
        <time>2024-09-25T14:13:17Z</time>
      </trkpt>
      <trkpt lat="45.79291" lon="1.21029">
        <ele>274.8</ele>
        <time>2024-09-25T14:13:19Z</time>
      </trkpt>
      <trkpt lat="45.79294" lon="1.21033">
        <ele>275</ele>
        <time>2024-09-25T14:13:21Z</time>
      </trkpt>
      <trkpt lat="45.79297" lon="1.21036">
        <ele>275.1</ele>
        <time>2024-09-25T14:13:22Z</time>
      </trkpt>
      <trkpt lat="45.793" lon="1.21039">
        <ele>275.3</ele>
        <time>2024-09-25T14:13:23Z</time>
      </trkpt>
      <trkpt lat="45.79303" lon="1.21042">
        <ele>275.4</ele>
        <time>2024-09-25T14:13:24Z</time>
      </trkpt>
      <trkpt lat="45.79306" lon="1.21045">
        <ele>275.6</ele>
        <time>2024-09-25T14:13:25Z</time>
      </trkpt>
      <trkpt lat="45.79309" lon="1.21047">
        <ele>275.8</ele>
        <time>2024-09-25T14:13:26Z</time>
      </trkpt>
      <trkpt lat="45.79312" lon="1.21049">
        <ele>275.9</ele>
        <time>2024-09-25T14:13:27Z</time>
      </trkpt>
      <trkpt lat="45.79315" lon="1.21051">
        <ele>276.1</ele>
        <time>2024-09-25T14:13:28Z</time>
      </trkpt>
      <trkpt lat="45.79317" lon="1.21053">
        <ele>276.2</ele>
        <time>2024-09-25T14:13:29Z</time>
      </trkpt>
      <trkpt lat="45.7932" lon="1.21055">
        <ele>276.4</ele>
        <time>2024-09-25T14:13:30Z</time>
      </trkpt>
      <trkpt lat="45.79323" lon="1.21057">
        <ele>276.5</ele>
        <time>2024-09-25T14:13:31Z</time>
      </trkpt>
      <trkpt lat="45.79325" lon="1.21058">
        <ele>276.7</ele>
        <time>2024-09-25T14:13:32Z</time>
      </trkpt>
      <trkpt lat="45.79329" lon="1.21061">
        <ele>276.9</ele>
        <time>2024-09-25T14:13:34Z</time>
      </trkpt>
      <trkpt lat="45.79334" lon="1.21065">
        <ele>277.2</ele>
        <time>2024-09-25T14:13:36Z</time>
      </trkpt>
      <trkpt lat="45.79337" lon="1.21068">
        <ele>277.4</ele>
        <time>2024-09-25T14:13:37Z</time>
      </trkpt>
      <trkpt lat="45.79339" lon="1.2107">
        <ele>277.5</ele>
        <time>2024-09-25T14:13:38Z</time>
      </trkpt>
      <trkpt lat="45.79342" lon="1.21071">
        <ele>277.6</ele>
        <time>2024-09-25T14:13:39Z</time>
      </trkpt>
      <trkpt lat="45.79345" lon="1.21073">
        <ele>277.8</ele>
        <time>2024-09-25T14:13:40Z</time>
      </trkpt>
      <trkpt lat="45.79348" lon="1.21074">
        <ele>277.9</ele>
        <time>2024-09-25T14:13:41Z</time>
      </trkpt>
      <trkpt lat="45.79351" lon="1.21075">
        <ele>278</ele>
        <time>2024-09-25T14:13:42Z</time>
      </trkpt>
      <trkpt lat="45.79354" lon="1.21076">
        <ele>278.1</ele>
        <time>2024-09-25T14:13:43Z</time>
      </trkpt>
      <trkpt lat="45.79356" lon="1.21078">
        <ele>278.2</ele>
        <time>2024-09-25T14:13:44Z</time>
      </trkpt>
      <trkpt lat="45.7936" lon="1.21079">
        <ele>278.3</ele>
        <time>2024-09-25T14:13:46Z</time>
      </trkpt>
      <trkpt lat="45.79363" lon="1.21077">
        <ele>278.4</ele>
        <time>2024-09-25T14:13:48Z</time>
      </trkpt>
      <trkpt lat="45.79363" lon="1.21072">
        <ele>278.5</ele>
        <time>2024-09-25T14:13:50Z</time>
      </trkpt>
      <trkpt lat="45.79363" lon="1.21068">
        <ele>278.5</ele>
        <time>2024-09-25T14:13:51Z</time>
      </trkpt>
      <trkpt lat="45.79364" lon="1.21063">
        <ele>278.6</ele>
        <time>2024-09-25T14:13:52Z</time>
      </trkpt>
      <trkpt lat="45.79364" lon="1.21058">
        <ele>278.6</ele>
        <time>2024-09-25T14:13:53Z</time>
      </trkpt>
      <trkpt lat="45.79364" lon="1.21053">
        <ele>278.7</ele>
        <time>2024-09-25T14:13:54Z</time>
      </trkpt>
      <trkpt lat="45.79365" lon="1.21048">
        <ele>278.7</ele>
        <time>2024-09-25T14:13:55Z</time>
      </trkpt>
      <trkpt lat="45.79366" lon="1.21044">
        <ele>278.8</ele>
        <time>2024-09-25T14:13:56Z</time>
      </trkpt>
      <trkpt lat="45.79368" lon="1.21039">
        <ele>278.8</ele>
        <time>2024-09-25T14:13:57Z</time>
      </trkpt>
      <trkpt lat="45.7937" lon="1.21035">
        <ele>278.9</ele>
        <time>2024-09-25T14:13:58Z</time>
      </trkpt>
      <trkpt lat="45.79372" lon="1.2103">
        <ele>279</ele>
        <time>2024-09-25T14:13:59Z</time>
      </trkpt>
      <trkpt lat="45.79374" lon="1.21026">
        <ele>279</ele>
        <time>2024-09-25T14:14:00Z</time>
      </trkpt>
      <trkpt lat="45.79377" lon="1.21022">
        <ele>279.1</ele>
        <time>2024-09-25T14:14:01Z</time>
      </trkpt>
      <trkpt lat="45.7938" lon="1.21018">
        <ele>279.2</ele>
        <time>2024-09-25T14:14:02Z</time>
      </trkpt>
      <trkpt lat="45.79382" lon="1.21014">
        <ele>279.3</ele>
        <time>2024-09-25T14:14:03Z</time>
      </trkpt>
      <trkpt lat="45.79385" lon="1.21009">
        <ele>279.4</ele>
        <time>2024-09-25T14:14:04Z</time>
      </trkpt>
      <trkpt lat="45.79387" lon="1.21005">
        <ele>279.4</ele>
        <time>2024-09-25T14:14:05Z</time>
      </trkpt>
      <trkpt lat="45.7939" lon="1.21001">
        <ele>279.5</ele>
        <time>2024-09-25T14:14:06Z</time>
      </trkpt>
      <trkpt lat="45.79392" lon="1.20997">
        <ele>279.6</ele>
        <time>2024-09-25T14:14:07Z</time>
      </trkpt>
      <trkpt lat="45.79395" lon="1.20993">
        <ele>279.7</ele>
        <time>2024-09-25T14:14:08Z</time>
      </trkpt>
      <trkpt lat="45.79398" lon="1.20988">
        <ele>279.7</ele>
        <time>2024-09-25T14:14:09Z</time>
      </trkpt>
      <trkpt lat="45.79401" lon="1.20984">
        <ele>279.8</ele>
        <time>2024-09-25T14:14:10Z</time>
      </trkpt>
      <trkpt lat="45.79404" lon="1.20979">
        <ele>279.9</ele>
        <time>2024-09-25T14:14:11Z</time>
      </trkpt>
      <trkpt lat="45.79406" lon="1.20974">
        <ele>280</ele>
        <time>2024-09-25T14:14:12Z</time>
      </trkpt>
      <trkpt lat="45.79409" lon="1.2097">
        <ele>280.1</ele>
        <time>2024-09-25T14:14:13Z</time>
      </trkpt>
      <trkpt lat="45.79412" lon="1.20965">
        <ele>280.1</ele>
        <time>2024-09-25T14:14:14Z</time>
      </trkpt>
      <trkpt lat="45.79414" lon="1.20961">
        <ele>280.2</ele>
        <time>2024-09-25T14:14:15Z</time>
      </trkpt>
      <trkpt lat="45.79417" lon="1.20956">
        <ele>280.3</ele>
        <time>2024-09-25T14:14:16Z</time>
      </trkpt>
      <trkpt lat="45.7942" lon="1.20952">
        <ele>280.3</ele>
        <time>2024-09-25T14:14:17Z</time>
      </trkpt>
      <trkpt lat="45.79422" lon="1.20948">
        <ele>280.4</ele>
        <time>2024-09-25T14:14:18Z</time>
      </trkpt>
      <trkpt lat="45.79425" lon="1.20944">
        <ele>280.5</ele>
        <time>2024-09-25T14:14:19Z</time>
      </trkpt>
      <trkpt lat="45.79428" lon="1.2094">
        <ele>280.5</ele>
        <time>2024-09-25T14:14:20Z</time>
      </trkpt>
      <trkpt lat="45.79432" lon="1.20936">
        <ele>280.6</ele>
        <time>2024-09-25T14:14:21Z</time>
      </trkpt>
      <trkpt lat="45.79434" lon="1.20933">
        <ele>280.7</ele>
        <time>2024-09-25T14:14:22Z</time>
      </trkpt>
      <trkpt lat="45.79437" lon="1.2093">
        <ele>280.8</ele>
        <time>2024-09-25T14:14:23Z</time>
      </trkpt>
      <trkpt lat="45.79441" lon="1.20927">
        <ele>281</ele>
        <time>2024-09-25T14:14:24Z</time>
      </trkpt>
      <trkpt lat="45.79444" lon="1.20924">
        <ele>281.2</ele>
        <time>2024-09-25T14:14:25Z</time>
      </trkpt>
      <trkpt lat="45.79447" lon="1.20921">
        <ele>281.4</ele>
        <time>2024-09-25T14:14:26Z</time>
      </trkpt>
      <trkpt lat="45.7945" lon="1.20919">
        <ele>281.6</ele>
        <time>2024-09-25T14:14:27Z</time>
      </trkpt>
      <trkpt lat="45.79452" lon="1.20916">
        <ele>281.8</ele>
        <time>2024-09-25T14:14:28Z</time>
      </trkpt>
      <trkpt lat="45.79455" lon="1.20914">
        <ele>282</ele>
        <time>2024-09-25T14:14:29Z</time>
      </trkpt>
      <trkpt lat="45.79458" lon="1.20912">
        <ele>282.2</ele>
        <time>2024-09-25T14:14:30Z</time>
      </trkpt>
      <trkpt lat="45.79461" lon="1.2091">
        <ele>282.4</ele>
        <time>2024-09-25T14:14:31Z</time>
      </trkpt>
      <trkpt lat="45.79464" lon="1.20908">
        <ele>282.6</ele>
        <time>2024-09-25T14:14:32Z</time>
      </trkpt>
      <trkpt lat="45.79467" lon="1.20906">
        <ele>282.8</ele>
        <time>2024-09-25T14:14:33Z</time>
      </trkpt>
      <trkpt lat="45.79471" lon="1.20903">
        <ele>283.1</ele>
        <time>2024-09-25T14:14:35Z</time>
      </trkpt>
      <trkpt lat="45.79475" lon="1.20901">
        <ele>283.4</ele>
        <time>2024-09-25T14:14:36Z</time>
      </trkpt>
      <trkpt lat="45.79478" lon="1.209">
        <ele>283.5</ele>
        <time>2024-09-25T14:14:37Z</time>
      </trkpt>
      <trkpt lat="45.79481" lon="1.20898">
        <ele>283.8</ele>
        <time>2024-09-25T14:14:38Z</time>
      </trkpt>
      <trkpt lat="45.79484" lon="1.20896">
        <ele>284</ele>
        <time>2024-09-25T14:14:39Z</time>
      </trkpt>
      <trkpt lat="45.79487" lon="1.20894">
        <ele>284.2</ele>
        <time>2024-09-25T14:14:40Z</time>
      </trkpt>
      <trkpt lat="45.79491" lon="1.20892">
        <ele>284.5</ele>
        <time>2024-09-25T14:14:41Z</time>
      </trkpt>
      <trkpt lat="45.79494" lon="1.2089">
        <ele>284.7</ele>
        <time>2024-09-25T14:14:42Z</time>
      </trkpt>
      <trkpt lat="45.79497" lon="1.20888">
        <ele>284.9</ele>
        <time>2024-09-25T14:14:43Z</time>
      </trkpt>
      <trkpt lat="45.795" lon="1.20887">
        <ele>285.1</ele>
        <time>2024-09-25T14:14:44Z</time>
      </trkpt>
      <trkpt lat="45.79502" lon="1.20885">
        <ele>285.3</ele>
        <time>2024-09-25T14:14:45Z</time>
      </trkpt>
      <trkpt lat="45.79506" lon="1.20882">
        <ele>285.6</ele>
        <time>2024-09-25T14:14:47Z</time>
      </trkpt>
      <trkpt lat="45.7951" lon="1.2088">
        <ele>285.9</ele>
        <time>2024-09-25T14:14:48Z</time>
      </trkpt>
      <trkpt lat="45.79513" lon="1.20879">
        <ele>286.2</ele>
        <time>2024-09-25T14:14:49Z</time>
      </trkpt>
      <trkpt lat="45.79516" lon="1.20878">
        <ele>286.4</ele>
        <time>2024-09-25T14:14:50Z</time>
      </trkpt>
      <trkpt lat="45.79519" lon="1.20878">
        <ele>286.7</ele>
        <time>2024-09-25T14:14:51Z</time>
      </trkpt>
      <trkpt lat="45.79523" lon="1.20879">
        <ele>287.1</ele>
        <time>2024-09-25T14:14:52Z</time>
      </trkpt>
      <trkpt lat="45.79526" lon="1.2088">
        <ele>287.3</ele>
        <time>2024-09-25T14:14:53Z</time>
      </trkpt>
      <trkpt lat="45.79528" lon="1.20883">
        <ele>287.6</ele>
        <time>2024-09-25T14:14:54Z</time>
      </trkpt>
      <trkpt lat="45.79532" lon="1.20885">
        <ele>288</ele>
        <time>2024-09-25T14:14:55Z</time>
      </trkpt>
      <trkpt lat="45.79534" lon="1.20887">
        <ele>288.2</ele>
        <time>2024-09-25T14:14:56Z</time>
      </trkpt>
      <trkpt lat="45.79538" lon="1.20891">
        <ele>288.7</ele>
        <time>2024-09-25T14:14:58Z</time>
      </trkpt>
      <trkpt lat="45.79541" lon="1.20893">
        <ele>289</ele>
        <time>2024-09-25T14:14:59Z</time>
      </trkpt>
      <trkpt lat="45.79543" lon="1.20895">
        <ele>289.2</ele>
        <time>2024-09-25T14:15:00Z</time>
      </trkpt>
      <trkpt lat="45.79546" lon="1.20897">
        <ele>289.5</ele>
        <time>2024-09-25T14:15:01Z</time>
      </trkpt>
      <trkpt lat="45.79549" lon="1.20901">
        <ele>289.9</ele>
        <time>2024-09-25T14:15:03Z</time>
      </trkpt>
      <trkpt lat="45.79553" lon="1.20907">
        <ele>290.4</ele>
        <time>2024-09-25T14:15:05Z</time>
      </trkpt>
      <trkpt lat="45.79555" lon="1.2091">
        <ele>290.7</ele>
        <time>2024-09-25T14:15:06Z</time>
      </trkpt>
      <trkpt lat="45.79557" lon="1.20914">
        <ele>291</ele>
        <time>2024-09-25T14:15:07Z</time>
      </trkpt>
      <trkpt lat="45.79559" lon="1.20917">
        <ele>291.3</ele>
        <time>2024-09-25T14:15:08Z</time>
      </trkpt>
      <trkpt lat="45.79562" lon="1.2092">
        <ele>291.5</ele>
        <time>2024-09-25T14:15:09Z</time>
      </trkpt>
      <trkpt lat="45.79564" lon="1.20924">
        <ele>291.7</ele>
        <time>2024-09-25T14:15:10Z</time>
      </trkpt>
      <trkpt lat="45.79565" lon="1.20928">
        <ele>291.8</ele>
        <time>2024-09-25T14:15:11Z</time>
      </trkpt>
      <trkpt lat="45.79565" lon="1.20932">
        <ele>292</ele>
        <time>2024-09-25T14:15:12Z</time>
      </trkpt>
      <trkpt lat="45.79565" lon="1.20936">
        <ele>292.1</ele>
        <time>2024-09-25T14:15:13Z</time>
      </trkpt>
      <trkpt lat="45.79565" lon="1.20941">
        <ele>292.3</ele>
        <time>2024-09-25T14:15:14Z</time>
      </trkpt>
      <trkpt lat="45.79565" lon="1.20946">
        <ele>292.5</ele>
        <time>2024-09-25T14:15:15Z</time>
      </trkpt>
      <trkpt lat="45.79566" lon="1.20951">
        <ele>292.6</ele>
        <time>2024-09-25T14:15:16Z</time>
      </trkpt>
      <trkpt lat="45.79567" lon="1.20956">
        <ele>292.8</ele>
        <time>2024-09-25T14:15:17Z</time>
      </trkpt>
      <trkpt lat="45.79567" lon="1.20961">
        <ele>293</ele>
        <time>2024-09-25T14:15:18Z</time>
      </trkpt>
      <trkpt lat="45.79568" lon="1.20966">
        <ele>293.1</ele>
        <time>2024-09-25T14:15:19Z</time>
      </trkpt>
      <trkpt lat="45.79568" lon="1.20971">
        <ele>293.3</ele>
        <time>2024-09-25T14:15:20Z</time>
      </trkpt>
      <trkpt lat="45.79569" lon="1.20976">
        <ele>293.5</ele>
        <time>2024-09-25T14:15:21Z</time>
      </trkpt>
      <trkpt lat="45.79569" lon="1.20981">
        <ele>293.6</ele>
        <time>2024-09-25T14:15:22Z</time>
      </trkpt>
      <trkpt lat="45.7957" lon="1.20986">
        <ele>293.7</ele>
        <time>2024-09-25T14:15:23Z</time>
      </trkpt>
      <trkpt lat="45.79571" lon="1.20991">
        <ele>293.9</ele>
        <time>2024-09-25T14:15:24Z</time>
      </trkpt>
      <trkpt lat="45.79571" lon="1.20996">
        <ele>294</ele>
        <time>2024-09-25T14:15:25Z</time>
      </trkpt>
      <trkpt lat="45.79572" lon="1.21001">
        <ele>294.1</ele>
        <time>2024-09-25T14:15:26Z</time>
      </trkpt>
      <trkpt lat="45.79573" lon="1.21006">
        <ele>294.2</ele>
        <time>2024-09-25T14:15:27Z</time>
      </trkpt>
      <trkpt lat="45.79574" lon="1.21011">
        <ele>294.2</ele>
        <time>2024-09-25T14:15:28Z</time>
      </trkpt>
      <trkpt lat="45.79575" lon="1.21015">
        <ele>294.3</ele>
        <time>2024-09-25T14:15:29Z</time>
      </trkpt>
      <trkpt lat="45.79577" lon="1.2102">
        <ele>294.3</ele>
        <time>2024-09-25T14:15:30Z</time>
      </trkpt>
      <trkpt lat="45.79578" lon="1.21025">
        <ele>294.3</ele>
        <time>2024-09-25T14:15:31Z</time>
      </trkpt>
      <trkpt lat="45.79579" lon="1.2103">
        <ele>294.3</ele>
        <time>2024-09-25T14:15:32Z</time>
      </trkpt>
      <trkpt lat="45.7958" lon="1.21035">
        <ele>294.3</ele>
        <time>2024-09-25T14:15:33Z</time>
      </trkpt>
      <trkpt lat="45.79582" lon="1.2104">
        <ele>294.2</ele>
        <time>2024-09-25T14:15:34Z</time>
      </trkpt>
      <trkpt lat="45.79583" lon="1.21045">
        <ele>294.1</ele>
        <time>2024-09-25T14:15:35Z</time>
      </trkpt>
      <trkpt lat="45.79585" lon="1.2105">
        <ele>294</ele>
        <time>2024-09-25T14:15:36Z</time>
      </trkpt>
      <trkpt lat="45.79586" lon="1.21054">
        <ele>293.9</ele>
        <time>2024-09-25T14:15:37Z</time>
      </trkpt>
      <trkpt lat="45.79587" lon="1.2106">
        <ele>293.7</ele>
        <time>2024-09-25T14:15:39Z</time>
      </trkpt>
      <trkpt lat="45.79587" lon="1.21067">
        <ele>293.6</ele>
        <time>2024-09-25T14:15:41Z</time>
      </trkpt>
      <trkpt lat="45.79586" lon="1.21072">
        <ele>293.4</ele>
        <time>2024-09-25T14:15:42Z</time>
      </trkpt>
      <trkpt lat="45.79585" lon="1.21077">
        <ele>293.3</ele>
        <time>2024-09-25T14:15:43Z</time>
      </trkpt>
      <trkpt lat="45.79585" lon="1.21082">
        <ele>293.2</ele>
        <time>2024-09-25T14:15:44Z</time>
      </trkpt>
      <trkpt lat="45.79584" lon="1.21087">
        <ele>293.1</ele>
        <time>2024-09-25T14:15:45Z</time>
      </trkpt>
      <trkpt lat="45.79583" lon="1.21092">
        <ele>292.9</ele>
        <time>2024-09-25T14:15:46Z</time>
      </trkpt>
      <trkpt lat="45.79582" lon="1.21097">
        <ele>292.7</ele>
        <time>2024-09-25T14:15:47Z</time>
      </trkpt>
      <trkpt lat="45.79582" lon="1.21102">
        <ele>292.5</ele>
        <time>2024-09-25T14:15:48Z</time>
      </trkpt>
      <trkpt lat="45.79581" lon="1.21109">
        <ele>292.1</ele>
        <time>2024-09-25T14:15:49Z</time>
      </trkpt>
      <trkpt lat="45.7958" lon="1.21115">
        <ele>291.9</ele>
        <time>2024-09-25T14:15:50Z</time>
      </trkpt>
      <trkpt lat="45.79579" lon="1.21124">
        <ele>291.4</ele>
        <time>2024-09-25T14:15:51Z</time>
      </trkpt>
      <trkpt lat="45.79579" lon="1.21132">
        <ele>291.1</ele>
        <time>2024-09-25T14:15:52Z</time>
      </trkpt>
      <trkpt lat="45.79578" lon="1.21139">
        <ele>290.9</ele>
        <time>2024-09-25T14:15:53Z</time>
      </trkpt>
      <trkpt lat="45.79578" lon="1.21147">
        <ele>290.7</ele>
        <time>2024-09-25T14:15:54Z</time>
      </trkpt>
      <trkpt lat="45.79577" lon="1.21155">
        <ele>290.5</ele>
        <time>2024-09-25T14:15:55Z</time>
      </trkpt>
      <trkpt lat="45.79575" lon="1.21164">
        <ele>290.3</ele>
        <time>2024-09-25T14:15:56Z</time>
      </trkpt>
      <trkpt lat="45.79574" lon="1.21172">
        <ele>290.1</ele>
        <time>2024-09-25T14:15:57Z</time>
      </trkpt>
      <trkpt lat="45.79574" lon="1.21178">
        <ele>290.1</ele>
        <time>2024-09-25T14:15:58Z</time>
      </trkpt>
      <trkpt lat="45.79573" lon="1.21185">
        <ele>290</ele>
        <time>2024-09-25T14:15:59Z</time>
      </trkpt>
      <trkpt lat="45.79571" lon="1.21192">
        <ele>289.9</ele>
        <time>2024-09-25T14:16:00Z</time>
      </trkpt>
      <trkpt lat="45.79571" lon="1.21198">
        <ele>289.9</ele>
        <time>2024-09-25T14:16:01Z</time>
      </trkpt>
      <trkpt lat="45.79571" lon="1.21204">
        <ele>289.9</ele>
        <time>2024-09-25T14:16:02Z</time>
      </trkpt>
      <trkpt lat="45.79571" lon="1.2121">
        <ele>289.9</ele>
        <time>2024-09-25T14:16:03Z</time>
      </trkpt>
      <trkpt lat="45.79572" lon="1.21216">
        <ele>289.9</ele>
        <time>2024-09-25T14:16:04Z</time>
      </trkpt>
      <trkpt lat="45.79573" lon="1.21222">
        <ele>290</ele>
        <time>2024-09-25T14:16:05Z</time>
      </trkpt>
      <trkpt lat="45.79574" lon="1.21227">
        <ele>290.1</ele>
        <time>2024-09-25T14:16:06Z</time>
      </trkpt>
      <trkpt lat="45.79575" lon="1.21231">
        <ele>290.2</ele>
        <time>2024-09-25T14:16:07Z</time>
      </trkpt>
      <trkpt lat="45.79577" lon="1.21235">
        <ele>290.3</ele>
        <time>2024-09-25T14:16:08Z</time>
      </trkpt>
      <trkpt lat="45.79578" lon="1.21239">
        <ele>290.3</ele>
        <time>2024-09-25T14:16:09Z</time>
      </trkpt>
      <trkpt lat="45.79579" lon="1.21242">
        <ele>290.4</ele>
        <time>2024-09-25T14:16:10Z</time>
      </trkpt>
      <trkpt lat="45.79581" lon="1.21248">
        <ele>290.6</ele>
        <time>2024-09-25T14:16:12Z</time>
      </trkpt>
      <trkpt lat="45.79582" lon="1.21253">
        <ele>290.7</ele>
        <time>2024-09-25T14:16:13Z</time>
      </trkpt>
      <trkpt lat="45.79583" lon="1.21259">
        <ele>290.8</ele>
        <time>2024-09-25T14:16:14Z</time>
      </trkpt>
      <trkpt lat="45.79584" lon="1.21264">
        <ele>290.9</ele>
        <time>2024-09-25T14:16:15Z</time>
      </trkpt>
      <trkpt lat="45.79585" lon="1.2127">
        <ele>291</ele>
        <time>2024-09-25T14:16:16Z</time>
      </trkpt>
      <trkpt lat="45.79586" lon="1.21275">
        <ele>291.1</ele>
        <time>2024-09-25T14:16:17Z</time>
      </trkpt>
      <trkpt lat="45.79587" lon="1.21279">
        <ele>291.2</ele>
        <time>2024-09-25T14:16:18Z</time>
      </trkpt>
      <trkpt lat="45.79588" lon="1.21284">
        <ele>291.3</ele>
        <time>2024-09-25T14:16:19Z</time>
      </trkpt>
      <trkpt lat="45.7959" lon="1.21289">
        <ele>291.4</ele>
        <time>2024-09-25T14:16:20Z</time>
      </trkpt>
      <trkpt lat="45.79591" lon="1.21294">
        <ele>291.5</ele>
        <time>2024-09-25T14:16:21Z</time>
      </trkpt>
      <trkpt lat="45.79593" lon="1.21299">
        <ele>291.5</ele>
        <time>2024-09-25T14:16:22Z</time>
      </trkpt>
      <trkpt lat="45.79595" lon="1.21305">
        <ele>291.5</ele>
        <time>2024-09-25T14:16:23Z</time>
      </trkpt>
      <trkpt lat="45.79597" lon="1.21311">
        <ele>291.5</ele>
        <time>2024-09-25T14:16:24Z</time>
      </trkpt>
      <trkpt lat="45.796" lon="1.21317">
        <ele>291.5</ele>
        <time>2024-09-25T14:16:25Z</time>
      </trkpt>
      <trkpt lat="45.79602" lon="1.21324">
        <ele>291.3</ele>
        <time>2024-09-25T14:16:26Z</time>
      </trkpt>
      <trkpt lat="45.79604" lon="1.21329">
        <ele>291.3</ele>
        <time>2024-09-25T14:16:27Z</time>
      </trkpt>
      <trkpt lat="45.79606" lon="1.21335">
        <ele>291.1</ele>
        <time>2024-09-25T14:16:28Z</time>
      </trkpt>
      <trkpt lat="45.79609" lon="1.21343">
        <ele>290.9</ele>
        <time>2024-09-25T14:16:29Z</time>
      </trkpt>
      <trkpt lat="45.79612" lon="1.2135">
        <ele>290.7</ele>
        <time>2024-09-25T14:16:30Z</time>
      </trkpt>
      <trkpt lat="45.79615" lon="1.21358">
        <ele>290.4</ele>
        <time>2024-09-25T14:16:31Z</time>
      </trkpt>
      <trkpt lat="45.79619" lon="1.21366">
        <ele>290.1</ele>
        <time>2024-09-25T14:16:32Z</time>
      </trkpt>
      <trkpt lat="45.79622" lon="1.21373">
        <ele>289.8</ele>
        <time>2024-09-25T14:16:33Z</time>
      </trkpt>
      <trkpt lat="45.79626" lon="1.21381">
        <ele>289.5</ele>
        <time>2024-09-25T14:16:34Z</time>
      </trkpt>
      <trkpt lat="45.79628" lon="1.21387">
        <ele>289.2</ele>
        <time>2024-09-25T14:16:35Z</time>
      </trkpt>
      <trkpt lat="45.7963" lon="1.21393">
        <ele>288.9</ele>
        <time>2024-09-25T14:16:36Z</time>
      </trkpt>
      <trkpt lat="45.79632" lon="1.21399">
        <ele>288.6</ele>
        <time>2024-09-25T14:16:37Z</time>
      </trkpt>
      <trkpt lat="45.79635" lon="1.21405">
        <ele>288.3</ele>
        <time>2024-09-25T14:16:38Z</time>
      </trkpt>
      <trkpt lat="45.79637" lon="1.2141">
        <ele>288</ele>
        <time>2024-09-25T14:16:39Z</time>
      </trkpt>
      <trkpt lat="45.79642" lon="1.21417">
        <ele>287.5</ele>
        <time>2024-09-25T14:16:40Z</time>
      </trkpt>
      <trkpt lat="45.79646" lon="1.21424">
        <ele>287.2</ele>
        <time>2024-09-25T14:16:41Z</time>
      </trkpt>
      <trkpt lat="45.79649" lon="1.21431">
        <ele>286.9</ele>
        <time>2024-09-25T14:16:42Z</time>
      </trkpt>
      <trkpt lat="45.7965" lon="1.21438">
        <ele>286.7</ele>
        <time>2024-09-25T14:16:44Z</time>
      </trkpt>
      <trkpt lat="45.79653" lon="1.21442">
        <ele>286.6</ele>
        <time>2024-09-25T14:16:46Z</time>
      </trkpt>
      <trkpt lat="45.79658" lon="1.21443">
        <ele>286.9</ele>
        <time>2024-09-25T14:16:48Z</time>
      </trkpt>
      <trkpt lat="45.79661" lon="1.21442">
        <ele>287.2</ele>
        <time>2024-09-25T14:16:50Z</time>
      </trkpt>
      <trkpt lat="45.79665" lon="1.21439">
        <ele>287.6</ele>
        <time>2024-09-25T14:16:52Z</time>
      </trkpt>
      <trkpt lat="45.79669" lon="1.21435">
        <ele>288</ele>
        <time>2024-09-25T14:16:54Z</time>
      </trkpt>
      <trkpt lat="45.79672" lon="1.21431">
        <ele>288.5</ele>
        <time>2024-09-25T14:16:56Z</time>
      </trkpt>
      <trkpt lat="45.79675" lon="1.21427">
        <ele>288.9</ele>
        <time>2024-09-25T14:16:58Z</time>
      </trkpt>
      <trkpt lat="45.79678" lon="1.21423">
        <ele>289.3</ele>
        <time>2024-09-25T14:16:59Z</time>
      </trkpt>
      <trkpt lat="45.79681" lon="1.2142">
        <ele>289.7</ele>
        <time>2024-09-25T14:17:00Z</time>
      </trkpt>
      <trkpt lat="45.79683" lon="1.21416">
        <ele>290.1</ele>
        <time>2024-09-25T14:17:01Z</time>
      </trkpt>
      <trkpt lat="45.79686" lon="1.21413">
        <ele>290.5</ele>
        <time>2024-09-25T14:17:02Z</time>
      </trkpt>
      <trkpt lat="45.79688" lon="1.21408">
        <ele>290.9</ele>
        <time>2024-09-25T14:17:04Z</time>
      </trkpt>
      <trkpt lat="45.79691" lon="1.21404">
        <ele>291.4</ele>
        <time>2024-09-25T14:17:06Z</time>
      </trkpt>
      <trkpt lat="45.79694" lon="1.214">
        <ele>291.8</ele>
        <time>2024-09-25T14:17:07Z</time>
      </trkpt>
      <trkpt lat="45.79696" lon="1.21397">
        <ele>292.2</ele>
        <time>2024-09-25T14:17:08Z</time>
      </trkpt>
      <trkpt lat="45.79699" lon="1.21392">
        <ele>292.7</ele>
        <time>2024-09-25T14:17:10Z</time>
      </trkpt>
      <trkpt lat="45.79701" lon="1.21388">
        <ele>293.1</ele>
        <time>2024-09-25T14:17:11Z</time>
      </trkpt>
      <trkpt lat="45.79703" lon="1.21383">
        <ele>293.6</ele>
        <time>2024-09-25T14:17:13Z</time>
      </trkpt>
      <trkpt lat="45.79705" lon="1.21379">
        <ele>294</ele>
        <time>2024-09-25T14:17:14Z</time>
      </trkpt>
      <trkpt lat="45.79707" lon="1.21376">
        <ele>294.3</ele>
        <time>2024-09-25T14:17:15Z</time>
      </trkpt>
      <trkpt lat="45.79709" lon="1.21372">
        <ele>294.8</ele>
        <time>2024-09-25T14:17:17Z</time>
      </trkpt>
      <trkpt lat="45.79711" lon="1.21369">
        <ele>295.1</ele>
        <time>2024-09-25T14:17:18Z</time>
      </trkpt>
      <trkpt lat="45.79714" lon="1.21365">
        <ele>295.6</ele>
        <time>2024-09-25T14:17:20Z</time>
      </trkpt>
      <trkpt lat="45.79717" lon="1.21361">
        <ele>296.2</ele>
        <time>2024-09-25T14:17:22Z</time>
      </trkpt>
      <trkpt lat="45.7972" lon="1.21357">
        <ele>296.7</ele>
        <time>2024-09-25T14:17:24Z</time>
      </trkpt>
      <trkpt lat="45.79723" lon="1.21354">
        <ele>297.1</ele>
        <time>2024-09-25T14:17:26Z</time>
      </trkpt>
      <trkpt lat="45.79726" lon="1.21351">
        <ele>297.6</ele>
        <time>2024-09-25T14:17:28Z</time>
      </trkpt>
      <trkpt lat="45.79729" lon="1.21348">
        <ele>298</ele>
        <time>2024-09-25T14:17:30Z</time>
      </trkpt>
      <trkpt lat="45.79731" lon="1.21345">
        <ele>298.4</ele>
        <time>2024-09-25T14:17:32Z</time>
      </trkpt>
      <trkpt lat="45.79734" lon="1.2134">
        <ele>298.9</ele>
        <time>2024-09-25T14:17:34Z</time>
      </trkpt>
      <trkpt lat="45.79737" lon="1.21336">
        <ele>299.4</ele>
        <time>2024-09-25T14:17:36Z</time>
      </trkpt>
      <trkpt lat="45.7974" lon="1.21332">
        <ele>299.9</ele>
        <time>2024-09-25T14:17:38Z</time>
      </trkpt>
      <trkpt lat="45.79743" lon="1.21329">
        <ele>300.3</ele>
        <time>2024-09-25T14:17:40Z</time>
      </trkpt>
      <trkpt lat="45.79746" lon="1.21325">
        <ele>300.7</ele>
        <time>2024-09-25T14:17:42Z</time>
      </trkpt>
      <trkpt lat="45.79749" lon="1.2132">
        <ele>301.2</ele>
        <time>2024-09-25T14:17:44Z</time>
      </trkpt>
      <trkpt lat="45.79752" lon="1.21314">
        <ele>301.7</ele>
        <time>2024-09-25T14:17:46Z</time>
      </trkpt>
      <trkpt lat="45.79755" lon="1.21309">
        <ele>302.1</ele>
        <time>2024-09-25T14:17:48Z</time>
      </trkpt>
      <trkpt lat="45.79757" lon="1.21303">
        <ele>302.5</ele>
        <time>2024-09-25T14:17:50Z</time>
      </trkpt>
      <trkpt lat="45.7976" lon="1.21298">
        <ele>302.9</ele>
        <time>2024-09-25T14:17:52Z</time>
      </trkpt>
      <trkpt lat="45.79763" lon="1.21293">
        <ele>303.2</ele>
        <time>2024-09-25T14:17:54Z</time>
      </trkpt>
      <trkpt lat="45.79765" lon="1.21287">
        <ele>303.6</ele>
        <time>2024-09-25T14:17:56Z</time>
      </trkpt>
      <trkpt lat="45.79768" lon="1.21282">
        <ele>303.9</ele>
        <time>2024-09-25T14:17:58Z</time>
      </trkpt>
      <trkpt lat="45.7977" lon="1.21277">
        <ele>304.1</ele>
        <time>2024-09-25T14:18:00Z</time>
      </trkpt>
      <trkpt lat="45.79772" lon="1.21273">
        <ele>304.3</ele>
        <time>2024-09-25T14:18:01Z</time>
      </trkpt>
      <trkpt lat="45.79775" lon="1.21268">
        <ele>304.6</ele>
        <time>2024-09-25T14:18:03Z</time>
      </trkpt>
      <trkpt lat="45.79776" lon="1.21263">
        <ele>304.8</ele>
        <time>2024-09-25T14:18:04Z</time>
      </trkpt>
      <trkpt lat="45.79777" lon="1.21259">
        <ele>304.9</ele>
        <time>2024-09-25T14:18:05Z</time>
      </trkpt>
      <trkpt lat="45.79779" lon="1.21253">
        <ele>305.2</ele>
        <time>2024-09-25T14:18:07Z</time>
      </trkpt>
      <trkpt lat="45.79782" lon="1.21247">
        <ele>305.4</ele>
        <time>2024-09-25T14:18:09Z</time>
      </trkpt>
      <trkpt lat="45.79784" lon="1.21241">
        <ele>305.6</ele>
        <time>2024-09-25T14:18:11Z</time>
      </trkpt>
      <trkpt lat="45.79787" lon="1.21237">
        <ele>305.7</ele>
        <time>2024-09-25T14:18:12Z</time>
      </trkpt>
      <trkpt lat="45.79789" lon="1.21234">
        <ele>305.8</ele>
        <time>2024-09-25T14:18:13Z</time>
      </trkpt>
      <trkpt lat="45.79792" lon="1.21229">
        <ele>305.9</ele>
        <time>2024-09-25T14:18:15Z</time>
      </trkpt>
      <trkpt lat="45.79795" lon="1.21226">
        <ele>306</ele>
        <time>2024-09-25T14:18:16Z</time>
      </trkpt>
      <trkpt lat="45.79798" lon="1.21224">
        <ele>306.1</ele>
        <time>2024-09-25T14:18:17Z</time>
      </trkpt>
      <trkpt lat="45.79801" lon="1.21223">
        <ele>306.2</ele>
        <time>2024-09-25T14:18:18Z</time>
      </trkpt>
      <trkpt lat="45.79805" lon="1.2122">
        <ele>306.2</ele>
        <time>2024-09-25T14:18:20Z</time>
      </trkpt>
      <trkpt lat="45.79809" lon="1.21216">
        <ele>306.3</ele>
        <time>2024-09-25T14:18:22Z</time>
      </trkpt>
      <trkpt lat="45.79812" lon="1.21212">
        <ele>306.4</ele>
        <time>2024-09-25T14:18:23Z</time>
      </trkpt>
      <trkpt lat="45.79814" lon="1.21209">
        <ele>306.5</ele>
        <time>2024-09-25T14:18:24Z</time>
      </trkpt>
      <trkpt lat="45.79817" lon="1.21207">
        <ele>306.5</ele>
        <time>2024-09-25T14:18:25Z</time>
      </trkpt>
      <trkpt lat="45.79819" lon="1.21204">
        <ele>306.6</ele>
        <time>2024-09-25T14:18:26Z</time>
      </trkpt>
      <trkpt lat="45.79823" lon="1.21201">
        <ele>306.7</ele>
        <time>2024-09-25T14:18:28Z</time>
      </trkpt>
      <trkpt lat="45.79826" lon="1.21198">
        <ele>306.7</ele>
        <time>2024-09-25T14:18:29Z</time>
      </trkpt>
      <trkpt lat="45.79829" lon="1.21196">
        <ele>306.8</ele>
        <time>2024-09-25T14:18:30Z</time>
      </trkpt>
      <trkpt lat="45.79831" lon="1.21194">
        <ele>306.8</ele>
        <time>2024-09-25T14:18:31Z</time>
      </trkpt>
      <trkpt lat="45.79834" lon="1.21192">
        <ele>306.9</ele>
        <time>2024-09-25T14:18:32Z</time>
      </trkpt>
      <trkpt lat="45.79836" lon="1.2119">
        <ele>307</ele>
        <time>2024-09-25T14:18:33Z</time>
      </trkpt>
      <trkpt lat="45.7984" lon="1.21187">
        <ele>307.1</ele>
        <time>2024-09-25T14:18:35Z</time>
      </trkpt>
      <trkpt lat="45.79843" lon="1.21184">
        <ele>307.2</ele>
        <time>2024-09-25T14:18:36Z</time>
      </trkpt>
      <trkpt lat="45.79846" lon="1.21181">
        <ele>307.3</ele>
        <time>2024-09-25T14:18:37Z</time>
      </trkpt>
      <trkpt lat="45.7985" lon="1.21178">
        <ele>307.5</ele>
        <time>2024-09-25T14:18:39Z</time>
      </trkpt>
      <trkpt lat="45.79853" lon="1.21175">
        <ele>307.6</ele>
        <time>2024-09-25T14:18:40Z</time>
      </trkpt>
      <trkpt lat="45.79856" lon="1.21171">
        <ele>307.8</ele>
        <time>2024-09-25T14:18:42Z</time>
      </trkpt>
      <trkpt lat="45.79859" lon="1.21168">
        <ele>308</ele>
        <time>2024-09-25T14:18:43Z</time>
      </trkpt>
      <trkpt lat="45.79863" lon="1.21164">
        <ele>308.2</ele>
        <time>2024-09-25T14:18:45Z</time>
      </trkpt>
      <trkpt lat="45.79866" lon="1.21162">
        <ele>308.4</ele>
        <time>2024-09-25T14:18:46Z</time>
      </trkpt>
      <trkpt lat="45.79868" lon="1.21159">
        <ele>308.5</ele>
        <time>2024-09-25T14:18:47Z</time>
      </trkpt>
      <trkpt lat="45.79871" lon="1.21156">
        <ele>308.8</ele>
        <time>2024-09-25T14:18:48Z</time>
      </trkpt>
      <trkpt lat="45.79874" lon="1.21153">
        <ele>309</ele>
        <time>2024-09-25T14:18:50Z</time>
      </trkpt>
      <trkpt lat="45.79877" lon="1.21151">
        <ele>309.2</ele>
        <time>2024-09-25T14:18:51Z</time>
      </trkpt>
      <trkpt lat="45.7988" lon="1.21149">
        <ele>309.4</ele>
        <time>2024-09-25T14:18:52Z</time>
      </trkpt>
      <trkpt lat="45.79883" lon="1.21147">
        <ele>309.6</ele>
        <time>2024-09-25T14:18:54Z</time>
      </trkpt>
      <trkpt lat="45.79887" lon="1.21144">
        <ele>310</ele>
        <time>2024-09-25T14:18:56Z</time>
      </trkpt>
      <trkpt lat="45.7989" lon="1.21142">
        <ele>310.3</ele>
        <time>2024-09-25T14:18:58Z</time>
      </trkpt>
      <trkpt lat="45.79894" lon="1.21138">
        <ele>310.7</ele>
        <time>2024-09-25T14:19:00Z</time>
      </trkpt>
      <trkpt lat="45.79898" lon="1.21135">
        <ele>311.1</ele>
        <time>2024-09-25T14:19:02Z</time>
      </trkpt>
      <trkpt lat="45.79902" lon="1.21131">
        <ele>311.5</ele>
        <time>2024-09-25T14:19:04Z</time>
      </trkpt>
      <trkpt lat="45.79906" lon="1.21128">
        <ele>311.9</ele>
        <time>2024-09-25T14:19:06Z</time>
      </trkpt>
      <trkpt lat="45.7991" lon="1.21125">
        <ele>312.3</ele>
        <time>2024-09-25T14:19:08Z</time>
      </trkpt>
      <trkpt lat="45.79914" lon="1.21123">
        <ele>312.7</ele>
        <time>2024-09-25T14:19:09Z</time>
      </trkpt>
      <trkpt lat="45.79917" lon="1.21121">
        <ele>313</ele>
        <time>2024-09-25T14:19:10Z</time>
      </trkpt>
      <trkpt lat="45.7992" lon="1.21118">
        <ele>313.3</ele>
        <time>2024-09-25T14:19:12Z</time>
      </trkpt>
      <trkpt lat="45.79923" lon="1.21114">
        <ele>313.6</ele>
        <time>2024-09-25T14:19:14Z</time>
      </trkpt>
      <trkpt lat="45.79927" lon="1.21111">
        <ele>314</ele>
        <time>2024-09-25T14:19:16Z</time>
      </trkpt>
      <trkpt lat="45.79931" lon="1.21107">
        <ele>314.5</ele>
        <time>2024-09-25T14:19:18Z</time>
      </trkpt>
      <trkpt lat="45.79935" lon="1.21103">
        <ele>315</ele>
        <time>2024-09-25T14:19:20Z</time>
      </trkpt>
      <trkpt lat="45.79939" lon="1.21099">
        <ele>315.5</ele>
        <time>2024-09-25T14:19:22Z</time>
      </trkpt>
      <trkpt lat="45.79943" lon="1.21095">
        <ele>315.9</ele>
        <time>2024-09-25T14:19:24Z</time>
      </trkpt>
      <trkpt lat="45.79947" lon="1.21091">
        <ele>316.4</ele>
        <time>2024-09-25T14:19:26Z</time>
      </trkpt>
      <trkpt lat="45.7995" lon="1.21087">
        <ele>316.8</ele>
        <time>2024-09-25T14:19:27Z</time>
      </trkpt>
      <trkpt lat="45.79952" lon="1.21085">
        <ele>317.1</ele>
        <time>2024-09-25T14:19:28Z</time>
      </trkpt>
      <trkpt lat="45.79955" lon="1.21082">
        <ele>317.5</ele>
        <time>2024-09-25T14:19:29Z</time>
      </trkpt>
      <trkpt lat="45.79957" lon="1.2108">
        <ele>317.7</ele>
        <time>2024-09-25T14:19:30Z</time>
      </trkpt>
      <trkpt lat="45.79961" lon="1.21078">
        <ele>318.1</ele>
        <time>2024-09-25T14:19:32Z</time>
      </trkpt>
      <trkpt lat="45.79965" lon="1.21075">
        <ele>318.6</ele>
        <time>2024-09-25T14:19:34Z</time>
      </trkpt>
      <trkpt lat="45.7997" lon="1.21071">
        <ele>319.2</ele>
        <time>2024-09-25T14:19:36Z</time>
      </trkpt>
      <trkpt lat="45.79973" lon="1.21069">
        <ele>319.6</ele>
        <time>2024-09-25T14:19:37Z</time>
      </trkpt>
      <trkpt lat="45.79978" lon="1.21067">
        <ele>320.1</ele>
        <time>2024-09-25T14:19:39Z</time>
      </trkpt>
      <trkpt lat="45.79982" lon="1.21067">
        <ele>320.5</ele>
        <time>2024-09-25T14:19:41Z</time>
      </trkpt>
      <trkpt lat="45.79987" lon="1.21068">
        <ele>320.9</ele>
        <time>2024-09-25T14:19:43Z</time>
      </trkpt>
      <trkpt lat="45.7999" lon="1.21071">
        <ele>321.2</ele>
        <time>2024-09-25T14:19:44Z</time>
      </trkpt>
      <trkpt lat="45.79994" lon="1.21074">
        <ele>321.5</ele>
        <time>2024-09-25T14:19:46Z</time>
      </trkpt>
      <trkpt lat="45.79998" lon="1.21078">
        <ele>321.9</ele>
        <time>2024-09-25T14:19:48Z</time>
      </trkpt>
      <trkpt lat="45.80002" lon="1.21082">
        <ele>322.2</ele>
        <time>2024-09-25T14:19:50Z</time>
      </trkpt>
      <trkpt lat="45.80005" lon="1.21085">
        <ele>322.4</ele>
        <time>2024-09-25T14:19:51Z</time>
      </trkpt>
      <trkpt lat="45.80008" lon="1.21088">
        <ele>322.6</ele>
        <time>2024-09-25T14:19:52Z</time>
      </trkpt>
      <trkpt lat="45.8001" lon="1.2109">
        <ele>322.8</ele>
        <time>2024-09-25T14:19:53Z</time>
      </trkpt>
      <trkpt lat="45.80012" lon="1.21093">
        <ele>322.9</ele>
        <time>2024-09-25T14:19:54Z</time>
      </trkpt>
      <trkpt lat="45.80015" lon="1.21096">
        <ele>323.1</ele>
        <time>2024-09-25T14:19:55Z</time>
      </trkpt>
      <trkpt lat="45.80017" lon="1.21099">
        <ele>323.2</ele>
        <time>2024-09-25T14:19:56Z</time>
      </trkpt>
      <trkpt lat="45.8002" lon="1.21103">
        <ele>323.4</ele>
        <time>2024-09-25T14:19:58Z</time>
      </trkpt>
      <trkpt lat="45.80022" lon="1.21107">
        <ele>323.6</ele>
        <time>2024-09-25T14:19:59Z</time>
      </trkpt>
      <trkpt lat="45.80025" lon="1.21111">
        <ele>323.8</ele>
        <time>2024-09-25T14:20:01Z</time>
      </trkpt>
      <trkpt lat="45.80028" lon="1.21115">
        <ele>324</ele>
        <time>2024-09-25T14:20:02Z</time>
      </trkpt>
      <trkpt lat="45.8003" lon="1.21118">
        <ele>324.2</ele>
        <time>2024-09-25T14:20:03Z</time>
      </trkpt>
      <trkpt lat="45.80032" lon="1.21121">
        <ele>324.3</ele>
        <time>2024-09-25T14:20:04Z</time>
      </trkpt>
      <trkpt lat="45.80035" lon="1.21126">
        <ele>324.5</ele>
        <time>2024-09-25T14:20:06Z</time>
      </trkpt>
      <trkpt lat="45.80037" lon="1.21129">
        <ele>324.7</ele>
        <time>2024-09-25T14:20:07Z</time>
      </trkpt>
      <trkpt lat="45.80039" lon="1.21133">
        <ele>324.8</ele>
        <time>2024-09-25T14:20:08Z</time>
      </trkpt>
      <trkpt lat="45.80041" lon="1.21136">
        <ele>324.9</ele>
        <time>2024-09-25T14:20:09Z</time>
      </trkpt>
      <trkpt lat="45.80045" lon="1.2114">
        <ele>325.2</ele>
        <time>2024-09-25T14:20:11Z</time>
      </trkpt>
      <trkpt lat="45.80047" lon="1.21144">
        <ele>325.3</ele>
        <time>2024-09-25T14:20:12Z</time>
      </trkpt>
      <trkpt lat="45.8005" lon="1.21148">
        <ele>325.5</ele>
        <time>2024-09-25T14:20:14Z</time>
      </trkpt>
      <trkpt lat="45.80053" lon="1.21152">
        <ele>325.7</ele>
        <time>2024-09-25T14:20:15Z</time>
      </trkpt>
      <trkpt lat="45.80055" lon="1.21156">
        <ele>325.9</ele>
        <time>2024-09-25T14:20:16Z</time>
      </trkpt>
      <trkpt lat="45.80057" lon="1.21159">
        <ele>326</ele>
        <time>2024-09-25T14:20:17Z</time>
      </trkpt>
      <trkpt lat="45.80059" lon="1.21163">
        <ele>326.1</ele>
        <time>2024-09-25T14:20:18Z</time>
      </trkpt>
      <trkpt lat="45.80061" lon="1.21166">
        <ele>326.2</ele>
        <time>2024-09-25T14:20:19Z</time>
      </trkpt>
      <trkpt lat="45.80063" lon="1.21169">
        <ele>326.3</ele>
        <time>2024-09-25T14:20:20Z</time>
      </trkpt>
      <trkpt lat="45.80066" lon="1.21172">
        <ele>326.3</ele>
        <time>2024-09-25T14:20:21Z</time>
      </trkpt>
      <trkpt lat="45.80068" lon="1.21176">
        <ele>326.4</ele>
        <time>2024-09-25T14:20:22Z</time>
      </trkpt>
      <trkpt lat="45.8007" lon="1.21179">
        <ele>326.5</ele>
        <time>2024-09-25T14:20:23Z</time>
      </trkpt>
      <trkpt lat="45.80072" lon="1.21182">
        <ele>326.5</ele>
        <time>2024-09-25T14:20:24Z</time>
      </trkpt>
      <trkpt lat="45.80074" lon="1.21186">
        <ele>326.6</ele>
        <time>2024-09-25T14:20:25Z</time>
      </trkpt>
      <trkpt lat="45.80077" lon="1.21189">
        <ele>326.6</ele>
        <time>2024-09-25T14:20:27Z</time>
      </trkpt>
      <trkpt lat="45.8008" lon="1.21192">
        <ele>326.6</ele>
        <time>2024-09-25T14:20:28Z</time>
      </trkpt>
      <trkpt lat="45.80083" lon="1.21195">
        <ele>326.7</ele>
        <time>2024-09-25T14:20:29Z</time>
      </trkpt>
      <trkpt lat="45.80085" lon="1.21198">
        <ele>326.7</ele>
        <time>2024-09-25T14:20:30Z</time>
      </trkpt>
      <trkpt lat="45.80088" lon="1.21201">
        <ele>326.8</ele>
        <time>2024-09-25T14:20:31Z</time>
      </trkpt>
      <trkpt lat="45.8009" lon="1.21205">
        <ele>326.8</ele>
        <time>2024-09-25T14:20:32Z</time>
      </trkpt>
      <trkpt lat="45.80093" lon="1.21207">
        <ele>326.8</ele>
        <time>2024-09-25T14:20:33Z</time>
      </trkpt>
      <trkpt lat="45.80095" lon="1.2121">
        <ele>326.8</ele>
        <time>2024-09-25T14:20:34Z</time>
      </trkpt>
      <trkpt lat="45.80098" lon="1.21213">
        <ele>326.8</ele>
        <time>2024-09-25T14:20:35Z</time>
      </trkpt>
      <trkpt lat="45.80101" lon="1.21216">
        <ele>326.9</ele>
        <time>2024-09-25T14:20:37Z</time>
      </trkpt>
      <trkpt lat="45.80103" lon="1.2122">
        <ele>326.7</ele>
        <time>2024-09-25T14:20:38Z</time>
      </trkpt>
      <trkpt lat="45.80105" lon="1.21223">
        <ele>326.6</ele>
        <time>2024-09-25T14:20:39Z</time>
      </trkpt>
      <trkpt lat="45.80107" lon="1.21227">
        <ele>326.5</ele>
        <time>2024-09-25T14:20:40Z</time>
      </trkpt>
      <trkpt lat="45.80109" lon="1.2123">
        <ele>326.4</ele>
        <time>2024-09-25T14:20:41Z</time>
      </trkpt>
      <trkpt lat="45.80111" lon="1.21233">
        <ele>326.3</ele>
        <time>2024-09-25T14:20:42Z</time>
      </trkpt>
      <trkpt lat="45.80114" lon="1.21236">
        <ele>326.1</ele>
        <time>2024-09-25T14:20:43Z</time>
      </trkpt>
      <trkpt lat="45.80117" lon="1.21239">
        <ele>326</ele>
        <time>2024-09-25T14:20:44Z</time>
      </trkpt>
      <trkpt lat="45.80119" lon="1.21241">
        <ele>325.9</ele>
        <time>2024-09-25T14:20:48Z</time>
      </trkpt>
      <trkpt lat="45.80124" lon="1.21245">
        <ele>325.7</ele>
        <time>2024-09-25T14:21:13Z</time>
      </trkpt>
      <trkpt lat="45.80127" lon="1.21247">
        <ele>325.5</ele>
        <time>2024-09-25T14:21:15Z</time>
      </trkpt>
      <trkpt lat="45.8013" lon="1.2125">
        <ele>325.3</ele>
        <time>2024-09-25T14:21:16Z</time>
      </trkpt>
      <trkpt lat="45.80133" lon="1.21252">
        <ele>325.2</ele>
        <time>2024-09-25T14:21:17Z</time>
      </trkpt>
      <trkpt lat="45.80137" lon="1.21255">
        <ele>325</ele>
        <time>2024-09-25T14:21:18Z</time>
      </trkpt>
      <trkpt lat="45.80141" lon="1.21258">
        <ele>324.7</ele>
        <time>2024-09-25T14:21:19Z</time>
      </trkpt>
      <trkpt lat="45.80144" lon="1.21261">
        <ele>324.5</ele>
        <time>2024-09-25T14:21:20Z</time>
      </trkpt>
      <trkpt lat="45.80148" lon="1.21264">
        <ele>324.3</ele>
        <time>2024-09-25T14:21:21Z</time>
      </trkpt>
      <trkpt lat="45.80152" lon="1.21267">
        <ele>324</ele>
        <time>2024-09-25T14:21:22Z</time>
      </trkpt>
      <trkpt lat="45.80157" lon="1.21271">
        <ele>323.6</ele>
        <time>2024-09-25T14:21:23Z</time>
      </trkpt>
      <trkpt lat="45.80161" lon="1.21275">
        <ele>323.3</ele>
        <time>2024-09-25T14:21:24Z</time>
      </trkpt>
      <trkpt lat="45.80167" lon="1.21279">
        <ele>322.9</ele>
        <time>2024-09-25T14:21:25Z</time>
      </trkpt>
      <trkpt lat="45.80172" lon="1.21282">
        <ele>322.5</ele>
        <time>2024-09-25T14:21:26Z</time>
      </trkpt>
      <trkpt lat="45.80176" lon="1.21286">
        <ele>322.1</ele>
        <time>2024-09-25T14:21:27Z</time>
      </trkpt>
      <trkpt lat="45.80181" lon="1.21289">
        <ele>321.7</ele>
        <time>2024-09-25T14:21:28Z</time>
      </trkpt>
      <trkpt lat="45.80185" lon="1.21291">
        <ele>321.4</ele>
        <time>2024-09-25T14:21:29Z</time>
      </trkpt>
      <trkpt lat="45.80189" lon="1.21294">
        <ele>321.1</ele>
        <time>2024-09-25T14:21:30Z</time>
      </trkpt>
      <trkpt lat="45.80194" lon="1.21297">
        <ele>320.6</ele>
        <time>2024-09-25T14:21:31Z</time>
      </trkpt>
      <trkpt lat="45.80199" lon="1.213">
        <ele>320.2</ele>
        <time>2024-09-25T14:21:32Z</time>
      </trkpt>
      <trkpt lat="45.80205" lon="1.21303">
        <ele>319.7</ele>
        <time>2024-09-25T14:21:33Z</time>
      </trkpt>
      <trkpt lat="45.8021" lon="1.21307">
        <ele>319.2</ele>
        <time>2024-09-25T14:21:34Z</time>
      </trkpt>
      <trkpt lat="45.80216" lon="1.2131">
        <ele>318.6</ele>
        <time>2024-09-25T14:21:35Z</time>
      </trkpt>
      <trkpt lat="45.80222" lon="1.21314">
        <ele>318</ele>
        <time>2024-09-25T14:21:36Z</time>
      </trkpt>
      <trkpt lat="45.80228" lon="1.21317">
        <ele>317.5</ele>
        <time>2024-09-25T14:21:37Z</time>
      </trkpt>
      <trkpt lat="45.80236" lon="1.21319">
        <ele>317</ele>
        <time>2024-09-25T14:21:38Z</time>
      </trkpt>
      <trkpt lat="45.80243" lon="1.21322">
        <ele>316.6</ele>
        <time>2024-09-25T14:21:39Z</time>
      </trkpt>
      <trkpt lat="45.80251" lon="1.21326">
        <ele>315.5</ele>
        <time>2024-09-25T14:21:40Z</time>
      </trkpt>
      <trkpt lat="45.80259" lon="1.2133">
        <ele>314.3</ele>
        <time>2024-09-25T14:21:41Z</time>
      </trkpt>
      <trkpt lat="45.80268" lon="1.21333">
        <ele>313</ele>
        <time>2024-09-25T14:21:42Z</time>
      </trkpt>
      <trkpt lat="45.80277" lon="1.21338">
        <ele>311.6</ele>
        <time>2024-09-25T14:21:43Z</time>
      </trkpt>
      <trkpt lat="45.80287" lon="1.21342">
        <ele>310.2</ele>
        <time>2024-09-25T14:21:44Z</time>
      </trkpt>
      <trkpt lat="45.80298" lon="1.21346">
        <ele>308.7</ele>
        <time>2024-09-25T14:21:45Z</time>
      </trkpt>
      <trkpt lat="45.80309" lon="1.21349">
        <ele>307.7</ele>
        <time>2024-09-25T14:21:46Z</time>
      </trkpt>
      <trkpt lat="45.80321" lon="1.21352">
        <ele>306.7</ele>
        <time>2024-09-25T14:21:47Z</time>
      </trkpt>
      <trkpt lat="45.80333" lon="1.21353">
        <ele>305.9</ele>
        <time>2024-09-25T14:21:48Z</time>
      </trkpt>
      <trkpt lat="45.80344" lon="1.21355">
        <ele>305.4</ele>
        <time>2024-09-25T14:21:49Z</time>
      </trkpt>
      <trkpt lat="45.80355" lon="1.21357">
        <ele>305.2</ele>
        <time>2024-09-25T14:21:50Z</time>
      </trkpt>
      <trkpt lat="45.80365" lon="1.21362">
        <ele>305</ele>
        <time>2024-09-25T14:21:51Z</time>
      </trkpt>
      <trkpt lat="45.80374" lon="1.21369">
        <ele>304.9</ele>
        <time>2024-09-25T14:21:52Z</time>
      </trkpt>
      <trkpt lat="45.80381" lon="1.21377">
        <ele>304.9</ele>
        <time>2024-09-25T14:21:53Z</time>
      </trkpt>
      <trkpt lat="45.80389" lon="1.21386">
        <ele>304.9</ele>
        <time>2024-09-25T14:21:54Z</time>
      </trkpt>
      <trkpt lat="45.80395" lon="1.21396">
        <ele>304.8</ele>
        <time>2024-09-25T14:21:55Z</time>
      </trkpt>
      <trkpt lat="45.804" lon="1.21406">
        <ele>304.8</ele>
        <time>2024-09-25T14:21:56Z</time>
      </trkpt>
      <trkpt lat="45.80404" lon="1.21417">
        <ele>304.7</ele>
        <time>2024-09-25T14:21:57Z</time>
      </trkpt>
      <trkpt lat="45.80407" lon="1.21428">
        <ele>304.7</ele>
        <time>2024-09-25T14:21:58Z</time>
      </trkpt>
      <trkpt lat="45.80409" lon="1.21439">
        <ele>304.6</ele>
        <time>2024-09-25T14:21:59Z</time>
      </trkpt>
      <trkpt lat="45.80411" lon="1.2145">
        <ele>304.6</ele>
        <time>2024-09-25T14:22:00Z</time>
      </trkpt>
      <trkpt lat="45.80412" lon="1.2146">
        <ele>304.6</ele>
        <time>2024-09-25T14:22:01Z</time>
      </trkpt>
      <trkpt lat="45.80413" lon="1.2147">
        <ele>304.5</ele>
        <time>2024-09-25T14:22:02Z</time>
      </trkpt>
      <trkpt lat="45.80414" lon="1.2148">
        <ele>304.4</ele>
        <time>2024-09-25T14:22:03Z</time>
      </trkpt>
      <trkpt lat="45.80415" lon="1.21489">
        <ele>304.5</ele>
        <time>2024-09-25T14:22:04Z</time>
      </trkpt>
      <trkpt lat="45.80417" lon="1.21498">
        <ele>304.4</ele>
        <time>2024-09-25T14:22:05Z</time>
      </trkpt>
      <trkpt lat="45.80418" lon="1.21507">
        <ele>304.3</ele>
        <time>2024-09-25T14:22:06Z</time>
      </trkpt>
      <trkpt lat="45.8042" lon="1.21516">
        <ele>304.2</ele>
        <time>2024-09-25T14:22:07Z</time>
      </trkpt>
      <trkpt lat="45.80421" lon="1.21524">
        <ele>304.2</ele>
        <time>2024-09-25T14:22:08Z</time>
      </trkpt>
      <trkpt lat="45.80421" lon="1.21532">
        <ele>304.1</ele>
        <time>2024-09-25T14:22:09Z</time>
      </trkpt>
      <trkpt lat="45.80422" lon="1.2154">
        <ele>304.1</ele>
        <time>2024-09-25T14:22:10Z</time>
      </trkpt>
      <trkpt lat="45.80422" lon="1.21548">
        <ele>304</ele>
        <time>2024-09-25T14:22:11Z</time>
      </trkpt>
      <trkpt lat="45.80422" lon="1.21556">
        <ele>304</ele>
        <time>2024-09-25T14:22:12Z</time>
      </trkpt>
      <trkpt lat="45.80422" lon="1.21564">
        <ele>304</ele>
        <time>2024-09-25T14:22:13Z</time>
      </trkpt>
      <trkpt lat="45.80422" lon="1.21573">
        <ele>303.9</ele>
        <time>2024-09-25T14:22:14Z</time>
      </trkpt>
      <trkpt lat="45.80422" lon="1.21581">
        <ele>303.8</ele>
        <time>2024-09-25T14:22:15Z</time>
      </trkpt>
      <trkpt lat="45.80423" lon="1.2159">
        <ele>303.8</ele>
        <time>2024-09-25T14:22:16Z</time>
      </trkpt>
      <trkpt lat="45.80422" lon="1.21598">
        <ele>303.8</ele>
        <time>2024-09-25T14:22:17Z</time>
      </trkpt>
      <trkpt lat="45.80422" lon="1.21606">
        <ele>303.8</ele>
        <time>2024-09-25T14:22:18Z</time>
      </trkpt>
      <trkpt lat="45.80422" lon="1.21615">
        <ele>303.8</ele>
        <time>2024-09-25T14:22:19Z</time>
      </trkpt>
      <trkpt lat="45.80422" lon="1.21623">
        <ele>303.8</ele>
        <time>2024-09-25T14:22:20Z</time>
      </trkpt>
      <trkpt lat="45.80422" lon="1.21631">
        <ele>303.8</ele>
        <time>2024-09-25T14:22:21Z</time>
      </trkpt>
      <trkpt lat="45.80422" lon="1.21639">
        <ele>303.9</ele>
        <time>2024-09-25T14:22:22Z</time>
      </trkpt>
      <trkpt lat="45.80422" lon="1.21647">
        <ele>304</ele>
        <time>2024-09-25T14:22:23Z</time>
      </trkpt>
      <trkpt lat="45.80422" lon="1.21654">
        <ele>304</ele>
        <time>2024-09-25T14:22:24Z</time>
      </trkpt>
      <trkpt lat="45.80421" lon="1.21661">
        <ele>304.1</ele>
        <time>2024-09-25T14:22:25Z</time>
      </trkpt>
      <trkpt lat="45.80421" lon="1.21668">
        <ele>304.1</ele>
        <time>2024-09-25T14:22:26Z</time>
      </trkpt>
      <trkpt lat="45.80421" lon="1.21674">
        <ele>304.2</ele>
        <time>2024-09-25T14:22:27Z</time>
      </trkpt>
      <trkpt lat="45.80422" lon="1.21679">
        <ele>304.2</ele>
        <time>2024-09-25T14:22:28Z</time>
      </trkpt>
      <trkpt lat="45.80422" lon="1.21684">
        <ele>304.2</ele>
        <time>2024-09-25T14:22:29Z</time>
      </trkpt>
      <trkpt lat="45.80424" lon="1.21688">
        <ele>304.3</ele>
        <time>2024-09-25T14:22:30Z</time>
      </trkpt>
      <trkpt lat="45.80427" lon="1.2169">
        <ele>304.3</ele>
        <time>2024-09-25T14:22:31Z</time>
      </trkpt>
      <trkpt lat="45.80431" lon="1.21692">
        <ele>304.4</ele>
        <time>2024-09-25T14:22:32Z</time>
      </trkpt>
      <trkpt lat="45.80435" lon="1.21693">
        <ele>304.5</ele>
        <time>2024-09-25T14:22:33Z</time>
      </trkpt>
      <trkpt lat="45.80439" lon="1.21693">
        <ele>304.6</ele>
        <time>2024-09-25T14:22:34Z</time>
      </trkpt>
      <trkpt lat="45.80443" lon="1.21691">
        <ele>304.7</ele>
        <time>2024-09-25T14:22:35Z</time>
      </trkpt>
      <trkpt lat="45.80448" lon="1.2169">
        <ele>304.9</ele>
        <time>2024-09-25T14:22:36Z</time>
      </trkpt>
      <trkpt lat="45.80452" lon="1.21688">
        <ele>305</ele>
        <time>2024-09-25T14:22:37Z</time>
      </trkpt>
      <trkpt lat="45.80456" lon="1.21687">
        <ele>305.1</ele>
        <time>2024-09-25T14:22:38Z</time>
      </trkpt>
      <trkpt lat="45.8046" lon="1.21686">
        <ele>305.2</ele>
        <time>2024-09-25T14:22:39Z</time>
      </trkpt>
      <trkpt lat="45.80464" lon="1.21685">
        <ele>305.3</ele>
        <time>2024-09-25T14:22:40Z</time>
      </trkpt>
      <trkpt lat="45.80469" lon="1.21683">
        <ele>305.5</ele>
        <time>2024-09-25T14:22:41Z</time>
      </trkpt>
      <trkpt lat="45.80473" lon="1.21682">
        <ele>305.6</ele>
        <time>2024-09-25T14:22:42Z</time>
      </trkpt>
      <trkpt lat="45.80477" lon="1.21681">
        <ele>305.7</ele>
        <time>2024-09-25T14:22:43Z</time>
      </trkpt>
      <trkpt lat="45.80481" lon="1.2168">
        <ele>305.9</ele>
        <time>2024-09-25T14:22:44Z</time>
      </trkpt>
      <trkpt lat="45.80485" lon="1.21679">
        <ele>306</ele>
        <time>2024-09-25T14:22:45Z</time>
      </trkpt>
      <trkpt lat="45.80489" lon="1.21678">
        <ele>306.2</ele>
        <time>2024-09-25T14:22:46Z</time>
      </trkpt>
      <trkpt lat="45.80493" lon="1.21676">
        <ele>306.3</ele>
        <time>2024-09-25T14:22:47Z</time>
      </trkpt>
      <trkpt lat="45.80497" lon="1.21675">
        <ele>306.5</ele>
        <time>2024-09-25T14:22:48Z</time>
      </trkpt>
      <trkpt lat="45.80501" lon="1.21674">
        <ele>306.7</ele>
        <time>2024-09-25T14:22:49Z</time>
      </trkpt>
      <trkpt lat="45.80505" lon="1.21672">
        <ele>306.8</ele>
        <time>2024-09-25T14:22:50Z</time>
      </trkpt>
      <trkpt lat="45.80509" lon="1.21671">
        <ele>307</ele>
        <time>2024-09-25T14:22:51Z</time>
      </trkpt>
      <trkpt lat="45.80512" lon="1.2167">
        <ele>307.1</ele>
        <time>2024-09-25T14:22:52Z</time>
      </trkpt>
      <trkpt lat="45.80515" lon="1.21669">
        <ele>307.2</ele>
        <time>2024-09-25T14:22:53Z</time>
      </trkpt>
      <trkpt lat="45.80519" lon="1.21667">
        <ele>307.4</ele>
        <time>2024-09-25T14:22:54Z</time>
      </trkpt>
      <trkpt lat="45.80523" lon="1.21665">
        <ele>307.5</ele>
        <time>2024-09-25T14:22:55Z</time>
      </trkpt>
      <trkpt lat="45.80527" lon="1.21663">
        <ele>307.7</ele>
        <time>2024-09-25T14:22:56Z</time>
      </trkpt>
      <trkpt lat="45.80532" lon="1.21662">
        <ele>307.8</ele>
        <time>2024-09-25T14:22:57Z</time>
      </trkpt>
      <trkpt lat="45.80536" lon="1.2166">
        <ele>307.9</ele>
        <time>2024-09-25T14:22:58Z</time>
      </trkpt>
      <trkpt lat="45.8054" lon="1.21657">
        <ele>308.1</ele>
        <time>2024-09-25T14:22:59Z</time>
      </trkpt>
      <trkpt lat="45.80544" lon="1.21655">
        <ele>308.2</ele>
        <time>2024-09-25T14:23:00Z</time>
      </trkpt>
      <trkpt lat="45.80548" lon="1.21653">
        <ele>308.3</ele>
        <time>2024-09-25T14:23:01Z</time>
      </trkpt>
      <trkpt lat="45.80552" lon="1.2165">
        <ele>308.4</ele>
        <time>2024-09-25T14:23:02Z</time>
      </trkpt>
      <trkpt lat="45.80557" lon="1.21647">
        <ele>308.5</ele>
        <time>2024-09-25T14:23:03Z</time>
      </trkpt>
      <trkpt lat="45.80561" lon="1.21644">
        <ele>308.5</ele>
        <time>2024-09-25T14:23:04Z</time>
      </trkpt>
      <trkpt lat="45.80564" lon="1.21642">
        <ele>308.6</ele>
        <time>2024-09-25T14:23:05Z</time>
      </trkpt>
      <trkpt lat="45.80568" lon="1.2164">
        <ele>308.7</ele>
        <time>2024-09-25T14:23:06Z</time>
      </trkpt>
      <trkpt lat="45.80572" lon="1.21638">
        <ele>308.7</ele>
        <time>2024-09-25T14:23:07Z</time>
      </trkpt>
      <trkpt lat="45.80576" lon="1.21635">
        <ele>308.7</ele>
        <time>2024-09-25T14:23:08Z</time>
      </trkpt>
      <trkpt lat="45.8058" lon="1.21632">
        <ele>308.8</ele>
        <time>2024-09-25T14:23:09Z</time>
      </trkpt>
      <trkpt lat="45.80583" lon="1.21629">
        <ele>308.8</ele>
        <time>2024-09-25T14:23:10Z</time>
      </trkpt>
      <trkpt lat="45.80587" lon="1.21627">
        <ele>308.8</ele>
        <time>2024-09-25T14:23:11Z</time>
      </trkpt>
      <trkpt lat="45.8059" lon="1.21626">
        <ele>308.8</ele>
        <time>2024-09-25T14:23:12Z</time>
      </trkpt>
      <trkpt lat="45.80594" lon="1.21625">
        <ele>308.8</ele>
        <time>2024-09-25T14:23:13Z</time>
      </trkpt>
      <trkpt lat="45.80598" lon="1.21624">
        <ele>308.7</ele>
        <time>2024-09-25T14:23:14Z</time>
      </trkpt>
      <trkpt lat="45.80602" lon="1.21623">
        <ele>308.7</ele>
        <time>2024-09-25T14:23:15Z</time>
      </trkpt>
      <trkpt lat="45.80606" lon="1.21622">
        <ele>308.6</ele>
        <time>2024-09-25T14:23:16Z</time>
      </trkpt>
      <trkpt lat="45.80611" lon="1.21622">
        <ele>308.5</ele>
        <time>2024-09-25T14:23:17Z</time>
      </trkpt>
      <trkpt lat="45.80616" lon="1.21623">
        <ele>308.4</ele>
        <time>2024-09-25T14:23:18Z</time>
      </trkpt>
      <trkpt lat="45.80621" lon="1.21625">
        <ele>308.4</ele>
        <time>2024-09-25T14:23:19Z</time>
      </trkpt>
      <trkpt lat="45.80625" lon="1.21627">
        <ele>308.3</ele>
        <time>2024-09-25T14:23:20Z</time>
      </trkpt>
      <trkpt lat="45.80629" lon="1.21629">
        <ele>308.3</ele>
        <time>2024-09-25T14:23:21Z</time>
      </trkpt>
      <trkpt lat="45.80633" lon="1.2163">
        <ele>308.3</ele>
        <time>2024-09-25T14:23:22Z</time>
      </trkpt>
      <trkpt lat="45.80637" lon="1.21631">
        <ele>308.4</ele>
        <time>2024-09-25T14:23:23Z</time>
      </trkpt>
      <trkpt lat="45.80641" lon="1.21633">
        <ele>308.4</ele>
        <time>2024-09-25T14:23:24Z</time>
      </trkpt>
      <trkpt lat="45.80644" lon="1.21634">
        <ele>308.5</ele>
        <time>2024-09-25T14:23:25Z</time>
      </trkpt>
      <trkpt lat="45.80648" lon="1.21635">
        <ele>308.6</ele>
        <time>2024-09-25T14:23:26Z</time>
      </trkpt>
      <trkpt lat="45.80651" lon="1.21636">
        <ele>308.6</ele>
        <time>2024-09-25T14:23:27Z</time>
      </trkpt>
      <trkpt lat="45.80655" lon="1.21636">
        <ele>308.7</ele>
        <time>2024-09-25T14:23:29Z</time>
      </trkpt>
      <trkpt lat="45.80659" lon="1.21633">
        <ele>308.8</ele>
        <time>2024-09-25T14:23:31Z</time>
      </trkpt>
      <trkpt lat="45.80663" lon="1.2163">
        <ele>308.9</ele>
        <time>2024-09-25T14:23:32Z</time>
      </trkpt>
      <trkpt lat="45.80665" lon="1.21626">
        <ele>309</ele>
        <time>2024-09-25T14:23:33Z</time>
      </trkpt>
      <trkpt lat="45.80667" lon="1.21622">
        <ele>309.1</ele>
        <time>2024-09-25T14:23:34Z</time>
      </trkpt>
      <trkpt lat="45.80669" lon="1.21618">
        <ele>309.3</ele>
        <time>2024-09-25T14:23:35Z</time>
      </trkpt>
      <trkpt lat="45.80671" lon="1.21614">
        <ele>309.4</ele>
        <time>2024-09-25T14:23:36Z</time>
      </trkpt>
      <trkpt lat="45.80673" lon="1.21609">
        <ele>309.6</ele>
        <time>2024-09-25T14:23:37Z</time>
      </trkpt>
      <trkpt lat="45.80675" lon="1.21605">
        <ele>309.7</ele>
        <time>2024-09-25T14:23:38Z</time>
      </trkpt>
      <trkpt lat="45.80677" lon="1.216">
        <ele>309.9</ele>
        <time>2024-09-25T14:23:39Z</time>
      </trkpt>
      <trkpt lat="45.80678" lon="1.21595">
        <ele>310.1</ele>
        <time>2024-09-25T14:23:40Z</time>
      </trkpt>
      <trkpt lat="45.8068" lon="1.21591">
        <ele>310.2</ele>
        <time>2024-09-25T14:23:41Z</time>
      </trkpt>
      <trkpt lat="45.80682" lon="1.21586">
        <ele>310.4</ele>
        <time>2024-09-25T14:23:42Z</time>
      </trkpt>
      <trkpt lat="45.80684" lon="1.21581">
        <ele>310.6</ele>
        <time>2024-09-25T14:23:43Z</time>
      </trkpt>
      <trkpt lat="45.80685" lon="1.21577">
        <ele>310.8</ele>
        <time>2024-09-25T14:23:44Z</time>
      </trkpt>
      <trkpt lat="45.80687" lon="1.21573">
        <ele>310.9</ele>
        <time>2024-09-25T14:23:45Z</time>
      </trkpt>
      <trkpt lat="45.80688" lon="1.21569">
        <ele>311.1</ele>
        <time>2024-09-25T14:23:46Z</time>
      </trkpt>
      <trkpt lat="45.8069" lon="1.21564">
        <ele>311.3</ele>
        <time>2024-09-25T14:23:47Z</time>
      </trkpt>
      <trkpt lat="45.80692" lon="1.2156">
        <ele>311.5</ele>
        <time>2024-09-25T14:23:48Z</time>
      </trkpt>
      <trkpt lat="45.80694" lon="1.21557">
        <ele>311.7</ele>
        <time>2024-09-25T14:23:49Z</time>
      </trkpt>
      <trkpt lat="45.80697" lon="1.21556">
        <ele>311.8</ele>
        <time>2024-09-25T14:23:50Z</time>
      </trkpt>
      <trkpt lat="45.807" lon="1.21557">
        <ele>312.3</ele>
        <time>2024-09-25T14:23:51Z</time>
      </trkpt>
      <trkpt lat="45.80703" lon="1.21559">
        <ele>312.7</ele>
        <time>2024-09-25T14:23:52Z</time>
      </trkpt>
      <trkpt lat="45.80706" lon="1.21562">
        <ele>312.9</ele>
        <time>2024-09-25T14:23:53Z</time>
      </trkpt>
      <trkpt lat="45.80709" lon="1.21565">
        <ele>313.1</ele>
        <time>2024-09-25T14:23:54Z</time>
      </trkpt>
      <trkpt lat="45.80712" lon="1.21569">
        <ele>313.2</ele>
        <time>2024-09-25T14:23:55Z</time>
      </trkpt>
      <trkpt lat="45.80715" lon="1.21572">
        <ele>313.4</ele>
        <time>2024-09-25T14:23:56Z</time>
      </trkpt>
      <trkpt lat="45.80718" lon="1.21576">
        <ele>313.6</ele>
        <time>2024-09-25T14:23:57Z</time>
      </trkpt>
      <trkpt lat="45.80721" lon="1.21579">
        <ele>313.7</ele>
        <time>2024-09-25T14:23:58Z</time>
      </trkpt>
      <trkpt lat="45.80724" lon="1.21582">
        <ele>313.9</ele>
        <time>2024-09-25T14:23:59Z</time>
      </trkpt>
      <trkpt lat="45.80728" lon="1.21584">
        <ele>314</ele>
        <time>2024-09-25T14:24:00Z</time>
      </trkpt>
      <trkpt lat="45.80732" lon="1.21585">
        <ele>314.2</ele>
        <time>2024-09-25T14:24:01Z</time>
      </trkpt>
      <trkpt lat="45.80735" lon="1.21584">
        <ele>314.3</ele>
        <time>2024-09-25T14:24:02Z</time>
      </trkpt>
      <trkpt lat="45.80738" lon="1.21582">
        <ele>314.4</ele>
        <time>2024-09-25T14:24:03Z</time>
      </trkpt>
      <trkpt lat="45.80741" lon="1.2158">
        <ele>314.5</ele>
        <time>2024-09-25T14:24:04Z</time>
      </trkpt>
      <trkpt lat="45.80746" lon="1.21578">
        <ele>314.6</ele>
        <time>2024-09-25T14:24:06Z</time>
      </trkpt>
      <trkpt lat="45.8075" lon="1.21581">
        <ele>314.7</ele>
        <time>2024-09-25T14:24:08Z</time>
      </trkpt>
      <trkpt lat="45.80754" lon="1.21584">
        <ele>314.9</ele>
        <time>2024-09-25T14:24:10Z</time>
      </trkpt>
      <trkpt lat="45.80757" lon="1.21587">
        <ele>315.1</ele>
        <time>2024-09-25T14:24:11Z</time>
      </trkpt>
      <trkpt lat="45.8076" lon="1.2159">
        <ele>315.3</ele>
        <time>2024-09-25T14:24:12Z</time>
      </trkpt>
      <trkpt lat="45.80762" lon="1.21593">
        <ele>315.5</ele>
        <time>2024-09-25T14:24:13Z</time>
      </trkpt>
      <trkpt lat="45.80764" lon="1.21596">
        <ele>315.5</ele>
        <time>2024-09-25T14:24:14Z</time>
      </trkpt>
      <trkpt lat="45.80766" lon="1.21598">
        <ele>315.6</ele>
        <time>2024-09-25T14:24:15Z</time>
      </trkpt>
      <trkpt lat="45.80768" lon="1.21601">
        <ele>315.6</ele>
        <time>2024-09-25T14:24:16Z</time>
      </trkpt>
      <trkpt lat="45.80771" lon="1.21605">
        <ele>315.6</ele>
        <time>2024-09-25T14:24:18Z</time>
      </trkpt>
      <trkpt lat="45.80773" lon="1.21608">
        <ele>315.6</ele>
        <time>2024-09-25T14:24:20Z</time>
      </trkpt>
      <trkpt lat="45.80775" lon="1.21612">
        <ele>315.6</ele>
        <time>2024-09-25T14:24:23Z</time>
      </trkpt>
      <trkpt lat="45.80776" lon="1.21615">
        <ele>315.6</ele>
        <time>2024-09-25T14:24:27Z</time>
      </trkpt>
      <trkpt lat="45.80774" lon="1.21616">
        <ele>315.6</ele>
        <time>2024-09-25T14:24:30Z</time>
      </trkpt>
      <trkpt lat="45.80774" lon="1.21614">
        <ele>315.6</ele>
        <time>2024-09-25T14:24:33Z</time>
      </trkpt>
      <trkpt lat="45.80776" lon="1.21615">
        <ele>315.6</ele>
        <time>2024-09-25T14:24:56Z</time>
      </trkpt>
      <trkpt lat="45.80777" lon="1.21619">
        <ele>315.6</ele>
        <time>2024-09-25T14:24:58Z</time>
      </trkpt>
      <trkpt lat="45.80778" lon="1.21623">
        <ele>315.7</ele>
        <time>2024-09-25T14:24:59Z</time>
      </trkpt>
      <trkpt lat="45.80779" lon="1.21628">
        <ele>315.7</ele>
        <time>2024-09-25T14:25:00Z</time>
      </trkpt>
      <trkpt lat="45.80781" lon="1.21633">
        <ele>315.7</ele>
        <time>2024-09-25T14:25:01Z</time>
      </trkpt>
      <trkpt lat="45.80782" lon="1.21638">
        <ele>315.7</ele>
        <time>2024-09-25T14:25:02Z</time>
      </trkpt>
      <trkpt lat="45.80783" lon="1.21643">
        <ele>315.6</ele>
        <time>2024-09-25T14:25:03Z</time>
      </trkpt>
      <trkpt lat="45.80784" lon="1.21647">
        <ele>315.6</ele>
        <time>2024-09-25T14:25:04Z</time>
      </trkpt>
      <trkpt lat="45.80785" lon="1.21651">
        <ele>315.5</ele>
        <time>2024-09-25T14:25:05Z</time>
      </trkpt>
      <trkpt lat="45.80787" lon="1.21656">
        <ele>315.4</ele>
        <time>2024-09-25T14:25:07Z</time>
      </trkpt>
      <trkpt lat="45.80788" lon="1.21661">
        <ele>315.3</ele>
        <time>2024-09-25T14:25:09Z</time>
      </trkpt>
      <trkpt lat="45.8079" lon="1.21666">
        <ele>315.2</ele>
        <time>2024-09-25T14:25:11Z</time>
      </trkpt>
      <trkpt lat="45.80794" lon="1.21666">
        <ele>315.1</ele>
        <time>2024-09-25T14:25:13Z</time>
      </trkpt>
      <trkpt lat="45.80797" lon="1.21665">
        <ele>315.1</ele>
        <time>2024-09-25T14:25:14Z</time>
      </trkpt>
      <trkpt lat="45.80801" lon="1.21664">
        <ele>315</ele>
        <time>2024-09-25T14:25:15Z</time>
      </trkpt>
      <trkpt lat="45.80804" lon="1.21663">
        <ele>314.9</ele>
        <time>2024-09-25T14:25:16Z</time>
      </trkpt>
      <trkpt lat="45.80808" lon="1.21662">
        <ele>314.8</ele>
        <time>2024-09-25T14:25:17Z</time>
      </trkpt>
      <trkpt lat="45.80811" lon="1.21661">
        <ele>314.8</ele>
        <time>2024-09-25T14:25:18Z</time>
      </trkpt>
      <trkpt lat="45.80814" lon="1.21659">
        <ele>314.8</ele>
        <time>2024-09-25T14:25:19Z</time>
      </trkpt>
      <trkpt lat="45.80818" lon="1.21658">
        <ele>314.8</ele>
        <time>2024-09-25T14:25:20Z</time>
      </trkpt>
      <trkpt lat="45.80821" lon="1.21656">
        <ele>314.8</ele>
        <time>2024-09-25T14:25:21Z</time>
      </trkpt>
      <trkpt lat="45.80825" lon="1.21655">
        <ele>314.9</ele>
        <time>2024-09-25T14:25:22Z</time>
      </trkpt>
      <trkpt lat="45.80828" lon="1.21653">
        <ele>314.9</ele>
        <time>2024-09-25T14:25:23Z</time>
      </trkpt>
      <trkpt lat="45.80832" lon="1.21652">
        <ele>314.9</ele>
        <time>2024-09-25T14:25:24Z</time>
      </trkpt>
      <trkpt lat="45.80835" lon="1.21652">
        <ele>314.9</ele>
        <time>2024-09-25T14:25:25Z</time>
      </trkpt>
      <trkpt lat="45.80839" lon="1.21652">
        <ele>314.8</ele>
        <time>2024-09-25T14:25:26Z</time>
      </trkpt>
      <trkpt lat="45.80843" lon="1.21652">
        <ele>314.8</ele>
        <time>2024-09-25T14:25:27Z</time>
      </trkpt>
      <trkpt lat="45.80847" lon="1.21653">
        <ele>314.7</ele>
        <time>2024-09-25T14:25:28Z</time>
      </trkpt>
      <trkpt lat="45.8085" lon="1.21654">
        <ele>314.6</ele>
        <time>2024-09-25T14:25:29Z</time>
      </trkpt>
      <trkpt lat="45.80853" lon="1.21656">
        <ele>314.5</ele>
        <time>2024-09-25T14:25:30Z</time>
      </trkpt>
      <trkpt lat="45.80856" lon="1.21658">
        <ele>314.3</ele>
        <time>2024-09-25T14:25:31Z</time>
      </trkpt>
      <trkpt lat="45.80858" lon="1.21662">
        <ele>314.2</ele>
        <time>2024-09-25T14:25:32Z</time>
      </trkpt>
      <trkpt lat="45.80861" lon="1.21666">
        <ele>314</ele>
        <time>2024-09-25T14:25:33Z</time>
      </trkpt>
      <trkpt lat="45.80864" lon="1.21671">
        <ele>313.7</ele>
        <time>2024-09-25T14:25:34Z</time>
      </trkpt>
      <trkpt lat="45.80865" lon="1.21676">
        <ele>313.6</ele>
        <time>2024-09-25T14:25:35Z</time>
      </trkpt>
      <trkpt lat="45.80867" lon="1.21682">
        <ele>313.3</ele>
        <time>2024-09-25T14:25:36Z</time>
      </trkpt>
      <trkpt lat="45.80868" lon="1.21686">
        <ele>313.2</ele>
        <time>2024-09-25T14:25:37Z</time>
      </trkpt>
      <trkpt lat="45.80868" lon="1.21691">
        <ele>313.1</ele>
        <time>2024-09-25T14:25:38Z</time>
      </trkpt>
      <trkpt lat="45.80868" lon="1.21696">
        <ele>312.9</ele>
        <time>2024-09-25T14:25:39Z</time>
      </trkpt>
      <trkpt lat="45.80868" lon="1.217">
        <ele>312.9</ele>
        <time>2024-09-25T14:25:40Z</time>
      </trkpt>
      <trkpt lat="45.80867" lon="1.21707">
        <ele>312.7</ele>
        <time>2024-09-25T14:25:42Z</time>
      </trkpt>
      <trkpt lat="45.80866" lon="1.21712">
        <ele>312.7</ele>
        <time>2024-09-25T14:25:43Z</time>
      </trkpt>
      <trkpt lat="45.80864" lon="1.21716">
        <ele>312.6</ele>
        <time>2024-09-25T14:25:44Z</time>
      </trkpt>
      <trkpt lat="45.80862" lon="1.21719">
        <ele>312.6</ele>
        <time>2024-09-25T14:25:45Z</time>
      </trkpt>
      <trkpt lat="45.80859" lon="1.21721">
        <ele>312.6</ele>
        <time>2024-09-25T14:25:46Z</time>
      </trkpt>
      <trkpt lat="45.80856" lon="1.21723">
        <ele>312.6</ele>
        <time>2024-09-25T14:25:47Z</time>
      </trkpt>
      <trkpt lat="45.80852" lon="1.21723">
        <ele>312.6</ele>
        <time>2024-09-25T14:25:48Z</time>
      </trkpt>
      <trkpt lat="45.80849" lon="1.21723">
        <ele>312.6</ele>
        <time>2024-09-25T14:25:49Z</time>
      </trkpt>
      <trkpt lat="45.80846" lon="1.21722">
        <ele>312.7</ele>
        <time>2024-09-25T14:25:50Z</time>
      </trkpt>
      <trkpt lat="45.80843" lon="1.21721">
        <ele>312.7</ele>
        <time>2024-09-25T14:25:51Z</time>
      </trkpt>
      <trkpt lat="45.8084" lon="1.21718">
        <ele>312.8</ele>
        <time>2024-09-25T14:25:52Z</time>
      </trkpt>
      <trkpt lat="45.80838" lon="1.21715">
        <ele>312.8</ele>
        <time>2024-09-25T14:25:53Z</time>
      </trkpt>
      <trkpt lat="45.80836" lon="1.21711">
        <ele>312.9</ele>
        <time>2024-09-25T14:25:54Z</time>
      </trkpt>
      <trkpt lat="45.80833" lon="1.21707">
        <ele>313.1</ele>
        <time>2024-09-25T14:25:55Z</time>
      </trkpt>
      <trkpt lat="45.8083" lon="1.21704">
        <ele>313.3</ele>
        <time>2024-09-25T14:25:56Z</time>
      </trkpt>
      <trkpt lat="45.80827" lon="1.217">
        <ele>313.5</ele>
        <time>2024-09-25T14:25:57Z</time>
      </trkpt>
      <trkpt lat="45.80824" lon="1.21697">
        <ele>313.7</ele>
        <time>2024-09-25T14:25:58Z</time>
      </trkpt>
      <trkpt lat="45.80822" lon="1.21693">
        <ele>313.9</ele>
        <time>2024-09-25T14:25:59Z</time>
      </trkpt>
      <trkpt lat="45.80821" lon="1.2169">
        <ele>314.1</ele>
        <time>2024-09-25T14:26:00Z</time>
      </trkpt>
      <trkpt lat="45.8082" lon="1.21686">
        <ele>314.2</ele>
        <time>2024-09-25T14:26:01Z</time>
      </trkpt>
      <trkpt lat="45.80819" lon="1.21681">
        <ele>314.4</ele>
        <time>2024-09-25T14:26:02Z</time>
      </trkpt>
      <trkpt lat="45.80818" lon="1.21676">
        <ele>314.6</ele>
        <time>2024-09-25T14:26:03Z</time>
      </trkpt>
      <trkpt lat="45.80818" lon="1.21672">
        <ele>314.8</ele>
        <time>2024-09-25T14:26:04Z</time>
      </trkpt>
      <trkpt lat="45.80819" lon="1.21667">
        <ele>314.8</ele>
        <time>2024-09-25T14:26:06Z</time>
      </trkpt>
      <trkpt lat="45.80821" lon="1.21664">
        <ele>314.8</ele>
        <time>2024-09-25T14:26:07Z</time>
      </trkpt>
      <trkpt lat="45.80824" lon="1.21662">
        <ele>314.8</ele>
        <time>2024-09-25T14:26:08Z</time>
      </trkpt>
      <trkpt lat="45.80828" lon="1.2166">
        <ele>314.9</ele>
        <time>2024-09-25T14:26:09Z</time>
      </trkpt>
      <trkpt lat="45.80831" lon="1.21658">
        <ele>314.9</ele>
        <time>2024-09-25T14:26:10Z</time>
      </trkpt>
      <trkpt lat="45.80834" lon="1.21656">
        <ele>314.9</ele>
        <time>2024-09-25T14:26:11Z</time>
      </trkpt>
      <trkpt lat="45.80838" lon="1.21655">
        <ele>314.9</ele>
        <time>2024-09-25T14:26:12Z</time>
      </trkpt>
      <trkpt lat="45.80841" lon="1.21655">
        <ele>314.8</ele>
        <time>2024-09-25T14:26:13Z</time>
      </trkpt>
      <trkpt lat="45.80845" lon="1.21655">
        <ele>314.8</ele>
        <time>2024-09-25T14:26:14Z</time>
      </trkpt>
      <trkpt lat="45.80848" lon="1.21655">
        <ele>314.7</ele>
        <time>2024-09-25T14:26:15Z</time>
      </trkpt>
      <trkpt lat="45.80851" lon="1.21654">
        <ele>314.8</ele>
        <time>2024-09-25T14:26:23Z</time>
      </trkpt>
      <trkpt lat="45.80854" lon="1.21651">
        <ele>314.6</ele>
        <time>2024-09-25T14:26:26Z</time>
      </trkpt>
      <trkpt lat="45.80857" lon="1.2165">
        <ele>314.4</ele>
        <time>2024-09-25T14:26:28Z</time>
      </trkpt>
      <trkpt lat="45.80861" lon="1.21648">
        <ele>314.1</ele>
        <time>2024-09-25T14:26:30Z</time>
      </trkpt>
      <trkpt lat="45.80865" lon="1.21647">
        <ele>314</ele>
        <time>2024-09-25T14:26:31Z</time>
      </trkpt>
      <trkpt lat="45.80869" lon="1.21644">
        <ele>314.5</ele>
        <time>2024-09-25T14:26:32Z</time>
      </trkpt>
      <trkpt lat="45.80873" lon="1.21641">
        <ele>315.2</ele>
        <time>2024-09-25T14:26:33Z</time>
      </trkpt>
      <trkpt lat="45.80876" lon="1.21639">
        <ele>315.6</ele>
        <time>2024-09-25T14:26:34Z</time>
      </trkpt>
      <trkpt lat="45.8088" lon="1.21636">
        <ele>315.9</ele>
        <time>2024-09-25T14:26:35Z</time>
      </trkpt>
      <trkpt lat="45.80883" lon="1.21634">
        <ele>315.6</ele>
        <time>2024-09-25T14:26:36Z</time>
      </trkpt>
      <trkpt lat="45.80886" lon="1.21632">
        <ele>315.4</ele>
        <time>2024-09-25T14:26:37Z</time>
      </trkpt>
      <trkpt lat="45.8089" lon="1.21631">
        <ele>315.1</ele>
        <time>2024-09-25T14:26:39Z</time>
      </trkpt>
      <trkpt lat="45.80894" lon="1.21635">
        <ele>314.7</ele>
        <time>2024-09-25T14:26:41Z</time>
      </trkpt>
      <trkpt lat="45.80895" lon="1.21639">
        <ele>314.5</ele>
        <time>2024-09-25T14:26:42Z</time>
      </trkpt>
      <trkpt lat="45.80896" lon="1.21645">
        <ele>314.1</ele>
        <time>2024-09-25T14:26:43Z</time>
      </trkpt>
      <trkpt lat="45.80897" lon="1.2165">
        <ele>313.8</ele>
        <time>2024-09-25T14:26:44Z</time>
      </trkpt>
      <trkpt lat="45.80898" lon="1.21656">
        <ele>313.4</ele>
        <time>2024-09-25T14:26:45Z</time>
      </trkpt>
      <trkpt lat="45.80901" lon="1.21662">
        <ele>312.8</ele>
        <time>2024-09-25T14:26:46Z</time>
      </trkpt>
      <trkpt lat="45.80904" lon="1.21668">
        <ele>312.3</ele>
        <time>2024-09-25T14:26:47Z</time>
      </trkpt>
      <trkpt lat="45.80907" lon="1.21675">
        <ele>311.6</ele>
        <time>2024-09-25T14:26:48Z</time>
      </trkpt>
      <trkpt lat="45.80909" lon="1.21682">
        <ele>311.3</ele>
        <time>2024-09-25T14:26:49Z</time>
      </trkpt>
      <trkpt lat="45.8091" lon="1.2169">
        <ele>310.9</ele>
        <time>2024-09-25T14:26:50Z</time>
      </trkpt>
      <trkpt lat="45.80913" lon="1.21696">
        <ele>310.5</ele>
        <time>2024-09-25T14:26:51Z</time>
      </trkpt>
      <trkpt lat="45.80915" lon="1.21701">
        <ele>310.3</ele>
        <time>2024-09-25T14:26:52Z</time>
      </trkpt>
      <trkpt lat="45.80916" lon="1.21707">
        <ele>310.1</ele>
        <time>2024-09-25T14:26:54Z</time>
      </trkpt>
      <trkpt lat="45.80919" lon="1.2171">
        <ele>310.1</ele>
        <time>2024-09-25T14:26:56Z</time>
      </trkpt>
      <trkpt lat="45.80922" lon="1.21714">
        <ele>310.1</ele>
        <time>2024-09-25T14:26:58Z</time>
      </trkpt>
      <trkpt lat="45.80925" lon="1.21717">
        <ele>310.1</ele>
        <time>2024-09-25T14:26:59Z</time>
      </trkpt>
      <trkpt lat="45.80929" lon="1.21721">
        <ele>310.2</ele>
        <time>2024-09-25T14:27:01Z</time>
      </trkpt>
      <trkpt lat="45.80932" lon="1.21725">
        <ele>310.3</ele>
        <time>2024-09-25T14:27:03Z</time>
      </trkpt>
      <trkpt lat="45.80937" lon="1.21726">
        <ele>310.4</ele>
        <time>2024-09-25T14:27:05Z</time>
      </trkpt>
      <trkpt lat="45.8094" lon="1.21725">
        <ele>310.5</ele>
        <time>2024-09-25T14:27:06Z</time>
      </trkpt>
      <trkpt lat="45.80944" lon="1.21723">
        <ele>310.3</ele>
        <time>2024-09-25T14:27:08Z</time>
      </trkpt>
      <trkpt lat="45.80947" lon="1.21724">
        <ele>310.3</ele>
        <time>2024-09-25T14:27:10Z</time>
      </trkpt>
      <trkpt lat="45.80949" lon="1.21728">
        <ele>310.2</ele>
        <time>2024-09-25T14:27:12Z</time>
      </trkpt>
      <trkpt lat="45.80947" lon="1.21732">
        <ele>310.1</ele>
        <time>2024-09-25T14:27:14Z</time>
      </trkpt>
      <trkpt lat="45.80944" lon="1.21734">
        <ele>310</ele>
        <time>2024-09-25T14:27:16Z</time>
      </trkpt>
      <trkpt lat="45.80939" lon="1.21736">
        <ele>309.8</ele>
        <time>2024-09-25T14:27:18Z</time>
      </trkpt>
      <trkpt lat="45.80935" lon="1.21738">
        <ele>309.6</ele>
        <time>2024-09-25T14:27:19Z</time>
      </trkpt>
      <trkpt lat="45.80931" lon="1.21738">
        <ele>309.4</ele>
        <time>2024-09-25T14:27:20Z</time>
      </trkpt>
      <trkpt lat="45.80928" lon="1.21739">
        <ele>309.3</ele>
        <time>2024-09-25T14:27:21Z</time>
      </trkpt>
      <trkpt lat="45.80926" lon="1.21742">
        <ele>309.2</ele>
        <time>2024-09-25T14:27:23Z</time>
      </trkpt>
      <trkpt lat="45.80925" lon="1.21748">
        <ele>309</ele>
        <time>2024-09-25T14:27:25Z</time>
      </trkpt>
      <trkpt lat="45.80926" lon="1.21753">
        <ele>308.9</ele>
        <time>2024-09-25T14:27:26Z</time>
      </trkpt>
      <trkpt lat="45.80927" lon="1.21759">
        <ele>308.8</ele>
        <time>2024-09-25T14:27:27Z</time>
      </trkpt>
      <trkpt lat="45.80928" lon="1.21764">
        <ele>308.8</ele>
        <time>2024-09-25T14:27:28Z</time>
      </trkpt>
      <trkpt lat="45.8093" lon="1.21769">
        <ele>308.7</ele>
        <time>2024-09-25T14:27:29Z</time>
      </trkpt>
      <trkpt lat="45.80931" lon="1.21775">
        <ele>308.6</ele>
        <time>2024-09-25T14:27:30Z</time>
      </trkpt>
      <trkpt lat="45.80932" lon="1.21781">
        <ele>308.6</ele>
        <time>2024-09-25T14:27:31Z</time>
      </trkpt>
      <trkpt lat="45.80933" lon="1.21786">
        <ele>308.6</ele>
        <time>2024-09-25T14:27:32Z</time>
      </trkpt>
      <trkpt lat="45.80935" lon="1.21792">
        <ele>308.5</ele>
        <time>2024-09-25T14:27:33Z</time>
      </trkpt>
      <trkpt lat="45.80936" lon="1.21797">
        <ele>308.5</ele>
        <time>2024-09-25T14:27:34Z</time>
      </trkpt>
      <trkpt lat="45.80937" lon="1.21802">
        <ele>308.5</ele>
        <time>2024-09-25T14:27:35Z</time>
      </trkpt>
      <trkpt lat="45.80939" lon="1.21806">
        <ele>308.5</ele>
        <time>2024-09-25T14:27:36Z</time>
      </trkpt>
      <trkpt lat="45.8094" lon="1.2181">
        <ele>308.5</ele>
        <time>2024-09-25T14:27:37Z</time>
      </trkpt>
      <trkpt lat="45.80942" lon="1.21814">
        <ele>308.5</ele>
        <time>2024-09-25T14:27:38Z</time>
      </trkpt>
      <trkpt lat="45.80942" lon="1.21819">
        <ele>308.5</ele>
        <time>2024-09-25T14:27:39Z</time>
      </trkpt>
      <trkpt lat="45.80942" lon="1.21823">
        <ele>308.5</ele>
        <time>2024-09-25T14:27:40Z</time>
      </trkpt>
      <trkpt lat="45.80943" lon="1.21828">
        <ele>308.6</ele>
        <time>2024-09-25T14:27:41Z</time>
      </trkpt>
      <trkpt lat="45.80943" lon="1.21832">
        <ele>308.6</ele>
        <time>2024-09-25T14:27:42Z</time>
      </trkpt>
      <trkpt lat="45.80944" lon="1.21837">
        <ele>308.6</ele>
        <time>2024-09-25T14:27:43Z</time>
      </trkpt>
      <trkpt lat="45.80945" lon="1.21842">
        <ele>308.7</ele>
        <time>2024-09-25T14:27:44Z</time>
      </trkpt>
      <trkpt lat="45.80947" lon="1.21847">
        <ele>308.7</ele>
        <time>2024-09-25T14:27:45Z</time>
      </trkpt>
      <trkpt lat="45.80948" lon="1.21852">
        <ele>308.7</ele>
        <time>2024-09-25T14:27:46Z</time>
      </trkpt>
      <trkpt lat="45.80949" lon="1.21857">
        <ele>308.8</ele>
        <time>2024-09-25T14:27:47Z</time>
      </trkpt>
      <trkpt lat="45.8095" lon="1.21862">
        <ele>308.8</ele>
        <time>2024-09-25T14:27:48Z</time>
      </trkpt>
      <trkpt lat="45.80951" lon="1.21867">
        <ele>308.8</ele>
        <time>2024-09-25T14:27:49Z</time>
      </trkpt>
      <trkpt lat="45.80951" lon="1.21872">
        <ele>308.8</ele>
        <time>2024-09-25T14:27:50Z</time>
      </trkpt>
      <trkpt lat="45.80952" lon="1.21876">
        <ele>308.9</ele>
        <time>2024-09-25T14:27:51Z</time>
      </trkpt>
      <trkpt lat="45.80953" lon="1.21881">
        <ele>308.9</ele>
        <time>2024-09-25T14:27:52Z</time>
      </trkpt>
      <trkpt lat="45.80955" lon="1.21886">
        <ele>309</ele>
        <time>2024-09-25T14:27:53Z</time>
      </trkpt>
      <trkpt lat="45.80956" lon="1.21891">
        <ele>309</ele>
        <time>2024-09-25T14:27:54Z</time>
      </trkpt>
      <trkpt lat="45.80957" lon="1.21896">
        <ele>309</ele>
        <time>2024-09-25T14:27:55Z</time>
      </trkpt>
      <trkpt lat="45.80958" lon="1.219">
        <ele>309.1</ele>
        <time>2024-09-25T14:27:56Z</time>
      </trkpt>
      <trkpt lat="45.8096" lon="1.21904">
        <ele>309.1</ele>
        <time>2024-09-25T14:27:57Z</time>
      </trkpt>
      <trkpt lat="45.80961" lon="1.21908">
        <ele>309.1</ele>
        <time>2024-09-25T14:27:58Z</time>
      </trkpt>
      <trkpt lat="45.80963" lon="1.21913">
        <ele>309.2</ele>
        <time>2024-09-25T14:27:59Z</time>
      </trkpt>
      <trkpt lat="45.80965" lon="1.21918">
        <ele>309.2</ele>
        <time>2024-09-25T14:28:00Z</time>
      </trkpt>
      <trkpt lat="45.80966" lon="1.21921">
        <ele>309.2</ele>
        <time>2024-09-25T14:28:01Z</time>
      </trkpt>
      <trkpt lat="45.80968" lon="1.21925">
        <ele>309.2</ele>
        <time>2024-09-25T14:28:02Z</time>
      </trkpt>
      <trkpt lat="45.80969" lon="1.21929">
        <ele>309.3</ele>
        <time>2024-09-25T14:28:03Z</time>
      </trkpt>
      <trkpt lat="45.80971" lon="1.21934">
        <ele>309.3</ele>
        <time>2024-09-25T14:28:04Z</time>
      </trkpt>
      <trkpt lat="45.80972" lon="1.21938">
        <ele>309.3</ele>
        <time>2024-09-25T14:28:05Z</time>
      </trkpt>
      <trkpt lat="45.80975" lon="1.21941">
        <ele>309.3</ele>
        <time>2024-09-25T14:28:06Z</time>
      </trkpt>
      <trkpt lat="45.80977" lon="1.21944">
        <ele>309.4</ele>
        <time>2024-09-25T14:28:07Z</time>
      </trkpt>
      <trkpt lat="45.8098" lon="1.21947">
        <ele>309.4</ele>
        <time>2024-09-25T14:28:09Z</time>
      </trkpt>
      <trkpt lat="45.80983" lon="1.21951">
        <ele>309.4</ele>
        <time>2024-09-25T14:28:11Z</time>
      </trkpt>
      <trkpt lat="45.80985" lon="1.21954">
        <ele>309.4</ele>
        <time>2024-09-25T14:28:12Z</time>
      </trkpt>
      <trkpt lat="45.80987" lon="1.21958">
        <ele>309.5</ele>
        <time>2024-09-25T14:28:13Z</time>
      </trkpt>
      <trkpt lat="45.80988" lon="1.21963">
        <ele>309.5</ele>
        <time>2024-09-25T14:28:14Z</time>
      </trkpt>
      <trkpt lat="45.8099" lon="1.21967">
        <ele>309.5</ele>
        <time>2024-09-25T14:28:15Z</time>
      </trkpt>
      <trkpt lat="45.80992" lon="1.21971">
        <ele>309.5</ele>
        <time>2024-09-25T14:28:16Z</time>
      </trkpt>
      <trkpt lat="45.80994" lon="1.21974">
        <ele>309.5</ele>
        <time>2024-09-25T14:28:18Z</time>
      </trkpt>
      <trkpt lat="45.80996" lon="1.21978">
        <ele>309.5</ele>
        <time>2024-09-25T14:28:36Z</time>
      </trkpt>
      <trkpt lat="45.80998" lon="1.21983">
        <ele>309.5</ele>
        <time>2024-09-25T14:28:38Z</time>
      </trkpt>
      <trkpt lat="45.81" lon="1.21988">
        <ele>309.5</ele>
        <time>2024-09-25T14:28:40Z</time>
      </trkpt>
      <trkpt lat="45.81002" lon="1.21993">
        <ele>309.5</ele>
        <time>2024-09-25T14:28:42Z</time>
      </trkpt>
      <trkpt lat="45.81003" lon="1.22">
        <ele>309.4</ele>
        <time>2024-09-25T14:28:44Z</time>
      </trkpt>
      <trkpt lat="45.81004" lon="1.22006">
        <ele>309.4</ele>
        <time>2024-09-25T14:28:45Z</time>
      </trkpt>
      <trkpt lat="45.81006" lon="1.22012">
        <ele>309.4</ele>
        <time>2024-09-25T14:28:46Z</time>
      </trkpt>
      <trkpt lat="45.81008" lon="1.22018">
        <ele>309.3</ele>
        <time>2024-09-25T14:28:47Z</time>
      </trkpt>
      <trkpt lat="45.8101" lon="1.22024">
        <ele>309.3</ele>
        <time>2024-09-25T14:28:48Z</time>
      </trkpt>
      <trkpt lat="45.81013" lon="1.2203">
        <ele>309.2</ele>
        <time>2024-09-25T14:28:49Z</time>
      </trkpt>
      <trkpt lat="45.81016" lon="1.22036">
        <ele>309.1</ele>
        <time>2024-09-25T14:28:50Z</time>
      </trkpt>
      <trkpt lat="45.81019" lon="1.22043">
        <ele>309</ele>
        <time>2024-09-25T14:28:51Z</time>
      </trkpt>
      <trkpt lat="45.81022" lon="1.2205">
        <ele>309</ele>
        <time>2024-09-25T14:28:52Z</time>
      </trkpt>
      <trkpt lat="45.81025" lon="1.22056">
        <ele>308.9</ele>
        <time>2024-09-25T14:28:53Z</time>
      </trkpt>
      <trkpt lat="45.81027" lon="1.22063">
        <ele>308.8</ele>
        <time>2024-09-25T14:28:54Z</time>
      </trkpt>
      <trkpt lat="45.8103" lon="1.22069">
        <ele>308.8</ele>
        <time>2024-09-25T14:28:55Z</time>
      </trkpt>
      <trkpt lat="45.81033" lon="1.22076">
        <ele>308.7</ele>
        <time>2024-09-25T14:28:56Z</time>
      </trkpt>
      <trkpt lat="45.81035" lon="1.22083">
        <ele>308.7</ele>
        <time>2024-09-25T14:28:57Z</time>
      </trkpt>
      <trkpt lat="45.81038" lon="1.2209">
        <ele>308.6</ele>
        <time>2024-09-25T14:28:58Z</time>
      </trkpt>
      <trkpt lat="45.81041" lon="1.22096">
        <ele>308.5</ele>
        <time>2024-09-25T14:28:59Z</time>
      </trkpt>
      <trkpt lat="45.81044" lon="1.22103">
        <ele>308.5</ele>
        <time>2024-09-25T14:29:00Z</time>
      </trkpt>
      <trkpt lat="45.81047" lon="1.2211">
        <ele>308.4</ele>
        <time>2024-09-25T14:29:01Z</time>
      </trkpt>
      <trkpt lat="45.8105" lon="1.22116">
        <ele>308.4</ele>
        <time>2024-09-25T14:29:02Z</time>
      </trkpt>
      <trkpt lat="45.81052" lon="1.22123">
        <ele>308.3</ele>
        <time>2024-09-25T14:29:03Z</time>
      </trkpt>
      <trkpt lat="45.81055" lon="1.2213">
        <ele>308.3</ele>
        <time>2024-09-25T14:29:04Z</time>
      </trkpt>
      <trkpt lat="45.81058" lon="1.22136">
        <ele>308.2</ele>
        <time>2024-09-25T14:29:05Z</time>
      </trkpt>
      <trkpt lat="45.81061" lon="1.22143">
        <ele>308.2</ele>
        <time>2024-09-25T14:29:06Z</time>
      </trkpt>
      <trkpt lat="45.81064" lon="1.22149">
        <ele>308.1</ele>
        <time>2024-09-25T14:29:07Z</time>
      </trkpt>
      <trkpt lat="45.81066" lon="1.22155">
        <ele>308.1</ele>
        <time>2024-09-25T14:29:08Z</time>
      </trkpt>
      <trkpt lat="45.81069" lon="1.22161">
        <ele>308</ele>
        <time>2024-09-25T14:29:09Z</time>
      </trkpt>
      <trkpt lat="45.81071" lon="1.22167">
        <ele>308</ele>
        <time>2024-09-25T14:29:10Z</time>
      </trkpt>
      <trkpt lat="45.81074" lon="1.22173">
        <ele>308</ele>
        <time>2024-09-25T14:29:11Z</time>
      </trkpt>
      <trkpt lat="45.81077" lon="1.2218">
        <ele>307.9</ele>
        <time>2024-09-25T14:29:12Z</time>
      </trkpt>
      <trkpt lat="45.8108" lon="1.22186">
        <ele>307.9</ele>
        <time>2024-09-25T14:29:13Z</time>
      </trkpt>
      <trkpt lat="45.81082" lon="1.22192">
        <ele>307.8</ele>
        <time>2024-09-25T14:29:14Z</time>
      </trkpt>
      <trkpt lat="45.81084" lon="1.22198">
        <ele>307.8</ele>
        <time>2024-09-25T14:29:15Z</time>
      </trkpt>
      <trkpt lat="45.81086" lon="1.22205">
        <ele>307.8</ele>
        <time>2024-09-25T14:29:16Z</time>
      </trkpt>
      <trkpt lat="45.81086" lon="1.22212">
        <ele>307.6</ele>
        <time>2024-09-25T14:29:17Z</time>
      </trkpt>
      <trkpt lat="45.81087" lon="1.22219">
        <ele>307.6</ele>
        <time>2024-09-25T14:29:18Z</time>
      </trkpt>
      <trkpt lat="45.81088" lon="1.22225">
        <ele>307.6</ele>
        <time>2024-09-25T14:29:19Z</time>
      </trkpt>
      <trkpt lat="45.8109" lon="1.22232">
        <ele>307.7</ele>
        <time>2024-09-25T14:29:20Z</time>
      </trkpt>
      <trkpt lat="45.81092" lon="1.22238">
        <ele>307.7</ele>
        <time>2024-09-25T14:29:21Z</time>
      </trkpt>
      <trkpt lat="45.81095" lon="1.22245">
        <ele>307.7</ele>
        <time>2024-09-25T14:29:22Z</time>
      </trkpt>
      <trkpt lat="45.81097" lon="1.22251">
        <ele>307.7</ele>
        <time>2024-09-25T14:29:23Z</time>
      </trkpt>
      <trkpt lat="45.811" lon="1.22258">
        <ele>307.7</ele>
        <time>2024-09-25T14:29:24Z</time>
      </trkpt>
      <trkpt lat="45.81103" lon="1.22264">
        <ele>307.8</ele>
        <time>2024-09-25T14:29:25Z</time>
      </trkpt>
      <trkpt lat="45.81106" lon="1.2227">
        <ele>307.8</ele>
        <time>2024-09-25T14:29:26Z</time>
      </trkpt>
      <trkpt lat="45.81109" lon="1.22277">
        <ele>307.8</ele>
        <time>2024-09-25T14:29:27Z</time>
      </trkpt>
      <trkpt lat="45.81111" lon="1.22283">
        <ele>307.9</ele>
        <time>2024-09-25T14:29:28Z</time>
      </trkpt>
      <trkpt lat="45.81114" lon="1.22289">
        <ele>307.9</ele>
        <time>2024-09-25T14:29:29Z</time>
      </trkpt>
      <trkpt lat="45.81117" lon="1.22295">
        <ele>308</ele>
        <time>2024-09-25T14:29:30Z</time>
      </trkpt>
      <trkpt lat="45.8112" lon="1.22302">
        <ele>308</ele>
        <time>2024-09-25T14:29:31Z</time>
      </trkpt>
      <trkpt lat="45.81123" lon="1.22308">
        <ele>308.1</ele>
        <time>2024-09-25T14:29:32Z</time>
      </trkpt>
      <trkpt lat="45.81126" lon="1.22315">
        <ele>308.2</ele>
        <time>2024-09-25T14:29:33Z</time>
      </trkpt>
      <trkpt lat="45.81128" lon="1.22321">
        <ele>308.2</ele>
        <time>2024-09-25T14:29:34Z</time>
      </trkpt>
      <trkpt lat="45.81131" lon="1.22327">
        <ele>308.3</ele>
        <time>2024-09-25T14:29:35Z</time>
      </trkpt>
      <trkpt lat="45.81134" lon="1.22334">
        <ele>308.3</ele>
        <time>2024-09-25T14:29:36Z</time>
      </trkpt>
      <trkpt lat="45.81136" lon="1.22341">
        <ele>308.4</ele>
        <time>2024-09-25T14:29:37Z</time>
      </trkpt>
      <trkpt lat="45.81139" lon="1.22347">
        <ele>308.4</ele>
        <time>2024-09-25T14:29:38Z</time>
      </trkpt>
      <trkpt lat="45.81142" lon="1.22353">
        <ele>308.4</ele>
        <time>2024-09-25T14:29:39Z</time>
      </trkpt>
      <trkpt lat="45.81146" lon="1.2236">
        <ele>308.5</ele>
        <time>2024-09-25T14:29:40Z</time>
      </trkpt>
      <trkpt lat="45.81149" lon="1.22366">
        <ele>308.6</ele>
        <time>2024-09-25T14:29:41Z</time>
      </trkpt>
      <trkpt lat="45.81151" lon="1.22373">
        <ele>308.6</ele>
        <time>2024-09-25T14:29:42Z</time>
      </trkpt>
      <trkpt lat="45.81154" lon="1.22379">
        <ele>308.7</ele>
        <time>2024-09-25T14:29:43Z</time>
      </trkpt>
      <trkpt lat="45.81157" lon="1.22385">
        <ele>308.8</ele>
        <time>2024-09-25T14:29:44Z</time>
      </trkpt>
      <trkpt lat="45.81159" lon="1.22391">
        <ele>308.9</ele>
        <time>2024-09-25T14:29:45Z</time>
      </trkpt>
      <trkpt lat="45.81162" lon="1.22397">
        <ele>309</ele>
        <time>2024-09-25T14:29:46Z</time>
      </trkpt>
      <trkpt lat="45.81164" lon="1.22403">
        <ele>309.1</ele>
        <time>2024-09-25T14:29:47Z</time>
      </trkpt>
      <trkpt lat="45.81167" lon="1.22409">
        <ele>309.2</ele>
        <time>2024-09-25T14:29:48Z</time>
      </trkpt>
      <trkpt lat="45.81169" lon="1.22415">
        <ele>309.3</ele>
        <time>2024-09-25T14:29:49Z</time>
      </trkpt>
      <trkpt lat="45.81172" lon="1.2242">
        <ele>309.5</ele>
        <time>2024-09-25T14:29:50Z</time>
      </trkpt>
      <trkpt lat="45.81174" lon="1.22426">
        <ele>309.6</ele>
        <time>2024-09-25T14:29:51Z</time>
      </trkpt>
      <trkpt lat="45.81177" lon="1.22431">
        <ele>309.7</ele>
        <time>2024-09-25T14:29:52Z</time>
      </trkpt>
      <trkpt lat="45.81179" lon="1.22437">
        <ele>309.8</ele>
        <time>2024-09-25T14:29:53Z</time>
      </trkpt>
      <trkpt lat="45.81182" lon="1.22443">
        <ele>309.9</ele>
        <time>2024-09-25T14:29:54Z</time>
      </trkpt>
      <trkpt lat="45.81184" lon="1.22448">
        <ele>310</ele>
        <time>2024-09-25T14:29:55Z</time>
      </trkpt>
      <trkpt lat="45.81187" lon="1.22454">
        <ele>310.1</ele>
        <time>2024-09-25T14:29:56Z</time>
      </trkpt>
      <trkpt lat="45.81189" lon="1.22459">
        <ele>310.2</ele>
        <time>2024-09-25T14:29:57Z</time>
      </trkpt>
      <trkpt lat="45.81191" lon="1.22465">
        <ele>310.3</ele>
        <time>2024-09-25T14:29:58Z</time>
      </trkpt>
      <trkpt lat="45.81194" lon="1.2247">
        <ele>310.4</ele>
        <time>2024-09-25T14:29:59Z</time>
      </trkpt>
      <trkpt lat="45.81196" lon="1.22476">
        <ele>310.5</ele>
        <time>2024-09-25T14:30:00Z</time>
      </trkpt>
      <trkpt lat="45.81198" lon="1.22481">
        <ele>310.6</ele>
        <time>2024-09-25T14:30:01Z</time>
      </trkpt>
      <trkpt lat="45.812" lon="1.22486">
        <ele>310.7</ele>
        <time>2024-09-25T14:30:02Z</time>
      </trkpt>
      <trkpt lat="45.81202" lon="1.22492">
        <ele>310.8</ele>
        <time>2024-09-25T14:30:03Z</time>
      </trkpt>
      <trkpt lat="45.81205" lon="1.22497">
        <ele>310.9</ele>
        <time>2024-09-25T14:30:04Z</time>
      </trkpt>
      <trkpt lat="45.81207" lon="1.22503">
        <ele>311</ele>
        <time>2024-09-25T14:30:05Z</time>
      </trkpt>
      <trkpt lat="45.8121" lon="1.22509">
        <ele>311.1</ele>
        <time>2024-09-25T14:30:06Z</time>
      </trkpt>
      <trkpt lat="45.81212" lon="1.22514">
        <ele>311.2</ele>
        <time>2024-09-25T14:30:07Z</time>
      </trkpt>
      <trkpt lat="45.81214" lon="1.22519">
        <ele>311.3</ele>
        <time>2024-09-25T14:30:08Z</time>
      </trkpt>
      <trkpt lat="45.81217" lon="1.22524">
        <ele>311.4</ele>
        <time>2024-09-25T14:30:09Z</time>
      </trkpt>
      <trkpt lat="45.81219" lon="1.22529">
        <ele>311.5</ele>
        <time>2024-09-25T14:30:10Z</time>
      </trkpt>
      <trkpt lat="45.81221" lon="1.22534">
        <ele>311.6</ele>
        <time>2024-09-25T14:30:11Z</time>
      </trkpt>
      <trkpt lat="45.81224" lon="1.22539">
        <ele>311.7</ele>
        <time>2024-09-25T14:30:12Z</time>
      </trkpt>
      <trkpt lat="45.81226" lon="1.22545">
        <ele>311.7</ele>
        <time>2024-09-25T14:30:13Z</time>
      </trkpt>
      <trkpt lat="45.81228" lon="1.2255">
        <ele>311.8</ele>
        <time>2024-09-25T14:30:14Z</time>
      </trkpt>
      <trkpt lat="45.8123" lon="1.22555">
        <ele>311.8</ele>
        <time>2024-09-25T14:30:15Z</time>
      </trkpt>
      <trkpt lat="45.81232" lon="1.22561">
        <ele>311.8</ele>
        <time>2024-09-25T14:30:16Z</time>
      </trkpt>
      <trkpt lat="45.81234" lon="1.22566">
        <ele>311.8</ele>
        <time>2024-09-25T14:30:17Z</time>
      </trkpt>
      <trkpt lat="45.81236" lon="1.22571">
        <ele>311.9</ele>
        <time>2024-09-25T14:30:18Z</time>
      </trkpt>
      <trkpt lat="45.81238" lon="1.22576">
        <ele>311.9</ele>
        <time>2024-09-25T14:30:19Z</time>
      </trkpt>
      <trkpt lat="45.8124" lon="1.22581">
        <ele>311.9</ele>
        <time>2024-09-25T14:30:20Z</time>
      </trkpt>
      <trkpt lat="45.81243" lon="1.22587">
        <ele>311.8</ele>
        <time>2024-09-25T14:30:21Z</time>
      </trkpt>
      <trkpt lat="45.81246" lon="1.22592">
        <ele>311.8</ele>
        <time>2024-09-25T14:30:22Z</time>
      </trkpt>
      <trkpt lat="45.81249" lon="1.22598">
        <ele>311.7</ele>
        <time>2024-09-25T14:30:23Z</time>
      </trkpt>
      <trkpt lat="45.81252" lon="1.22605">
        <ele>311.6</ele>
        <time>2024-09-25T14:30:24Z</time>
      </trkpt>
      <trkpt lat="45.81255" lon="1.22611">
        <ele>311.5</ele>
        <time>2024-09-25T14:30:25Z</time>
      </trkpt>
      <trkpt lat="45.81257" lon="1.22617">
        <ele>311.4</ele>
        <time>2024-09-25T14:30:26Z</time>
      </trkpt>
      <trkpt lat="45.81259" lon="1.22623">
        <ele>311.2</ele>
        <time>2024-09-25T14:30:27Z</time>
      </trkpt>
      <trkpt lat="45.81262" lon="1.2263">
        <ele>311</ele>
        <time>2024-09-25T14:30:28Z</time>
      </trkpt>
      <trkpt lat="45.81265" lon="1.22637">
        <ele>310.8</ele>
        <time>2024-09-25T14:30:29Z</time>
      </trkpt>
      <trkpt lat="45.81267" lon="1.22644">
        <ele>310.6</ele>
        <time>2024-09-25T14:30:30Z</time>
      </trkpt>
      <trkpt lat="45.8127" lon="1.22651">
        <ele>310.4</ele>
        <time>2024-09-25T14:30:31Z</time>
      </trkpt>
      <trkpt lat="45.81273" lon="1.22658">
        <ele>310.2</ele>
        <time>2024-09-25T14:30:32Z</time>
      </trkpt>
      <trkpt lat="45.81276" lon="1.22665">
        <ele>310</ele>
        <time>2024-09-25T14:30:33Z</time>
      </trkpt>
      <trkpt lat="45.81279" lon="1.22673">
        <ele>309.7</ele>
        <time>2024-09-25T14:30:34Z</time>
      </trkpt>
      <trkpt lat="45.81283" lon="1.2268">
        <ele>309.4</ele>
        <time>2024-09-25T14:30:35Z</time>
      </trkpt>
      <trkpt lat="45.81286" lon="1.22689">
        <ele>309.1</ele>
        <time>2024-09-25T14:30:36Z</time>
      </trkpt>
      <trkpt lat="45.81289" lon="1.22697">
        <ele>308.9</ele>
        <time>2024-09-25T14:30:37Z</time>
      </trkpt>
      <trkpt lat="45.81293" lon="1.22705">
        <ele>308.5</ele>
        <time>2024-09-25T14:30:38Z</time>
      </trkpt>
      <trkpt lat="45.81296" lon="1.22713">
        <ele>308.2</ele>
        <time>2024-09-25T14:30:39Z</time>
      </trkpt>
      <trkpt lat="45.81299" lon="1.2272">
        <ele>308</ele>
        <time>2024-09-25T14:30:40Z</time>
      </trkpt>
      <trkpt lat="45.81302" lon="1.22728">
        <ele>307.7</ele>
        <time>2024-09-25T14:30:41Z</time>
      </trkpt>
      <trkpt lat="45.81304" lon="1.22736">
        <ele>307.4</ele>
        <time>2024-09-25T14:30:42Z</time>
      </trkpt>
      <trkpt lat="45.81306" lon="1.22744">
        <ele>307.1</ele>
        <time>2024-09-25T14:30:43Z</time>
      </trkpt>
      <trkpt lat="45.81307" lon="1.22751">
        <ele>306.8</ele>
        <time>2024-09-25T14:30:44Z</time>
      </trkpt>
      <trkpt lat="45.81308" lon="1.22758">
        <ele>306.6</ele>
        <time>2024-09-25T14:30:45Z</time>
      </trkpt>
      <trkpt lat="45.8131" lon="1.22764">
        <ele>306.4</ele>
        <time>2024-09-25T14:30:46Z</time>
      </trkpt>
      <trkpt lat="45.8131" lon="1.22771">
        <ele>306.1</ele>
        <time>2024-09-25T14:30:47Z</time>
      </trkpt>
      <trkpt lat="45.81311" lon="1.22779">
        <ele>305.9</ele>
        <time>2024-09-25T14:30:48Z</time>
      </trkpt>
      <trkpt lat="45.81311" lon="1.22786">
        <ele>305.8</ele>
        <time>2024-09-25T14:30:49Z</time>
      </trkpt>
      <trkpt lat="45.81311" lon="1.22792">
        <ele>305.6</ele>
        <time>2024-09-25T14:30:50Z</time>
      </trkpt>
      <trkpt lat="45.8131" lon="1.22799">
        <ele>305.3</ele>
        <time>2024-09-25T14:30:51Z</time>
      </trkpt>
      <trkpt lat="45.8131" lon="1.22805">
        <ele>305.1</ele>
        <time>2024-09-25T14:30:52Z</time>
      </trkpt>
      <trkpt lat="45.8131" lon="1.22811">
        <ele>305</ele>
        <time>2024-09-25T14:30:53Z</time>
      </trkpt>
      <trkpt lat="45.81312" lon="1.22817">
        <ele>304.7</ele>
        <time>2024-09-25T14:30:54Z</time>
      </trkpt>
      <trkpt lat="45.81314" lon="1.22822">
        <ele>304.4</ele>
        <time>2024-09-25T14:30:55Z</time>
      </trkpt>
      <trkpt lat="45.81317" lon="1.22827">
        <ele>304.2</ele>
        <time>2024-09-25T14:30:56Z</time>
      </trkpt>
      <trkpt lat="45.81319" lon="1.22834">
        <ele>303.8</ele>
        <time>2024-09-25T14:30:57Z</time>
      </trkpt>
      <trkpt lat="45.81321" lon="1.22841">
        <ele>303.6</ele>
        <time>2024-09-25T14:30:58Z</time>
      </trkpt>
      <trkpt lat="45.81322" lon="1.22846">
        <ele>303.4</ele>
        <time>2024-09-25T14:30:59Z</time>
      </trkpt>
      <trkpt lat="45.81323" lon="1.22852">
        <ele>303.2</ele>
        <time>2024-09-25T14:31:01Z</time>
      </trkpt>
      <trkpt lat="45.81324" lon="1.22857">
        <ele>303</ele>
        <time>2024-09-25T14:31:03Z</time>
      </trkpt>
      <trkpt lat="45.81327" lon="1.22861">
        <ele>302.9</ele>
        <time>2024-09-25T14:31:04Z</time>
      </trkpt>
      <trkpt lat="45.8133" lon="1.22864">
        <ele>302.8</ele>
        <time>2024-09-25T14:31:05Z</time>
      </trkpt>
      <trkpt lat="45.81334" lon="1.22866">
        <ele>302.8</ele>
        <time>2024-09-25T14:31:06Z</time>
      </trkpt>
      <trkpt lat="45.81338" lon="1.22865">
        <ele>302.8</ele>
        <time>2024-09-25T14:31:07Z</time>
      </trkpt>
      <trkpt lat="45.81342" lon="1.22864">
        <ele>302.9</ele>
        <time>2024-09-25T14:31:08Z</time>
      </trkpt>
      <trkpt lat="45.81346" lon="1.22862">
        <ele>303</ele>
        <time>2024-09-25T14:31:09Z</time>
      </trkpt>
      <trkpt lat="45.8135" lon="1.22862">
        <ele>303</ele>
        <time>2024-09-25T14:31:10Z</time>
      </trkpt>
      <trkpt lat="45.81354" lon="1.22863">
        <ele>303.1</ele>
        <time>2024-09-25T14:31:11Z</time>
      </trkpt>
      <trkpt lat="45.81357" lon="1.22864">
        <ele>303.1</ele>
        <time>2024-09-25T14:31:12Z</time>
      </trkpt>
      <trkpt lat="45.81361" lon="1.22865">
        <ele>303.2</ele>
        <time>2024-09-25T14:31:14Z</time>
      </trkpt>
      <trkpt lat="45.81365" lon="1.22863">
        <ele>303.2</ele>
        <time>2024-09-25T14:31:17Z</time>
      </trkpt>
      <trkpt lat="45.81369" lon="1.2286">
        <ele>303.3</ele>
        <time>2024-09-25T14:31:19Z</time>
      </trkpt>
      <trkpt lat="45.81373" lon="1.22857">
        <ele>303.3</ele>
        <time>2024-09-25T14:31:21Z</time>
      </trkpt>
      <trkpt lat="45.81376" lon="1.22855">
        <ele>303.3</ele>
        <time>2024-09-25T14:31:22Z</time>
      </trkpt>
      <trkpt lat="45.81379" lon="1.22853">
        <ele>303.3</ele>
        <time>2024-09-25T14:31:23Z</time>
      </trkpt>
      <trkpt lat="45.81381" lon="1.2285">
        <ele>303.3</ele>
        <time>2024-09-25T14:31:24Z</time>
      </trkpt>
      <trkpt lat="45.81383" lon="1.22846">
        <ele>303.5</ele>
        <time>2024-09-25T14:31:25Z</time>
      </trkpt>
      <trkpt lat="45.81385" lon="1.22841">
        <ele>303.6</ele>
        <time>2024-09-25T14:31:26Z</time>
      </trkpt>
      <trkpt lat="45.81387" lon="1.22836">
        <ele>303.7</ele>
        <time>2024-09-25T14:31:27Z</time>
      </trkpt>
      <trkpt lat="45.81389" lon="1.22831">
        <ele>303.9</ele>
        <time>2024-09-25T14:31:28Z</time>
      </trkpt>
      <trkpt lat="45.81391" lon="1.22827">
        <ele>304</ele>
        <time>2024-09-25T14:31:29Z</time>
      </trkpt>
      <trkpt lat="45.81391" lon="1.2282">
        <ele>304.3</ele>
        <time>2024-09-25T14:31:31Z</time>
      </trkpt>
      <trkpt lat="45.81392" lon="1.22815">
        <ele>304.4</ele>
        <time>2024-09-25T14:31:32Z</time>
      </trkpt>
      <trkpt lat="45.81392" lon="1.22809">
        <ele>304.6</ele>
        <time>2024-09-25T14:31:33Z</time>
      </trkpt>
      <trkpt lat="45.81391" lon="1.22803">
        <ele>304.7</ele>
        <time>2024-09-25T14:31:34Z</time>
      </trkpt>
      <trkpt lat="45.8139" lon="1.22798">
        <ele>304.8</ele>
        <time>2024-09-25T14:31:35Z</time>
      </trkpt>
      <trkpt lat="45.81389" lon="1.22793">
        <ele>304.9</ele>
        <time>2024-09-25T14:31:36Z</time>
      </trkpt>
      <trkpt lat="45.81389" lon="1.22787">
        <ele>305.3</ele>
        <time>2024-09-25T14:31:37Z</time>
      </trkpt>
      <trkpt lat="45.81389" lon="1.22782">
        <ele>305.3</ele>
        <time>2024-09-25T14:31:38Z</time>
      </trkpt>
      <trkpt lat="45.8139" lon="1.22777">
        <ele>305.4</ele>
        <time>2024-09-25T14:31:39Z</time>
      </trkpt>
      <trkpt lat="45.8139" lon="1.22772">
        <ele>305.4</ele>
        <time>2024-09-25T14:31:40Z</time>
      </trkpt>
      <trkpt lat="45.81391" lon="1.22767">
        <ele>305.5</ele>
        <time>2024-09-25T14:31:41Z</time>
      </trkpt>
      <trkpt lat="45.81393" lon="1.22761">
        <ele>305.5</ele>
        <time>2024-09-25T14:31:42Z</time>
      </trkpt>
      <trkpt lat="45.81394" lon="1.22756">
        <ele>305.6</ele>
        <time>2024-09-25T14:31:43Z</time>
      </trkpt>
      <trkpt lat="45.81396" lon="1.2275">
        <ele>305.7</ele>
        <time>2024-09-25T14:31:44Z</time>
      </trkpt>
      <trkpt lat="45.81397" lon="1.22745">
        <ele>305.7</ele>
        <time>2024-09-25T14:31:45Z</time>
      </trkpt>
      <trkpt lat="45.81399" lon="1.22739">
        <ele>305.8</ele>
        <time>2024-09-25T14:31:46Z</time>
      </trkpt>
      <trkpt lat="45.814" lon="1.22734">
        <ele>305.9</ele>
        <time>2024-09-25T14:31:47Z</time>
      </trkpt>
      <trkpt lat="45.81402" lon="1.22728">
        <ele>306</ele>
        <time>2024-09-25T14:31:48Z</time>
      </trkpt>
      <trkpt lat="45.81403" lon="1.22723">
        <ele>306.1</ele>
        <time>2024-09-25T14:31:49Z</time>
      </trkpt>
      <trkpt lat="45.81405" lon="1.22718">
        <ele>306.2</ele>
        <time>2024-09-25T14:31:50Z</time>
      </trkpt>
      <trkpt lat="45.81406" lon="1.22712">
        <ele>306.3</ele>
        <time>2024-09-25T14:31:51Z</time>
      </trkpt>
      <trkpt lat="45.81408" lon="1.22707">
        <ele>306.4</ele>
        <time>2024-09-25T14:31:52Z</time>
      </trkpt>
      <trkpt lat="45.81409" lon="1.22702">
        <ele>306.5</ele>
        <time>2024-09-25T14:31:53Z</time>
      </trkpt>
      <trkpt lat="45.81411" lon="1.22696">
        <ele>306.7</ele>
        <time>2024-09-25T14:31:54Z</time>
      </trkpt>
      <trkpt lat="45.81412" lon="1.22691">
        <ele>306.8</ele>
        <time>2024-09-25T14:31:55Z</time>
      </trkpt>
      <trkpt lat="45.81413" lon="1.22685">
        <ele>306.9</ele>
        <time>2024-09-25T14:31:56Z</time>
      </trkpt>
      <trkpt lat="45.81414" lon="1.2268">
        <ele>307.1</ele>
        <time>2024-09-25T14:31:57Z</time>
      </trkpt>
      <trkpt lat="45.81416" lon="1.22675">
        <ele>307.2</ele>
        <time>2024-09-25T14:31:58Z</time>
      </trkpt>
      <trkpt lat="45.81417" lon="1.22669">
        <ele>307.4</ele>
        <time>2024-09-25T14:31:59Z</time>
      </trkpt>
      <trkpt lat="45.81419" lon="1.22664">
        <ele>307.5</ele>
        <time>2024-09-25T14:32:00Z</time>
      </trkpt>
      <trkpt lat="45.8142" lon="1.22658">
        <ele>307.7</ele>
        <time>2024-09-25T14:32:01Z</time>
      </trkpt>
      <trkpt lat="45.81421" lon="1.22652">
        <ele>307.9</ele>
        <time>2024-09-25T14:32:02Z</time>
      </trkpt>
      <trkpt lat="45.81423" lon="1.22647">
        <ele>308</ele>
        <time>2024-09-25T14:32:03Z</time>
      </trkpt>
      <trkpt lat="45.81424" lon="1.22641">
        <ele>308.1</ele>
        <time>2024-09-25T14:32:04Z</time>
      </trkpt>
      <trkpt lat="45.81426" lon="1.22636">
        <ele>308.3</ele>
        <time>2024-09-25T14:32:05Z</time>
      </trkpt>
      <trkpt lat="45.81427" lon="1.2263">
        <ele>308.4</ele>
        <time>2024-09-25T14:32:06Z</time>
      </trkpt>
      <trkpt lat="45.81428" lon="1.22625">
        <ele>308.4</ele>
        <time>2024-09-25T14:32:07Z</time>
      </trkpt>
      <trkpt lat="45.81429" lon="1.2262">
        <ele>308.4</ele>
        <time>2024-09-25T14:32:08Z</time>
      </trkpt>
      <trkpt lat="45.8143" lon="1.22615">
        <ele>308.4</ele>
        <time>2024-09-25T14:32:09Z</time>
      </trkpt>
      <trkpt lat="45.81431" lon="1.2261">
        <ele>308.4</ele>
        <time>2024-09-25T14:32:10Z</time>
      </trkpt>
      <trkpt lat="45.81431" lon="1.22605">
        <ele>308.4</ele>
        <time>2024-09-25T14:32:11Z</time>
      </trkpt>
      <trkpt lat="45.81432" lon="1.22599">
        <ele>308.4</ele>
        <time>2024-09-25T14:32:12Z</time>
      </trkpt>
      <trkpt lat="45.81433" lon="1.22594">
        <ele>308.4</ele>
        <time>2024-09-25T14:32:13Z</time>
      </trkpt>
      <trkpt lat="45.81435" lon="1.22588">
        <ele>308.4</ele>
        <time>2024-09-25T14:32:14Z</time>
      </trkpt>
      <trkpt lat="45.81436" lon="1.22582">
        <ele>308.3</ele>
        <time>2024-09-25T14:32:15Z</time>
      </trkpt>
      <trkpt lat="45.81438" lon="1.22576">
        <ele>308.3</ele>
        <time>2024-09-25T14:32:16Z</time>
      </trkpt>
      <trkpt lat="45.81441" lon="1.2257">
        <ele>308.2</ele>
        <time>2024-09-25T14:32:17Z</time>
      </trkpt>
      <trkpt lat="45.81443" lon="1.22564">
        <ele>308.1</ele>
        <time>2024-09-25T14:32:18Z</time>
      </trkpt>
      <trkpt lat="45.81446" lon="1.22558">
        <ele>308</ele>
        <time>2024-09-25T14:32:19Z</time>
      </trkpt>
      <trkpt lat="45.81449" lon="1.22552">
        <ele>307.9</ele>
        <time>2024-09-25T14:32:20Z</time>
      </trkpt>
      <trkpt lat="45.81452" lon="1.22546">
        <ele>307.7</ele>
        <time>2024-09-25T14:32:21Z</time>
      </trkpt>
      <trkpt lat="45.81456" lon="1.2254">
        <ele>307.6</ele>
        <time>2024-09-25T14:32:22Z</time>
      </trkpt>
      <trkpt lat="45.81459" lon="1.22534">
        <ele>307.4</ele>
        <time>2024-09-25T14:32:23Z</time>
      </trkpt>
      <trkpt lat="45.81464" lon="1.22528">
        <ele>307.2</ele>
        <time>2024-09-25T14:32:24Z</time>
      </trkpt>
      <trkpt lat="45.81468" lon="1.22522">
        <ele>306.9</ele>
        <time>2024-09-25T14:32:25Z</time>
      </trkpt>
      <trkpt lat="45.81473" lon="1.22517">
        <ele>306.7</ele>
        <time>2024-09-25T14:32:26Z</time>
      </trkpt>
      <trkpt lat="45.81478" lon="1.22512">
        <ele>306.5</ele>
        <time>2024-09-25T14:32:27Z</time>
      </trkpt>
      <trkpt lat="45.81482" lon="1.22506">
        <ele>306.2</ele>
        <time>2024-09-25T14:32:28Z</time>
      </trkpt>
      <trkpt lat="45.81488" lon="1.225">
        <ele>305.9</ele>
        <time>2024-09-25T14:32:29Z</time>
      </trkpt>
      <trkpt lat="45.81493" lon="1.22494">
        <ele>305.6</ele>
        <time>2024-09-25T14:32:30Z</time>
      </trkpt>
      <trkpt lat="45.81498" lon="1.22489">
        <ele>305.3</ele>
        <time>2024-09-25T14:32:31Z</time>
      </trkpt>
      <trkpt lat="45.81504" lon="1.22483">
        <ele>304.9</ele>
        <time>2024-09-25T14:32:32Z</time>
      </trkpt>
      <trkpt lat="45.81509" lon="1.22476">
        <ele>304.6</ele>
        <time>2024-09-25T14:32:33Z</time>
      </trkpt>
      <trkpt lat="45.81515" lon="1.2247">
        <ele>304.3</ele>
        <time>2024-09-25T14:32:34Z</time>
      </trkpt>
      <trkpt lat="45.81521" lon="1.22464">
        <ele>304.1</ele>
        <time>2024-09-25T14:32:35Z</time>
      </trkpt>
      <trkpt lat="45.81526" lon="1.22459">
        <ele>303.9</ele>
        <time>2024-09-25T14:32:36Z</time>
      </trkpt>
      <trkpt lat="45.8153" lon="1.22454">
        <ele>303.8</ele>
        <time>2024-09-25T14:32:37Z</time>
      </trkpt>
      <trkpt lat="45.81535" lon="1.22451">
        <ele>303.7</ele>
        <time>2024-09-25T14:32:38Z</time>
      </trkpt>
      <trkpt lat="45.8154" lon="1.22449">
        <ele>303.7</ele>
        <time>2024-09-25T14:32:39Z</time>
      </trkpt>
      <trkpt lat="45.81545" lon="1.22449">
        <ele>303.6</ele>
        <time>2024-09-25T14:32:40Z</time>
      </trkpt>
      <trkpt lat="45.81551" lon="1.2245">
        <ele>303.5</ele>
        <time>2024-09-25T14:32:41Z</time>
      </trkpt>
      <trkpt lat="45.81557" lon="1.2245">
        <ele>303.3</ele>
        <time>2024-09-25T14:32:42Z</time>
      </trkpt>
      <trkpt lat="45.81562" lon="1.22449">
        <ele>303.2</ele>
        <time>2024-09-25T14:32:43Z</time>
      </trkpt>
      <trkpt lat="45.81567" lon="1.22447">
        <ele>303</ele>
        <time>2024-09-25T14:32:44Z</time>
      </trkpt>
      <trkpt lat="45.81571" lon="1.22442">
        <ele>302.9</ele>
        <time>2024-09-25T14:32:45Z</time>
      </trkpt>
      <trkpt lat="45.81575" lon="1.22437">
        <ele>302.7</ele>
        <time>2024-09-25T14:32:46Z</time>
      </trkpt>
      <trkpt lat="45.81576" lon="1.2243">
        <ele>302.6</ele>
        <time>2024-09-25T14:32:47Z</time>
      </trkpt>
      <trkpt lat="45.81576" lon="1.22423">
        <ele>302.5</ele>
        <time>2024-09-25T14:32:48Z</time>
      </trkpt>
      <trkpt lat="45.81576" lon="1.22416">
        <ele>302.4</ele>
        <time>2024-09-25T14:32:49Z</time>
      </trkpt>
      <trkpt lat="45.81574" lon="1.22409">
        <ele>302.4</ele>
        <time>2024-09-25T14:32:50Z</time>
      </trkpt>
      <trkpt lat="45.81572" lon="1.22403">
        <ele>302.4</ele>
        <time>2024-09-25T14:32:51Z</time>
      </trkpt>
      <trkpt lat="45.81569" lon="1.22398">
        <ele>302.5</ele>
        <time>2024-09-25T14:32:52Z</time>
      </trkpt>
      <trkpt lat="45.81565" lon="1.22395">
        <ele>302.7</ele>
        <time>2024-09-25T14:32:53Z</time>
      </trkpt>
      <trkpt lat="45.81561" lon="1.22391">
        <ele>302.9</ele>
        <time>2024-09-25T14:32:54Z</time>
      </trkpt>
      <trkpt lat="45.81557" lon="1.22387">
        <ele>303.1</ele>
        <time>2024-09-25T14:32:55Z</time>
      </trkpt>
      <trkpt lat="45.81554" lon="1.22381">
        <ele>303.4</ele>
        <time>2024-09-25T14:32:56Z</time>
      </trkpt>
      <trkpt lat="45.81551" lon="1.22376">
        <ele>303.6</ele>
        <time>2024-09-25T14:32:57Z</time>
      </trkpt>
      <trkpt lat="45.81548" lon="1.2237">
        <ele>303.7</ele>
        <time>2024-09-25T14:32:58Z</time>
      </trkpt>
      <trkpt lat="45.81545" lon="1.22364">
        <ele>303.8</ele>
        <time>2024-09-25T14:32:59Z</time>
      </trkpt>
      <trkpt lat="45.81542" lon="1.22359">
        <ele>304</ele>
        <time>2024-09-25T14:33:00Z</time>
      </trkpt>
      <trkpt lat="45.81539" lon="1.22353">
        <ele>304.1</ele>
        <time>2024-09-25T14:33:01Z</time>
      </trkpt>
      <trkpt lat="45.81537" lon="1.22348">
        <ele>304.3</ele>
        <time>2024-09-25T14:33:02Z</time>
      </trkpt>
      <trkpt lat="45.81534" lon="1.22344">
        <ele>304.5</ele>
        <time>2024-09-25T14:33:03Z</time>
      </trkpt>
      <trkpt lat="45.81531" lon="1.22339">
        <ele>304.6</ele>
        <time>2024-09-25T14:33:04Z</time>
      </trkpt>
      <trkpt lat="45.81528" lon="1.22335">
        <ele>304.8</ele>
        <time>2024-09-25T14:33:05Z</time>
      </trkpt>
      <trkpt lat="45.81525" lon="1.2233">
        <ele>305</ele>
        <time>2024-09-25T14:33:06Z</time>
      </trkpt>
      <trkpt lat="45.81522" lon="1.22325">
        <ele>305.2</ele>
        <time>2024-09-25T14:33:07Z</time>
      </trkpt>
      <trkpt lat="45.81519" lon="1.22321">
        <ele>305.4</ele>
        <time>2024-09-25T14:33:08Z</time>
      </trkpt>
      <trkpt lat="45.81516" lon="1.22316">
        <ele>305.6</ele>
        <time>2024-09-25T14:33:09Z</time>
      </trkpt>
      <trkpt lat="45.81513" lon="1.22311">
        <ele>305.8</ele>
        <time>2024-09-25T14:33:10Z</time>
      </trkpt>
      <trkpt lat="45.8151" lon="1.22306">
        <ele>306</ele>
        <time>2024-09-25T14:33:11Z</time>
      </trkpt>
      <trkpt lat="45.81508" lon="1.22302">
        <ele>306.2</ele>
        <time>2024-09-25T14:33:12Z</time>
      </trkpt>
      <trkpt lat="45.81505" lon="1.22297">
        <ele>306.4</ele>
        <time>2024-09-25T14:33:13Z</time>
      </trkpt>
      <trkpt lat="45.81502" lon="1.22292">
        <ele>306.6</ele>
        <time>2024-09-25T14:33:14Z</time>
      </trkpt>
      <trkpt lat="45.815" lon="1.22288">
        <ele>306.7</ele>
        <time>2024-09-25T14:33:15Z</time>
      </trkpt>
      <trkpt lat="45.81497" lon="1.22283">
        <ele>306.9</ele>
        <time>2024-09-25T14:33:16Z</time>
      </trkpt>
      <trkpt lat="45.81494" lon="1.22279">
        <ele>307.1</ele>
        <time>2024-09-25T14:33:17Z</time>
      </trkpt>
      <trkpt lat="45.81492" lon="1.22274">
        <ele>307.3</ele>
        <time>2024-09-25T14:33:18Z</time>
      </trkpt>
      <trkpt lat="45.81489" lon="1.22269">
        <ele>307.4</ele>
        <time>2024-09-25T14:33:19Z</time>
      </trkpt>
      <trkpt lat="45.81487" lon="1.22265">
        <ele>307.6</ele>
        <time>2024-09-25T14:33:20Z</time>
      </trkpt>
      <trkpt lat="45.81484" lon="1.22261">
        <ele>307.7</ele>
        <time>2024-09-25T14:33:21Z</time>
      </trkpt>
      <trkpt lat="45.81482" lon="1.22256">
        <ele>307.8</ele>
        <time>2024-09-25T14:33:22Z</time>
      </trkpt>
      <trkpt lat="45.8148" lon="1.22251">
        <ele>307.9</ele>
        <time>2024-09-25T14:33:23Z</time>
      </trkpt>
      <trkpt lat="45.81478" lon="1.22247">
        <ele>308</ele>
        <time>2024-09-25T14:33:24Z</time>
      </trkpt>
      <trkpt lat="45.81475" lon="1.22242">
        <ele>308.1</ele>
        <time>2024-09-25T14:33:25Z</time>
      </trkpt>
      <trkpt lat="45.81473" lon="1.22237">
        <ele>308.2</ele>
        <time>2024-09-25T14:33:26Z</time>
      </trkpt>
      <trkpt lat="45.8147" lon="1.22232">
        <ele>308.3</ele>
        <time>2024-09-25T14:33:27Z</time>
      </trkpt>
      <trkpt lat="45.81467" lon="1.22227">
        <ele>308.4</ele>
        <time>2024-09-25T14:33:28Z</time>
      </trkpt>
      <trkpt lat="45.81465" lon="1.22223">
        <ele>308.5</ele>
        <time>2024-09-25T14:33:29Z</time>
      </trkpt>
      <trkpt lat="45.81462" lon="1.22218">
        <ele>308.6</ele>
        <time>2024-09-25T14:33:30Z</time>
      </trkpt>
      <trkpt lat="45.81459" lon="1.22213">
        <ele>308.7</ele>
        <time>2024-09-25T14:33:31Z</time>
      </trkpt>
      <trkpt lat="45.81457" lon="1.22209">
        <ele>308.8</ele>
        <time>2024-09-25T14:33:32Z</time>
      </trkpt>
      <trkpt lat="45.81454" lon="1.22205">
        <ele>308.9</ele>
        <time>2024-09-25T14:33:33Z</time>
      </trkpt>
      <trkpt lat="45.81451" lon="1.222">
        <ele>309</ele>
        <time>2024-09-25T14:33:34Z</time>
      </trkpt>
      <trkpt lat="45.81448" lon="1.22195">
        <ele>309.1</ele>
        <time>2024-09-25T14:33:35Z</time>
      </trkpt>
      <trkpt lat="45.81446" lon="1.2219">
        <ele>309.2</ele>
        <time>2024-09-25T14:33:36Z</time>
      </trkpt>
      <trkpt lat="45.81443" lon="1.22185">
        <ele>309.3</ele>
        <time>2024-09-25T14:33:37Z</time>
      </trkpt>
      <trkpt lat="45.81441" lon="1.22181">
        <ele>309.4</ele>
        <time>2024-09-25T14:33:38Z</time>
      </trkpt>
      <trkpt lat="45.81438" lon="1.22177">
        <ele>309.5</ele>
        <time>2024-09-25T14:33:39Z</time>
      </trkpt>
      <trkpt lat="45.81435" lon="1.22172">
        <ele>309.6</ele>
        <time>2024-09-25T14:33:40Z</time>
      </trkpt>
      <trkpt lat="45.81432" lon="1.22168">
        <ele>309.7</ele>
        <time>2024-09-25T14:33:41Z</time>
      </trkpt>
      <trkpt lat="45.8143" lon="1.22163">
        <ele>309.8</ele>
        <time>2024-09-25T14:33:42Z</time>
      </trkpt>
      <trkpt lat="45.81427" lon="1.22159">
        <ele>309.9</ele>
        <time>2024-09-25T14:33:43Z</time>
      </trkpt>
      <trkpt lat="45.81425" lon="1.22155">
        <ele>310</ele>
        <time>2024-09-25T14:33:44Z</time>
      </trkpt>
      <trkpt lat="45.81422" lon="1.22152">
        <ele>310.1</ele>
        <time>2024-09-25T14:33:45Z</time>
      </trkpt>
      <trkpt lat="45.8142" lon="1.22147">
        <ele>310.2</ele>
        <time>2024-09-25T14:33:47Z</time>
      </trkpt>
      <trkpt lat="45.81417" lon="1.22142">
        <ele>310.3</ele>
        <time>2024-09-25T14:33:49Z</time>
      </trkpt>
      <trkpt lat="45.81414" lon="1.22137">
        <ele>310.4</ele>
        <time>2024-09-25T14:33:51Z</time>
      </trkpt>
      <trkpt lat="45.81415" lon="1.22137">
        <ele>310.5</ele>
        <time>2024-09-25T14:34:02Z</time>
      </trkpt>
      <trkpt lat="45.81416" lon="1.22139">
        <ele>310.5</ele>
        <time>2024-09-25T14:34:07Z</time>
      </trkpt>
      <trkpt lat="45.81419" lon="1.22142">
        <ele>310.6</ele>
        <time>2024-09-25T14:34:09Z</time>
      </trkpt>
      <trkpt lat="45.81423" lon="1.22147">
        <ele>310.8</ele>
        <time>2024-09-25T14:34:11Z</time>
      </trkpt>
      <trkpt lat="45.81426" lon="1.22152">
        <ele>310.9</ele>
        <time>2024-09-25T14:34:12Z</time>
      </trkpt>
      <trkpt lat="45.81429" lon="1.22158">
        <ele>311</ele>
        <time>2024-09-25T14:34:13Z</time>
      </trkpt>
      <trkpt lat="45.81433" lon="1.22163">
        <ele>310.8</ele>
        <time>2024-09-25T14:34:14Z</time>
      </trkpt>
      <trkpt lat="45.81436" lon="1.22169">
        <ele>310.6</ele>
        <time>2024-09-25T14:34:15Z</time>
      </trkpt>
      <trkpt lat="45.8144" lon="1.22175">
        <ele>310.4</ele>
        <time>2024-09-25T14:34:16Z</time>
      </trkpt>
      <trkpt lat="45.81443" lon="1.2218">
        <ele>310.2</ele>
        <time>2024-09-25T14:34:17Z</time>
      </trkpt>
      <trkpt lat="45.81446" lon="1.22187">
        <ele>309.9</ele>
        <time>2024-09-25T14:34:18Z</time>
      </trkpt>
      <trkpt lat="45.8145" lon="1.22193">
        <ele>309.7</ele>
        <time>2024-09-25T14:34:19Z</time>
      </trkpt>
      <trkpt lat="45.81454" lon="1.22199">
        <ele>309.5</ele>
        <time>2024-09-25T14:34:20Z</time>
      </trkpt>
      <trkpt lat="45.81457" lon="1.22205">
        <ele>309.4</ele>
        <time>2024-09-25T14:34:21Z</time>
      </trkpt>
      <trkpt lat="45.81461" lon="1.22212">
        <ele>309.1</ele>
        <time>2024-09-25T14:34:22Z</time>
      </trkpt>
      <trkpt lat="45.81464" lon="1.22218">
        <ele>309</ele>
        <time>2024-09-25T14:34:23Z</time>
      </trkpt>
      <trkpt lat="45.81467" lon="1.22225">
        <ele>308.8</ele>
        <time>2024-09-25T14:34:24Z</time>
      </trkpt>
      <trkpt lat="45.81471" lon="1.22231">
        <ele>308.6</ele>
        <time>2024-09-25T14:34:25Z</time>
      </trkpt>
      <trkpt lat="45.81474" lon="1.22238">
        <ele>308.4</ele>
        <time>2024-09-25T14:34:26Z</time>
      </trkpt>
      <trkpt lat="45.81478" lon="1.22244">
        <ele>308.2</ele>
        <time>2024-09-25T14:34:27Z</time>
      </trkpt>
      <trkpt lat="45.81481" lon="1.22249">
        <ele>308</ele>
        <time>2024-09-25T14:34:28Z</time>
      </trkpt>
      <trkpt lat="45.81485" lon="1.22256">
        <ele>307.8</ele>
        <time>2024-09-25T14:34:29Z</time>
      </trkpt>
      <trkpt lat="45.8149" lon="1.22263">
        <ele>307.5</ele>
        <time>2024-09-25T14:34:30Z</time>
      </trkpt>
      <trkpt lat="45.81494" lon="1.22269">
        <ele>307.3</ele>
        <time>2024-09-25T14:34:31Z</time>
      </trkpt>
      <trkpt lat="45.81497" lon="1.22276">
        <ele>307.1</ele>
        <time>2024-09-25T14:34:32Z</time>
      </trkpt>
      <trkpt lat="45.81501" lon="1.22282">
        <ele>306.8</ele>
        <time>2024-09-25T14:34:33Z</time>
      </trkpt>
      <trkpt lat="45.81505" lon="1.22289">
        <ele>306.6</ele>
        <time>2024-09-25T14:34:34Z</time>
      </trkpt>
      <trkpt lat="45.81509" lon="1.22296">
        <ele>306.3</ele>
        <time>2024-09-25T14:34:35Z</time>
      </trkpt>
      <trkpt lat="45.81513" lon="1.22303">
        <ele>306</ele>
        <time>2024-09-25T14:34:36Z</time>
      </trkpt>
      <trkpt lat="45.81517" lon="1.2231">
        <ele>305.7</ele>
        <time>2024-09-25T14:34:37Z</time>
      </trkpt>
      <trkpt lat="45.81522" lon="1.22317">
        <ele>305.4</ele>
        <time>2024-09-25T14:34:38Z</time>
      </trkpt>
      <trkpt lat="45.81526" lon="1.22324">
        <ele>305.2</ele>
        <time>2024-09-25T14:34:39Z</time>
      </trkpt>
      <trkpt lat="45.8153" lon="1.22331">
        <ele>304.9</ele>
        <time>2024-09-25T14:34:40Z</time>
      </trkpt>
      <trkpt lat="45.81534" lon="1.22339">
        <ele>304.6</ele>
        <time>2024-09-25T14:34:41Z</time>
      </trkpt>
      <trkpt lat="45.81539" lon="1.22346">
        <ele>304.3</ele>
        <time>2024-09-25T14:34:42Z</time>
      </trkpt>
      <trkpt lat="45.81543" lon="1.22353">
        <ele>304.1</ele>
        <time>2024-09-25T14:34:43Z</time>
      </trkpt>
      <trkpt lat="45.81546" lon="1.2236">
        <ele>303.9</ele>
        <time>2024-09-25T14:34:44Z</time>
      </trkpt>
      <trkpt lat="45.8155" lon="1.22367">
        <ele>303.8</ele>
        <time>2024-09-25T14:34:45Z</time>
      </trkpt>
      <trkpt lat="45.81554" lon="1.22373">
        <ele>303.6</ele>
        <time>2024-09-25T14:34:46Z</time>
      </trkpt>
      <trkpt lat="45.81558" lon="1.22379">
        <ele>303.3</ele>
        <time>2024-09-25T14:34:47Z</time>
      </trkpt>
      <trkpt lat="45.81562" lon="1.22384">
        <ele>303</ele>
        <time>2024-09-25T14:34:48Z</time>
      </trkpt>
      <trkpt lat="45.81565" lon="1.22387">
        <ele>302.8</ele>
        <time>2024-09-25T14:34:49Z</time>
      </trkpt>
      <trkpt lat="45.81569" lon="1.2239">
        <ele>302.6</ele>
        <time>2024-09-25T14:34:50Z</time>
      </trkpt>
      <trkpt lat="45.81573" lon="1.22392">
        <ele>302.4</ele>
        <time>2024-09-25T14:34:51Z</time>
      </trkpt>
      <trkpt lat="45.81577" lon="1.22393">
        <ele>301.9</ele>
        <time>2024-09-25T14:34:52Z</time>
      </trkpt>
      <trkpt lat="45.8158" lon="1.22393">
        <ele>301.6</ele>
        <time>2024-09-25T14:34:53Z</time>
      </trkpt>
      <trkpt lat="45.81584" lon="1.22393">
        <ele>301.2</ele>
        <time>2024-09-25T14:34:55Z</time>
      </trkpt>
      <trkpt lat="45.81588" lon="1.22393">
        <ele>300.8</ele>
        <time>2024-09-25T14:34:57Z</time>
      </trkpt>
      <trkpt lat="45.81591" lon="1.22395">
        <ele>300.5</ele>
        <time>2024-09-25T14:35:00Z</time>
      </trkpt>
      <trkpt lat="45.81594" lon="1.22399">
        <ele>300.2</ele>
        <time>2024-09-25T14:35:02Z</time>
      </trkpt>
      <trkpt lat="45.81597" lon="1.22401">
        <ele>300</ele>
        <time>2024-09-25T14:35:03Z</time>
      </trkpt>
      <trkpt lat="45.816" lon="1.22401">
        <ele>299.8</ele>
        <time>2024-09-25T14:35:04Z</time>
      </trkpt>
      <trkpt lat="45.81603" lon="1.22399">
        <ele>299.6</ele>
        <time>2024-09-25T14:35:05Z</time>
      </trkpt>
      <trkpt lat="45.81607" lon="1.22397">
        <ele>299.3</ele>
        <time>2024-09-25T14:35:06Z</time>
      </trkpt>
      <trkpt lat="45.8161" lon="1.22395">
        <ele>299</ele>
        <time>2024-09-25T14:35:19Z</time>
      </trkpt>
      <trkpt lat="45.81614" lon="1.22393">
        <ele>298.8</ele>
        <time>2024-09-25T14:35:21Z</time>
      </trkpt>
      <trkpt lat="45.81618" lon="1.22392">
        <ele>298.5</ele>
        <time>2024-09-25T14:35:23Z</time>
      </trkpt>
      <trkpt lat="45.81621" lon="1.22392">
        <ele>298.3</ele>
        <time>2024-09-25T14:35:29Z</time>
      </trkpt>
      <trkpt lat="45.8162" lon="1.22393">
        <ele>298.4</ele>
        <time>2024-09-25T14:35:35Z</time>
      </trkpt>
      <trkpt lat="45.81616" lon="1.22395">
        <ele>298.7</ele>
        <time>2024-09-25T14:35:37Z</time>
      </trkpt>
      <trkpt lat="45.81614" lon="1.22397">
        <ele>298.9</ele>
        <time>2024-09-25T14:35:38Z</time>
      </trkpt>
      <trkpt lat="45.8161" lon="1.224">
        <ele>299.3</ele>
        <time>2024-09-25T14:35:39Z</time>
      </trkpt>
      <trkpt lat="45.81607" lon="1.22403">
        <ele>299.6</ele>
        <time>2024-09-25T14:35:40Z</time>
      </trkpt>
      <trkpt lat="45.81603" lon="1.22405">
        <ele>299.9</ele>
        <time>2024-09-25T14:35:41Z</time>
      </trkpt>
      <trkpt lat="45.81599" lon="1.22407">
        <ele>300.2</ele>
        <time>2024-09-25T14:35:42Z</time>
      </trkpt>
      <trkpt lat="45.81594" lon="1.22409">
        <ele>300.7</ele>
        <time>2024-09-25T14:35:43Z</time>
      </trkpt>
      <trkpt lat="45.8159" lon="1.22413">
        <ele>301.3</ele>
        <time>2024-09-25T14:35:44Z</time>
      </trkpt>
      <trkpt lat="45.81587" lon="1.22417">
        <ele>301.8</ele>
        <time>2024-09-25T14:35:45Z</time>
      </trkpt>
      <trkpt lat="45.81585" lon="1.22421">
        <ele>302.2</ele>
        <time>2024-09-25T14:35:46Z</time>
      </trkpt>
      <trkpt lat="45.81584" lon="1.22426">
        <ele>302.5</ele>
        <time>2024-09-25T14:35:47Z</time>
      </trkpt>
      <trkpt lat="45.81583" lon="1.22431">
        <ele>302.6</ele>
        <time>2024-09-25T14:35:48Z</time>
      </trkpt>
      <trkpt lat="45.81583" lon="1.22436">
        <ele>302.7</ele>
        <time>2024-09-25T14:35:49Z</time>
      </trkpt>
      <trkpt lat="45.81584" lon="1.22442">
        <ele>302.7</ele>
        <time>2024-09-25T14:35:50Z</time>
      </trkpt>
      <trkpt lat="45.81585" lon="1.22446">
        <ele>302.8</ele>
        <time>2024-09-25T14:35:51Z</time>
      </trkpt>
      <trkpt lat="45.81587" lon="1.2245">
        <ele>302.8</ele>
        <time>2024-09-25T14:35:52Z</time>
      </trkpt>
      <trkpt lat="45.8159" lon="1.22453">
        <ele>302.8</ele>
        <time>2024-09-25T14:35:53Z</time>
      </trkpt>
      <trkpt lat="45.81594" lon="1.22456">
        <ele>302.7</ele>
        <time>2024-09-25T14:35:54Z</time>
      </trkpt>
      <trkpt lat="45.81598" lon="1.22459">
        <ele>302.7</ele>
        <time>2024-09-25T14:35:55Z</time>
      </trkpt>
      <trkpt lat="45.81602" lon="1.22463">
        <ele>302.7</ele>
        <time>2024-09-25T14:35:56Z</time>
      </trkpt>
      <trkpt lat="45.81605" lon="1.22468">
        <ele>302.7</ele>
        <time>2024-09-25T14:35:57Z</time>
      </trkpt>
      <trkpt lat="45.81609" lon="1.22472">
        <ele>302.7</ele>
        <time>2024-09-25T14:35:58Z</time>
      </trkpt>
      <trkpt lat="45.81613" lon="1.22477">
        <ele>302.7</ele>
        <time>2024-09-25T14:35:59Z</time>
      </trkpt>
      <trkpt lat="45.81616" lon="1.22483">
        <ele>302.8</ele>
        <time>2024-09-25T14:36:00Z</time>
      </trkpt>
      <trkpt lat="45.8162" lon="1.22488">
        <ele>302.8</ele>
        <time>2024-09-25T14:36:01Z</time>
      </trkpt>
      <trkpt lat="45.81624" lon="1.22494">
        <ele>302.9</ele>
        <time>2024-09-25T14:36:02Z</time>
      </trkpt>
      <trkpt lat="45.81628" lon="1.22499">
        <ele>303</ele>
        <time>2024-09-25T14:36:03Z</time>
      </trkpt>
      <trkpt lat="45.81632" lon="1.22504">
        <ele>303.1</ele>
        <time>2024-09-25T14:36:04Z</time>
      </trkpt>
      <trkpt lat="45.81636" lon="1.22509">
        <ele>303.2</ele>
        <time>2024-09-25T14:36:05Z</time>
      </trkpt>
      <trkpt lat="45.8164" lon="1.22514">
        <ele>303.3</ele>
        <time>2024-09-25T14:36:06Z</time>
      </trkpt>
      <trkpt lat="45.81643" lon="1.22518">
        <ele>303.4</ele>
        <time>2024-09-25T14:36:07Z</time>
      </trkpt>
      <trkpt lat="45.81647" lon="1.22523">
        <ele>303.6</ele>
        <time>2024-09-25T14:36:08Z</time>
      </trkpt>
      <trkpt lat="45.8165" lon="1.22527">
        <ele>303.7</ele>
        <time>2024-09-25T14:36:09Z</time>
      </trkpt>
      <trkpt lat="45.81654" lon="1.22532">
        <ele>303.8</ele>
        <time>2024-09-25T14:36:10Z</time>
      </trkpt>
      <trkpt lat="45.81657" lon="1.22536">
        <ele>303.9</ele>
        <time>2024-09-25T14:36:11Z</time>
      </trkpt>
      <trkpt lat="45.81661" lon="1.22541">
        <ele>304.1</ele>
        <time>2024-09-25T14:36:12Z</time>
      </trkpt>
      <trkpt lat="45.81664" lon="1.22545">
        <ele>304.2</ele>
        <time>2024-09-25T14:36:13Z</time>
      </trkpt>
      <trkpt lat="45.81667" lon="1.2255">
        <ele>304.3</ele>
        <time>2024-09-25T14:36:14Z</time>
      </trkpt>
      <trkpt lat="45.8167" lon="1.22554">
        <ele>304.4</ele>
        <time>2024-09-25T14:36:15Z</time>
      </trkpt>
      <trkpt lat="45.81674" lon="1.22559">
        <ele>304.5</ele>
        <time>2024-09-25T14:36:16Z</time>
      </trkpt>
      <trkpt lat="45.81677" lon="1.22563">
        <ele>304.7</ele>
        <time>2024-09-25T14:36:17Z</time>
      </trkpt>
      <trkpt lat="45.81681" lon="1.22569">
        <ele>304.8</ele>
        <time>2024-09-25T14:36:18Z</time>
      </trkpt>
      <trkpt lat="45.81685" lon="1.22573">
        <ele>304.9</ele>
        <time>2024-09-25T14:36:19Z</time>
      </trkpt>
      <trkpt lat="45.81688" lon="1.22578">
        <ele>305</ele>
        <time>2024-09-25T14:36:20Z</time>
      </trkpt>
      <trkpt lat="45.81691" lon="1.22583">
        <ele>305.1</ele>
        <time>2024-09-25T14:36:21Z</time>
      </trkpt>
      <trkpt lat="45.81694" lon="1.22588">
        <ele>305.2</ele>
        <time>2024-09-25T14:36:22Z</time>
      </trkpt>
      <trkpt lat="45.81698" lon="1.22592">
        <ele>305.3</ele>
        <time>2024-09-25T14:36:23Z</time>
      </trkpt>
      <trkpt lat="45.81701" lon="1.22596">
        <ele>305.4</ele>
        <time>2024-09-25T14:36:24Z</time>
      </trkpt>
      <trkpt lat="45.81703" lon="1.22601">
        <ele>305.5</ele>
        <time>2024-09-25T14:36:25Z</time>
      </trkpt>
      <trkpt lat="45.81706" lon="1.22605">
        <ele>305.6</ele>
        <time>2024-09-25T14:36:26Z</time>
      </trkpt>
      <trkpt lat="45.81709" lon="1.2261">
        <ele>305.6</ele>
        <time>2024-09-25T14:36:27Z</time>
      </trkpt>
      <trkpt lat="45.81711" lon="1.22615">
        <ele>305.7</ele>
        <time>2024-09-25T14:36:28Z</time>
      </trkpt>
      <trkpt lat="45.81713" lon="1.2262">
        <ele>305.8</ele>
        <time>2024-09-25T14:36:29Z</time>
      </trkpt>
      <trkpt lat="45.81715" lon="1.22625">
        <ele>305.9</ele>
        <time>2024-09-25T14:36:30Z</time>
      </trkpt>
      <trkpt lat="45.81717" lon="1.2263">
        <ele>305.9</ele>
        <time>2024-09-25T14:36:31Z</time>
      </trkpt>
      <trkpt lat="45.81719" lon="1.22636">
        <ele>306</ele>
        <time>2024-09-25T14:36:32Z</time>
      </trkpt>
      <trkpt lat="45.81721" lon="1.22642">
        <ele>306.1</ele>
        <time>2024-09-25T14:36:33Z</time>
      </trkpt>
      <trkpt lat="45.81724" lon="1.22647">
        <ele>306.1</ele>
        <time>2024-09-25T14:36:34Z</time>
      </trkpt>
      <trkpt lat="45.81726" lon="1.22653">
        <ele>306.2</ele>
        <time>2024-09-25T14:36:35Z</time>
      </trkpt>
      <trkpt lat="45.81727" lon="1.22658">
        <ele>306.2</ele>
        <time>2024-09-25T14:36:36Z</time>
      </trkpt>
      <trkpt lat="45.81729" lon="1.22664">
        <ele>306.2</ele>
        <time>2024-09-25T14:36:37Z</time>
      </trkpt>
      <trkpt lat="45.81732" lon="1.22671">
        <ele>306.2</ele>
        <time>2024-09-25T14:36:38Z</time>
      </trkpt>
      <trkpt lat="45.81734" lon="1.22677">
        <ele>306.2</ele>
        <time>2024-09-25T14:36:39Z</time>
      </trkpt>
      <trkpt lat="45.81737" lon="1.22684">
        <ele>306.2</ele>
        <time>2024-09-25T14:36:40Z</time>
      </trkpt>
      <trkpt lat="45.81739" lon="1.2269">
        <ele>306.2</ele>
        <time>2024-09-25T14:36:41Z</time>
      </trkpt>
      <trkpt lat="45.81742" lon="1.22696">
        <ele>306.2</ele>
        <time>2024-09-25T14:36:42Z</time>
      </trkpt>
      <trkpt lat="45.81744" lon="1.22703">
        <ele>306.1</ele>
        <time>2024-09-25T14:36:43Z</time>
      </trkpt>
      <trkpt lat="45.81747" lon="1.2271">
        <ele>306.1</ele>
        <time>2024-09-25T14:36:44Z</time>
      </trkpt>
      <trkpt lat="45.8175" lon="1.22717">
        <ele>306</ele>
        <time>2024-09-25T14:36:45Z</time>
      </trkpt>
      <trkpt lat="45.81753" lon="1.22724">
        <ele>305.9</ele>
        <time>2024-09-25T14:36:46Z</time>
      </trkpt>
      <trkpt lat="45.81755" lon="1.22731">
        <ele>305.8</ele>
        <time>2024-09-25T14:36:47Z</time>
      </trkpt>
      <trkpt lat="45.81758" lon="1.22738">
        <ele>305.7</ele>
        <time>2024-09-25T14:36:48Z</time>
      </trkpt>
      <trkpt lat="45.81761" lon="1.22744">
        <ele>305.5</ele>
        <time>2024-09-25T14:36:49Z</time>
      </trkpt>
      <trkpt lat="45.81764" lon="1.22752">
        <ele>305.4</ele>
        <time>2024-09-25T14:36:50Z</time>
      </trkpt>
      <trkpt lat="45.81767" lon="1.2276">
        <ele>305.2</ele>
        <time>2024-09-25T14:36:51Z</time>
      </trkpt>
      <trkpt lat="45.81771" lon="1.22767">
        <ele>305</ele>
        <time>2024-09-25T14:36:52Z</time>
      </trkpt>
      <trkpt lat="45.81774" lon="1.22775">
        <ele>304.7</ele>
        <time>2024-09-25T14:36:53Z</time>
      </trkpt>
      <trkpt lat="45.81777" lon="1.22783">
        <ele>304.5</ele>
        <time>2024-09-25T14:36:54Z</time>
      </trkpt>
      <trkpt lat="45.8178" lon="1.22791">
        <ele>304.2</ele>
        <time>2024-09-25T14:36:55Z</time>
      </trkpt>
      <trkpt lat="45.81784" lon="1.22799">
        <ele>303.9</ele>
        <time>2024-09-25T14:36:56Z</time>
      </trkpt>
      <trkpt lat="45.81787" lon="1.22808">
        <ele>303.6</ele>
        <time>2024-09-25T14:36:57Z</time>
      </trkpt>
      <trkpt lat="45.8179" lon="1.22817">
        <ele>303.4</ele>
        <time>2024-09-25T14:36:58Z</time>
      </trkpt>
      <trkpt lat="45.81793" lon="1.22825">
        <ele>303.1</ele>
        <time>2024-09-25T14:36:59Z</time>
      </trkpt>
      <trkpt lat="45.81796" lon="1.22834">
        <ele>302.8</ele>
        <time>2024-09-25T14:37:00Z</time>
      </trkpt>
      <trkpt lat="45.81799" lon="1.22842">
        <ele>302.5</ele>
        <time>2024-09-25T14:37:01Z</time>
      </trkpt>
      <trkpt lat="45.81803" lon="1.22851">
        <ele>302.2</ele>
        <time>2024-09-25T14:37:02Z</time>
      </trkpt>
      <trkpt lat="45.81807" lon="1.2286">
        <ele>301.9</ele>
        <time>2024-09-25T14:37:03Z</time>
      </trkpt>
      <trkpt lat="45.81811" lon="1.22869">
        <ele>301.5</ele>
        <time>2024-09-25T14:37:04Z</time>
      </trkpt>
      <trkpt lat="45.81815" lon="1.22878">
        <ele>301.3</ele>
        <time>2024-09-25T14:37:05Z</time>
      </trkpt>
      <trkpt lat="45.8182" lon="1.22887">
        <ele>301</ele>
        <time>2024-09-25T14:37:06Z</time>
      </trkpt>
      <trkpt lat="45.81824" lon="1.22895">
        <ele>300.8</ele>
        <time>2024-09-25T14:37:07Z</time>
      </trkpt>
      <trkpt lat="45.81828" lon="1.22903">
        <ele>300.7</ele>
        <time>2024-09-25T14:37:08Z</time>
      </trkpt>
      <trkpt lat="45.81832" lon="1.22911">
        <ele>300.6</ele>
        <time>2024-09-25T14:37:09Z</time>
      </trkpt>
      <trkpt lat="45.81837" lon="1.22919">
        <ele>300.5</ele>
        <time>2024-09-25T14:37:10Z</time>
      </trkpt>
      <trkpt lat="45.81841" lon="1.22927">
        <ele>300.4</ele>
        <time>2024-09-25T14:37:11Z</time>
      </trkpt>
      <trkpt lat="45.81845" lon="1.22934">
        <ele>300.4</ele>
        <time>2024-09-25T14:37:12Z</time>
      </trkpt>
      <trkpt lat="45.81849" lon="1.22942">
        <ele>300.3</ele>
        <time>2024-09-25T14:37:13Z</time>
      </trkpt>
      <trkpt lat="45.81853" lon="1.22949">
        <ele>300.3</ele>
        <time>2024-09-25T14:37:14Z</time>
      </trkpt>
      <trkpt lat="45.81858" lon="1.22955">
        <ele>300.2</ele>
        <time>2024-09-25T14:37:15Z</time>
      </trkpt>
      <trkpt lat="45.81862" lon="1.22961">
        <ele>300.2</ele>
        <time>2024-09-25T14:37:16Z</time>
      </trkpt>
      <trkpt lat="45.81866" lon="1.22967">
        <ele>300.2</ele>
        <time>2024-09-25T14:37:17Z</time>
      </trkpt>
      <trkpt lat="45.81871" lon="1.22972">
        <ele>300.2</ele>
        <time>2024-09-25T14:37:18Z</time>
      </trkpt>
      <trkpt lat="45.81876" lon="1.22976">
        <ele>300.2</ele>
        <time>2024-09-25T14:37:19Z</time>
      </trkpt>
      <trkpt lat="45.81881" lon="1.2298">
        <ele>300.2</ele>
        <time>2024-09-25T14:37:20Z</time>
      </trkpt>
      <trkpt lat="45.81886" lon="1.22983">
        <ele>300.3</ele>
        <time>2024-09-25T14:37:21Z</time>
      </trkpt>
      <trkpt lat="45.81891" lon="1.22986">
        <ele>300.4</ele>
        <time>2024-09-25T14:37:22Z</time>
      </trkpt>
      <trkpt lat="45.81895" lon="1.22988">
        <ele>300.4</ele>
        <time>2024-09-25T14:37:23Z</time>
      </trkpt>
      <trkpt lat="45.819" lon="1.22989">
        <ele>300.5</ele>
        <time>2024-09-25T14:37:24Z</time>
      </trkpt>
      <trkpt lat="45.81904" lon="1.2299">
        <ele>300.6</ele>
        <time>2024-09-25T14:37:25Z</time>
      </trkpt>
      <trkpt lat="45.81909" lon="1.22992">
        <ele>300.7</ele>
        <time>2024-09-25T14:37:26Z</time>
      </trkpt>
      <trkpt lat="45.81913" lon="1.22994">
        <ele>300.7</ele>
        <time>2024-09-25T14:37:27Z</time>
      </trkpt>
      <trkpt lat="45.81917" lon="1.22996">
        <ele>300.8</ele>
        <time>2024-09-25T14:37:28Z</time>
      </trkpt>
      <trkpt lat="45.81923" lon="1.22997">
        <ele>300.9</ele>
        <time>2024-09-25T14:37:29Z</time>
      </trkpt>
      <trkpt lat="45.81927" lon="1.22999">
        <ele>301</ele>
        <time>2024-09-25T14:37:30Z</time>
      </trkpt>
      <trkpt lat="45.81932" lon="1.23">
        <ele>301.1</ele>
        <time>2024-09-25T14:37:31Z</time>
      </trkpt>
      <trkpt lat="45.81936" lon="1.23002">
        <ele>301.2</ele>
        <time>2024-09-25T14:37:32Z</time>
      </trkpt>
      <trkpt lat="45.81941" lon="1.23003">
        <ele>301.3</ele>
        <time>2024-09-25T14:37:33Z</time>
      </trkpt>
      <trkpt lat="45.81945" lon="1.23004">
        <ele>301.4</ele>
        <time>2024-09-25T14:37:34Z</time>
      </trkpt>
      <trkpt lat="45.8195" lon="1.23006">
        <ele>301.5</ele>
        <time>2024-09-25T14:37:35Z</time>
      </trkpt>
      <trkpt lat="45.81954" lon="1.23007">
        <ele>301.6</ele>
        <time>2024-09-25T14:37:36Z</time>
      </trkpt>
      <trkpt lat="45.81959" lon="1.23009">
        <ele>301.7</ele>
        <time>2024-09-25T14:37:37Z</time>
      </trkpt>
      <trkpt lat="45.81964" lon="1.23011">
        <ele>301.8</ele>
        <time>2024-09-25T14:37:38Z</time>
      </trkpt>
      <trkpt lat="45.81968" lon="1.23013">
        <ele>301.9</ele>
        <time>2024-09-25T14:37:39Z</time>
      </trkpt>
      <trkpt lat="45.81973" lon="1.23015">
        <ele>302</ele>
        <time>2024-09-25T14:37:40Z</time>
      </trkpt>
      <trkpt lat="45.81978" lon="1.23017">
        <ele>302.1</ele>
        <time>2024-09-25T14:37:41Z</time>
      </trkpt>
      <trkpt lat="45.81983" lon="1.23019">
        <ele>302.3</ele>
        <time>2024-09-25T14:37:42Z</time>
      </trkpt>
      <trkpt lat="45.81987" lon="1.2302">
        <ele>302.4</ele>
        <time>2024-09-25T14:37:43Z</time>
      </trkpt>
      <trkpt lat="45.81991" lon="1.23022">
        <ele>302.5</ele>
        <time>2024-09-25T14:37:44Z</time>
      </trkpt>
      <trkpt lat="45.81996" lon="1.23024">
        <ele>302.6</ele>
        <time>2024-09-25T14:37:45Z</time>
      </trkpt>
      <trkpt lat="45.82" lon="1.23025">
        <ele>302.7</ele>
        <time>2024-09-25T14:37:46Z</time>
      </trkpt>
      <trkpt lat="45.82005" lon="1.23026">
        <ele>302.9</ele>
        <time>2024-09-25T14:37:47Z</time>
      </trkpt>
      <trkpt lat="45.82009" lon="1.23027">
        <ele>303</ele>
        <time>2024-09-25T14:37:48Z</time>
      </trkpt>
      <trkpt lat="45.82013" lon="1.23028">
        <ele>303.1</ele>
        <time>2024-09-25T14:37:49Z</time>
      </trkpt>
      <trkpt lat="45.82016" lon="1.2303">
        <ele>303.1</ele>
        <time>2024-09-25T14:37:51Z</time>
      </trkpt>
      <trkpt lat="45.8202" lon="1.23031">
        <ele>303.2</ele>
        <time>2024-09-25T14:37:53Z</time>
      </trkpt>
      <trkpt lat="45.82025" lon="1.23033">
        <ele>303.3</ele>
        <time>2024-09-25T14:37:55Z</time>
      </trkpt>
      <trkpt lat="45.82029" lon="1.23033">
        <ele>303.4</ele>
        <time>2024-09-25T14:37:56Z</time>
      </trkpt>
      <trkpt lat="45.82033" lon="1.23034">
        <ele>303.5</ele>
        <time>2024-09-25T14:37:57Z</time>
      </trkpt>
      <trkpt lat="45.82038" lon="1.23036">
        <ele>303.6</ele>
        <time>2024-09-25T14:37:58Z</time>
      </trkpt>
      <trkpt lat="45.82043" lon="1.23037">
        <ele>303.7</ele>
        <time>2024-09-25T14:37:59Z</time>
      </trkpt>
      <trkpt lat="45.82048" lon="1.23037">
        <ele>303.8</ele>
        <time>2024-09-25T14:38:00Z</time>
      </trkpt>
      <trkpt lat="45.82053" lon="1.23036">
        <ele>303.9</ele>
        <time>2024-09-25T14:38:01Z</time>
      </trkpt>
      <trkpt lat="45.82058" lon="1.23035">
        <ele>304</ele>
        <time>2024-09-25T14:38:02Z</time>
      </trkpt>
      <trkpt lat="45.82062" lon="1.23035">
        <ele>304</ele>
        <time>2024-09-25T14:38:03Z</time>
      </trkpt>
      <trkpt lat="45.82066" lon="1.23034">
        <ele>304.1</ele>
        <time>2024-09-25T14:38:04Z</time>
      </trkpt>
      <trkpt lat="45.82071" lon="1.23034">
        <ele>304.2</ele>
        <time>2024-09-25T14:38:05Z</time>
      </trkpt>
      <trkpt lat="45.82075" lon="1.23034">
        <ele>304.3</ele>
        <time>2024-09-25T14:38:06Z</time>
      </trkpt>
      <trkpt lat="45.82079" lon="1.23034">
        <ele>304.3</ele>
        <time>2024-09-25T14:38:07Z</time>
      </trkpt>
      <trkpt lat="45.82082" lon="1.23031">
        <ele>304.5</ele>
        <time>2024-09-25T14:38:08Z</time>
      </trkpt>
      <trkpt lat="45.82084" lon="1.23028">
        <ele>304.5</ele>
        <time>2024-09-25T14:38:09Z</time>
      </trkpt>
      <trkpt lat="45.82087" lon="1.23024">
        <ele>304.6</ele>
        <time>2024-09-25T14:38:10Z</time>
      </trkpt>
      <trkpt lat="45.82088" lon="1.2302">
        <ele>304.6</ele>
        <time>2024-09-25T14:38:11Z</time>
      </trkpt>
      <trkpt lat="45.82089" lon="1.23016">
        <ele>304.7</ele>
        <time>2024-09-25T14:38:12Z</time>
      </trkpt>
      <trkpt lat="45.82091" lon="1.23011">
        <ele>304.7</ele>
        <time>2024-09-25T14:38:14Z</time>
      </trkpt>
      <trkpt lat="45.82094" lon="1.23005">
        <ele>304.8</ele>
        <time>2024-09-25T14:38:16Z</time>
      </trkpt>
      <trkpt lat="45.82096" lon="1.23001">
        <ele>304.8</ele>
        <time>2024-09-25T14:38:17Z</time>
      </trkpt>
      <trkpt lat="45.82099" lon="1.22998">
        <ele>304.8</ele>
        <time>2024-09-25T14:38:18Z</time>
      </trkpt>
      <trkpt lat="45.82102" lon="1.22995">
        <ele>304.8</ele>
        <time>2024-09-25T14:38:19Z</time>
      </trkpt>
      <trkpt lat="45.82106" lon="1.22991">
        <ele>304.7</ele>
        <time>2024-09-25T14:38:20Z</time>
      </trkpt>
      <trkpt lat="45.8211" lon="1.22986">
        <ele>304.7</ele>
        <time>2024-09-25T14:38:21Z</time>
      </trkpt>
      <trkpt lat="45.82113" lon="1.22981">
        <ele>304.6</ele>
        <time>2024-09-25T14:38:22Z</time>
      </trkpt>
      <trkpt lat="45.82116" lon="1.22975">
        <ele>304.5</ele>
        <time>2024-09-25T14:38:23Z</time>
      </trkpt>
      <trkpt lat="45.8212" lon="1.22969">
        <ele>304.5</ele>
        <time>2024-09-25T14:38:24Z</time>
      </trkpt>
      <trkpt lat="45.82123" lon="1.22964">
        <ele>304.4</ele>
        <time>2024-09-25T14:38:25Z</time>
      </trkpt>
      <trkpt lat="45.82126" lon="1.22958">
        <ele>304.3</ele>
        <time>2024-09-25T14:38:26Z</time>
      </trkpt>
      <trkpt lat="45.82128" lon="1.22952">
        <ele>304.3</ele>
        <time>2024-09-25T14:38:27Z</time>
      </trkpt>
      <trkpt lat="45.82131" lon="1.22946">
        <ele>304.2</ele>
        <time>2024-09-25T14:38:28Z</time>
      </trkpt>
      <trkpt lat="45.82134" lon="1.2294">
        <ele>304.1</ele>
        <time>2024-09-25T14:38:29Z</time>
      </trkpt>
      <trkpt lat="45.82137" lon="1.22933">
        <ele>304.1</ele>
        <time>2024-09-25T14:38:30Z</time>
      </trkpt>
      <trkpt lat="45.8214" lon="1.22926">
        <ele>304</ele>
        <time>2024-09-25T14:38:31Z</time>
      </trkpt>
      <trkpt lat="45.82144" lon="1.2292">
        <ele>303.9</ele>
        <time>2024-09-25T14:38:32Z</time>
      </trkpt>
      <trkpt lat="45.82147" lon="1.22913">
        <ele>303.9</ele>
        <time>2024-09-25T14:38:33Z</time>
      </trkpt>
      <trkpt lat="45.8215" lon="1.22907">
        <ele>303.8</ele>
        <time>2024-09-25T14:38:34Z</time>
      </trkpt>
      <trkpt lat="45.82154" lon="1.22901">
        <ele>303.8</ele>
        <time>2024-09-25T14:38:35Z</time>
      </trkpt>
      <trkpt lat="45.82157" lon="1.22894">
        <ele>303.7</ele>
        <time>2024-09-25T14:38:36Z</time>
      </trkpt>
      <trkpt lat="45.82161" lon="1.22887">
        <ele>303.6</ele>
        <time>2024-09-25T14:38:37Z</time>
      </trkpt>
      <trkpt lat="45.82164" lon="1.2288">
        <ele>303.5</ele>
        <time>2024-09-25T14:38:38Z</time>
      </trkpt>
      <trkpt lat="45.82167" lon="1.22874">
        <ele>303.5</ele>
        <time>2024-09-25T14:38:39Z</time>
      </trkpt>
      <trkpt lat="45.82171" lon="1.22868">
        <ele>303.4</ele>
        <time>2024-09-25T14:38:40Z</time>
      </trkpt>
      <trkpt lat="45.82175" lon="1.22864">
        <ele>303.3</ele>
        <time>2024-09-25T14:38:41Z</time>
      </trkpt>
      <trkpt lat="45.82179" lon="1.22858">
        <ele>303.2</ele>
        <time>2024-09-25T14:38:42Z</time>
      </trkpt>
      <trkpt lat="45.82183" lon="1.22851">
        <ele>303.1</ele>
        <time>2024-09-25T14:38:43Z</time>
      </trkpt>
      <trkpt lat="45.82187" lon="1.22844">
        <ele>303</ele>
        <time>2024-09-25T14:38:44Z</time>
      </trkpt>
      <trkpt lat="45.82191" lon="1.22838">
        <ele>302.9</ele>
        <time>2024-09-25T14:38:45Z</time>
      </trkpt>
      <trkpt lat="45.82195" lon="1.22832">
        <ele>302.7</ele>
        <time>2024-09-25T14:38:46Z</time>
      </trkpt>
      <trkpt lat="45.82197" lon="1.22826">
        <ele>302.7</ele>
        <time>2024-09-25T14:38:47Z</time>
      </trkpt>
      <trkpt lat="45.82199" lon="1.2282">
        <ele>302.6</ele>
        <time>2024-09-25T14:38:49Z</time>
      </trkpt>
      <trkpt lat="45.82202" lon="1.22816">
        <ele>302.5</ele>
        <time>2024-09-25T14:38:55Z</time>
      </trkpt>
      <trkpt lat="45.82204" lon="1.22813">
        <ele>302.4</ele>
        <time>2024-09-25T14:38:57Z</time>
      </trkpt>
      <trkpt lat="45.82208" lon="1.22809">
        <ele>302.4</ele>
        <time>2024-09-25T14:38:59Z</time>
      </trkpt>
      <trkpt lat="45.82211" lon="1.22805">
        <ele>302.3</ele>
        <time>2024-09-25T14:39:00Z</time>
      </trkpt>
      <trkpt lat="45.82214" lon="1.22802">
        <ele>302.3</ele>
        <time>2024-09-25T14:39:01Z</time>
      </trkpt>
      <trkpt lat="45.82218" lon="1.22799">
        <ele>302.3</ele>
        <time>2024-09-25T14:39:02Z</time>
      </trkpt>
      <trkpt lat="45.82221" lon="1.22796">
        <ele>302.3</ele>
        <time>2024-09-25T14:39:03Z</time>
      </trkpt>
      <trkpt lat="45.82225" lon="1.22793">
        <ele>302.3</ele>
        <time>2024-09-25T14:39:04Z</time>
      </trkpt>
      <trkpt lat="45.82228" lon="1.22789">
        <ele>302.3</ele>
        <time>2024-09-25T14:39:05Z</time>
      </trkpt>
      <trkpt lat="45.82232" lon="1.22784">
        <ele>302.3</ele>
        <time>2024-09-25T14:39:06Z</time>
      </trkpt>
      <trkpt lat="45.82236" lon="1.2278">
        <ele>302.3</ele>
        <time>2024-09-25T14:39:07Z</time>
      </trkpt>
      <trkpt lat="45.8224" lon="1.22776">
        <ele>302.3</ele>
        <time>2024-09-25T14:39:08Z</time>
      </trkpt>
      <trkpt lat="45.82244" lon="1.22772">
        <ele>302.3</ele>
        <time>2024-09-25T14:39:09Z</time>
      </trkpt>
      <trkpt lat="45.82248" lon="1.22767">
        <ele>302.4</ele>
        <time>2024-09-25T14:39:10Z</time>
      </trkpt>
      <trkpt lat="45.82251" lon="1.22762">
        <ele>302.4</ele>
        <time>2024-09-25T14:39:11Z</time>
      </trkpt>
      <trkpt lat="45.82255" lon="1.22758">
        <ele>302.5</ele>
        <time>2024-09-25T14:39:12Z</time>
      </trkpt>
      <trkpt lat="45.82259" lon="1.22754">
        <ele>302.5</ele>
        <time>2024-09-25T14:39:13Z</time>
      </trkpt>
      <trkpt lat="45.82263" lon="1.2275">
        <ele>302.6</ele>
        <time>2024-09-25T14:39:14Z</time>
      </trkpt>
      <trkpt lat="45.82267" lon="1.22745">
        <ele>302.7</ele>
        <time>2024-09-25T14:39:15Z</time>
      </trkpt>
      <trkpt lat="45.82271" lon="1.2274">
        <ele>302.9</ele>
        <time>2024-09-25T14:39:16Z</time>
      </trkpt>
      <trkpt lat="45.82274" lon="1.22736">
        <ele>303</ele>
        <time>2024-09-25T14:39:17Z</time>
      </trkpt>
      <trkpt lat="45.82278" lon="1.22733">
        <ele>303.1</ele>
        <time>2024-09-25T14:39:18Z</time>
      </trkpt>
      <trkpt lat="45.82282" lon="1.22729">
        <ele>303.2</ele>
        <time>2024-09-25T14:39:19Z</time>
      </trkpt>
      <trkpt lat="45.82285" lon="1.22724">
        <ele>303.4</ele>
        <time>2024-09-25T14:39:20Z</time>
      </trkpt>
      <trkpt lat="45.82289" lon="1.22719">
        <ele>303.5</ele>
        <time>2024-09-25T14:39:21Z</time>
      </trkpt>
      <trkpt lat="45.82292" lon="1.22716">
        <ele>303.6</ele>
        <time>2024-09-25T14:39:22Z</time>
      </trkpt>
      <trkpt lat="45.82296" lon="1.22712">
        <ele>303.8</ele>
        <time>2024-09-25T14:39:23Z</time>
      </trkpt>
      <trkpt lat="45.82299" lon="1.22708">
        <ele>303.9</ele>
        <time>2024-09-25T14:39:24Z</time>
      </trkpt>
      <trkpt lat="45.82303" lon="1.22704">
        <ele>304</ele>
        <time>2024-09-25T14:39:25Z</time>
      </trkpt>
      <trkpt lat="45.82306" lon="1.227">
        <ele>304.1</ele>
        <time>2024-09-25T14:39:26Z</time>
      </trkpt>
      <trkpt lat="45.8231" lon="1.22696">
        <ele>304.3</ele>
        <time>2024-09-25T14:39:27Z</time>
      </trkpt>
      <trkpt lat="45.82313" lon="1.22693">
        <ele>304.4</ele>
        <time>2024-09-25T14:39:28Z</time>
      </trkpt>
      <trkpt lat="45.82316" lon="1.2269">
        <ele>304.4</ele>
        <time>2024-09-25T14:39:29Z</time>
      </trkpt>
      <trkpt lat="45.8232" lon="1.22687">
        <ele>304.6</ele>
        <time>2024-09-25T14:39:30Z</time>
      </trkpt>
      <trkpt lat="45.82323" lon="1.22684">
        <ele>304.8</ele>
        <time>2024-09-25T14:39:31Z</time>
      </trkpt>
      <trkpt lat="45.82326" lon="1.22681">
        <ele>304.9</ele>
        <time>2024-09-25T14:39:32Z</time>
      </trkpt>
      <trkpt lat="45.8233" lon="1.22677">
        <ele>305.1</ele>
        <time>2024-09-25T14:39:33Z</time>
      </trkpt>
      <trkpt lat="45.82333" lon="1.22673">
        <ele>305.3</ele>
        <time>2024-09-25T14:39:34Z</time>
      </trkpt>
      <trkpt lat="45.82336" lon="1.22669">
        <ele>305.4</ele>
        <time>2024-09-25T14:39:35Z</time>
      </trkpt>
      <trkpt lat="45.82339" lon="1.22665">
        <ele>305.6</ele>
        <time>2024-09-25T14:39:36Z</time>
      </trkpt>
      <trkpt lat="45.82343" lon="1.22661">
        <ele>305.8</ele>
        <time>2024-09-25T14:39:37Z</time>
      </trkpt>
      <trkpt lat="45.82346" lon="1.22656">
        <ele>306</ele>
        <time>2024-09-25T14:39:38Z</time>
      </trkpt>
      <trkpt lat="45.82349" lon="1.22652">
        <ele>306.1</ele>
        <time>2024-09-25T14:39:39Z</time>
      </trkpt>
      <trkpt lat="45.82352" lon="1.22647">
        <ele>306.3</ele>
        <time>2024-09-25T14:39:40Z</time>
      </trkpt>
      <trkpt lat="45.82355" lon="1.22643">
        <ele>306.5</ele>
        <time>2024-09-25T14:39:41Z</time>
      </trkpt>
      <trkpt lat="45.82359" lon="1.22639">
        <ele>306.6</ele>
        <time>2024-09-25T14:39:42Z</time>
      </trkpt>
      <trkpt lat="45.82362" lon="1.22635">
        <ele>306.8</ele>
        <time>2024-09-25T14:39:43Z</time>
      </trkpt>
      <trkpt lat="45.82365" lon="1.22631">
        <ele>306.9</ele>
        <time>2024-09-25T14:39:44Z</time>
      </trkpt>
      <trkpt lat="45.82369" lon="1.22627">
        <ele>307.1</ele>
        <time>2024-09-25T14:39:45Z</time>
      </trkpt>
      <trkpt lat="45.82372" lon="1.22624">
        <ele>307.2</ele>
        <time>2024-09-25T14:39:46Z</time>
      </trkpt>
      <trkpt lat="45.82375" lon="1.22621">
        <ele>307.3</ele>
        <time>2024-09-25T14:39:47Z</time>
      </trkpt>
      <trkpt lat="45.82378" lon="1.22618">
        <ele>307.5</ele>
        <time>2024-09-25T14:39:48Z</time>
      </trkpt>
      <trkpt lat="45.82381" lon="1.22615">
        <ele>307.6</ele>
        <time>2024-09-25T14:39:49Z</time>
      </trkpt>
      <trkpt lat="45.82384" lon="1.22613">
        <ele>307.7</ele>
        <time>2024-09-25T14:39:50Z</time>
      </trkpt>
      <trkpt lat="45.82387" lon="1.2261">
        <ele>307.8</ele>
        <time>2024-09-25T14:39:51Z</time>
      </trkpt>
      <trkpt lat="45.8239" lon="1.22608">
        <ele>307.9</ele>
        <time>2024-09-25T14:39:52Z</time>
      </trkpt>
      <trkpt lat="45.82392" lon="1.22605">
        <ele>307.9</ele>
        <time>2024-09-25T14:39:53Z</time>
      </trkpt>
      <trkpt lat="45.82396" lon="1.226">
        <ele>308</ele>
        <time>2024-09-25T14:39:55Z</time>
      </trkpt>
      <trkpt lat="45.82399" lon="1.22597">
        <ele>308.1</ele>
        <time>2024-09-25T14:39:56Z</time>
      </trkpt>
      <trkpt lat="45.82402" lon="1.22594">
        <ele>308.1</ele>
        <time>2024-09-25T14:39:57Z</time>
      </trkpt>
      <trkpt lat="45.82405" lon="1.22591">
        <ele>308.1</ele>
        <time>2024-09-25T14:39:59Z</time>
      </trkpt>
      <trkpt lat="45.82407" lon="1.22587">
        <ele>308.1</ele>
        <time>2024-09-25T14:40:38Z</time>
      </trkpt>
      <trkpt lat="45.8241" lon="1.22582">
        <ele>308.1</ele>
        <time>2024-09-25T14:40:40Z</time>
      </trkpt>
      <trkpt lat="45.82413" lon="1.22579">
        <ele>308.2</ele>
        <time>2024-09-25T14:40:41Z</time>
      </trkpt>
      <trkpt lat="45.82416" lon="1.22577">
        <ele>308.3</ele>
        <time>2024-09-25T14:40:42Z</time>
      </trkpt>
      <trkpt lat="45.82419" lon="1.22575">
        <ele>308.3</ele>
        <time>2024-09-25T14:40:43Z</time>
      </trkpt>
      <trkpt lat="45.82422" lon="1.22573">
        <ele>308.3</ele>
        <time>2024-09-25T14:40:44Z</time>
      </trkpt>
      <trkpt lat="45.82425" lon="1.22571">
        <ele>308.4</ele>
        <time>2024-09-25T14:40:45Z</time>
      </trkpt>
      <trkpt lat="45.82428" lon="1.2257">
        <ele>308.5</ele>
        <time>2024-09-25T14:40:46Z</time>
      </trkpt>
      <trkpt lat="45.8243" lon="1.22572">
        <ele>308.6</ele>
        <time>2024-09-25T14:40:47Z</time>
      </trkpt>
      <trkpt lat="45.82433" lon="1.22575">
        <ele>308.7</ele>
        <time>2024-09-25T14:40:48Z</time>
      </trkpt>
      <trkpt lat="45.82436" lon="1.22577">
        <ele>308.9</ele>
        <time>2024-09-25T14:40:49Z</time>
      </trkpt>
      <trkpt lat="45.8244" lon="1.22578">
        <ele>309.1</ele>
        <time>2024-09-25T14:40:50Z</time>
      </trkpt>
      <trkpt lat="45.82444" lon="1.22578">
        <ele>309.2</ele>
        <time>2024-09-25T14:40:51Z</time>
      </trkpt>
      <trkpt lat="45.82448" lon="1.22577">
        <ele>309.4</ele>
        <time>2024-09-25T14:40:52Z</time>
      </trkpt>
      <trkpt lat="45.82452" lon="1.22576">
        <ele>309.5</ele>
        <time>2024-09-25T14:40:53Z</time>
      </trkpt>
      <trkpt lat="45.82456" lon="1.22574">
        <ele>309.6</ele>
        <time>2024-09-25T14:40:54Z</time>
      </trkpt>
      <trkpt lat="45.82459" lon="1.22573">
        <ele>309.7</ele>
        <time>2024-09-25T14:40:55Z</time>
      </trkpt>
      <trkpt lat="45.82463" lon="1.22571">
        <ele>309.8</ele>
        <time>2024-09-25T14:40:56Z</time>
      </trkpt>
      <trkpt lat="45.82467" lon="1.22569">
        <ele>310</ele>
        <time>2024-09-25T14:40:57Z</time>
      </trkpt>
      <trkpt lat="45.82471" lon="1.22568">
        <ele>310</ele>
        <time>2024-09-25T14:40:58Z</time>
      </trkpt>
      <trkpt lat="45.82475" lon="1.22567">
        <ele>310.1</ele>
        <time>2024-09-25T14:40:59Z</time>
      </trkpt>
      <trkpt lat="45.82478" lon="1.22565">
        <ele>310.2</ele>
        <time>2024-09-25T14:41:00Z</time>
      </trkpt>
      <trkpt lat="45.82483" lon="1.22562">
        <ele>310.3</ele>
        <time>2024-09-25T14:41:01Z</time>
      </trkpt>
      <trkpt lat="45.82487" lon="1.2256">
        <ele>310.3</ele>
        <time>2024-09-25T14:41:02Z</time>
      </trkpt>
      <trkpt lat="45.8249" lon="1.22559">
        <ele>310.3</ele>
        <time>2024-09-25T14:41:03Z</time>
      </trkpt>
      <trkpt lat="45.82495" lon="1.22556">
        <ele>310.3</ele>
        <time>2024-09-25T14:41:04Z</time>
      </trkpt>
      <trkpt lat="45.82499" lon="1.22554">
        <ele>310.3</ele>
        <time>2024-09-25T14:41:05Z</time>
      </trkpt>
      <trkpt lat="45.82504" lon="1.22553">
        <ele>310.3</ele>
        <time>2024-09-25T14:41:06Z</time>
      </trkpt>
      <trkpt lat="45.82509" lon="1.22552">
        <ele>310.3</ele>
        <time>2024-09-25T14:41:07Z</time>
      </trkpt>
      <trkpt lat="45.82514" lon="1.2255">
        <ele>310.2</ele>
        <time>2024-09-25T14:41:08Z</time>
      </trkpt>
      <trkpt lat="45.82519" lon="1.22549">
        <ele>310.1</ele>
        <time>2024-09-25T14:41:09Z</time>
      </trkpt>
      <trkpt lat="45.82524" lon="1.22548">
        <ele>310.1</ele>
        <time>2024-09-25T14:41:10Z</time>
      </trkpt>
      <trkpt lat="45.82529" lon="1.22547">
        <ele>310</ele>
        <time>2024-09-25T14:41:11Z</time>
      </trkpt>
      <trkpt lat="45.82534" lon="1.22547">
        <ele>309.9</ele>
        <time>2024-09-25T14:41:12Z</time>
      </trkpt>
      <trkpt lat="45.82539" lon="1.22547">
        <ele>309.8</ele>
        <time>2024-09-25T14:41:13Z</time>
      </trkpt>
      <trkpt lat="45.82543" lon="1.22547">
        <ele>309.6</ele>
        <time>2024-09-25T14:41:14Z</time>
      </trkpt>
      <trkpt lat="45.82548" lon="1.22547">
        <ele>309.5</ele>
        <time>2024-09-25T14:41:15Z</time>
      </trkpt>
      <trkpt lat="45.82553" lon="1.22547">
        <ele>309.3</ele>
        <time>2024-09-25T14:41:16Z</time>
      </trkpt>
      <trkpt lat="45.82558" lon="1.22548">
        <ele>309.1</ele>
        <time>2024-09-25T14:41:17Z</time>
      </trkpt>
      <trkpt lat="45.82562" lon="1.22548">
        <ele>308.9</ele>
        <time>2024-09-25T14:41:18Z</time>
      </trkpt>
      <trkpt lat="45.82567" lon="1.22548">
        <ele>308.7</ele>
        <time>2024-09-25T14:41:19Z</time>
      </trkpt>
      <trkpt lat="45.82573" lon="1.22548">
        <ele>308.4</ele>
        <time>2024-09-25T14:41:20Z</time>
      </trkpt>
      <trkpt lat="45.82578" lon="1.22549">
        <ele>308.1</ele>
        <time>2024-09-25T14:41:21Z</time>
      </trkpt>
      <trkpt lat="45.82584" lon="1.22549">
        <ele>307.8</ele>
        <time>2024-09-25T14:41:22Z</time>
      </trkpt>
      <trkpt lat="45.8259" lon="1.2255">
        <ele>307.5</ele>
        <time>2024-09-25T14:41:23Z</time>
      </trkpt>
      <trkpt lat="45.82596" lon="1.22551">
        <ele>307.1</ele>
        <time>2024-09-25T14:41:24Z</time>
      </trkpt>
      <trkpt lat="45.82602" lon="1.22553">
        <ele>306.8</ele>
        <time>2024-09-25T14:41:25Z</time>
      </trkpt>
      <trkpt lat="45.82608" lon="1.22554">
        <ele>306.5</ele>
        <time>2024-09-25T14:41:26Z</time>
      </trkpt>
      <trkpt lat="45.82614" lon="1.22555">
        <ele>306.1</ele>
        <time>2024-09-25T14:41:27Z</time>
      </trkpt>
      <trkpt lat="45.8262" lon="1.22557">
        <ele>305.7</ele>
        <time>2024-09-25T14:41:28Z</time>
      </trkpt>
      <trkpt lat="45.82626" lon="1.22559">
        <ele>305.3</ele>
        <time>2024-09-25T14:41:29Z</time>
      </trkpt>
      <trkpt lat="45.82633" lon="1.22562">
        <ele>304.9</ele>
        <time>2024-09-25T14:41:30Z</time>
      </trkpt>
      <trkpt lat="45.82639" lon="1.22565">
        <ele>304.4</ele>
        <time>2024-09-25T14:41:31Z</time>
      </trkpt>
      <trkpt lat="45.82646" lon="1.22568">
        <ele>303.8</ele>
        <time>2024-09-25T14:41:32Z</time>
      </trkpt>
      <trkpt lat="45.82652" lon="1.22571">
        <ele>303.3</ele>
        <time>2024-09-25T14:41:33Z</time>
      </trkpt>
      <trkpt lat="45.82659" lon="1.22576">
        <ele>302.7</ele>
        <time>2024-09-25T14:41:34Z</time>
      </trkpt>
      <trkpt lat="45.82666" lon="1.2258">
        <ele>302.1</ele>
        <time>2024-09-25T14:41:35Z</time>
      </trkpt>
      <trkpt lat="45.82674" lon="1.22585">
        <ele>301.5</ele>
        <time>2024-09-25T14:41:36Z</time>
      </trkpt>
      <trkpt lat="45.82681" lon="1.22589">
        <ele>300.9</ele>
        <time>2024-09-25T14:41:37Z</time>
      </trkpt>
      <trkpt lat="45.82689" lon="1.22594">
        <ele>300.3</ele>
        <time>2024-09-25T14:41:38Z</time>
      </trkpt>
      <trkpt lat="45.82697" lon="1.22599">
        <ele>299.7</ele>
        <time>2024-09-25T14:41:39Z</time>
      </trkpt>
      <trkpt lat="45.82706" lon="1.22605">
        <ele>299</ele>
        <time>2024-09-25T14:41:40Z</time>
      </trkpt>
      <trkpt lat="45.82715" lon="1.2261">
        <ele>298.3</ele>
        <time>2024-09-25T14:41:41Z</time>
      </trkpt>
      <trkpt lat="45.82723" lon="1.22614">
        <ele>297.7</ele>
        <time>2024-09-25T14:41:42Z</time>
      </trkpt>
      <trkpt lat="45.82731" lon="1.22618">
        <ele>297.1</ele>
        <time>2024-09-25T14:41:43Z</time>
      </trkpt>
      <trkpt lat="45.82738" lon="1.22621">
        <ele>296.6</ele>
        <time>2024-09-25T14:41:44Z</time>
      </trkpt>
      <trkpt lat="45.82744" lon="1.22622">
        <ele>296.1</ele>
        <time>2024-09-25T14:41:45Z</time>
      </trkpt>
      <trkpt lat="45.82749" lon="1.22624">
        <ele>295.8</ele>
        <time>2024-09-25T14:41:46Z</time>
      </trkpt>
      <trkpt lat="45.82755" lon="1.22625">
        <ele>295.7</ele>
        <time>2024-09-25T14:41:47Z</time>
      </trkpt>
      <trkpt lat="45.82761" lon="1.22627">
        <ele>295.5</ele>
        <time>2024-09-25T14:41:48Z</time>
      </trkpt>
      <trkpt lat="45.82766" lon="1.22629">
        <ele>295.3</ele>
        <time>2024-09-25T14:41:49Z</time>
      </trkpt>
      <trkpt lat="45.82772" lon="1.22631">
        <ele>295.2</ele>
        <time>2024-09-25T14:41:50Z</time>
      </trkpt>
      <trkpt lat="45.82778" lon="1.22634">
        <ele>295</ele>
        <time>2024-09-25T14:41:51Z</time>
      </trkpt>
      <trkpt lat="45.82784" lon="1.22638">
        <ele>294.8</ele>
        <time>2024-09-25T14:41:52Z</time>
      </trkpt>
      <trkpt lat="45.8279" lon="1.2264">
        <ele>294.6</ele>
        <time>2024-09-25T14:41:53Z</time>
      </trkpt>
      <trkpt lat="45.82795" lon="1.22643">
        <ele>294.4</ele>
        <time>2024-09-25T14:41:54Z</time>
      </trkpt>
      <trkpt lat="45.82801" lon="1.22645">
        <ele>294.2</ele>
        <time>2024-09-25T14:41:55Z</time>
      </trkpt>
      <trkpt lat="45.82807" lon="1.22646">
        <ele>294.1</ele>
        <time>2024-09-25T14:41:56Z</time>
      </trkpt>
      <trkpt lat="45.82814" lon="1.22647">
        <ele>293.8</ele>
        <time>2024-09-25T14:41:57Z</time>
      </trkpt>
      <trkpt lat="45.8282" lon="1.22647">
        <ele>293.7</ele>
        <time>2024-09-25T14:41:58Z</time>
      </trkpt>
      <trkpt lat="45.82827" lon="1.22647">
        <ele>293.5</ele>
        <time>2024-09-25T14:41:59Z</time>
      </trkpt>
      <trkpt lat="45.82833" lon="1.22648">
        <ele>293.3</ele>
        <time>2024-09-25T14:42:00Z</time>
      </trkpt>
      <trkpt lat="45.82839" lon="1.22648">
        <ele>293.2</ele>
        <time>2024-09-25T14:42:01Z</time>
      </trkpt>
      <trkpt lat="45.82845" lon="1.22647">
        <ele>293.1</ele>
        <time>2024-09-25T14:42:02Z</time>
      </trkpt>
      <trkpt lat="45.82851" lon="1.22646">
        <ele>293</ele>
        <time>2024-09-25T14:42:03Z</time>
      </trkpt>
      <trkpt lat="45.82858" lon="1.22644">
        <ele>292.9</ele>
        <time>2024-09-25T14:42:04Z</time>
      </trkpt>
      <trkpt lat="45.82864" lon="1.22642">
        <ele>292.8</ele>
        <time>2024-09-25T14:42:05Z</time>
      </trkpt>
      <trkpt lat="45.82869" lon="1.2264">
        <ele>292.7</ele>
        <time>2024-09-25T14:42:06Z</time>
      </trkpt>
      <trkpt lat="45.82875" lon="1.22638">
        <ele>292.6</ele>
        <time>2024-09-25T14:42:07Z</time>
      </trkpt>
      <trkpt lat="45.82882" lon="1.22636">
        <ele>292.4</ele>
        <time>2024-09-25T14:42:08Z</time>
      </trkpt>
      <trkpt lat="45.82888" lon="1.22634">
        <ele>292.3</ele>
        <time>2024-09-25T14:42:09Z</time>
      </trkpt>
      <trkpt lat="45.82894" lon="1.22632">
        <ele>292.2</ele>
        <time>2024-09-25T14:42:10Z</time>
      </trkpt>
      <trkpt lat="45.829" lon="1.2263">
        <ele>292.1</ele>
        <time>2024-09-25T14:42:11Z</time>
      </trkpt>
      <trkpt lat="45.82906" lon="1.22627">
        <ele>291.9</ele>
        <time>2024-09-25T14:42:12Z</time>
      </trkpt>
      <trkpt lat="45.82911" lon="1.22623">
        <ele>291.8</ele>
        <time>2024-09-25T14:42:13Z</time>
      </trkpt>
      <trkpt lat="45.82916" lon="1.2262">
        <ele>291.7</ele>
        <time>2024-09-25T14:42:14Z</time>
      </trkpt>
      <trkpt lat="45.82921" lon="1.22617">
        <ele>291.6</ele>
        <time>2024-09-25T14:42:15Z</time>
      </trkpt>
      <trkpt lat="45.82926" lon="1.22613">
        <ele>291.5</ele>
        <time>2024-09-25T14:42:16Z</time>
      </trkpt>
      <trkpt lat="45.82931" lon="1.22611">
        <ele>291.4</ele>
        <time>2024-09-25T14:42:17Z</time>
      </trkpt>
      <trkpt lat="45.82936" lon="1.22607">
        <ele>291.3</ele>
        <time>2024-09-25T14:42:18Z</time>
      </trkpt>
      <trkpt lat="45.82942" lon="1.22604">
        <ele>291.2</ele>
        <time>2024-09-25T14:42:19Z</time>
      </trkpt>
      <trkpt lat="45.82946" lon="1.22602">
        <ele>291.1</ele>
        <time>2024-09-25T14:42:20Z</time>
      </trkpt>
      <trkpt lat="45.82951" lon="1.226">
        <ele>291</ele>
        <time>2024-09-25T14:42:21Z</time>
      </trkpt>
      <trkpt lat="45.82957" lon="1.22597">
        <ele>290.9</ele>
        <time>2024-09-25T14:42:22Z</time>
      </trkpt>
      <trkpt lat="45.82963" lon="1.22594">
        <ele>290.8</ele>
        <time>2024-09-25T14:42:23Z</time>
      </trkpt>
      <trkpt lat="45.82969" lon="1.22591">
        <ele>290.6</ele>
        <time>2024-09-25T14:42:24Z</time>
      </trkpt>
      <trkpt lat="45.82975" lon="1.22588">
        <ele>290.5</ele>
        <time>2024-09-25T14:42:25Z</time>
      </trkpt>
      <trkpt lat="45.82981" lon="1.22585">
        <ele>290.4</ele>
        <time>2024-09-25T14:42:26Z</time>
      </trkpt>
      <trkpt lat="45.82987" lon="1.22581">
        <ele>290.2</ele>
        <time>2024-09-25T14:42:27Z</time>
      </trkpt>
      <trkpt lat="45.82993" lon="1.22577">
        <ele>290.1</ele>
        <time>2024-09-25T14:42:28Z</time>
      </trkpt>
      <trkpt lat="45.82999" lon="1.22573">
        <ele>290</ele>
        <time>2024-09-25T14:42:29Z</time>
      </trkpt>
      <trkpt lat="45.83005" lon="1.2257">
        <ele>289.8</ele>
        <time>2024-09-25T14:42:30Z</time>
      </trkpt>
      <trkpt lat="45.83011" lon="1.22566">
        <ele>289.7</ele>
        <time>2024-09-25T14:42:31Z</time>
      </trkpt>
      <trkpt lat="45.83017" lon="1.22563">
        <ele>289.6</ele>
        <time>2024-09-25T14:42:32Z</time>
      </trkpt>
      <trkpt lat="45.83023" lon="1.2256">
        <ele>289.4</ele>
        <time>2024-09-25T14:42:33Z</time>
      </trkpt>
      <trkpt lat="45.83029" lon="1.22556">
        <ele>289.3</ele>
        <time>2024-09-25T14:42:34Z</time>
      </trkpt>
      <trkpt lat="45.83035" lon="1.22553">
        <ele>289.2</ele>
        <time>2024-09-25T14:42:35Z</time>
      </trkpt>
      <trkpt lat="45.83041" lon="1.22549">
        <ele>289.1</ele>
        <time>2024-09-25T14:42:36Z</time>
      </trkpt>
      <trkpt lat="45.83047" lon="1.22546">
        <ele>289</ele>
        <time>2024-09-25T14:42:37Z</time>
      </trkpt>
      <trkpt lat="45.83052" lon="1.22543">
        <ele>288.9</ele>
        <time>2024-09-25T14:42:38Z</time>
      </trkpt>
      <trkpt lat="45.83058" lon="1.22539">
        <ele>288.8</ele>
        <time>2024-09-25T14:42:39Z</time>
      </trkpt>
      <trkpt lat="45.83065" lon="1.22535">
        <ele>288.7</ele>
        <time>2024-09-25T14:42:40Z</time>
      </trkpt>
      <trkpt lat="45.83071" lon="1.22532">
        <ele>288.6</ele>
        <time>2024-09-25T14:42:41Z</time>
      </trkpt>
      <trkpt lat="45.83077" lon="1.22528">
        <ele>288.5</ele>
        <time>2024-09-25T14:42:42Z</time>
      </trkpt>
      <trkpt lat="45.83084" lon="1.22525">
        <ele>288.5</ele>
        <time>2024-09-25T14:42:43Z</time>
      </trkpt>
      <trkpt lat="45.83089" lon="1.22522">
        <ele>288.4</ele>
        <time>2024-09-25T14:42:44Z</time>
      </trkpt>
      <trkpt lat="45.83096" lon="1.2252">
        <ele>288.3</ele>
        <time>2024-09-25T14:42:45Z</time>
      </trkpt>
      <trkpt lat="45.83102" lon="1.22516">
        <ele>288.2</ele>
        <time>2024-09-25T14:42:46Z</time>
      </trkpt>
      <trkpt lat="45.83108" lon="1.22513">
        <ele>288.2</ele>
        <time>2024-09-25T14:42:47Z</time>
      </trkpt>
      <trkpt lat="45.83113" lon="1.2251">
        <ele>288.1</ele>
        <time>2024-09-25T14:42:48Z</time>
      </trkpt>
      <trkpt lat="45.83119" lon="1.22506">
        <ele>288</ele>
        <time>2024-09-25T14:42:49Z</time>
      </trkpt>
      <trkpt lat="45.83125" lon="1.22503">
        <ele>287.9</ele>
        <time>2024-09-25T14:42:50Z</time>
      </trkpt>
      <trkpt lat="45.8313" lon="1.22501">
        <ele>287.8</ele>
        <time>2024-09-25T14:42:51Z</time>
      </trkpt>
      <trkpt lat="45.83135" lon="1.22498">
        <ele>287.7</ele>
        <time>2024-09-25T14:42:52Z</time>
      </trkpt>
      <trkpt lat="45.83141" lon="1.22495">
        <ele>287.6</ele>
        <time>2024-09-25T14:42:53Z</time>
      </trkpt>
      <trkpt lat="45.83147" lon="1.22491">
        <ele>287.4</ele>
        <time>2024-09-25T14:42:54Z</time>
      </trkpt>
      <trkpt lat="45.83153" lon="1.22488">
        <ele>287.2</ele>
        <time>2024-09-25T14:42:55Z</time>
      </trkpt>
      <trkpt lat="45.8316" lon="1.22485">
        <ele>287</ele>
        <time>2024-09-25T14:42:56Z</time>
      </trkpt>
      <trkpt lat="45.83166" lon="1.22483">
        <ele>286.8</ele>
        <time>2024-09-25T14:42:57Z</time>
      </trkpt>
      <trkpt lat="45.83173" lon="1.2248">
        <ele>286.5</ele>
        <time>2024-09-25T14:42:58Z</time>
      </trkpt>
      <trkpt lat="45.8318" lon="1.22477">
        <ele>286.2</ele>
        <time>2024-09-25T14:42:59Z</time>
      </trkpt>
      <trkpt lat="45.83187" lon="1.22475">
        <ele>285.8</ele>
        <time>2024-09-25T14:43:00Z</time>
      </trkpt>
      <trkpt lat="45.83193" lon="1.22473">
        <ele>285.5</ele>
        <time>2024-09-25T14:43:01Z</time>
      </trkpt>
      <trkpt lat="45.832" lon="1.22472">
        <ele>285.1</ele>
        <time>2024-09-25T14:43:02Z</time>
      </trkpt>
      <trkpt lat="45.83206" lon="1.2247">
        <ele>284.8</ele>
        <time>2024-09-25T14:43:03Z</time>
      </trkpt>
      <trkpt lat="45.83213" lon="1.2247">
        <ele>284.4</ele>
        <time>2024-09-25T14:43:04Z</time>
      </trkpt>
      <trkpt lat="45.83221" lon="1.22471">
        <ele>283.9</ele>
        <time>2024-09-25T14:43:05Z</time>
      </trkpt>
      <trkpt lat="45.83229" lon="1.22471">
        <ele>283.4</ele>
        <time>2024-09-25T14:43:06Z</time>
      </trkpt>
      <trkpt lat="45.83237" lon="1.22471">
        <ele>282.9</ele>
        <time>2024-09-25T14:43:07Z</time>
      </trkpt>
      <trkpt lat="45.83244" lon="1.22471">
        <ele>282.4</ele>
        <time>2024-09-25T14:43:08Z</time>
      </trkpt>
      <trkpt lat="45.83253" lon="1.22471">
        <ele>281.8</ele>
        <time>2024-09-25T14:43:09Z</time>
      </trkpt>
      <trkpt lat="45.83261" lon="1.22471">
        <ele>281.3</ele>
        <time>2024-09-25T14:43:10Z</time>
      </trkpt>
      <trkpt lat="45.8327" lon="1.22472">
        <ele>280.7</ele>
        <time>2024-09-25T14:43:11Z</time>
      </trkpt>
      <trkpt lat="45.83278" lon="1.22473">
        <ele>280.2</ele>
        <time>2024-09-25T14:43:12Z</time>
      </trkpt>
      <trkpt lat="45.83286" lon="1.22474">
        <ele>279.6</ele>
        <time>2024-09-25T14:43:13Z</time>
      </trkpt>
      <trkpt lat="45.83294" lon="1.22476">
        <ele>279.1</ele>
        <time>2024-09-25T14:43:14Z</time>
      </trkpt>
      <trkpt lat="45.83303" lon="1.22478">
        <ele>278.5</ele>
        <time>2024-09-25T14:43:15Z</time>
      </trkpt>
      <trkpt lat="45.83311" lon="1.22481">
        <ele>278</ele>
        <time>2024-09-25T14:43:16Z</time>
      </trkpt>
      <trkpt lat="45.8332" lon="1.22484">
        <ele>277.4</ele>
        <time>2024-09-25T14:43:17Z</time>
      </trkpt>
      <trkpt lat="45.83329" lon="1.22488">
        <ele>276.8</ele>
        <time>2024-09-25T14:43:18Z</time>
      </trkpt>
      <trkpt lat="45.83337" lon="1.22492">
        <ele>276.3</ele>
        <time>2024-09-25T14:43:19Z</time>
      </trkpt>
      <trkpt lat="45.83345" lon="1.22496">
        <ele>275.7</ele>
        <time>2024-09-25T14:43:20Z</time>
      </trkpt>
      <trkpt lat="45.83353" lon="1.225">
        <ele>275.1</ele>
        <time>2024-09-25T14:43:21Z</time>
      </trkpt>
      <trkpt lat="45.8336" lon="1.22503">
        <ele>274.7</ele>
        <time>2024-09-25T14:43:22Z</time>
      </trkpt>
      <trkpt lat="45.83365" lon="1.22506">
        <ele>274.4</ele>
        <time>2024-09-25T14:43:23Z</time>
      </trkpt>
      <trkpt lat="45.83371" lon="1.22508">
        <ele>274</ele>
        <time>2024-09-25T14:43:24Z</time>
      </trkpt>
      <trkpt lat="45.83376" lon="1.2251">
        <ele>273.7</ele>
        <time>2024-09-25T14:43:25Z</time>
      </trkpt>
      <trkpt lat="45.8338" lon="1.22512">
        <ele>273.4</ele>
        <time>2024-09-25T14:43:26Z</time>
      </trkpt>
      <trkpt lat="45.83384" lon="1.22514">
        <ele>273.2</ele>
        <time>2024-09-25T14:43:27Z</time>
      </trkpt>
      <trkpt lat="45.83388" lon="1.22516">
        <ele>273.1</ele>
        <time>2024-09-25T14:43:29Z</time>
      </trkpt>
    </trkseg>
  </trk>
</gpx>